<?xml version="1.0" encoding="UTF-8" standalone="no" ?>
<gpx xmlns="http://www.topografix.com/GPX/1/1" xmlns:xsi="http://www.w3.org/2001/XMLSchema-instance" xsi:schemaLocation="http://www.topografix.com/GPX/1/1 http://www.topografix.com/GPX/1/1/gpx.xsd" version="1.1" creator="VisuGPX - https://www.visugpx.com">
  <metadata>
    <name>Somain 12 kms</name>
    <desc><![CDATA[Départ de somain vers aniche puis terril saint marie et ensuite vers bruilles les marchiennes pour revenir à Somain]]></desc>
  </metadata>
  <trk>
    <name><![CDATA[12km somain rando.gpx]]></name>
    <extensions>
      <line xmlns="http://www.topografix.com/GPX/gpx_style/0/2">
        <color>0000FF</color>
        <width>4</width>
      </line>
    </extensions>
    <trkseg>
      <trkpt lat="50.34985" lon="3.27438">
        <ele>33.4</ele>
        <time>2023-01-22T08:02:18Z</time>
      </trkpt>
      <trkpt lat="50.34982" lon="3.2744">
        <ele>33.5</ele>
        <time>2023-01-22T08:02:19Z</time>
        <extensions>
          <gpxtpx:TrackPointExtension xmlns:gpxtpx="http://www.garmin.com/xmlschemas/TrackPointExtension/v1">
            <gpxtpx:hr>97</gpxtpx:hr>
          </gpxtpx:TrackPointExtension>
        </extensions>
      </trkpt>
      <trkpt lat="50.34983" lon="3.27441">
        <ele>33.5</ele>
        <time>2023-01-22T08:02:20Z</time>
      </trkpt>
      <trkpt lat="50.34983" lon="3.27439">
        <ele>33.5</ele>
        <time>2023-01-22T08:02:21Z</time>
      </trkpt>
      <trkpt lat="50.34982" lon="3.27437">
        <ele>33.5</ele>
        <time>2023-01-22T08:02:22Z</time>
      </trkpt>
      <trkpt lat="50.34981" lon="3.27438">
        <ele>33.5</ele>
        <time>2023-01-22T08:02:23Z</time>
      </trkpt>
      <trkpt lat="50.3498" lon="3.27437">
        <ele>33.5</ele>
        <time>2023-01-22T08:02:24Z</time>
      </trkpt>
      <trkpt lat="50.3498" lon="3.27436">
        <ele>28.397717</ele>
        <time>2023-01-22T08:02:25Z</time>
      </trkpt>
      <trkpt lat="50.34979" lon="3.27435">
        <ele>33.5</ele>
        <time>2023-01-22T08:02:26Z</time>
      </trkpt>
      <trkpt lat="50.34978" lon="3.27434">
        <ele>33.5</ele>
        <time>2023-01-22T08:02:27Z</time>
      </trkpt>
      <trkpt lat="50.34977" lon="3.27433">
        <ele>33.5</ele>
        <time>2023-01-22T08:02:28Z</time>
      </trkpt>
      <trkpt lat="50.34976" lon="3.27432">
        <ele>33.5</ele>
        <time>2023-01-22T08:02:29Z</time>
      </trkpt>
      <trkpt lat="50.34975" lon="3.27431">
        <ele>28.259176</ele>
        <time>2023-01-22T08:02:30Z</time>
      </trkpt>
      <trkpt lat="50.34974" lon="3.2743">
        <ele>33.4</ele>
        <time>2023-01-22T08:02:31Z</time>
      </trkpt>
      <trkpt lat="50.34973" lon="3.27429">
        <ele>33.4</ele>
        <time>2023-01-22T08:02:32Z</time>
      </trkpt>
      <trkpt lat="50.34972" lon="3.27428">
        <ele>33.4</ele>
        <time>2023-01-22T08:02:33Z</time>
      </trkpt>
      <trkpt lat="50.34971" lon="3.27426">
        <ele>33.4</ele>
        <time>2023-01-22T08:02:34Z</time>
      </trkpt>
      <trkpt lat="50.3497" lon="3.27425">
        <ele>33.3</ele>
        <time>2023-01-22T08:02:35Z</time>
      </trkpt>
      <trkpt lat="50.34969" lon="3.27423">
        <ele>33.3</ele>
        <time>2023-01-22T08:02:36Z</time>
      </trkpt>
      <trkpt lat="50.34969" lon="3.27422">
        <ele>33.3</ele>
        <time>2023-01-22T08:02:37Z</time>
      </trkpt>
      <trkpt lat="50.34967" lon="3.27421">
        <ele>33.3</ele>
        <time>2023-01-22T08:02:38Z</time>
      </trkpt>
      <trkpt lat="50.34966" lon="3.2742">
        <ele>33.3</ele>
        <time>2023-01-22T08:02:39Z</time>
        <extensions>
          <gpxtpx:TrackPointExtension xmlns:gpxtpx="http://www.garmin.com/xmlschemas/TrackPointExtension/v1">
            <gpxtpx:hr>97</gpxtpx:hr>
          </gpxtpx:TrackPointExtension>
        </extensions>
      </trkpt>
      <trkpt lat="50.34966" lon="3.27419">
        <ele>28.095966</ele>
        <time>2023-01-22T08:02:40Z</time>
      </trkpt>
      <trkpt lat="50.34965" lon="3.27418">
        <ele>33.3</ele>
        <time>2023-01-22T08:02:41Z</time>
      </trkpt>
      <trkpt lat="50.34964" lon="3.27417">
        <ele>33.3</ele>
        <time>2023-01-22T08:02:42Z</time>
      </trkpt>
      <trkpt lat="50.34963" lon="3.27417">
        <ele>33.3</ele>
        <time>2023-01-22T08:02:43Z</time>
      </trkpt>
      <trkpt lat="50.34962" lon="3.27415">
        <ele>33.4</ele>
        <time>2023-01-22T08:02:44Z</time>
      </trkpt>
      <trkpt lat="50.34961" lon="3.27415">
        <ele>33.4</ele>
        <time>2023-01-22T08:02:45Z</time>
      </trkpt>
      <trkpt lat="50.34959" lon="3.27414">
        <ele>33.4</ele>
        <time>2023-01-22T08:02:46Z</time>
      </trkpt>
      <trkpt lat="50.34958" lon="3.27413">
        <ele>33.4</ele>
        <time>2023-01-22T08:02:47Z</time>
      </trkpt>
      <trkpt lat="50.34956" lon="3.27412">
        <ele>33.5</ele>
        <time>2023-01-22T08:02:48Z</time>
      </trkpt>
      <trkpt lat="50.34955" lon="3.27411">
        <ele>33.5</ele>
        <time>2023-01-22T08:02:49Z</time>
      </trkpt>
      <trkpt lat="50.34955" lon="3.2741">
        <ele>28.16998</ele>
        <time>2023-01-22T08:02:50Z</time>
      </trkpt>
      <trkpt lat="50.34954" lon="3.27409">
        <ele>33.5</ele>
        <time>2023-01-22T08:02:51Z</time>
      </trkpt>
      <trkpt lat="50.34953" lon="3.27409">
        <ele>33.5</ele>
        <time>2023-01-22T08:02:52Z</time>
      </trkpt>
      <trkpt lat="50.34951" lon="3.2741">
        <ele>33.6</ele>
        <time>2023-01-22T08:02:53Z</time>
      </trkpt>
      <trkpt lat="50.3495" lon="3.27409">
        <ele>33.6</ele>
        <time>2023-01-22T08:02:54Z</time>
      </trkpt>
      <trkpt lat="50.34949" lon="3.27408">
        <ele>33.6</ele>
        <time>2023-01-22T08:02:55Z</time>
      </trkpt>
      <trkpt lat="50.34948" lon="3.27407">
        <ele>33.6</ele>
        <time>2023-01-22T08:02:56Z</time>
      </trkpt>
      <trkpt lat="50.34946" lon="3.27406">
        <ele>33.6</ele>
        <time>2023-01-22T08:02:57Z</time>
      </trkpt>
      <trkpt lat="50.34946" lon="3.27406">
        <ele>33.6</ele>
        <time>2023-01-22T08:02:58Z</time>
      </trkpt>
      <trkpt lat="50.34944" lon="3.27405">
        <ele>33.6</ele>
        <time>2023-01-22T08:02:59Z</time>
        <extensions>
          <gpxtpx:TrackPointExtension xmlns:gpxtpx="http://www.garmin.com/xmlschemas/TrackPointExtension/v1">
            <gpxtpx:hr>105</gpxtpx:hr>
          </gpxtpx:TrackPointExtension>
        </extensions>
      </trkpt>
      <trkpt lat="50.34943" lon="3.27404">
        <ele>28.348373</ele>
        <time>2023-01-22T08:03:00Z</time>
      </trkpt>
      <trkpt lat="50.34941" lon="3.27403">
        <ele>33.5</ele>
        <time>2023-01-22T08:03:01Z</time>
      </trkpt>
      <trkpt lat="50.3494" lon="3.27401">
        <ele>33.5</ele>
        <time>2023-01-22T08:03:02Z</time>
      </trkpt>
      <trkpt lat="50.34939" lon="3.274">
        <ele>33.4</ele>
        <time>2023-01-22T08:03:03Z</time>
      </trkpt>
      <trkpt lat="50.34938" lon="3.27398">
        <ele>33.4</ele>
        <time>2023-01-22T08:03:04Z</time>
      </trkpt>
      <trkpt lat="50.34937" lon="3.27397">
        <ele>33.4</ele>
        <time>2023-01-22T08:03:05Z</time>
      </trkpt>
      <trkpt lat="50.34936" lon="3.27396">
        <ele>33.4</ele>
        <time>2023-01-22T08:03:06Z</time>
      </trkpt>
      <trkpt lat="50.34935" lon="3.27395">
        <ele>33.4</ele>
        <time>2023-01-22T08:03:07Z</time>
      </trkpt>
      <trkpt lat="50.34934" lon="3.27394">
        <ele>33.4</ele>
        <time>2023-01-22T08:03:08Z</time>
      </trkpt>
      <trkpt lat="50.34933" lon="3.27392">
        <ele>33.4</ele>
        <time>2023-01-22T08:03:09Z</time>
      </trkpt>
      <trkpt lat="50.34931" lon="3.27391">
        <ele>28.243046</ele>
        <time>2023-01-22T08:03:10Z</time>
      </trkpt>
      <trkpt lat="50.3493" lon="3.2739">
        <ele>33.5</ele>
        <time>2023-01-22T08:03:11Z</time>
      </trkpt>
      <trkpt lat="50.3493" lon="3.27389">
        <ele>33.5</ele>
        <time>2023-01-22T08:03:12Z</time>
      </trkpt>
      <trkpt lat="50.34929" lon="3.27389">
        <ele>33.6</ele>
        <time>2023-01-22T08:03:13Z</time>
      </trkpt>
      <trkpt lat="50.34928" lon="3.27387">
        <ele>33.6</ele>
        <time>2023-01-22T08:03:14Z</time>
      </trkpt>
      <trkpt lat="50.34927" lon="3.27386">
        <ele>33.6</ele>
        <time>2023-01-22T08:03:15Z</time>
      </trkpt>
      <trkpt lat="50.34927" lon="3.27385">
        <ele>33.6</ele>
        <time>2023-01-22T08:03:16Z</time>
      </trkpt>
      <trkpt lat="50.34926" lon="3.27383">
        <ele>33.7</ele>
        <time>2023-01-22T08:03:17Z</time>
      </trkpt>
      <trkpt lat="50.34924" lon="3.27382">
        <ele>33.7</ele>
        <time>2023-01-22T08:03:18Z</time>
      </trkpt>
      <trkpt lat="50.34924" lon="3.27381">
        <ele>33.8</ele>
        <time>2023-01-22T08:03:19Z</time>
        <extensions>
          <gpxtpx:TrackPointExtension xmlns:gpxtpx="http://www.garmin.com/xmlschemas/TrackPointExtension/v1">
            <gpxtpx:hr>104</gpxtpx:hr>
          </gpxtpx:TrackPointExtension>
        </extensions>
      </trkpt>
      <trkpt lat="50.34923" lon="3.2738">
        <ele>28.292389</ele>
        <time>2023-01-22T08:03:20Z</time>
      </trkpt>
      <trkpt lat="50.34922" lon="3.27379">
        <ele>33.8</ele>
        <time>2023-01-22T08:03:21Z</time>
      </trkpt>
      <trkpt lat="50.34922" lon="3.27378">
        <ele>33.8</ele>
        <time>2023-01-22T08:03:22Z</time>
      </trkpt>
      <trkpt lat="50.34921" lon="3.27377">
        <ele>33.8</ele>
        <time>2023-01-22T08:03:23Z</time>
      </trkpt>
      <trkpt lat="50.34921" lon="3.27376">
        <ele>33.9</ele>
        <time>2023-01-22T08:03:24Z</time>
      </trkpt>
      <trkpt lat="50.3492" lon="3.27374">
        <ele>33.9</ele>
        <time>2023-01-22T08:03:25Z</time>
      </trkpt>
      <trkpt lat="50.34919" lon="3.27372">
        <ele>33.9</ele>
        <time>2023-01-22T08:03:26Z</time>
      </trkpt>
      <trkpt lat="50.34918" lon="3.27372">
        <ele>33.9</ele>
        <time>2023-01-22T08:03:27Z</time>
      </trkpt>
      <trkpt lat="50.34918" lon="3.2737">
        <ele>34</ele>
        <time>2023-01-22T08:03:28Z</time>
      </trkpt>
      <trkpt lat="50.34917" lon="3.27368">
        <ele>34</ele>
        <time>2023-01-22T08:03:29Z</time>
      </trkpt>
      <trkpt lat="50.34916" lon="3.27366">
        <ele>28.380636</ele>
        <time>2023-01-22T08:03:30Z</time>
      </trkpt>
      <trkpt lat="50.34916" lon="3.27365">
        <ele>34</ele>
        <time>2023-01-22T08:03:31Z</time>
      </trkpt>
      <trkpt lat="50.34914" lon="3.27364">
        <ele>34</ele>
        <time>2023-01-22T08:03:32Z</time>
      </trkpt>
      <trkpt lat="50.34913" lon="3.27363">
        <ele>34</ele>
        <time>2023-01-22T08:03:33Z</time>
      </trkpt>
      <trkpt lat="50.34913" lon="3.27361">
        <ele>34</ele>
        <time>2023-01-22T08:03:34Z</time>
      </trkpt>
      <trkpt lat="50.34912" lon="3.2736">
        <ele>34</ele>
        <time>2023-01-22T08:03:35Z</time>
      </trkpt>
      <trkpt lat="50.34912" lon="3.27359">
        <ele>34</ele>
        <time>2023-01-22T08:03:36Z</time>
      </trkpt>
      <trkpt lat="50.34911" lon="3.27357">
        <ele>34</ele>
        <time>2023-01-22T08:03:37Z</time>
      </trkpt>
      <trkpt lat="50.3491" lon="3.27357">
        <ele>34</ele>
        <time>2023-01-22T08:03:38Z</time>
      </trkpt>
      <trkpt lat="50.34909" lon="3.27356">
        <ele>34</ele>
        <time>2023-01-22T08:03:39Z</time>
        <extensions>
          <gpxtpx:TrackPointExtension xmlns:gpxtpx="http://www.garmin.com/xmlschemas/TrackPointExtension/v1">
            <gpxtpx:hr>104</gpxtpx:hr>
          </gpxtpx:TrackPointExtension>
        </extensions>
      </trkpt>
      <trkpt lat="50.34908" lon="3.27354">
        <ele>34</ele>
        <time>2023-01-22T08:03:40Z</time>
      </trkpt>
      <trkpt lat="50.34907" lon="3.27352">
        <ele>34</ele>
        <time>2023-01-22T08:03:41Z</time>
      </trkpt>
      <trkpt lat="50.34906" lon="3.27351">
        <ele>34</ele>
        <time>2023-01-22T08:03:42Z</time>
      </trkpt>
      <trkpt lat="50.34906" lon="3.2735">
        <ele>34</ele>
        <time>2023-01-22T08:03:43Z</time>
      </trkpt>
      <trkpt lat="50.34905" lon="3.2735">
        <ele>34</ele>
        <time>2023-01-22T08:03:44Z</time>
      </trkpt>
      <trkpt lat="50.34905" lon="3.27349">
        <ele>28.519178</ele>
        <time>2023-01-22T08:03:45Z</time>
      </trkpt>
      <trkpt lat="50.34905" lon="3.27347">
        <ele>34</ele>
        <time>2023-01-22T08:03:46Z</time>
      </trkpt>
      <trkpt lat="50.34905" lon="3.27346">
        <ele>34</ele>
        <time>2023-01-22T08:03:47Z</time>
      </trkpt>
      <trkpt lat="50.34904" lon="3.27345">
        <ele>34</ele>
        <time>2023-01-22T08:03:48Z</time>
      </trkpt>
      <trkpt lat="50.34904" lon="3.27343">
        <ele>34</ele>
        <time>2023-01-22T08:03:49Z</time>
      </trkpt>
      <trkpt lat="50.34903" lon="3.27342">
        <ele>28.554287</ele>
        <time>2023-01-22T08:03:50Z</time>
      </trkpt>
      <trkpt lat="50.34903" lon="3.27341">
        <ele>34</ele>
        <time>2023-01-22T08:03:51Z</time>
      </trkpt>
      <trkpt lat="50.34902" lon="3.27339">
        <ele>34</ele>
        <time>2023-01-22T08:03:52Z</time>
      </trkpt>
      <trkpt lat="50.34902" lon="3.27337">
        <ele>34</ele>
        <time>2023-01-22T08:03:54Z</time>
      </trkpt>
      <trkpt lat="50.34901" lon="3.27335">
        <ele>34</ele>
        <time>2023-01-22T08:03:55Z</time>
      </trkpt>
      <trkpt lat="50.349" lon="3.27334">
        <ele>34</ele>
        <time>2023-01-22T08:03:56Z</time>
      </trkpt>
      <trkpt lat="50.34899" lon="3.27333">
        <ele>34</ele>
        <time>2023-01-22T08:03:57Z</time>
      </trkpt>
      <trkpt lat="50.34898" lon="3.27333">
        <ele>34</ele>
        <time>2023-01-22T08:03:58Z</time>
      </trkpt>
      <trkpt lat="50.34897" lon="3.27332">
        <ele>34</ele>
        <time>2023-01-22T08:03:59Z</time>
        <extensions>
          <gpxtpx:TrackPointExtension xmlns:gpxtpx="http://www.garmin.com/xmlschemas/TrackPointExtension/v1">
            <gpxtpx:hr>112</gpxtpx:hr>
          </gpxtpx:TrackPointExtension>
        </extensions>
      </trkpt>
      <trkpt lat="50.34897" lon="3.27331">
        <ele>28.795315</ele>
        <time>2023-01-22T08:04:00Z</time>
      </trkpt>
      <trkpt lat="50.34896" lon="3.27331">
        <ele>34</ele>
        <time>2023-01-22T08:04:01Z</time>
      </trkpt>
      <trkpt lat="50.34895" lon="3.2733">
        <ele>34</ele>
        <time>2023-01-22T08:04:02Z</time>
      </trkpt>
      <trkpt lat="50.34894" lon="3.27329">
        <ele>34</ele>
        <time>2023-01-22T08:04:03Z</time>
      </trkpt>
      <trkpt lat="50.34892" lon="3.27328">
        <ele>34</ele>
        <time>2023-01-22T08:04:04Z</time>
      </trkpt>
      <trkpt lat="50.34891" lon="3.27325">
        <ele>34</ele>
        <time>2023-01-22T08:04:05Z</time>
      </trkpt>
      <trkpt lat="50.3489" lon="3.27324">
        <ele>34</ele>
        <time>2023-01-22T08:04:06Z</time>
      </trkpt>
      <trkpt lat="50.34889" lon="3.27321">
        <ele>34</ele>
        <time>2023-01-22T08:04:07Z</time>
      </trkpt>
      <trkpt lat="50.34888" lon="3.2732">
        <ele>34</ele>
        <time>2023-01-22T08:04:08Z</time>
      </trkpt>
      <trkpt lat="50.34887" lon="3.2732">
        <ele>34</ele>
        <time>2023-01-22T08:04:09Z</time>
      </trkpt>
      <trkpt lat="50.34886" lon="3.27319">
        <ele>28.630201</ele>
        <time>2023-01-22T08:04:10Z</time>
      </trkpt>
      <trkpt lat="50.34885" lon="3.27317">
        <ele>34</ele>
        <time>2023-01-22T08:04:11Z</time>
      </trkpt>
      <trkpt lat="50.34885" lon="3.27316">
        <ele>34</ele>
        <time>2023-01-22T08:04:12Z</time>
      </trkpt>
      <trkpt lat="50.34884" lon="3.27313">
        <ele>34</ele>
        <time>2023-01-22T08:04:13Z</time>
      </trkpt>
      <trkpt lat="50.34884" lon="3.27312">
        <ele>34</ele>
        <time>2023-01-22T08:04:14Z</time>
      </trkpt>
      <trkpt lat="50.34884" lon="3.2731">
        <ele>34</ele>
        <time>2023-01-22T08:04:15Z</time>
      </trkpt>
      <trkpt lat="50.34883" lon="3.27309">
        <ele>34</ele>
        <time>2023-01-22T08:04:16Z</time>
      </trkpt>
      <trkpt lat="50.34882" lon="3.27308">
        <ele>34</ele>
        <time>2023-01-22T08:04:17Z</time>
      </trkpt>
      <trkpt lat="50.34881" lon="3.27307">
        <ele>34</ele>
        <time>2023-01-22T08:04:18Z</time>
      </trkpt>
      <trkpt lat="50.3488" lon="3.27305">
        <ele>34</ele>
        <time>2023-01-22T08:04:19Z</time>
        <extensions>
          <gpxtpx:TrackPointExtension xmlns:gpxtpx="http://www.garmin.com/xmlschemas/TrackPointExtension/v1">
            <gpxtpx:hr>121</gpxtpx:hr>
          </gpxtpx:TrackPointExtension>
        </extensions>
      </trkpt>
      <trkpt lat="50.34879" lon="3.27304">
        <ele>28.757357</ele>
        <time>2023-01-22T08:04:20Z</time>
      </trkpt>
      <trkpt lat="50.34878" lon="3.27303">
        <ele>34</ele>
        <time>2023-01-22T08:04:21Z</time>
      </trkpt>
      <trkpt lat="50.34878" lon="3.27302">
        <ele>34</ele>
        <time>2023-01-22T08:04:22Z</time>
      </trkpt>
      <trkpt lat="50.34877" lon="3.27301">
        <ele>34</ele>
        <time>2023-01-22T08:04:23Z</time>
      </trkpt>
      <trkpt lat="50.34876" lon="3.27299">
        <ele>34</ele>
        <time>2023-01-22T08:04:24Z</time>
      </trkpt>
      <trkpt lat="50.34876" lon="3.27299">
        <ele>34</ele>
        <time>2023-01-22T08:04:25Z</time>
      </trkpt>
      <trkpt lat="50.34874" lon="3.27297">
        <ele>34</ele>
        <time>2023-01-22T08:04:26Z</time>
      </trkpt>
      <trkpt lat="50.34874" lon="3.27296">
        <ele>34</ele>
        <time>2023-01-22T08:04:27Z</time>
      </trkpt>
      <trkpt lat="50.34873" lon="3.27296">
        <ele>34</ele>
        <time>2023-01-22T08:04:28Z</time>
      </trkpt>
      <trkpt lat="50.34873" lon="3.27295">
        <ele>34</ele>
        <time>2023-01-22T08:04:29Z</time>
      </trkpt>
      <trkpt lat="50.34872" lon="3.27293">
        <ele>28.70137</ele>
        <time>2023-01-22T08:04:30Z</time>
      </trkpt>
      <trkpt lat="50.34871" lon="3.27292">
        <ele>34</ele>
        <time>2023-01-22T08:04:31Z</time>
      </trkpt>
      <trkpt lat="50.34869" lon="3.2729">
        <ele>34</ele>
        <time>2023-01-22T08:04:32Z</time>
      </trkpt>
      <trkpt lat="50.34868" lon="3.27288">
        <ele>34</ele>
        <time>2023-01-22T08:04:33Z</time>
      </trkpt>
      <trkpt lat="50.34866" lon="3.27286">
        <ele>34</ele>
        <time>2023-01-22T08:04:34Z</time>
      </trkpt>
      <trkpt lat="50.34865" lon="3.27284">
        <ele>34</ele>
        <time>2023-01-22T08:04:35Z</time>
      </trkpt>
      <trkpt lat="50.34864" lon="3.27282">
        <ele>34</ele>
        <time>2023-01-22T08:04:36Z</time>
      </trkpt>
      <trkpt lat="50.34863" lon="3.27281">
        <ele>34</ele>
        <time>2023-01-22T08:04:37Z</time>
      </trkpt>
      <trkpt lat="50.34862" lon="3.27279">
        <ele>34</ele>
        <time>2023-01-22T08:04:38Z</time>
      </trkpt>
      <trkpt lat="50.34861" lon="3.27278">
        <ele>34</ele>
        <time>2023-01-22T08:04:39Z</time>
        <extensions>
          <gpxtpx:TrackPointExtension xmlns:gpxtpx="http://www.garmin.com/xmlschemas/TrackPointExtension/v1">
            <gpxtpx:hr>113</gpxtpx:hr>
          </gpxtpx:TrackPointExtension>
        </extensions>
      </trkpt>
      <trkpt lat="50.34861" lon="3.27276">
        <ele>28.630201</ele>
        <time>2023-01-22T08:04:40Z</time>
      </trkpt>
      <trkpt lat="50.3486" lon="3.27275">
        <ele>34</ele>
        <time>2023-01-22T08:04:41Z</time>
      </trkpt>
      <trkpt lat="50.34859" lon="3.27273">
        <ele>34</ele>
        <time>2023-01-22T08:04:42Z</time>
      </trkpt>
      <trkpt lat="50.34858" lon="3.27271">
        <ele>34</ele>
        <time>2023-01-22T08:04:43Z</time>
      </trkpt>
      <trkpt lat="50.34857" lon="3.2727">
        <ele>34</ele>
        <time>2023-01-22T08:04:44Z</time>
      </trkpt>
      <trkpt lat="50.34857" lon="3.27268">
        <ele>34</ele>
        <time>2023-01-22T08:04:45Z</time>
      </trkpt>
      <trkpt lat="50.34856" lon="3.27267">
        <ele>34</ele>
        <time>2023-01-22T08:04:46Z</time>
      </trkpt>
      <trkpt lat="50.34855" lon="3.27266">
        <ele>34</ele>
        <time>2023-01-22T08:04:47Z</time>
      </trkpt>
      <trkpt lat="50.34855" lon="3.27264">
        <ele>34</ele>
        <time>2023-01-22T08:04:48Z</time>
      </trkpt>
      <trkpt lat="50.34853" lon="3.27262">
        <ele>34</ele>
        <time>2023-01-22T08:04:49Z</time>
      </trkpt>
      <trkpt lat="50.34853" lon="3.27261">
        <ele>28.78108</ele>
        <time>2023-01-22T08:04:50Z</time>
      </trkpt>
      <trkpt lat="50.34852" lon="3.2726">
        <ele>34</ele>
        <time>2023-01-22T08:04:51Z</time>
      </trkpt>
      <trkpt lat="50.34852" lon="3.27258">
        <ele>34</ele>
        <time>2023-01-22T08:04:52Z</time>
      </trkpt>
      <trkpt lat="50.34851" lon="3.27256">
        <ele>34</ele>
        <time>2023-01-22T08:04:53Z</time>
      </trkpt>
      <trkpt lat="50.34851" lon="3.27255">
        <ele>34</ele>
        <time>2023-01-22T08:04:54Z</time>
      </trkpt>
      <trkpt lat="50.3485" lon="3.27253">
        <ele>34</ele>
        <time>2023-01-22T08:04:55Z</time>
      </trkpt>
      <trkpt lat="50.34849" lon="3.27252">
        <ele>34</ele>
        <time>2023-01-22T08:04:56Z</time>
      </trkpt>
      <trkpt lat="50.34848" lon="3.2725">
        <ele>34</ele>
        <time>2023-01-22T08:04:57Z</time>
      </trkpt>
      <trkpt lat="50.34846" lon="3.27248">
        <ele>34</ele>
        <time>2023-01-22T08:04:58Z</time>
      </trkpt>
      <trkpt lat="50.34845" lon="3.27246">
        <ele>34</ele>
        <time>2023-01-22T08:04:59Z</time>
        <extensions>
          <gpxtpx:TrackPointExtension xmlns:gpxtpx="http://www.garmin.com/xmlschemas/TrackPointExtension/v1">
            <gpxtpx:hr>128</gpxtpx:hr>
          </gpxtpx:TrackPointExtension>
        </extensions>
      </trkpt>
      <trkpt lat="50.34845" lon="3.27244">
        <ele>28.867434</ele>
        <time>2023-01-22T08:05:00Z</time>
      </trkpt>
      <trkpt lat="50.34844" lon="3.27243">
        <ele>34</ele>
        <time>2023-01-22T08:05:01Z</time>
      </trkpt>
      <trkpt lat="50.34843" lon="3.27241">
        <ele>34</ele>
        <time>2023-01-22T08:05:02Z</time>
      </trkpt>
      <trkpt lat="50.34842" lon="3.2724">
        <ele>34</ele>
        <time>2023-01-22T08:05:03Z</time>
      </trkpt>
      <trkpt lat="50.34841" lon="3.27239">
        <ele>34</ele>
        <time>2023-01-22T08:05:04Z</time>
      </trkpt>
      <trkpt lat="50.3484" lon="3.27238">
        <ele>34</ele>
        <time>2023-01-22T08:05:05Z</time>
      </trkpt>
      <trkpt lat="50.3484" lon="3.27237">
        <ele>34</ele>
        <time>2023-01-22T08:05:06Z</time>
      </trkpt>
      <trkpt lat="50.34839" lon="3.27236">
        <ele>34</ele>
        <time>2023-01-22T08:05:07Z</time>
      </trkpt>
      <trkpt lat="50.34838" lon="3.27235">
        <ele>34</ele>
        <time>2023-01-22T08:05:08Z</time>
      </trkpt>
      <trkpt lat="50.34837" lon="3.27233">
        <ele>34</ele>
        <time>2023-01-22T08:05:09Z</time>
      </trkpt>
      <trkpt lat="50.34836" lon="3.27231">
        <ele>29.027803</ele>
        <time>2023-01-22T08:05:10Z</time>
      </trkpt>
      <trkpt lat="50.34835" lon="3.2723">
        <ele>34</ele>
        <time>2023-01-22T08:05:11Z</time>
      </trkpt>
      <trkpt lat="50.34834" lon="3.27228">
        <ele>34</ele>
        <time>2023-01-22T08:05:12Z</time>
      </trkpt>
      <trkpt lat="50.34833" lon="3.27227">
        <ele>34</ele>
        <time>2023-01-22T08:05:13Z</time>
      </trkpt>
      <trkpt lat="50.34832" lon="3.27225">
        <ele>34</ele>
        <time>2023-01-22T08:05:14Z</time>
      </trkpt>
      <trkpt lat="50.34832" lon="3.27223">
        <ele>34.1</ele>
        <time>2023-01-22T08:05:15Z</time>
      </trkpt>
      <trkpt lat="50.34831" lon="3.27222">
        <ele>34.1</ele>
        <time>2023-01-22T08:05:16Z</time>
      </trkpt>
      <trkpt lat="50.3483" lon="3.27221">
        <ele>34.2</ele>
        <time>2023-01-22T08:05:17Z</time>
      </trkpt>
      <trkpt lat="50.3483" lon="3.2722">
        <ele>34.2</ele>
        <time>2023-01-22T08:05:18Z</time>
      </trkpt>
      <trkpt lat="50.34829" lon="3.27219">
        <ele>34.3</ele>
        <time>2023-01-22T08:05:19Z</time>
        <extensions>
          <gpxtpx:TrackPointExtension xmlns:gpxtpx="http://www.garmin.com/xmlschemas/TrackPointExtension/v1">
            <gpxtpx:hr>139</gpxtpx:hr>
          </gpxtpx:TrackPointExtension>
        </extensions>
      </trkpt>
      <trkpt lat="50.34828" lon="3.27217">
        <ele>34.3</ele>
        <time>2023-01-22T08:05:20Z</time>
      </trkpt>
      <trkpt lat="50.34827" lon="3.27215">
        <ele>34.4</ele>
        <time>2023-01-22T08:05:21Z</time>
      </trkpt>
      <trkpt lat="50.34827" lon="3.27213">
        <ele>34.5</ele>
        <time>2023-01-22T08:05:22Z</time>
      </trkpt>
      <trkpt lat="50.34826" lon="3.27211">
        <ele>34.6</ele>
        <time>2023-01-22T08:05:23Z</time>
      </trkpt>
      <trkpt lat="50.34825" lon="3.27209">
        <ele>34.6</ele>
        <time>2023-01-22T08:05:24Z</time>
      </trkpt>
      <trkpt lat="50.34824" lon="3.27208">
        <ele>29.188173</ele>
        <time>2023-01-22T08:05:25Z</time>
      </trkpt>
      <trkpt lat="50.34823" lon="3.27207">
        <ele>34.7</ele>
        <time>2023-01-22T08:05:26Z</time>
      </trkpt>
      <trkpt lat="50.34823" lon="3.27206">
        <ele>34.7</ele>
        <time>2023-01-22T08:05:27Z</time>
      </trkpt>
      <trkpt lat="50.34822" lon="3.27206">
        <ele>34.8</ele>
        <time>2023-01-22T08:05:28Z</time>
      </trkpt>
      <trkpt lat="50.34821" lon="3.27206">
        <ele>34.8</ele>
        <time>2023-01-22T08:05:29Z</time>
      </trkpt>
      <trkpt lat="50.3482" lon="3.27204">
        <ele>29.215694</ele>
        <time>2023-01-22T08:05:30Z</time>
      </trkpt>
      <trkpt lat="50.34819" lon="3.27203">
        <ele>34.9</ele>
        <time>2023-01-22T08:05:31Z</time>
      </trkpt>
      <trkpt lat="50.34818" lon="3.27201">
        <ele>34.9</ele>
        <time>2023-01-22T08:05:32Z</time>
      </trkpt>
      <trkpt lat="50.34818" lon="3.272">
        <ele>34.9</ele>
        <time>2023-01-22T08:05:33Z</time>
      </trkpt>
      <trkpt lat="50.34817" lon="3.27199">
        <ele>34.9</ele>
        <time>2023-01-22T08:05:34Z</time>
      </trkpt>
      <trkpt lat="50.34816" lon="3.27198">
        <ele>35</ele>
        <time>2023-01-22T08:05:35Z</time>
      </trkpt>
      <trkpt lat="50.34816" lon="3.27196">
        <ele>35</ele>
        <time>2023-01-22T08:05:36Z</time>
      </trkpt>
      <trkpt lat="50.34815" lon="3.27195">
        <ele>35</ele>
        <time>2023-01-22T08:05:37Z</time>
      </trkpt>
      <trkpt lat="50.34814" lon="3.27193">
        <ele>35</ele>
        <time>2023-01-22T08:05:38Z</time>
      </trkpt>
      <trkpt lat="50.34813" lon="3.27192">
        <ele>35</ele>
        <time>2023-01-22T08:05:39Z</time>
      </trkpt>
      <trkpt lat="50.34813" lon="3.2719">
        <ele>29.189123</ele>
        <time>2023-01-22T08:05:40Z</time>
      </trkpt>
      <trkpt lat="50.34812" lon="3.27189">
        <ele>35</ele>
        <time>2023-01-22T08:05:41Z</time>
      </trkpt>
      <trkpt lat="50.34811" lon="3.27187">
        <ele>35</ele>
        <time>2023-01-22T08:05:42Z</time>
      </trkpt>
      <trkpt lat="50.3481" lon="3.27185">
        <ele>35</ele>
        <time>2023-01-22T08:05:43Z</time>
      </trkpt>
      <trkpt lat="50.34809" lon="3.27184">
        <ele>35</ele>
        <time>2023-01-22T08:05:44Z</time>
      </trkpt>
      <trkpt lat="50.34808" lon="3.27183">
        <ele>35</ele>
        <time>2023-01-22T08:05:45Z</time>
      </trkpt>
      <trkpt lat="50.34807" lon="3.27182">
        <ele>35</ele>
        <time>2023-01-22T08:05:46Z</time>
      </trkpt>
      <trkpt lat="50.34807" lon="3.2718">
        <ele>35</ele>
        <time>2023-01-22T08:05:47Z</time>
      </trkpt>
      <trkpt lat="50.34806" lon="3.27179">
        <ele>35</ele>
        <time>2023-01-22T08:05:48Z</time>
      </trkpt>
      <trkpt lat="50.34805" lon="3.27177">
        <ele>35</ele>
        <time>2023-01-22T08:05:49Z</time>
      </trkpt>
      <trkpt lat="50.34804" lon="3.27175">
        <ele>29.440596</ele>
        <time>2023-01-22T08:05:50Z</time>
      </trkpt>
      <trkpt lat="50.34804" lon="3.27174">
        <ele>35</ele>
        <time>2023-01-22T08:05:51Z</time>
      </trkpt>
      <trkpt lat="50.34803" lon="3.27172">
        <ele>35</ele>
        <time>2023-01-22T08:05:52Z</time>
      </trkpt>
      <trkpt lat="50.34803" lon="3.2717">
        <ele>35</ele>
        <time>2023-01-22T08:05:53Z</time>
      </trkpt>
      <trkpt lat="50.34802" lon="3.27168">
        <ele>35</ele>
        <time>2023-01-22T08:05:54Z</time>
      </trkpt>
      <trkpt lat="50.34802" lon="3.27166">
        <ele>35</ele>
        <time>2023-01-22T08:05:55Z</time>
      </trkpt>
      <trkpt lat="50.348" lon="3.27164">
        <ele>35</ele>
        <time>2023-01-22T08:05:56Z</time>
      </trkpt>
      <trkpt lat="50.34799" lon="3.27162">
        <ele>35</ele>
        <time>2023-01-22T08:05:57Z</time>
      </trkpt>
      <trkpt lat="50.34798" lon="3.27159">
        <ele>35</ele>
        <time>2023-01-22T08:05:58Z</time>
      </trkpt>
      <trkpt lat="50.34797" lon="3.27157">
        <ele>35</ele>
        <time>2023-01-22T08:05:59Z</time>
      </trkpt>
      <trkpt lat="50.34797" lon="3.27155">
        <ele>29.718641</ele>
        <time>2023-01-22T08:06:00Z</time>
      </trkpt>
      <trkpt lat="50.34797" lon="3.27154">
        <ele>35</ele>
        <time>2023-01-22T08:06:01Z</time>
      </trkpt>
      <trkpt lat="50.34796" lon="3.27154">
        <ele>35</ele>
        <time>2023-01-22T08:06:02Z</time>
      </trkpt>
      <trkpt lat="50.34796" lon="3.27153">
        <ele>35</ele>
        <time>2023-01-22T08:06:03Z</time>
      </trkpt>
      <trkpt lat="50.34795" lon="3.27152">
        <ele>35</ele>
        <time>2023-01-22T08:06:04Z</time>
      </trkpt>
      <trkpt lat="50.34795" lon="3.2715">
        <ele>35</ele>
        <time>2023-01-22T08:06:05Z</time>
      </trkpt>
      <trkpt lat="50.34794" lon="3.27149">
        <ele>35</ele>
        <time>2023-01-22T08:06:06Z</time>
      </trkpt>
      <trkpt lat="50.34793" lon="3.27147">
        <ele>35</ele>
        <time>2023-01-22T08:06:07Z</time>
      </trkpt>
      <trkpt lat="50.34793" lon="3.27145">
        <ele>35</ele>
        <time>2023-01-22T08:06:08Z</time>
      </trkpt>
      <trkpt lat="50.34792" lon="3.27144">
        <ele>35</ele>
        <time>2023-01-22T08:06:09Z</time>
        <extensions>
          <gpxtpx:TrackPointExtension xmlns:gpxtpx="http://www.garmin.com/xmlschemas/TrackPointExtension/v1">
            <gpxtpx:hr>140</gpxtpx:hr>
          </gpxtpx:TrackPointExtension>
        </extensions>
      </trkpt>
      <trkpt lat="50.34792" lon="3.27143">
        <ele>29.624693</ele>
        <time>2023-01-22T08:06:10Z</time>
      </trkpt>
      <trkpt lat="50.34791" lon="3.27141">
        <ele>35</ele>
        <time>2023-01-22T08:06:11Z</time>
      </trkpt>
      <trkpt lat="50.3479" lon="3.2714">
        <ele>35</ele>
        <time>2023-01-22T08:06:12Z</time>
      </trkpt>
      <trkpt lat="50.3479" lon="3.27139">
        <ele>35</ele>
        <time>2023-01-22T08:06:13Z</time>
      </trkpt>
      <trkpt lat="50.34789" lon="3.27138">
        <ele>35</ele>
        <time>2023-01-22T08:06:14Z</time>
      </trkpt>
      <trkpt lat="50.34788" lon="3.27136">
        <ele>35</ele>
        <time>2023-01-22T08:06:15Z</time>
      </trkpt>
      <trkpt lat="50.34787" lon="3.27135">
        <ele>35</ele>
        <time>2023-01-22T08:06:16Z</time>
      </trkpt>
      <trkpt lat="50.34787" lon="3.27133">
        <ele>35</ele>
        <time>2023-01-22T08:06:17Z</time>
      </trkpt>
      <trkpt lat="50.34786" lon="3.27132">
        <ele>35</ele>
        <time>2023-01-22T08:06:18Z</time>
      </trkpt>
      <trkpt lat="50.34784" lon="3.2713">
        <ele>35</ele>
        <time>2023-01-22T08:06:19Z</time>
      </trkpt>
      <trkpt lat="50.34784" lon="3.27129">
        <ele>29.691122</ele>
        <time>2023-01-22T08:06:20Z</time>
      </trkpt>
      <trkpt lat="50.34783" lon="3.27127">
        <ele>35</ele>
        <time>2023-01-22T08:06:21Z</time>
      </trkpt>
      <trkpt lat="50.34782" lon="3.27125">
        <ele>35</ele>
        <time>2023-01-22T08:06:22Z</time>
        <extensions>
          <gpxtpx:TrackPointExtension xmlns:gpxtpx="http://www.garmin.com/xmlschemas/TrackPointExtension/v1">
            <gpxtpx:hr>140</gpxtpx:hr>
          </gpxtpx:TrackPointExtension>
        </extensions>
      </trkpt>
      <trkpt lat="50.34782" lon="3.27124">
        <ele>35</ele>
        <time>2023-01-22T08:06:23Z</time>
      </trkpt>
      <trkpt lat="50.34781" lon="3.27123">
        <ele>35</ele>
        <time>2023-01-22T08:06:24Z</time>
      </trkpt>
      <trkpt lat="50.34781" lon="3.27122">
        <ele>35</ele>
        <time>2023-01-22T08:06:25Z</time>
      </trkpt>
      <trkpt lat="50.3478" lon="3.27121">
        <ele>35</ele>
        <time>2023-01-22T08:06:26Z</time>
      </trkpt>
      <trkpt lat="50.34779" lon="3.27121">
        <ele>35</ele>
        <time>2023-01-22T08:06:27Z</time>
      </trkpt>
      <trkpt lat="50.34779" lon="3.27119">
        <ele>35</ele>
        <time>2023-01-22T08:06:28Z</time>
      </trkpt>
      <trkpt lat="50.34778" lon="3.27117">
        <ele>35</ele>
        <time>2023-01-22T08:06:29Z</time>
      </trkpt>
      <trkpt lat="50.34778" lon="3.27116">
        <ele>29.619</ele>
        <time>2023-01-22T08:06:30Z</time>
      </trkpt>
      <trkpt lat="50.34777" lon="3.27115">
        <ele>35</ele>
        <time>2023-01-22T08:06:31Z</time>
      </trkpt>
      <trkpt lat="50.34776" lon="3.27114">
        <ele>35</ele>
        <time>2023-01-22T08:06:32Z</time>
      </trkpt>
      <trkpt lat="50.34775" lon="3.27113">
        <ele>35</ele>
        <time>2023-01-22T08:06:33Z</time>
      </trkpt>
      <trkpt lat="50.34774" lon="3.27112">
        <ele>35</ele>
        <time>2023-01-22T08:06:34Z</time>
      </trkpt>
      <trkpt lat="50.34774" lon="3.2711">
        <ele>35</ele>
        <time>2023-01-22T08:06:35Z</time>
      </trkpt>
      <trkpt lat="50.34772" lon="3.27109">
        <ele>35</ele>
        <time>2023-01-22T08:06:36Z</time>
      </trkpt>
      <trkpt lat="50.34771" lon="3.27107">
        <ele>35</ele>
        <time>2023-01-22T08:06:37Z</time>
      </trkpt>
      <trkpt lat="50.3477" lon="3.27106">
        <ele>35</ele>
        <time>2023-01-22T08:06:38Z</time>
      </trkpt>
      <trkpt lat="50.34769" lon="3.27104">
        <ele>35</ele>
        <time>2023-01-22T08:06:39Z</time>
        <extensions>
          <gpxtpx:TrackPointExtension xmlns:gpxtpx="http://www.garmin.com/xmlschemas/TrackPointExtension/v1">
            <gpxtpx:hr>140</gpxtpx:hr>
          </gpxtpx:TrackPointExtension>
        </extensions>
      </trkpt>
      <trkpt lat="50.34769" lon="3.27102">
        <ele>29.696815</ele>
        <time>2023-01-22T08:06:40Z</time>
      </trkpt>
      <trkpt lat="50.34768" lon="3.27101">
        <ele>35</ele>
        <time>2023-01-22T08:06:41Z</time>
      </trkpt>
      <trkpt lat="50.34768" lon="3.27099">
        <ele>35</ele>
        <time>2023-01-22T08:06:42Z</time>
      </trkpt>
      <trkpt lat="50.34766" lon="3.27098">
        <ele>35</ele>
        <time>2023-01-22T08:06:43Z</time>
      </trkpt>
      <trkpt lat="50.34766" lon="3.27096">
        <ele>35</ele>
        <time>2023-01-22T08:06:44Z</time>
      </trkpt>
      <trkpt lat="50.34765" lon="3.27094">
        <ele>35</ele>
        <time>2023-01-22T08:06:45Z</time>
      </trkpt>
      <trkpt lat="50.34765" lon="3.27093">
        <ele>35</ele>
        <time>2023-01-22T08:06:46Z</time>
      </trkpt>
      <trkpt lat="50.34764" lon="3.27091">
        <ele>35</ele>
        <time>2023-01-22T08:06:47Z</time>
      </trkpt>
      <trkpt lat="50.34763" lon="3.27089">
        <ele>35</ele>
        <time>2023-01-22T08:06:48Z</time>
      </trkpt>
      <trkpt lat="50.34763" lon="3.27089">
        <ele>35</ele>
        <time>2023-01-22T08:06:49Z</time>
      </trkpt>
      <trkpt lat="50.34762" lon="3.27087">
        <ele>29.945446</ele>
        <time>2023-01-22T08:06:50Z</time>
      </trkpt>
      <trkpt lat="50.34762" lon="3.27086">
        <ele>35</ele>
        <time>2023-01-22T08:06:51Z</time>
      </trkpt>
      <trkpt lat="50.34761" lon="3.27084">
        <ele>35</ele>
        <time>2023-01-22T08:06:52Z</time>
      </trkpt>
      <trkpt lat="50.3476" lon="3.27083">
        <ele>35</ele>
        <time>2023-01-22T08:06:53Z</time>
      </trkpt>
      <trkpt lat="50.34759" lon="3.27082">
        <ele>35.1</ele>
        <time>2023-01-22T08:06:54Z</time>
      </trkpt>
      <trkpt lat="50.34758" lon="3.27081">
        <ele>35.2</ele>
        <time>2023-01-22T08:06:55Z</time>
      </trkpt>
      <trkpt lat="50.34757" lon="3.27079">
        <ele>35.3</ele>
        <time>2023-01-22T08:06:56Z</time>
      </trkpt>
      <trkpt lat="50.34756" lon="3.27079">
        <ele>35.4</ele>
        <time>2023-01-22T08:06:57Z</time>
      </trkpt>
      <trkpt lat="50.34755" lon="3.27078">
        <ele>35.5</ele>
        <time>2023-01-22T08:06:58Z</time>
      </trkpt>
      <trkpt lat="50.34754" lon="3.27076">
        <ele>35.7</ele>
        <time>2023-01-22T08:06:59Z</time>
      </trkpt>
      <trkpt lat="50.34754" lon="3.27076">
        <ele>35.7</ele>
        <time>2023-01-22T08:07:00Z</time>
      </trkpt>
      <trkpt lat="50.34753" lon="3.27075">
        <ele>35.8</ele>
        <time>2023-01-22T08:07:01Z</time>
      </trkpt>
      <trkpt lat="50.34753" lon="3.27074">
        <ele>35.9</ele>
        <time>2023-01-22T08:07:02Z</time>
      </trkpt>
      <trkpt lat="50.34752" lon="3.27073">
        <ele>36.1</ele>
        <time>2023-01-22T08:07:03Z</time>
      </trkpt>
      <trkpt lat="50.34751" lon="3.27072">
        <ele>36.2</ele>
        <time>2023-01-22T08:07:04Z</time>
      </trkpt>
      <trkpt lat="50.3475" lon="3.2707">
        <ele>30.014723</ele>
        <time>2023-01-22T08:07:05Z</time>
      </trkpt>
      <trkpt lat="50.34748" lon="3.27067">
        <ele>36.8</ele>
        <time>2023-01-22T08:07:06Z</time>
      </trkpt>
      <trkpt lat="50.3474" lon="3.2705">
        <ele>37.5</ele>
        <time>2023-01-22T08:07:15Z</time>
      </trkpt>
      <trkpt lat="50.3474" lon="3.27049">
        <ele>37.5</ele>
        <time>2023-01-22T08:07:16Z</time>
      </trkpt>
      <trkpt lat="50.34739" lon="3.27048">
        <ele>37.5</ele>
        <time>2023-01-22T08:07:17Z</time>
      </trkpt>
      <trkpt lat="50.34739" lon="3.27047">
        <ele>37.5</ele>
        <time>2023-01-22T08:07:18Z</time>
      </trkpt>
      <trkpt lat="50.34738" lon="3.27045">
        <ele>37.5</ele>
        <time>2023-01-22T08:07:19Z</time>
        <extensions>
          <gpxtpx:TrackPointExtension xmlns:gpxtpx="http://www.garmin.com/xmlschemas/TrackPointExtension/v1">
            <gpxtpx:hr>137</gpxtpx:hr>
          </gpxtpx:TrackPointExtension>
        </extensions>
      </trkpt>
      <trkpt lat="50.34738" lon="3.27044">
        <ele>29.993845</ele>
        <time>2023-01-22T08:07:20Z</time>
      </trkpt>
      <trkpt lat="50.34737" lon="3.27043">
        <ele>37.5</ele>
        <time>2023-01-22T08:07:21Z</time>
      </trkpt>
      <trkpt lat="50.34735" lon="3.27043">
        <ele>37.4</ele>
        <time>2023-01-22T08:07:22Z</time>
      </trkpt>
      <trkpt lat="50.34734" lon="3.27042">
        <ele>37.3</ele>
        <time>2023-01-22T08:07:23Z</time>
      </trkpt>
      <trkpt lat="50.34732" lon="3.27042">
        <ele>37.2</ele>
        <time>2023-01-22T08:07:24Z</time>
      </trkpt>
      <trkpt lat="50.34731" lon="3.27042">
        <ele>37.1</ele>
        <time>2023-01-22T08:07:25Z</time>
      </trkpt>
      <trkpt lat="50.34729" lon="3.27039">
        <ele>37.1</ele>
        <time>2023-01-22T08:07:26Z</time>
      </trkpt>
      <trkpt lat="50.34728" lon="3.27037">
        <ele>37.1</ele>
        <time>2023-01-22T08:07:27Z</time>
      </trkpt>
      <trkpt lat="50.34727" lon="3.27036">
        <ele>37.1</ele>
        <time>2023-01-22T08:07:28Z</time>
      </trkpt>
      <trkpt lat="50.34726" lon="3.27034">
        <ele>37.1</ele>
        <time>2023-01-22T08:07:29Z</time>
      </trkpt>
      <trkpt lat="50.34726" lon="3.27033">
        <ele>30.067865</ele>
        <time>2023-01-22T08:07:30Z</time>
      </trkpt>
      <trkpt lat="50.34725" lon="3.27032">
        <ele>37</ele>
        <time>2023-01-22T08:07:31Z</time>
      </trkpt>
      <trkpt lat="50.34724" lon="3.27032">
        <ele>37</ele>
        <time>2023-01-22T08:07:32Z</time>
      </trkpt>
      <trkpt lat="50.34724" lon="3.27031">
        <ele>37</ele>
        <time>2023-01-22T08:07:33Z</time>
      </trkpt>
      <trkpt lat="50.34723" lon="3.27031">
        <ele>37</ele>
        <time>2023-01-22T08:07:34Z</time>
      </trkpt>
      <trkpt lat="50.34723" lon="3.2703">
        <ele>37</ele>
        <time>2023-01-22T08:07:35Z</time>
      </trkpt>
      <trkpt lat="50.34724" lon="3.27029">
        <ele>37.1</ele>
        <time>2023-01-22T08:07:36Z</time>
      </trkpt>
      <trkpt lat="50.34723" lon="3.27027">
        <ele>37</ele>
        <time>2023-01-22T08:07:37Z</time>
      </trkpt>
      <trkpt lat="50.34723" lon="3.27025">
        <ele>37</ele>
        <time>2023-01-22T08:07:38Z</time>
      </trkpt>
      <trkpt lat="50.34724" lon="3.27022">
        <ele>36.9</ele>
        <time>2023-01-22T08:07:39Z</time>
        <extensions>
          <gpxtpx:TrackPointExtension xmlns:gpxtpx="http://www.garmin.com/xmlschemas/TrackPointExtension/v1">
            <gpxtpx:hr>130</gpxtpx:hr>
          </gpxtpx:TrackPointExtension>
        </extensions>
      </trkpt>
      <trkpt lat="50.34724" lon="3.2702">
        <ele>30.404758</ele>
        <time>2023-01-22T08:07:40Z</time>
      </trkpt>
      <trkpt lat="50.34724" lon="3.27018">
        <ele>36.9</ele>
        <time>2023-01-22T08:07:41Z</time>
      </trkpt>
      <trkpt lat="50.34725" lon="3.27016">
        <ele>36.8</ele>
        <time>2023-01-22T08:07:42Z</time>
      </trkpt>
      <trkpt lat="50.34725" lon="3.27014">
        <ele>36.8</ele>
        <time>2023-01-22T08:07:43Z</time>
      </trkpt>
      <trkpt lat="50.34726" lon="3.27011">
        <ele>36.8</ele>
        <time>2023-01-22T08:07:44Z</time>
      </trkpt>
      <trkpt lat="50.34726" lon="3.27009">
        <ele>36.7</ele>
        <time>2023-01-22T08:07:45Z</time>
      </trkpt>
      <trkpt lat="50.34725" lon="3.27007">
        <ele>36.6</ele>
        <time>2023-01-22T08:07:46Z</time>
      </trkpt>
      <trkpt lat="50.34726" lon="3.27005">
        <ele>36.7</ele>
        <time>2023-01-22T08:07:47Z</time>
      </trkpt>
      <trkpt lat="50.34726" lon="3.27002">
        <ele>36.6</ele>
        <time>2023-01-22T08:07:48Z</time>
      </trkpt>
      <trkpt lat="50.34726" lon="3.27">
        <ele>36.6</ele>
        <time>2023-01-22T08:07:49Z</time>
      </trkpt>
      <trkpt lat="50.34726" lon="3.26999">
        <ele>30.31745</ele>
        <time>2023-01-22T08:07:50Z</time>
      </trkpt>
      <trkpt lat="50.34727" lon="3.26996">
        <ele>36.5</ele>
        <time>2023-01-22T08:07:51Z</time>
      </trkpt>
      <trkpt lat="50.34728" lon="3.26994">
        <ele>36.5</ele>
        <time>2023-01-22T08:07:52Z</time>
      </trkpt>
      <trkpt lat="50.34728" lon="3.26992">
        <ele>36.5</ele>
        <time>2023-01-22T08:07:53Z</time>
      </trkpt>
      <trkpt lat="50.34729" lon="3.2699">
        <ele>36.6</ele>
        <time>2023-01-22T08:07:54Z</time>
      </trkpt>
      <trkpt lat="50.34729" lon="3.26989">
        <ele>36.5</ele>
        <time>2023-01-22T08:07:55Z</time>
      </trkpt>
      <trkpt lat="50.34729" lon="3.26986">
        <ele>36.5</ele>
        <time>2023-01-22T08:07:56Z</time>
      </trkpt>
      <trkpt lat="50.3473" lon="3.26985">
        <ele>36.6</ele>
        <time>2023-01-22T08:07:57Z</time>
      </trkpt>
      <trkpt lat="50.34731" lon="3.26983">
        <ele>36.6</ele>
        <time>2023-01-22T08:07:58Z</time>
      </trkpt>
      <trkpt lat="50.34731" lon="3.26981">
        <ele>36.6</ele>
        <time>2023-01-22T08:07:59Z</time>
        <extensions>
          <gpxtpx:TrackPointExtension xmlns:gpxtpx="http://www.garmin.com/xmlschemas/TrackPointExtension/v1">
            <gpxtpx:hr>129</gpxtpx:hr>
          </gpxtpx:TrackPointExtension>
        </extensions>
      </trkpt>
      <trkpt lat="50.34732" lon="3.26979">
        <ele>30.350666</ele>
        <time>2023-01-22T08:08:00Z</time>
      </trkpt>
      <trkpt lat="50.34733" lon="3.26977">
        <ele>36.7</ele>
        <time>2023-01-22T08:08:01Z</time>
      </trkpt>
      <trkpt lat="50.34734" lon="3.26975">
        <ele>36.8</ele>
        <time>2023-01-22T08:08:02Z</time>
      </trkpt>
      <trkpt lat="50.34735" lon="3.26974">
        <ele>36.9</ele>
        <time>2023-01-22T08:08:03Z</time>
      </trkpt>
      <trkpt lat="50.34736" lon="3.26972">
        <ele>37</ele>
        <time>2023-01-22T08:08:04Z</time>
      </trkpt>
      <trkpt lat="50.34736" lon="3.26972">
        <ele>37</ele>
        <time>2023-01-22T08:08:05Z</time>
      </trkpt>
      <trkpt lat="50.34737" lon="3.26971">
        <ele>37.1</ele>
        <time>2023-01-22T08:08:06Z</time>
      </trkpt>
      <trkpt lat="50.34739" lon="3.26969">
        <ele>37.2</ele>
        <time>2023-01-22T08:08:07Z</time>
      </trkpt>
      <trkpt lat="50.3474" lon="3.26969">
        <ele>37.3</ele>
        <time>2023-01-22T08:08:08Z</time>
      </trkpt>
      <trkpt lat="50.3474" lon="3.26967">
        <ele>37.2</ele>
        <time>2023-01-22T08:08:09Z</time>
      </trkpt>
      <trkpt lat="50.34741" lon="3.26966">
        <ele>30.435125</ele>
        <time>2023-01-22T08:08:10Z</time>
      </trkpt>
      <trkpt lat="50.34742" lon="3.26964">
        <ele>37.1</ele>
        <time>2023-01-22T08:08:11Z</time>
      </trkpt>
      <trkpt lat="50.34743" lon="3.26962">
        <ele>37.2</ele>
        <time>2023-01-22T08:08:12Z</time>
      </trkpt>
      <trkpt lat="50.34744" lon="3.2696">
        <ele>37.1</ele>
        <time>2023-01-22T08:08:13Z</time>
      </trkpt>
      <trkpt lat="50.34745" lon="3.26958">
        <ele>37</ele>
        <time>2023-01-22T08:08:14Z</time>
      </trkpt>
      <trkpt lat="50.34746" lon="3.26956">
        <ele>36.9</ele>
        <time>2023-01-22T08:08:15Z</time>
      </trkpt>
      <trkpt lat="50.34747" lon="3.26955">
        <ele>36.9</ele>
        <time>2023-01-22T08:08:16Z</time>
      </trkpt>
      <trkpt lat="50.34748" lon="3.26953">
        <ele>36.8</ele>
        <time>2023-01-22T08:08:17Z</time>
      </trkpt>
      <trkpt lat="50.34748" lon="3.26952">
        <ele>36.7</ele>
        <time>2023-01-22T08:08:18Z</time>
      </trkpt>
      <trkpt lat="50.34749" lon="3.26951">
        <ele>36.7</ele>
        <time>2023-01-22T08:08:19Z</time>
        <extensions>
          <gpxtpx:TrackPointExtension xmlns:gpxtpx="http://www.garmin.com/xmlschemas/TrackPointExtension/v1">
            <gpxtpx:hr>140</gpxtpx:hr>
          </gpxtpx:TrackPointExtension>
        </extensions>
      </trkpt>
      <trkpt lat="50.3475" lon="3.2695">
        <ele>30.342125</ele>
        <time>2023-01-22T08:08:20Z</time>
      </trkpt>
      <trkpt lat="50.34752" lon="3.26948">
        <ele>36.5</ele>
        <time>2023-01-22T08:08:21Z</time>
      </trkpt>
      <trkpt lat="50.34752" lon="3.26947">
        <ele>36.4</ele>
        <time>2023-01-22T08:08:22Z</time>
      </trkpt>
      <trkpt lat="50.34753" lon="3.26945">
        <ele>36.2</ele>
        <time>2023-01-22T08:08:23Z</time>
      </trkpt>
      <trkpt lat="50.34754" lon="3.26943">
        <ele>36.3</ele>
        <time>2023-01-22T08:08:24Z</time>
      </trkpt>
      <trkpt lat="50.34754" lon="3.26941">
        <ele>36.3</ele>
        <time>2023-01-22T08:08:25Z</time>
      </trkpt>
      <trkpt lat="50.34755" lon="3.2694">
        <ele>36.3</ele>
        <time>2023-01-22T08:08:26Z</time>
      </trkpt>
      <trkpt lat="50.34755" lon="3.26938">
        <ele>36.4</ele>
        <time>2023-01-22T08:08:27Z</time>
      </trkpt>
      <trkpt lat="50.34755" lon="3.26936">
        <ele>36.4</ele>
        <time>2023-01-22T08:08:28Z</time>
      </trkpt>
      <trkpt lat="50.34756" lon="3.26935">
        <ele>36.4</ele>
        <time>2023-01-22T08:08:29Z</time>
      </trkpt>
      <trkpt lat="50.34757" lon="3.26933">
        <ele>30.474035</ele>
        <time>2023-01-22T08:08:30Z</time>
      </trkpt>
      <trkpt lat="50.34758" lon="3.26931">
        <ele>36.5</ele>
        <time>2023-01-22T08:08:31Z</time>
      </trkpt>
      <trkpt lat="50.34758" lon="3.26929">
        <ele>36.6</ele>
        <time>2023-01-22T08:08:32Z</time>
      </trkpt>
      <trkpt lat="50.34759" lon="3.26927">
        <ele>36.6</ele>
        <time>2023-01-22T08:08:33Z</time>
      </trkpt>
      <trkpt lat="50.3476" lon="3.26925">
        <ele>36.7</ele>
        <time>2023-01-22T08:08:34Z</time>
      </trkpt>
      <trkpt lat="50.34761" lon="3.26924">
        <ele>36.8</ele>
        <time>2023-01-22T08:08:35Z</time>
      </trkpt>
      <trkpt lat="50.34762" lon="3.26922">
        <ele>36.9</ele>
        <time>2023-01-22T08:08:36Z</time>
      </trkpt>
      <trkpt lat="50.34762" lon="3.2692">
        <ele>36.9</ele>
        <time>2023-01-22T08:08:37Z</time>
      </trkpt>
      <trkpt lat="50.34763" lon="3.26918">
        <ele>36.9</ele>
        <time>2023-01-22T08:08:38Z</time>
      </trkpt>
      <trkpt lat="50.34764" lon="3.26916">
        <ele>37</ele>
        <time>2023-01-22T08:08:39Z</time>
      </trkpt>
      <trkpt lat="50.34765" lon="3.26914">
        <ele>36.9</ele>
        <time>2023-01-22T08:08:40Z</time>
      </trkpt>
      <trkpt lat="50.34765" lon="3.26911">
        <ele>36.9</ele>
        <time>2023-01-22T08:08:41Z</time>
      </trkpt>
      <trkpt lat="50.34766" lon="3.26909">
        <ele>36.9</ele>
        <time>2023-01-22T08:08:42Z</time>
      </trkpt>
      <trkpt lat="50.34766" lon="3.26907">
        <ele>36.8</ele>
        <time>2023-01-22T08:08:43Z</time>
      </trkpt>
      <trkpt lat="50.34767" lon="3.26905">
        <ele>36.8</ele>
        <time>2023-01-22T08:08:44Z</time>
      </trkpt>
      <trkpt lat="50.34768" lon="3.26904">
        <ele>30.578426</ele>
        <time>2023-01-22T08:08:45Z</time>
      </trkpt>
      <trkpt lat="50.34769" lon="3.26902">
        <ele>36.8</ele>
        <time>2023-01-22T08:08:46Z</time>
      </trkpt>
      <trkpt lat="50.34769" lon="3.269">
        <ele>36.8</ele>
        <time>2023-01-22T08:08:47Z</time>
      </trkpt>
      <trkpt lat="50.3477" lon="3.26898">
        <ele>36.8</ele>
        <time>2023-01-22T08:08:48Z</time>
      </trkpt>
      <trkpt lat="50.34771" lon="3.26897">
        <ele>36.8</ele>
        <time>2023-01-22T08:08:49Z</time>
      </trkpt>
      <trkpt lat="50.34772" lon="3.26896">
        <ele>30.462646</ele>
        <time>2023-01-22T08:08:50Z</time>
      </trkpt>
      <trkpt lat="50.34773" lon="3.26894">
        <ele>36.9</ele>
        <time>2023-01-22T08:08:51Z</time>
      </trkpt>
      <trkpt lat="50.34774" lon="3.26893">
        <ele>36.9</ele>
        <time>2023-01-22T08:08:52Z</time>
      </trkpt>
      <trkpt lat="50.34775" lon="3.26891">
        <ele>36.9</ele>
        <time>2023-01-22T08:08:53Z</time>
      </trkpt>
      <trkpt lat="50.34775" lon="3.26889">
        <ele>36.8</ele>
        <time>2023-01-22T08:08:54Z</time>
      </trkpt>
      <trkpt lat="50.34776" lon="3.26887">
        <ele>36.8</ele>
        <time>2023-01-22T08:08:55Z</time>
      </trkpt>
      <trkpt lat="50.34776" lon="3.26886">
        <ele>36.8</ele>
        <time>2023-01-22T08:08:56Z</time>
      </trkpt>
      <trkpt lat="50.34777" lon="3.26884">
        <ele>36.8</ele>
        <time>2023-01-22T08:08:57Z</time>
      </trkpt>
      <trkpt lat="50.34777" lon="3.26881">
        <ele>36.7</ele>
        <time>2023-01-22T08:08:58Z</time>
      </trkpt>
      <trkpt lat="50.34778" lon="3.2688">
        <ele>36.7</ele>
        <time>2023-01-22T08:08:59Z</time>
      </trkpt>
      <trkpt lat="50.34779" lon="3.26878">
        <ele>30.600254</ele>
        <time>2023-01-22T08:09:00Z</time>
      </trkpt>
      <trkpt lat="50.34779" lon="3.26876">
        <ele>36.5</ele>
        <time>2023-01-22T08:09:01Z</time>
      </trkpt>
      <trkpt lat="50.3478" lon="3.26874">
        <ele>36.5</ele>
        <time>2023-01-22T08:09:02Z</time>
      </trkpt>
      <trkpt lat="50.34781" lon="3.26872">
        <ele>36.4</ele>
        <time>2023-01-22T08:09:03Z</time>
      </trkpt>
      <trkpt lat="50.34782" lon="3.2687">
        <ele>36.4</ele>
        <time>2023-01-22T08:09:04Z</time>
      </trkpt>
      <trkpt lat="50.34782" lon="3.26868">
        <ele>36.4</ele>
        <time>2023-01-22T08:09:05Z</time>
      </trkpt>
      <trkpt lat="50.34782" lon="3.26867">
        <ele>36.3</ele>
        <time>2023-01-22T08:09:06Z</time>
      </trkpt>
      <trkpt lat="50.34783" lon="3.26866">
        <ele>36.3</ele>
        <time>2023-01-22T08:09:07Z</time>
      </trkpt>
      <trkpt lat="50.34784" lon="3.26864">
        <ele>36.3</ele>
        <time>2023-01-22T08:09:08Z</time>
      </trkpt>
      <trkpt lat="50.34785" lon="3.26862">
        <ele>36.3</ele>
        <time>2023-01-22T08:09:09Z</time>
      </trkpt>
      <trkpt lat="50.34786" lon="3.2686">
        <ele>30.38388</ele>
        <time>2023-01-22T08:09:10Z</time>
      </trkpt>
      <trkpt lat="50.34787" lon="3.26859">
        <ele>36.3</ele>
        <time>2023-01-22T08:09:11Z</time>
      </trkpt>
      <trkpt lat="50.34787" lon="3.26857">
        <ele>36.3</ele>
        <time>2023-01-22T08:09:12Z</time>
      </trkpt>
      <trkpt lat="50.34787" lon="3.26856">
        <ele>36.3</ele>
        <time>2023-01-22T08:09:13Z</time>
      </trkpt>
      <trkpt lat="50.34788" lon="3.26855">
        <ele>36.4</ele>
        <time>2023-01-22T08:09:14Z</time>
      </trkpt>
      <trkpt lat="50.34789" lon="3.26853">
        <ele>36.4</ele>
        <time>2023-01-22T08:09:15Z</time>
        <extensions>
          <gpxtpx:TrackPointExtension xmlns:gpxtpx="http://www.garmin.com/xmlschemas/TrackPointExtension/v1">
            <gpxtpx:hr>140</gpxtpx:hr>
          </gpxtpx:TrackPointExtension>
        </extensions>
      </trkpt>
      <trkpt lat="50.34789" lon="3.26852">
        <ele>36.4</ele>
        <time>2023-01-22T08:09:16Z</time>
      </trkpt>
      <trkpt lat="50.3479" lon="3.26849">
        <ele>36.5</ele>
        <time>2023-01-22T08:09:17Z</time>
      </trkpt>
      <trkpt lat="50.34791" lon="3.26847">
        <ele>36.5</ele>
        <time>2023-01-22T08:09:18Z</time>
      </trkpt>
      <trkpt lat="50.34792" lon="3.26845">
        <ele>36.5</ele>
        <time>2023-01-22T08:09:19Z</time>
      </trkpt>
      <trkpt lat="50.34792" lon="3.26843">
        <ele>30.543312</ele>
        <time>2023-01-22T08:09:20Z</time>
      </trkpt>
      <trkpt lat="50.34794" lon="3.26841">
        <ele>36.6</ele>
        <time>2023-01-22T08:09:21Z</time>
      </trkpt>
      <trkpt lat="50.34795" lon="3.26838">
        <ele>36.6</ele>
        <time>2023-01-22T08:09:22Z</time>
      </trkpt>
      <trkpt lat="50.34796" lon="3.26836">
        <ele>36.6</ele>
        <time>2023-01-22T08:09:23Z</time>
      </trkpt>
      <trkpt lat="50.34797" lon="3.26833">
        <ele>36.7</ele>
        <time>2023-01-22T08:09:24Z</time>
      </trkpt>
      <trkpt lat="50.34798" lon="3.26831">
        <ele>36.7</ele>
        <time>2023-01-22T08:09:25Z</time>
      </trkpt>
      <trkpt lat="50.34798" lon="3.26829">
        <ele>36.6</ele>
        <time>2023-01-22T08:09:26Z</time>
      </trkpt>
      <trkpt lat="50.348" lon="3.26827">
        <ele>36.6</ele>
        <time>2023-01-22T08:09:27Z</time>
      </trkpt>
      <trkpt lat="50.348" lon="3.26826">
        <ele>36.6</ele>
        <time>2023-01-22T08:09:28Z</time>
      </trkpt>
      <trkpt lat="50.34802" lon="3.26824">
        <ele>36.6</ele>
        <time>2023-01-22T08:09:29Z</time>
      </trkpt>
      <trkpt lat="50.34802" lon="3.26822">
        <ele>30.598354</ele>
        <time>2023-01-22T08:09:30Z</time>
      </trkpt>
      <trkpt lat="50.34802" lon="3.2682">
        <ele>36.5</ele>
        <time>2023-01-22T08:09:31Z</time>
      </trkpt>
      <trkpt lat="50.34803" lon="3.26818">
        <ele>36.4</ele>
        <time>2023-01-22T08:09:32Z</time>
      </trkpt>
      <trkpt lat="50.34804" lon="3.26817">
        <ele>36.4</ele>
        <time>2023-01-22T08:09:33Z</time>
        <extensions>
          <gpxtpx:TrackPointExtension xmlns:gpxtpx="http://www.garmin.com/xmlschemas/TrackPointExtension/v1">
            <gpxtpx:hr>140</gpxtpx:hr>
          </gpxtpx:TrackPointExtension>
        </extensions>
      </trkpt>
      <trkpt lat="50.34805" lon="3.26815">
        <ele>36.3</ele>
        <time>2023-01-22T08:09:34Z</time>
      </trkpt>
      <trkpt lat="50.34805" lon="3.26813">
        <ele>36.3</ele>
        <time>2023-01-22T08:09:35Z</time>
      </trkpt>
      <trkpt lat="50.34806" lon="3.26811">
        <ele>36.2</ele>
        <time>2023-01-22T08:09:36Z</time>
      </trkpt>
      <trkpt lat="50.34806" lon="3.26809">
        <ele>36.1</ele>
        <time>2023-01-22T08:09:37Z</time>
      </trkpt>
      <trkpt lat="50.34806" lon="3.26807">
        <ele>36.1</ele>
        <time>2023-01-22T08:09:38Z</time>
      </trkpt>
      <trkpt lat="50.34807" lon="3.26806">
        <ele>36.1</ele>
        <time>2023-01-22T08:09:39Z</time>
        <extensions>
          <gpxtpx:TrackPointExtension xmlns:gpxtpx="http://www.garmin.com/xmlschemas/TrackPointExtension/v1">
            <gpxtpx:hr>137</gpxtpx:hr>
          </gpxtpx:TrackPointExtension>
        </extensions>
      </trkpt>
      <trkpt lat="50.34808" lon="3.26804">
        <ele>30.80429</ele>
        <time>2023-01-22T08:09:40Z</time>
      </trkpt>
      <trkpt lat="50.34809" lon="3.26802">
        <ele>36.1</ele>
        <time>2023-01-22T08:09:41Z</time>
      </trkpt>
      <trkpt lat="50.3481" lon="3.26801">
        <ele>36.1</ele>
        <time>2023-01-22T08:09:42Z</time>
      </trkpt>
      <trkpt lat="50.34811" lon="3.26799">
        <ele>36.1</ele>
        <time>2023-01-22T08:09:43Z</time>
      </trkpt>
      <trkpt lat="50.34811" lon="3.26796">
        <ele>36.1</ele>
        <time>2023-01-22T08:09:44Z</time>
      </trkpt>
      <trkpt lat="50.34811" lon="3.26795">
        <ele>36.1</ele>
        <time>2023-01-22T08:09:45Z</time>
      </trkpt>
      <trkpt lat="50.34812" lon="3.26793">
        <ele>36.1</ele>
        <time>2023-01-22T08:09:46Z</time>
      </trkpt>
      <trkpt lat="50.34813" lon="3.26791">
        <ele>36.1</ele>
        <time>2023-01-22T08:09:47Z</time>
      </trkpt>
      <trkpt lat="50.34813" lon="3.2679">
        <ele>36.1</ele>
        <time>2023-01-22T08:09:48Z</time>
      </trkpt>
      <trkpt lat="50.34814" lon="3.26788">
        <ele>36.1</ele>
        <time>2023-01-22T08:09:49Z</time>
      </trkpt>
      <trkpt lat="50.34815" lon="3.26786">
        <ele>30.589813</ele>
        <time>2023-01-22T08:09:50Z</time>
      </trkpt>
      <trkpt lat="50.34816" lon="3.26784">
        <ele>36.1</ele>
        <time>2023-01-22T08:09:51Z</time>
      </trkpt>
      <trkpt lat="50.34817" lon="3.26783">
        <ele>36.1</ele>
        <time>2023-01-22T08:09:52Z</time>
      </trkpt>
      <trkpt lat="50.34818" lon="3.26781">
        <ele>36</ele>
        <time>2023-01-22T08:09:53Z</time>
      </trkpt>
      <trkpt lat="50.34819" lon="3.26779">
        <ele>36</ele>
        <time>2023-01-22T08:09:54Z</time>
      </trkpt>
      <trkpt lat="50.34821" lon="3.26777">
        <ele>36</ele>
        <time>2023-01-22T08:09:55Z</time>
      </trkpt>
      <trkpt lat="50.34821" lon="3.26776">
        <ele>36</ele>
        <time>2023-01-22T08:09:56Z</time>
      </trkpt>
      <trkpt lat="50.34823" lon="3.26774">
        <ele>36</ele>
        <time>2023-01-22T08:09:57Z</time>
      </trkpt>
      <trkpt lat="50.34824" lon="3.26773">
        <ele>36</ele>
        <time>2023-01-22T08:09:58Z</time>
      </trkpt>
      <trkpt lat="50.34824" lon="3.26771">
        <ele>36</ele>
        <time>2023-01-22T08:09:59Z</time>
      </trkpt>
      <trkpt lat="50.34825" lon="3.2677">
        <ele>30.889704</ele>
        <time>2023-01-22T08:10:00Z</time>
      </trkpt>
      <trkpt lat="50.34825" lon="3.26768">
        <ele>36</ele>
        <time>2023-01-22T08:10:01Z</time>
      </trkpt>
      <trkpt lat="50.34826" lon="3.26767">
        <ele>36</ele>
        <time>2023-01-22T08:10:02Z</time>
      </trkpt>
      <trkpt lat="50.34827" lon="3.26765">
        <ele>36</ele>
        <time>2023-01-22T08:10:03Z</time>
      </trkpt>
      <trkpt lat="50.34828" lon="3.26764">
        <ele>36</ele>
        <time>2023-01-22T08:10:04Z</time>
      </trkpt>
      <trkpt lat="50.34829" lon="3.26763">
        <ele>36</ele>
        <time>2023-01-22T08:10:05Z</time>
      </trkpt>
      <trkpt lat="50.34829" lon="3.26761">
        <ele>36</ele>
        <time>2023-01-22T08:10:06Z</time>
      </trkpt>
      <trkpt lat="50.34831" lon="3.26759">
        <ele>36</ele>
        <time>2023-01-22T08:10:07Z</time>
      </trkpt>
      <trkpt lat="50.34831" lon="3.26757">
        <ele>36</ele>
        <time>2023-01-22T08:10:08Z</time>
      </trkpt>
      <trkpt lat="50.34832" lon="3.26756">
        <ele>36</ele>
        <time>2023-01-22T08:10:09Z</time>
      </trkpt>
      <trkpt lat="50.34833" lon="3.26754">
        <ele>30.647703</ele>
        <time>2023-01-22T08:10:10Z</time>
      </trkpt>
      <trkpt lat="50.34834" lon="3.26753">
        <ele>36</ele>
        <time>2023-01-22T08:10:11Z</time>
      </trkpt>
      <trkpt lat="50.34834" lon="3.26751">
        <ele>36</ele>
        <time>2023-01-22T08:10:12Z</time>
      </trkpt>
      <trkpt lat="50.34835" lon="3.26749">
        <ele>36</ele>
        <time>2023-01-22T08:10:13Z</time>
      </trkpt>
      <trkpt lat="50.34836" lon="3.26746">
        <ele>36</ele>
        <time>2023-01-22T08:10:14Z</time>
      </trkpt>
      <trkpt lat="50.34837" lon="3.26744">
        <ele>36</ele>
        <time>2023-01-22T08:10:15Z</time>
      </trkpt>
      <trkpt lat="50.34839" lon="3.26742">
        <ele>36</ele>
        <time>2023-01-22T08:10:16Z</time>
      </trkpt>
      <trkpt lat="50.34839" lon="3.26741">
        <ele>36</ele>
        <time>2023-01-22T08:10:17Z</time>
      </trkpt>
      <trkpt lat="50.3484" lon="3.26739">
        <ele>36</ele>
        <time>2023-01-22T08:10:18Z</time>
      </trkpt>
      <trkpt lat="50.3484" lon="3.26737">
        <ele>36</ele>
        <time>2023-01-22T08:10:19Z</time>
      </trkpt>
      <trkpt lat="50.34842" lon="3.26734">
        <ele>30.559446</ele>
        <time>2023-01-22T08:10:20Z</time>
      </trkpt>
      <trkpt lat="50.34842" lon="3.26732">
        <ele>36</ele>
        <time>2023-01-22T08:10:21Z</time>
      </trkpt>
      <trkpt lat="50.34843" lon="3.2673">
        <ele>36</ele>
        <time>2023-01-22T08:10:22Z</time>
      </trkpt>
      <trkpt lat="50.34843" lon="3.26727">
        <ele>36</ele>
        <time>2023-01-22T08:10:23Z</time>
      </trkpt>
      <trkpt lat="50.34843" lon="3.26723">
        <ele>36</ele>
        <time>2023-01-22T08:10:24Z</time>
      </trkpt>
      <trkpt lat="50.34842" lon="3.26721">
        <ele>36</ele>
        <time>2023-01-22T08:10:25Z</time>
      </trkpt>
      <trkpt lat="50.34842" lon="3.26719">
        <ele>36</ele>
        <time>2023-01-22T08:10:26Z</time>
        <extensions>
          <gpxtpx:TrackPointExtension xmlns:gpxtpx="http://www.garmin.com/xmlschemas/TrackPointExtension/v1">
            <gpxtpx:hr>140</gpxtpx:hr>
          </gpxtpx:TrackPointExtension>
        </extensions>
      </trkpt>
      <trkpt lat="50.34843" lon="3.26717">
        <ele>36</ele>
        <time>2023-01-22T08:10:27Z</time>
      </trkpt>
      <trkpt lat="50.34843" lon="3.26714">
        <ele>36</ele>
        <time>2023-01-22T08:10:28Z</time>
      </trkpt>
      <trkpt lat="50.34844" lon="3.26712">
        <ele>36</ele>
        <time>2023-01-22T08:10:29Z</time>
      </trkpt>
      <trkpt lat="50.34844" lon="3.2671">
        <ele>30.575579</ele>
        <time>2023-01-22T08:10:30Z</time>
      </trkpt>
      <trkpt lat="50.34845" lon="3.26709">
        <ele>36</ele>
        <time>2023-01-22T08:10:31Z</time>
      </trkpt>
      <trkpt lat="50.34845" lon="3.26706">
        <ele>36</ele>
        <time>2023-01-22T08:10:32Z</time>
      </trkpt>
      <trkpt lat="50.34846" lon="3.26704">
        <ele>36</ele>
        <time>2023-01-22T08:10:33Z</time>
      </trkpt>
      <trkpt lat="50.34847" lon="3.26702">
        <ele>36</ele>
        <time>2023-01-22T08:10:34Z</time>
      </trkpt>
      <trkpt lat="50.34847" lon="3.26701">
        <ele>36</ele>
        <time>2023-01-22T08:10:35Z</time>
      </trkpt>
      <trkpt lat="50.34847" lon="3.26699">
        <ele>36</ele>
        <time>2023-01-22T08:10:36Z</time>
      </trkpt>
      <trkpt lat="50.34847" lon="3.26697">
        <ele>36</ele>
        <time>2023-01-22T08:10:37Z</time>
      </trkpt>
      <trkpt lat="50.34848" lon="3.26695">
        <ele>36</ele>
        <time>2023-01-22T08:10:38Z</time>
      </trkpt>
      <trkpt lat="50.34848" lon="3.26693">
        <ele>36</ele>
        <time>2023-01-22T08:10:39Z</time>
      </trkpt>
      <trkpt lat="50.34848" lon="3.26691">
        <ele>30.793852</ele>
        <time>2023-01-22T08:10:40Z</time>
      </trkpt>
      <trkpt lat="50.34848" lon="3.26689">
        <ele>36</ele>
        <time>2023-01-22T08:10:41Z</time>
      </trkpt>
      <trkpt lat="50.34849" lon="3.26687">
        <ele>36</ele>
        <time>2023-01-22T08:10:42Z</time>
      </trkpt>
      <trkpt lat="50.34849" lon="3.26685">
        <ele>36</ele>
        <time>2023-01-22T08:10:43Z</time>
      </trkpt>
      <trkpt lat="50.3485" lon="3.26683">
        <ele>36</ele>
        <time>2023-01-22T08:10:44Z</time>
      </trkpt>
      <trkpt lat="50.3485" lon="3.26681">
        <ele>36</ele>
        <time>2023-01-22T08:10:45Z</time>
      </trkpt>
      <trkpt lat="50.3485" lon="3.2668">
        <ele>36</ele>
        <time>2023-01-22T08:10:46Z</time>
      </trkpt>
      <trkpt lat="50.34851" lon="3.26679">
        <ele>36</ele>
        <time>2023-01-22T08:10:47Z</time>
      </trkpt>
      <trkpt lat="50.34851" lon="3.26677">
        <ele>36</ele>
        <time>2023-01-22T08:10:48Z</time>
      </trkpt>
      <trkpt lat="50.34851" lon="3.26675">
        <ele>36</ele>
        <time>2023-01-22T08:10:49Z</time>
      </trkpt>
      <trkpt lat="50.34851" lon="3.26673">
        <ele>30.410452</ele>
        <time>2023-01-22T08:10:50Z</time>
      </trkpt>
      <trkpt lat="50.34852" lon="3.26672">
        <ele>36</ele>
        <time>2023-01-22T08:10:51Z</time>
      </trkpt>
      <trkpt lat="50.34852" lon="3.2667">
        <ele>36</ele>
        <time>2023-01-22T08:10:52Z</time>
      </trkpt>
      <trkpt lat="50.34852" lon="3.26668">
        <ele>36</ele>
        <time>2023-01-22T08:10:53Z</time>
      </trkpt>
      <trkpt lat="50.34852" lon="3.26666">
        <ele>36</ele>
        <time>2023-01-22T08:10:54Z</time>
        <extensions>
          <gpxtpx:TrackPointExtension xmlns:gpxtpx="http://www.garmin.com/xmlschemas/TrackPointExtension/v1">
            <gpxtpx:hr>140</gpxtpx:hr>
          </gpxtpx:TrackPointExtension>
        </extensions>
      </trkpt>
      <trkpt lat="50.34853" lon="3.26664">
        <ele>36</ele>
        <time>2023-01-22T08:10:55Z</time>
      </trkpt>
      <trkpt lat="50.34853" lon="3.26662">
        <ele>35.9</ele>
        <time>2023-01-22T08:10:56Z</time>
      </trkpt>
      <trkpt lat="50.34853" lon="3.2666">
        <ele>35.9</ele>
        <time>2023-01-22T08:10:57Z</time>
      </trkpt>
      <trkpt lat="50.34853" lon="3.26659">
        <ele>35.9</ele>
        <time>2023-01-22T08:10:58Z</time>
      </trkpt>
      <trkpt lat="50.34853" lon="3.26657">
        <ele>35.9</ele>
        <time>2023-01-22T08:10:59Z</time>
        <extensions>
          <gpxtpx:TrackPointExtension xmlns:gpxtpx="http://www.garmin.com/xmlschemas/TrackPointExtension/v1">
            <gpxtpx:hr>138</gpxtpx:hr>
          </gpxtpx:TrackPointExtension>
        </extensions>
      </trkpt>
      <trkpt lat="50.34853" lon="3.26654">
        <ele>30.3649</ele>
        <time>2023-01-22T08:11:00Z</time>
      </trkpt>
      <trkpt lat="50.34853" lon="3.26652">
        <ele>35.9</ele>
        <time>2023-01-22T08:11:01Z</time>
      </trkpt>
      <trkpt lat="50.34853" lon="3.2665">
        <ele>35.8</ele>
        <time>2023-01-22T08:11:02Z</time>
      </trkpt>
      <trkpt lat="50.34853" lon="3.26648">
        <ele>35.8</ele>
        <time>2023-01-22T08:11:03Z</time>
      </trkpt>
      <trkpt lat="50.34853" lon="3.26645">
        <ele>35.8</ele>
        <time>2023-01-22T08:11:04Z</time>
      </trkpt>
      <trkpt lat="50.34853" lon="3.26642">
        <ele>35.7</ele>
        <time>2023-01-22T08:11:05Z</time>
      </trkpt>
      <trkpt lat="50.34852" lon="3.2664">
        <ele>35.7</ele>
        <time>2023-01-22T08:11:06Z</time>
      </trkpt>
      <trkpt lat="50.34851" lon="3.26636">
        <ele>35.7</ele>
        <time>2023-01-22T08:11:07Z</time>
      </trkpt>
      <trkpt lat="50.34851" lon="3.26632">
        <ele>35.7</ele>
        <time>2023-01-22T08:11:08Z</time>
      </trkpt>
      <trkpt lat="50.3485" lon="3.26629">
        <ele>35.7</ele>
        <time>2023-01-22T08:11:09Z</time>
      </trkpt>
      <trkpt lat="50.3485" lon="3.26626">
        <ele>30.30701</ele>
        <time>2023-01-22T08:11:10Z</time>
      </trkpt>
      <trkpt lat="50.3485" lon="3.26624">
        <ele>35.8</ele>
        <time>2023-01-22T08:11:11Z</time>
      </trkpt>
      <trkpt lat="50.3485" lon="3.26622">
        <ele>35.9</ele>
        <time>2023-01-22T08:11:12Z</time>
      </trkpt>
      <trkpt lat="50.34851" lon="3.26619">
        <ele>35.9</ele>
        <time>2023-01-22T08:11:13Z</time>
      </trkpt>
      <trkpt lat="50.34851" lon="3.26617">
        <ele>35.9</ele>
        <time>2023-01-22T08:11:14Z</time>
      </trkpt>
      <trkpt lat="50.34852" lon="3.26615">
        <ele>36</ele>
        <time>2023-01-22T08:11:15Z</time>
      </trkpt>
      <trkpt lat="50.34852" lon="3.26612">
        <ele>36</ele>
        <time>2023-01-22T08:11:16Z</time>
      </trkpt>
      <trkpt lat="50.34852" lon="3.2661">
        <ele>36</ele>
        <time>2023-01-22T08:11:17Z</time>
      </trkpt>
      <trkpt lat="50.34852" lon="3.26607">
        <ele>36</ele>
        <time>2023-01-22T08:11:18Z</time>
      </trkpt>
      <trkpt lat="50.34851" lon="3.26605">
        <ele>35.9</ele>
        <time>2023-01-22T08:11:19Z</time>
        <extensions>
          <gpxtpx:TrackPointExtension xmlns:gpxtpx="http://www.garmin.com/xmlschemas/TrackPointExtension/v1">
            <gpxtpx:hr>136</gpxtpx:hr>
          </gpxtpx:TrackPointExtension>
        </extensions>
      </trkpt>
      <trkpt lat="50.34852" lon="3.26603">
        <ele>30.377237</ele>
        <time>2023-01-22T08:11:20Z</time>
      </trkpt>
      <trkpt lat="50.34851" lon="3.266">
        <ele>35.9</ele>
        <time>2023-01-22T08:11:21Z</time>
      </trkpt>
      <trkpt lat="50.34851" lon="3.26598">
        <ele>35.8</ele>
        <time>2023-01-22T08:11:22Z</time>
      </trkpt>
      <trkpt lat="50.34851" lon="3.26597">
        <ele>35.8</ele>
        <time>2023-01-22T08:11:23Z</time>
      </trkpt>
      <trkpt lat="50.34851" lon="3.26595">
        <ele>35.8</ele>
        <time>2023-01-22T08:11:24Z</time>
      </trkpt>
      <trkpt lat="50.3485" lon="3.26593">
        <ele>35.8</ele>
        <time>2023-01-22T08:11:25Z</time>
      </trkpt>
      <trkpt lat="50.3485" lon="3.26591">
        <ele>35.7</ele>
        <time>2023-01-22T08:11:26Z</time>
      </trkpt>
      <trkpt lat="50.34851" lon="3.26588">
        <ele>35.7</ele>
        <time>2023-01-22T08:11:27Z</time>
      </trkpt>
      <trkpt lat="50.3485" lon="3.26585">
        <ele>35.6</ele>
        <time>2023-01-22T08:11:28Z</time>
      </trkpt>
      <trkpt lat="50.3485" lon="3.26582">
        <ele>35.6</ele>
        <time>2023-01-22T08:11:29Z</time>
      </trkpt>
      <trkpt lat="50.3485" lon="3.26581">
        <ele>30.273796</ele>
        <time>2023-01-22T08:11:30Z</time>
      </trkpt>
      <trkpt lat="50.3485" lon="3.26579">
        <ele>35.5</ele>
        <time>2023-01-22T08:11:31Z</time>
      </trkpt>
      <trkpt lat="50.34849" lon="3.26578">
        <ele>35.4</ele>
        <time>2023-01-22T08:11:32Z</time>
      </trkpt>
      <trkpt lat="50.34849" lon="3.26576">
        <ele>35.4</ele>
        <time>2023-01-22T08:11:33Z</time>
      </trkpt>
      <trkpt lat="50.34848" lon="3.26573">
        <ele>35.3</ele>
        <time>2023-01-22T08:11:34Z</time>
      </trkpt>
      <trkpt lat="50.34848" lon="3.2657">
        <ele>35.3</ele>
        <time>2023-01-22T08:11:35Z</time>
      </trkpt>
      <trkpt lat="50.34847" lon="3.26568">
        <ele>35.2</ele>
        <time>2023-01-22T08:11:36Z</time>
      </trkpt>
      <trkpt lat="50.34847" lon="3.26565">
        <ele>35.2</ele>
        <time>2023-01-22T08:11:37Z</time>
      </trkpt>
      <trkpt lat="50.34847" lon="3.26563">
        <ele>35.1</ele>
        <time>2023-01-22T08:11:38Z</time>
      </trkpt>
      <trkpt lat="50.34847" lon="3.2656">
        <ele>35.1</ele>
        <time>2023-01-22T08:11:39Z</time>
      </trkpt>
      <trkpt lat="50.34847" lon="3.26559">
        <ele>30.173203</ele>
        <time>2023-01-22T08:11:40Z</time>
      </trkpt>
      <trkpt lat="50.34846" lon="3.26557">
        <ele>35</ele>
        <time>2023-01-22T08:11:41Z</time>
      </trkpt>
      <trkpt lat="50.34846" lon="3.26555">
        <ele>35</ele>
        <time>2023-01-22T08:11:42Z</time>
      </trkpt>
      <trkpt lat="50.34846" lon="3.26554">
        <ele>35</ele>
        <time>2023-01-22T08:11:43Z</time>
      </trkpt>
      <trkpt lat="50.34846" lon="3.26552">
        <ele>35</ele>
        <time>2023-01-22T08:11:44Z</time>
      </trkpt>
      <trkpt lat="50.34846" lon="3.26549">
        <ele>35</ele>
        <time>2023-01-22T08:11:45Z</time>
      </trkpt>
      <trkpt lat="50.34845" lon="3.26547">
        <ele>35</ele>
        <time>2023-01-22T08:11:46Z</time>
      </trkpt>
      <trkpt lat="50.34845" lon="3.26544">
        <ele>35</ele>
        <time>2023-01-22T08:11:47Z</time>
      </trkpt>
      <trkpt lat="50.34845" lon="3.26543">
        <ele>35</ele>
        <time>2023-01-22T08:11:48Z</time>
      </trkpt>
      <trkpt lat="50.34845" lon="3.26541">
        <ele>35</ele>
        <time>2023-01-22T08:11:49Z</time>
      </trkpt>
      <trkpt lat="50.34845" lon="3.26539">
        <ele>30.235836</ele>
        <time>2023-01-22T08:11:50Z</time>
      </trkpt>
      <trkpt lat="50.34845" lon="3.26537">
        <ele>35</ele>
        <time>2023-01-22T08:11:51Z</time>
      </trkpt>
      <trkpt lat="50.34845" lon="3.26535">
        <ele>35</ele>
        <time>2023-01-22T08:11:52Z</time>
      </trkpt>
      <trkpt lat="50.34845" lon="3.26533">
        <ele>35</ele>
        <time>2023-01-22T08:11:53Z</time>
      </trkpt>
      <trkpt lat="50.34845" lon="3.2653">
        <ele>35</ele>
        <time>2023-01-22T08:11:54Z</time>
      </trkpt>
      <trkpt lat="50.34846" lon="3.26528">
        <ele>35</ele>
        <time>2023-01-22T08:11:55Z</time>
      </trkpt>
      <trkpt lat="50.34846" lon="3.26526">
        <ele>35</ele>
        <time>2023-01-22T08:11:56Z</time>
      </trkpt>
      <trkpt lat="50.34846" lon="3.26524">
        <ele>35</ele>
        <time>2023-01-22T08:11:57Z</time>
      </trkpt>
      <trkpt lat="50.34846" lon="3.26522">
        <ele>35</ele>
        <time>2023-01-22T08:11:58Z</time>
      </trkpt>
      <trkpt lat="50.34846" lon="3.26519">
        <ele>35</ele>
        <time>2023-01-22T08:11:59Z</time>
      </trkpt>
      <trkpt lat="50.34845" lon="3.26517">
        <ele>30.29847</ele>
        <time>2023-01-22T08:12:00Z</time>
      </trkpt>
      <trkpt lat="50.34846" lon="3.26514">
        <ele>35</ele>
        <time>2023-01-22T08:12:01Z</time>
      </trkpt>
      <trkpt lat="50.34846" lon="3.26512">
        <ele>35</ele>
        <time>2023-01-22T08:12:02Z</time>
      </trkpt>
      <trkpt lat="50.34846" lon="3.26509">
        <ele>35</ele>
        <time>2023-01-22T08:12:03Z</time>
      </trkpt>
      <trkpt lat="50.34846" lon="3.26507">
        <ele>35</ele>
        <time>2023-01-22T08:12:04Z</time>
      </trkpt>
      <trkpt lat="50.34846" lon="3.26504">
        <ele>35</ele>
        <time>2023-01-22T08:12:05Z</time>
      </trkpt>
      <trkpt lat="50.34845" lon="3.26502">
        <ele>35</ele>
        <time>2023-01-22T08:12:06Z</time>
      </trkpt>
      <trkpt lat="50.34845" lon="3.265">
        <ele>35</ele>
        <time>2023-01-22T08:12:07Z</time>
      </trkpt>
      <trkpt lat="50.34845" lon="3.26498">
        <ele>35</ele>
        <time>2023-01-22T08:12:08Z</time>
      </trkpt>
      <trkpt lat="50.34844" lon="3.26495">
        <ele>35</ele>
        <time>2023-01-22T08:12:09Z</time>
      </trkpt>
      <trkpt lat="50.34843" lon="3.26493">
        <ele>30.2235</ele>
        <time>2023-01-22T08:12:10Z</time>
      </trkpt>
      <trkpt lat="50.34843" lon="3.26491">
        <ele>35</ele>
        <time>2023-01-22T08:12:11Z</time>
      </trkpt>
      <trkpt lat="50.34842" lon="3.26489">
        <ele>35</ele>
        <time>2023-01-22T08:12:12Z</time>
      </trkpt>
      <trkpt lat="50.34841" lon="3.26487">
        <ele>35</ele>
        <time>2023-01-22T08:12:13Z</time>
      </trkpt>
      <trkpt lat="50.3484" lon="3.26486">
        <ele>35</ele>
        <time>2023-01-22T08:12:14Z</time>
      </trkpt>
      <trkpt lat="50.34839" lon="3.26484">
        <ele>35</ele>
        <time>2023-01-22T08:12:15Z</time>
      </trkpt>
      <trkpt lat="50.34837" lon="3.26481">
        <ele>35</ele>
        <time>2023-01-22T08:12:16Z</time>
      </trkpt>
      <trkpt lat="50.34836" lon="3.2648">
        <ele>35</ele>
        <time>2023-01-22T08:12:17Z</time>
      </trkpt>
      <trkpt lat="50.34835" lon="3.26478">
        <ele>35</ele>
        <time>2023-01-22T08:12:18Z</time>
      </trkpt>
      <trkpt lat="50.34834" lon="3.26476">
        <ele>35</ele>
        <time>2023-01-22T08:12:19Z</time>
      </trkpt>
      <trkpt lat="50.34833" lon="3.26474">
        <ele>30.220654</ele>
        <time>2023-01-22T08:12:20Z</time>
      </trkpt>
      <trkpt lat="50.34832" lon="3.26471">
        <ele>35</ele>
        <time>2023-01-22T08:12:21Z</time>
      </trkpt>
      <trkpt lat="50.34831" lon="3.26468">
        <ele>35</ele>
        <time>2023-01-22T08:12:22Z</time>
      </trkpt>
      <trkpt lat="50.3483" lon="3.26465">
        <ele>35</ele>
        <time>2023-01-22T08:12:23Z</time>
        <extensions>
          <gpxtpx:TrackPointExtension xmlns:gpxtpx="http://www.garmin.com/xmlschemas/TrackPointExtension/v1">
            <gpxtpx:hr>140</gpxtpx:hr>
          </gpxtpx:TrackPointExtension>
        </extensions>
      </trkpt>
      <trkpt lat="50.34829" lon="3.26464">
        <ele>35</ele>
        <time>2023-01-22T08:12:24Z</time>
      </trkpt>
      <trkpt lat="50.34829" lon="3.26464">
        <ele>35</ele>
        <time>2023-01-22T08:12:25Z</time>
      </trkpt>
      <trkpt lat="50.34829" lon="3.26464">
        <ele>35</ele>
        <time>2023-01-22T08:12:26Z</time>
      </trkpt>
      <trkpt lat="50.34829" lon="3.26464">
        <ele>35</ele>
        <time>2023-01-22T08:12:27Z</time>
      </trkpt>
      <trkpt lat="50.34829" lon="3.26464">
        <ele>35</ele>
        <time>2023-01-22T08:12:28Z</time>
      </trkpt>
      <trkpt lat="50.34829" lon="3.26464">
        <ele>35</ele>
        <time>2023-01-22T08:12:29Z</time>
      </trkpt>
      <trkpt lat="50.34829" lon="3.26463">
        <ele>30.165611</ele>
        <time>2023-01-22T08:12:30Z</time>
      </trkpt>
      <trkpt lat="50.34829" lon="3.26463">
        <ele>35</ele>
        <time>2023-01-22T08:12:31Z</time>
      </trkpt>
      <trkpt lat="50.34829" lon="3.26463">
        <ele>35</ele>
        <time>2023-01-22T08:12:32Z</time>
      </trkpt>
      <trkpt lat="50.34828" lon="3.26462">
        <ele>35</ele>
        <time>2023-01-22T08:12:33Z</time>
      </trkpt>
      <trkpt lat="50.34827" lon="3.2646">
        <ele>35</ele>
        <time>2023-01-22T08:12:34Z</time>
      </trkpt>
      <trkpt lat="50.34826" lon="3.26459">
        <ele>35</ele>
        <time>2023-01-22T08:12:35Z</time>
      </trkpt>
      <trkpt lat="50.34826" lon="3.26457">
        <ele>35</ele>
        <time>2023-01-22T08:12:36Z</time>
      </trkpt>
      <trkpt lat="50.34824" lon="3.26454">
        <ele>35</ele>
        <time>2023-01-22T08:12:37Z</time>
      </trkpt>
      <trkpt lat="50.34823" lon="3.26453">
        <ele>35</ele>
        <time>2023-01-22T08:12:38Z</time>
      </trkpt>
      <trkpt lat="50.34822" lon="3.2645">
        <ele>35</ele>
        <time>2023-01-22T08:12:39Z</time>
      </trkpt>
      <trkpt lat="50.34821" lon="3.26447">
        <ele>30.195978</ele>
        <time>2023-01-22T08:12:40Z</time>
      </trkpt>
      <trkpt lat="50.3482" lon="3.26444">
        <ele>35</ele>
        <time>2023-01-22T08:12:41Z</time>
      </trkpt>
      <trkpt lat="50.34819" lon="3.26442">
        <ele>35</ele>
        <time>2023-01-22T08:12:42Z</time>
      </trkpt>
      <trkpt lat="50.34818" lon="3.2644">
        <ele>35</ele>
        <time>2023-01-22T08:12:43Z</time>
      </trkpt>
      <trkpt lat="50.34816" lon="3.26438">
        <ele>35</ele>
        <time>2023-01-22T08:12:44Z</time>
      </trkpt>
      <trkpt lat="50.34816" lon="3.26436">
        <ele>35</ele>
        <time>2023-01-22T08:12:45Z</time>
      </trkpt>
      <trkpt lat="50.34815" lon="3.26434">
        <ele>35</ele>
        <time>2023-01-22T08:12:46Z</time>
      </trkpt>
      <trkpt lat="50.34814" lon="3.26433">
        <ele>35</ele>
        <time>2023-01-22T08:12:47Z</time>
      </trkpt>
      <trkpt lat="50.34814" lon="3.2643">
        <ele>35</ele>
        <time>2023-01-22T08:12:48Z</time>
      </trkpt>
      <trkpt lat="50.34813" lon="3.26428">
        <ele>35</ele>
        <time>2023-01-22T08:12:49Z</time>
      </trkpt>
      <trkpt lat="50.34812" lon="3.26426">
        <ele>30.165611</ele>
        <time>2023-01-22T08:12:50Z</time>
      </trkpt>
      <trkpt lat="50.34811" lon="3.26424">
        <ele>35</ele>
        <time>2023-01-22T08:12:51Z</time>
      </trkpt>
      <trkpt lat="50.34811" lon="3.26422">
        <ele>35</ele>
        <time>2023-01-22T08:12:52Z</time>
      </trkpt>
      <trkpt lat="50.3481" lon="3.26421">
        <ele>35</ele>
        <time>2023-01-22T08:12:53Z</time>
      </trkpt>
      <trkpt lat="50.34809" lon="3.26418">
        <ele>35</ele>
        <time>2023-01-22T08:12:54Z</time>
      </trkpt>
      <trkpt lat="50.34808" lon="3.26417">
        <ele>35</ele>
        <time>2023-01-22T08:12:55Z</time>
      </trkpt>
      <trkpt lat="50.34808" lon="3.26415">
        <ele>35</ele>
        <time>2023-01-22T08:12:56Z</time>
      </trkpt>
      <trkpt lat="50.34807" lon="3.26413">
        <ele>35</ele>
        <time>2023-01-22T08:12:57Z</time>
      </trkpt>
      <trkpt lat="50.34806" lon="3.26411">
        <ele>35</ele>
        <time>2023-01-22T08:12:58Z</time>
      </trkpt>
      <trkpt lat="50.34806" lon="3.26408">
        <ele>35</ele>
        <time>2023-01-22T08:12:59Z</time>
      </trkpt>
      <trkpt lat="50.34805" lon="3.26406">
        <ele>30.09159</ele>
        <time>2023-01-22T08:13:00Z</time>
      </trkpt>
      <trkpt lat="50.34805" lon="3.26404">
        <ele>35</ele>
        <time>2023-01-22T08:13:01Z</time>
      </trkpt>
      <trkpt lat="50.34804" lon="3.26402">
        <ele>35</ele>
        <time>2023-01-22T08:13:02Z</time>
      </trkpt>
      <trkpt lat="50.34803" lon="3.264">
        <ele>35</ele>
        <time>2023-01-22T08:13:03Z</time>
      </trkpt>
      <trkpt lat="50.34802" lon="3.26398">
        <ele>35</ele>
        <time>2023-01-22T08:13:04Z</time>
      </trkpt>
      <trkpt lat="50.34802" lon="3.26398">
        <ele>35</ele>
        <time>2023-01-22T08:13:05Z</time>
      </trkpt>
      <trkpt lat="50.34801" lon="3.26397">
        <ele>35</ele>
        <time>2023-01-22T08:13:06Z</time>
      </trkpt>
      <trkpt lat="50.34799" lon="3.26396">
        <ele>35</ele>
        <time>2023-01-22T08:13:07Z</time>
      </trkpt>
      <trkpt lat="50.34798" lon="3.26394">
        <ele>35</ele>
        <time>2023-01-22T08:13:08Z</time>
      </trkpt>
      <trkpt lat="50.34797" lon="3.26392">
        <ele>35</ele>
        <time>2023-01-22T08:13:09Z</time>
      </trkpt>
      <trkpt lat="50.34797" lon="3.2639">
        <ele>30.125753</ele>
        <time>2023-01-22T08:13:10Z</time>
      </trkpt>
      <trkpt lat="50.34795" lon="3.26389">
        <ele>35</ele>
        <time>2023-01-22T08:13:11Z</time>
      </trkpt>
      <trkpt lat="50.34795" lon="3.26388">
        <ele>35</ele>
        <time>2023-01-22T08:13:12Z</time>
      </trkpt>
      <trkpt lat="50.34794" lon="3.26386">
        <ele>35</ele>
        <time>2023-01-22T08:13:13Z</time>
      </trkpt>
      <trkpt lat="50.34793" lon="3.26385">
        <ele>35</ele>
        <time>2023-01-22T08:13:14Z</time>
      </trkpt>
      <trkpt lat="50.34792" lon="3.26384">
        <ele>35</ele>
        <time>2023-01-22T08:13:15Z</time>
      </trkpt>
      <trkpt lat="50.34792" lon="3.26383">
        <ele>35</ele>
        <time>2023-01-22T08:13:16Z</time>
      </trkpt>
      <trkpt lat="50.34791" lon="3.26381">
        <ele>35</ele>
        <time>2023-01-22T08:13:17Z</time>
      </trkpt>
      <trkpt lat="50.3479" lon="3.26381">
        <ele>35</ele>
        <time>2023-01-22T08:13:18Z</time>
      </trkpt>
      <trkpt lat="50.3479" lon="3.26379">
        <ele>35</ele>
        <time>2023-01-22T08:13:19Z</time>
      </trkpt>
      <trkpt lat="50.34789" lon="3.26377">
        <ele>30.152325</ele>
        <time>2023-01-22T08:13:20Z</time>
      </trkpt>
      <trkpt lat="50.34789" lon="3.26375">
        <ele>35</ele>
        <time>2023-01-22T08:13:21Z</time>
      </trkpt>
      <trkpt lat="50.34789" lon="3.26373">
        <ele>35</ele>
        <time>2023-01-22T08:13:22Z</time>
      </trkpt>
      <trkpt lat="50.34787" lon="3.26371">
        <ele>35</ele>
        <time>2023-01-22T08:13:23Z</time>
      </trkpt>
      <trkpt lat="50.34786" lon="3.2637">
        <ele>35</ele>
        <time>2023-01-22T08:13:24Z</time>
      </trkpt>
      <trkpt lat="50.34786" lon="3.26367">
        <ele>35</ele>
        <time>2023-01-22T08:13:25Z</time>
      </trkpt>
      <trkpt lat="50.34785" lon="3.26365">
        <ele>35</ele>
        <time>2023-01-22T08:13:26Z</time>
      </trkpt>
      <trkpt lat="50.34784" lon="3.26364">
        <ele>35</ele>
        <time>2023-01-22T08:13:27Z</time>
      </trkpt>
      <trkpt lat="50.34784" lon="3.26361">
        <ele>35</ele>
        <time>2023-01-22T08:13:28Z</time>
      </trkpt>
      <trkpt lat="50.34782" lon="3.2636">
        <ele>35</ele>
        <time>2023-01-22T08:13:29Z</time>
      </trkpt>
      <trkpt lat="50.34781" lon="3.26358">
        <ele>30.060274</ele>
        <time>2023-01-22T08:13:30Z</time>
      </trkpt>
      <trkpt lat="50.34779" lon="3.26356">
        <ele>35</ele>
        <time>2023-01-22T08:13:31Z</time>
      </trkpt>
      <trkpt lat="50.34779" lon="3.26354">
        <ele>35</ele>
        <time>2023-01-22T08:13:32Z</time>
      </trkpt>
      <trkpt lat="50.34778" lon="3.26353">
        <ele>35</ele>
        <time>2023-01-22T08:13:33Z</time>
      </trkpt>
      <trkpt lat="50.34777" lon="3.26351">
        <ele>35</ele>
        <time>2023-01-22T08:13:34Z</time>
      </trkpt>
      <trkpt lat="50.34776" lon="3.26349">
        <ele>35</ele>
        <time>2023-01-22T08:13:35Z</time>
      </trkpt>
      <trkpt lat="50.34774" lon="3.26348">
        <ele>35</ele>
        <time>2023-01-22T08:13:36Z</time>
      </trkpt>
      <trkpt lat="50.34773" lon="3.26346">
        <ele>35</ele>
        <time>2023-01-22T08:13:37Z</time>
      </trkpt>
      <trkpt lat="50.34772" lon="3.26345">
        <ele>35</ele>
        <time>2023-01-22T08:13:38Z</time>
      </trkpt>
      <trkpt lat="50.34771" lon="3.26343">
        <ele>35</ele>
        <time>2023-01-22T08:13:39Z</time>
      </trkpt>
      <trkpt lat="50.3477" lon="3.26341">
        <ele>30.131447</ele>
        <time>2023-01-22T08:13:40Z</time>
      </trkpt>
      <trkpt lat="50.34769" lon="3.2634">
        <ele>35</ele>
        <time>2023-01-22T08:13:41Z</time>
      </trkpt>
      <trkpt lat="50.34768" lon="3.26337">
        <ele>35</ele>
        <time>2023-01-22T08:13:42Z</time>
      </trkpt>
      <trkpt lat="50.34767" lon="3.26336">
        <ele>35</ele>
        <time>2023-01-22T08:13:43Z</time>
      </trkpt>
      <trkpt lat="50.34766" lon="3.26333">
        <ele>35</ele>
        <time>2023-01-22T08:13:44Z</time>
      </trkpt>
      <trkpt lat="50.34765" lon="3.26332">
        <ele>35</ele>
        <time>2023-01-22T08:13:45Z</time>
      </trkpt>
      <trkpt lat="50.34765" lon="3.26331">
        <ele>35</ele>
        <time>2023-01-22T08:13:46Z</time>
      </trkpt>
      <trkpt lat="50.34763" lon="3.2633">
        <ele>35</ele>
        <time>2023-01-22T08:13:47Z</time>
      </trkpt>
      <trkpt lat="50.34762" lon="3.26328">
        <ele>35</ele>
        <time>2023-01-22T08:13:48Z</time>
      </trkpt>
      <trkpt lat="50.34762" lon="3.26326">
        <ele>35</ele>
        <time>2023-01-22T08:13:49Z</time>
      </trkpt>
      <trkpt lat="50.34761" lon="3.26325">
        <ele>30.177948</ele>
        <time>2023-01-22T08:13:50Z</time>
      </trkpt>
      <trkpt lat="50.3476" lon="3.26324">
        <ele>35</ele>
        <time>2023-01-22T08:13:51Z</time>
      </trkpt>
      <trkpt lat="50.34759" lon="3.26322">
        <ele>35</ele>
        <time>2023-01-22T08:13:52Z</time>
      </trkpt>
      <trkpt lat="50.34758" lon="3.26321">
        <ele>35</ele>
        <time>2023-01-22T08:13:53Z</time>
      </trkpt>
      <trkpt lat="50.34757" lon="3.2632">
        <ele>35</ele>
        <time>2023-01-22T08:13:54Z</time>
      </trkpt>
      <trkpt lat="50.34756" lon="3.26319">
        <ele>35</ele>
        <time>2023-01-22T08:13:55Z</time>
      </trkpt>
      <trkpt lat="50.34755" lon="3.26316">
        <ele>35</ele>
        <time>2023-01-22T08:13:56Z</time>
      </trkpt>
      <trkpt lat="50.34753" lon="3.26315">
        <ele>35</ele>
        <time>2023-01-22T08:13:57Z</time>
      </trkpt>
      <trkpt lat="50.34752" lon="3.26313">
        <ele>35</ele>
        <time>2023-01-22T08:13:58Z</time>
      </trkpt>
      <trkpt lat="50.34752" lon="3.26311">
        <ele>35</ele>
        <time>2023-01-22T08:13:59Z</time>
      </trkpt>
      <trkpt lat="50.3475" lon="3.26309">
        <ele>30.143784</ele>
        <time>2023-01-22T08:14:00Z</time>
      </trkpt>
      <trkpt lat="50.3475" lon="3.26308">
        <ele>35</ele>
        <time>2023-01-22T08:14:01Z</time>
      </trkpt>
      <trkpt lat="50.34749" lon="3.26307">
        <ele>35</ele>
        <time>2023-01-22T08:14:02Z</time>
      </trkpt>
      <trkpt lat="50.34748" lon="3.26306">
        <ele>35</ele>
        <time>2023-01-22T08:14:03Z</time>
      </trkpt>
      <trkpt lat="50.34747" lon="3.26305">
        <ele>35</ele>
        <time>2023-01-22T08:14:04Z</time>
      </trkpt>
      <trkpt lat="50.34747" lon="3.26304">
        <ele>35</ele>
        <time>2023-01-22T08:14:05Z</time>
      </trkpt>
      <trkpt lat="50.34745" lon="3.26303">
        <ele>35</ele>
        <time>2023-01-22T08:14:06Z</time>
      </trkpt>
      <trkpt lat="50.34744" lon="3.26301">
        <ele>35</ele>
        <time>2023-01-22T08:14:07Z</time>
      </trkpt>
      <trkpt lat="50.34742" lon="3.263">
        <ele>35</ele>
        <time>2023-01-22T08:14:08Z</time>
      </trkpt>
      <trkpt lat="50.34741" lon="3.26299">
        <ele>35</ele>
        <time>2023-01-22T08:14:09Z</time>
      </trkpt>
      <trkpt lat="50.3474" lon="3.26297">
        <ele>30.085896</ele>
        <time>2023-01-22T08:14:10Z</time>
      </trkpt>
      <trkpt lat="50.34739" lon="3.26295">
        <ele>35</ele>
        <time>2023-01-22T08:14:11Z</time>
      </trkpt>
      <trkpt lat="50.34737" lon="3.26293">
        <ele>35</ele>
        <time>2023-01-22T08:14:12Z</time>
      </trkpt>
      <trkpt lat="50.34736" lon="3.26292">
        <ele>35</ele>
        <time>2023-01-22T08:14:13Z</time>
      </trkpt>
      <trkpt lat="50.34735" lon="3.2629">
        <ele>35</ele>
        <time>2023-01-22T08:14:14Z</time>
      </trkpt>
      <trkpt lat="50.34734" lon="3.26289">
        <ele>35</ele>
        <time>2023-01-22T08:14:15Z</time>
      </trkpt>
      <trkpt lat="50.34733" lon="3.26288">
        <ele>35</ele>
        <time>2023-01-22T08:14:16Z</time>
      </trkpt>
      <trkpt lat="50.34732" lon="3.26287">
        <ele>35</ele>
        <time>2023-01-22T08:14:17Z</time>
      </trkpt>
      <trkpt lat="50.34731" lon="3.26286">
        <ele>35</ele>
        <time>2023-01-22T08:14:18Z</time>
      </trkpt>
      <trkpt lat="50.34729" lon="3.26284">
        <ele>35</ele>
        <time>2023-01-22T08:14:19Z</time>
      </trkpt>
      <trkpt lat="50.34728" lon="3.26283">
        <ele>30.201674</ele>
        <time>2023-01-22T08:14:20Z</time>
      </trkpt>
      <trkpt lat="50.34727" lon="3.26281">
        <ele>35</ele>
        <time>2023-01-22T08:14:21Z</time>
      </trkpt>
      <trkpt lat="50.34726" lon="3.2628">
        <ele>35</ele>
        <time>2023-01-22T08:14:22Z</time>
      </trkpt>
      <trkpt lat="50.34725" lon="3.26279">
        <ele>35</ele>
        <time>2023-01-22T08:14:23Z</time>
      </trkpt>
      <trkpt lat="50.34724" lon="3.26277">
        <ele>35</ele>
        <time>2023-01-22T08:14:24Z</time>
      </trkpt>
      <trkpt lat="50.34723" lon="3.26277">
        <ele>35</ele>
        <time>2023-01-22T08:14:25Z</time>
      </trkpt>
      <trkpt lat="50.34722" lon="3.26276">
        <ele>35</ele>
        <time>2023-01-22T08:14:26Z</time>
      </trkpt>
      <trkpt lat="50.34721" lon="3.26275">
        <ele>35</ele>
        <time>2023-01-22T08:14:27Z</time>
      </trkpt>
      <trkpt lat="50.3472" lon="3.26274">
        <ele>35</ele>
        <time>2023-01-22T08:14:28Z</time>
      </trkpt>
      <trkpt lat="50.34719" lon="3.26273">
        <ele>35</ele>
        <time>2023-01-22T08:14:29Z</time>
      </trkpt>
      <trkpt lat="50.34717" lon="3.26271">
        <ele>30.200724</ele>
        <time>2023-01-22T08:14:30Z</time>
      </trkpt>
      <trkpt lat="50.34716" lon="3.26269">
        <ele>35</ele>
        <time>2023-01-22T08:14:31Z</time>
      </trkpt>
      <trkpt lat="50.34715" lon="3.26268">
        <ele>35</ele>
        <time>2023-01-22T08:14:32Z</time>
      </trkpt>
      <trkpt lat="50.34713" lon="3.26268">
        <ele>35</ele>
        <time>2023-01-22T08:14:33Z</time>
      </trkpt>
      <trkpt lat="50.34712" lon="3.26266">
        <ele>35</ele>
        <time>2023-01-22T08:14:34Z</time>
      </trkpt>
      <trkpt lat="50.34712" lon="3.26265">
        <ele>35</ele>
        <time>2023-01-22T08:14:35Z</time>
      </trkpt>
      <trkpt lat="50.34711" lon="3.26265">
        <ele>35</ele>
        <time>2023-01-22T08:14:36Z</time>
      </trkpt>
      <trkpt lat="50.3471" lon="3.26264">
        <ele>35</ele>
        <time>2023-01-22T08:14:37Z</time>
      </trkpt>
      <trkpt lat="50.34709" lon="3.26263">
        <ele>35</ele>
        <time>2023-01-22T08:14:38Z</time>
      </trkpt>
      <trkpt lat="50.34707" lon="3.26262">
        <ele>35</ele>
        <time>2023-01-22T08:14:39Z</time>
      </trkpt>
      <trkpt lat="50.34707" lon="3.26261">
        <ele>30.06312</ele>
        <time>2023-01-22T08:14:40Z</time>
      </trkpt>
      <trkpt lat="50.34705" lon="3.26259">
        <ele>35</ele>
        <time>2023-01-22T08:14:41Z</time>
      </trkpt>
      <trkpt lat="50.34703" lon="3.26258">
        <ele>35</ele>
        <time>2023-01-22T08:14:42Z</time>
      </trkpt>
      <trkpt lat="50.34702" lon="3.26256">
        <ele>35</ele>
        <time>2023-01-22T08:14:43Z</time>
      </trkpt>
      <trkpt lat="50.34701" lon="3.26255">
        <ele>35</ele>
        <time>2023-01-22T08:14:44Z</time>
      </trkpt>
      <trkpt lat="50.347" lon="3.26253">
        <ele>35</ele>
        <time>2023-01-22T08:14:45Z</time>
      </trkpt>
      <trkpt lat="50.34699" lon="3.26252">
        <ele>35</ele>
        <time>2023-01-22T08:14:46Z</time>
      </trkpt>
      <trkpt lat="50.34697" lon="3.26251">
        <ele>35</ele>
        <time>2023-01-22T08:14:47Z</time>
      </trkpt>
      <trkpt lat="50.34696" lon="3.26249">
        <ele>35</ele>
        <time>2023-01-22T08:14:48Z</time>
      </trkpt>
      <trkpt lat="50.34695" lon="3.26247">
        <ele>35</ele>
        <time>2023-01-22T08:14:49Z</time>
      </trkpt>
      <trkpt lat="50.34693" lon="3.26246">
        <ele>30.043192</ele>
        <time>2023-01-22T08:14:50Z</time>
      </trkpt>
      <trkpt lat="50.34692" lon="3.26243">
        <ele>35</ele>
        <time>2023-01-22T08:14:51Z</time>
      </trkpt>
      <trkpt lat="50.34691" lon="3.26241">
        <ele>35</ele>
        <time>2023-01-22T08:14:52Z</time>
      </trkpt>
      <trkpt lat="50.3469" lon="3.26241">
        <ele>35</ele>
        <time>2023-01-22T08:14:53Z</time>
      </trkpt>
      <trkpt lat="50.34689" lon="3.2624">
        <ele>35</ele>
        <time>2023-01-22T08:14:54Z</time>
      </trkpt>
      <trkpt lat="50.34688" lon="3.2624">
        <ele>35</ele>
        <time>2023-01-22T08:14:55Z</time>
      </trkpt>
      <trkpt lat="50.34687" lon="3.26239">
        <ele>35</ele>
        <time>2023-01-22T08:14:56Z</time>
      </trkpt>
      <trkpt lat="50.34687" lon="3.26238">
        <ele>35</ele>
        <time>2023-01-22T08:14:57Z</time>
      </trkpt>
      <trkpt lat="50.34686" lon="3.26237">
        <ele>35</ele>
        <time>2023-01-22T08:14:58Z</time>
      </trkpt>
      <trkpt lat="50.34684" lon="3.26236">
        <ele>35</ele>
        <time>2023-01-22T08:14:59Z</time>
      </trkpt>
      <trkpt lat="50.34683" lon="3.26235">
        <ele>29.990997</ele>
        <time>2023-01-22T08:15:00Z</time>
      </trkpt>
      <trkpt lat="50.34682" lon="3.26234">
        <ele>35</ele>
        <time>2023-01-22T08:15:01Z</time>
      </trkpt>
      <trkpt lat="50.34681" lon="3.26233">
        <ele>35</ele>
        <time>2023-01-22T08:15:02Z</time>
      </trkpt>
      <trkpt lat="50.34679" lon="3.26232">
        <ele>35</ele>
        <time>2023-01-22T08:15:03Z</time>
      </trkpt>
      <trkpt lat="50.34678" lon="3.26231">
        <ele>35</ele>
        <time>2023-01-22T08:15:04Z</time>
      </trkpt>
      <trkpt lat="50.34677" lon="3.26231">
        <ele>35</ele>
        <time>2023-01-22T08:15:05Z</time>
      </trkpt>
      <trkpt lat="50.34676" lon="3.26229">
        <ele>35</ele>
        <time>2023-01-22T08:15:06Z</time>
      </trkpt>
      <trkpt lat="50.34675" lon="3.26227">
        <ele>35</ele>
        <time>2023-01-22T08:15:07Z</time>
      </trkpt>
      <trkpt lat="50.34673" lon="3.26226">
        <ele>35</ele>
        <time>2023-01-22T08:15:08Z</time>
      </trkpt>
      <trkpt lat="50.34672" lon="3.26224">
        <ele>35</ele>
        <time>2023-01-22T08:15:09Z</time>
      </trkpt>
      <trkpt lat="50.34671" lon="3.26223">
        <ele>29.86763</ele>
        <time>2023-01-22T08:15:10Z</time>
        <extensions>
          <gpxtpx:TrackPointExtension xmlns:gpxtpx="http://www.garmin.com/xmlschemas/TrackPointExtension/v1">
            <gpxtpx:hr>140</gpxtpx:hr>
          </gpxtpx:TrackPointExtension>
        </extensions>
      </trkpt>
      <trkpt lat="50.3467" lon="3.26222">
        <ele>35</ele>
        <time>2023-01-22T08:15:11Z</time>
      </trkpt>
      <trkpt lat="50.34669" lon="3.26221">
        <ele>35</ele>
        <time>2023-01-22T08:15:12Z</time>
      </trkpt>
      <trkpt lat="50.34668" lon="3.2622">
        <ele>35</ele>
        <time>2023-01-22T08:15:13Z</time>
      </trkpt>
      <trkpt lat="50.34667" lon="3.2622">
        <ele>35</ele>
        <time>2023-01-22T08:15:14Z</time>
      </trkpt>
      <trkpt lat="50.34666" lon="3.26219">
        <ele>35</ele>
        <time>2023-01-22T08:15:15Z</time>
      </trkpt>
      <trkpt lat="50.34665" lon="3.26217">
        <ele>35</ele>
        <time>2023-01-22T08:15:16Z</time>
      </trkpt>
      <trkpt lat="50.34663" lon="3.26216">
        <ele>35</ele>
        <time>2023-01-22T08:15:17Z</time>
      </trkpt>
      <trkpt lat="50.34662" lon="3.26215">
        <ele>35</ele>
        <time>2023-01-22T08:15:18Z</time>
      </trkpt>
      <trkpt lat="50.34661" lon="3.26213">
        <ele>35</ele>
        <time>2023-01-22T08:15:19Z</time>
      </trkpt>
      <trkpt lat="50.34659" lon="3.26212">
        <ele>29.877121</ele>
        <time>2023-01-22T08:15:20Z</time>
      </trkpt>
      <trkpt lat="50.34658" lon="3.26211">
        <ele>35</ele>
        <time>2023-01-22T08:15:21Z</time>
      </trkpt>
      <trkpt lat="50.34657" lon="3.26209">
        <ele>35</ele>
        <time>2023-01-22T08:15:22Z</time>
        <extensions>
          <gpxtpx:TrackPointExtension xmlns:gpxtpx="http://www.garmin.com/xmlschemas/TrackPointExtension/v1">
            <gpxtpx:hr>139</gpxtpx:hr>
          </gpxtpx:TrackPointExtension>
        </extensions>
      </trkpt>
      <trkpt lat="50.34655" lon="3.26208">
        <ele>35</ele>
        <time>2023-01-22T08:15:23Z</time>
      </trkpt>
      <trkpt lat="50.34655" lon="3.26207">
        <ele>35</ele>
        <time>2023-01-22T08:15:24Z</time>
      </trkpt>
      <trkpt lat="50.34654" lon="3.26206">
        <ele>35</ele>
        <time>2023-01-22T08:15:25Z</time>
      </trkpt>
      <trkpt lat="50.34653" lon="3.26206">
        <ele>35</ele>
        <time>2023-01-22T08:15:26Z</time>
      </trkpt>
      <trkpt lat="50.34651" lon="3.26204">
        <ele>35</ele>
        <time>2023-01-22T08:15:27Z</time>
      </trkpt>
      <trkpt lat="50.3465" lon="3.26203">
        <ele>35</ele>
        <time>2023-01-22T08:15:28Z</time>
      </trkpt>
      <trkpt lat="50.34649" lon="3.26202">
        <ele>35</ele>
        <time>2023-01-22T08:15:29Z</time>
      </trkpt>
      <trkpt lat="50.34649" lon="3.26201">
        <ele>30.00808</ele>
        <time>2023-01-22T08:15:30Z</time>
      </trkpt>
      <trkpt lat="50.34647" lon="3.262">
        <ele>35</ele>
        <time>2023-01-22T08:15:31Z</time>
      </trkpt>
      <trkpt lat="50.34646" lon="3.26201">
        <ele>35</ele>
        <time>2023-01-22T08:15:32Z</time>
      </trkpt>
      <trkpt lat="50.34644" lon="3.262">
        <ele>35</ele>
        <time>2023-01-22T08:15:33Z</time>
      </trkpt>
      <trkpt lat="50.34643" lon="3.262">
        <ele>35</ele>
        <time>2023-01-22T08:15:34Z</time>
      </trkpt>
      <trkpt lat="50.34641" lon="3.262">
        <ele>35</ele>
        <time>2023-01-22T08:15:35Z</time>
      </trkpt>
      <trkpt lat="50.3464" lon="3.26198">
        <ele>35</ele>
        <time>2023-01-22T08:15:36Z</time>
      </trkpt>
      <trkpt lat="50.34638" lon="3.26197">
        <ele>35</ele>
        <time>2023-01-22T08:15:37Z</time>
      </trkpt>
      <trkpt lat="50.34636" lon="3.26196">
        <ele>35</ele>
        <time>2023-01-22T08:15:38Z</time>
      </trkpt>
      <trkpt lat="50.34635" lon="3.26195">
        <ele>35</ele>
        <time>2023-01-22T08:15:39Z</time>
      </trkpt>
      <trkpt lat="50.34633" lon="3.26194">
        <ele>29.966324</ele>
        <time>2023-01-22T08:15:40Z</time>
      </trkpt>
      <trkpt lat="50.34632" lon="3.26193">
        <ele>35</ele>
        <time>2023-01-22T08:15:41Z</time>
      </trkpt>
      <trkpt lat="50.3463" lon="3.26191">
        <ele>35</ele>
        <time>2023-01-22T08:15:42Z</time>
      </trkpt>
      <trkpt lat="50.34629" lon="3.2619">
        <ele>35</ele>
        <time>2023-01-22T08:15:43Z</time>
      </trkpt>
      <trkpt lat="50.34627" lon="3.26189">
        <ele>35</ele>
        <time>2023-01-22T08:15:44Z</time>
      </trkpt>
      <trkpt lat="50.34626" lon="3.26189">
        <ele>35</ele>
        <time>2023-01-22T08:15:45Z</time>
      </trkpt>
      <trkpt lat="50.34625" lon="3.26188">
        <ele>35</ele>
        <time>2023-01-22T08:15:46Z</time>
      </trkpt>
      <trkpt lat="50.34624" lon="3.26187">
        <ele>35</ele>
        <time>2023-01-22T08:15:47Z</time>
      </trkpt>
      <trkpt lat="50.34623" lon="3.26186">
        <ele>35</ele>
        <time>2023-01-22T08:15:48Z</time>
      </trkpt>
      <trkpt lat="50.34622" lon="3.26185">
        <ele>35</ele>
        <time>2023-01-22T08:15:49Z</time>
      </trkpt>
      <trkpt lat="50.34621" lon="3.26183">
        <ele>30.044142</ele>
        <time>2023-01-22T08:15:50Z</time>
      </trkpt>
      <trkpt lat="50.3462" lon="3.26182">
        <ele>35</ele>
        <time>2023-01-22T08:15:51Z</time>
      </trkpt>
      <trkpt lat="50.34619" lon="3.2618">
        <ele>35</ele>
        <time>2023-01-22T08:15:52Z</time>
      </trkpt>
      <trkpt lat="50.34618" lon="3.26179">
        <ele>35</ele>
        <time>2023-01-22T08:15:53Z</time>
      </trkpt>
      <trkpt lat="50.34618" lon="3.26178">
        <ele>35</ele>
        <time>2023-01-22T08:15:54Z</time>
      </trkpt>
      <trkpt lat="50.34616" lon="3.26177">
        <ele>35</ele>
        <time>2023-01-22T08:15:55Z</time>
      </trkpt>
      <trkpt lat="50.34615" lon="3.26176">
        <ele>35</ele>
        <time>2023-01-22T08:15:56Z</time>
      </trkpt>
      <trkpt lat="50.34613" lon="3.26174">
        <ele>35</ele>
        <time>2023-01-22T08:15:57Z</time>
      </trkpt>
      <trkpt lat="50.34612" lon="3.26173">
        <ele>35</ele>
        <time>2023-01-22T08:15:58Z</time>
      </trkpt>
      <trkpt lat="50.34611" lon="3.26172">
        <ele>35</ele>
        <time>2023-01-22T08:15:59Z</time>
      </trkpt>
      <trkpt lat="50.3461" lon="3.2617">
        <ele>30.079254</ele>
        <time>2023-01-22T08:16:00Z</time>
      </trkpt>
      <trkpt lat="50.34609" lon="3.26169">
        <ele>35</ele>
        <time>2023-01-22T08:16:01Z</time>
      </trkpt>
      <trkpt lat="50.34609" lon="3.26168">
        <ele>35</ele>
        <time>2023-01-22T08:16:02Z</time>
      </trkpt>
      <trkpt lat="50.34608" lon="3.26167">
        <ele>35</ele>
        <time>2023-01-22T08:16:03Z</time>
      </trkpt>
      <trkpt lat="50.34607" lon="3.26166">
        <ele>35</ele>
        <time>2023-01-22T08:16:04Z</time>
      </trkpt>
      <trkpt lat="50.34606" lon="3.26164">
        <ele>34.9</ele>
        <time>2023-01-22T08:16:05Z</time>
      </trkpt>
      <trkpt lat="50.34605" lon="3.26163">
        <ele>34.9</ele>
        <time>2023-01-22T08:16:06Z</time>
      </trkpt>
      <trkpt lat="50.34604" lon="3.26161">
        <ele>34.9</ele>
        <time>2023-01-22T08:16:07Z</time>
      </trkpt>
      <trkpt lat="50.34603" lon="3.2616">
        <ele>34.8</ele>
        <time>2023-01-22T08:16:08Z</time>
      </trkpt>
      <trkpt lat="50.34602" lon="3.26159">
        <ele>34.8</ele>
        <time>2023-01-22T08:16:09Z</time>
      </trkpt>
      <trkpt lat="50.34601" lon="3.26158">
        <ele>30.109621</ele>
        <time>2023-01-22T08:16:10Z</time>
      </trkpt>
      <trkpt lat="50.346" lon="3.26156">
        <ele>34.8</ele>
        <time>2023-01-22T08:16:11Z</time>
      </trkpt>
      <trkpt lat="50.34599" lon="3.26155">
        <ele>34.8</ele>
        <time>2023-01-22T08:16:12Z</time>
      </trkpt>
      <trkpt lat="50.34597" lon="3.26154">
        <ele>34.8</ele>
        <time>2023-01-22T08:16:13Z</time>
      </trkpt>
      <trkpt lat="50.34596" lon="3.26152">
        <ele>34.8</ele>
        <time>2023-01-22T08:16:14Z</time>
      </trkpt>
      <trkpt lat="50.34594" lon="3.26151">
        <ele>34.8</ele>
        <time>2023-01-22T08:16:15Z</time>
      </trkpt>
      <trkpt lat="50.34592" lon="3.2615">
        <ele>34.8</ele>
        <time>2023-01-22T08:16:16Z</time>
      </trkpt>
      <trkpt lat="50.34592" lon="3.26149">
        <ele>34.8</ele>
        <time>2023-01-22T08:16:17Z</time>
      </trkpt>
      <trkpt lat="50.34591" lon="3.26148">
        <ele>34.8</ele>
        <time>2023-01-22T08:16:18Z</time>
      </trkpt>
      <trkpt lat="50.3459" lon="3.26146">
        <ele>34.8</ele>
        <time>2023-01-22T08:16:19Z</time>
      </trkpt>
      <trkpt lat="50.34589" lon="3.26145">
        <ele>30.151377</ele>
        <time>2023-01-22T08:16:20Z</time>
      </trkpt>
      <trkpt lat="50.34588" lon="3.26144">
        <ele>34.9</ele>
        <time>2023-01-22T08:16:21Z</time>
      </trkpt>
      <trkpt lat="50.34587" lon="3.26143">
        <ele>34.9</ele>
        <time>2023-01-22T08:16:22Z</time>
      </trkpt>
      <trkpt lat="50.34586" lon="3.26141">
        <ele>34.9</ele>
        <time>2023-01-22T08:16:23Z</time>
      </trkpt>
      <trkpt lat="50.34585" lon="3.26141">
        <ele>34.9</ele>
        <time>2023-01-22T08:16:24Z</time>
      </trkpt>
      <trkpt lat="50.34584" lon="3.2614">
        <ele>35</ele>
        <time>2023-01-22T08:16:25Z</time>
      </trkpt>
      <trkpt lat="50.34583" lon="3.26138">
        <ele>35</ele>
        <time>2023-01-22T08:16:26Z</time>
      </trkpt>
      <trkpt lat="50.34581" lon="3.26136">
        <ele>35</ele>
        <time>2023-01-22T08:16:27Z</time>
      </trkpt>
      <trkpt lat="50.3458" lon="3.26135">
        <ele>35</ele>
        <time>2023-01-22T08:16:28Z</time>
      </trkpt>
      <trkpt lat="50.34579" lon="3.26134">
        <ele>35</ele>
        <time>2023-01-22T08:16:29Z</time>
      </trkpt>
      <trkpt lat="50.34578" lon="3.26133">
        <ele>30.159918</ele>
        <time>2023-01-22T08:16:30Z</time>
      </trkpt>
      <trkpt lat="50.34576" lon="3.26132">
        <ele>35</ele>
        <time>2023-01-22T08:16:31Z</time>
      </trkpt>
      <trkpt lat="50.34575" lon="3.26131">
        <ele>35</ele>
        <time>2023-01-22T08:16:32Z</time>
      </trkpt>
      <trkpt lat="50.34575" lon="3.26129">
        <ele>35</ele>
        <time>2023-01-22T08:16:33Z</time>
      </trkpt>
      <trkpt lat="50.34574" lon="3.26128">
        <ele>35</ele>
        <time>2023-01-22T08:16:34Z</time>
      </trkpt>
      <trkpt lat="50.34573" lon="3.26127">
        <ele>35</ele>
        <time>2023-01-22T08:16:35Z</time>
      </trkpt>
      <trkpt lat="50.34572" lon="3.26126">
        <ele>35</ele>
        <time>2023-01-22T08:16:36Z</time>
      </trkpt>
      <trkpt lat="50.34572" lon="3.26126">
        <ele>35</ele>
        <time>2023-01-22T08:16:37Z</time>
      </trkpt>
      <trkpt lat="50.34571" lon="3.26125">
        <ele>35</ele>
        <time>2023-01-22T08:16:38Z</time>
      </trkpt>
      <trkpt lat="50.3457" lon="3.26124">
        <ele>35</ele>
        <time>2023-01-22T08:16:39Z</time>
      </trkpt>
      <trkpt lat="50.34569" lon="3.26123">
        <ele>30.329786</ele>
        <time>2023-01-22T08:16:40Z</time>
      </trkpt>
      <trkpt lat="50.34568" lon="3.26121">
        <ele>35</ele>
        <time>2023-01-22T08:16:41Z</time>
      </trkpt>
      <trkpt lat="50.34567" lon="3.26119">
        <ele>35</ele>
        <time>2023-01-22T08:16:42Z</time>
      </trkpt>
      <trkpt lat="50.34566" lon="3.26118">
        <ele>35</ele>
        <time>2023-01-22T08:16:43Z</time>
      </trkpt>
      <trkpt lat="50.34565" lon="3.26117">
        <ele>35</ele>
        <time>2023-01-22T08:16:44Z</time>
      </trkpt>
      <trkpt lat="50.34563" lon="3.26115">
        <ele>35</ele>
        <time>2023-01-22T08:16:45Z</time>
      </trkpt>
      <trkpt lat="50.34562" lon="3.26112">
        <ele>35</ele>
        <time>2023-01-22T08:16:46Z</time>
      </trkpt>
      <trkpt lat="50.34561" lon="3.2611">
        <ele>35</ele>
        <time>2023-01-22T08:16:47Z</time>
      </trkpt>
      <trkpt lat="50.3456" lon="3.26108">
        <ele>35</ele>
        <time>2023-01-22T08:16:48Z</time>
      </trkpt>
      <trkpt lat="50.34559" lon="3.26107">
        <ele>35</ele>
        <time>2023-01-22T08:16:49Z</time>
      </trkpt>
      <trkpt lat="50.34558" lon="3.26105">
        <ele>30.292776</ele>
        <time>2023-01-22T08:16:50Z</time>
      </trkpt>
      <trkpt lat="50.34557" lon="3.26103">
        <ele>35</ele>
        <time>2023-01-22T08:16:51Z</time>
      </trkpt>
      <trkpt lat="50.34555" lon="3.26102">
        <ele>35</ele>
        <time>2023-01-22T08:16:52Z</time>
      </trkpt>
      <trkpt lat="50.34554" lon="3.26101">
        <ele>35</ele>
        <time>2023-01-22T08:16:53Z</time>
      </trkpt>
      <trkpt lat="50.34553" lon="3.261">
        <ele>35</ele>
        <time>2023-01-22T08:16:54Z</time>
      </trkpt>
      <trkpt lat="50.34552" lon="3.26099">
        <ele>35</ele>
        <time>2023-01-22T08:16:55Z</time>
      </trkpt>
      <trkpt lat="50.3455" lon="3.26097">
        <ele>35</ele>
        <time>2023-01-22T08:16:56Z</time>
      </trkpt>
      <trkpt lat="50.34549" lon="3.26095">
        <ele>35</ele>
        <time>2023-01-22T08:16:57Z</time>
      </trkpt>
      <trkpt lat="50.34548" lon="3.26093">
        <ele>35</ele>
        <time>2023-01-22T08:16:58Z</time>
      </trkpt>
      <trkpt lat="50.34547" lon="3.26091">
        <ele>35</ele>
        <time>2023-01-22T08:16:59Z</time>
      </trkpt>
      <trkpt lat="50.34546" lon="3.26089">
        <ele>30.521486</ele>
        <time>2023-01-22T08:17:00Z</time>
      </trkpt>
      <trkpt lat="50.34544" lon="3.26088">
        <ele>35</ele>
        <time>2023-01-22T08:17:01Z</time>
      </trkpt>
      <trkpt lat="50.34543" lon="3.26089">
        <ele>35</ele>
        <time>2023-01-22T08:17:02Z</time>
      </trkpt>
      <trkpt lat="50.34543" lon="3.26088">
        <ele>35</ele>
        <time>2023-01-22T08:17:03Z</time>
      </trkpt>
      <trkpt lat="50.34542" lon="3.26086">
        <ele>35</ele>
        <time>2023-01-22T08:17:04Z</time>
      </trkpt>
      <trkpt lat="50.34541" lon="3.26085">
        <ele>35</ele>
        <time>2023-01-22T08:17:05Z</time>
      </trkpt>
      <trkpt lat="50.3454" lon="3.26083">
        <ele>35</ele>
        <time>2023-01-22T08:17:06Z</time>
      </trkpt>
      <trkpt lat="50.34539" lon="3.26082">
        <ele>35</ele>
        <time>2023-01-22T08:17:07Z</time>
      </trkpt>
      <trkpt lat="50.34538" lon="3.2608">
        <ele>35</ele>
        <time>2023-01-22T08:17:08Z</time>
      </trkpt>
      <trkpt lat="50.34538" lon="3.26078">
        <ele>34.9</ele>
        <time>2023-01-22T08:17:09Z</time>
      </trkpt>
      <trkpt lat="50.34537" lon="3.26076">
        <ele>30.220654</ele>
        <time>2023-01-22T08:17:10Z</time>
      </trkpt>
      <trkpt lat="50.34536" lon="3.26074">
        <ele>34.9</ele>
        <time>2023-01-22T08:17:11Z</time>
      </trkpt>
      <trkpt lat="50.34535" lon="3.26073">
        <ele>34.9</ele>
        <time>2023-01-22T08:17:12Z</time>
      </trkpt>
      <trkpt lat="50.34535" lon="3.26071">
        <ele>34.9</ele>
        <time>2023-01-22T08:17:13Z</time>
      </trkpt>
      <trkpt lat="50.34534" lon="3.2607">
        <ele>34.9</ele>
        <time>2023-01-22T08:17:14Z</time>
      </trkpt>
      <trkpt lat="50.34533" lon="3.26068">
        <ele>34.9</ele>
        <time>2023-01-22T08:17:15Z</time>
      </trkpt>
      <trkpt lat="50.34533" lon="3.26066">
        <ele>34.9</ele>
        <time>2023-01-22T08:17:16Z</time>
      </trkpt>
      <trkpt lat="50.34531" lon="3.26064">
        <ele>34.9</ele>
        <time>2023-01-22T08:17:17Z</time>
      </trkpt>
      <trkpt lat="50.34531" lon="3.26062">
        <ele>34.9</ele>
        <time>2023-01-22T08:17:18Z</time>
      </trkpt>
      <trkpt lat="50.3453" lon="3.26061">
        <ele>34.9</ele>
        <time>2023-01-22T08:17:19Z</time>
      </trkpt>
      <trkpt lat="50.3453" lon="3.26059">
        <ele>30.130499</ele>
        <time>2023-01-22T08:17:20Z</time>
      </trkpt>
      <trkpt lat="50.34529" lon="3.26057">
        <ele>35</ele>
        <time>2023-01-22T08:17:21Z</time>
      </trkpt>
      <trkpt lat="50.34528" lon="3.26056">
        <ele>35</ele>
        <time>2023-01-22T08:17:22Z</time>
      </trkpt>
      <trkpt lat="50.34527" lon="3.26055">
        <ele>34.9</ele>
        <time>2023-01-22T08:17:23Z</time>
      </trkpt>
      <trkpt lat="50.34526" lon="3.26053">
        <ele>34.9</ele>
        <time>2023-01-22T08:17:24Z</time>
      </trkpt>
      <trkpt lat="50.34525" lon="3.26052">
        <ele>34.8</ele>
        <time>2023-01-22T08:17:25Z</time>
      </trkpt>
      <trkpt lat="50.34524" lon="3.26051">
        <ele>34.7</ele>
        <time>2023-01-22T08:17:26Z</time>
      </trkpt>
      <trkpt lat="50.34523" lon="3.2605">
        <ele>34.7</ele>
        <time>2023-01-22T08:17:27Z</time>
      </trkpt>
      <trkpt lat="50.34522" lon="3.26048">
        <ele>34.6</ele>
        <time>2023-01-22T08:17:28Z</time>
      </trkpt>
      <trkpt lat="50.34521" lon="3.26047">
        <ele>34.6</ele>
        <time>2023-01-22T08:17:29Z</time>
      </trkpt>
      <trkpt lat="50.3452" lon="3.26045">
        <ele>29.919825</ele>
        <time>2023-01-22T08:17:30Z</time>
      </trkpt>
      <trkpt lat="50.34519" lon="3.26044">
        <ele>34.5</ele>
        <time>2023-01-22T08:17:31Z</time>
      </trkpt>
      <trkpt lat="50.34518" lon="3.26042">
        <ele>34.5</ele>
        <time>2023-01-22T08:17:32Z</time>
      </trkpt>
      <trkpt lat="50.34517" lon="3.26041">
        <ele>34.5</ele>
        <time>2023-01-22T08:17:33Z</time>
      </trkpt>
      <trkpt lat="50.34517" lon="3.26039">
        <ele>34.5</ele>
        <time>2023-01-22T08:17:34Z</time>
      </trkpt>
      <trkpt lat="50.34516" lon="3.26038">
        <ele>34.5</ele>
        <time>2023-01-22T08:17:35Z</time>
      </trkpt>
      <trkpt lat="50.34515" lon="3.26037">
        <ele>34.5</ele>
        <time>2023-01-22T08:17:36Z</time>
      </trkpt>
      <trkpt lat="50.34514" lon="3.26035">
        <ele>34.5</ele>
        <time>2023-01-22T08:17:37Z</time>
      </trkpt>
      <trkpt lat="50.34513" lon="3.26033">
        <ele>34.5</ele>
        <time>2023-01-22T08:17:38Z</time>
      </trkpt>
      <trkpt lat="50.34512" lon="3.26032">
        <ele>34.6</ele>
        <time>2023-01-22T08:17:39Z</time>
      </trkpt>
      <trkpt lat="50.3451" lon="3.2603">
        <ele>30.022314</ele>
        <time>2023-01-22T08:17:40Z</time>
      </trkpt>
      <trkpt lat="50.34509" lon="3.26028">
        <ele>34.7</ele>
        <time>2023-01-22T08:17:41Z</time>
      </trkpt>
      <trkpt lat="50.34508" lon="3.26027">
        <ele>34.7</ele>
        <time>2023-01-22T08:17:42Z</time>
      </trkpt>
      <trkpt lat="50.34507" lon="3.26025">
        <ele>34.7</ele>
        <time>2023-01-22T08:17:43Z</time>
      </trkpt>
      <trkpt lat="50.34506" lon="3.26024">
        <ele>34.8</ele>
        <time>2023-01-22T08:17:44Z</time>
      </trkpt>
      <trkpt lat="50.34505" lon="3.26022">
        <ele>34.8</ele>
        <time>2023-01-22T08:17:45Z</time>
      </trkpt>
      <trkpt lat="50.34504" lon="3.2602">
        <ele>34.9</ele>
        <time>2023-01-22T08:17:46Z</time>
      </trkpt>
      <trkpt lat="50.34503" lon="3.26018">
        <ele>34.9</ele>
        <time>2023-01-22T08:17:47Z</time>
      </trkpt>
      <trkpt lat="50.34502" lon="3.26017">
        <ele>34.9</ele>
        <time>2023-01-22T08:17:48Z</time>
      </trkpt>
      <trkpt lat="50.34501" lon="3.26015">
        <ele>35</ele>
        <time>2023-01-22T08:17:49Z</time>
      </trkpt>
      <trkpt lat="50.34501" lon="3.26013">
        <ele>29.85055</ele>
        <time>2023-01-22T08:17:50Z</time>
      </trkpt>
      <trkpt lat="50.345" lon="3.26011">
        <ele>35</ele>
        <time>2023-01-22T08:17:51Z</time>
      </trkpt>
      <trkpt lat="50.34499" lon="3.26009">
        <ele>35</ele>
        <time>2023-01-22T08:17:52Z</time>
      </trkpt>
      <trkpt lat="50.34498" lon="3.26008">
        <ele>35</ele>
        <time>2023-01-22T08:17:53Z</time>
      </trkpt>
      <trkpt lat="50.34496" lon="3.26005">
        <ele>35</ele>
        <time>2023-01-22T08:17:54Z</time>
      </trkpt>
      <trkpt lat="50.34494" lon="3.26004">
        <ele>35</ele>
        <time>2023-01-22T08:17:55Z</time>
      </trkpt>
      <trkpt lat="50.34493" lon="3.26001">
        <ele>35</ele>
        <time>2023-01-22T08:17:56Z</time>
      </trkpt>
      <trkpt lat="50.34493" lon="3.26">
        <ele>35</ele>
        <time>2023-01-22T08:17:57Z</time>
      </trkpt>
      <trkpt lat="50.34491" lon="3.25999">
        <ele>35</ele>
        <time>2023-01-22T08:17:58Z</time>
      </trkpt>
      <trkpt lat="50.34491" lon="3.25997">
        <ele>34.9</ele>
        <time>2023-01-22T08:17:59Z</time>
      </trkpt>
      <trkpt lat="50.3449" lon="3.25995">
        <ele>30.142836</ele>
        <time>2023-01-22T08:18:00Z</time>
      </trkpt>
      <trkpt lat="50.34489" lon="3.25994">
        <ele>34.9</ele>
        <time>2023-01-22T08:18:01Z</time>
      </trkpt>
      <trkpt lat="50.34488" lon="3.25993">
        <ele>34.9</ele>
        <time>2023-01-22T08:18:02Z</time>
      </trkpt>
      <trkpt lat="50.34487" lon="3.25992">
        <ele>34.8</ele>
        <time>2023-01-22T08:18:03Z</time>
      </trkpt>
      <trkpt lat="50.34486" lon="3.2599">
        <ele>34.8</ele>
        <time>2023-01-22T08:18:04Z</time>
      </trkpt>
      <trkpt lat="50.34485" lon="3.25989">
        <ele>34.8</ele>
        <time>2023-01-22T08:18:05Z</time>
      </trkpt>
      <trkpt lat="50.34484" lon="3.25987">
        <ele>34.8</ele>
        <time>2023-01-22T08:18:06Z</time>
      </trkpt>
      <trkpt lat="50.34483" lon="3.25986">
        <ele>34.8</ele>
        <time>2023-01-22T08:18:07Z</time>
      </trkpt>
      <trkpt lat="50.34481" lon="3.25983">
        <ele>34.8</ele>
        <time>2023-01-22T08:18:08Z</time>
      </trkpt>
      <trkpt lat="50.3448" lon="3.25981">
        <ele>34.8</ele>
        <time>2023-01-22T08:18:09Z</time>
      </trkpt>
      <trkpt lat="50.34479" lon="3.2598">
        <ele>30.260511</ele>
        <time>2023-01-22T08:18:10Z</time>
      </trkpt>
      <trkpt lat="50.34478" lon="3.25978">
        <ele>34.8</ele>
        <time>2023-01-22T08:18:11Z</time>
      </trkpt>
      <trkpt lat="50.34477" lon="3.25976">
        <ele>34.8</ele>
        <time>2023-01-22T08:18:12Z</time>
      </trkpt>
      <trkpt lat="50.34477" lon="3.25975">
        <ele>34.9</ele>
        <time>2023-01-22T08:18:13Z</time>
      </trkpt>
      <trkpt lat="50.34476" lon="3.25973">
        <ele>34.9</ele>
        <time>2023-01-22T08:18:14Z</time>
      </trkpt>
      <trkpt lat="50.34475" lon="3.25971">
        <ele>34.9</ele>
        <time>2023-01-22T08:18:15Z</time>
      </trkpt>
      <trkpt lat="50.34474" lon="3.25969">
        <ele>34.9</ele>
        <time>2023-01-22T08:18:16Z</time>
      </trkpt>
      <trkpt lat="50.34474" lon="3.25967">
        <ele>34.9</ele>
        <time>2023-01-22T08:18:17Z</time>
      </trkpt>
      <trkpt lat="50.34473" lon="3.25966">
        <ele>35</ele>
        <time>2023-01-22T08:18:18Z</time>
      </trkpt>
      <trkpt lat="50.34472" lon="3.25965">
        <ele>35</ele>
        <time>2023-01-22T08:18:19Z</time>
      </trkpt>
      <trkpt lat="50.34472" lon="3.25964">
        <ele>30.13809</ele>
        <time>2023-01-22T08:18:20Z</time>
      </trkpt>
      <trkpt lat="50.34471" lon="3.25962">
        <ele>35</ele>
        <time>2023-01-22T08:18:21Z</time>
      </trkpt>
      <trkpt lat="50.3447" lon="3.25961">
        <ele>35</ele>
        <time>2023-01-22T08:18:22Z</time>
      </trkpt>
      <trkpt lat="50.34469" lon="3.25959">
        <ele>35</ele>
        <time>2023-01-22T08:18:23Z</time>
      </trkpt>
      <trkpt lat="50.34468" lon="3.25958">
        <ele>35</ele>
        <time>2023-01-22T08:18:24Z</time>
      </trkpt>
      <trkpt lat="50.34467" lon="3.25957">
        <ele>35</ele>
        <time>2023-01-22T08:18:25Z</time>
      </trkpt>
      <trkpt lat="50.34466" lon="3.25955">
        <ele>35</ele>
        <time>2023-01-22T08:18:26Z</time>
      </trkpt>
      <trkpt lat="50.34465" lon="3.25953">
        <ele>35</ele>
        <time>2023-01-22T08:18:27Z</time>
      </trkpt>
      <trkpt lat="50.34464" lon="3.25952">
        <ele>35</ele>
        <time>2023-01-22T08:18:28Z</time>
      </trkpt>
      <trkpt lat="50.34463" lon="3.2595">
        <ele>35</ele>
        <time>2023-01-22T08:18:29Z</time>
      </trkpt>
      <trkpt lat="50.34462" lon="3.25948">
        <ele>30.0356</ele>
        <time>2023-01-22T08:18:30Z</time>
      </trkpt>
      <trkpt lat="50.3446" lon="3.25946">
        <ele>35</ele>
        <time>2023-01-22T08:18:31Z</time>
      </trkpt>
      <trkpt lat="50.34459" lon="3.25945">
        <ele>35</ele>
        <time>2023-01-22T08:18:32Z</time>
      </trkpt>
      <trkpt lat="50.34458" lon="3.25943">
        <ele>35</ele>
        <time>2023-01-22T08:18:33Z</time>
      </trkpt>
      <trkpt lat="50.34457" lon="3.25941">
        <ele>35</ele>
        <time>2023-01-22T08:18:34Z</time>
      </trkpt>
      <trkpt lat="50.34456" lon="3.25939">
        <ele>35</ele>
        <time>2023-01-22T08:18:35Z</time>
      </trkpt>
      <trkpt lat="50.34456" lon="3.25938">
        <ele>35</ele>
        <time>2023-01-22T08:18:36Z</time>
      </trkpt>
      <trkpt lat="50.34454" lon="3.25937">
        <ele>35</ele>
        <time>2023-01-22T08:18:37Z</time>
      </trkpt>
      <trkpt lat="50.34453" lon="3.25936">
        <ele>35</ele>
        <time>2023-01-22T08:18:38Z</time>
      </trkpt>
      <trkpt lat="50.34452" lon="3.25935">
        <ele>35</ele>
        <time>2023-01-22T08:18:39Z</time>
      </trkpt>
      <trkpt lat="50.34451" lon="3.25934">
        <ele>30.118162</ele>
        <time>2023-01-22T08:18:40Z</time>
      </trkpt>
      <trkpt lat="50.34451" lon="3.25932">
        <ele>35</ele>
        <time>2023-01-22T08:18:41Z</time>
      </trkpt>
      <trkpt lat="50.34449" lon="3.25931">
        <ele>35</ele>
        <time>2023-01-22T08:18:42Z</time>
      </trkpt>
      <trkpt lat="50.34448" lon="3.25929">
        <ele>35</ele>
        <time>2023-01-22T08:18:43Z</time>
      </trkpt>
      <trkpt lat="50.34447" lon="3.25927">
        <ele>35</ele>
        <time>2023-01-22T08:18:44Z</time>
      </trkpt>
      <trkpt lat="50.34446" lon="3.25926">
        <ele>35</ele>
        <time>2023-01-22T08:18:45Z</time>
      </trkpt>
      <trkpt lat="50.34444" lon="3.25925">
        <ele>35</ele>
        <time>2023-01-22T08:18:46Z</time>
      </trkpt>
      <trkpt lat="50.34443" lon="3.25923">
        <ele>35</ele>
        <time>2023-01-22T08:18:47Z</time>
      </trkpt>
      <trkpt lat="50.34443" lon="3.25921">
        <ele>35</ele>
        <time>2023-01-22T08:18:48Z</time>
      </trkpt>
      <trkpt lat="50.34441" lon="3.2592">
        <ele>35</ele>
        <time>2023-01-22T08:18:49Z</time>
      </trkpt>
      <trkpt lat="50.3444" lon="3.25917">
        <ele>30.025162</ele>
        <time>2023-01-22T08:18:50Z</time>
      </trkpt>
      <trkpt lat="50.34438" lon="3.25915">
        <ele>35</ele>
        <time>2023-01-22T08:18:51Z</time>
      </trkpt>
      <trkpt lat="50.34437" lon="3.25913">
        <ele>35</ele>
        <time>2023-01-22T08:18:52Z</time>
      </trkpt>
      <trkpt lat="50.34436" lon="3.25912">
        <ele>35</ele>
        <time>2023-01-22T08:18:53Z</time>
      </trkpt>
      <trkpt lat="50.34435" lon="3.2591">
        <ele>35</ele>
        <time>2023-01-22T08:18:54Z</time>
      </trkpt>
      <trkpt lat="50.34434" lon="3.25909">
        <ele>35</ele>
        <time>2023-01-22T08:18:55Z</time>
      </trkpt>
      <trkpt lat="50.34433" lon="3.25907">
        <ele>35</ele>
        <time>2023-01-22T08:18:56Z</time>
      </trkpt>
      <trkpt lat="50.34432" lon="3.25907">
        <ele>35</ele>
        <time>2023-01-22T08:18:57Z</time>
      </trkpt>
      <trkpt lat="50.34431" lon="3.25905">
        <ele>35</ele>
        <time>2023-01-22T08:18:58Z</time>
      </trkpt>
      <trkpt lat="50.3443" lon="3.25904">
        <ele>35</ele>
        <time>2023-01-22T08:18:59Z</time>
      </trkpt>
      <trkpt lat="50.34429" lon="3.25903">
        <ele>29.990997</ele>
        <time>2023-01-22T08:19:00Z</time>
      </trkpt>
      <trkpt lat="50.34428" lon="3.25902">
        <ele>35</ele>
        <time>2023-01-22T08:19:01Z</time>
      </trkpt>
      <trkpt lat="50.34428" lon="3.25901">
        <ele>35</ele>
        <time>2023-01-22T08:19:02Z</time>
      </trkpt>
      <trkpt lat="50.34426" lon="3.25899">
        <ele>35</ele>
        <time>2023-01-22T08:19:03Z</time>
      </trkpt>
      <trkpt lat="50.34425" lon="3.25897">
        <ele>35</ele>
        <time>2023-01-22T08:19:04Z</time>
      </trkpt>
      <trkpt lat="50.34424" lon="3.25895">
        <ele>35</ele>
        <time>2023-01-22T08:19:05Z</time>
      </trkpt>
      <trkpt lat="50.34423" lon="3.25893">
        <ele>35</ele>
        <time>2023-01-22T08:19:06Z</time>
      </trkpt>
      <trkpt lat="50.34422" lon="3.25892">
        <ele>35</ele>
        <time>2023-01-22T08:19:07Z</time>
      </trkpt>
      <trkpt lat="50.34421" lon="3.25891">
        <ele>35</ele>
        <time>2023-01-22T08:19:08Z</time>
      </trkpt>
      <trkpt lat="50.3442" lon="3.25889">
        <ele>35</ele>
        <time>2023-01-22T08:19:09Z</time>
      </trkpt>
      <trkpt lat="50.34419" lon="3.25888">
        <ele>30.032753</ele>
        <time>2023-01-22T08:19:10Z</time>
      </trkpt>
      <trkpt lat="50.34418" lon="3.25887">
        <ele>35.1</ele>
        <time>2023-01-22T08:19:11Z</time>
      </trkpt>
      <trkpt lat="50.34416" lon="3.25886">
        <ele>35.1</ele>
        <time>2023-01-22T08:19:12Z</time>
      </trkpt>
      <trkpt lat="50.34415" lon="3.25884">
        <ele>35.2</ele>
        <time>2023-01-22T08:19:13Z</time>
      </trkpt>
      <trkpt lat="50.34414" lon="3.25883">
        <ele>35.2</ele>
        <time>2023-01-22T08:19:14Z</time>
      </trkpt>
      <trkpt lat="50.34414" lon="3.25881">
        <ele>35.3</ele>
        <time>2023-01-22T08:19:15Z</time>
      </trkpt>
      <trkpt lat="50.34413" lon="3.25879">
        <ele>35.3</ele>
        <time>2023-01-22T08:19:16Z</time>
      </trkpt>
      <trkpt lat="50.34413" lon="3.25877">
        <ele>35.4</ele>
        <time>2023-01-22T08:19:17Z</time>
      </trkpt>
      <trkpt lat="50.34412" lon="3.25875">
        <ele>35.4</ele>
        <time>2023-01-22T08:19:18Z</time>
      </trkpt>
      <trkpt lat="50.34411" lon="3.25872">
        <ele>35.5</ele>
        <time>2023-01-22T08:19:19Z</time>
      </trkpt>
      <trkpt lat="50.34411" lon="3.2587">
        <ele>29.976763</ele>
        <time>2023-01-22T08:19:20Z</time>
      </trkpt>
      <trkpt lat="50.3441" lon="3.25869">
        <ele>35.5</ele>
        <time>2023-01-22T08:19:21Z</time>
      </trkpt>
      <trkpt lat="50.34409" lon="3.25868">
        <ele>35.5</ele>
        <time>2023-01-22T08:19:22Z</time>
      </trkpt>
      <trkpt lat="50.34408" lon="3.25866">
        <ele>35.6</ele>
        <time>2023-01-22T08:19:23Z</time>
      </trkpt>
      <trkpt lat="50.34407" lon="3.25865">
        <ele>35.6</ele>
        <time>2023-01-22T08:19:24Z</time>
      </trkpt>
      <trkpt lat="50.34407" lon="3.25863">
        <ele>35.6</ele>
        <time>2023-01-22T08:19:25Z</time>
      </trkpt>
      <trkpt lat="50.34407" lon="3.25861">
        <ele>35.6</ele>
        <time>2023-01-22T08:19:26Z</time>
      </trkpt>
      <trkpt lat="50.34407" lon="3.25858">
        <ele>35.6</ele>
        <time>2023-01-22T08:19:27Z</time>
      </trkpt>
      <trkpt lat="50.34406" lon="3.25857">
        <ele>35.6</ele>
        <time>2023-01-22T08:19:28Z</time>
      </trkpt>
      <trkpt lat="50.34406" lon="3.25855">
        <ele>35.6</ele>
        <time>2023-01-22T08:19:29Z</time>
      </trkpt>
      <trkpt lat="50.34406" lon="3.25853">
        <ele>30.116264</ele>
        <time>2023-01-22T08:19:30Z</time>
      </trkpt>
      <trkpt lat="50.34406" lon="3.25852">
        <ele>35.5</ele>
        <time>2023-01-22T08:19:31Z</time>
      </trkpt>
      <trkpt lat="50.34406" lon="3.2585">
        <ele>35.5</ele>
        <time>2023-01-22T08:19:32Z</time>
      </trkpt>
      <trkpt lat="50.34406" lon="3.25848">
        <ele>35.5</ele>
        <time>2023-01-22T08:19:33Z</time>
      </trkpt>
      <trkpt lat="50.34406" lon="3.25846">
        <ele>35.5</ele>
        <time>2023-01-22T08:19:34Z</time>
      </trkpt>
      <trkpt lat="50.34406" lon="3.25844">
        <ele>35.5</ele>
        <time>2023-01-22T08:19:35Z</time>
      </trkpt>
      <trkpt lat="50.34405" lon="3.25841">
        <ele>35.5</ele>
        <time>2023-01-22T08:19:36Z</time>
      </trkpt>
      <trkpt lat="50.34406" lon="3.25839">
        <ele>35.4</ele>
        <time>2023-01-22T08:19:37Z</time>
      </trkpt>
      <trkpt lat="50.34405" lon="3.25837">
        <ele>35.4</ele>
        <time>2023-01-22T08:19:38Z</time>
      </trkpt>
      <trkpt lat="50.34405" lon="3.25835">
        <ele>35.4</ele>
        <time>2023-01-22T08:19:39Z</time>
      </trkpt>
      <trkpt lat="50.34404" lon="3.25833">
        <ele>29.975815</ele>
        <time>2023-01-22T08:19:40Z</time>
      </trkpt>
      <trkpt lat="50.34404" lon="3.2583">
        <ele>35.5</ele>
        <time>2023-01-22T08:19:41Z</time>
      </trkpt>
      <trkpt lat="50.34404" lon="3.25828">
        <ele>35.5</ele>
        <time>2023-01-22T08:19:42Z</time>
      </trkpt>
      <trkpt lat="50.34404" lon="3.25826">
        <ele>35.5</ele>
        <time>2023-01-22T08:19:43Z</time>
      </trkpt>
      <trkpt lat="50.34404" lon="3.25825">
        <ele>35.5</ele>
        <time>2023-01-22T08:19:44Z</time>
      </trkpt>
      <trkpt lat="50.34403" lon="3.25822">
        <ele>35.5</ele>
        <time>2023-01-22T08:19:45Z</time>
      </trkpt>
      <trkpt lat="50.34403" lon="3.2582">
        <ele>35.5</ele>
        <time>2023-01-22T08:19:46Z</time>
      </trkpt>
      <trkpt lat="50.34402" lon="3.25818">
        <ele>35.5</ele>
        <time>2023-01-22T08:19:47Z</time>
      </trkpt>
      <trkpt lat="50.34401" lon="3.25815">
        <ele>35.6</ele>
        <time>2023-01-22T08:19:48Z</time>
      </trkpt>
      <trkpt lat="50.344" lon="3.25813">
        <ele>35.6</ele>
        <time>2023-01-22T08:19:49Z</time>
      </trkpt>
      <trkpt lat="50.34399" lon="3.25811">
        <ele>30.044142</ele>
        <time>2023-01-22T08:19:50Z</time>
      </trkpt>
      <trkpt lat="50.34398" lon="3.25809">
        <ele>35.7</ele>
        <time>2023-01-22T08:19:51Z</time>
      </trkpt>
      <trkpt lat="50.34397" lon="3.25808">
        <ele>35.7</ele>
        <time>2023-01-22T08:19:52Z</time>
      </trkpt>
      <trkpt lat="50.34396" lon="3.25806">
        <ele>35.7</ele>
        <time>2023-01-22T08:19:53Z</time>
      </trkpt>
      <trkpt lat="50.34395" lon="3.25805">
        <ele>35.8</ele>
        <time>2023-01-22T08:19:54Z</time>
      </trkpt>
      <trkpt lat="50.34394" lon="3.25804">
        <ele>35.8</ele>
        <time>2023-01-22T08:19:55Z</time>
      </trkpt>
      <trkpt lat="50.34392" lon="3.25803">
        <ele>35.8</ele>
        <time>2023-01-22T08:19:56Z</time>
      </trkpt>
      <trkpt lat="50.34391" lon="3.25801">
        <ele>35.8</ele>
        <time>2023-01-22T08:19:57Z</time>
      </trkpt>
      <trkpt lat="50.3439" lon="3.258">
        <ele>35.8</ele>
        <time>2023-01-22T08:19:58Z</time>
      </trkpt>
      <trkpt lat="50.34389" lon="3.25798">
        <ele>35.7</ele>
        <time>2023-01-22T08:19:59Z</time>
      </trkpt>
      <trkpt lat="50.34387" lon="3.25797">
        <ele>30.15707</ele>
        <time>2023-01-22T08:20:00Z</time>
      </trkpt>
      <trkpt lat="50.34386" lon="3.25796">
        <ele>35.6</ele>
        <time>2023-01-22T08:20:01Z</time>
      </trkpt>
      <trkpt lat="50.34385" lon="3.25795">
        <ele>35.6</ele>
        <time>2023-01-22T08:20:02Z</time>
      </trkpt>
      <trkpt lat="50.34385" lon="3.25794">
        <ele>35.6</ele>
        <time>2023-01-22T08:20:03Z</time>
      </trkpt>
      <trkpt lat="50.34383" lon="3.25793">
        <ele>35.5</ele>
        <time>2023-01-22T08:20:04Z</time>
      </trkpt>
      <trkpt lat="50.34383" lon="3.25791">
        <ele>35.5</ele>
        <time>2023-01-22T08:20:05Z</time>
      </trkpt>
      <trkpt lat="50.34382" lon="3.2579">
        <ele>35.5</ele>
        <time>2023-01-22T08:20:06Z</time>
      </trkpt>
      <trkpt lat="50.34381" lon="3.25789">
        <ele>35.5</ele>
        <time>2023-01-22T08:20:07Z</time>
      </trkpt>
      <trkpt lat="50.3438" lon="3.25788">
        <ele>35.5</ele>
        <time>2023-01-22T08:20:08Z</time>
      </trkpt>
      <trkpt lat="50.34378" lon="3.25787">
        <ele>35.5</ele>
        <time>2023-01-22T08:20:09Z</time>
      </trkpt>
      <trkpt lat="50.34377" lon="3.25786">
        <ele>30.309858</ele>
        <time>2023-01-22T08:20:10Z</time>
      </trkpt>
      <trkpt lat="50.34376" lon="3.25785">
        <ele>35.5</ele>
        <time>2023-01-22T08:20:11Z</time>
      </trkpt>
      <trkpt lat="50.34375" lon="3.25783">
        <ele>35.5</ele>
        <time>2023-01-22T08:20:12Z</time>
      </trkpt>
      <trkpt lat="50.34374" lon="3.25782">
        <ele>35.5</ele>
        <time>2023-01-22T08:20:13Z</time>
      </trkpt>
      <trkpt lat="50.34372" lon="3.25782">
        <ele>35.6</ele>
        <time>2023-01-22T08:20:14Z</time>
      </trkpt>
      <trkpt lat="50.34371" lon="3.25781">
        <ele>35.6</ele>
        <time>2023-01-22T08:20:15Z</time>
      </trkpt>
      <trkpt lat="50.34369" lon="3.2578">
        <ele>35.7</ele>
        <time>2023-01-22T08:20:16Z</time>
      </trkpt>
      <trkpt lat="50.34367" lon="3.25779">
        <ele>35.8</ele>
        <time>2023-01-22T08:20:17Z</time>
      </trkpt>
      <trkpt lat="50.34367" lon="3.25778">
        <ele>35.8</ele>
        <time>2023-01-22T08:20:18Z</time>
      </trkpt>
      <trkpt lat="50.34366" lon="3.25777">
        <ele>35.8</ele>
        <time>2023-01-22T08:20:19Z</time>
      </trkpt>
      <trkpt lat="50.34365" lon="3.25776">
        <ele>30.29942</ele>
        <time>2023-01-22T08:20:20Z</time>
      </trkpt>
      <trkpt lat="50.34364" lon="3.25775">
        <ele>35.8</ele>
        <time>2023-01-22T08:20:21Z</time>
      </trkpt>
      <trkpt lat="50.34363" lon="3.25774">
        <ele>35.8</ele>
        <time>2023-01-22T08:20:22Z</time>
      </trkpt>
      <trkpt lat="50.34362" lon="3.25773">
        <ele>35.8</ele>
        <time>2023-01-22T08:20:23Z</time>
      </trkpt>
      <trkpt lat="50.34361" lon="3.25772">
        <ele>35.8</ele>
        <time>2023-01-22T08:20:24Z</time>
      </trkpt>
      <trkpt lat="50.3436" lon="3.25771">
        <ele>35.7</ele>
        <time>2023-01-22T08:20:25Z</time>
      </trkpt>
      <trkpt lat="50.34358" lon="3.2577">
        <ele>35.7</ele>
        <time>2023-01-22T08:20:26Z</time>
      </trkpt>
      <trkpt lat="50.34356" lon="3.25769">
        <ele>35.6</ele>
        <time>2023-01-22T08:20:27Z</time>
      </trkpt>
      <trkpt lat="50.34354" lon="3.25768">
        <ele>35.6</ele>
        <time>2023-01-22T08:20:28Z</time>
      </trkpt>
      <trkpt lat="50.34353" lon="3.25767">
        <ele>35.5</ele>
        <time>2023-01-22T08:20:29Z</time>
      </trkpt>
      <trkpt lat="50.34351" lon="3.25766">
        <ele>30.196928</ele>
        <time>2023-01-22T08:20:30Z</time>
      </trkpt>
      <trkpt lat="50.3435" lon="3.25765">
        <ele>35.5</ele>
        <time>2023-01-22T08:20:31Z</time>
      </trkpt>
      <trkpt lat="50.34349" lon="3.25763">
        <ele>35.5</ele>
        <time>2023-01-22T08:20:32Z</time>
      </trkpt>
      <trkpt lat="50.34348" lon="3.25761">
        <ele>35.5</ele>
        <time>2023-01-22T08:20:33Z</time>
      </trkpt>
      <trkpt lat="50.34346" lon="3.2576">
        <ele>35.5</ele>
        <time>2023-01-22T08:20:34Z</time>
      </trkpt>
      <trkpt lat="50.34345" lon="3.25758">
        <ele>35.5</ele>
        <time>2023-01-22T08:20:35Z</time>
      </trkpt>
      <trkpt lat="50.34343" lon="3.25757">
        <ele>35.6</ele>
        <time>2023-01-22T08:20:36Z</time>
      </trkpt>
      <trkpt lat="50.34342" lon="3.25756">
        <ele>35.6</ele>
        <time>2023-01-22T08:20:37Z</time>
      </trkpt>
      <trkpt lat="50.34341" lon="3.25755">
        <ele>35.7</ele>
        <time>2023-01-22T08:20:38Z</time>
      </trkpt>
      <trkpt lat="50.34339" lon="3.25753">
        <ele>35.7</ele>
        <time>2023-01-22T08:20:39Z</time>
      </trkpt>
      <trkpt lat="50.34337" lon="3.25751">
        <ele>30.266205</ele>
        <time>2023-01-22T08:20:40Z</time>
      </trkpt>
      <trkpt lat="50.34335" lon="3.2575">
        <ele>35.9</ele>
        <time>2023-01-22T08:20:41Z</time>
      </trkpt>
      <trkpt lat="50.34334" lon="3.25748">
        <ele>35.9</ele>
        <time>2023-01-22T08:20:42Z</time>
      </trkpt>
      <trkpt lat="50.34333" lon="3.25747">
        <ele>35.9</ele>
        <time>2023-01-22T08:20:43Z</time>
      </trkpt>
      <trkpt lat="50.34332" lon="3.25746">
        <ele>35.8</ele>
        <time>2023-01-22T08:20:44Z</time>
      </trkpt>
      <trkpt lat="50.34331" lon="3.25745">
        <ele>35.8</ele>
        <time>2023-01-22T08:20:45Z</time>
      </trkpt>
      <trkpt lat="50.3433" lon="3.25744">
        <ele>35.7</ele>
        <time>2023-01-22T08:20:46Z</time>
      </trkpt>
      <trkpt lat="50.34329" lon="3.25743">
        <ele>35.7</ele>
        <time>2023-01-22T08:20:47Z</time>
      </trkpt>
      <trkpt lat="50.34328" lon="3.25743">
        <ele>35.6</ele>
        <time>2023-01-22T08:20:48Z</time>
      </trkpt>
      <trkpt lat="50.34327" lon="3.25742">
        <ele>35.6</ele>
        <time>2023-01-22T08:20:49Z</time>
      </trkpt>
      <trkpt lat="50.34326" lon="3.25741">
        <ele>30.207367</ele>
        <time>2023-01-22T08:20:50Z</time>
      </trkpt>
      <trkpt lat="50.34325" lon="3.25741">
        <ele>35.6</ele>
        <time>2023-01-22T08:20:51Z</time>
      </trkpt>
      <trkpt lat="50.34324" lon="3.2574">
        <ele>35.5</ele>
        <time>2023-01-22T08:20:52Z</time>
      </trkpt>
      <trkpt lat="50.34322" lon="3.2574">
        <ele>35.5</ele>
        <time>2023-01-22T08:20:53Z</time>
      </trkpt>
      <trkpt lat="50.34321" lon="3.25739">
        <ele>35.5</ele>
        <time>2023-01-22T08:20:54Z</time>
      </trkpt>
      <trkpt lat="50.3432" lon="3.25738">
        <ele>35.5</ele>
        <time>2023-01-22T08:20:55Z</time>
      </trkpt>
      <trkpt lat="50.3432" lon="3.25738">
        <ele>35.5</ele>
        <time>2023-01-22T08:20:56Z</time>
      </trkpt>
      <trkpt lat="50.34319" lon="3.25737">
        <ele>35.5</ele>
        <time>2023-01-22T08:20:57Z</time>
      </trkpt>
      <trkpt lat="50.34317" lon="3.25736">
        <ele>35.5</ele>
        <time>2023-01-22T08:20:58Z</time>
      </trkpt>
      <trkpt lat="50.34316" lon="3.25735">
        <ele>35.5</ele>
        <time>2023-01-22T08:20:59Z</time>
      </trkpt>
      <trkpt lat="50.34316" lon="3.25734">
        <ele>30.284235</ele>
        <time>2023-01-22T08:21:00Z</time>
      </trkpt>
      <trkpt lat="50.34315" lon="3.25733">
        <ele>35.5</ele>
        <time>2023-01-22T08:21:01Z</time>
      </trkpt>
      <trkpt lat="50.34314" lon="3.25732">
        <ele>35.6</ele>
        <time>2023-01-22T08:21:02Z</time>
      </trkpt>
      <trkpt lat="50.34312" lon="3.25732">
        <ele>35.6</ele>
        <time>2023-01-22T08:21:03Z</time>
      </trkpt>
      <trkpt lat="50.34311" lon="3.25731">
        <ele>35.6</ele>
        <time>2023-01-22T08:21:04Z</time>
      </trkpt>
      <trkpt lat="50.3431" lon="3.25731">
        <ele>35.6</ele>
        <time>2023-01-22T08:21:05Z</time>
      </trkpt>
      <trkpt lat="50.34309" lon="3.25731">
        <ele>35.6</ele>
        <time>2023-01-22T08:21:06Z</time>
      </trkpt>
      <trkpt lat="50.34308" lon="3.25731">
        <ele>35.7</ele>
        <time>2023-01-22T08:21:07Z</time>
      </trkpt>
      <trkpt lat="50.34307" lon="3.25731">
        <ele>35.7</ele>
        <time>2023-01-22T08:21:08Z</time>
      </trkpt>
      <trkpt lat="50.34305" lon="3.2573">
        <ele>35.7</ele>
        <time>2023-01-22T08:21:09Z</time>
      </trkpt>
      <trkpt lat="50.34304" lon="3.2573">
        <ele>30.130499</ele>
        <time>2023-01-22T08:21:10Z</time>
      </trkpt>
      <trkpt lat="50.34301" lon="3.2573">
        <ele>35.7</ele>
        <time>2023-01-22T08:21:11Z</time>
      </trkpt>
      <trkpt lat="50.343" lon="3.25729">
        <ele>35.8</ele>
        <time>2023-01-22T08:21:12Z</time>
      </trkpt>
      <trkpt lat="50.34298" lon="3.25728">
        <ele>35.8</ele>
        <time>2023-01-22T08:21:13Z</time>
      </trkpt>
      <trkpt lat="50.34296" lon="3.25727">
        <ele>35.8</ele>
        <time>2023-01-22T08:21:14Z</time>
      </trkpt>
      <trkpt lat="50.34294" lon="3.25727">
        <ele>35.8</ele>
        <time>2023-01-22T08:21:15Z</time>
      </trkpt>
      <trkpt lat="50.34293" lon="3.25727">
        <ele>35.8</ele>
        <time>2023-01-22T08:21:16Z</time>
      </trkpt>
      <trkpt lat="50.34291" lon="3.25726">
        <ele>35.9</ele>
        <time>2023-01-22T08:21:17Z</time>
      </trkpt>
      <trkpt lat="50.3429" lon="3.25726">
        <ele>35.9</ele>
        <time>2023-01-22T08:21:18Z</time>
      </trkpt>
      <trkpt lat="50.34288" lon="3.25726">
        <ele>35.9</ele>
        <time>2023-01-22T08:21:19Z</time>
      </trkpt>
      <trkpt lat="50.34287" lon="3.25725">
        <ele>30.313654</ele>
        <time>2023-01-22T08:21:20Z</time>
      </trkpt>
      <trkpt lat="50.34286" lon="3.25725">
        <ele>35.9</ele>
        <time>2023-01-22T08:21:21Z</time>
      </trkpt>
      <trkpt lat="50.34285" lon="3.25725">
        <ele>35.9</ele>
        <time>2023-01-22T08:21:22Z</time>
      </trkpt>
      <trkpt lat="50.34284" lon="3.25725">
        <ele>35.9</ele>
        <time>2023-01-22T08:21:23Z</time>
      </trkpt>
      <trkpt lat="50.34283" lon="3.25725">
        <ele>35.9</ele>
        <time>2023-01-22T08:21:24Z</time>
      </trkpt>
      <trkpt lat="50.34282" lon="3.25724">
        <ele>35.9</ele>
        <time>2023-01-22T08:21:25Z</time>
      </trkpt>
      <trkpt lat="50.3428" lon="3.25724">
        <ele>35.9</ele>
        <time>2023-01-22T08:21:26Z</time>
      </trkpt>
      <trkpt lat="50.34279" lon="3.25723">
        <ele>36</ele>
        <time>2023-01-22T08:21:27Z</time>
      </trkpt>
      <trkpt lat="50.34277" lon="3.25721">
        <ele>36</ele>
        <time>2023-01-22T08:21:28Z</time>
      </trkpt>
      <trkpt lat="50.34276" lon="3.2572">
        <ele>36</ele>
        <time>2023-01-22T08:21:29Z</time>
      </trkpt>
      <trkpt lat="50.34275" lon="3.25719">
        <ele>30.46929</ele>
        <time>2023-01-22T08:21:30Z</time>
      </trkpt>
      <trkpt lat="50.34273" lon="3.2572">
        <ele>36</ele>
        <time>2023-01-22T08:21:31Z</time>
      </trkpt>
      <trkpt lat="50.34272" lon="3.2572">
        <ele>36</ele>
        <time>2023-01-22T08:21:32Z</time>
      </trkpt>
      <trkpt lat="50.3427" lon="3.2572">
        <ele>36</ele>
        <time>2023-01-22T08:21:33Z</time>
      </trkpt>
      <trkpt lat="50.34268" lon="3.2572">
        <ele>36</ele>
        <time>2023-01-22T08:21:34Z</time>
      </trkpt>
      <trkpt lat="50.34266" lon="3.25721">
        <ele>36</ele>
        <time>2023-01-22T08:21:35Z</time>
      </trkpt>
      <trkpt lat="50.34264" lon="3.25721">
        <ele>36</ele>
        <time>2023-01-22T08:21:36Z</time>
      </trkpt>
      <trkpt lat="50.34263" lon="3.25722">
        <ele>36</ele>
        <time>2023-01-22T08:21:37Z</time>
      </trkpt>
      <trkpt lat="50.34263" lon="3.25722">
        <ele>36</ele>
        <time>2023-01-22T08:21:38Z</time>
      </trkpt>
      <trkpt lat="50.34262" lon="3.25722">
        <ele>36</ele>
        <time>2023-01-22T08:21:39Z</time>
        <extensions>
          <gpxtpx:TrackPointExtension xmlns:gpxtpx="http://www.garmin.com/xmlschemas/TrackPointExtension/v1">
            <gpxtpx:hr>140</gpxtpx:hr>
          </gpxtpx:TrackPointExtension>
        </extensions>
      </trkpt>
      <trkpt lat="50.34262" lon="3.25723">
        <ele>30.68946</ele>
        <time>2023-01-22T08:21:40Z</time>
      </trkpt>
      <trkpt lat="50.34261" lon="3.25723">
        <ele>36</ele>
        <time>2023-01-22T08:21:41Z</time>
      </trkpt>
      <trkpt lat="50.34261" lon="3.25724">
        <ele>35.9</ele>
        <time>2023-01-22T08:21:42Z</time>
      </trkpt>
      <trkpt lat="50.34261" lon="3.25724">
        <ele>35.9</ele>
        <time>2023-01-22T08:21:43Z</time>
      </trkpt>
      <trkpt lat="50.34261" lon="3.25724">
        <ele>35.9</ele>
        <time>2023-01-22T08:21:44Z</time>
      </trkpt>
      <trkpt lat="50.34261" lon="3.25724">
        <ele>35.9</ele>
        <time>2023-01-22T08:21:45Z</time>
      </trkpt>
      <trkpt lat="50.34261" lon="3.25724">
        <ele>35.9</ele>
        <time>2023-01-22T08:21:46Z</time>
      </trkpt>
      <trkpt lat="50.3426" lon="3.25724">
        <ele>35.9</ele>
        <time>2023-01-22T08:21:47Z</time>
      </trkpt>
      <trkpt lat="50.3426" lon="3.25725">
        <ele>35.9</ele>
        <time>2023-01-22T08:21:48Z</time>
      </trkpt>
      <trkpt lat="50.3426" lon="3.25725">
        <ele>35.9</ele>
        <time>2023-01-22T08:21:49Z</time>
      </trkpt>
      <trkpt lat="50.3426" lon="3.25725">
        <ele>30.666683</ele>
        <time>2023-01-22T08:21:50Z</time>
      </trkpt>
      <trkpt lat="50.34261" lon="3.25725">
        <ele>35.9</ele>
        <time>2023-01-22T08:21:51Z</time>
      </trkpt>
      <trkpt lat="50.34261" lon="3.25725">
        <ele>35.9</ele>
        <time>2023-01-22T08:21:52Z</time>
      </trkpt>
      <trkpt lat="50.34261" lon="3.25725">
        <ele>35.9</ele>
        <time>2023-01-22T08:21:53Z</time>
      </trkpt>
      <trkpt lat="50.34261" lon="3.25724">
        <ele>35.9</ele>
        <time>2023-01-22T08:21:54Z</time>
      </trkpt>
      <trkpt lat="50.34261" lon="3.25724">
        <ele>35.9</ele>
        <time>2023-01-22T08:21:55Z</time>
      </trkpt>
      <trkpt lat="50.34261" lon="3.25724">
        <ele>35.9</ele>
        <time>2023-01-22T08:21:56Z</time>
      </trkpt>
      <trkpt lat="50.34261" lon="3.25724">
        <ele>35.9</ele>
        <time>2023-01-22T08:21:57Z</time>
      </trkpt>
      <trkpt lat="50.34261" lon="3.25724">
        <ele>35.9</ele>
        <time>2023-01-22T08:21:58Z</time>
      </trkpt>
      <trkpt lat="50.34261" lon="3.25724">
        <ele>35.9</ele>
        <time>2023-01-22T08:21:59Z</time>
        <extensions>
          <gpxtpx:TrackPointExtension xmlns:gpxtpx="http://www.garmin.com/xmlschemas/TrackPointExtension/v1">
            <gpxtpx:hr>125</gpxtpx:hr>
          </gpxtpx:TrackPointExtension>
        </extensions>
      </trkpt>
      <trkpt lat="50.34261" lon="3.25725">
        <ele>30.616386</ele>
        <time>2023-01-22T08:22:00Z</time>
      </trkpt>
      <trkpt lat="50.34261" lon="3.25725">
        <ele>35.9</ele>
        <time>2023-01-22T08:22:01Z</time>
      </trkpt>
      <trkpt lat="50.34261" lon="3.25725">
        <ele>35.9</ele>
        <time>2023-01-22T08:22:02Z</time>
      </trkpt>
      <trkpt lat="50.34261" lon="3.25725">
        <ele>35.9</ele>
        <time>2023-01-22T08:22:03Z</time>
      </trkpt>
      <trkpt lat="50.34261" lon="3.25725">
        <ele>35.9</ele>
        <time>2023-01-22T08:22:04Z</time>
      </trkpt>
      <trkpt lat="50.34261" lon="3.25725">
        <ele>35.9</ele>
        <time>2023-01-22T08:22:05Z</time>
      </trkpt>
      <trkpt lat="50.34261" lon="3.25725">
        <ele>35.9</ele>
        <time>2023-01-22T08:22:06Z</time>
      </trkpt>
      <trkpt lat="50.34261" lon="3.25725">
        <ele>35.9</ele>
        <time>2023-01-22T08:22:07Z</time>
      </trkpt>
      <trkpt lat="50.34262" lon="3.25725">
        <ele>35.9</ele>
        <time>2023-01-22T08:22:08Z</time>
      </trkpt>
      <trkpt lat="50.34262" lon="3.25725">
        <ele>35.9</ele>
        <time>2023-01-22T08:22:09Z</time>
      </trkpt>
      <trkpt lat="50.34262" lon="3.25725">
        <ele>30.542364</ele>
        <time>2023-01-22T08:22:10Z</time>
      </trkpt>
      <trkpt lat="50.34263" lon="3.25726">
        <ele>35.9</ele>
        <time>2023-01-22T08:22:11Z</time>
      </trkpt>
      <trkpt lat="50.34263" lon="3.25726">
        <ele>35.9</ele>
        <time>2023-01-22T08:22:12Z</time>
      </trkpt>
      <trkpt lat="50.34263" lon="3.25726">
        <ele>35.9</ele>
        <time>2023-01-22T08:22:13Z</time>
      </trkpt>
      <trkpt lat="50.34263" lon="3.25726">
        <ele>35.9</ele>
        <time>2023-01-22T08:22:14Z</time>
      </trkpt>
      <trkpt lat="50.34263" lon="3.25726">
        <ele>35.9</ele>
        <time>2023-01-22T08:22:15Z</time>
      </trkpt>
      <trkpt lat="50.34263" lon="3.25726">
        <ele>35.9</ele>
        <time>2023-01-22T08:22:16Z</time>
      </trkpt>
      <trkpt lat="50.34263" lon="3.25726">
        <ele>35.9</ele>
        <time>2023-01-22T08:22:17Z</time>
      </trkpt>
      <trkpt lat="50.34263" lon="3.25726">
        <ele>35.9</ele>
        <time>2023-01-22T08:22:18Z</time>
      </trkpt>
      <trkpt lat="50.34263" lon="3.25726">
        <ele>35.9</ele>
        <time>2023-01-22T08:22:19Z</time>
      </trkpt>
      <trkpt lat="50.34263" lon="3.25726">
        <ele>30.609743</ele>
        <time>2023-01-22T08:22:20Z</time>
      </trkpt>
      <trkpt lat="50.34263" lon="3.25726">
        <ele>35.9</ele>
        <time>2023-01-22T08:22:21Z</time>
      </trkpt>
      <trkpt lat="50.34263" lon="3.25726">
        <ele>35.9</ele>
        <time>2023-01-22T08:22:22Z</time>
      </trkpt>
      <trkpt lat="50.34263" lon="3.25726">
        <ele>35.9</ele>
        <time>2023-01-22T08:22:23Z</time>
      </trkpt>
      <trkpt lat="50.34263" lon="3.25726">
        <ele>35.9</ele>
        <time>2023-01-22T08:22:24Z</time>
      </trkpt>
      <trkpt lat="50.34263" lon="3.25726">
        <ele>35.9</ele>
        <time>2023-01-22T08:22:25Z</time>
      </trkpt>
      <trkpt lat="50.34263" lon="3.25726">
        <ele>35.9</ele>
        <time>2023-01-22T08:22:26Z</time>
      </trkpt>
      <trkpt lat="50.34263" lon="3.25726">
        <ele>35.9</ele>
        <time>2023-01-22T08:22:27Z</time>
      </trkpt>
      <trkpt lat="50.34263" lon="3.25726">
        <ele>35.9</ele>
        <time>2023-01-22T08:22:28Z</time>
      </trkpt>
      <trkpt lat="50.34263" lon="3.25726">
        <ele>35.9</ele>
        <time>2023-01-22T08:22:29Z</time>
      </trkpt>
      <trkpt lat="50.34263" lon="3.25726">
        <ele>30.662888</ele>
        <time>2023-01-22T08:22:30Z</time>
      </trkpt>
      <trkpt lat="50.34263" lon="3.25726">
        <ele>35.8</ele>
        <time>2023-01-22T08:22:31Z</time>
      </trkpt>
      <trkpt lat="50.34263" lon="3.25726">
        <ele>35.8</ele>
        <time>2023-01-22T08:22:32Z</time>
      </trkpt>
      <trkpt lat="50.34263" lon="3.25727">
        <ele>35.8</ele>
        <time>2023-01-22T08:22:33Z</time>
      </trkpt>
      <trkpt lat="50.34263" lon="3.25727">
        <ele>35.8</ele>
        <time>2023-01-22T08:22:34Z</time>
      </trkpt>
      <trkpt lat="50.34263" lon="3.25727">
        <ele>35.8</ele>
        <time>2023-01-22T08:22:35Z</time>
      </trkpt>
      <trkpt lat="50.34263" lon="3.25727">
        <ele>35.8</ele>
        <time>2023-01-22T08:22:36Z</time>
      </trkpt>
      <trkpt lat="50.34263" lon="3.25726">
        <ele>35.8</ele>
        <time>2023-01-22T08:22:37Z</time>
      </trkpt>
      <trkpt lat="50.34263" lon="3.25726">
        <ele>35.9</ele>
        <time>2023-01-22T08:22:38Z</time>
      </trkpt>
      <trkpt lat="50.34263" lon="3.25726">
        <ele>35.9</ele>
        <time>2023-01-22T08:22:39Z</time>
      </trkpt>
      <trkpt lat="50.34263" lon="3.25726">
        <ele>30.68946</ele>
        <time>2023-01-22T08:22:40Z</time>
      </trkpt>
      <trkpt lat="50.34263" lon="3.25726">
        <ele>35.9</ele>
        <time>2023-01-22T08:22:41Z</time>
      </trkpt>
      <trkpt lat="50.34263" lon="3.25726">
        <ele>35.9</ele>
        <time>2023-01-22T08:22:42Z</time>
      </trkpt>
      <trkpt lat="50.34263" lon="3.25726">
        <ele>35.9</ele>
        <time>2023-01-22T08:22:43Z</time>
      </trkpt>
      <trkpt lat="50.34263" lon="3.25726">
        <ele>35.9</ele>
        <time>2023-01-22T08:22:44Z</time>
      </trkpt>
      <trkpt lat="50.34263" lon="3.25725">
        <ele>35.9</ele>
        <time>2023-01-22T08:22:45Z</time>
      </trkpt>
      <trkpt lat="50.34263" lon="3.25726">
        <ele>35.9</ele>
        <time>2023-01-22T08:22:46Z</time>
      </trkpt>
      <trkpt lat="50.34263" lon="3.25726">
        <ele>35.9</ele>
        <time>2023-01-22T08:22:47Z</time>
      </trkpt>
      <trkpt lat="50.34263" lon="3.25726">
        <ele>35.9</ele>
        <time>2023-01-22T08:22:48Z</time>
      </trkpt>
      <trkpt lat="50.34263" lon="3.25726">
        <ele>35.9</ele>
        <time>2023-01-22T08:22:49Z</time>
      </trkpt>
      <trkpt lat="50.34263" lon="3.25726">
        <ele>30.781515</ele>
        <time>2023-01-22T08:22:50Z</time>
      </trkpt>
      <trkpt lat="50.34263" lon="3.25726">
        <ele>35.9</ele>
        <time>2023-01-22T08:22:51Z</time>
      </trkpt>
      <trkpt lat="50.34263" lon="3.25726">
        <ele>35.9</ele>
        <time>2023-01-22T08:22:52Z</time>
      </trkpt>
      <trkpt lat="50.34263" lon="3.25726">
        <ele>35.9</ele>
        <time>2023-01-22T08:22:53Z</time>
      </trkpt>
      <trkpt lat="50.34263" lon="3.25726">
        <ele>35.9</ele>
        <time>2023-01-22T08:22:54Z</time>
      </trkpt>
      <trkpt lat="50.34263" lon="3.25726">
        <ele>35.9</ele>
        <time>2023-01-22T08:22:55Z</time>
      </trkpt>
      <trkpt lat="50.34263" lon="3.25726">
        <ele>35.8</ele>
        <time>2023-01-22T08:22:56Z</time>
      </trkpt>
      <trkpt lat="50.34263" lon="3.25727">
        <ele>35.8</ele>
        <time>2023-01-22T08:22:57Z</time>
      </trkpt>
      <trkpt lat="50.34264" lon="3.25728">
        <ele>35.8</ele>
        <time>2023-01-22T08:22:58Z</time>
      </trkpt>
      <trkpt lat="50.34264" lon="3.25728">
        <ele>35.8</ele>
        <time>2023-01-22T08:22:59Z</time>
        <extensions>
          <gpxtpx:TrackPointExtension xmlns:gpxtpx="http://www.garmin.com/xmlschemas/TrackPointExtension/v1">
            <gpxtpx:hr>125</gpxtpx:hr>
          </gpxtpx:TrackPointExtension>
        </extensions>
      </trkpt>
      <trkpt lat="50.34264" lon="3.25728">
        <ele>30.720778</ele>
        <time>2023-01-22T08:23:00Z</time>
      </trkpt>
      <trkpt lat="50.34264" lon="3.25728">
        <ele>35.8</ele>
        <time>2023-01-22T08:23:01Z</time>
      </trkpt>
      <trkpt lat="50.34264" lon="3.25727">
        <ele>35.8</ele>
        <time>2023-01-22T08:23:02Z</time>
      </trkpt>
      <trkpt lat="50.34264" lon="3.25727">
        <ele>35.8</ele>
        <time>2023-01-22T08:23:03Z</time>
      </trkpt>
      <trkpt lat="50.34264" lon="3.25727">
        <ele>35.8</ele>
        <time>2023-01-22T08:23:04Z</time>
      </trkpt>
      <trkpt lat="50.34264" lon="3.25727">
        <ele>35.8</ele>
        <time>2023-01-22T08:23:05Z</time>
      </trkpt>
      <trkpt lat="50.34264" lon="3.25727">
        <ele>35.8</ele>
        <time>2023-01-22T08:23:06Z</time>
      </trkpt>
      <trkpt lat="50.34264" lon="3.25727">
        <ele>35.8</ele>
        <time>2023-01-22T08:23:07Z</time>
      </trkpt>
      <trkpt lat="50.34264" lon="3.25727">
        <ele>35.8</ele>
        <time>2023-01-22T08:23:08Z</time>
      </trkpt>
      <trkpt lat="50.34264" lon="3.25727">
        <ele>35.8</ele>
        <time>2023-01-22T08:23:09Z</time>
      </trkpt>
      <trkpt lat="50.34264" lon="3.25727">
        <ele>30.706543</ele>
        <time>2023-01-22T08:23:10Z</time>
      </trkpt>
      <trkpt lat="50.34264" lon="3.25727">
        <ele>35.8</ele>
        <time>2023-01-22T08:23:11Z</time>
      </trkpt>
      <trkpt lat="50.34264" lon="3.25727">
        <ele>35.8</ele>
        <time>2023-01-22T08:23:12Z</time>
      </trkpt>
      <trkpt lat="50.34264" lon="3.25727">
        <ele>35.8</ele>
        <time>2023-01-22T08:23:13Z</time>
      </trkpt>
      <trkpt lat="50.34264" lon="3.25727">
        <ele>35.8</ele>
        <time>2023-01-22T08:23:14Z</time>
      </trkpt>
      <trkpt lat="50.34264" lon="3.25727">
        <ele>35.8</ele>
        <time>2023-01-22T08:23:15Z</time>
      </trkpt>
      <trkpt lat="50.34264" lon="3.25727">
        <ele>35.8</ele>
        <time>2023-01-22T08:23:16Z</time>
      </trkpt>
      <trkpt lat="50.34264" lon="3.25727">
        <ele>35.8</ele>
        <time>2023-01-22T08:23:17Z</time>
      </trkpt>
      <trkpt lat="50.34264" lon="3.25727">
        <ele>35.8</ele>
        <time>2023-01-22T08:23:18Z</time>
      </trkpt>
      <trkpt lat="50.34265" lon="3.25727">
        <ele>35.8</ele>
        <time>2023-01-22T08:23:19Z</time>
      </trkpt>
      <trkpt lat="50.34265" lon="3.25727">
        <ele>30.734064</ele>
        <time>2023-01-22T08:23:20Z</time>
      </trkpt>
      <trkpt lat="50.34265" lon="3.25727">
        <ele>35.8</ele>
        <time>2023-01-22T08:23:21Z</time>
      </trkpt>
      <trkpt lat="50.34265" lon="3.25727">
        <ele>35.8</ele>
        <time>2023-01-22T08:23:22Z</time>
      </trkpt>
      <trkpt lat="50.34265" lon="3.25727">
        <ele>35.8</ele>
        <time>2023-01-22T08:23:23Z</time>
      </trkpt>
      <trkpt lat="50.34265" lon="3.25727">
        <ele>35.8</ele>
        <time>2023-01-22T08:23:24Z</time>
      </trkpt>
      <trkpt lat="50.34264" lon="3.25726">
        <ele>35.9</ele>
        <time>2023-01-22T08:23:25Z</time>
      </trkpt>
      <trkpt lat="50.34264" lon="3.25726">
        <ele>35.9</ele>
        <time>2023-01-22T08:23:26Z</time>
      </trkpt>
      <trkpt lat="50.34264" lon="3.25726">
        <ele>35.9</ele>
        <time>2023-01-22T08:23:27Z</time>
      </trkpt>
      <trkpt lat="50.34264" lon="3.25726">
        <ele>35.9</ele>
        <time>2023-01-22T08:23:28Z</time>
      </trkpt>
      <trkpt lat="50.34264" lon="3.25726">
        <ele>35.9</ele>
        <time>2023-01-22T08:23:29Z</time>
      </trkpt>
      <trkpt lat="50.34264" lon="3.25726">
        <ele>30.600254</ele>
        <time>2023-01-22T08:23:30Z</time>
      </trkpt>
      <trkpt lat="50.34264" lon="3.25726">
        <ele>35.9</ele>
        <time>2023-01-22T08:23:31Z</time>
      </trkpt>
      <trkpt lat="50.34264" lon="3.25726">
        <ele>35.9</ele>
        <time>2023-01-22T08:23:32Z</time>
      </trkpt>
      <trkpt lat="50.34264" lon="3.25726">
        <ele>35.9</ele>
        <time>2023-01-22T08:23:33Z</time>
      </trkpt>
      <trkpt lat="50.34264" lon="3.25725">
        <ele>35.9</ele>
        <time>2023-01-22T08:23:34Z</time>
      </trkpt>
      <trkpt lat="50.34264" lon="3.25723">
        <ele>36</ele>
        <time>2023-01-22T08:23:35Z</time>
      </trkpt>
      <trkpt lat="50.34264" lon="3.25722">
        <ele>36</ele>
        <time>2023-01-22T08:23:36Z</time>
      </trkpt>
      <trkpt lat="50.34265" lon="3.2572">
        <ele>36</ele>
        <time>2023-01-22T08:23:37Z</time>
      </trkpt>
      <trkpt lat="50.34266" lon="3.25719">
        <ele>36</ele>
        <time>2023-01-22T08:23:38Z</time>
      </trkpt>
      <trkpt lat="50.34267" lon="3.25718">
        <ele>36</ele>
        <time>2023-01-22T08:23:39Z</time>
      </trkpt>
      <trkpt lat="50.34267" lon="3.25717">
        <ele>31.017822</ele>
        <time>2023-01-22T08:23:40Z</time>
      </trkpt>
      <trkpt lat="50.34269" lon="3.25715">
        <ele>36</ele>
        <time>2023-01-22T08:23:41Z</time>
      </trkpt>
      <trkpt lat="50.34269" lon="3.25714">
        <ele>36</ele>
        <time>2023-01-22T08:23:42Z</time>
      </trkpt>
      <trkpt lat="50.3427" lon="3.25713">
        <ele>36</ele>
        <time>2023-01-22T08:23:43Z</time>
      </trkpt>
      <trkpt lat="50.34271" lon="3.25712">
        <ele>36</ele>
        <time>2023-01-22T08:23:44Z</time>
      </trkpt>
      <trkpt lat="50.34271" lon="3.2571">
        <ele>31.026363</ele>
        <time>2023-01-22T08:23:45Z</time>
      </trkpt>
      <trkpt lat="50.34272" lon="3.25708">
        <ele>36</ele>
        <time>2023-01-22T08:23:46Z</time>
      </trkpt>
      <trkpt lat="50.34274" lon="3.25705">
        <ele>36</ele>
        <time>2023-01-22T08:23:47Z</time>
      </trkpt>
      <trkpt lat="50.34275" lon="3.25703">
        <ele>36</ele>
        <time>2023-01-22T08:23:48Z</time>
      </trkpt>
      <trkpt lat="50.34276" lon="3.257">
        <ele>36</ele>
        <time>2023-01-22T08:23:49Z</time>
      </trkpt>
      <trkpt lat="50.34277" lon="3.25698">
        <ele>30.77677</ele>
        <time>2023-01-22T08:23:50Z</time>
      </trkpt>
      <trkpt lat="50.34277" lon="3.25696">
        <ele>36</ele>
        <time>2023-01-22T08:23:51Z</time>
      </trkpt>
      <trkpt lat="50.34278" lon="3.25696">
        <ele>36</ele>
        <time>2023-01-22T08:23:52Z</time>
      </trkpt>
      <trkpt lat="50.3428" lon="3.25696">
        <ele>35.9</ele>
        <time>2023-01-22T08:23:53Z</time>
      </trkpt>
      <trkpt lat="50.34281" lon="3.25697">
        <ele>35.9</ele>
        <time>2023-01-22T08:23:54Z</time>
      </trkpt>
      <trkpt lat="50.34283" lon="3.25698">
        <ele>35.8</ele>
        <time>2023-01-22T08:23:55Z</time>
      </trkpt>
      <trkpt lat="50.34284" lon="3.25699">
        <ele>35.8</ele>
        <time>2023-01-22T08:23:56Z</time>
      </trkpt>
      <trkpt lat="50.34285" lon="3.25699">
        <ele>35.8</ele>
        <time>2023-01-22T08:23:57Z</time>
      </trkpt>
      <trkpt lat="50.34287" lon="3.25699">
        <ele>35.7</ele>
        <time>2023-01-22T08:23:58Z</time>
      </trkpt>
      <trkpt lat="50.34288" lon="3.257">
        <ele>35.7</ele>
        <time>2023-01-22T08:23:59Z</time>
      </trkpt>
      <trkpt lat="50.34288" lon="3.25701">
        <ele>30.207367</ele>
        <time>2023-01-22T08:24:00Z</time>
      </trkpt>
      <trkpt lat="50.3429" lon="3.25702">
        <ele>35.7</ele>
        <time>2023-01-22T08:24:01Z</time>
      </trkpt>
      <trkpt lat="50.34291" lon="3.25702">
        <ele>35.7</ele>
        <time>2023-01-22T08:24:02Z</time>
      </trkpt>
      <trkpt lat="50.34292" lon="3.25703">
        <ele>35.6</ele>
        <time>2023-01-22T08:24:03Z</time>
      </trkpt>
      <trkpt lat="50.34293" lon="3.25704">
        <ele>35.6</ele>
        <time>2023-01-22T08:24:04Z</time>
      </trkpt>
      <trkpt lat="50.34295" lon="3.25705">
        <ele>35.6</ele>
        <time>2023-01-22T08:24:05Z</time>
      </trkpt>
      <trkpt lat="50.34296" lon="3.25706">
        <ele>35.6</ele>
        <time>2023-01-22T08:24:06Z</time>
      </trkpt>
      <trkpt lat="50.34297" lon="3.25706">
        <ele>35.6</ele>
        <time>2023-01-22T08:24:07Z</time>
      </trkpt>
      <trkpt lat="50.34299" lon="3.25708">
        <ele>35.6</ele>
        <time>2023-01-22T08:24:08Z</time>
      </trkpt>
      <trkpt lat="50.343" lon="3.25709">
        <ele>35.6</ele>
        <time>2023-01-22T08:24:09Z</time>
      </trkpt>
      <trkpt lat="50.34302" lon="3.2571">
        <ele>29.973917</ele>
        <time>2023-01-22T08:24:10Z</time>
      </trkpt>
      <trkpt lat="50.34303" lon="3.25711">
        <ele>35.6</ele>
        <time>2023-01-22T08:24:11Z</time>
      </trkpt>
      <trkpt lat="50.34305" lon="3.25712">
        <ele>35.6</ele>
        <time>2023-01-22T08:24:12Z</time>
      </trkpt>
      <trkpt lat="50.34306" lon="3.25713">
        <ele>35.6</ele>
        <time>2023-01-22T08:24:13Z</time>
      </trkpt>
      <trkpt lat="50.34308" lon="3.25713">
        <ele>35.6</ele>
        <time>2023-01-22T08:24:14Z</time>
      </trkpt>
      <trkpt lat="50.34309" lon="3.25714">
        <ele>35.6</ele>
        <time>2023-01-22T08:24:15Z</time>
      </trkpt>
      <trkpt lat="50.34311" lon="3.25714">
        <ele>35.6</ele>
        <time>2023-01-22T08:24:16Z</time>
      </trkpt>
      <trkpt lat="50.34312" lon="3.25714">
        <ele>35.6</ele>
        <time>2023-01-22T08:24:17Z</time>
      </trkpt>
      <trkpt lat="50.34312" lon="3.25714">
        <ele>35.5</ele>
        <time>2023-01-22T08:24:18Z</time>
      </trkpt>
      <trkpt lat="50.34314" lon="3.25714">
        <ele>35.5</ele>
        <time>2023-01-22T08:24:19Z</time>
      </trkpt>
      <trkpt lat="50.34314" lon="3.25715">
        <ele>29.671194</ele>
        <time>2023-01-22T08:24:20Z</time>
      </trkpt>
      <trkpt lat="50.34316" lon="3.25714">
        <ele>35.4</ele>
        <time>2023-01-22T08:24:21Z</time>
      </trkpt>
      <trkpt lat="50.34317" lon="3.25714">
        <ele>35.4</ele>
        <time>2023-01-22T08:24:22Z</time>
      </trkpt>
      <trkpt lat="50.34318" lon="3.25714">
        <ele>35.4</ele>
        <time>2023-01-22T08:24:23Z</time>
      </trkpt>
      <trkpt lat="50.34319" lon="3.25713">
        <ele>35.3</ele>
        <time>2023-01-22T08:24:24Z</time>
      </trkpt>
      <trkpt lat="50.34321" lon="3.25713">
        <ele>35.3</ele>
        <time>2023-01-22T08:24:25Z</time>
      </trkpt>
      <trkpt lat="50.34322" lon="3.25713">
        <ele>35.3</ele>
        <time>2023-01-22T08:24:26Z</time>
      </trkpt>
      <trkpt lat="50.34324" lon="3.25713">
        <ele>35.2</ele>
        <time>2023-01-22T08:24:27Z</time>
      </trkpt>
      <trkpt lat="50.34326" lon="3.25713">
        <ele>35.2</ele>
        <time>2023-01-22T08:24:28Z</time>
      </trkpt>
      <trkpt lat="50.34328" lon="3.25712">
        <ele>35.1</ele>
        <time>2023-01-22T08:24:29Z</time>
      </trkpt>
      <trkpt lat="50.3433" lon="3.25712">
        <ele>29.808794</ele>
        <time>2023-01-22T08:24:30Z</time>
      </trkpt>
      <trkpt lat="50.3433" lon="3.25712">
        <ele>35.1</ele>
        <time>2023-01-22T08:24:31Z</time>
      </trkpt>
      <trkpt lat="50.34332" lon="3.25712">
        <ele>35</ele>
        <time>2023-01-22T08:24:32Z</time>
      </trkpt>
      <trkpt lat="50.34333" lon="3.25712">
        <ele>35</ele>
        <time>2023-01-22T08:24:33Z</time>
      </trkpt>
      <trkpt lat="50.34335" lon="3.25712">
        <ele>35</ele>
        <time>2023-01-22T08:24:34Z</time>
      </trkpt>
      <trkpt lat="50.34337" lon="3.25712">
        <ele>35</ele>
        <time>2023-01-22T08:24:35Z</time>
      </trkpt>
      <trkpt lat="50.34339" lon="3.25712">
        <ele>35</ele>
        <time>2023-01-22T08:24:36Z</time>
      </trkpt>
      <trkpt lat="50.34341" lon="3.25712">
        <ele>35</ele>
        <time>2023-01-22T08:24:37Z</time>
      </trkpt>
      <trkpt lat="50.34342" lon="3.25712">
        <ele>35</ele>
        <time>2023-01-22T08:24:38Z</time>
      </trkpt>
      <trkpt lat="50.34343" lon="3.25711">
        <ele>35</ele>
        <time>2023-01-22T08:24:39Z</time>
      </trkpt>
      <trkpt lat="50.34345" lon="3.25711">
        <ele>29.707254</ele>
        <time>2023-01-22T08:24:40Z</time>
      </trkpt>
      <trkpt lat="50.34345" lon="3.2571">
        <ele>35</ele>
        <time>2023-01-22T08:24:41Z</time>
      </trkpt>
      <trkpt lat="50.34345" lon="3.25709">
        <ele>35</ele>
        <time>2023-01-22T08:24:42Z</time>
      </trkpt>
      <trkpt lat="50.34345" lon="3.25708">
        <ele>35</ele>
        <time>2023-01-22T08:24:43Z</time>
      </trkpt>
      <trkpt lat="50.34346" lon="3.25707">
        <ele>35</ele>
        <time>2023-01-22T08:24:44Z</time>
      </trkpt>
      <trkpt lat="50.34347" lon="3.25706">
        <ele>35</ele>
        <time>2023-01-22T08:24:45Z</time>
      </trkpt>
      <trkpt lat="50.34348" lon="3.25704">
        <ele>35</ele>
        <time>2023-01-22T08:24:46Z</time>
      </trkpt>
      <trkpt lat="50.34348" lon="3.25703">
        <ele>35</ele>
        <time>2023-01-22T08:24:47Z</time>
      </trkpt>
      <trkpt lat="50.3435" lon="3.25701">
        <ele>35</ele>
        <time>2023-01-22T08:24:48Z</time>
      </trkpt>
      <trkpt lat="50.34351" lon="3.257">
        <ele>35</ele>
        <time>2023-01-22T08:24:49Z</time>
      </trkpt>
      <trkpt lat="50.34352" lon="3.25697">
        <ele>29.634184</ele>
        <time>2023-01-22T08:24:50Z</time>
      </trkpt>
      <trkpt lat="50.34353" lon="3.25695">
        <ele>35</ele>
        <time>2023-01-22T08:24:51Z</time>
      </trkpt>
      <trkpt lat="50.34353" lon="3.25695">
        <ele>35</ele>
        <time>2023-01-22T08:24:52Z</time>
      </trkpt>
      <trkpt lat="50.34354" lon="3.25694">
        <ele>35</ele>
        <time>2023-01-22T08:24:53Z</time>
      </trkpt>
      <trkpt lat="50.34354" lon="3.25693">
        <ele>35</ele>
        <time>2023-01-22T08:24:54Z</time>
      </trkpt>
      <trkpt lat="50.34355" lon="3.25691">
        <ele>35</ele>
        <time>2023-01-22T08:24:55Z</time>
      </trkpt>
      <trkpt lat="50.34356" lon="3.2569">
        <ele>35</ele>
        <time>2023-01-22T08:24:56Z</time>
      </trkpt>
      <trkpt lat="50.34358" lon="3.2569">
        <ele>35</ele>
        <time>2023-01-22T08:24:57Z</time>
      </trkpt>
      <trkpt lat="50.3436" lon="3.25689">
        <ele>35</ele>
        <time>2023-01-22T08:24:58Z</time>
      </trkpt>
      <trkpt lat="50.34362" lon="3.25689">
        <ele>35</ele>
        <time>2023-01-22T08:24:59Z</time>
      </trkpt>
      <trkpt lat="50.34363" lon="3.25688">
        <ele>29.50038</ele>
        <time>2023-01-22T08:25:00Z</time>
      </trkpt>
      <trkpt lat="50.34364" lon="3.25688">
        <ele>35</ele>
        <time>2023-01-22T08:25:01Z</time>
      </trkpt>
      <trkpt lat="50.34365" lon="3.25687">
        <ele>35</ele>
        <time>2023-01-22T08:25:02Z</time>
      </trkpt>
      <trkpt lat="50.34366" lon="3.25687">
        <ele>35.1</ele>
        <time>2023-01-22T08:25:03Z</time>
      </trkpt>
      <trkpt lat="50.34368" lon="3.25686">
        <ele>35.1</ele>
        <time>2023-01-22T08:25:04Z</time>
      </trkpt>
      <trkpt lat="50.34369" lon="3.25686">
        <ele>35.1</ele>
        <time>2023-01-22T08:25:05Z</time>
      </trkpt>
      <trkpt lat="50.3437" lon="3.25686">
        <ele>35.1</ele>
        <time>2023-01-22T08:25:06Z</time>
      </trkpt>
      <trkpt lat="50.34372" lon="3.25685">
        <ele>35.1</ele>
        <time>2023-01-22T08:25:07Z</time>
      </trkpt>
      <trkpt lat="50.34374" lon="3.25685">
        <ele>35.2</ele>
        <time>2023-01-22T08:25:08Z</time>
      </trkpt>
      <trkpt lat="50.34375" lon="3.25685">
        <ele>35.2</ele>
        <time>2023-01-22T08:25:09Z</time>
      </trkpt>
      <trkpt lat="50.34376" lon="3.25685">
        <ele>29.531696</ele>
        <time>2023-01-22T08:25:10Z</time>
      </trkpt>
      <trkpt lat="50.34377" lon="3.25685">
        <ele>35.2</ele>
        <time>2023-01-22T08:25:11Z</time>
      </trkpt>
      <trkpt lat="50.34378" lon="3.25685">
        <ele>35.2</ele>
        <time>2023-01-22T08:25:12Z</time>
      </trkpt>
      <trkpt lat="50.3438" lon="3.25686">
        <ele>35.2</ele>
        <time>2023-01-22T08:25:13Z</time>
      </trkpt>
      <trkpt lat="50.34382" lon="3.25686">
        <ele>35.2</ele>
        <time>2023-01-22T08:25:14Z</time>
      </trkpt>
      <trkpt lat="50.34383" lon="3.25686">
        <ele>35.2</ele>
        <time>2023-01-22T08:25:15Z</time>
      </trkpt>
      <trkpt lat="50.34384" lon="3.25685">
        <ele>35.3</ele>
        <time>2023-01-22T08:25:16Z</time>
      </trkpt>
      <trkpt lat="50.34386" lon="3.25684">
        <ele>35.3</ele>
        <time>2023-01-22T08:25:17Z</time>
      </trkpt>
      <trkpt lat="50.34388" lon="3.25684">
        <ele>35.4</ele>
        <time>2023-01-22T08:25:18Z</time>
      </trkpt>
      <trkpt lat="50.34389" lon="3.25684">
        <ele>35.4</ele>
        <time>2023-01-22T08:25:19Z</time>
      </trkpt>
      <trkpt lat="50.3439" lon="3.25684">
        <ele>29.414974</ele>
        <time>2023-01-22T08:25:20Z</time>
      </trkpt>
      <trkpt lat="50.34392" lon="3.25683">
        <ele>35.4</ele>
        <time>2023-01-22T08:25:21Z</time>
      </trkpt>
      <trkpt lat="50.34394" lon="3.25683">
        <ele>35.3</ele>
        <time>2023-01-22T08:25:22Z</time>
      </trkpt>
      <trkpt lat="50.34395" lon="3.25683">
        <ele>35.3</ele>
        <time>2023-01-22T08:25:23Z</time>
      </trkpt>
      <trkpt lat="50.34397" lon="3.25683">
        <ele>35.3</ele>
        <time>2023-01-22T08:25:24Z</time>
      </trkpt>
      <trkpt lat="50.34398" lon="3.25683">
        <ele>35.3</ele>
        <time>2023-01-22T08:25:25Z</time>
      </trkpt>
      <trkpt lat="50.34401" lon="3.25683">
        <ele>35.2</ele>
        <time>2023-01-22T08:25:26Z</time>
      </trkpt>
      <trkpt lat="50.34403" lon="3.25683">
        <ele>35.2</ele>
        <time>2023-01-22T08:25:27Z</time>
      </trkpt>
      <trkpt lat="50.34404" lon="3.25684">
        <ele>35.2</ele>
        <time>2023-01-22T08:25:28Z</time>
      </trkpt>
      <trkpt lat="50.34406" lon="3.25684">
        <ele>35.1</ele>
        <time>2023-01-22T08:25:29Z</time>
      </trkpt>
      <trkpt lat="50.34407" lon="3.25684">
        <ele>29.563011</ele>
        <time>2023-01-22T08:25:30Z</time>
      </trkpt>
      <trkpt lat="50.34409" lon="3.25684">
        <ele>35.1</ele>
        <time>2023-01-22T08:25:31Z</time>
      </trkpt>
      <trkpt lat="50.3441" lon="3.25685">
        <ele>35.1</ele>
        <time>2023-01-22T08:25:32Z</time>
      </trkpt>
      <trkpt lat="50.34411" lon="3.25684">
        <ele>35.1</ele>
        <time>2023-01-22T08:25:33Z</time>
      </trkpt>
      <trkpt lat="50.34412" lon="3.25684">
        <ele>35.1</ele>
        <time>2023-01-22T08:25:34Z</time>
      </trkpt>
      <trkpt lat="50.34413" lon="3.25684">
        <ele>35.1</ele>
        <time>2023-01-22T08:25:35Z</time>
      </trkpt>
      <trkpt lat="50.34414" lon="3.25684">
        <ele>35</ele>
        <time>2023-01-22T08:25:36Z</time>
      </trkpt>
      <trkpt lat="50.34415" lon="3.25683">
        <ele>35</ele>
        <time>2023-01-22T08:25:37Z</time>
      </trkpt>
      <trkpt lat="50.34416" lon="3.25683">
        <ele>35</ele>
        <time>2023-01-22T08:25:38Z</time>
      </trkpt>
      <trkpt lat="50.34417" lon="3.25682">
        <ele>35</ele>
        <time>2023-01-22T08:25:39Z</time>
      </trkpt>
      <trkpt lat="50.34419" lon="3.25683">
        <ele>29.299202</ele>
        <time>2023-01-22T08:25:40Z</time>
      </trkpt>
      <trkpt lat="50.34419" lon="3.25683">
        <ele>35</ele>
        <time>2023-01-22T08:25:41Z</time>
      </trkpt>
      <trkpt lat="50.34421" lon="3.25683">
        <ele>35</ele>
        <time>2023-01-22T08:25:42Z</time>
      </trkpt>
      <trkpt lat="50.34422" lon="3.25683">
        <ele>35</ele>
        <time>2023-01-22T08:25:43Z</time>
      </trkpt>
      <trkpt lat="50.34423" lon="3.25683">
        <ele>35</ele>
        <time>2023-01-22T08:25:44Z</time>
      </trkpt>
      <trkpt lat="50.34425" lon="3.25683">
        <ele>35</ele>
        <time>2023-01-22T08:25:45Z</time>
      </trkpt>
      <trkpt lat="50.34426" lon="3.25683">
        <ele>35</ele>
        <time>2023-01-22T08:25:46Z</time>
      </trkpt>
      <trkpt lat="50.34428" lon="3.25683">
        <ele>35</ele>
        <time>2023-01-22T08:25:47Z</time>
      </trkpt>
      <trkpt lat="50.34429" lon="3.25683">
        <ele>35</ele>
        <time>2023-01-22T08:25:48Z</time>
      </trkpt>
      <trkpt lat="50.34431" lon="3.25683">
        <ele>35</ele>
        <time>2023-01-22T08:25:49Z</time>
      </trkpt>
      <trkpt lat="50.34432" lon="3.25683">
        <ele>29.467167</ele>
        <time>2023-01-22T08:25:50Z</time>
      </trkpt>
      <trkpt lat="50.34433" lon="3.25683">
        <ele>35</ele>
        <time>2023-01-22T08:25:51Z</time>
      </trkpt>
      <trkpt lat="50.34435" lon="3.25683">
        <ele>35</ele>
        <time>2023-01-22T08:25:52Z</time>
      </trkpt>
      <trkpt lat="50.34436" lon="3.25684">
        <ele>35</ele>
        <time>2023-01-22T08:25:53Z</time>
      </trkpt>
      <trkpt lat="50.34438" lon="3.25684">
        <ele>35</ele>
        <time>2023-01-22T08:25:54Z</time>
      </trkpt>
      <trkpt lat="50.3444" lon="3.25684">
        <ele>35</ele>
        <time>2023-01-22T08:25:55Z</time>
      </trkpt>
      <trkpt lat="50.34441" lon="3.25684">
        <ele>35</ele>
        <time>2023-01-22T08:25:56Z</time>
      </trkpt>
      <trkpt lat="50.34442" lon="3.25685">
        <ele>35</ele>
        <time>2023-01-22T08:25:57Z</time>
      </trkpt>
      <trkpt lat="50.34444" lon="3.25685">
        <ele>35</ele>
        <time>2023-01-22T08:25:58Z</time>
      </trkpt>
      <trkpt lat="50.34445" lon="3.25685">
        <ele>35</ele>
        <time>2023-01-22T08:25:59Z</time>
      </trkpt>
      <trkpt lat="50.34447" lon="3.25685">
        <ele>29.427309</ele>
        <time>2023-01-22T08:26:00Z</time>
      </trkpt>
      <trkpt lat="50.34448" lon="3.25686">
        <ele>34.9</ele>
        <time>2023-01-22T08:26:01Z</time>
      </trkpt>
      <trkpt lat="50.3445" lon="3.25686">
        <ele>34.9</ele>
        <time>2023-01-22T08:26:02Z</time>
      </trkpt>
      <trkpt lat="50.34451" lon="3.25686">
        <ele>34.8</ele>
        <time>2023-01-22T08:26:03Z</time>
      </trkpt>
      <trkpt lat="50.34452" lon="3.25686">
        <ele>34.8</ele>
        <time>2023-01-22T08:26:04Z</time>
      </trkpt>
      <trkpt lat="50.34453" lon="3.25686">
        <ele>34.8</ele>
        <time>2023-01-22T08:26:05Z</time>
      </trkpt>
      <trkpt lat="50.34454" lon="3.25686">
        <ele>34.8</ele>
        <time>2023-01-22T08:26:06Z</time>
      </trkpt>
      <trkpt lat="50.34456" lon="3.25685">
        <ele>34.7</ele>
        <time>2023-01-22T08:26:07Z</time>
      </trkpt>
      <trkpt lat="50.34457" lon="3.25685">
        <ele>34.7</ele>
        <time>2023-01-22T08:26:08Z</time>
      </trkpt>
      <trkpt lat="50.34457" lon="3.25685">
        <ele>34.7</ele>
        <time>2023-01-22T08:26:09Z</time>
      </trkpt>
      <trkpt lat="50.34459" lon="3.25685">
        <ele>29.19197</ele>
        <time>2023-01-22T08:26:10Z</time>
      </trkpt>
      <trkpt lat="50.3446" lon="3.25686">
        <ele>34.6</ele>
        <time>2023-01-22T08:26:11Z</time>
      </trkpt>
      <trkpt lat="50.34461" lon="3.25686">
        <ele>34.6</ele>
        <time>2023-01-22T08:26:12Z</time>
      </trkpt>
      <trkpt lat="50.34462" lon="3.25686">
        <ele>34.6</ele>
        <time>2023-01-22T08:26:13Z</time>
      </trkpt>
      <trkpt lat="50.34464" lon="3.25686">
        <ele>34.5</ele>
        <time>2023-01-22T08:26:14Z</time>
      </trkpt>
      <trkpt lat="50.34465" lon="3.25686">
        <ele>34.5</ele>
        <time>2023-01-22T08:26:15Z</time>
      </trkpt>
      <trkpt lat="50.34466" lon="3.25686">
        <ele>34.5</ele>
        <time>2023-01-22T08:26:16Z</time>
      </trkpt>
      <trkpt lat="50.34468" lon="3.25686">
        <ele>34.4</ele>
        <time>2023-01-22T08:26:17Z</time>
      </trkpt>
      <trkpt lat="50.34469" lon="3.25685">
        <ele>34.4</ele>
        <time>2023-01-22T08:26:18Z</time>
      </trkpt>
      <trkpt lat="50.3447" lon="3.25685">
        <ele>34.4</ele>
        <time>2023-01-22T08:26:19Z</time>
      </trkpt>
      <trkpt lat="50.34472" lon="3.25686">
        <ele>28.742174</ele>
        <time>2023-01-22T08:26:20Z</time>
      </trkpt>
      <trkpt lat="50.34473" lon="3.25686">
        <ele>34.3</ele>
        <time>2023-01-22T08:26:21Z</time>
      </trkpt>
      <trkpt lat="50.34474" lon="3.25686">
        <ele>34.3</ele>
        <time>2023-01-22T08:26:22Z</time>
      </trkpt>
      <trkpt lat="50.34475" lon="3.25686">
        <ele>34.2</ele>
        <time>2023-01-22T08:26:23Z</time>
      </trkpt>
      <trkpt lat="50.34477" lon="3.25686">
        <ele>34.2</ele>
        <time>2023-01-22T08:26:24Z</time>
      </trkpt>
      <trkpt lat="50.34478" lon="3.25686">
        <ele>34.2</ele>
        <time>2023-01-22T08:26:25Z</time>
      </trkpt>
      <trkpt lat="50.34479" lon="3.25685">
        <ele>34.2</ele>
        <time>2023-01-22T08:26:26Z</time>
      </trkpt>
      <trkpt lat="50.3448" lon="3.25685">
        <ele>34.1</ele>
        <time>2023-01-22T08:26:27Z</time>
      </trkpt>
      <trkpt lat="50.34482" lon="3.25685">
        <ele>34.1</ele>
        <time>2023-01-22T08:26:28Z</time>
      </trkpt>
      <trkpt lat="50.34483" lon="3.25685">
        <ele>34.1</ele>
        <time>2023-01-22T08:26:29Z</time>
      </trkpt>
      <trkpt lat="50.34485" lon="3.25685">
        <ele>28.227863</ele>
        <time>2023-01-22T08:26:30Z</time>
      </trkpt>
      <trkpt lat="50.34486" lon="3.25685">
        <ele>34</ele>
        <time>2023-01-22T08:26:31Z</time>
      </trkpt>
      <trkpt lat="50.34488" lon="3.25685">
        <ele>34</ele>
        <time>2023-01-22T08:26:32Z</time>
      </trkpt>
      <trkpt lat="50.34489" lon="3.25684">
        <ele>33.9</ele>
        <time>2023-01-22T08:26:33Z</time>
      </trkpt>
      <trkpt lat="50.3449" lon="3.25684">
        <ele>33.9</ele>
        <time>2023-01-22T08:26:34Z</time>
      </trkpt>
      <trkpt lat="50.34491" lon="3.25685">
        <ele>33.9</ele>
        <time>2023-01-22T08:26:35Z</time>
      </trkpt>
      <trkpt lat="50.34493" lon="3.25685">
        <ele>33.8</ele>
        <time>2023-01-22T08:26:36Z</time>
      </trkpt>
      <trkpt lat="50.34494" lon="3.25685">
        <ele>33.8</ele>
        <time>2023-01-22T08:26:37Z</time>
      </trkpt>
      <trkpt lat="50.34494" lon="3.25686">
        <ele>33.8</ele>
        <time>2023-01-22T08:26:38Z</time>
      </trkpt>
      <trkpt lat="50.34495" lon="3.25685">
        <ele>33.8</ele>
        <time>2023-01-22T08:26:39Z</time>
      </trkpt>
      <trkpt lat="50.34497" lon="3.25684">
        <ele>28.024797</ele>
        <time>2023-01-22T08:26:40Z</time>
      </trkpt>
      <trkpt lat="50.34498" lon="3.25684">
        <ele>33.7</ele>
        <time>2023-01-22T08:26:41Z</time>
      </trkpt>
      <trkpt lat="50.34499" lon="3.25684">
        <ele>33.6</ele>
        <time>2023-01-22T08:26:42Z</time>
      </trkpt>
      <trkpt lat="50.34501" lon="3.25683">
        <ele>33.6</ele>
        <time>2023-01-22T08:26:43Z</time>
      </trkpt>
      <trkpt lat="50.34502" lon="3.25683">
        <ele>33.5</ele>
        <time>2023-01-22T08:26:44Z</time>
      </trkpt>
      <trkpt lat="50.34503" lon="3.25682">
        <ele>33.5</ele>
        <time>2023-01-22T08:26:45Z</time>
      </trkpt>
      <trkpt lat="50.34504" lon="3.25682">
        <ele>33.5</ele>
        <time>2023-01-22T08:26:46Z</time>
      </trkpt>
      <trkpt lat="50.34505" lon="3.25681">
        <ele>33.4</ele>
        <time>2023-01-22T08:26:47Z</time>
      </trkpt>
      <trkpt lat="50.34506" lon="3.25679">
        <ele>33.4</ele>
        <time>2023-01-22T08:26:48Z</time>
      </trkpt>
      <trkpt lat="50.34506" lon="3.25678">
        <ele>33.3</ele>
        <time>2023-01-22T08:26:49Z</time>
        <extensions>
          <gpxtpx:TrackPointExtension xmlns:gpxtpx="http://www.garmin.com/xmlschemas/TrackPointExtension/v1">
            <gpxtpx:hr>140</gpxtpx:hr>
          </gpxtpx:TrackPointExtension>
        </extensions>
      </trkpt>
      <trkpt lat="50.34507" lon="3.25677">
        <ele>28.076988</ele>
        <time>2023-01-22T08:26:50Z</time>
      </trkpt>
      <trkpt lat="50.34507" lon="3.25676">
        <ele>33.2</ele>
        <time>2023-01-22T08:26:51Z</time>
      </trkpt>
      <trkpt lat="50.34508" lon="3.25675">
        <ele>33.2</ele>
        <time>2023-01-22T08:26:52Z</time>
      </trkpt>
      <trkpt lat="50.34508" lon="3.25673">
        <ele>33.2</ele>
        <time>2023-01-22T08:26:53Z</time>
      </trkpt>
      <trkpt lat="50.34509" lon="3.25671">
        <ele>33.1</ele>
        <time>2023-01-22T08:26:54Z</time>
      </trkpt>
      <trkpt lat="50.34509" lon="3.25669">
        <ele>33.1</ele>
        <time>2023-01-22T08:26:55Z</time>
      </trkpt>
      <trkpt lat="50.34509" lon="3.25667">
        <ele>33</ele>
        <time>2023-01-22T08:26:56Z</time>
      </trkpt>
      <trkpt lat="50.3451" lon="3.25665">
        <ele>33.1</ele>
        <time>2023-01-22T08:26:57Z</time>
      </trkpt>
      <trkpt lat="50.3451" lon="3.25663">
        <ele>33.2</ele>
        <time>2023-01-22T08:26:58Z</time>
      </trkpt>
      <trkpt lat="50.3451" lon="3.25661">
        <ele>33.3</ele>
        <time>2023-01-22T08:26:59Z</time>
      </trkpt>
      <trkpt lat="50.3451" lon="3.25659">
        <ele>28.21268</ele>
        <time>2023-01-22T08:27:00Z</time>
      </trkpt>
      <trkpt lat="50.3451" lon="3.25657">
        <ele>33.5</ele>
        <time>2023-01-22T08:27:01Z</time>
      </trkpt>
      <trkpt lat="50.34509" lon="3.25655">
        <ele>33.5</ele>
        <time>2023-01-22T08:27:02Z</time>
      </trkpt>
      <trkpt lat="50.34509" lon="3.25653">
        <ele>33.6</ele>
        <time>2023-01-22T08:27:03Z</time>
      </trkpt>
      <trkpt lat="50.34509" lon="3.25651">
        <ele>33.8</ele>
        <time>2023-01-22T08:27:04Z</time>
      </trkpt>
      <trkpt lat="50.34509" lon="3.25649">
        <ele>33.9</ele>
        <time>2023-01-22T08:27:05Z</time>
      </trkpt>
      <trkpt lat="50.34509" lon="3.25647">
        <ele>33.9</ele>
        <time>2023-01-22T08:27:06Z</time>
      </trkpt>
      <trkpt lat="50.34509" lon="3.25645">
        <ele>34</ele>
        <time>2023-01-22T08:27:07Z</time>
      </trkpt>
      <trkpt lat="50.34509" lon="3.25644">
        <ele>34.1</ele>
        <time>2023-01-22T08:27:08Z</time>
      </trkpt>
      <trkpt lat="50.34509" lon="3.25642">
        <ele>34.2</ele>
        <time>2023-01-22T08:27:09Z</time>
      </trkpt>
      <trkpt lat="50.34509" lon="3.25639">
        <ele>28.025747</ele>
        <time>2023-01-22T08:27:10Z</time>
      </trkpt>
      <trkpt lat="50.34509" lon="3.25637">
        <ele>34.3</ele>
        <time>2023-01-22T08:27:11Z</time>
      </trkpt>
      <trkpt lat="50.3451" lon="3.25635">
        <ele>34.3</ele>
        <time>2023-01-22T08:27:12Z</time>
      </trkpt>
      <trkpt lat="50.3451" lon="3.25632">
        <ele>34.3</ele>
        <time>2023-01-22T08:27:13Z</time>
      </trkpt>
      <trkpt lat="50.3451" lon="3.25631">
        <ele>34.3</ele>
        <time>2023-01-22T08:27:14Z</time>
      </trkpt>
      <trkpt lat="50.3451" lon="3.25629">
        <ele>34.3</ele>
        <time>2023-01-22T08:27:15Z</time>
      </trkpt>
      <trkpt lat="50.3451" lon="3.25627">
        <ele>34.3</ele>
        <time>2023-01-22T08:27:16Z</time>
      </trkpt>
      <trkpt lat="50.3451" lon="3.25625">
        <ele>34.3</ele>
        <time>2023-01-22T08:27:17Z</time>
      </trkpt>
      <trkpt lat="50.34511" lon="3.25623">
        <ele>34.2</ele>
        <time>2023-01-22T08:27:18Z</time>
      </trkpt>
      <trkpt lat="50.34511" lon="3.25621">
        <ele>34.2</ele>
        <time>2023-01-22T08:27:19Z</time>
      </trkpt>
      <trkpt lat="50.34511" lon="3.2562">
        <ele>27.824583</ele>
        <time>2023-01-22T08:27:20Z</time>
      </trkpt>
      <trkpt lat="50.34512" lon="3.25618">
        <ele>34.2</ele>
        <time>2023-01-22T08:27:21Z</time>
      </trkpt>
      <trkpt lat="50.34512" lon="3.25615">
        <ele>34.2</ele>
        <time>2023-01-22T08:27:22Z</time>
      </trkpt>
      <trkpt lat="50.34511" lon="3.25614">
        <ele>34.2</ele>
        <time>2023-01-22T08:27:23Z</time>
      </trkpt>
      <trkpt lat="50.34511" lon="3.25611">
        <ele>34.2</ele>
        <time>2023-01-22T08:27:24Z</time>
      </trkpt>
      <trkpt lat="50.34512" lon="3.25609">
        <ele>34.2</ele>
        <time>2023-01-22T08:27:25Z</time>
      </trkpt>
      <trkpt lat="50.34512" lon="3.25608">
        <ele>34.1</ele>
        <time>2023-01-22T08:27:26Z</time>
      </trkpt>
      <trkpt lat="50.34512" lon="3.25606">
        <ele>34.1</ele>
        <time>2023-01-22T08:27:27Z</time>
      </trkpt>
      <trkpt lat="50.34513" lon="3.25604">
        <ele>34.1</ele>
        <time>2023-01-22T08:27:28Z</time>
      </trkpt>
      <trkpt lat="50.34514" lon="3.25602">
        <ele>34</ele>
        <time>2023-01-22T08:27:29Z</time>
      </trkpt>
      <trkpt lat="50.34514" lon="3.25601">
        <ele>27.482986</ele>
        <time>2023-01-22T08:27:30Z</time>
      </trkpt>
      <trkpt lat="50.34514" lon="3.25599">
        <ele>34</ele>
        <time>2023-01-22T08:27:31Z</time>
      </trkpt>
      <trkpt lat="50.34514" lon="3.25597">
        <ele>34</ele>
        <time>2023-01-22T08:27:32Z</time>
      </trkpt>
      <trkpt lat="50.34514" lon="3.25595">
        <ele>34</ele>
        <time>2023-01-22T08:27:33Z</time>
      </trkpt>
      <trkpt lat="50.34514" lon="3.25592">
        <ele>34</ele>
        <time>2023-01-22T08:27:34Z</time>
      </trkpt>
      <trkpt lat="50.34514" lon="3.2559">
        <ele>34</ele>
        <time>2023-01-22T08:27:35Z</time>
      </trkpt>
      <trkpt lat="50.34515" lon="3.25588">
        <ele>33.9</ele>
        <time>2023-01-22T08:27:36Z</time>
      </trkpt>
      <trkpt lat="50.34515" lon="3.25586">
        <ele>33.9</ele>
        <time>2023-01-22T08:27:37Z</time>
      </trkpt>
      <trkpt lat="50.34515" lon="3.25584">
        <ele>33.9</ele>
        <time>2023-01-22T08:27:38Z</time>
      </trkpt>
      <trkpt lat="50.34515" lon="3.25581">
        <ele>33.9</ele>
        <time>2023-01-22T08:27:39Z</time>
      </trkpt>
      <trkpt lat="50.34515" lon="3.2558">
        <ele>27.273289</ele>
        <time>2023-01-22T08:27:40Z</time>
      </trkpt>
      <trkpt lat="50.34515" lon="3.25577">
        <ele>33.9</ele>
        <time>2023-01-22T08:27:41Z</time>
      </trkpt>
      <trkpt lat="50.34515" lon="3.25574">
        <ele>33.9</ele>
        <time>2023-01-22T08:27:42Z</time>
      </trkpt>
      <trkpt lat="50.34516" lon="3.25572">
        <ele>33.9</ele>
        <time>2023-01-22T08:27:43Z</time>
      </trkpt>
      <trkpt lat="50.34517" lon="3.25569">
        <ele>33.8</ele>
        <time>2023-01-22T08:27:44Z</time>
      </trkpt>
      <trkpt lat="50.34516" lon="3.25566">
        <ele>33.8</ele>
        <time>2023-01-22T08:27:45Z</time>
      </trkpt>
      <trkpt lat="50.34517" lon="3.25564">
        <ele>33.8</ele>
        <time>2023-01-22T08:27:46Z</time>
      </trkpt>
      <trkpt lat="50.34517" lon="3.25562">
        <ele>33.8</ele>
        <time>2023-01-22T08:27:47Z</time>
      </trkpt>
      <trkpt lat="50.34517" lon="3.25559">
        <ele>33.8</ele>
        <time>2023-01-22T08:27:48Z</time>
      </trkpt>
      <trkpt lat="50.34517" lon="3.25556">
        <ele>33.8</ele>
        <time>2023-01-22T08:27:49Z</time>
      </trkpt>
      <trkpt lat="50.34518" lon="3.25554">
        <ele>26.94024</ele>
        <time>2023-01-22T08:27:50Z</time>
      </trkpt>
      <trkpt lat="50.34518" lon="3.25552">
        <ele>33.5</ele>
        <time>2023-01-22T08:27:51Z</time>
      </trkpt>
      <trkpt lat="50.34518" lon="3.2555">
        <ele>33.4</ele>
        <time>2023-01-22T08:27:52Z</time>
      </trkpt>
      <trkpt lat="50.34519" lon="3.25547">
        <ele>33.2</ele>
        <time>2023-01-22T08:27:53Z</time>
      </trkpt>
      <trkpt lat="50.34519" lon="3.25545">
        <ele>33.1</ele>
        <time>2023-01-22T08:27:54Z</time>
      </trkpt>
      <trkpt lat="50.34519" lon="3.25543">
        <ele>33</ele>
        <time>2023-01-22T08:27:55Z</time>
      </trkpt>
      <trkpt lat="50.34519" lon="3.25541">
        <ele>33</ele>
        <time>2023-01-22T08:27:56Z</time>
      </trkpt>
      <trkpt lat="50.34519" lon="3.25539">
        <ele>32.8</ele>
        <time>2023-01-22T08:27:57Z</time>
      </trkpt>
      <trkpt lat="50.34519" lon="3.25537">
        <ele>32.7</ele>
        <time>2023-01-22T08:27:58Z</time>
      </trkpt>
      <trkpt lat="50.34519" lon="3.25534">
        <ele>32.6</ele>
        <time>2023-01-22T08:27:59Z</time>
      </trkpt>
      <trkpt lat="50.3452" lon="3.25532">
        <ele>26.798862</ele>
        <time>2023-01-22T08:28:00Z</time>
      </trkpt>
      <trkpt lat="50.3452" lon="3.2553">
        <ele>32.4</ele>
        <time>2023-01-22T08:28:01Z</time>
      </trkpt>
      <trkpt lat="50.3452" lon="3.25528">
        <ele>32.3</ele>
        <time>2023-01-22T08:28:02Z</time>
      </trkpt>
      <trkpt lat="50.3452" lon="3.25526">
        <ele>32.2</ele>
        <time>2023-01-22T08:28:03Z</time>
      </trkpt>
      <trkpt lat="50.3452" lon="3.25524">
        <ele>32.2</ele>
        <time>2023-01-22T08:28:04Z</time>
      </trkpt>
      <trkpt lat="50.3452" lon="3.25523">
        <ele>32.2</ele>
        <time>2023-01-22T08:28:05Z</time>
      </trkpt>
      <trkpt lat="50.34519" lon="3.25522">
        <ele>32.2</ele>
        <time>2023-01-22T08:28:06Z</time>
      </trkpt>
      <trkpt lat="50.34518" lon="3.25521">
        <ele>32.3</ele>
        <time>2023-01-22T08:28:07Z</time>
      </trkpt>
      <trkpt lat="50.34516" lon="3.2552">
        <ele>32.3</ele>
        <time>2023-01-22T08:28:08Z</time>
      </trkpt>
      <trkpt lat="50.34515" lon="3.25519">
        <ele>32.3</ele>
        <time>2023-01-22T08:28:09Z</time>
      </trkpt>
      <trkpt lat="50.34514" lon="3.25519">
        <ele>26.601505</ele>
        <time>2023-01-22T08:28:10Z</time>
      </trkpt>
      <trkpt lat="50.34512" lon="3.25518">
        <ele>32.4</ele>
        <time>2023-01-22T08:28:11Z</time>
      </trkpt>
      <trkpt lat="50.34511" lon="3.25519">
        <ele>32.4</ele>
        <time>2023-01-22T08:28:12Z</time>
      </trkpt>
      <trkpt lat="50.3451" lon="3.25518">
        <ele>32.4</ele>
        <time>2023-01-22T08:28:13Z</time>
      </trkpt>
      <trkpt lat="50.34509" lon="3.25518">
        <ele>32.4</ele>
        <time>2023-01-22T08:28:14Z</time>
      </trkpt>
      <trkpt lat="50.34507" lon="3.25518">
        <ele>32.5</ele>
        <time>2023-01-22T08:28:15Z</time>
      </trkpt>
      <trkpt lat="50.34506" lon="3.25519">
        <ele>32.6</ele>
        <time>2023-01-22T08:28:16Z</time>
      </trkpt>
      <trkpt lat="50.34503" lon="3.2552">
        <ele>32.6</ele>
        <time>2023-01-22T08:28:17Z</time>
      </trkpt>
      <trkpt lat="50.34502" lon="3.25521">
        <ele>32.7</ele>
        <time>2023-01-22T08:28:18Z</time>
      </trkpt>
      <trkpt lat="50.34501" lon="3.25521">
        <ele>32.7</ele>
        <time>2023-01-22T08:28:19Z</time>
      </trkpt>
      <trkpt lat="50.34499" lon="3.25521">
        <ele>26.75996</ele>
        <time>2023-01-22T08:28:20Z</time>
      </trkpt>
      <trkpt lat="50.34497" lon="3.25521">
        <ele>32.9</ele>
        <time>2023-01-22T08:28:21Z</time>
      </trkpt>
      <trkpt lat="50.34496" lon="3.25522">
        <ele>32.9</ele>
        <time>2023-01-22T08:28:22Z</time>
      </trkpt>
      <trkpt lat="50.34494" lon="3.25522">
        <ele>33</ele>
        <time>2023-01-22T08:28:23Z</time>
      </trkpt>
      <trkpt lat="50.34493" lon="3.25522">
        <ele>33.1</ele>
        <time>2023-01-22T08:28:24Z</time>
      </trkpt>
      <trkpt lat="50.34491" lon="3.25522">
        <ele>33.1</ele>
        <time>2023-01-22T08:28:25Z</time>
      </trkpt>
      <trkpt lat="50.3449" lon="3.25522">
        <ele>33.2</ele>
        <time>2023-01-22T08:28:26Z</time>
      </trkpt>
      <trkpt lat="50.34489" lon="3.25522">
        <ele>33.2</ele>
        <time>2023-01-22T08:28:27Z</time>
      </trkpt>
      <trkpt lat="50.34487" lon="3.25523">
        <ele>33.3</ele>
        <time>2023-01-22T08:28:28Z</time>
      </trkpt>
      <trkpt lat="50.34486" lon="3.25523">
        <ele>33.3</ele>
        <time>2023-01-22T08:28:29Z</time>
      </trkpt>
      <trkpt lat="50.34484" lon="3.25523">
        <ele>26.786528</ele>
        <time>2023-01-22T08:28:30Z</time>
      </trkpt>
      <trkpt lat="50.34483" lon="3.25523">
        <ele>33.5</ele>
        <time>2023-01-22T08:28:31Z</time>
      </trkpt>
      <trkpt lat="50.3448" lon="3.25522">
        <ele>33.5</ele>
        <time>2023-01-22T08:28:32Z</time>
      </trkpt>
      <trkpt lat="50.34478" lon="3.25521">
        <ele>33.5</ele>
        <time>2023-01-22T08:28:33Z</time>
      </trkpt>
      <trkpt lat="50.34477" lon="3.2552">
        <ele>33.6</ele>
        <time>2023-01-22T08:28:34Z</time>
      </trkpt>
      <trkpt lat="50.34475" lon="3.25519">
        <ele>33.6</ele>
        <time>2023-01-22T08:28:35Z</time>
      </trkpt>
      <trkpt lat="50.34473" lon="3.25518">
        <ele>33.6</ele>
        <time>2023-01-22T08:28:36Z</time>
      </trkpt>
      <trkpt lat="50.34472" lon="3.25517">
        <ele>33.6</ele>
        <time>2023-01-22T08:28:37Z</time>
      </trkpt>
      <trkpt lat="50.34472" lon="3.25516">
        <ele>33.6</ele>
        <time>2023-01-22T08:28:38Z</time>
      </trkpt>
      <trkpt lat="50.34471" lon="3.25514">
        <ele>33.5</ele>
        <time>2023-01-22T08:28:39Z</time>
      </trkpt>
      <trkpt lat="50.3447" lon="3.25512">
        <ele>26.89944</ele>
        <time>2023-01-22T08:28:40Z</time>
      </trkpt>
      <trkpt lat="50.34469" lon="3.2551">
        <ele>33.4</ele>
        <time>2023-01-22T08:28:41Z</time>
      </trkpt>
      <trkpt lat="50.34469" lon="3.25508">
        <ele>33.3</ele>
        <time>2023-01-22T08:28:42Z</time>
      </trkpt>
      <trkpt lat="50.34469" lon="3.25505">
        <ele>33.2</ele>
        <time>2023-01-22T08:28:43Z</time>
      </trkpt>
      <trkpt lat="50.34469" lon="3.25503">
        <ele>33.1</ele>
        <time>2023-01-22T08:28:44Z</time>
      </trkpt>
      <trkpt lat="50.34469" lon="3.255">
        <ele>33</ele>
        <time>2023-01-22T08:28:45Z</time>
      </trkpt>
      <trkpt lat="50.34469" lon="3.25498">
        <ele>32.9</ele>
        <time>2023-01-22T08:28:46Z</time>
      </trkpt>
      <trkpt lat="50.34469" lon="3.25495">
        <ele>32.8</ele>
        <time>2023-01-22T08:28:47Z</time>
      </trkpt>
      <trkpt lat="50.34469" lon="3.25492">
        <ele>32.8</ele>
        <time>2023-01-22T08:28:48Z</time>
      </trkpt>
      <trkpt lat="50.34469" lon="3.2549">
        <ele>32.7</ele>
        <time>2023-01-22T08:28:49Z</time>
      </trkpt>
      <trkpt lat="50.34469" lon="3.25488">
        <ele>26.863384</ele>
        <time>2023-01-22T08:28:50Z</time>
      </trkpt>
      <trkpt lat="50.34469" lon="3.25486">
        <ele>32.6</ele>
        <time>2023-01-22T08:28:51Z</time>
      </trkpt>
      <trkpt lat="50.34469" lon="3.25484">
        <ele>32.5</ele>
        <time>2023-01-22T08:28:52Z</time>
      </trkpt>
      <trkpt lat="50.34469" lon="3.25482">
        <ele>32.4</ele>
        <time>2023-01-22T08:28:53Z</time>
      </trkpt>
      <trkpt lat="50.34469" lon="3.2548">
        <ele>32.4</ele>
        <time>2023-01-22T08:28:54Z</time>
      </trkpt>
      <trkpt lat="50.34469" lon="3.25478">
        <ele>32.3</ele>
        <time>2023-01-22T08:28:55Z</time>
      </trkpt>
      <trkpt lat="50.3447" lon="3.25476">
        <ele>32.2</ele>
        <time>2023-01-22T08:28:56Z</time>
      </trkpt>
      <trkpt lat="50.3447" lon="3.25474">
        <ele>32.1</ele>
        <time>2023-01-22T08:28:57Z</time>
      </trkpt>
      <trkpt lat="50.3447" lon="3.25471">
        <ele>32.1</ele>
        <time>2023-01-22T08:28:58Z</time>
      </trkpt>
      <trkpt lat="50.34469" lon="3.25469">
        <ele>32.1</ele>
        <time>2023-01-22T08:28:59Z</time>
      </trkpt>
      <trkpt lat="50.3447" lon="3.25467">
        <ele>26.787477</ele>
        <time>2023-01-22T08:29:00Z</time>
      </trkpt>
      <trkpt lat="50.34469" lon="3.25464">
        <ele>32.1</ele>
        <time>2023-01-22T08:29:01Z</time>
      </trkpt>
      <trkpt lat="50.34469" lon="3.25462">
        <ele>32.1</ele>
        <time>2023-01-22T08:29:02Z</time>
      </trkpt>
      <trkpt lat="50.34469" lon="3.2546">
        <ele>32.1</ele>
        <time>2023-01-22T08:29:03Z</time>
      </trkpt>
      <trkpt lat="50.34469" lon="3.25458">
        <ele>32.1</ele>
        <time>2023-01-22T08:29:04Z</time>
      </trkpt>
      <trkpt lat="50.34469" lon="3.25455">
        <ele>32</ele>
        <time>2023-01-22T08:29:05Z</time>
      </trkpt>
      <trkpt lat="50.34469" lon="3.25452">
        <ele>32</ele>
        <time>2023-01-22T08:29:06Z</time>
      </trkpt>
      <trkpt lat="50.34469" lon="3.2545">
        <ele>32</ele>
        <time>2023-01-22T08:29:07Z</time>
      </trkpt>
      <trkpt lat="50.34469" lon="3.25448">
        <ele>32</ele>
        <time>2023-01-22T08:29:08Z</time>
      </trkpt>
      <trkpt lat="50.34469" lon="3.25446">
        <ele>32</ele>
        <time>2023-01-22T08:29:09Z</time>
      </trkpt>
      <trkpt lat="50.34469" lon="3.25444">
        <ele>26.375685</ele>
        <time>2023-01-22T08:29:10Z</time>
      </trkpt>
      <trkpt lat="50.34469" lon="3.25441">
        <ele>31.9</ele>
        <time>2023-01-22T08:29:11Z</time>
      </trkpt>
      <trkpt lat="50.34469" lon="3.25439">
        <ele>31.8</ele>
        <time>2023-01-22T08:29:12Z</time>
      </trkpt>
      <trkpt lat="50.34469" lon="3.25437">
        <ele>31.7</ele>
        <time>2023-01-22T08:29:13Z</time>
      </trkpt>
      <trkpt lat="50.34469" lon="3.25434">
        <ele>31.6</ele>
        <time>2023-01-22T08:29:14Z</time>
      </trkpt>
      <trkpt lat="50.34469" lon="3.25432">
        <ele>31.5</ele>
        <time>2023-01-22T08:29:15Z</time>
      </trkpt>
      <trkpt lat="50.34469" lon="3.2543">
        <ele>31.5</ele>
        <time>2023-01-22T08:29:16Z</time>
      </trkpt>
      <trkpt lat="50.34469" lon="3.25427">
        <ele>31.4</ele>
        <time>2023-01-22T08:29:17Z</time>
      </trkpt>
      <trkpt lat="50.34469" lon="3.25424">
        <ele>31.3</ele>
        <time>2023-01-22T08:29:18Z</time>
      </trkpt>
      <trkpt lat="50.34468" lon="3.25421">
        <ele>31.2</ele>
        <time>2023-01-22T08:29:19Z</time>
      </trkpt>
      <trkpt lat="50.34468" lon="3.25419">
        <ele>26.125198</ele>
        <time>2023-01-22T08:29:20Z</time>
      </trkpt>
      <trkpt lat="50.34468" lon="3.25417">
        <ele>31</ele>
        <time>2023-01-22T08:29:21Z</time>
      </trkpt>
      <trkpt lat="50.34467" lon="3.25415">
        <ele>31</ele>
        <time>2023-01-22T08:29:22Z</time>
      </trkpt>
      <trkpt lat="50.34467" lon="3.25413">
        <ele>31</ele>
        <time>2023-01-22T08:29:23Z</time>
      </trkpt>
      <trkpt lat="50.34467" lon="3.25412">
        <ele>31</ele>
        <time>2023-01-22T08:29:24Z</time>
      </trkpt>
      <trkpt lat="50.34467" lon="3.2541">
        <ele>31</ele>
        <time>2023-01-22T08:29:25Z</time>
      </trkpt>
      <trkpt lat="50.34467" lon="3.25408">
        <ele>31</ele>
        <time>2023-01-22T08:29:26Z</time>
      </trkpt>
      <trkpt lat="50.34467" lon="3.25405">
        <ele>31</ele>
        <time>2023-01-22T08:29:27Z</time>
      </trkpt>
      <trkpt lat="50.34467" lon="3.25403">
        <ele>31</ele>
        <time>2023-01-22T08:29:28Z</time>
      </trkpt>
      <trkpt lat="50.34468" lon="3.25401">
        <ele>31</ele>
        <time>2023-01-22T08:29:29Z</time>
      </trkpt>
      <trkpt lat="50.34467" lon="3.25398">
        <ele>25.871868</ele>
        <time>2023-01-22T08:29:30Z</time>
      </trkpt>
      <trkpt lat="50.34467" lon="3.25397">
        <ele>31</ele>
        <time>2023-01-22T08:29:31Z</time>
      </trkpt>
      <trkpt lat="50.34467" lon="3.25395">
        <ele>31</ele>
        <time>2023-01-22T08:29:32Z</time>
      </trkpt>
      <trkpt lat="50.34467" lon="3.25393">
        <ele>31</ele>
        <time>2023-01-22T08:29:33Z</time>
      </trkpt>
      <trkpt lat="50.34467" lon="3.25391">
        <ele>31</ele>
        <time>2023-01-22T08:29:34Z</time>
      </trkpt>
      <trkpt lat="50.34467" lon="3.25389">
        <ele>31</ele>
        <time>2023-01-22T08:29:35Z</time>
      </trkpt>
      <trkpt lat="50.34467" lon="3.25387">
        <ele>31</ele>
        <time>2023-01-22T08:29:36Z</time>
      </trkpt>
      <trkpt lat="50.34467" lon="3.25385">
        <ele>31</ele>
        <time>2023-01-22T08:29:37Z</time>
      </trkpt>
      <trkpt lat="50.34467" lon="3.25383">
        <ele>31</ele>
        <time>2023-01-22T08:29:38Z</time>
      </trkpt>
      <trkpt lat="50.34467" lon="3.25381">
        <ele>31</ele>
        <time>2023-01-22T08:29:39Z</time>
      </trkpt>
      <trkpt lat="50.34467" lon="3.25379">
        <ele>25.840557</ele>
        <time>2023-01-22T08:29:40Z</time>
      </trkpt>
      <trkpt lat="50.34466" lon="3.25377">
        <ele>31</ele>
        <time>2023-01-22T08:29:41Z</time>
      </trkpt>
      <trkpt lat="50.34466" lon="3.25374">
        <ele>31</ele>
        <time>2023-01-22T08:29:42Z</time>
      </trkpt>
      <trkpt lat="50.34466" lon="3.25372">
        <ele>31</ele>
        <time>2023-01-22T08:29:43Z</time>
      </trkpt>
      <trkpt lat="50.34466" lon="3.25369">
        <ele>31</ele>
        <time>2023-01-22T08:29:44Z</time>
      </trkpt>
      <trkpt lat="50.34466" lon="3.25367">
        <ele>31</ele>
        <time>2023-01-22T08:29:45Z</time>
      </trkpt>
      <trkpt lat="50.34466" lon="3.25365">
        <ele>31</ele>
        <time>2023-01-22T08:29:46Z</time>
      </trkpt>
      <trkpt lat="50.34466" lon="3.25363">
        <ele>31</ele>
        <time>2023-01-22T08:29:47Z</time>
      </trkpt>
      <trkpt lat="50.34466" lon="3.25361">
        <ele>31</ele>
        <time>2023-01-22T08:29:48Z</time>
      </trkpt>
      <trkpt lat="50.34466" lon="3.25358">
        <ele>30.9</ele>
        <time>2023-01-22T08:29:49Z</time>
      </trkpt>
      <trkpt lat="50.34466" lon="3.25356">
        <ele>25.565409</ele>
        <time>2023-01-22T08:29:50Z</time>
      </trkpt>
      <trkpt lat="50.34466" lon="3.25353">
        <ele>30.8</ele>
        <time>2023-01-22T08:29:51Z</time>
      </trkpt>
      <trkpt lat="50.34465" lon="3.25351">
        <ele>30.7</ele>
        <time>2023-01-22T08:29:52Z</time>
      </trkpt>
      <trkpt lat="50.34465" lon="3.25349">
        <ele>30.7</ele>
        <time>2023-01-22T08:29:53Z</time>
      </trkpt>
      <trkpt lat="50.34465" lon="3.25347">
        <ele>30.6</ele>
        <time>2023-01-22T08:29:54Z</time>
      </trkpt>
      <trkpt lat="50.34465" lon="3.25344">
        <ele>30.6</ele>
        <time>2023-01-22T08:29:55Z</time>
      </trkpt>
      <trkpt lat="50.34465" lon="3.25342">
        <ele>30.5</ele>
        <time>2023-01-22T08:29:56Z</time>
      </trkpt>
      <trkpt lat="50.34465" lon="3.2534">
        <ele>30.4</ele>
        <time>2023-01-22T08:29:57Z</time>
      </trkpt>
      <trkpt lat="50.34465" lon="3.25337">
        <ele>30.4</ele>
        <time>2023-01-22T08:29:58Z</time>
      </trkpt>
      <trkpt lat="50.34465" lon="3.25335">
        <ele>30.3</ele>
        <time>2023-01-22T08:29:59Z</time>
      </trkpt>
      <trkpt lat="50.34464" lon="3.25332">
        <ele>25.406013</ele>
        <time>2023-01-22T08:30:00Z</time>
      </trkpt>
      <trkpt lat="50.34464" lon="3.25329">
        <ele>30.2</ele>
        <time>2023-01-22T08:30:01Z</time>
      </trkpt>
      <trkpt lat="50.34464" lon="3.25327">
        <ele>30.2</ele>
        <time>2023-01-22T08:30:02Z</time>
      </trkpt>
      <trkpt lat="50.34464" lon="3.25325">
        <ele>30.2</ele>
        <time>2023-01-22T08:30:03Z</time>
      </trkpt>
      <trkpt lat="50.34463" lon="3.25323">
        <ele>30.2</ele>
        <time>2023-01-22T08:30:04Z</time>
      </trkpt>
      <trkpt lat="50.34463" lon="3.25321">
        <ele>30.2</ele>
        <time>2023-01-22T08:30:05Z</time>
      </trkpt>
      <trkpt lat="50.34463" lon="3.25319">
        <ele>30.2</ele>
        <time>2023-01-22T08:30:06Z</time>
      </trkpt>
      <trkpt lat="50.34463" lon="3.25317">
        <ele>30.1</ele>
        <time>2023-01-22T08:30:07Z</time>
      </trkpt>
      <trkpt lat="50.34463" lon="3.25315">
        <ele>30.1</ele>
        <time>2023-01-22T08:30:08Z</time>
      </trkpt>
      <trkpt lat="50.34462" lon="3.25313">
        <ele>30.1</ele>
        <time>2023-01-22T08:30:09Z</time>
      </trkpt>
      <trkpt lat="50.34462" lon="3.25312">
        <ele>25.266544</ele>
        <time>2023-01-22T08:30:10Z</time>
      </trkpt>
      <trkpt lat="50.34462" lon="3.2531">
        <ele>30.1</ele>
        <time>2023-01-22T08:30:11Z</time>
      </trkpt>
      <trkpt lat="50.34462" lon="3.25308">
        <ele>30</ele>
        <time>2023-01-22T08:30:12Z</time>
      </trkpt>
      <trkpt lat="50.34463" lon="3.25305">
        <ele>30</ele>
        <time>2023-01-22T08:30:13Z</time>
      </trkpt>
      <trkpt lat="50.34463" lon="3.25303">
        <ele>30</ele>
        <time>2023-01-22T08:30:14Z</time>
      </trkpt>
      <trkpt lat="50.34462" lon="3.25302">
        <ele>30</ele>
        <time>2023-01-22T08:30:15Z</time>
      </trkpt>
      <trkpt lat="50.34462" lon="3.253">
        <ele>30</ele>
        <time>2023-01-22T08:30:16Z</time>
      </trkpt>
      <trkpt lat="50.34462" lon="3.25297">
        <ele>30</ele>
        <time>2023-01-22T08:30:17Z</time>
      </trkpt>
      <trkpt lat="50.34462" lon="3.25295">
        <ele>30</ele>
        <time>2023-01-22T08:30:18Z</time>
      </trkpt>
      <trkpt lat="50.34462" lon="3.25294">
        <ele>30</ele>
        <time>2023-01-22T08:30:19Z</time>
      </trkpt>
      <trkpt lat="50.34462" lon="3.25292">
        <ele>25.110947</ele>
        <time>2023-01-22T08:30:20Z</time>
      </trkpt>
      <trkpt lat="50.34462" lon="3.25291">
        <ele>30</ele>
        <time>2023-01-22T08:30:21Z</time>
      </trkpt>
      <trkpt lat="50.34462" lon="3.25289">
        <ele>30</ele>
        <time>2023-01-22T08:30:22Z</time>
      </trkpt>
      <trkpt lat="50.34462" lon="3.25287">
        <ele>30</ele>
        <time>2023-01-22T08:30:23Z</time>
      </trkpt>
      <trkpt lat="50.34462" lon="3.25285">
        <ele>30</ele>
        <time>2023-01-22T08:30:24Z</time>
      </trkpt>
      <trkpt lat="50.34463" lon="3.25283">
        <ele>30</ele>
        <time>2023-01-22T08:30:25Z</time>
      </trkpt>
      <trkpt lat="50.34463" lon="3.25282">
        <ele>30</ele>
        <time>2023-01-22T08:30:26Z</time>
      </trkpt>
      <trkpt lat="50.34462" lon="3.25279">
        <ele>30</ele>
        <time>2023-01-22T08:30:27Z</time>
      </trkpt>
      <trkpt lat="50.34462" lon="3.25277">
        <ele>30</ele>
        <time>2023-01-22T08:30:28Z</time>
      </trkpt>
      <trkpt lat="50.34462" lon="3.25275">
        <ele>30</ele>
        <time>2023-01-22T08:30:29Z</time>
      </trkpt>
      <trkpt lat="50.34462" lon="3.25273">
        <ele>24.97717</ele>
        <time>2023-01-22T08:30:30Z</time>
      </trkpt>
      <trkpt lat="50.34462" lon="3.25271">
        <ele>30</ele>
        <time>2023-01-22T08:30:31Z</time>
      </trkpt>
      <trkpt lat="50.34462" lon="3.25268">
        <ele>30</ele>
        <time>2023-01-22T08:30:32Z</time>
      </trkpt>
      <trkpt lat="50.34462" lon="3.25266">
        <ele>30</ele>
        <time>2023-01-22T08:30:33Z</time>
      </trkpt>
      <trkpt lat="50.34463" lon="3.25264">
        <ele>30</ele>
        <time>2023-01-22T08:30:34Z</time>
      </trkpt>
      <trkpt lat="50.34462" lon="3.25262">
        <ele>30</ele>
        <time>2023-01-22T08:30:35Z</time>
      </trkpt>
      <trkpt lat="50.34462" lon="3.2526">
        <ele>30</ele>
        <time>2023-01-22T08:30:36Z</time>
      </trkpt>
      <trkpt lat="50.34462" lon="3.25259">
        <ele>30</ele>
        <time>2023-01-22T08:30:37Z</time>
      </trkpt>
      <trkpt lat="50.34462" lon="3.25257">
        <ele>30</ele>
        <time>2023-01-22T08:30:38Z</time>
      </trkpt>
      <trkpt lat="50.34462" lon="3.25256">
        <ele>30</ele>
        <time>2023-01-22T08:30:39Z</time>
      </trkpt>
      <trkpt lat="50.34462" lon="3.25254">
        <ele>24.768446</ele>
        <time>2023-01-22T08:30:40Z</time>
      </trkpt>
      <trkpt lat="50.34462" lon="3.25253">
        <ele>30</ele>
        <time>2023-01-22T08:30:41Z</time>
      </trkpt>
      <trkpt lat="50.34462" lon="3.25251">
        <ele>30</ele>
        <time>2023-01-22T08:30:42Z</time>
      </trkpt>
      <trkpt lat="50.34462" lon="3.25249">
        <ele>30</ele>
        <time>2023-01-22T08:30:43Z</time>
      </trkpt>
      <trkpt lat="50.34462" lon="3.25247">
        <ele>30</ele>
        <time>2023-01-22T08:30:44Z</time>
      </trkpt>
      <trkpt lat="50.34462" lon="3.25245">
        <ele>30</ele>
        <time>2023-01-22T08:30:45Z</time>
      </trkpt>
      <trkpt lat="50.34462" lon="3.25242">
        <ele>30</ele>
        <time>2023-01-22T08:30:46Z</time>
      </trkpt>
      <trkpt lat="50.34463" lon="3.2524">
        <ele>30</ele>
        <time>2023-01-22T08:30:47Z</time>
      </trkpt>
      <trkpt lat="50.34463" lon="3.25238">
        <ele>30</ele>
        <time>2023-01-22T08:30:48Z</time>
      </trkpt>
      <trkpt lat="50.34463" lon="3.25236">
        <ele>30</ele>
        <time>2023-01-22T08:30:49Z</time>
      </trkpt>
      <trkpt lat="50.34463" lon="3.25234">
        <ele>24.598621</ele>
        <time>2023-01-22T08:30:50Z</time>
      </trkpt>
      <trkpt lat="50.34462" lon="3.25233">
        <ele>30</ele>
        <time>2023-01-22T08:30:51Z</time>
      </trkpt>
      <trkpt lat="50.34462" lon="3.25231">
        <ele>30</ele>
        <time>2023-01-22T08:30:52Z</time>
      </trkpt>
      <trkpt lat="50.34462" lon="3.25228">
        <ele>30</ele>
        <time>2023-01-22T08:30:53Z</time>
      </trkpt>
      <trkpt lat="50.34462" lon="3.25226">
        <ele>30</ele>
        <time>2023-01-22T08:30:54Z</time>
      </trkpt>
      <trkpt lat="50.34462" lon="3.25224">
        <ele>30</ele>
        <time>2023-01-22T08:30:55Z</time>
      </trkpt>
      <trkpt lat="50.34462" lon="3.25222">
        <ele>30</ele>
        <time>2023-01-22T08:30:56Z</time>
      </trkpt>
      <trkpt lat="50.34462" lon="3.2522">
        <ele>29.9</ele>
        <time>2023-01-22T08:30:57Z</time>
      </trkpt>
      <trkpt lat="50.34462" lon="3.25218">
        <ele>29.9</ele>
        <time>2023-01-22T08:30:58Z</time>
      </trkpt>
      <trkpt lat="50.34462" lon="3.25216">
        <ele>29.8</ele>
        <time>2023-01-22T08:30:59Z</time>
      </trkpt>
      <trkpt lat="50.34463" lon="3.25214">
        <ele>24.431644</ele>
        <time>2023-01-22T08:31:00Z</time>
      </trkpt>
      <trkpt lat="50.34463" lon="3.25212">
        <ele>29.8</ele>
        <time>2023-01-22T08:31:01Z</time>
      </trkpt>
      <trkpt lat="50.34463" lon="3.25211">
        <ele>29.7</ele>
        <time>2023-01-22T08:31:02Z</time>
      </trkpt>
      <trkpt lat="50.34463" lon="3.25208">
        <ele>29.7</ele>
        <time>2023-01-22T08:31:03Z</time>
      </trkpt>
      <trkpt lat="50.34463" lon="3.25207">
        <ele>29.6</ele>
        <time>2023-01-22T08:31:04Z</time>
      </trkpt>
      <trkpt lat="50.34463" lon="3.25205">
        <ele>29.6</ele>
        <time>2023-01-22T08:31:05Z</time>
      </trkpt>
      <trkpt lat="50.34463" lon="3.25203">
        <ele>29.5</ele>
        <time>2023-01-22T08:31:06Z</time>
      </trkpt>
      <trkpt lat="50.34463" lon="3.25201">
        <ele>29.5</ele>
        <time>2023-01-22T08:31:07Z</time>
      </trkpt>
      <trkpt lat="50.34462" lon="3.252">
        <ele>29.5</ele>
        <time>2023-01-22T08:31:08Z</time>
      </trkpt>
      <trkpt lat="50.34462" lon="3.25198">
        <ele>29.4</ele>
        <time>2023-01-22T08:31:09Z</time>
      </trkpt>
      <trkpt lat="50.34462" lon="3.25197">
        <ele>24.56921</ele>
        <time>2023-01-22T08:31:10Z</time>
      </trkpt>
      <trkpt lat="50.34462" lon="3.25195">
        <ele>29.4</ele>
        <time>2023-01-22T08:31:11Z</time>
      </trkpt>
      <trkpt lat="50.34462" lon="3.25194">
        <ele>29.4</ele>
        <time>2023-01-22T08:31:12Z</time>
      </trkpt>
      <trkpt lat="50.34462" lon="3.25193">
        <ele>29.3</ele>
        <time>2023-01-22T08:31:13Z</time>
      </trkpt>
      <trkpt lat="50.34462" lon="3.25192">
        <ele>29.3</ele>
        <time>2023-01-22T08:31:14Z</time>
      </trkpt>
      <trkpt lat="50.34462" lon="3.2519">
        <ele>29.3</ele>
        <time>2023-01-22T08:31:15Z</time>
      </trkpt>
      <trkpt lat="50.34462" lon="3.25188">
        <ele>29.3</ele>
        <time>2023-01-22T08:31:16Z</time>
      </trkpt>
      <trkpt lat="50.34462" lon="3.25186">
        <ele>29.3</ele>
        <time>2023-01-22T08:31:17Z</time>
      </trkpt>
      <trkpt lat="50.34462" lon="3.25185">
        <ele>29.2</ele>
        <time>2023-01-22T08:31:18Z</time>
      </trkpt>
      <trkpt lat="50.34462" lon="3.25183">
        <ele>29.2</ele>
        <time>2023-01-22T08:31:19Z</time>
      </trkpt>
      <trkpt lat="50.34462" lon="3.25181">
        <ele>24.435438</ele>
        <time>2023-01-22T08:31:20Z</time>
      </trkpt>
      <trkpt lat="50.34462" lon="3.25179">
        <ele>29.2</ele>
        <time>2023-01-22T08:31:21Z</time>
      </trkpt>
      <trkpt lat="50.34462" lon="3.25177">
        <ele>29.1</ele>
        <time>2023-01-22T08:31:22Z</time>
      </trkpt>
      <trkpt lat="50.34462" lon="3.25175">
        <ele>29.1</ele>
        <time>2023-01-22T08:31:23Z</time>
      </trkpt>
      <trkpt lat="50.34462" lon="3.25173">
        <ele>29.1</ele>
        <time>2023-01-22T08:31:24Z</time>
      </trkpt>
      <trkpt lat="50.34461" lon="3.2517">
        <ele>29.1</ele>
        <time>2023-01-22T08:31:25Z</time>
      </trkpt>
      <trkpt lat="50.34461" lon="3.25167">
        <ele>29</ele>
        <time>2023-01-22T08:31:26Z</time>
      </trkpt>
      <trkpt lat="50.3446" lon="3.25165">
        <ele>29</ele>
        <time>2023-01-22T08:31:27Z</time>
      </trkpt>
      <trkpt lat="50.3446" lon="3.25163">
        <ele>29</ele>
        <time>2023-01-22T08:31:28Z</time>
      </trkpt>
      <trkpt lat="50.3446" lon="3.2516">
        <ele>29</ele>
        <time>2023-01-22T08:31:29Z</time>
      </trkpt>
      <trkpt lat="50.3446" lon="3.25159">
        <ele>24.078718</ele>
        <time>2023-01-22T08:31:30Z</time>
      </trkpt>
      <trkpt lat="50.3446" lon="3.25157">
        <ele>29</ele>
        <time>2023-01-22T08:31:31Z</time>
      </trkpt>
      <trkpt lat="50.34461" lon="3.25154">
        <ele>29</ele>
        <time>2023-01-22T08:31:32Z</time>
      </trkpt>
      <trkpt lat="50.34461" lon="3.25152">
        <ele>29</ele>
        <time>2023-01-22T08:31:33Z</time>
      </trkpt>
      <trkpt lat="50.34461" lon="3.2515">
        <ele>29</ele>
        <time>2023-01-22T08:31:34Z</time>
      </trkpt>
      <trkpt lat="50.3446" lon="3.25148">
        <ele>29</ele>
        <time>2023-01-22T08:31:35Z</time>
      </trkpt>
      <trkpt lat="50.3446" lon="3.25145">
        <ele>29</ele>
        <time>2023-01-22T08:31:36Z</time>
      </trkpt>
      <trkpt lat="50.34459" lon="3.25141">
        <ele>29</ele>
        <time>2023-01-22T08:31:37Z</time>
      </trkpt>
      <trkpt lat="50.34459" lon="3.25137">
        <ele>29</ele>
        <time>2023-01-22T08:31:38Z</time>
      </trkpt>
      <trkpt lat="50.34458" lon="3.25134">
        <ele>29</ele>
        <time>2023-01-22T08:31:39Z</time>
      </trkpt>
      <trkpt lat="50.34458" lon="3.25131">
        <ele>24.031282</ele>
        <time>2023-01-22T08:31:40Z</time>
      </trkpt>
      <trkpt lat="50.34458" lon="3.25128">
        <ele>29</ele>
        <time>2023-01-22T08:31:41Z</time>
      </trkpt>
      <trkpt lat="50.34458" lon="3.25125">
        <ele>29</ele>
        <time>2023-01-22T08:31:42Z</time>
      </trkpt>
      <trkpt lat="50.34458" lon="3.25122">
        <ele>29</ele>
        <time>2023-01-22T08:31:43Z</time>
      </trkpt>
      <trkpt lat="50.34457" lon="3.2512">
        <ele>29</ele>
        <time>2023-01-22T08:31:44Z</time>
      </trkpt>
      <trkpt lat="50.34457" lon="3.25117">
        <ele>29</ele>
        <time>2023-01-22T08:31:45Z</time>
      </trkpt>
      <trkpt lat="50.34457" lon="3.25115">
        <ele>29</ele>
        <time>2023-01-22T08:31:46Z</time>
      </trkpt>
      <trkpt lat="50.34457" lon="3.25113">
        <ele>29</ele>
        <time>2023-01-22T08:31:47Z</time>
      </trkpt>
      <trkpt lat="50.34457" lon="3.2511">
        <ele>29</ele>
        <time>2023-01-22T08:31:48Z</time>
      </trkpt>
      <trkpt lat="50.34456" lon="3.25108">
        <ele>28.9</ele>
        <time>2023-01-22T08:31:49Z</time>
      </trkpt>
      <trkpt lat="50.34456" lon="3.25105">
        <ele>23.7609</ele>
        <time>2023-01-22T08:31:50Z</time>
      </trkpt>
      <trkpt lat="50.34456" lon="3.25103">
        <ele>28.9</ele>
        <time>2023-01-22T08:31:51Z</time>
      </trkpt>
      <trkpt lat="50.34456" lon="3.25101">
        <ele>28.8</ele>
        <time>2023-01-22T08:31:52Z</time>
      </trkpt>
      <trkpt lat="50.34456" lon="3.25099">
        <ele>28.8</ele>
        <time>2023-01-22T08:31:53Z</time>
      </trkpt>
      <trkpt lat="50.34456" lon="3.25097">
        <ele>28.8</ele>
        <time>2023-01-22T08:31:54Z</time>
      </trkpt>
      <trkpt lat="50.34456" lon="3.25095">
        <ele>28.8</ele>
        <time>2023-01-22T08:31:55Z</time>
      </trkpt>
      <trkpt lat="50.34456" lon="3.25092">
        <ele>28.7</ele>
        <time>2023-01-22T08:31:56Z</time>
      </trkpt>
      <trkpt lat="50.34456" lon="3.2509">
        <ele>28.7</ele>
        <time>2023-01-22T08:31:57Z</time>
      </trkpt>
      <trkpt lat="50.34456" lon="3.25088">
        <ele>28.7</ele>
        <time>2023-01-22T08:31:58Z</time>
      </trkpt>
      <trkpt lat="50.34456" lon="3.25086">
        <ele>28.6</ele>
        <time>2023-01-22T08:31:59Z</time>
      </trkpt>
      <trkpt lat="50.34456" lon="3.25083">
        <ele>23.525623</ele>
        <time>2023-01-22T08:32:00Z</time>
      </trkpt>
      <trkpt lat="50.34455" lon="3.25081">
        <ele>28.6</ele>
        <time>2023-01-22T08:32:01Z</time>
      </trkpt>
      <trkpt lat="50.34455" lon="3.25079">
        <ele>28.5</ele>
        <time>2023-01-22T08:32:02Z</time>
      </trkpt>
      <trkpt lat="50.34455" lon="3.25077">
        <ele>28.5</ele>
        <time>2023-01-22T08:32:03Z</time>
      </trkpt>
      <trkpt lat="50.34454" lon="3.25073">
        <ele>28.4</ele>
        <time>2023-01-22T08:32:04Z</time>
      </trkpt>
      <trkpt lat="50.34454" lon="3.2507">
        <ele>28.3</ele>
        <time>2023-01-22T08:32:05Z</time>
      </trkpt>
      <trkpt lat="50.34454" lon="3.25067">
        <ele>28.3</ele>
        <time>2023-01-22T08:32:06Z</time>
      </trkpt>
      <trkpt lat="50.34454" lon="3.25065">
        <ele>28.2</ele>
        <time>2023-01-22T08:32:07Z</time>
      </trkpt>
      <trkpt lat="50.34453" lon="3.25062">
        <ele>28.2</ele>
        <time>2023-01-22T08:32:08Z</time>
      </trkpt>
      <trkpt lat="50.34453" lon="3.25059">
        <ele>28.1</ele>
        <time>2023-01-22T08:32:09Z</time>
      </trkpt>
      <trkpt lat="50.34453" lon="3.25057">
        <ele>23.350117</ele>
        <time>2023-01-22T08:32:10Z</time>
      </trkpt>
      <trkpt lat="50.34452" lon="3.25054">
        <ele>28</ele>
        <time>2023-01-22T08:32:11Z</time>
      </trkpt>
      <trkpt lat="50.34452" lon="3.25052">
        <ele>28</ele>
        <time>2023-01-22T08:32:12Z</time>
      </trkpt>
      <trkpt lat="50.34452" lon="3.25049">
        <ele>28</ele>
        <time>2023-01-22T08:32:13Z</time>
      </trkpt>
      <trkpt lat="50.34452" lon="3.25046">
        <ele>28</ele>
        <time>2023-01-22T08:32:14Z</time>
      </trkpt>
      <trkpt lat="50.34452" lon="3.25044">
        <ele>28</ele>
        <time>2023-01-22T08:32:15Z</time>
      </trkpt>
      <trkpt lat="50.34452" lon="3.25041">
        <ele>28</ele>
        <time>2023-01-22T08:32:16Z</time>
      </trkpt>
      <trkpt lat="50.34452" lon="3.25038">
        <ele>28</ele>
        <time>2023-01-22T08:32:17Z</time>
      </trkpt>
      <trkpt lat="50.34452" lon="3.25036">
        <ele>28</ele>
        <time>2023-01-22T08:32:18Z</time>
      </trkpt>
      <trkpt lat="50.34451" lon="3.25034">
        <ele>28</ele>
        <time>2023-01-22T08:32:19Z</time>
      </trkpt>
      <trkpt lat="50.34451" lon="3.25032">
        <ele>23.143305</ele>
        <time>2023-01-22T08:32:20Z</time>
      </trkpt>
      <trkpt lat="50.34451" lon="3.2503">
        <ele>28</ele>
        <time>2023-01-22T08:32:21Z</time>
      </trkpt>
      <trkpt lat="50.34451" lon="3.25028">
        <ele>28</ele>
        <time>2023-01-22T08:32:22Z</time>
      </trkpt>
      <trkpt lat="50.34451" lon="3.25026">
        <ele>28</ele>
        <time>2023-01-22T08:32:23Z</time>
      </trkpt>
      <trkpt lat="50.34451" lon="3.25025">
        <ele>28</ele>
        <time>2023-01-22T08:32:24Z</time>
      </trkpt>
      <trkpt lat="50.34451" lon="3.25022">
        <ele>28</ele>
        <time>2023-01-22T08:32:25Z</time>
      </trkpt>
      <trkpt lat="50.34451" lon="3.2502">
        <ele>28</ele>
        <time>2023-01-22T08:32:26Z</time>
      </trkpt>
      <trkpt lat="50.34451" lon="3.25019">
        <ele>28</ele>
        <time>2023-01-22T08:32:27Z</time>
      </trkpt>
      <trkpt lat="50.34451" lon="3.25018">
        <ele>28</ele>
        <time>2023-01-22T08:32:28Z</time>
      </trkpt>
      <trkpt lat="50.34451" lon="3.25018">
        <ele>28</ele>
        <time>2023-01-22T08:32:29Z</time>
      </trkpt>
      <trkpt lat="50.34451" lon="3.25018">
        <ele>23.31122</ele>
        <time>2023-01-22T08:32:30Z</time>
      </trkpt>
      <trkpt lat="50.34451" lon="3.25018">
        <ele>28</ele>
        <time>2023-01-22T08:32:31Z</time>
      </trkpt>
      <trkpt lat="50.34451" lon="3.25018">
        <ele>28</ele>
        <time>2023-01-22T08:32:32Z</time>
      </trkpt>
      <trkpt lat="50.34451" lon="3.25018">
        <ele>28</ele>
        <time>2023-01-22T08:32:33Z</time>
      </trkpt>
      <trkpt lat="50.3445" lon="3.25017">
        <ele>28</ele>
        <time>2023-01-22T08:32:34Z</time>
      </trkpt>
      <trkpt lat="50.3445" lon="3.25016">
        <ele>28</ele>
        <time>2023-01-22T08:32:35Z</time>
      </trkpt>
      <trkpt lat="50.34449" lon="3.25016">
        <ele>28</ele>
        <time>2023-01-22T08:32:36Z</time>
      </trkpt>
      <trkpt lat="50.3445" lon="3.25015">
        <ele>28</ele>
        <time>2023-01-22T08:32:37Z</time>
      </trkpt>
      <trkpt lat="50.3445" lon="3.25015">
        <ele>28</ele>
        <time>2023-01-22T08:32:38Z</time>
        <extensions>
          <gpxtpx:TrackPointExtension xmlns:gpxtpx="http://www.garmin.com/xmlschemas/TrackPointExtension/v1">
            <gpxtpx:hr>140</gpxtpx:hr>
          </gpxtpx:TrackPointExtension>
        </extensions>
      </trkpt>
      <trkpt lat="50.3445" lon="3.25015">
        <ele>28</ele>
        <time>2023-01-22T08:32:39Z</time>
        <extensions>
          <gpxtpx:TrackPointExtension xmlns:gpxtpx="http://www.garmin.com/xmlschemas/TrackPointExtension/v1">
            <gpxtpx:hr>139</gpxtpx:hr>
          </gpxtpx:TrackPointExtension>
        </extensions>
      </trkpt>
      <trkpt lat="50.3445" lon="3.25015">
        <ele>23.179354</ele>
        <time>2023-01-22T08:32:40Z</time>
      </trkpt>
      <trkpt lat="50.34449" lon="3.25015">
        <ele>28</ele>
        <time>2023-01-22T08:32:41Z</time>
      </trkpt>
      <trkpt lat="50.34449" lon="3.25014">
        <ele>28</ele>
        <time>2023-01-22T08:32:42Z</time>
      </trkpt>
      <trkpt lat="50.34449" lon="3.25014">
        <ele>28</ele>
        <time>2023-01-22T08:32:43Z</time>
      </trkpt>
      <trkpt lat="50.34449" lon="3.25014">
        <ele>28</ele>
        <time>2023-01-22T08:32:44Z</time>
      </trkpt>
      <trkpt lat="50.34449" lon="3.25015">
        <ele>28</ele>
        <time>2023-01-22T08:32:45Z</time>
      </trkpt>
      <trkpt lat="50.34449" lon="3.25014">
        <ele>28</ele>
        <time>2023-01-22T08:32:46Z</time>
      </trkpt>
      <trkpt lat="50.34449" lon="3.25014">
        <ele>28</ele>
        <time>2023-01-22T08:32:47Z</time>
      </trkpt>
      <trkpt lat="50.3445" lon="3.25014">
        <ele>28</ele>
        <time>2023-01-22T08:32:48Z</time>
      </trkpt>
      <trkpt lat="50.34449" lon="3.25014">
        <ele>28</ele>
        <time>2023-01-22T08:32:49Z</time>
      </trkpt>
      <trkpt lat="50.34449" lon="3.25013">
        <ele>23.067411</ele>
        <time>2023-01-22T08:32:50Z</time>
      </trkpt>
      <trkpt lat="50.34449" lon="3.25013">
        <ele>28</ele>
        <time>2023-01-22T08:32:51Z</time>
      </trkpt>
      <trkpt lat="50.3445" lon="3.25014">
        <ele>28</ele>
        <time>2023-01-22T08:32:52Z</time>
      </trkpt>
      <trkpt lat="50.3445" lon="3.25014">
        <ele>28</ele>
        <time>2023-01-22T08:32:53Z</time>
      </trkpt>
      <trkpt lat="50.3445" lon="3.25014">
        <ele>28</ele>
        <time>2023-01-22T08:32:54Z</time>
      </trkpt>
      <trkpt lat="50.3445" lon="3.25014">
        <ele>28</ele>
        <time>2023-01-22T08:32:55Z</time>
      </trkpt>
      <trkpt lat="50.3445" lon="3.25014">
        <ele>28</ele>
        <time>2023-01-22T08:32:56Z</time>
      </trkpt>
      <trkpt lat="50.3445" lon="3.25014">
        <ele>28</ele>
        <time>2023-01-22T08:32:57Z</time>
      </trkpt>
      <trkpt lat="50.3445" lon="3.25013">
        <ele>28</ele>
        <time>2023-01-22T08:32:58Z</time>
      </trkpt>
      <trkpt lat="50.3445" lon="3.25013">
        <ele>28</ele>
        <time>2023-01-22T08:32:59Z</time>
      </trkpt>
      <trkpt lat="50.3445" lon="3.25013">
        <ele>23.075</ele>
        <time>2023-01-22T08:33:00Z</time>
      </trkpt>
      <trkpt lat="50.3445" lon="3.25013">
        <ele>28</ele>
        <time>2023-01-22T08:33:01Z</time>
      </trkpt>
      <trkpt lat="50.3445" lon="3.25013">
        <ele>28</ele>
        <time>2023-01-22T08:33:02Z</time>
      </trkpt>
      <trkpt lat="50.34449" lon="3.25013">
        <ele>28</ele>
        <time>2023-01-22T08:33:03Z</time>
      </trkpt>
      <trkpt lat="50.34449" lon="3.25013">
        <ele>28</ele>
        <time>2023-01-22T08:33:04Z</time>
      </trkpt>
      <trkpt lat="50.34449" lon="3.25013">
        <ele>28</ele>
        <time>2023-01-22T08:33:05Z</time>
      </trkpt>
      <trkpt lat="50.34449" lon="3.25013">
        <ele>28</ele>
        <time>2023-01-22T08:33:06Z</time>
      </trkpt>
      <trkpt lat="50.34449" lon="3.25013">
        <ele>28</ele>
        <time>2023-01-22T08:33:07Z</time>
      </trkpt>
      <trkpt lat="50.34449" lon="3.25013">
        <ele>28</ele>
        <time>2023-01-22T08:33:08Z</time>
      </trkpt>
      <trkpt lat="50.34449" lon="3.25013">
        <ele>28</ele>
        <time>2023-01-22T08:33:09Z</time>
      </trkpt>
      <trkpt lat="50.34449" lon="3.25013">
        <ele>23.06836</ele>
        <time>2023-01-22T08:33:10Z</time>
      </trkpt>
      <trkpt lat="50.34449" lon="3.25013">
        <ele>28</ele>
        <time>2023-01-22T08:33:11Z</time>
      </trkpt>
      <trkpt lat="50.34449" lon="3.25013">
        <ele>28</ele>
        <time>2023-01-22T08:33:12Z</time>
      </trkpt>
      <trkpt lat="50.34449" lon="3.25013">
        <ele>28</ele>
        <time>2023-01-22T08:33:13Z</time>
      </trkpt>
      <trkpt lat="50.34449" lon="3.25013">
        <ele>28</ele>
        <time>2023-01-22T08:33:14Z</time>
      </trkpt>
      <trkpt lat="50.34449" lon="3.25013">
        <ele>28</ele>
        <time>2023-01-22T08:33:15Z</time>
      </trkpt>
      <trkpt lat="50.34449" lon="3.25013">
        <ele>28</ele>
        <time>2023-01-22T08:33:16Z</time>
      </trkpt>
      <trkpt lat="50.34449" lon="3.25013">
        <ele>28</ele>
        <time>2023-01-22T08:33:17Z</time>
      </trkpt>
      <trkpt lat="50.34449" lon="3.25013">
        <ele>28</ele>
        <time>2023-01-22T08:33:18Z</time>
      </trkpt>
      <trkpt lat="50.34449" lon="3.25013">
        <ele>28</ele>
        <time>2023-01-22T08:33:19Z</time>
      </trkpt>
      <trkpt lat="50.34449" lon="3.25013">
        <ele>23.075949</ele>
        <time>2023-01-22T08:33:20Z</time>
      </trkpt>
      <trkpt lat="50.34449" lon="3.25013">
        <ele>28</ele>
        <time>2023-01-22T08:33:21Z</time>
      </trkpt>
      <trkpt lat="50.34449" lon="3.25013">
        <ele>28</ele>
        <time>2023-01-22T08:33:22Z</time>
      </trkpt>
      <trkpt lat="50.34449" lon="3.25013">
        <ele>28</ele>
        <time>2023-01-22T08:33:23Z</time>
      </trkpt>
      <trkpt lat="50.34449" lon="3.25013">
        <ele>28</ele>
        <time>2023-01-22T08:33:24Z</time>
      </trkpt>
      <trkpt lat="50.34449" lon="3.25013">
        <ele>28</ele>
        <time>2023-01-22T08:33:25Z</time>
      </trkpt>
      <trkpt lat="50.34449" lon="3.25013">
        <ele>28</ele>
        <time>2023-01-22T08:33:26Z</time>
      </trkpt>
      <trkpt lat="50.34449" lon="3.25013">
        <ele>28</ele>
        <time>2023-01-22T08:33:27Z</time>
      </trkpt>
      <trkpt lat="50.34449" lon="3.25013">
        <ele>28</ele>
        <time>2023-01-22T08:33:28Z</time>
      </trkpt>
      <trkpt lat="50.34449" lon="3.25013">
        <ele>28</ele>
        <time>2023-01-22T08:33:29Z</time>
      </trkpt>
      <trkpt lat="50.34449" lon="3.25013">
        <ele>23.109152</ele>
        <time>2023-01-22T08:33:30Z</time>
      </trkpt>
      <trkpt lat="50.34449" lon="3.25013">
        <ele>28</ele>
        <time>2023-01-22T08:33:31Z</time>
      </trkpt>
      <trkpt lat="50.34449" lon="3.25013">
        <ele>28</ele>
        <time>2023-01-22T08:33:32Z</time>
      </trkpt>
      <trkpt lat="50.34449" lon="3.25013">
        <ele>28</ele>
        <time>2023-01-22T08:33:33Z</time>
      </trkpt>
      <trkpt lat="50.34449" lon="3.25013">
        <ele>28</ele>
        <time>2023-01-22T08:33:34Z</time>
      </trkpt>
      <trkpt lat="50.34449" lon="3.25013">
        <ele>28</ele>
        <time>2023-01-22T08:33:35Z</time>
      </trkpt>
      <trkpt lat="50.34449" lon="3.25013">
        <ele>28</ele>
        <time>2023-01-22T08:33:36Z</time>
      </trkpt>
      <trkpt lat="50.34449" lon="3.25013">
        <ele>28</ele>
        <time>2023-01-22T08:33:37Z</time>
      </trkpt>
      <trkpt lat="50.34449" lon="3.25013">
        <ele>28</ele>
        <time>2023-01-22T08:33:38Z</time>
      </trkpt>
      <trkpt lat="50.34449" lon="3.25013">
        <ele>28</ele>
        <time>2023-01-22T08:33:39Z</time>
      </trkpt>
      <trkpt lat="50.34449" lon="3.25013">
        <ele>23.274221</ele>
        <time>2023-01-22T08:33:40Z</time>
      </trkpt>
      <trkpt lat="50.34449" lon="3.25013">
        <ele>28</ele>
        <time>2023-01-22T08:33:41Z</time>
      </trkpt>
      <trkpt lat="50.34449" lon="3.25013">
        <ele>28</ele>
        <time>2023-01-22T08:33:42Z</time>
      </trkpt>
      <trkpt lat="50.34449" lon="3.25013">
        <ele>28</ele>
        <time>2023-01-22T08:33:43Z</time>
      </trkpt>
      <trkpt lat="50.34449" lon="3.25013">
        <ele>28</ele>
        <time>2023-01-22T08:33:44Z</time>
      </trkpt>
      <trkpt lat="50.34449" lon="3.25013">
        <ele>28</ele>
        <time>2023-01-22T08:33:45Z</time>
      </trkpt>
      <trkpt lat="50.34449" lon="3.25013">
        <ele>28</ele>
        <time>2023-01-22T08:33:46Z</time>
      </trkpt>
      <trkpt lat="50.34449" lon="3.25013">
        <ele>28</ele>
        <time>2023-01-22T08:33:47Z</time>
      </trkpt>
      <trkpt lat="50.34449" lon="3.25013">
        <ele>28</ele>
        <time>2023-01-22T08:33:48Z</time>
      </trkpt>
      <trkpt lat="50.34449" lon="3.25013">
        <ele>28</ele>
        <time>2023-01-22T08:33:49Z</time>
      </trkpt>
      <trkpt lat="50.34449" lon="3.25013">
        <ele>23.03231</ele>
        <time>2023-01-22T08:33:50Z</time>
      </trkpt>
      <trkpt lat="50.34449" lon="3.25013">
        <ele>28</ele>
        <time>2023-01-22T08:33:51Z</time>
      </trkpt>
      <trkpt lat="50.34449" lon="3.25013">
        <ele>28</ele>
        <time>2023-01-22T08:33:52Z</time>
      </trkpt>
      <trkpt lat="50.3445" lon="3.25013">
        <ele>28</ele>
        <time>2023-01-22T08:33:53Z</time>
      </trkpt>
      <trkpt lat="50.3445" lon="3.25013">
        <ele>28</ele>
        <time>2023-01-22T08:33:54Z</time>
      </trkpt>
      <trkpt lat="50.3445" lon="3.25013">
        <ele>28</ele>
        <time>2023-01-22T08:33:55Z</time>
      </trkpt>
      <trkpt lat="50.3445" lon="3.25013">
        <ele>28</ele>
        <time>2023-01-22T08:33:56Z</time>
      </trkpt>
      <trkpt lat="50.3445" lon="3.25013">
        <ele>28</ele>
        <time>2023-01-22T08:33:57Z</time>
      </trkpt>
      <trkpt lat="50.3445" lon="3.25013">
        <ele>28</ele>
        <time>2023-01-22T08:33:58Z</time>
      </trkpt>
      <trkpt lat="50.3445" lon="3.25013">
        <ele>28</ele>
        <time>2023-01-22T08:33:59Z</time>
      </trkpt>
      <trkpt lat="50.3445" lon="3.25013">
        <ele>23.227737</ele>
        <time>2023-01-22T08:34:00Z</time>
      </trkpt>
      <trkpt lat="50.3445" lon="3.25013">
        <ele>28</ele>
        <time>2023-01-22T08:34:01Z</time>
      </trkpt>
      <trkpt lat="50.3445" lon="3.25013">
        <ele>28</ele>
        <time>2023-01-22T08:34:02Z</time>
      </trkpt>
      <trkpt lat="50.3445" lon="3.25013">
        <ele>28</ele>
        <time>2023-01-22T08:34:03Z</time>
      </trkpt>
      <trkpt lat="50.3445" lon="3.25013">
        <ele>28</ele>
        <time>2023-01-22T08:34:04Z</time>
      </trkpt>
      <trkpt lat="50.3445" lon="3.25013">
        <ele>28</ele>
        <time>2023-01-22T08:34:05Z</time>
      </trkpt>
      <trkpt lat="50.3445" lon="3.25013">
        <ele>28</ele>
        <time>2023-01-22T08:34:06Z</time>
      </trkpt>
      <trkpt lat="50.3445" lon="3.25013">
        <ele>28</ele>
        <time>2023-01-22T08:34:07Z</time>
      </trkpt>
      <trkpt lat="50.3445" lon="3.25013">
        <ele>28</ele>
        <time>2023-01-22T08:34:08Z</time>
      </trkpt>
      <trkpt lat="50.3445" lon="3.25013">
        <ele>28</ele>
        <time>2023-01-22T08:34:09Z</time>
      </trkpt>
      <trkpt lat="50.3445" lon="3.25013">
        <ele>23.227737</ele>
        <time>2023-01-22T08:34:10Z</time>
      </trkpt>
      <trkpt lat="50.3445" lon="3.25013">
        <ele>28</ele>
        <time>2023-01-22T08:34:11Z</time>
      </trkpt>
      <trkpt lat="50.3445" lon="3.25013">
        <ele>28</ele>
        <time>2023-01-22T08:34:12Z</time>
      </trkpt>
      <trkpt lat="50.34449" lon="3.25013">
        <ele>28</ele>
        <time>2023-01-22T08:34:13Z</time>
      </trkpt>
      <trkpt lat="50.34449" lon="3.25013">
        <ele>28</ele>
        <time>2023-01-22T08:34:14Z</time>
      </trkpt>
      <trkpt lat="50.34449" lon="3.25013">
        <ele>28</ele>
        <time>2023-01-22T08:34:15Z</time>
      </trkpt>
      <trkpt lat="50.34449" lon="3.25013">
        <ele>28</ele>
        <time>2023-01-22T08:34:16Z</time>
      </trkpt>
      <trkpt lat="50.34449" lon="3.25013">
        <ele>28</ele>
        <time>2023-01-22T08:34:17Z</time>
      </trkpt>
      <trkpt lat="50.34449" lon="3.25013">
        <ele>28</ele>
        <time>2023-01-22T08:34:18Z</time>
      </trkpt>
      <trkpt lat="50.3445" lon="3.25013">
        <ele>28</ele>
        <time>2023-01-22T08:34:19Z</time>
      </trkpt>
      <trkpt lat="50.3445" lon="3.25013">
        <ele>22.990568</ele>
        <time>2023-01-22T08:34:20Z</time>
      </trkpt>
      <trkpt lat="50.3445" lon="3.25013">
        <ele>28</ele>
        <time>2023-01-22T08:34:21Z</time>
      </trkpt>
      <trkpt lat="50.3445" lon="3.25013">
        <ele>28</ele>
        <time>2023-01-22T08:34:22Z</time>
      </trkpt>
      <trkpt lat="50.3445" lon="3.25013">
        <ele>28</ele>
        <time>2023-01-22T08:34:23Z</time>
      </trkpt>
      <trkpt lat="50.3445" lon="3.25013">
        <ele>28</ele>
        <time>2023-01-22T08:34:24Z</time>
      </trkpt>
      <trkpt lat="50.3445" lon="3.25013">
        <ele>28</ele>
        <time>2023-01-22T08:34:25Z</time>
      </trkpt>
      <trkpt lat="50.3445" lon="3.25013">
        <ele>28</ele>
        <time>2023-01-22T08:34:26Z</time>
      </trkpt>
      <trkpt lat="50.3445" lon="3.25013">
        <ele>28</ele>
        <time>2023-01-22T08:34:27Z</time>
      </trkpt>
      <trkpt lat="50.3445" lon="3.25013">
        <ele>28</ele>
        <time>2023-01-22T08:34:28Z</time>
      </trkpt>
      <trkpt lat="50.3445" lon="3.25013">
        <ele>28</ele>
        <time>2023-01-22T08:34:29Z</time>
      </trkpt>
      <trkpt lat="50.3445" lon="3.25013">
        <ele>22.890959</ele>
        <time>2023-01-22T08:34:30Z</time>
      </trkpt>
      <trkpt lat="50.3445" lon="3.25013">
        <ele>28</ele>
        <time>2023-01-22T08:34:31Z</time>
      </trkpt>
      <trkpt lat="50.3445" lon="3.25013">
        <ele>28</ele>
        <time>2023-01-22T08:34:32Z</time>
      </trkpt>
      <trkpt lat="50.3445" lon="3.25013">
        <ele>28</ele>
        <time>2023-01-22T08:34:33Z</time>
      </trkpt>
      <trkpt lat="50.3445" lon="3.25013">
        <ele>28</ele>
        <time>2023-01-22T08:34:34Z</time>
      </trkpt>
      <trkpt lat="50.3445" lon="3.25013">
        <ele>28</ele>
        <time>2023-01-22T08:34:35Z</time>
      </trkpt>
      <trkpt lat="50.3445" lon="3.25013">
        <ele>28</ele>
        <time>2023-01-22T08:34:36Z</time>
      </trkpt>
      <trkpt lat="50.3445" lon="3.25013">
        <ele>28</ele>
        <time>2023-01-22T08:34:37Z</time>
      </trkpt>
      <trkpt lat="50.3445" lon="3.25013">
        <ele>28</ele>
        <time>2023-01-22T08:34:38Z</time>
      </trkpt>
      <trkpt lat="50.3445" lon="3.25012">
        <ele>28</ele>
        <time>2023-01-22T08:34:39Z</time>
      </trkpt>
      <trkpt lat="50.3445" lon="3.25012">
        <ele>23.063616</ele>
        <time>2023-01-22T08:34:40Z</time>
      </trkpt>
      <trkpt lat="50.34451" lon="3.25013">
        <ele>28</ele>
        <time>2023-01-22T08:34:41Z</time>
      </trkpt>
      <trkpt lat="50.34451" lon="3.25012">
        <ele>28</ele>
        <time>2023-01-22T08:34:42Z</time>
      </trkpt>
      <trkpt lat="50.34451" lon="3.25012">
        <ele>28</ele>
        <time>2023-01-22T08:34:43Z</time>
      </trkpt>
      <trkpt lat="50.34451" lon="3.25012">
        <ele>28</ele>
        <time>2023-01-22T08:34:44Z</time>
      </trkpt>
      <trkpt lat="50.34451" lon="3.25012">
        <ele>28</ele>
        <time>2023-01-22T08:34:45Z</time>
      </trkpt>
      <trkpt lat="50.34451" lon="3.25012">
        <ele>28</ele>
        <time>2023-01-22T08:34:46Z</time>
      </trkpt>
      <trkpt lat="50.34451" lon="3.25012">
        <ele>28</ele>
        <time>2023-01-22T08:34:47Z</time>
      </trkpt>
      <trkpt lat="50.34451" lon="3.25012">
        <ele>28</ele>
        <time>2023-01-22T08:34:48Z</time>
      </trkpt>
      <trkpt lat="50.34451" lon="3.25012">
        <ele>28</ele>
        <time>2023-01-22T08:34:49Z</time>
      </trkpt>
      <trkpt lat="50.3445" lon="3.25012">
        <ele>23.189789</ele>
        <time>2023-01-22T08:34:50Z</time>
      </trkpt>
      <trkpt lat="50.3445" lon="3.25011">
        <ele>28</ele>
        <time>2023-01-22T08:34:51Z</time>
      </trkpt>
      <trkpt lat="50.3445" lon="3.25011">
        <ele>28</ele>
        <time>2023-01-22T08:34:52Z</time>
      </trkpt>
      <trkpt lat="50.3445" lon="3.25011">
        <ele>28</ele>
        <time>2023-01-22T08:34:53Z</time>
      </trkpt>
      <trkpt lat="50.3445" lon="3.25011">
        <ele>28</ele>
        <time>2023-01-22T08:34:54Z</time>
      </trkpt>
      <trkpt lat="50.34451" lon="3.25011">
        <ele>28</ele>
        <time>2023-01-22T08:34:55Z</time>
      </trkpt>
      <trkpt lat="50.3445" lon="3.25011">
        <ele>28</ele>
        <time>2023-01-22T08:34:56Z</time>
      </trkpt>
      <trkpt lat="50.3445" lon="3.25011">
        <ele>28</ele>
        <time>2023-01-22T08:34:57Z</time>
      </trkpt>
      <trkpt lat="50.3445" lon="3.25011">
        <ele>28</ele>
        <time>2023-01-22T08:34:58Z</time>
      </trkpt>
      <trkpt lat="50.34449" lon="3.25011">
        <ele>28</ele>
        <time>2023-01-22T08:34:59Z</time>
      </trkpt>
      <trkpt lat="50.34449" lon="3.25011">
        <ele>23.069307</ele>
        <time>2023-01-22T08:35:00Z</time>
      </trkpt>
      <trkpt lat="50.34449" lon="3.25011">
        <ele>28</ele>
        <time>2023-01-22T08:35:01Z</time>
      </trkpt>
      <trkpt lat="50.34449" lon="3.25011">
        <ele>28</ele>
        <time>2023-01-22T08:35:02Z</time>
      </trkpt>
      <trkpt lat="50.34449" lon="3.25011">
        <ele>28</ele>
        <time>2023-01-22T08:35:03Z</time>
      </trkpt>
      <trkpt lat="50.34449" lon="3.25011">
        <ele>28</ele>
        <time>2023-01-22T08:35:04Z</time>
      </trkpt>
      <trkpt lat="50.34449" lon="3.25011">
        <ele>28</ele>
        <time>2023-01-22T08:35:05Z</time>
      </trkpt>
      <trkpt lat="50.34449" lon="3.25011">
        <ele>28</ele>
        <time>2023-01-22T08:35:06Z</time>
      </trkpt>
      <trkpt lat="50.34449" lon="3.25011">
        <ele>28</ele>
        <time>2023-01-22T08:35:07Z</time>
      </trkpt>
      <trkpt lat="50.34449" lon="3.2501">
        <ele>28</ele>
        <time>2023-01-22T08:35:08Z</time>
      </trkpt>
      <trkpt lat="50.34449" lon="3.25011">
        <ele>28</ele>
        <time>2023-01-22T08:35:09Z</time>
      </trkpt>
      <trkpt lat="50.34449" lon="3.25011">
        <ele>22.948828</ele>
        <time>2023-01-22T08:35:10Z</time>
      </trkpt>
      <trkpt lat="50.34449" lon="3.25011">
        <ele>28</ele>
        <time>2023-01-22T08:35:11Z</time>
      </trkpt>
      <trkpt lat="50.34449" lon="3.25011">
        <ele>28</ele>
        <time>2023-01-22T08:35:12Z</time>
      </trkpt>
      <trkpt lat="50.34449" lon="3.25011">
        <ele>28</ele>
        <time>2023-01-22T08:35:13Z</time>
      </trkpt>
      <trkpt lat="50.34449" lon="3.25011">
        <ele>28</ele>
        <time>2023-01-22T08:35:14Z</time>
      </trkpt>
      <trkpt lat="50.34449" lon="3.25011">
        <ele>28</ele>
        <time>2023-01-22T08:35:15Z</time>
      </trkpt>
      <trkpt lat="50.34449" lon="3.25011">
        <ele>28</ele>
        <time>2023-01-22T08:35:16Z</time>
      </trkpt>
      <trkpt lat="50.34449" lon="3.25011">
        <ele>28</ele>
        <time>2023-01-22T08:35:17Z</time>
      </trkpt>
      <trkpt lat="50.34449" lon="3.25011">
        <ele>28</ele>
        <time>2023-01-22T08:35:18Z</time>
      </trkpt>
      <trkpt lat="50.34449" lon="3.25011">
        <ele>28</ele>
        <time>2023-01-22T08:35:19Z</time>
      </trkpt>
      <trkpt lat="50.34449" lon="3.25011">
        <ele>23.015234</ele>
        <time>2023-01-22T08:35:20Z</time>
      </trkpt>
      <trkpt lat="50.34449" lon="3.25011">
        <ele>28</ele>
        <time>2023-01-22T08:35:21Z</time>
      </trkpt>
      <trkpt lat="50.34449" lon="3.25011">
        <ele>28</ele>
        <time>2023-01-22T08:35:22Z</time>
      </trkpt>
      <trkpt lat="50.34449" lon="3.25011">
        <ele>28</ele>
        <time>2023-01-22T08:35:23Z</time>
      </trkpt>
      <trkpt lat="50.34449" lon="3.25011">
        <ele>28</ele>
        <time>2023-01-22T08:35:24Z</time>
      </trkpt>
      <trkpt lat="50.34449" lon="3.25011">
        <ele>28</ele>
        <time>2023-01-22T08:35:25Z</time>
      </trkpt>
      <trkpt lat="50.34449" lon="3.25011">
        <ele>28</ele>
        <time>2023-01-22T08:35:26Z</time>
      </trkpt>
      <trkpt lat="50.3445" lon="3.25011">
        <ele>28</ele>
        <time>2023-01-22T08:35:27Z</time>
      </trkpt>
      <trkpt lat="50.3445" lon="3.25011">
        <ele>28</ele>
        <time>2023-01-22T08:35:28Z</time>
      </trkpt>
      <trkpt lat="50.3445" lon="3.25011">
        <ele>28</ele>
        <time>2023-01-22T08:35:29Z</time>
      </trkpt>
      <trkpt lat="50.3445" lon="3.25011">
        <ele>23.071205</ele>
        <time>2023-01-22T08:35:30Z</time>
      </trkpt>
      <trkpt lat="50.3445" lon="3.25011">
        <ele>28</ele>
        <time>2023-01-22T08:35:31Z</time>
      </trkpt>
      <trkpt lat="50.3445" lon="3.25011">
        <ele>28</ele>
        <time>2023-01-22T08:35:32Z</time>
      </trkpt>
      <trkpt lat="50.3445" lon="3.25011">
        <ele>28</ele>
        <time>2023-01-22T08:35:33Z</time>
      </trkpt>
      <trkpt lat="50.3445" lon="3.25011">
        <ele>28</ele>
        <time>2023-01-22T08:35:34Z</time>
      </trkpt>
      <trkpt lat="50.3445" lon="3.25011">
        <ele>28</ele>
        <time>2023-01-22T08:35:35Z</time>
      </trkpt>
      <trkpt lat="50.3445" lon="3.25011">
        <ele>28</ele>
        <time>2023-01-22T08:35:36Z</time>
      </trkpt>
      <trkpt lat="50.3445" lon="3.25011">
        <ele>28</ele>
        <time>2023-01-22T08:35:37Z</time>
      </trkpt>
      <trkpt lat="50.3445" lon="3.25011">
        <ele>28</ele>
        <time>2023-01-22T08:35:38Z</time>
      </trkpt>
      <trkpt lat="50.3445" lon="3.25011">
        <ele>28</ele>
        <time>2023-01-22T08:35:39Z</time>
      </trkpt>
      <trkpt lat="50.3445" lon="3.25011">
        <ele>23.130024</ele>
        <time>2023-01-22T08:35:40Z</time>
      </trkpt>
      <trkpt lat="50.34449" lon="3.25011">
        <ele>28</ele>
        <time>2023-01-22T08:35:41Z</time>
      </trkpt>
      <trkpt lat="50.3445" lon="3.25011">
        <ele>28</ele>
        <time>2023-01-22T08:35:42Z</time>
      </trkpt>
      <trkpt lat="50.3445" lon="3.25011">
        <ele>28</ele>
        <time>2023-01-22T08:35:43Z</time>
      </trkpt>
      <trkpt lat="50.3445" lon="3.25011">
        <ele>28</ele>
        <time>2023-01-22T08:35:44Z</time>
      </trkpt>
      <trkpt lat="50.34449" lon="3.25012">
        <ele>28</ele>
        <time>2023-01-22T08:35:45Z</time>
      </trkpt>
      <trkpt lat="50.34449" lon="3.25011">
        <ele>28</ele>
        <time>2023-01-22T08:35:46Z</time>
      </trkpt>
      <trkpt lat="50.34449" lon="3.25011">
        <ele>28</ele>
        <time>2023-01-22T08:35:47Z</time>
      </trkpt>
      <trkpt lat="50.34449" lon="3.25011">
        <ele>28</ele>
        <time>2023-01-22T08:35:48Z</time>
      </trkpt>
      <trkpt lat="50.34449" lon="3.25011">
        <ele>28</ele>
        <time>2023-01-22T08:35:49Z</time>
      </trkpt>
      <trkpt lat="50.34449" lon="3.25011">
        <ele>23.095871</ele>
        <time>2023-01-22T08:35:50Z</time>
      </trkpt>
      <trkpt lat="50.34449" lon="3.25011">
        <ele>28</ele>
        <time>2023-01-22T08:35:51Z</time>
      </trkpt>
      <trkpt lat="50.34449" lon="3.25011">
        <ele>28</ele>
        <time>2023-01-22T08:35:52Z</time>
      </trkpt>
      <trkpt lat="50.34448" lon="3.2501">
        <ele>28</ele>
        <time>2023-01-22T08:35:53Z</time>
      </trkpt>
      <trkpt lat="50.34448" lon="3.25009">
        <ele>28</ele>
        <time>2023-01-22T08:35:54Z</time>
      </trkpt>
      <trkpt lat="50.34447" lon="3.25008">
        <ele>28</ele>
        <time>2023-01-22T08:35:55Z</time>
      </trkpt>
      <trkpt lat="50.34446" lon="3.25007">
        <ele>28</ele>
        <time>2023-01-22T08:35:56Z</time>
      </trkpt>
      <trkpt lat="50.34446" lon="3.25007">
        <ele>28</ele>
        <time>2023-01-22T08:35:57Z</time>
      </trkpt>
      <trkpt lat="50.34446" lon="3.25007">
        <ele>28</ele>
        <time>2023-01-22T08:35:58Z</time>
      </trkpt>
      <trkpt lat="50.34447" lon="3.25007">
        <ele>28</ele>
        <time>2023-01-22T08:35:59Z</time>
      </trkpt>
      <trkpt lat="50.34447" lon="3.25007">
        <ele>23.054129</ele>
        <time>2023-01-22T08:36:00Z</time>
      </trkpt>
      <trkpt lat="50.34447" lon="3.25007">
        <ele>28</ele>
        <time>2023-01-22T08:36:01Z</time>
      </trkpt>
      <trkpt lat="50.34447" lon="3.25007">
        <ele>28</ele>
        <time>2023-01-22T08:36:02Z</time>
      </trkpt>
      <trkpt lat="50.34447" lon="3.25007">
        <ele>28</ele>
        <time>2023-01-22T08:36:03Z</time>
      </trkpt>
      <trkpt lat="50.34447" lon="3.25007">
        <ele>28</ele>
        <time>2023-01-22T08:36:04Z</time>
      </trkpt>
      <trkpt lat="50.34447" lon="3.25007">
        <ele>28</ele>
        <time>2023-01-22T08:36:05Z</time>
      </trkpt>
      <trkpt lat="50.34447" lon="3.25006">
        <ele>28</ele>
        <time>2023-01-22T08:36:06Z</time>
      </trkpt>
      <trkpt lat="50.34447" lon="3.25006">
        <ele>28</ele>
        <time>2023-01-22T08:36:07Z</time>
      </trkpt>
      <trkpt lat="50.34447" lon="3.25006">
        <ele>28</ele>
        <time>2023-01-22T08:36:08Z</time>
      </trkpt>
      <trkpt lat="50.34447" lon="3.25006">
        <ele>28</ele>
        <time>2023-01-22T08:36:09Z</time>
      </trkpt>
      <trkpt lat="50.34447" lon="3.25006">
        <ele>22.867243</ele>
        <time>2023-01-22T08:36:10Z</time>
      </trkpt>
      <trkpt lat="50.34447" lon="3.25006">
        <ele>28</ele>
        <time>2023-01-22T08:36:11Z</time>
      </trkpt>
      <trkpt lat="50.34447" lon="3.25006">
        <ele>28</ele>
        <time>2023-01-22T08:36:12Z</time>
      </trkpt>
      <trkpt lat="50.34447" lon="3.25006">
        <ele>28</ele>
        <time>2023-01-22T08:36:13Z</time>
      </trkpt>
      <trkpt lat="50.34448" lon="3.25006">
        <ele>28</ele>
        <time>2023-01-22T08:36:14Z</time>
      </trkpt>
      <trkpt lat="50.34448" lon="3.25006">
        <ele>28</ele>
        <time>2023-01-22T08:36:15Z</time>
      </trkpt>
      <trkpt lat="50.34447" lon="3.25006">
        <ele>28</ele>
        <time>2023-01-22T08:36:16Z</time>
      </trkpt>
      <trkpt lat="50.34447" lon="3.25006">
        <ele>28</ele>
        <time>2023-01-22T08:36:17Z</time>
      </trkpt>
      <trkpt lat="50.34447" lon="3.25006">
        <ele>28</ele>
        <time>2023-01-22T08:36:18Z</time>
      </trkpt>
      <trkpt lat="50.34447" lon="3.25006">
        <ele>28</ele>
        <time>2023-01-22T08:36:19Z</time>
      </trkpt>
      <trkpt lat="50.34447" lon="3.25006">
        <ele>22.863447</ele>
        <time>2023-01-22T08:36:20Z</time>
      </trkpt>
      <trkpt lat="50.34447" lon="3.25006">
        <ele>28</ele>
        <time>2023-01-22T08:36:21Z</time>
      </trkpt>
      <trkpt lat="50.34447" lon="3.25005">
        <ele>28</ele>
        <time>2023-01-22T08:36:22Z</time>
      </trkpt>
      <trkpt lat="50.34447" lon="3.25005">
        <ele>28</ele>
        <time>2023-01-22T08:36:23Z</time>
      </trkpt>
      <trkpt lat="50.34447" lon="3.25004">
        <ele>28</ele>
        <time>2023-01-22T08:36:24Z</time>
      </trkpt>
      <trkpt lat="50.34447" lon="3.25004">
        <ele>28</ele>
        <time>2023-01-22T08:36:25Z</time>
      </trkpt>
      <trkpt lat="50.34447" lon="3.25004">
        <ele>28</ele>
        <time>2023-01-22T08:36:26Z</time>
      </trkpt>
      <trkpt lat="50.34447" lon="3.25004">
        <ele>28</ele>
        <time>2023-01-22T08:36:27Z</time>
      </trkpt>
      <trkpt lat="50.34447" lon="3.25004">
        <ele>28</ele>
        <time>2023-01-22T08:36:28Z</time>
      </trkpt>
      <trkpt lat="50.34447" lon="3.25003">
        <ele>28</ele>
        <time>2023-01-22T08:36:29Z</time>
      </trkpt>
      <trkpt lat="50.34447" lon="3.25003">
        <ele>22.816015</ele>
        <time>2023-01-22T08:36:30Z</time>
      </trkpt>
      <trkpt lat="50.34447" lon="3.25003">
        <ele>28</ele>
        <time>2023-01-22T08:36:31Z</time>
      </trkpt>
      <trkpt lat="50.34447" lon="3.25004">
        <ele>28</ele>
        <time>2023-01-22T08:36:32Z</time>
      </trkpt>
      <trkpt lat="50.34447" lon="3.25004">
        <ele>28</ele>
        <time>2023-01-22T08:36:33Z</time>
      </trkpt>
      <trkpt lat="50.34446" lon="3.25004">
        <ele>28</ele>
        <time>2023-01-22T08:36:34Z</time>
      </trkpt>
      <trkpt lat="50.34446" lon="3.25003">
        <ele>28</ele>
        <time>2023-01-22T08:36:35Z</time>
      </trkpt>
      <trkpt lat="50.34446" lon="3.25003">
        <ele>28</ele>
        <time>2023-01-22T08:36:36Z</time>
      </trkpt>
      <trkpt lat="50.34444" lon="3.25003">
        <ele>28</ele>
        <time>2023-01-22T08:36:37Z</time>
      </trkpt>
      <trkpt lat="50.34442" lon="3.25002">
        <ele>28</ele>
        <time>2023-01-22T08:36:38Z</time>
      </trkpt>
      <trkpt lat="50.3444" lon="3.25">
        <ele>28</ele>
        <time>2023-01-22T08:36:39Z</time>
      </trkpt>
      <trkpt lat="50.34438" lon="3.24998">
        <ele>22.686049</ele>
        <time>2023-01-22T08:36:40Z</time>
      </trkpt>
      <trkpt lat="50.34435" lon="3.24997">
        <ele>28</ele>
        <time>2023-01-22T08:36:41Z</time>
      </trkpt>
      <trkpt lat="50.34433" lon="3.24995">
        <ele>28</ele>
        <time>2023-01-22T08:36:42Z</time>
      </trkpt>
      <trkpt lat="50.34432" lon="3.24994">
        <ele>28</ele>
        <time>2023-01-22T08:36:43Z</time>
      </trkpt>
      <trkpt lat="50.3443" lon="3.24993">
        <ele>28</ele>
        <time>2023-01-22T08:36:44Z</time>
      </trkpt>
      <trkpt lat="50.34429" lon="3.24992">
        <ele>28</ele>
        <time>2023-01-22T08:36:45Z</time>
        <extensions>
          <gpxtpx:TrackPointExtension xmlns:gpxtpx="http://www.garmin.com/xmlschemas/TrackPointExtension/v1">
            <gpxtpx:hr>126</gpxtpx:hr>
          </gpxtpx:TrackPointExtension>
        </extensions>
      </trkpt>
      <trkpt lat="50.34427" lon="3.24991">
        <ele>28</ele>
        <time>2023-01-22T08:36:46Z</time>
      </trkpt>
      <trkpt lat="50.34425" lon="3.24989">
        <ele>28</ele>
        <time>2023-01-22T08:36:47Z</time>
      </trkpt>
      <trkpt lat="50.34423" lon="3.24988">
        <ele>28</ele>
        <time>2023-01-22T08:36:48Z</time>
      </trkpt>
      <trkpt lat="50.34422" lon="3.24987">
        <ele>28</ele>
        <time>2023-01-22T08:36:49Z</time>
      </trkpt>
      <trkpt lat="50.3442" lon="3.24986">
        <ele>22.707867</ele>
        <time>2023-01-22T08:36:50Z</time>
      </trkpt>
      <trkpt lat="50.34419" lon="3.24985">
        <ele>28</ele>
        <time>2023-01-22T08:36:51Z</time>
      </trkpt>
      <trkpt lat="50.34418" lon="3.24984">
        <ele>28</ele>
        <time>2023-01-22T08:36:52Z</time>
      </trkpt>
      <trkpt lat="50.34416" lon="3.24983">
        <ele>28</ele>
        <time>2023-01-22T08:36:53Z</time>
      </trkpt>
      <trkpt lat="50.34415" lon="3.24982">
        <ele>28</ele>
        <time>2023-01-22T08:36:54Z</time>
      </trkpt>
      <trkpt lat="50.34414" lon="3.24981">
        <ele>28</ele>
        <time>2023-01-22T08:36:55Z</time>
      </trkpt>
      <trkpt lat="50.34412" lon="3.2498">
        <ele>28</ele>
        <time>2023-01-22T08:36:56Z</time>
      </trkpt>
      <trkpt lat="50.34411" lon="3.24979">
        <ele>28</ele>
        <time>2023-01-22T08:36:57Z</time>
      </trkpt>
      <trkpt lat="50.3441" lon="3.24978">
        <ele>28</ele>
        <time>2023-01-22T08:36:58Z</time>
      </trkpt>
      <trkpt lat="50.34409" lon="3.24977">
        <ele>28</ele>
        <time>2023-01-22T08:36:59Z</time>
        <extensions>
          <gpxtpx:TrackPointExtension xmlns:gpxtpx="http://www.garmin.com/xmlschemas/TrackPointExtension/v1">
            <gpxtpx:hr>129</gpxtpx:hr>
          </gpxtpx:TrackPointExtension>
        </extensions>
      </trkpt>
      <trkpt lat="50.34407" lon="3.24976">
        <ele>22.743917</ele>
        <time>2023-01-22T08:37:00Z</time>
      </trkpt>
      <trkpt lat="50.34406" lon="3.24976">
        <ele>28</ele>
        <time>2023-01-22T08:37:01Z</time>
      </trkpt>
      <trkpt lat="50.34405" lon="3.24975">
        <ele>28</ele>
        <time>2023-01-22T08:37:02Z</time>
      </trkpt>
      <trkpt lat="50.34404" lon="3.24974">
        <ele>28</ele>
        <time>2023-01-22T08:37:03Z</time>
      </trkpt>
      <trkpt lat="50.34403" lon="3.24974">
        <ele>28</ele>
        <time>2023-01-22T08:37:04Z</time>
      </trkpt>
      <trkpt lat="50.34401" lon="3.24974">
        <ele>28</ele>
        <time>2023-01-22T08:37:05Z</time>
      </trkpt>
      <trkpt lat="50.344" lon="3.24973">
        <ele>28</ele>
        <time>2023-01-22T08:37:06Z</time>
      </trkpt>
      <trkpt lat="50.34398" lon="3.24972">
        <ele>28</ele>
        <time>2023-01-22T08:37:07Z</time>
      </trkpt>
      <trkpt lat="50.34397" lon="3.24971">
        <ele>28</ele>
        <time>2023-01-22T08:37:08Z</time>
      </trkpt>
      <trkpt lat="50.34395" lon="3.2497">
        <ele>28</ele>
        <time>2023-01-22T08:37:09Z</time>
      </trkpt>
      <trkpt lat="50.34394" lon="3.24968">
        <ele>22.773325</ele>
        <time>2023-01-22T08:37:10Z</time>
      </trkpt>
      <trkpt lat="50.34393" lon="3.24967">
        <ele>28</ele>
        <time>2023-01-22T08:37:11Z</time>
      </trkpt>
      <trkpt lat="50.34391" lon="3.24966">
        <ele>28</ele>
        <time>2023-01-22T08:37:12Z</time>
      </trkpt>
      <trkpt lat="50.3439" lon="3.24965">
        <ele>28</ele>
        <time>2023-01-22T08:37:13Z</time>
      </trkpt>
      <trkpt lat="50.34389" lon="3.24963">
        <ele>28</ele>
        <time>2023-01-22T08:37:14Z</time>
      </trkpt>
      <trkpt lat="50.34388" lon="3.24962">
        <ele>28</ele>
        <time>2023-01-22T08:37:15Z</time>
      </trkpt>
      <trkpt lat="50.34387" lon="3.24961">
        <ele>28</ele>
        <time>2023-01-22T08:37:16Z</time>
      </trkpt>
      <trkpt lat="50.34386" lon="3.24959">
        <ele>28</ele>
        <time>2023-01-22T08:37:17Z</time>
      </trkpt>
      <trkpt lat="50.34385" lon="3.24958">
        <ele>28</ele>
        <time>2023-01-22T08:37:18Z</time>
      </trkpt>
      <trkpt lat="50.34384" lon="3.24957">
        <ele>28</ele>
        <time>2023-01-22T08:37:19Z</time>
        <extensions>
          <gpxtpx:TrackPointExtension xmlns:gpxtpx="http://www.garmin.com/xmlschemas/TrackPointExtension/v1">
            <gpxtpx:hr>132</gpxtpx:hr>
          </gpxtpx:TrackPointExtension>
        </extensions>
      </trkpt>
      <trkpt lat="50.34383" lon="3.24955">
        <ele>22.794195</ele>
        <time>2023-01-22T08:37:20Z</time>
      </trkpt>
      <trkpt lat="50.34382" lon="3.24954">
        <ele>28</ele>
        <time>2023-01-22T08:37:21Z</time>
      </trkpt>
      <trkpt lat="50.3438" lon="3.24953">
        <ele>28</ele>
        <time>2023-01-22T08:37:22Z</time>
      </trkpt>
      <trkpt lat="50.34379" lon="3.24952">
        <ele>28</ele>
        <time>2023-01-22T08:37:23Z</time>
      </trkpt>
      <trkpt lat="50.34378" lon="3.24951">
        <ele>28</ele>
        <time>2023-01-22T08:37:24Z</time>
      </trkpt>
      <trkpt lat="50.34377" lon="3.24949">
        <ele>28</ele>
        <time>2023-01-22T08:37:25Z</time>
      </trkpt>
      <trkpt lat="50.34375" lon="3.24948">
        <ele>28</ele>
        <time>2023-01-22T08:37:26Z</time>
      </trkpt>
      <trkpt lat="50.34374" lon="3.24946">
        <ele>28</ele>
        <time>2023-01-22T08:37:27Z</time>
      </trkpt>
      <trkpt lat="50.34373" lon="3.24946">
        <ele>28</ele>
        <time>2023-01-22T08:37:28Z</time>
      </trkpt>
      <trkpt lat="50.34372" lon="3.24944">
        <ele>28</ele>
        <time>2023-01-22T08:37:29Z</time>
      </trkpt>
      <trkpt lat="50.3437" lon="3.24943">
        <ele>22.878626</ele>
        <time>2023-01-22T08:37:30Z</time>
      </trkpt>
      <trkpt lat="50.34369" lon="3.24942">
        <ele>28</ele>
        <time>2023-01-22T08:37:31Z</time>
      </trkpt>
      <trkpt lat="50.34368" lon="3.24941">
        <ele>28</ele>
        <time>2023-01-22T08:37:32Z</time>
      </trkpt>
      <trkpt lat="50.34367" lon="3.2494">
        <ele>28</ele>
        <time>2023-01-22T08:37:33Z</time>
      </trkpt>
      <trkpt lat="50.34366" lon="3.24939">
        <ele>28</ele>
        <time>2023-01-22T08:37:34Z</time>
      </trkpt>
      <trkpt lat="50.34365" lon="3.24937">
        <ele>28</ele>
        <time>2023-01-22T08:37:35Z</time>
      </trkpt>
      <trkpt lat="50.34364" lon="3.24935">
        <ele>28</ele>
        <time>2023-01-22T08:37:36Z</time>
      </trkpt>
      <trkpt lat="50.34362" lon="3.24934">
        <ele>28</ele>
        <time>2023-01-22T08:37:37Z</time>
      </trkpt>
      <trkpt lat="50.34361" lon="3.24932">
        <ele>28</ele>
        <time>2023-01-22T08:37:38Z</time>
      </trkpt>
      <trkpt lat="50.34361" lon="3.24931">
        <ele>28</ele>
        <time>2023-01-22T08:37:39Z</time>
        <extensions>
          <gpxtpx:TrackPointExtension xmlns:gpxtpx="http://www.garmin.com/xmlschemas/TrackPointExtension/v1">
            <gpxtpx:hr>130</gpxtpx:hr>
          </gpxtpx:TrackPointExtension>
        </extensions>
      </trkpt>
      <trkpt lat="50.34359" lon="3.2493">
        <ele>22.77048</ele>
        <time>2023-01-22T08:37:40Z</time>
      </trkpt>
      <trkpt lat="50.34359" lon="3.24929">
        <ele>28</ele>
        <time>2023-01-22T08:37:41Z</time>
      </trkpt>
      <trkpt lat="50.34357" lon="3.24928">
        <ele>28</ele>
        <time>2023-01-22T08:37:42Z</time>
      </trkpt>
      <trkpt lat="50.34356" lon="3.24928">
        <ele>28</ele>
        <time>2023-01-22T08:37:43Z</time>
      </trkpt>
      <trkpt lat="50.34355" lon="3.24926">
        <ele>28</ele>
        <time>2023-01-22T08:37:44Z</time>
      </trkpt>
      <trkpt lat="50.34354" lon="3.24925">
        <ele>28</ele>
        <time>2023-01-22T08:37:45Z</time>
      </trkpt>
      <trkpt lat="50.34353" lon="3.24924">
        <ele>28</ele>
        <time>2023-01-22T08:37:46Z</time>
      </trkpt>
      <trkpt lat="50.34351" lon="3.24922">
        <ele>28</ele>
        <time>2023-01-22T08:37:47Z</time>
      </trkpt>
      <trkpt lat="50.3435" lon="3.24921">
        <ele>28</ele>
        <time>2023-01-22T08:37:48Z</time>
      </trkpt>
      <trkpt lat="50.34349" lon="3.24919">
        <ele>28</ele>
        <time>2023-01-22T08:37:49Z</time>
      </trkpt>
      <trkpt lat="50.34348" lon="3.24918">
        <ele>22.704073</ele>
        <time>2023-01-22T08:37:50Z</time>
      </trkpt>
      <trkpt lat="50.34347" lon="3.24917">
        <ele>28</ele>
        <time>2023-01-22T08:37:51Z</time>
      </trkpt>
      <trkpt lat="50.34346" lon="3.24915">
        <ele>28</ele>
        <time>2023-01-22T08:37:52Z</time>
      </trkpt>
      <trkpt lat="50.34345" lon="3.24913">
        <ele>28</ele>
        <time>2023-01-22T08:37:53Z</time>
      </trkpt>
      <trkpt lat="50.34344" lon="3.2491">
        <ele>28</ele>
        <time>2023-01-22T08:37:54Z</time>
      </trkpt>
      <trkpt lat="50.34343" lon="3.24908">
        <ele>28</ele>
        <time>2023-01-22T08:37:55Z</time>
      </trkpt>
      <trkpt lat="50.34341" lon="3.24906">
        <ele>28</ele>
        <time>2023-01-22T08:37:56Z</time>
      </trkpt>
      <trkpt lat="50.3434" lon="3.24904">
        <ele>28</ele>
        <time>2023-01-22T08:37:57Z</time>
      </trkpt>
      <trkpt lat="50.34339" lon="3.24903">
        <ele>28</ele>
        <time>2023-01-22T08:37:58Z</time>
      </trkpt>
      <trkpt lat="50.34338" lon="3.24901">
        <ele>28</ele>
        <time>2023-01-22T08:37:59Z</time>
        <extensions>
          <gpxtpx:TrackPointExtension xmlns:gpxtpx="http://www.garmin.com/xmlschemas/TrackPointExtension/v1">
            <gpxtpx:hr>133</gpxtpx:hr>
          </gpxtpx:TrackPointExtension>
        </extensions>
      </trkpt>
      <trkpt lat="50.34337" lon="3.24899">
        <ele>22.67087</ele>
        <time>2023-01-22T08:38:00Z</time>
      </trkpt>
      <trkpt lat="50.34337" lon="3.24898">
        <ele>28</ele>
        <time>2023-01-22T08:38:01Z</time>
      </trkpt>
      <trkpt lat="50.34336" lon="3.24896">
        <ele>28</ele>
        <time>2023-01-22T08:38:02Z</time>
      </trkpt>
      <trkpt lat="50.34334" lon="3.24895">
        <ele>28</ele>
        <time>2023-01-22T08:38:03Z</time>
      </trkpt>
      <trkpt lat="50.34333" lon="3.24894">
        <ele>28</ele>
        <time>2023-01-22T08:38:04Z</time>
      </trkpt>
      <trkpt lat="50.34332" lon="3.24893">
        <ele>28</ele>
        <time>2023-01-22T08:38:05Z</time>
      </trkpt>
      <trkpt lat="50.3433" lon="3.24891">
        <ele>28.1</ele>
        <time>2023-01-22T08:38:06Z</time>
      </trkpt>
      <trkpt lat="50.34329" lon="3.24889">
        <ele>28.1</ele>
        <time>2023-01-22T08:38:07Z</time>
      </trkpt>
      <trkpt lat="50.34328" lon="3.24888">
        <ele>28.2</ele>
        <time>2023-01-22T08:38:08Z</time>
      </trkpt>
      <trkpt lat="50.34327" lon="3.24887">
        <ele>28.2</ele>
        <time>2023-01-22T08:38:09Z</time>
      </trkpt>
      <trkpt lat="50.34326" lon="3.24885">
        <ele>22.626284</ele>
        <time>2023-01-22T08:38:10Z</time>
      </trkpt>
      <trkpt lat="50.34325" lon="3.24884">
        <ele>28.2</ele>
        <time>2023-01-22T08:38:11Z</time>
      </trkpt>
      <trkpt lat="50.34324" lon="3.24883">
        <ele>28.3</ele>
        <time>2023-01-22T08:38:12Z</time>
      </trkpt>
      <trkpt lat="50.34324" lon="3.24882">
        <ele>28.3</ele>
        <time>2023-01-22T08:38:13Z</time>
      </trkpt>
      <trkpt lat="50.34323" lon="3.2488">
        <ele>28.3</ele>
        <time>2023-01-22T08:38:14Z</time>
      </trkpt>
      <trkpt lat="50.34322" lon="3.24879">
        <ele>28.3</ele>
        <time>2023-01-22T08:38:15Z</time>
      </trkpt>
      <trkpt lat="50.34321" lon="3.24877">
        <ele>28.3</ele>
        <time>2023-01-22T08:38:16Z</time>
      </trkpt>
      <trkpt lat="50.3432" lon="3.24876">
        <ele>28.3</ele>
        <time>2023-01-22T08:38:17Z</time>
      </trkpt>
      <trkpt lat="50.34319" lon="3.24875">
        <ele>28.3</ele>
        <time>2023-01-22T08:38:18Z</time>
      </trkpt>
      <trkpt lat="50.34318" lon="3.24873">
        <ele>28.2</ele>
        <time>2023-01-22T08:38:19Z</time>
      </trkpt>
      <trkpt lat="50.34317" lon="3.24872">
        <ele>22.637667</ele>
        <time>2023-01-22T08:38:20Z</time>
      </trkpt>
      <trkpt lat="50.34316" lon="3.2487">
        <ele>28.2</ele>
        <time>2023-01-22T08:38:21Z</time>
      </trkpt>
      <trkpt lat="50.34316" lon="3.24869">
        <ele>28.2</ele>
        <time>2023-01-22T08:38:22Z</time>
      </trkpt>
      <trkpt lat="50.34315" lon="3.24868">
        <ele>28.2</ele>
        <time>2023-01-22T08:38:23Z</time>
      </trkpt>
      <trkpt lat="50.34314" lon="3.24866">
        <ele>28.1</ele>
        <time>2023-01-22T08:38:24Z</time>
      </trkpt>
      <trkpt lat="50.34314" lon="3.24864">
        <ele>28.1</ele>
        <time>2023-01-22T08:38:25Z</time>
        <extensions>
          <gpxtpx:TrackPointExtension xmlns:gpxtpx="http://www.garmin.com/xmlschemas/TrackPointExtension/v1">
            <gpxtpx:hr>140</gpxtpx:hr>
          </gpxtpx:TrackPointExtension>
        </extensions>
      </trkpt>
      <trkpt lat="50.34312" lon="3.24862">
        <ele>28</ele>
        <time>2023-01-22T08:38:26Z</time>
      </trkpt>
      <trkpt lat="50.34312" lon="3.2486">
        <ele>28</ele>
        <time>2023-01-22T08:38:27Z</time>
      </trkpt>
      <trkpt lat="50.34311" lon="3.24859">
        <ele>28</ele>
        <time>2023-01-22T08:38:28Z</time>
      </trkpt>
      <trkpt lat="50.34309" lon="3.24858">
        <ele>28</ele>
        <time>2023-01-22T08:38:29Z</time>
      </trkpt>
      <trkpt lat="50.34308" lon="3.24856">
        <ele>22.70597</ele>
        <time>2023-01-22T08:38:30Z</time>
      </trkpt>
      <trkpt lat="50.34307" lon="3.24854">
        <ele>28</ele>
        <time>2023-01-22T08:38:31Z</time>
      </trkpt>
      <trkpt lat="50.34306" lon="3.24853">
        <ele>28</ele>
        <time>2023-01-22T08:38:32Z</time>
      </trkpt>
      <trkpt lat="50.34306" lon="3.24852">
        <ele>28</ele>
        <time>2023-01-22T08:38:33Z</time>
      </trkpt>
      <trkpt lat="50.34304" lon="3.2485">
        <ele>28</ele>
        <time>2023-01-22T08:38:34Z</time>
      </trkpt>
      <trkpt lat="50.34304" lon="3.24849">
        <ele>28</ele>
        <time>2023-01-22T08:38:35Z</time>
      </trkpt>
      <trkpt lat="50.34303" lon="3.24847">
        <ele>28</ele>
        <time>2023-01-22T08:38:36Z</time>
      </trkpt>
      <trkpt lat="50.34302" lon="3.24845">
        <ele>28</ele>
        <time>2023-01-22T08:38:37Z</time>
      </trkpt>
      <trkpt lat="50.34301" lon="3.24843">
        <ele>28</ele>
        <time>2023-01-22T08:38:38Z</time>
      </trkpt>
      <trkpt lat="50.343" lon="3.24842">
        <ele>28</ele>
        <time>2023-01-22T08:38:39Z</time>
        <extensions>
          <gpxtpx:TrackPointExtension xmlns:gpxtpx="http://www.garmin.com/xmlschemas/TrackPointExtension/v1">
            <gpxtpx:hr>135</gpxtpx:hr>
          </gpxtpx:TrackPointExtension>
        </extensions>
      </trkpt>
      <trkpt lat="50.34299" lon="3.2484">
        <ele>22.555134</ele>
        <time>2023-01-22T08:38:40Z</time>
      </trkpt>
      <trkpt lat="50.34298" lon="3.24839">
        <ele>28</ele>
        <time>2023-01-22T08:38:41Z</time>
      </trkpt>
      <trkpt lat="50.34297" lon="3.24837">
        <ele>28</ele>
        <time>2023-01-22T08:38:42Z</time>
      </trkpt>
      <trkpt lat="50.34296" lon="3.24836">
        <ele>28</ele>
        <time>2023-01-22T08:38:43Z</time>
      </trkpt>
      <trkpt lat="50.34296" lon="3.24835">
        <ele>28</ele>
        <time>2023-01-22T08:38:44Z</time>
      </trkpt>
      <trkpt lat="50.34295" lon="3.24834">
        <ele>28</ele>
        <time>2023-01-22T08:38:45Z</time>
      </trkpt>
      <trkpt lat="50.34293" lon="3.24832">
        <ele>28</ele>
        <time>2023-01-22T08:38:46Z</time>
      </trkpt>
      <trkpt lat="50.34293" lon="3.24832">
        <ele>28</ele>
        <time>2023-01-22T08:38:47Z</time>
      </trkpt>
      <trkpt lat="50.34292" lon="3.2483">
        <ele>28</ele>
        <time>2023-01-22T08:38:48Z</time>
      </trkpt>
      <trkpt lat="50.34291" lon="3.24829">
        <ele>28</ele>
        <time>2023-01-22T08:38:49Z</time>
      </trkpt>
      <trkpt lat="50.34291" lon="3.24828">
        <ele>22.479242</ele>
        <time>2023-01-22T08:38:50Z</time>
      </trkpt>
      <trkpt lat="50.3429" lon="3.24826">
        <ele>28</ele>
        <time>2023-01-22T08:38:51Z</time>
      </trkpt>
      <trkpt lat="50.3429" lon="3.24825">
        <ele>28</ele>
        <time>2023-01-22T08:38:52Z</time>
      </trkpt>
      <trkpt lat="50.34289" lon="3.24824">
        <ele>28</ele>
        <time>2023-01-22T08:38:53Z</time>
      </trkpt>
      <trkpt lat="50.34288" lon="3.24822">
        <ele>28</ele>
        <time>2023-01-22T08:38:54Z</time>
      </trkpt>
      <trkpt lat="50.34287" lon="3.2482">
        <ele>28</ele>
        <time>2023-01-22T08:38:55Z</time>
      </trkpt>
      <trkpt lat="50.34287" lon="3.24817">
        <ele>28</ele>
        <time>2023-01-22T08:38:56Z</time>
      </trkpt>
      <trkpt lat="50.34286" lon="3.24816">
        <ele>28</ele>
        <time>2023-01-22T08:38:57Z</time>
      </trkpt>
      <trkpt lat="50.34285" lon="3.24814">
        <ele>28</ele>
        <time>2023-01-22T08:38:58Z</time>
      </trkpt>
      <trkpt lat="50.34283" lon="3.24813">
        <ele>28</ele>
        <time>2023-01-22T08:38:59Z</time>
        <extensions>
          <gpxtpx:TrackPointExtension xmlns:gpxtpx="http://www.garmin.com/xmlschemas/TrackPointExtension/v1">
            <gpxtpx:hr>136</gpxtpx:hr>
          </gpxtpx:TrackPointExtension>
        </extensions>
      </trkpt>
      <trkpt lat="50.34282" lon="3.24811">
        <ele>22.591183</ele>
        <time>2023-01-22T08:39:00Z</time>
      </trkpt>
      <trkpt lat="50.34282" lon="3.24809">
        <ele>28</ele>
        <time>2023-01-22T08:39:01Z</time>
      </trkpt>
      <trkpt lat="50.34281" lon="3.24808">
        <ele>28</ele>
        <time>2023-01-22T08:39:02Z</time>
      </trkpt>
      <trkpt lat="50.3428" lon="3.24807">
        <ele>28</ele>
        <time>2023-01-22T08:39:03Z</time>
      </trkpt>
      <trkpt lat="50.34279" lon="3.24805">
        <ele>28</ele>
        <time>2023-01-22T08:39:04Z</time>
      </trkpt>
      <trkpt lat="50.34279" lon="3.24803">
        <ele>28</ele>
        <time>2023-01-22T08:39:05Z</time>
      </trkpt>
      <trkpt lat="50.34278" lon="3.248">
        <ele>28</ele>
        <time>2023-01-22T08:39:06Z</time>
      </trkpt>
      <trkpt lat="50.34277" lon="3.24798">
        <ele>28</ele>
        <time>2023-01-22T08:39:07Z</time>
      </trkpt>
      <trkpt lat="50.34276" lon="3.24796">
        <ele>28</ele>
        <time>2023-01-22T08:39:08Z</time>
      </trkpt>
      <trkpt lat="50.34275" lon="3.24794">
        <ele>28</ele>
        <time>2023-01-22T08:39:09Z</time>
      </trkpt>
      <trkpt lat="50.34274" lon="3.24792">
        <ele>22.446041</ele>
        <time>2023-01-22T08:39:10Z</time>
      </trkpt>
      <trkpt lat="50.34274" lon="3.24791">
        <ele>28</ele>
        <time>2023-01-22T08:39:11Z</time>
      </trkpt>
      <trkpt lat="50.34273" lon="3.24788">
        <ele>28</ele>
        <time>2023-01-22T08:39:12Z</time>
      </trkpt>
      <trkpt lat="50.34272" lon="3.24786">
        <ele>28</ele>
        <time>2023-01-22T08:39:13Z</time>
      </trkpt>
      <trkpt lat="50.34271" lon="3.24784">
        <ele>28</ele>
        <time>2023-01-22T08:39:14Z</time>
      </trkpt>
      <trkpt lat="50.34271" lon="3.24782">
        <ele>28</ele>
        <time>2023-01-22T08:39:15Z</time>
      </trkpt>
      <trkpt lat="50.3427" lon="3.24781">
        <ele>28</ele>
        <time>2023-01-22T08:39:16Z</time>
      </trkpt>
      <trkpt lat="50.3427" lon="3.24779">
        <ele>28</ele>
        <time>2023-01-22T08:39:17Z</time>
      </trkpt>
      <trkpt lat="50.34269" lon="3.24777">
        <ele>28</ele>
        <time>2023-01-22T08:39:18Z</time>
      </trkpt>
      <trkpt lat="50.34268" lon="3.24775">
        <ele>27.9</ele>
        <time>2023-01-22T08:39:19Z</time>
        <extensions>
          <gpxtpx:TrackPointExtension xmlns:gpxtpx="http://www.garmin.com/xmlschemas/TrackPointExtension/v1">
            <gpxtpx:hr>136</gpxtpx:hr>
          </gpxtpx:TrackPointExtension>
        </extensions>
      </trkpt>
      <trkpt lat="50.34267" lon="3.24774">
        <ele>22.317974</ele>
        <time>2023-01-22T08:39:20Z</time>
      </trkpt>
      <trkpt lat="50.34266" lon="3.24772">
        <ele>27.9</ele>
        <time>2023-01-22T08:39:21Z</time>
      </trkpt>
      <trkpt lat="50.34265" lon="3.24771">
        <ele>27.9</ele>
        <time>2023-01-22T08:39:22Z</time>
      </trkpt>
      <trkpt lat="50.34264" lon="3.24769">
        <ele>27.9</ele>
        <time>2023-01-22T08:39:23Z</time>
      </trkpt>
      <trkpt lat="50.34263" lon="3.24768">
        <ele>27.8</ele>
        <time>2023-01-22T08:39:24Z</time>
      </trkpt>
      <trkpt lat="50.34263" lon="3.24767">
        <ele>27.8</ele>
        <time>2023-01-22T08:39:25Z</time>
      </trkpt>
      <trkpt lat="50.34262" lon="3.24765">
        <ele>27.8</ele>
        <time>2023-01-22T08:39:26Z</time>
      </trkpt>
      <trkpt lat="50.34261" lon="3.24763">
        <ele>27.8</ele>
        <time>2023-01-22T08:39:27Z</time>
      </trkpt>
      <trkpt lat="50.3426" lon="3.24762">
        <ele>27.8</ele>
        <time>2023-01-22T08:39:28Z</time>
      </trkpt>
      <trkpt lat="50.34259" lon="3.2476">
        <ele>27.8</ele>
        <time>2023-01-22T08:39:29Z</time>
      </trkpt>
      <trkpt lat="50.34259" lon="3.24759">
        <ele>22.13394</ele>
        <time>2023-01-22T08:39:30Z</time>
      </trkpt>
      <trkpt lat="50.34258" lon="3.24756">
        <ele>27.8</ele>
        <time>2023-01-22T08:39:31Z</time>
      </trkpt>
      <trkpt lat="50.34257" lon="3.24754">
        <ele>27.8</ele>
        <time>2023-01-22T08:39:32Z</time>
      </trkpt>
      <trkpt lat="50.34256" lon="3.24752">
        <ele>27.8</ele>
        <time>2023-01-22T08:39:33Z</time>
      </trkpt>
      <trkpt lat="50.34256" lon="3.24749">
        <ele>27.8</ele>
        <time>2023-01-22T08:39:34Z</time>
      </trkpt>
      <trkpt lat="50.34256" lon="3.24747">
        <ele>27.7</ele>
        <time>2023-01-22T08:39:35Z</time>
      </trkpt>
      <trkpt lat="50.34255" lon="3.24746">
        <ele>27.7</ele>
        <time>2023-01-22T08:39:36Z</time>
      </trkpt>
      <trkpt lat="50.34254" lon="3.24744">
        <ele>27.7</ele>
        <time>2023-01-22T08:39:37Z</time>
      </trkpt>
      <trkpt lat="50.34253" lon="3.24743">
        <ele>27.6</ele>
        <time>2023-01-22T08:39:38Z</time>
      </trkpt>
      <trkpt lat="50.34253" lon="3.24741">
        <ele>27.6</ele>
        <time>2023-01-22T08:39:39Z</time>
        <extensions>
          <gpxtpx:TrackPointExtension xmlns:gpxtpx="http://www.garmin.com/xmlschemas/TrackPointExtension/v1">
            <gpxtpx:hr>140</gpxtpx:hr>
          </gpxtpx:TrackPointExtension>
        </extensions>
      </trkpt>
      <trkpt lat="50.34252" lon="3.24739">
        <ele>22.046665</ele>
        <time>2023-01-22T08:39:40Z</time>
      </trkpt>
      <trkpt lat="50.34251" lon="3.24738">
        <ele>27.5</ele>
        <time>2023-01-22T08:39:41Z</time>
      </trkpt>
      <trkpt lat="50.3425" lon="3.24736">
        <ele>27.5</ele>
        <time>2023-01-22T08:39:42Z</time>
      </trkpt>
      <trkpt lat="50.34249" lon="3.24733">
        <ele>27.4</ele>
        <time>2023-01-22T08:39:43Z</time>
      </trkpt>
      <trkpt lat="50.34248" lon="3.24731">
        <ele>27.4</ele>
        <time>2023-01-22T08:39:44Z</time>
      </trkpt>
      <trkpt lat="50.34248" lon="3.2473">
        <ele>27.3</ele>
        <time>2023-01-22T08:39:45Z</time>
      </trkpt>
      <trkpt lat="50.34247" lon="3.24728">
        <ele>27.3</ele>
        <time>2023-01-22T08:39:46Z</time>
      </trkpt>
      <trkpt lat="50.34246" lon="3.24725">
        <ele>27.2</ele>
        <time>2023-01-22T08:39:47Z</time>
      </trkpt>
      <trkpt lat="50.34246" lon="3.24723">
        <ele>27.2</ele>
        <time>2023-01-22T08:39:48Z</time>
      </trkpt>
      <trkpt lat="50.34245" lon="3.24721">
        <ele>27.2</ele>
        <time>2023-01-22T08:39:49Z</time>
      </trkpt>
      <trkpt lat="50.34244" lon="3.24719">
        <ele>21.91196</ele>
        <time>2023-01-22T08:39:50Z</time>
      </trkpt>
      <trkpt lat="50.34243" lon="3.24717">
        <ele>27.3</ele>
        <time>2023-01-22T08:39:51Z</time>
      </trkpt>
      <trkpt lat="50.34242" lon="3.24715">
        <ele>27.3</ele>
        <time>2023-01-22T08:39:52Z</time>
      </trkpt>
      <trkpt lat="50.34241" lon="3.24713">
        <ele>27.3</ele>
        <time>2023-01-22T08:39:53Z</time>
      </trkpt>
      <trkpt lat="50.3424" lon="3.2471">
        <ele>27.4</ele>
        <time>2023-01-22T08:39:54Z</time>
      </trkpt>
      <trkpt lat="50.34239" lon="3.24708">
        <ele>27.4</ele>
        <time>2023-01-22T08:39:55Z</time>
      </trkpt>
      <trkpt lat="50.34237" lon="3.24706">
        <ele>27.5</ele>
        <time>2023-01-22T08:39:56Z</time>
      </trkpt>
      <trkpt lat="50.34237" lon="3.24704">
        <ele>27.5</ele>
        <time>2023-01-22T08:39:57Z</time>
      </trkpt>
      <trkpt lat="50.34235" lon="3.24702">
        <ele>27.5</ele>
        <time>2023-01-22T08:39:58Z</time>
      </trkpt>
      <trkpt lat="50.34235" lon="3.24701">
        <ele>27.6</ele>
        <time>2023-01-22T08:39:59Z</time>
      </trkpt>
      <trkpt lat="50.34234" lon="3.24699">
        <ele>21.837969</ele>
        <time>2023-01-22T08:40:00Z</time>
      </trkpt>
      <trkpt lat="50.34233" lon="3.24697">
        <ele>27.6</ele>
        <time>2023-01-22T08:40:01Z</time>
      </trkpt>
      <trkpt lat="50.34233" lon="3.24696">
        <ele>27.6</ele>
        <time>2023-01-22T08:40:02Z</time>
      </trkpt>
      <trkpt lat="50.34232" lon="3.24694">
        <ele>27.6</ele>
        <time>2023-01-22T08:40:03Z</time>
      </trkpt>
      <trkpt lat="50.34232" lon="3.24692">
        <ele>27.6</ele>
        <time>2023-01-22T08:40:04Z</time>
      </trkpt>
      <trkpt lat="50.3423" lon="3.2469">
        <ele>27.6</ele>
        <time>2023-01-22T08:40:05Z</time>
      </trkpt>
      <trkpt lat="50.34229" lon="3.24689">
        <ele>27.6</ele>
        <time>2023-01-22T08:40:06Z</time>
      </trkpt>
      <trkpt lat="50.34228" lon="3.24687">
        <ele>27.6</ele>
        <time>2023-01-22T08:40:07Z</time>
      </trkpt>
      <trkpt lat="50.34227" lon="3.24683">
        <ele>27.5</ele>
        <time>2023-01-22T08:40:08Z</time>
      </trkpt>
      <trkpt lat="50.34226" lon="3.24681">
        <ele>27.4</ele>
        <time>2023-01-22T08:40:09Z</time>
      </trkpt>
      <trkpt lat="50.34225" lon="3.24679">
        <ele>21.782001</ele>
        <time>2023-01-22T08:40:10Z</time>
      </trkpt>
      <trkpt lat="50.34224" lon="3.24679">
        <ele>27.4</ele>
        <time>2023-01-22T08:40:11Z</time>
      </trkpt>
      <trkpt lat="50.34223" lon="3.24676">
        <ele>27.3</ele>
        <time>2023-01-22T08:40:12Z</time>
      </trkpt>
      <trkpt lat="50.34222" lon="3.24676">
        <ele>27.3</ele>
        <time>2023-01-22T08:40:13Z</time>
      </trkpt>
      <trkpt lat="50.34221" lon="3.24674">
        <ele>27.3</ele>
        <time>2023-01-22T08:40:14Z</time>
      </trkpt>
      <trkpt lat="50.34221" lon="3.24672">
        <ele>27.2</ele>
        <time>2023-01-22T08:40:15Z</time>
      </trkpt>
      <trkpt lat="50.3422" lon="3.24671">
        <ele>27.2</ele>
        <time>2023-01-22T08:40:16Z</time>
      </trkpt>
      <trkpt lat="50.34219" lon="3.24669">
        <ele>27.2</ele>
        <time>2023-01-22T08:40:17Z</time>
      </trkpt>
      <trkpt lat="50.34219" lon="3.24668">
        <ele>27.2</ele>
        <time>2023-01-22T08:40:18Z</time>
      </trkpt>
      <trkpt lat="50.34218" lon="3.24666">
        <ele>27.1</ele>
        <time>2023-01-22T08:40:19Z</time>
      </trkpt>
      <trkpt lat="50.34218" lon="3.24663">
        <ele>21.55813</ele>
        <time>2023-01-22T08:40:20Z</time>
      </trkpt>
      <trkpt lat="50.34217" lon="3.24661">
        <ele>27.2</ele>
        <time>2023-01-22T08:40:21Z</time>
      </trkpt>
      <trkpt lat="50.34216" lon="3.24658">
        <ele>27.2</ele>
        <time>2023-01-22T08:40:22Z</time>
      </trkpt>
      <trkpt lat="50.34216" lon="3.24656">
        <ele>27.2</ele>
        <time>2023-01-22T08:40:23Z</time>
      </trkpt>
      <trkpt lat="50.34216" lon="3.24653">
        <ele>27.2</ele>
        <time>2023-01-22T08:40:24Z</time>
      </trkpt>
      <trkpt lat="50.34215" lon="3.24651">
        <ele>27.3</ele>
        <time>2023-01-22T08:40:25Z</time>
      </trkpt>
      <trkpt lat="50.34214" lon="3.24649">
        <ele>27.3</ele>
        <time>2023-01-22T08:40:26Z</time>
      </trkpt>
      <trkpt lat="50.34213" lon="3.24648">
        <ele>27.3</ele>
        <time>2023-01-22T08:40:27Z</time>
      </trkpt>
      <trkpt lat="50.34213" lon="3.24646">
        <ele>27.3</ele>
        <time>2023-01-22T08:40:28Z</time>
      </trkpt>
      <trkpt lat="50.34212" lon="3.24644">
        <ele>27.4</ele>
        <time>2023-01-22T08:40:29Z</time>
      </trkpt>
      <trkpt lat="50.34211" lon="3.24642">
        <ele>21.519238</ele>
        <time>2023-01-22T08:40:30Z</time>
      </trkpt>
      <trkpt lat="50.3421" lon="3.2464">
        <ele>27.4</ele>
        <time>2023-01-22T08:40:31Z</time>
      </trkpt>
      <trkpt lat="50.34209" lon="3.24638">
        <ele>27.5</ele>
        <time>2023-01-22T08:40:32Z</time>
      </trkpt>
      <trkpt lat="50.34208" lon="3.24636">
        <ele>27.5</ele>
        <time>2023-01-22T08:40:33Z</time>
      </trkpt>
      <trkpt lat="50.34206" lon="3.24634">
        <ele>27.6</ele>
        <time>2023-01-22T08:40:34Z</time>
      </trkpt>
      <trkpt lat="50.34206" lon="3.24632">
        <ele>27.6</ele>
        <time>2023-01-22T08:40:35Z</time>
      </trkpt>
      <trkpt lat="50.34206" lon="3.2463">
        <ele>27.6</ele>
        <time>2023-01-22T08:40:36Z</time>
      </trkpt>
      <trkpt lat="50.34205" lon="3.24629">
        <ele>27.6</ele>
        <time>2023-01-22T08:40:37Z</time>
      </trkpt>
      <trkpt lat="50.34205" lon="3.24628">
        <ele>27.6</ele>
        <time>2023-01-22T08:40:38Z</time>
        <extensions>
          <gpxtpx:TrackPointExtension xmlns:gpxtpx="http://www.garmin.com/xmlschemas/TrackPointExtension/v1">
            <gpxtpx:hr>140</gpxtpx:hr>
          </gpxtpx:TrackPointExtension>
        </extensions>
      </trkpt>
      <trkpt lat="50.34204" lon="3.24627">
        <ele>27.7</ele>
        <time>2023-01-22T08:40:39Z</time>
      </trkpt>
      <trkpt lat="50.34203" lon="3.24626">
        <ele>21.364614</ele>
        <time>2023-01-22T08:40:40Z</time>
      </trkpt>
      <trkpt lat="50.34203" lon="3.24624">
        <ele>27.7</ele>
        <time>2023-01-22T08:40:41Z</time>
      </trkpt>
      <trkpt lat="50.34201" lon="3.24621">
        <ele>27.7</ele>
        <time>2023-01-22T08:40:42Z</time>
      </trkpt>
      <trkpt lat="50.34201" lon="3.2462">
        <ele>27.8</ele>
        <time>2023-01-22T08:40:43Z</time>
      </trkpt>
      <trkpt lat="50.342" lon="3.24618">
        <ele>27.8</ele>
        <time>2023-01-22T08:40:44Z</time>
      </trkpt>
      <trkpt lat="50.342" lon="3.24617">
        <ele>27.8</ele>
        <time>2023-01-22T08:40:45Z</time>
      </trkpt>
      <trkpt lat="50.34199" lon="3.24616">
        <ele>27.8</ele>
        <time>2023-01-22T08:40:46Z</time>
      </trkpt>
      <trkpt lat="50.34199" lon="3.24614">
        <ele>27.8</ele>
        <time>2023-01-22T08:40:47Z</time>
      </trkpt>
      <trkpt lat="50.34198" lon="3.24613">
        <ele>27.9</ele>
        <time>2023-01-22T08:40:48Z</time>
      </trkpt>
      <trkpt lat="50.34198" lon="3.2461">
        <ele>27.8</ele>
        <time>2023-01-22T08:40:49Z</time>
        <extensions>
          <gpxtpx:TrackPointExtension xmlns:gpxtpx="http://www.garmin.com/xmlschemas/TrackPointExtension/v1">
            <gpxtpx:hr>140</gpxtpx:hr>
          </gpxtpx:TrackPointExtension>
        </extensions>
      </trkpt>
      <trkpt lat="50.34197" lon="3.24608">
        <ele>21.500265</ele>
        <time>2023-01-22T08:40:50Z</time>
      </trkpt>
      <trkpt lat="50.34197" lon="3.24606">
        <ele>27.8</ele>
        <time>2023-01-22T08:40:51Z</time>
      </trkpt>
      <trkpt lat="50.34195" lon="3.24604">
        <ele>27.7</ele>
        <time>2023-01-22T08:40:52Z</time>
      </trkpt>
      <trkpt lat="50.34194" lon="3.24602">
        <ele>27.7</ele>
        <time>2023-01-22T08:40:53Z</time>
      </trkpt>
      <trkpt lat="50.34193" lon="3.246">
        <ele>27.6</ele>
        <time>2023-01-22T08:40:54Z</time>
      </trkpt>
      <trkpt lat="50.34192" lon="3.24598">
        <ele>27.6</ele>
        <time>2023-01-22T08:40:55Z</time>
      </trkpt>
      <trkpt lat="50.34192" lon="3.24597">
        <ele>27.5</ele>
        <time>2023-01-22T08:40:56Z</time>
      </trkpt>
      <trkpt lat="50.3419" lon="3.24594">
        <ele>27.5</ele>
        <time>2023-01-22T08:40:57Z</time>
      </trkpt>
      <trkpt lat="50.3419" lon="3.24593">
        <ele>27.5</ele>
        <time>2023-01-22T08:40:58Z</time>
      </trkpt>
      <trkpt lat="50.34189" lon="3.24591">
        <ele>27.4</ele>
        <time>2023-01-22T08:40:59Z</time>
        <extensions>
          <gpxtpx:TrackPointExtension xmlns:gpxtpx="http://www.garmin.com/xmlschemas/TrackPointExtension/v1">
            <gpxtpx:hr>135</gpxtpx:hr>
          </gpxtpx:TrackPointExtension>
        </extensions>
      </trkpt>
      <trkpt lat="50.34189" lon="3.24588">
        <ele>21.465166</ele>
        <time>2023-01-22T08:41:00Z</time>
      </trkpt>
      <trkpt lat="50.34188" lon="3.24587">
        <ele>27.3</ele>
        <time>2023-01-22T08:41:01Z</time>
      </trkpt>
      <trkpt lat="50.34187" lon="3.24585">
        <ele>27.3</ele>
        <time>2023-01-22T08:41:02Z</time>
      </trkpt>
      <trkpt lat="50.34185" lon="3.24583">
        <ele>27.3</ele>
        <time>2023-01-22T08:41:03Z</time>
      </trkpt>
      <trkpt lat="50.34185" lon="3.24581">
        <ele>27.4</ele>
        <time>2023-01-22T08:41:04Z</time>
      </trkpt>
      <trkpt lat="50.34184" lon="3.2458">
        <ele>27.4</ele>
        <time>2023-01-22T08:41:05Z</time>
      </trkpt>
      <trkpt lat="50.34183" lon="3.24579">
        <ele>27.4</ele>
        <time>2023-01-22T08:41:06Z</time>
      </trkpt>
      <trkpt lat="50.34182" lon="3.24576">
        <ele>27.4</ele>
        <time>2023-01-22T08:41:07Z</time>
      </trkpt>
      <trkpt lat="50.34182" lon="3.24574">
        <ele>27.5</ele>
        <time>2023-01-22T08:41:08Z</time>
      </trkpt>
      <trkpt lat="50.34181" lon="3.24572">
        <ele>27.5</ele>
        <time>2023-01-22T08:41:09Z</time>
      </trkpt>
      <trkpt lat="50.3418" lon="3.24571">
        <ele>21.457579</ele>
        <time>2023-01-22T08:41:10Z</time>
      </trkpt>
      <trkpt lat="50.34179" lon="3.24569">
        <ele>27.6</ele>
        <time>2023-01-22T08:41:11Z</time>
      </trkpt>
      <trkpt lat="50.34177" lon="3.24567">
        <ele>27.6</ele>
        <time>2023-01-22T08:41:12Z</time>
      </trkpt>
      <trkpt lat="50.34177" lon="3.24565">
        <ele>27.6</ele>
        <time>2023-01-22T08:41:13Z</time>
      </trkpt>
      <trkpt lat="50.34176" lon="3.24564">
        <ele>27.7</ele>
        <time>2023-01-22T08:41:14Z</time>
      </trkpt>
      <trkpt lat="50.34175" lon="3.24562">
        <ele>27.7</ele>
        <time>2023-01-22T08:41:15Z</time>
      </trkpt>
      <trkpt lat="50.34174" lon="3.2456">
        <ele>27.7</ele>
        <time>2023-01-22T08:41:16Z</time>
      </trkpt>
      <trkpt lat="50.34174" lon="3.24557">
        <ele>27.8</ele>
        <time>2023-01-22T08:41:17Z</time>
      </trkpt>
      <trkpt lat="50.34172" lon="3.24555">
        <ele>27.8</ele>
        <time>2023-01-22T08:41:18Z</time>
      </trkpt>
      <trkpt lat="50.34172" lon="3.24553">
        <ele>27.8</ele>
        <time>2023-01-22T08:41:19Z</time>
      </trkpt>
      <trkpt lat="50.34171" lon="3.24551">
        <ele>21.498367</ele>
        <time>2023-01-22T08:41:20Z</time>
      </trkpt>
      <trkpt lat="50.3417" lon="3.2455">
        <ele>27.9</ele>
        <time>2023-01-22T08:41:21Z</time>
      </trkpt>
      <trkpt lat="50.34169" lon="3.24547">
        <ele>27.9</ele>
        <time>2023-01-22T08:41:22Z</time>
        <extensions>
          <gpxtpx:TrackPointExtension xmlns:gpxtpx="http://www.garmin.com/xmlschemas/TrackPointExtension/v1">
            <gpxtpx:hr>140</gpxtpx:hr>
          </gpxtpx:TrackPointExtension>
        </extensions>
      </trkpt>
      <trkpt lat="50.34168" lon="3.24545">
        <ele>27.9</ele>
        <time>2023-01-22T08:41:23Z</time>
      </trkpt>
      <trkpt lat="50.34167" lon="3.24543">
        <ele>28</ele>
        <time>2023-01-22T08:41:24Z</time>
      </trkpt>
      <trkpt lat="50.34166" lon="3.24542">
        <ele>28</ele>
        <time>2023-01-22T08:41:25Z</time>
      </trkpt>
      <trkpt lat="50.34165" lon="3.2454">
        <ele>28</ele>
        <time>2023-01-22T08:41:26Z</time>
      </trkpt>
      <trkpt lat="50.34164" lon="3.24538">
        <ele>28</ele>
        <time>2023-01-22T08:41:27Z</time>
      </trkpt>
      <trkpt lat="50.34163" lon="3.24536">
        <ele>28</ele>
        <time>2023-01-22T08:41:28Z</time>
      </trkpt>
      <trkpt lat="50.34163" lon="3.24533">
        <ele>28</ele>
        <time>2023-01-22T08:41:29Z</time>
      </trkpt>
      <trkpt lat="50.34163" lon="3.24531">
        <ele>21.466116</ele>
        <time>2023-01-22T08:41:30Z</time>
      </trkpt>
      <trkpt lat="50.34162" lon="3.24529">
        <ele>28</ele>
        <time>2023-01-22T08:41:31Z</time>
      </trkpt>
      <trkpt lat="50.34161" lon="3.24527">
        <ele>28</ele>
        <time>2023-01-22T08:41:32Z</time>
      </trkpt>
      <trkpt lat="50.3416" lon="3.24524">
        <ele>27.9</ele>
        <time>2023-01-22T08:41:33Z</time>
      </trkpt>
      <trkpt lat="50.3416" lon="3.24522">
        <ele>27.8</ele>
        <time>2023-01-22T08:41:34Z</time>
      </trkpt>
      <trkpt lat="50.34158" lon="3.2452">
        <ele>27.8</ele>
        <time>2023-01-22T08:41:35Z</time>
      </trkpt>
      <trkpt lat="50.34157" lon="3.24519">
        <ele>27.8</ele>
        <time>2023-01-22T08:41:36Z</time>
      </trkpt>
      <trkpt lat="50.34156" lon="3.24517">
        <ele>27.8</ele>
        <time>2023-01-22T08:41:37Z</time>
      </trkpt>
      <trkpt lat="50.34156" lon="3.24516">
        <ele>27.7</ele>
        <time>2023-01-22T08:41:38Z</time>
      </trkpt>
      <trkpt lat="50.34155" lon="3.24513">
        <ele>27.7</ele>
        <time>2023-01-22T08:41:39Z</time>
        <extensions>
          <gpxtpx:TrackPointExtension xmlns:gpxtpx="http://www.garmin.com/xmlschemas/TrackPointExtension/v1">
            <gpxtpx:hr>138</gpxtpx:hr>
          </gpxtpx:TrackPointExtension>
        </extensions>
      </trkpt>
      <trkpt lat="50.34155" lon="3.2451">
        <ele>21.417736</ele>
        <time>2023-01-22T08:41:40Z</time>
      </trkpt>
      <trkpt lat="50.34154" lon="3.24509">
        <ele>27.6</ele>
        <time>2023-01-22T08:41:41Z</time>
      </trkpt>
      <trkpt lat="50.34153" lon="3.24506">
        <ele>27.6</ele>
        <time>2023-01-22T08:41:42Z</time>
      </trkpt>
      <trkpt lat="50.34152" lon="3.24504">
        <ele>27.6</ele>
        <time>2023-01-22T08:41:43Z</time>
      </trkpt>
      <trkpt lat="50.34152" lon="3.24501">
        <ele>27.6</ele>
        <time>2023-01-22T08:41:44Z</time>
      </trkpt>
      <trkpt lat="50.34151" lon="3.24499">
        <ele>27.6</ele>
        <time>2023-01-22T08:41:45Z</time>
      </trkpt>
      <trkpt lat="50.3415" lon="3.24497">
        <ele>27.6</ele>
        <time>2023-01-22T08:41:46Z</time>
      </trkpt>
      <trkpt lat="50.34149" lon="3.24495">
        <ele>27.6</ele>
        <time>2023-01-22T08:41:47Z</time>
      </trkpt>
      <trkpt lat="50.34148" lon="3.24493">
        <ele>27.7</ele>
        <time>2023-01-22T08:41:48Z</time>
      </trkpt>
      <trkpt lat="50.34148" lon="3.24492">
        <ele>27.7</ele>
        <time>2023-01-22T08:41:49Z</time>
      </trkpt>
      <trkpt lat="50.34147" lon="3.24491">
        <ele>27.7</ele>
        <time>2023-01-22T08:41:50Z</time>
      </trkpt>
      <trkpt lat="50.34146" lon="3.2449">
        <ele>27.7</ele>
        <time>2023-01-22T08:41:51Z</time>
      </trkpt>
      <trkpt lat="50.34145" lon="3.24488">
        <ele>27.8</ele>
        <time>2023-01-22T08:41:52Z</time>
      </trkpt>
      <trkpt lat="50.34144" lon="3.24487">
        <ele>27.8</ele>
        <time>2023-01-22T08:41:53Z</time>
      </trkpt>
      <trkpt lat="50.34143" lon="3.24485">
        <ele>27.9</ele>
        <time>2023-01-22T08:41:54Z</time>
      </trkpt>
      <trkpt lat="50.34143" lon="3.24483">
        <ele>21.27355</ele>
        <time>2023-01-22T08:41:55Z</time>
      </trkpt>
      <trkpt lat="50.34142" lon="3.24481">
        <ele>27.9</ele>
        <time>2023-01-22T08:41:56Z</time>
      </trkpt>
      <trkpt lat="50.34141" lon="3.24479">
        <ele>27.9</ele>
        <time>2023-01-22T08:41:57Z</time>
      </trkpt>
      <trkpt lat="50.3414" lon="3.24476">
        <ele>27.9</ele>
        <time>2023-01-22T08:41:58Z</time>
      </trkpt>
      <trkpt lat="50.3414" lon="3.24474">
        <ele>28</ele>
        <time>2023-01-22T08:41:59Z</time>
      </trkpt>
      <trkpt lat="50.3414" lon="3.24471">
        <ele>21.216635</ele>
        <time>2023-01-22T08:42:00Z</time>
      </trkpt>
      <trkpt lat="50.34139" lon="3.2447">
        <ele>27.9</ele>
        <time>2023-01-22T08:42:01Z</time>
      </trkpt>
      <trkpt lat="50.34139" lon="3.24468">
        <ele>27.8</ele>
        <time>2023-01-22T08:42:02Z</time>
      </trkpt>
      <trkpt lat="50.34138" lon="3.24466">
        <ele>27.8</ele>
        <time>2023-01-22T08:42:03Z</time>
      </trkpt>
      <trkpt lat="50.34137" lon="3.24464">
        <ele>27.7</ele>
        <time>2023-01-22T08:42:04Z</time>
      </trkpt>
      <trkpt lat="50.34137" lon="3.24462">
        <ele>27.7</ele>
        <time>2023-01-22T08:42:05Z</time>
      </trkpt>
      <trkpt lat="50.34137" lon="3.24461">
        <ele>27.6</ele>
        <time>2023-01-22T08:42:06Z</time>
      </trkpt>
      <trkpt lat="50.34136" lon="3.24459">
        <ele>27.6</ele>
        <time>2023-01-22T08:42:07Z</time>
      </trkpt>
      <trkpt lat="50.34135" lon="3.24458">
        <ele>27.6</ele>
        <time>2023-01-22T08:42:08Z</time>
      </trkpt>
      <trkpt lat="50.34134" lon="3.24458">
        <ele>27.6</ele>
        <time>2023-01-22T08:42:09Z</time>
      </trkpt>
      <trkpt lat="50.34134" lon="3.24456">
        <ele>21.176794</ele>
        <time>2023-01-22T08:42:10Z</time>
      </trkpt>
      <trkpt lat="50.34133" lon="3.24455">
        <ele>27.5</ele>
        <time>2023-01-22T08:42:11Z</time>
      </trkpt>
      <trkpt lat="50.34133" lon="3.24454">
        <ele>27.5</ele>
        <time>2023-01-22T08:42:12Z</time>
      </trkpt>
      <trkpt lat="50.34132" lon="3.24452">
        <ele>27.5</ele>
        <time>2023-01-22T08:42:13Z</time>
      </trkpt>
      <trkpt lat="50.34131" lon="3.24452">
        <ele>27.5</ele>
        <time>2023-01-22T08:42:14Z</time>
      </trkpt>
      <trkpt lat="50.34131" lon="3.2445">
        <ele>27.4</ele>
        <time>2023-01-22T08:42:15Z</time>
      </trkpt>
      <trkpt lat="50.3413" lon="3.2445">
        <ele>27.4</ele>
        <time>2023-01-22T08:42:16Z</time>
      </trkpt>
      <trkpt lat="50.34129" lon="3.24449">
        <ele>27.5</ele>
        <time>2023-01-22T08:42:17Z</time>
      </trkpt>
      <trkpt lat="50.34129" lon="3.24447">
        <ele>27.4</ele>
        <time>2023-01-22T08:42:18Z</time>
      </trkpt>
      <trkpt lat="50.34127" lon="3.24446">
        <ele>27.4</ele>
        <time>2023-01-22T08:42:19Z</time>
      </trkpt>
      <trkpt lat="50.34126" lon="3.24445">
        <ele>21.170155</ele>
        <time>2023-01-22T08:42:20Z</time>
      </trkpt>
      <trkpt lat="50.34125" lon="3.24444">
        <ele>27.5</ele>
        <time>2023-01-22T08:42:21Z</time>
      </trkpt>
      <trkpt lat="50.34124" lon="3.24442">
        <ele>27.6</ele>
        <time>2023-01-22T08:42:22Z</time>
      </trkpt>
      <trkpt lat="50.34123" lon="3.24441">
        <ele>27.6</ele>
        <time>2023-01-22T08:42:23Z</time>
        <extensions>
          <gpxtpx:TrackPointExtension xmlns:gpxtpx="http://www.garmin.com/xmlschemas/TrackPointExtension/v1">
            <gpxtpx:hr>140</gpxtpx:hr>
          </gpxtpx:TrackPointExtension>
        </extensions>
      </trkpt>
      <trkpt lat="50.34123" lon="3.24439">
        <ele>27.6</ele>
        <time>2023-01-22T08:42:24Z</time>
      </trkpt>
      <trkpt lat="50.34122" lon="3.24437">
        <ele>27.6</ele>
        <time>2023-01-22T08:42:25Z</time>
      </trkpt>
      <trkpt lat="50.34121" lon="3.24435">
        <ele>27.6</ele>
        <time>2023-01-22T08:42:26Z</time>
      </trkpt>
      <trkpt lat="50.3412" lon="3.24433">
        <ele>27.7</ele>
        <time>2023-01-22T08:42:27Z</time>
      </trkpt>
      <trkpt lat="50.34119" lon="3.24431">
        <ele>27.7</ele>
        <time>2023-01-22T08:42:28Z</time>
      </trkpt>
      <trkpt lat="50.34118" lon="3.24429">
        <ele>27.8</ele>
        <time>2023-01-22T08:42:29Z</time>
      </trkpt>
      <trkpt lat="50.34117" lon="3.24427">
        <ele>21.18059</ele>
        <time>2023-01-22T08:42:30Z</time>
      </trkpt>
      <trkpt lat="50.34116" lon="3.24426">
        <ele>27.8</ele>
        <time>2023-01-22T08:42:31Z</time>
      </trkpt>
      <trkpt lat="50.34114" lon="3.24424">
        <ele>27.9</ele>
        <time>2023-01-22T08:42:32Z</time>
      </trkpt>
      <trkpt lat="50.34113" lon="3.24422">
        <ele>27.9</ele>
        <time>2023-01-22T08:42:33Z</time>
      </trkpt>
      <trkpt lat="50.34112" lon="3.24421">
        <ele>28</ele>
        <time>2023-01-22T08:42:34Z</time>
      </trkpt>
      <trkpt lat="50.34111" lon="3.24418">
        <ele>28</ele>
        <time>2023-01-22T08:42:35Z</time>
      </trkpt>
      <trkpt lat="50.34111" lon="3.24416">
        <ele>28</ele>
        <time>2023-01-22T08:42:36Z</time>
      </trkpt>
      <trkpt lat="50.3411" lon="3.24414">
        <ele>28</ele>
        <time>2023-01-22T08:42:37Z</time>
      </trkpt>
      <trkpt lat="50.34109" lon="3.24411">
        <ele>28</ele>
        <time>2023-01-22T08:42:38Z</time>
      </trkpt>
      <trkpt lat="50.34108" lon="3.24409">
        <ele>28</ele>
        <time>2023-01-22T08:42:39Z</time>
        <extensions>
          <gpxtpx:TrackPointExtension xmlns:gpxtpx="http://www.garmin.com/xmlschemas/TrackPointExtension/v1">
            <gpxtpx:hr>140</gpxtpx:hr>
          </gpxtpx:TrackPointExtension>
        </extensions>
      </trkpt>
      <trkpt lat="50.34107" lon="3.24408">
        <ele>21.006998</ele>
        <time>2023-01-22T08:42:40Z</time>
      </trkpt>
      <trkpt lat="50.34106" lon="3.24406">
        <ele>28</ele>
        <time>2023-01-22T08:42:41Z</time>
      </trkpt>
      <trkpt lat="50.34106" lon="3.24404">
        <ele>28</ele>
        <time>2023-01-22T08:42:42Z</time>
      </trkpt>
      <trkpt lat="50.34105" lon="3.24403">
        <ele>28</ele>
        <time>2023-01-22T08:42:43Z</time>
      </trkpt>
      <trkpt lat="50.34104" lon="3.24402">
        <ele>28</ele>
        <time>2023-01-22T08:42:44Z</time>
      </trkpt>
      <trkpt lat="50.34103" lon="3.244">
        <ele>28</ele>
        <time>2023-01-22T08:42:45Z</time>
      </trkpt>
      <trkpt lat="50.34103" lon="3.24399">
        <ele>28</ele>
        <time>2023-01-22T08:42:46Z</time>
      </trkpt>
      <trkpt lat="50.34102" lon="3.24399">
        <ele>28</ele>
        <time>2023-01-22T08:42:47Z</time>
      </trkpt>
      <trkpt lat="50.34102" lon="3.24398">
        <ele>28</ele>
        <time>2023-01-22T08:42:48Z</time>
      </trkpt>
      <trkpt lat="50.34102" lon="3.24397">
        <ele>28</ele>
        <time>2023-01-22T08:42:49Z</time>
      </trkpt>
      <trkpt lat="50.34102" lon="3.24397">
        <ele>21.152132</ele>
        <time>2023-01-22T08:42:50Z</time>
      </trkpt>
      <trkpt lat="50.34102" lon="3.24396">
        <ele>28</ele>
        <time>2023-01-22T08:42:51Z</time>
      </trkpt>
      <trkpt lat="50.34102" lon="3.24396">
        <ele>28</ele>
        <time>2023-01-22T08:42:52Z</time>
      </trkpt>
      <trkpt lat="50.34102" lon="3.24395">
        <ele>28</ele>
        <time>2023-01-22T08:42:53Z</time>
      </trkpt>
      <trkpt lat="50.34102" lon="3.24395">
        <ele>28</ele>
        <time>2023-01-22T08:42:54Z</time>
      </trkpt>
      <trkpt lat="50.34102" lon="3.24395">
        <ele>28</ele>
        <time>2023-01-22T08:42:55Z</time>
      </trkpt>
      <trkpt lat="50.34102" lon="3.24395">
        <ele>28</ele>
        <time>2023-01-22T08:42:56Z</time>
      </trkpt>
      <trkpt lat="50.34102" lon="3.24394">
        <ele>28</ele>
        <time>2023-01-22T08:42:57Z</time>
      </trkpt>
      <trkpt lat="50.34103" lon="3.24394">
        <ele>28</ele>
        <time>2023-01-22T08:42:58Z</time>
      </trkpt>
      <trkpt lat="50.34103" lon="3.24393">
        <ele>28</ele>
        <time>2023-01-22T08:42:59Z</time>
        <extensions>
          <gpxtpx:TrackPointExtension xmlns:gpxtpx="http://www.garmin.com/xmlschemas/TrackPointExtension/v1">
            <gpxtpx:hr>137</gpxtpx:hr>
          </gpxtpx:TrackPointExtension>
        </extensions>
      </trkpt>
      <trkpt lat="50.34103" lon="3.24393">
        <ele>21.077194</ele>
        <time>2023-01-22T08:43:00Z</time>
      </trkpt>
      <trkpt lat="50.34103" lon="3.24393">
        <ele>28</ele>
        <time>2023-01-22T08:43:01Z</time>
      </trkpt>
      <trkpt lat="50.34103" lon="3.24392">
        <ele>28</ele>
        <time>2023-01-22T08:43:02Z</time>
      </trkpt>
      <trkpt lat="50.34103" lon="3.24392">
        <ele>28</ele>
        <time>2023-01-22T08:43:03Z</time>
      </trkpt>
      <trkpt lat="50.34103" lon="3.24392">
        <ele>28</ele>
        <time>2023-01-22T08:43:04Z</time>
      </trkpt>
      <trkpt lat="50.34103" lon="3.24392">
        <ele>28</ele>
        <time>2023-01-22T08:43:05Z</time>
      </trkpt>
      <trkpt lat="50.34103" lon="3.24392">
        <ele>28</ele>
        <time>2023-01-22T08:43:06Z</time>
      </trkpt>
      <trkpt lat="50.34103" lon="3.24392">
        <ele>28</ele>
        <time>2023-01-22T08:43:07Z</time>
      </trkpt>
      <trkpt lat="50.34103" lon="3.24392">
        <ele>28</ele>
        <time>2023-01-22T08:43:08Z</time>
      </trkpt>
      <trkpt lat="50.34103" lon="3.24392">
        <ele>28</ele>
        <time>2023-01-22T08:43:09Z</time>
      </trkpt>
      <trkpt lat="50.34103" lon="3.24392">
        <ele>21.08573</ele>
        <time>2023-01-22T08:43:10Z</time>
      </trkpt>
      <trkpt lat="50.34103" lon="3.24392">
        <ele>28</ele>
        <time>2023-01-22T08:43:11Z</time>
      </trkpt>
      <trkpt lat="50.34103" lon="3.24392">
        <ele>28</ele>
        <time>2023-01-22T08:43:12Z</time>
      </trkpt>
      <trkpt lat="50.34103" lon="3.24392">
        <ele>28</ele>
        <time>2023-01-22T08:43:13Z</time>
      </trkpt>
      <trkpt lat="50.34102" lon="3.24392">
        <ele>28</ele>
        <time>2023-01-22T08:43:14Z</time>
      </trkpt>
      <trkpt lat="50.34103" lon="3.24392">
        <ele>28</ele>
        <time>2023-01-22T08:43:15Z</time>
      </trkpt>
      <trkpt lat="50.34102" lon="3.24392">
        <ele>28</ele>
        <time>2023-01-22T08:43:16Z</time>
      </trkpt>
      <trkpt lat="50.34102" lon="3.24392">
        <ele>28</ele>
        <time>2023-01-22T08:43:17Z</time>
      </trkpt>
      <trkpt lat="50.34102" lon="3.24392">
        <ele>28</ele>
        <time>2023-01-22T08:43:18Z</time>
      </trkpt>
      <trkpt lat="50.34102" lon="3.24392">
        <ele>28</ele>
        <time>2023-01-22T08:43:19Z</time>
        <extensions>
          <gpxtpx:TrackPointExtension xmlns:gpxtpx="http://www.garmin.com/xmlschemas/TrackPointExtension/v1">
            <gpxtpx:hr>131</gpxtpx:hr>
          </gpxtpx:TrackPointExtension>
        </extensions>
      </trkpt>
      <trkpt lat="50.34102" lon="3.24392">
        <ele>21.084782</ele>
        <time>2023-01-22T08:43:20Z</time>
      </trkpt>
      <trkpt lat="50.34102" lon="3.24392">
        <ele>28</ele>
        <time>2023-01-22T08:43:21Z</time>
      </trkpt>
      <trkpt lat="50.34102" lon="3.24392">
        <ele>28</ele>
        <time>2023-01-22T08:43:22Z</time>
      </trkpt>
      <trkpt lat="50.34102" lon="3.24392">
        <ele>28</ele>
        <time>2023-01-22T08:43:23Z</time>
      </trkpt>
      <trkpt lat="50.34102" lon="3.24392">
        <ele>28</ele>
        <time>2023-01-22T08:43:24Z</time>
      </trkpt>
      <trkpt lat="50.34101" lon="3.24392">
        <ele>28</ele>
        <time>2023-01-22T08:43:25Z</time>
      </trkpt>
      <trkpt lat="50.34101" lon="3.24392">
        <ele>28</ele>
        <time>2023-01-22T08:43:26Z</time>
      </trkpt>
      <trkpt lat="50.34101" lon="3.24392">
        <ele>28</ele>
        <time>2023-01-22T08:43:27Z</time>
      </trkpt>
      <trkpt lat="50.341" lon="3.24392">
        <ele>28</ele>
        <time>2023-01-22T08:43:28Z</time>
      </trkpt>
      <trkpt lat="50.341" lon="3.24392">
        <ele>28</ele>
        <time>2023-01-22T08:43:29Z</time>
      </trkpt>
      <trkpt lat="50.341" lon="3.24392">
        <ele>28</ele>
        <time>2023-01-22T08:43:30Z</time>
      </trkpt>
      <trkpt lat="50.341" lon="3.24392">
        <ele>28</ele>
        <time>2023-01-22T08:43:31Z</time>
      </trkpt>
      <trkpt lat="50.341" lon="3.24392">
        <ele>28</ele>
        <time>2023-01-22T08:43:32Z</time>
      </trkpt>
      <trkpt lat="50.341" lon="3.24392">
        <ele>28</ele>
        <time>2023-01-22T08:43:33Z</time>
      </trkpt>
      <trkpt lat="50.341" lon="3.24392">
        <ele>28</ele>
        <time>2023-01-22T08:43:34Z</time>
      </trkpt>
      <trkpt lat="50.341" lon="3.24392">
        <ele>21.351336</ele>
        <time>2023-01-22T08:43:35Z</time>
      </trkpt>
      <trkpt lat="50.341" lon="3.24392">
        <ele>28</ele>
        <time>2023-01-22T08:43:36Z</time>
      </trkpt>
      <trkpt lat="50.341" lon="3.24392">
        <ele>28</ele>
        <time>2023-01-22T08:43:37Z</time>
      </trkpt>
      <trkpt lat="50.341" lon="3.24392">
        <ele>28</ele>
        <time>2023-01-22T08:43:38Z</time>
      </trkpt>
      <trkpt lat="50.341" lon="3.24392">
        <ele>28</ele>
        <time>2023-01-22T08:43:39Z</time>
        <extensions>
          <gpxtpx:TrackPointExtension xmlns:gpxtpx="http://www.garmin.com/xmlschemas/TrackPointExtension/v1">
            <gpxtpx:hr>123</gpxtpx:hr>
          </gpxtpx:TrackPointExtension>
        </extensions>
      </trkpt>
      <trkpt lat="50.341" lon="3.24392">
        <ele>21.10565</ele>
        <time>2023-01-22T08:43:40Z</time>
      </trkpt>
      <trkpt lat="50.341" lon="3.24393">
        <ele>28</ele>
        <time>2023-01-22T08:43:41Z</time>
      </trkpt>
      <trkpt lat="50.341" lon="3.24393">
        <ele>28</ele>
        <time>2023-01-22T08:43:42Z</time>
      </trkpt>
      <trkpt lat="50.341" lon="3.24393">
        <ele>28</ele>
        <time>2023-01-22T08:43:43Z</time>
      </trkpt>
      <trkpt lat="50.341" lon="3.24393">
        <ele>28</ele>
        <time>2023-01-22T08:43:44Z</time>
      </trkpt>
      <trkpt lat="50.341" lon="3.24393">
        <ele>28</ele>
        <time>2023-01-22T08:43:45Z</time>
      </trkpt>
      <trkpt lat="50.341" lon="3.24393">
        <ele>28</ele>
        <time>2023-01-22T08:43:46Z</time>
      </trkpt>
      <trkpt lat="50.341" lon="3.24393">
        <ele>28</ele>
        <time>2023-01-22T08:43:47Z</time>
      </trkpt>
      <trkpt lat="50.341" lon="3.24393">
        <ele>28</ele>
        <time>2023-01-22T08:43:48Z</time>
      </trkpt>
      <trkpt lat="50.341" lon="3.24393">
        <ele>28</ele>
        <time>2023-01-22T08:43:49Z</time>
      </trkpt>
      <trkpt lat="50.341" lon="3.24393">
        <ele>20.962416</ele>
        <time>2023-01-22T08:43:50Z</time>
      </trkpt>
      <trkpt lat="50.341" lon="3.24393">
        <ele>28</ele>
        <time>2023-01-22T08:43:51Z</time>
      </trkpt>
      <trkpt lat="50.341" lon="3.24393">
        <ele>28</ele>
        <time>2023-01-22T08:43:52Z</time>
      </trkpt>
      <trkpt lat="50.341" lon="3.24393">
        <ele>28</ele>
        <time>2023-01-22T08:43:53Z</time>
      </trkpt>
      <trkpt lat="50.341" lon="3.24393">
        <ele>28</ele>
        <time>2023-01-22T08:43:54Z</time>
      </trkpt>
      <trkpt lat="50.341" lon="3.24393">
        <ele>28</ele>
        <time>2023-01-22T08:43:55Z</time>
      </trkpt>
      <trkpt lat="50.341" lon="3.24394">
        <ele>28</ele>
        <time>2023-01-22T08:43:56Z</time>
      </trkpt>
      <trkpt lat="50.341" lon="3.24394">
        <ele>28</ele>
        <time>2023-01-22T08:43:57Z</time>
      </trkpt>
      <trkpt lat="50.341" lon="3.24395">
        <ele>28</ele>
        <time>2023-01-22T08:43:58Z</time>
      </trkpt>
      <trkpt lat="50.34101" lon="3.24395">
        <ele>28</ele>
        <time>2023-01-22T08:43:59Z</time>
        <extensions>
          <gpxtpx:TrackPointExtension xmlns:gpxtpx="http://www.garmin.com/xmlschemas/TrackPointExtension/v1">
            <gpxtpx:hr>115</gpxtpx:hr>
          </gpxtpx:TrackPointExtension>
        </extensions>
      </trkpt>
      <trkpt lat="50.34101" lon="3.24395">
        <ele>20.908346</ele>
        <time>2023-01-22T08:44:00Z</time>
      </trkpt>
      <trkpt lat="50.34101" lon="3.24395">
        <ele>28</ele>
        <time>2023-01-22T08:44:01Z</time>
      </trkpt>
      <trkpt lat="50.34101" lon="3.24395">
        <ele>28</ele>
        <time>2023-01-22T08:44:02Z</time>
      </trkpt>
      <trkpt lat="50.34101" lon="3.24396">
        <ele>28</ele>
        <time>2023-01-22T08:44:03Z</time>
      </trkpt>
      <trkpt lat="50.34101" lon="3.24396">
        <ele>28</ele>
        <time>2023-01-22T08:44:04Z</time>
      </trkpt>
      <trkpt lat="50.34101" lon="3.24396">
        <ele>28</ele>
        <time>2023-01-22T08:44:05Z</time>
      </trkpt>
      <trkpt lat="50.34101" lon="3.24396">
        <ele>28</ele>
        <time>2023-01-22T08:44:06Z</time>
      </trkpt>
      <trkpt lat="50.34101" lon="3.24396">
        <ele>28</ele>
        <time>2023-01-22T08:44:07Z</time>
      </trkpt>
      <trkpt lat="50.34101" lon="3.24396">
        <ele>28</ele>
        <time>2023-01-22T08:44:08Z</time>
      </trkpt>
      <trkpt lat="50.34101" lon="3.24396">
        <ele>28</ele>
        <time>2023-01-22T08:44:09Z</time>
      </trkpt>
      <trkpt lat="50.34101" lon="3.24396">
        <ele>20.91214</ele>
        <time>2023-01-22T08:44:10Z</time>
      </trkpt>
      <trkpt lat="50.34102" lon="3.24397">
        <ele>28</ele>
        <time>2023-01-22T08:44:11Z</time>
      </trkpt>
      <trkpt lat="50.34101" lon="3.24396">
        <ele>28</ele>
        <time>2023-01-22T08:44:12Z</time>
      </trkpt>
      <trkpt lat="50.34101" lon="3.24397">
        <ele>28</ele>
        <time>2023-01-22T08:44:13Z</time>
      </trkpt>
      <trkpt lat="50.34101" lon="3.24396">
        <ele>28</ele>
        <time>2023-01-22T08:44:14Z</time>
      </trkpt>
      <trkpt lat="50.34101" lon="3.24396">
        <ele>28</ele>
        <time>2023-01-22T08:44:15Z</time>
      </trkpt>
      <trkpt lat="50.34101" lon="3.24396">
        <ele>28</ele>
        <time>2023-01-22T08:44:16Z</time>
      </trkpt>
      <trkpt lat="50.34101" lon="3.24396">
        <ele>28</ele>
        <time>2023-01-22T08:44:17Z</time>
      </trkpt>
      <trkpt lat="50.34101" lon="3.24396">
        <ele>28</ele>
        <time>2023-01-22T08:44:18Z</time>
      </trkpt>
      <trkpt lat="50.34101" lon="3.24396">
        <ele>28</ele>
        <time>2023-01-22T08:44:19Z</time>
        <extensions>
          <gpxtpx:TrackPointExtension xmlns:gpxtpx="http://www.garmin.com/xmlschemas/TrackPointExtension/v1">
            <gpxtpx:hr>105</gpxtpx:hr>
          </gpxtpx:TrackPointExtension>
        </extensions>
      </trkpt>
      <trkpt lat="50.34101" lon="3.24396">
        <ele>20.930164</ele>
        <time>2023-01-22T08:44:20Z</time>
      </trkpt>
      <trkpt lat="50.34101" lon="3.24396">
        <ele>28</ele>
        <time>2023-01-22T08:44:21Z</time>
      </trkpt>
      <trkpt lat="50.34101" lon="3.24396">
        <ele>28</ele>
        <time>2023-01-22T08:44:22Z</time>
      </trkpt>
      <trkpt lat="50.34101" lon="3.24396">
        <ele>28</ele>
        <time>2023-01-22T08:44:23Z</time>
      </trkpt>
      <trkpt lat="50.34101" lon="3.24396">
        <ele>28</ele>
        <time>2023-01-22T08:44:24Z</time>
      </trkpt>
      <trkpt lat="50.34101" lon="3.24396">
        <ele>28</ele>
        <time>2023-01-22T08:44:25Z</time>
      </trkpt>
      <trkpt lat="50.34101" lon="3.24396">
        <ele>28</ele>
        <time>2023-01-22T08:44:26Z</time>
      </trkpt>
      <trkpt lat="50.34101" lon="3.24397">
        <ele>28</ele>
        <time>2023-01-22T08:44:27Z</time>
      </trkpt>
      <trkpt lat="50.34101" lon="3.24397">
        <ele>28</ele>
        <time>2023-01-22T08:44:28Z</time>
      </trkpt>
      <trkpt lat="50.34101" lon="3.24397">
        <ele>28</ele>
        <time>2023-01-22T08:44:29Z</time>
      </trkpt>
      <trkpt lat="50.34101" lon="3.24397">
        <ele>20.918781</ele>
        <time>2023-01-22T08:44:30Z</time>
      </trkpt>
      <trkpt lat="50.34101" lon="3.24397">
        <ele>28</ele>
        <time>2023-01-22T08:44:31Z</time>
      </trkpt>
      <trkpt lat="50.34101" lon="3.24397">
        <ele>28</ele>
        <time>2023-01-22T08:44:32Z</time>
      </trkpt>
      <trkpt lat="50.34101" lon="3.24397">
        <ele>28</ele>
        <time>2023-01-22T08:44:33Z</time>
      </trkpt>
      <trkpt lat="50.34101" lon="3.24397">
        <ele>28</ele>
        <time>2023-01-22T08:44:34Z</time>
      </trkpt>
      <trkpt lat="50.34101" lon="3.24397">
        <ele>28</ele>
        <time>2023-01-22T08:44:35Z</time>
      </trkpt>
      <trkpt lat="50.34101" lon="3.24397">
        <ele>28</ele>
        <time>2023-01-22T08:44:36Z</time>
      </trkpt>
      <trkpt lat="50.34101" lon="3.24397">
        <ele>28</ele>
        <time>2023-01-22T08:44:37Z</time>
      </trkpt>
      <trkpt lat="50.34101" lon="3.24397">
        <ele>28</ele>
        <time>2023-01-22T08:44:38Z</time>
      </trkpt>
      <trkpt lat="50.341" lon="3.24397">
        <ele>28</ele>
        <time>2023-01-22T08:44:39Z</time>
        <extensions>
          <gpxtpx:TrackPointExtension xmlns:gpxtpx="http://www.garmin.com/xmlschemas/TrackPointExtension/v1">
            <gpxtpx:hr>98</gpxtpx:hr>
          </gpxtpx:TrackPointExtension>
        </extensions>
      </trkpt>
      <trkpt lat="50.341" lon="3.24397">
        <ele>20.884632</ele>
        <time>2023-01-22T08:44:40Z</time>
      </trkpt>
      <trkpt lat="50.341" lon="3.24397">
        <ele>28</ele>
        <time>2023-01-22T08:44:41Z</time>
      </trkpt>
      <trkpt lat="50.34099" lon="3.24396">
        <ele>28</ele>
        <time>2023-01-22T08:44:42Z</time>
      </trkpt>
      <trkpt lat="50.34098" lon="3.24395">
        <ele>28</ele>
        <time>2023-01-22T08:44:43Z</time>
      </trkpt>
      <trkpt lat="50.34098" lon="3.24394">
        <ele>28</ele>
        <time>2023-01-22T08:44:44Z</time>
      </trkpt>
      <trkpt lat="50.34097" lon="3.24393">
        <ele>28</ele>
        <time>2023-01-22T08:44:45Z</time>
      </trkpt>
      <trkpt lat="50.34096" lon="3.24392">
        <ele>28</ele>
        <time>2023-01-22T08:44:46Z</time>
      </trkpt>
      <trkpt lat="50.34095" lon="3.2439">
        <ele>28</ele>
        <time>2023-01-22T08:44:47Z</time>
      </trkpt>
      <trkpt lat="50.34095" lon="3.24389">
        <ele>28</ele>
        <time>2023-01-22T08:44:48Z</time>
      </trkpt>
      <trkpt lat="50.34095" lon="3.24389">
        <ele>28</ele>
        <time>2023-01-22T08:44:49Z</time>
      </trkpt>
      <trkpt lat="50.34095" lon="3.24389">
        <ele>21.067707</ele>
        <time>2023-01-22T08:44:50Z</time>
      </trkpt>
      <trkpt lat="50.34095" lon="3.2439">
        <ele>28</ele>
        <time>2023-01-22T08:44:51Z</time>
      </trkpt>
      <trkpt lat="50.34095" lon="3.24389">
        <ele>28</ele>
        <time>2023-01-22T08:44:52Z</time>
      </trkpt>
      <trkpt lat="50.34095" lon="3.24389">
        <ele>28</ele>
        <time>2023-01-22T08:44:53Z</time>
      </trkpt>
      <trkpt lat="50.34095" lon="3.24389">
        <ele>28</ele>
        <time>2023-01-22T08:44:54Z</time>
      </trkpt>
      <trkpt lat="50.34095" lon="3.24389">
        <ele>28</ele>
        <time>2023-01-22T08:44:55Z</time>
      </trkpt>
      <trkpt lat="50.34095" lon="3.24389">
        <ele>28</ele>
        <time>2023-01-22T08:44:56Z</time>
      </trkpt>
      <trkpt lat="50.34095" lon="3.24389">
        <ele>28</ele>
        <time>2023-01-22T08:44:57Z</time>
      </trkpt>
      <trkpt lat="50.34095" lon="3.24389">
        <ele>28</ele>
        <time>2023-01-22T08:44:58Z</time>
      </trkpt>
      <trkpt lat="50.34094" lon="3.24388">
        <ele>28</ele>
        <time>2023-01-22T08:44:59Z</time>
        <extensions>
          <gpxtpx:TrackPointExtension xmlns:gpxtpx="http://www.garmin.com/xmlschemas/TrackPointExtension/v1">
            <gpxtpx:hr>105</gpxtpx:hr>
          </gpxtpx:TrackPointExtension>
        </extensions>
      </trkpt>
      <trkpt lat="50.34094" lon="3.24388">
        <ele>21.014587</ele>
        <time>2023-01-22T08:45:00Z</time>
      </trkpt>
      <trkpt lat="50.34094" lon="3.24387">
        <ele>28</ele>
        <time>2023-01-22T08:45:01Z</time>
      </trkpt>
      <trkpt lat="50.34093" lon="3.24387">
        <ele>28</ele>
        <time>2023-01-22T08:45:02Z</time>
      </trkpt>
      <trkpt lat="50.34092" lon="3.24387">
        <ele>28</ele>
        <time>2023-01-22T08:45:03Z</time>
      </trkpt>
      <trkpt lat="50.34092" lon="3.24386">
        <ele>28</ele>
        <time>2023-01-22T08:45:04Z</time>
      </trkpt>
      <trkpt lat="50.34093" lon="3.24385">
        <ele>27.9</ele>
        <time>2023-01-22T08:45:05Z</time>
      </trkpt>
      <trkpt lat="50.34093" lon="3.24384">
        <ele>27.9</ele>
        <time>2023-01-22T08:45:06Z</time>
      </trkpt>
      <trkpt lat="50.34093" lon="3.24384">
        <ele>27.9</ele>
        <time>2023-01-22T08:45:07Z</time>
      </trkpt>
      <trkpt lat="50.34093" lon="3.24384">
        <ele>27.9</ele>
        <time>2023-01-22T08:45:08Z</time>
      </trkpt>
      <trkpt lat="50.34093" lon="3.24384">
        <ele>27.9</ele>
        <time>2023-01-22T08:45:09Z</time>
      </trkpt>
      <trkpt lat="50.34093" lon="3.24384">
        <ele>27.9</ele>
        <time>2023-01-22T08:45:10Z</time>
      </trkpt>
      <trkpt lat="50.34092" lon="3.24383">
        <ele>27.9</ele>
        <time>2023-01-22T08:45:11Z</time>
      </trkpt>
      <trkpt lat="50.34092" lon="3.24383">
        <ele>27.9</ele>
        <time>2023-01-22T08:45:12Z</time>
      </trkpt>
      <trkpt lat="50.34092" lon="3.24383">
        <ele>27.9</ele>
        <time>2023-01-22T08:45:13Z</time>
      </trkpt>
      <trkpt lat="50.34092" lon="3.24381">
        <ele>27.9</ele>
        <time>2023-01-22T08:45:14Z</time>
      </trkpt>
      <trkpt lat="50.34092" lon="3.2438">
        <ele>20.97854</ele>
        <time>2023-01-22T08:45:15Z</time>
      </trkpt>
      <trkpt lat="50.34092" lon="3.24378">
        <ele>27.9</ele>
        <time>2023-01-22T08:45:16Z</time>
      </trkpt>
      <trkpt lat="50.34091" lon="3.24376">
        <ele>27.9</ele>
        <time>2023-01-22T08:45:17Z</time>
      </trkpt>
      <trkpt lat="50.3409" lon="3.24374">
        <ele>27.9</ele>
        <time>2023-01-22T08:45:18Z</time>
      </trkpt>
      <trkpt lat="50.3409" lon="3.2437">
        <ele>27.8</ele>
        <time>2023-01-22T08:45:19Z</time>
        <extensions>
          <gpxtpx:TrackPointExtension xmlns:gpxtpx="http://www.garmin.com/xmlschemas/TrackPointExtension/v1">
            <gpxtpx:hr>87</gpxtpx:hr>
          </gpxtpx:TrackPointExtension>
        </extensions>
      </trkpt>
      <trkpt lat="50.34089" lon="3.24367">
        <ele>21.028816</ele>
        <time>2023-01-22T08:45:20Z</time>
      </trkpt>
      <trkpt lat="50.34088" lon="3.24365">
        <ele>27.9</ele>
        <time>2023-01-22T08:45:21Z</time>
      </trkpt>
      <trkpt lat="50.34087" lon="3.24362">
        <ele>27.9</ele>
        <time>2023-01-22T08:45:22Z</time>
      </trkpt>
      <trkpt lat="50.34087" lon="3.24359">
        <ele>27.8</ele>
        <time>2023-01-22T08:45:23Z</time>
      </trkpt>
      <trkpt lat="50.34086" lon="3.24356">
        <ele>27.8</ele>
        <time>2023-01-22T08:45:24Z</time>
      </trkpt>
      <trkpt lat="50.34085" lon="3.24353">
        <ele>27.7</ele>
        <time>2023-01-22T08:45:25Z</time>
      </trkpt>
      <trkpt lat="50.34084" lon="3.24351">
        <ele>27.6</ele>
        <time>2023-01-22T08:45:26Z</time>
      </trkpt>
      <trkpt lat="50.34083" lon="3.24348">
        <ele>27.5</ele>
        <time>2023-01-22T08:45:27Z</time>
      </trkpt>
      <trkpt lat="50.34083" lon="3.24346">
        <ele>27.4</ele>
        <time>2023-01-22T08:45:28Z</time>
      </trkpt>
      <trkpt lat="50.34082" lon="3.24344">
        <ele>27.4</ele>
        <time>2023-01-22T08:45:29Z</time>
      </trkpt>
      <trkpt lat="50.34081" lon="3.24341">
        <ele>21.117983</ele>
        <time>2023-01-22T08:45:30Z</time>
      </trkpt>
      <trkpt lat="50.3408" lon="3.24339">
        <ele>27.3</ele>
        <time>2023-01-22T08:45:31Z</time>
      </trkpt>
      <trkpt lat="50.34079" lon="3.24337">
        <ele>27.3</ele>
        <time>2023-01-22T08:45:32Z</time>
      </trkpt>
      <trkpt lat="50.34079" lon="3.24335">
        <ele>27.2</ele>
        <time>2023-01-22T08:45:33Z</time>
      </trkpt>
      <trkpt lat="50.34078" lon="3.24333">
        <ele>27.2</ele>
        <time>2023-01-22T08:45:34Z</time>
      </trkpt>
      <trkpt lat="50.34077" lon="3.24332">
        <ele>27.2</ele>
        <time>2023-01-22T08:45:35Z</time>
      </trkpt>
      <trkpt lat="50.34076" lon="3.24329">
        <ele>27.3</ele>
        <time>2023-01-22T08:45:36Z</time>
      </trkpt>
      <trkpt lat="50.34076" lon="3.24327">
        <ele>27.3</ele>
        <time>2023-01-22T08:45:37Z</time>
      </trkpt>
      <trkpt lat="50.34076" lon="3.24324">
        <ele>27.3</ele>
        <time>2023-01-22T08:45:38Z</time>
      </trkpt>
      <trkpt lat="50.34075" lon="3.24322">
        <ele>27.3</ele>
        <time>2023-01-22T08:45:39Z</time>
        <extensions>
          <gpxtpx:TrackPointExtension xmlns:gpxtpx="http://www.garmin.com/xmlschemas/TrackPointExtension/v1">
            <gpxtpx:hr>106</gpxtpx:hr>
          </gpxtpx:TrackPointExtension>
        </extensions>
      </trkpt>
      <trkpt lat="50.34074" lon="3.24319">
        <ele>21.003204</ele>
        <time>2023-01-22T08:45:40Z</time>
      </trkpt>
      <trkpt lat="50.34073" lon="3.24317">
        <ele>27.4</ele>
        <time>2023-01-22T08:45:41Z</time>
      </trkpt>
      <trkpt lat="50.34072" lon="3.24314">
        <ele>27.4</ele>
        <time>2023-01-22T08:45:42Z</time>
      </trkpt>
      <trkpt lat="50.34071" lon="3.24312">
        <ele>27.4</ele>
        <time>2023-01-22T08:45:43Z</time>
      </trkpt>
      <trkpt lat="50.34071" lon="3.2431">
        <ele>27.5</ele>
        <time>2023-01-22T08:45:44Z</time>
      </trkpt>
      <trkpt lat="50.3407" lon="3.24309">
        <ele>27.5</ele>
        <time>2023-01-22T08:45:45Z</time>
      </trkpt>
      <trkpt lat="50.34069" lon="3.24308">
        <ele>27.5</ele>
        <time>2023-01-22T08:45:46Z</time>
      </trkpt>
      <trkpt lat="50.34068" lon="3.24306">
        <ele>27.5</ele>
        <time>2023-01-22T08:45:47Z</time>
      </trkpt>
      <trkpt lat="50.34068" lon="3.24304">
        <ele>27.6</ele>
        <time>2023-01-22T08:45:48Z</time>
      </trkpt>
      <trkpt lat="50.34067" lon="3.24301">
        <ele>27.6</ele>
        <time>2023-01-22T08:45:49Z</time>
      </trkpt>
      <trkpt lat="50.34066" lon="3.24299">
        <ele>20.982336</ele>
        <time>2023-01-22T08:45:50Z</time>
      </trkpt>
      <trkpt lat="50.34066" lon="3.24297">
        <ele>27.6</ele>
        <time>2023-01-22T08:45:51Z</time>
      </trkpt>
      <trkpt lat="50.34065" lon="3.24295">
        <ele>27.7</ele>
        <time>2023-01-22T08:45:52Z</time>
      </trkpt>
      <trkpt lat="50.34064" lon="3.24293">
        <ele>27.7</ele>
        <time>2023-01-22T08:45:53Z</time>
      </trkpt>
      <trkpt lat="50.34063" lon="3.24291">
        <ele>27.7</ele>
        <time>2023-01-22T08:45:54Z</time>
      </trkpt>
      <trkpt lat="50.34063" lon="3.24289">
        <ele>27.7</ele>
        <time>2023-01-22T08:45:55Z</time>
      </trkpt>
      <trkpt lat="50.34062" lon="3.24287">
        <ele>27.8</ele>
        <time>2023-01-22T08:45:56Z</time>
      </trkpt>
      <trkpt lat="50.34062" lon="3.24285">
        <ele>27.8</ele>
        <time>2023-01-22T08:45:57Z</time>
      </trkpt>
      <trkpt lat="50.34061" lon="3.24282">
        <ele>27.8</ele>
        <time>2023-01-22T08:45:58Z</time>
      </trkpt>
      <trkpt lat="50.3406" lon="3.2428">
        <ele>27.8</ele>
        <time>2023-01-22T08:45:59Z</time>
        <extensions>
          <gpxtpx:TrackPointExtension xmlns:gpxtpx="http://www.garmin.com/xmlschemas/TrackPointExtension/v1">
            <gpxtpx:hr>114</gpxtpx:hr>
          </gpxtpx:TrackPointExtension>
        </extensions>
      </trkpt>
      <trkpt lat="50.3406" lon="3.24278">
        <ele>20.99277</ele>
        <time>2023-01-22T08:46:00Z</time>
      </trkpt>
      <trkpt lat="50.34059" lon="3.24276">
        <ele>27.8</ele>
        <time>2023-01-22T08:46:01Z</time>
      </trkpt>
      <trkpt lat="50.34058" lon="3.24274">
        <ele>27.8</ele>
        <time>2023-01-22T08:46:02Z</time>
      </trkpt>
      <trkpt lat="50.34057" lon="3.24272">
        <ele>27.7</ele>
        <time>2023-01-22T08:46:03Z</time>
      </trkpt>
      <trkpt lat="50.34057" lon="3.2427">
        <ele>27.7</ele>
        <time>2023-01-22T08:46:04Z</time>
      </trkpt>
      <trkpt lat="50.34056" lon="3.24268">
        <ele>27.6</ele>
        <time>2023-01-22T08:46:05Z</time>
      </trkpt>
      <trkpt lat="50.34056" lon="3.24266">
        <ele>27.6</ele>
        <time>2023-01-22T08:46:06Z</time>
      </trkpt>
      <trkpt lat="50.34055" lon="3.24264">
        <ele>27.5</ele>
        <time>2023-01-22T08:46:07Z</time>
      </trkpt>
      <trkpt lat="50.34054" lon="3.24262">
        <ele>27.5</ele>
        <time>2023-01-22T08:46:08Z</time>
      </trkpt>
      <trkpt lat="50.34053" lon="3.2426">
        <ele>27.4</ele>
        <time>2023-01-22T08:46:09Z</time>
      </trkpt>
      <trkpt lat="50.34052" lon="3.24258">
        <ele>21.173</ele>
        <time>2023-01-22T08:46:10Z</time>
      </trkpt>
      <trkpt lat="50.34052" lon="3.24256">
        <ele>27.3</ele>
        <time>2023-01-22T08:46:11Z</time>
      </trkpt>
      <trkpt lat="50.34051" lon="3.24254">
        <ele>27.3</ele>
        <time>2023-01-22T08:46:12Z</time>
      </trkpt>
      <trkpt lat="50.3405" lon="3.24252">
        <ele>27.2</ele>
        <time>2023-01-22T08:46:13Z</time>
      </trkpt>
      <trkpt lat="50.3405" lon="3.2425">
        <ele>27.2</ele>
        <time>2023-01-22T08:46:14Z</time>
      </trkpt>
      <trkpt lat="50.34049" lon="3.24247">
        <ele>27.2</ele>
        <time>2023-01-22T08:46:15Z</time>
      </trkpt>
      <trkpt lat="50.34049" lon="3.24245">
        <ele>27.3</ele>
        <time>2023-01-22T08:46:16Z</time>
      </trkpt>
      <trkpt lat="50.34048" lon="3.24242">
        <ele>27.3</ele>
        <time>2023-01-22T08:46:17Z</time>
      </trkpt>
      <trkpt lat="50.34047" lon="3.24239">
        <ele>27.3</ele>
        <time>2023-01-22T08:46:18Z</time>
        <extensions>
          <gpxtpx:TrackPointExtension xmlns:gpxtpx="http://www.garmin.com/xmlschemas/TrackPointExtension/v1">
            <gpxtpx:hr>121</gpxtpx:hr>
          </gpxtpx:TrackPointExtension>
        </extensions>
      </trkpt>
      <trkpt lat="50.34046" lon="3.24237">
        <ele>27.3</ele>
        <time>2023-01-22T08:46:19Z</time>
      </trkpt>
      <trkpt lat="50.34045" lon="3.24235">
        <ele>21.228018</ele>
        <time>2023-01-22T08:46:20Z</time>
      </trkpt>
      <trkpt lat="50.34044" lon="3.24233">
        <ele>27.4</ele>
        <time>2023-01-22T08:46:21Z</time>
      </trkpt>
      <trkpt lat="50.34044" lon="3.24231">
        <ele>27.4</ele>
        <time>2023-01-22T08:46:22Z</time>
      </trkpt>
      <trkpt lat="50.34043" lon="3.24229">
        <ele>27.5</ele>
        <time>2023-01-22T08:46:23Z</time>
      </trkpt>
      <trkpt lat="50.34042" lon="3.24228">
        <ele>27.5</ele>
        <time>2023-01-22T08:46:24Z</time>
      </trkpt>
      <trkpt lat="50.34041" lon="3.24226">
        <ele>27.5</ele>
        <time>2023-01-22T08:46:25Z</time>
      </trkpt>
      <trkpt lat="50.34041" lon="3.24225">
        <ele>27.5</ele>
        <time>2023-01-22T08:46:26Z</time>
      </trkpt>
      <trkpt lat="50.3404" lon="3.24223">
        <ele>27.6</ele>
        <time>2023-01-22T08:46:27Z</time>
      </trkpt>
      <trkpt lat="50.34039" lon="3.24221">
        <ele>27.6</ele>
        <time>2023-01-22T08:46:28Z</time>
      </trkpt>
      <trkpt lat="50.34039" lon="3.2422">
        <ele>27.6</ele>
        <time>2023-01-22T08:46:29Z</time>
      </trkpt>
      <trkpt lat="50.34038" lon="3.24218">
        <ele>21.092371</ele>
        <time>2023-01-22T08:46:30Z</time>
      </trkpt>
      <trkpt lat="50.34037" lon="3.24216">
        <ele>27.7</ele>
        <time>2023-01-22T08:46:31Z</time>
      </trkpt>
      <trkpt lat="50.34036" lon="3.24214">
        <ele>27.7</ele>
        <time>2023-01-22T08:46:32Z</time>
      </trkpt>
      <trkpt lat="50.34036" lon="3.24213">
        <ele>27.7</ele>
        <time>2023-01-22T08:46:33Z</time>
      </trkpt>
      <trkpt lat="50.34035" lon="3.24211">
        <ele>27.7</ele>
        <time>2023-01-22T08:46:34Z</time>
      </trkpt>
      <trkpt lat="50.34035" lon="3.24208">
        <ele>27.8</ele>
        <time>2023-01-22T08:46:35Z</time>
      </trkpt>
      <trkpt lat="50.34034" lon="3.24206">
        <ele>27.8</ele>
        <time>2023-01-22T08:46:36Z</time>
      </trkpt>
      <trkpt lat="50.34033" lon="3.24205">
        <ele>27.8</ele>
        <time>2023-01-22T08:46:37Z</time>
      </trkpt>
      <trkpt lat="50.34032" lon="3.24203">
        <ele>27.8</ele>
        <time>2023-01-22T08:46:38Z</time>
        <extensions>
          <gpxtpx:TrackPointExtension xmlns:gpxtpx="http://www.garmin.com/xmlschemas/TrackPointExtension/v1">
            <gpxtpx:hr>130</gpxtpx:hr>
          </gpxtpx:TrackPointExtension>
        </extensions>
      </trkpt>
      <trkpt lat="50.34032" lon="3.24202">
        <ele>27.9</ele>
        <time>2023-01-22T08:46:39Z</time>
      </trkpt>
      <trkpt lat="50.34031" lon="3.24201">
        <ele>21.024073</ele>
        <time>2023-01-22T08:46:41Z</time>
      </trkpt>
      <trkpt lat="50.3403" lon="3.24199">
        <ele>27.9</ele>
        <time>2023-01-22T08:46:42Z</time>
      </trkpt>
      <trkpt lat="50.34029" lon="3.24196">
        <ele>28</ele>
        <time>2023-01-22T08:46:43Z</time>
      </trkpt>
      <trkpt lat="50.34028" lon="3.24195">
        <ele>28</ele>
        <time>2023-01-22T08:46:44Z</time>
      </trkpt>
      <trkpt lat="50.34028" lon="3.24193">
        <ele>27.9</ele>
        <time>2023-01-22T08:46:45Z</time>
      </trkpt>
      <trkpt lat="50.34027" lon="3.24191">
        <ele>27.9</ele>
        <time>2023-01-22T08:46:46Z</time>
      </trkpt>
      <trkpt lat="50.34026" lon="3.24189">
        <ele>27.8</ele>
        <time>2023-01-22T08:46:47Z</time>
      </trkpt>
      <trkpt lat="50.34024" lon="3.24187">
        <ele>27.8</ele>
        <time>2023-01-22T08:46:48Z</time>
      </trkpt>
      <trkpt lat="50.34023" lon="3.24185">
        <ele>27.7</ele>
        <time>2023-01-22T08:46:49Z</time>
      </trkpt>
      <trkpt lat="50.34023" lon="3.24184">
        <ele>27.7</ele>
        <time>2023-01-22T08:46:50Z</time>
      </trkpt>
      <trkpt lat="50.34021" lon="3.24182">
        <ele>27.7</ele>
        <time>2023-01-22T08:46:51Z</time>
      </trkpt>
      <trkpt lat="50.3402" lon="3.2418">
        <ele>27.6</ele>
        <time>2023-01-22T08:46:52Z</time>
      </trkpt>
      <trkpt lat="50.3402" lon="3.24179">
        <ele>27.6</ele>
        <time>2023-01-22T08:46:53Z</time>
      </trkpt>
      <trkpt lat="50.34019" lon="3.24177">
        <ele>27.6</ele>
        <time>2023-01-22T08:46:54Z</time>
      </trkpt>
      <trkpt lat="50.34018" lon="3.24175">
        <ele>21.12557</ele>
        <time>2023-01-22T08:46:55Z</time>
      </trkpt>
      <trkpt lat="50.34017" lon="3.24174">
        <ele>27.5</ele>
        <time>2023-01-22T08:46:56Z</time>
      </trkpt>
      <trkpt lat="50.34016" lon="3.24172">
        <ele>27.5</ele>
        <time>2023-01-22T08:46:57Z</time>
      </trkpt>
      <trkpt lat="50.34015" lon="3.24171">
        <ele>27.5</ele>
        <time>2023-01-22T08:46:58Z</time>
        <extensions>
          <gpxtpx:TrackPointExtension xmlns:gpxtpx="http://www.garmin.com/xmlschemas/TrackPointExtension/v1">
            <gpxtpx:hr>136</gpxtpx:hr>
          </gpxtpx:TrackPointExtension>
        </extensions>
      </trkpt>
      <trkpt lat="50.34014" lon="3.2417">
        <ele>27.6</ele>
        <time>2023-01-22T08:46:59Z</time>
      </trkpt>
      <trkpt lat="50.34013" lon="3.24168">
        <ele>21.209047</ele>
        <time>2023-01-22T08:47:00Z</time>
      </trkpt>
      <trkpt lat="50.34012" lon="3.24167">
        <ele>27.6</ele>
        <time>2023-01-22T08:47:01Z</time>
      </trkpt>
      <trkpt lat="50.3401" lon="3.24165">
        <ele>27.6</ele>
        <time>2023-01-22T08:47:02Z</time>
      </trkpt>
      <trkpt lat="50.34009" lon="3.24163">
        <ele>27.7</ele>
        <time>2023-01-22T08:47:03Z</time>
      </trkpt>
      <trkpt lat="50.34008" lon="3.24161">
        <ele>27.7</ele>
        <time>2023-01-22T08:47:04Z</time>
      </trkpt>
      <trkpt lat="50.34007" lon="3.2416">
        <ele>27.7</ele>
        <time>2023-01-22T08:47:05Z</time>
      </trkpt>
      <trkpt lat="50.34007" lon="3.24158">
        <ele>27.8</ele>
        <time>2023-01-22T08:47:06Z</time>
      </trkpt>
      <trkpt lat="50.34005" lon="3.24157">
        <ele>27.8</ele>
        <time>2023-01-22T08:47:07Z</time>
      </trkpt>
      <trkpt lat="50.34005" lon="3.24155">
        <ele>27.8</ele>
        <time>2023-01-22T08:47:08Z</time>
      </trkpt>
      <trkpt lat="50.34003" lon="3.24154">
        <ele>27.9</ele>
        <time>2023-01-22T08:47:09Z</time>
      </trkpt>
      <trkpt lat="50.34002" lon="3.24153">
        <ele>21.255527</ele>
        <time>2023-01-22T08:47:10Z</time>
      </trkpt>
      <trkpt lat="50.34001" lon="3.24151">
        <ele>28</ele>
        <time>2023-01-22T08:47:11Z</time>
      </trkpt>
      <trkpt lat="50.34" lon="3.24149">
        <ele>28</ele>
        <time>2023-01-22T08:47:12Z</time>
      </trkpt>
      <trkpt lat="50.34" lon="3.24147">
        <ele>28</ele>
        <time>2023-01-22T08:47:13Z</time>
      </trkpt>
      <trkpt lat="50.33999" lon="3.24145">
        <ele>28</ele>
        <time>2023-01-22T08:47:14Z</time>
      </trkpt>
      <trkpt lat="50.33999" lon="3.24143">
        <ele>28</ele>
        <time>2023-01-22T08:47:15Z</time>
      </trkpt>
      <trkpt lat="50.33998" lon="3.2414">
        <ele>28</ele>
        <time>2023-01-22T08:47:16Z</time>
      </trkpt>
      <trkpt lat="50.33997" lon="3.24138">
        <ele>28</ele>
        <time>2023-01-22T08:47:17Z</time>
      </trkpt>
      <trkpt lat="50.33996" lon="3.24136">
        <ele>27.9</ele>
        <time>2023-01-22T08:47:18Z</time>
      </trkpt>
      <trkpt lat="50.33995" lon="3.24134">
        <ele>27.9</ele>
        <time>2023-01-22T08:47:19Z</time>
        <extensions>
          <gpxtpx:TrackPointExtension xmlns:gpxtpx="http://www.garmin.com/xmlschemas/TrackPointExtension/v1">
            <gpxtpx:hr>140</gpxtpx:hr>
          </gpxtpx:TrackPointExtension>
        </extensions>
      </trkpt>
      <trkpt lat="50.33994" lon="3.24132">
        <ele>21.339003</ele>
        <time>2023-01-22T08:47:20Z</time>
      </trkpt>
      <trkpt lat="50.33993" lon="3.2413">
        <ele>27.8</ele>
        <time>2023-01-22T08:47:21Z</time>
      </trkpt>
      <trkpt lat="50.33992" lon="3.24128">
        <ele>27.7</ele>
        <time>2023-01-22T08:47:22Z</time>
      </trkpt>
      <trkpt lat="50.33991" lon="3.24126">
        <ele>27.7</ele>
        <time>2023-01-22T08:47:23Z</time>
      </trkpt>
      <trkpt lat="50.3399" lon="3.24125">
        <ele>27.7</ele>
        <time>2023-01-22T08:47:24Z</time>
      </trkpt>
      <trkpt lat="50.3399" lon="3.24122">
        <ele>27.6</ele>
        <time>2023-01-22T08:47:25Z</time>
      </trkpt>
      <trkpt lat="50.33989" lon="3.2412">
        <ele>27.6</ele>
        <time>2023-01-22T08:47:26Z</time>
      </trkpt>
      <trkpt lat="50.33988" lon="3.24118">
        <ele>27.6</ele>
        <time>2023-01-22T08:47:27Z</time>
      </trkpt>
      <trkpt lat="50.33987" lon="3.24117">
        <ele>27.6</ele>
        <time>2023-01-22T08:47:28Z</time>
      </trkpt>
      <trkpt lat="50.33986" lon="3.24115">
        <ele>27.6</ele>
        <time>2023-01-22T08:47:29Z</time>
      </trkpt>
      <trkpt lat="50.33985" lon="3.24113">
        <ele>21.436708</ele>
        <time>2023-01-22T08:47:30Z</time>
      </trkpt>
      <trkpt lat="50.33984" lon="3.24111">
        <ele>27.6</ele>
        <time>2023-01-22T08:47:31Z</time>
      </trkpt>
      <trkpt lat="50.33983" lon="3.24109">
        <ele>27.6</ele>
        <time>2023-01-22T08:47:32Z</time>
      </trkpt>
      <trkpt lat="50.33981" lon="3.24107">
        <ele>27.7</ele>
        <time>2023-01-22T08:47:33Z</time>
      </trkpt>
      <trkpt lat="50.3398" lon="3.24106">
        <ele>27.7</ele>
        <time>2023-01-22T08:47:34Z</time>
      </trkpt>
      <trkpt lat="50.33979" lon="3.24104">
        <ele>27.8</ele>
        <time>2023-01-22T08:47:35Z</time>
      </trkpt>
      <trkpt lat="50.33978" lon="3.24103">
        <ele>27.8</ele>
        <time>2023-01-22T08:47:36Z</time>
      </trkpt>
      <trkpt lat="50.33977" lon="3.24101">
        <ele>27.8</ele>
        <time>2023-01-22T08:47:37Z</time>
      </trkpt>
      <trkpt lat="50.33976" lon="3.241">
        <ele>27.9</ele>
        <time>2023-01-22T08:47:38Z</time>
      </trkpt>
      <trkpt lat="50.33975" lon="3.24098">
        <ele>27.9</ele>
        <time>2023-01-22T08:47:39Z</time>
        <extensions>
          <gpxtpx:TrackPointExtension xmlns:gpxtpx="http://www.garmin.com/xmlschemas/TrackPointExtension/v1">
            <gpxtpx:hr>136</gpxtpx:hr>
          </gpxtpx:TrackPointExtension>
        </extensions>
      </trkpt>
      <trkpt lat="50.33975" lon="3.24096">
        <ele>21.504059</ele>
        <time>2023-01-22T08:47:40Z</time>
      </trkpt>
      <trkpt lat="50.33973" lon="3.24094">
        <ele>28</ele>
        <time>2023-01-22T08:47:41Z</time>
      </trkpt>
      <trkpt lat="50.33973" lon="3.24092">
        <ele>28</ele>
        <time>2023-01-22T08:47:42Z</time>
      </trkpt>
      <trkpt lat="50.33972" lon="3.2409">
        <ele>28</ele>
        <time>2023-01-22T08:47:43Z</time>
      </trkpt>
      <trkpt lat="50.33971" lon="3.24088">
        <ele>28</ele>
        <time>2023-01-22T08:47:44Z</time>
      </trkpt>
      <trkpt lat="50.3397" lon="3.24086">
        <ele>28.1</ele>
        <time>2023-01-22T08:47:45Z</time>
      </trkpt>
      <trkpt lat="50.33969" lon="3.24085">
        <ele>28.1</ele>
        <time>2023-01-22T08:47:46Z</time>
      </trkpt>
      <trkpt lat="50.33968" lon="3.24083">
        <ele>28.2</ele>
        <time>2023-01-22T08:47:47Z</time>
      </trkpt>
      <trkpt lat="50.33967" lon="3.24081">
        <ele>28.2</ele>
        <time>2023-01-22T08:47:48Z</time>
      </trkpt>
      <trkpt lat="50.33966" lon="3.24079">
        <ele>28.2</ele>
        <time>2023-01-22T08:47:49Z</time>
      </trkpt>
      <trkpt lat="50.33965" lon="3.24078">
        <ele>21.631172</ele>
        <time>2023-01-22T08:47:50Z</time>
      </trkpt>
      <trkpt lat="50.33964" lon="3.24076">
        <ele>28.3</ele>
        <time>2023-01-22T08:47:51Z</time>
      </trkpt>
      <trkpt lat="50.33963" lon="3.24074">
        <ele>28.3</ele>
        <time>2023-01-22T08:47:52Z</time>
      </trkpt>
      <trkpt lat="50.33963" lon="3.24073">
        <ele>28.3</ele>
        <time>2023-01-22T08:47:53Z</time>
      </trkpt>
      <trkpt lat="50.33962" lon="3.24071">
        <ele>28.4</ele>
        <time>2023-01-22T08:47:54Z</time>
      </trkpt>
      <trkpt lat="50.33961" lon="3.24068">
        <ele>28.4</ele>
        <time>2023-01-22T08:47:55Z</time>
      </trkpt>
      <trkpt lat="50.3396" lon="3.24066">
        <ele>28.5</ele>
        <time>2023-01-22T08:47:56Z</time>
      </trkpt>
      <trkpt lat="50.33958" lon="3.24064">
        <ele>28.5</ele>
        <time>2023-01-22T08:47:57Z</time>
      </trkpt>
      <trkpt lat="50.33957" lon="3.24063">
        <ele>28.5</ele>
        <time>2023-01-22T08:47:58Z</time>
      </trkpt>
      <trkpt lat="50.33956" lon="3.24061">
        <ele>28.6</ele>
        <time>2023-01-22T08:47:59Z</time>
        <extensions>
          <gpxtpx:TrackPointExtension xmlns:gpxtpx="http://www.garmin.com/xmlschemas/TrackPointExtension/v1">
            <gpxtpx:hr>129</gpxtpx:hr>
          </gpxtpx:TrackPointExtension>
        </extensions>
      </trkpt>
      <trkpt lat="50.33955" lon="3.2406">
        <ele>21.702318</ele>
        <time>2023-01-22T08:48:00Z</time>
      </trkpt>
      <trkpt lat="50.33955" lon="3.24059">
        <ele>28.6</ele>
        <time>2023-01-22T08:48:01Z</time>
      </trkpt>
      <trkpt lat="50.33954" lon="3.24058">
        <ele>28.7</ele>
        <time>2023-01-22T08:48:02Z</time>
      </trkpt>
      <trkpt lat="50.33954" lon="3.24056">
        <ele>28.7</ele>
        <time>2023-01-22T08:48:03Z</time>
      </trkpt>
      <trkpt lat="50.33952" lon="3.24055">
        <ele>28.7</ele>
        <time>2023-01-22T08:48:04Z</time>
      </trkpt>
      <trkpt lat="50.33951" lon="3.24054">
        <ele>28.8</ele>
        <time>2023-01-22T08:48:05Z</time>
      </trkpt>
      <trkpt lat="50.3395" lon="3.24052">
        <ele>28.8</ele>
        <time>2023-01-22T08:48:06Z</time>
      </trkpt>
      <trkpt lat="50.33949" lon="3.24052">
        <ele>28.8</ele>
        <time>2023-01-22T08:48:07Z</time>
      </trkpt>
      <trkpt lat="50.33947" lon="3.24051">
        <ele>28.9</ele>
        <time>2023-01-22T08:48:08Z</time>
      </trkpt>
      <trkpt lat="50.33946" lon="3.24049">
        <ele>28.9</ele>
        <time>2023-01-22T08:48:09Z</time>
      </trkpt>
      <trkpt lat="50.33945" lon="3.24047">
        <ele>21.91291</ele>
        <time>2023-01-22T08:48:10Z</time>
      </trkpt>
      <trkpt lat="50.33943" lon="3.24045">
        <ele>29</ele>
        <time>2023-01-22T08:48:11Z</time>
      </trkpt>
      <trkpt lat="50.33942" lon="3.24044">
        <ele>29</ele>
        <time>2023-01-22T08:48:12Z</time>
      </trkpt>
      <trkpt lat="50.33941" lon="3.24043">
        <ele>29.1</ele>
        <time>2023-01-22T08:48:13Z</time>
      </trkpt>
      <trkpt lat="50.3394" lon="3.24042">
        <ele>29.1</ele>
        <time>2023-01-22T08:48:14Z</time>
      </trkpt>
      <trkpt lat="50.33939" lon="3.24041">
        <ele>29.1</ele>
        <time>2023-01-22T08:48:15Z</time>
      </trkpt>
      <trkpt lat="50.33939" lon="3.24039">
        <ele>29.1</ele>
        <time>2023-01-22T08:48:16Z</time>
      </trkpt>
      <trkpt lat="50.33938" lon="3.24038">
        <ele>29.2</ele>
        <time>2023-01-22T08:48:17Z</time>
      </trkpt>
      <trkpt lat="50.33936" lon="3.24037">
        <ele>29.2</ele>
        <time>2023-01-22T08:48:18Z</time>
      </trkpt>
      <trkpt lat="50.33935" lon="3.24036">
        <ele>29.2</ele>
        <time>2023-01-22T08:48:19Z</time>
        <extensions>
          <gpxtpx:TrackPointExtension xmlns:gpxtpx="http://www.garmin.com/xmlschemas/TrackPointExtension/v1">
            <gpxtpx:hr>132</gpxtpx:hr>
          </gpxtpx:TrackPointExtension>
        </extensions>
      </trkpt>
      <trkpt lat="50.33934" lon="3.24034">
        <ele>22.104532</ele>
        <time>2023-01-22T08:48:20Z</time>
      </trkpt>
      <trkpt lat="50.33933" lon="3.24032">
        <ele>29.3</ele>
        <time>2023-01-22T08:48:21Z</time>
      </trkpt>
      <trkpt lat="50.33932" lon="3.2403">
        <ele>29.4</ele>
        <time>2023-01-22T08:48:22Z</time>
      </trkpt>
      <trkpt lat="50.33931" lon="3.2403">
        <ele>29.4</ele>
        <time>2023-01-22T08:48:23Z</time>
      </trkpt>
      <trkpt lat="50.3393" lon="3.24028">
        <ele>29.5</ele>
        <time>2023-01-22T08:48:24Z</time>
      </trkpt>
      <trkpt lat="50.33929" lon="3.24026">
        <ele>29.6</ele>
        <time>2023-01-22T08:48:25Z</time>
      </trkpt>
      <trkpt lat="50.33928" lon="3.24024">
        <ele>29.6</ele>
        <time>2023-01-22T08:48:26Z</time>
      </trkpt>
      <trkpt lat="50.33927" lon="3.24023">
        <ele>29.6</ele>
        <time>2023-01-22T08:48:27Z</time>
      </trkpt>
      <trkpt lat="50.33926" lon="3.24021">
        <ele>29.7</ele>
        <time>2023-01-22T08:48:28Z</time>
      </trkpt>
      <trkpt lat="50.33925" lon="3.2402">
        <ele>29.7</ele>
        <time>2023-01-22T08:48:29Z</time>
      </trkpt>
      <trkpt lat="50.33923" lon="3.24018">
        <ele>29.8</ele>
        <time>2023-01-22T08:48:30Z</time>
      </trkpt>
      <trkpt lat="50.33922" lon="3.24016">
        <ele>29.8</ele>
        <time>2023-01-22T08:48:31Z</time>
      </trkpt>
      <trkpt lat="50.33921" lon="3.24014">
        <ele>29.8</ele>
        <time>2023-01-22T08:48:32Z</time>
      </trkpt>
      <trkpt lat="50.3392" lon="3.24013">
        <ele>29.9</ele>
        <time>2023-01-22T08:48:33Z</time>
      </trkpt>
      <trkpt lat="50.33919" lon="3.24011">
        <ele>29.9</ele>
        <time>2023-01-22T08:48:34Z</time>
      </trkpt>
      <trkpt lat="50.33918" lon="3.2401">
        <ele>22.329357</ele>
        <time>2023-01-22T08:48:35Z</time>
      </trkpt>
      <trkpt lat="50.33917" lon="3.24009">
        <ele>30</ele>
        <time>2023-01-22T08:48:36Z</time>
      </trkpt>
      <trkpt lat="50.33916" lon="3.24007">
        <ele>30</ele>
        <time>2023-01-22T08:48:37Z</time>
      </trkpt>
      <trkpt lat="50.33915" lon="3.24006">
        <ele>30</ele>
        <time>2023-01-22T08:48:38Z</time>
      </trkpt>
      <trkpt lat="50.33914" lon="3.24004">
        <ele>30</ele>
        <time>2023-01-22T08:48:39Z</time>
        <extensions>
          <gpxtpx:TrackPointExtension xmlns:gpxtpx="http://www.garmin.com/xmlschemas/TrackPointExtension/v1">
            <gpxtpx:hr>137</gpxtpx:hr>
          </gpxtpx:TrackPointExtension>
        </extensions>
      </trkpt>
      <trkpt lat="50.33913" lon="3.24003">
        <ele>22.553238</ele>
        <time>2023-01-22T08:48:40Z</time>
      </trkpt>
      <trkpt lat="50.33912" lon="3.24001">
        <ele>30</ele>
        <time>2023-01-22T08:48:41Z</time>
      </trkpt>
      <trkpt lat="50.33912" lon="3.23998">
        <ele>29.9</ele>
        <time>2023-01-22T08:48:42Z</time>
      </trkpt>
      <trkpt lat="50.33911" lon="3.23996">
        <ele>29.9</ele>
        <time>2023-01-22T08:48:43Z</time>
      </trkpt>
      <trkpt lat="50.3391" lon="3.23995">
        <ele>29.9</ele>
        <time>2023-01-22T08:48:44Z</time>
      </trkpt>
      <trkpt lat="50.33909" lon="3.23993">
        <ele>29.8</ele>
        <time>2023-01-22T08:48:45Z</time>
      </trkpt>
      <trkpt lat="50.33907" lon="3.23991">
        <ele>29.8</ele>
        <time>2023-01-22T08:48:46Z</time>
      </trkpt>
      <trkpt lat="50.33906" lon="3.2399">
        <ele>29.8</ele>
        <time>2023-01-22T08:48:47Z</time>
      </trkpt>
      <trkpt lat="50.33905" lon="3.23989">
        <ele>29.8</ele>
        <time>2023-01-22T08:48:48Z</time>
      </trkpt>
      <trkpt lat="50.33904" lon="3.23987">
        <ele>29.7</ele>
        <time>2023-01-22T08:48:49Z</time>
      </trkpt>
      <trkpt lat="50.33903" lon="3.23986">
        <ele>22.681305</ele>
        <time>2023-01-22T08:48:50Z</time>
      </trkpt>
      <trkpt lat="50.33902" lon="3.23984">
        <ele>29.7</ele>
        <time>2023-01-22T08:48:51Z</time>
      </trkpt>
      <trkpt lat="50.33901" lon="3.23983">
        <ele>29.7</ele>
        <time>2023-01-22T08:48:52Z</time>
      </trkpt>
      <trkpt lat="50.339" lon="3.23982">
        <ele>29.7</ele>
        <time>2023-01-22T08:48:53Z</time>
      </trkpt>
      <trkpt lat="50.33899" lon="3.23979">
        <ele>29.7</ele>
        <time>2023-01-22T08:48:54Z</time>
      </trkpt>
      <trkpt lat="50.33898" lon="3.23977">
        <ele>29.7</ele>
        <time>2023-01-22T08:48:55Z</time>
      </trkpt>
      <trkpt lat="50.33897" lon="3.23975">
        <ele>29.7</ele>
        <time>2023-01-22T08:48:56Z</time>
      </trkpt>
      <trkpt lat="50.33896" lon="3.23973">
        <ele>29.7</ele>
        <time>2023-01-22T08:48:57Z</time>
      </trkpt>
      <trkpt lat="50.33895" lon="3.23971">
        <ele>29.8</ele>
        <time>2023-01-22T08:48:58Z</time>
      </trkpt>
      <trkpt lat="50.33894" lon="3.23969">
        <ele>29.8</ele>
        <time>2023-01-22T08:48:59Z</time>
        <extensions>
          <gpxtpx:TrackPointExtension xmlns:gpxtpx="http://www.garmin.com/xmlschemas/TrackPointExtension/v1">
            <gpxtpx:hr>130</gpxtpx:hr>
          </gpxtpx:TrackPointExtension>
        </extensions>
      </trkpt>
      <trkpt lat="50.33894" lon="3.23967">
        <ele>23.063616</ele>
        <time>2023-01-22T08:49:00Z</time>
      </trkpt>
      <trkpt lat="50.33892" lon="3.23966">
        <ele>29.9</ele>
        <time>2023-01-22T08:49:01Z</time>
      </trkpt>
      <trkpt lat="50.33892" lon="3.23963">
        <ele>29.9</ele>
        <time>2023-01-22T08:49:02Z</time>
      </trkpt>
      <trkpt lat="50.33891" lon="3.23962">
        <ele>29.9</ele>
        <time>2023-01-22T08:49:03Z</time>
      </trkpt>
      <trkpt lat="50.3389" lon="3.23959">
        <ele>30</ele>
        <time>2023-01-22T08:49:04Z</time>
      </trkpt>
      <trkpt lat="50.33889" lon="3.23957">
        <ele>30</ele>
        <time>2023-01-22T08:49:05Z</time>
      </trkpt>
      <trkpt lat="50.33888" lon="3.23954">
        <ele>30</ele>
        <time>2023-01-22T08:49:06Z</time>
      </trkpt>
      <trkpt lat="50.33887" lon="3.23953">
        <ele>30.1</ele>
        <time>2023-01-22T08:49:07Z</time>
      </trkpt>
      <trkpt lat="50.33886" lon="3.23951">
        <ele>30.1</ele>
        <time>2023-01-22T08:49:08Z</time>
      </trkpt>
      <trkpt lat="50.33885" lon="3.23949">
        <ele>30.1</ele>
        <time>2023-01-22T08:49:09Z</time>
      </trkpt>
      <trkpt lat="50.33884" lon="3.23948">
        <ele>23.317862</ele>
        <time>2023-01-22T08:49:10Z</time>
      </trkpt>
      <trkpt lat="50.33883" lon="3.23946">
        <ele>30.2</ele>
        <time>2023-01-22T08:49:11Z</time>
      </trkpt>
      <trkpt lat="50.33883" lon="3.23944">
        <ele>30.2</ele>
        <time>2023-01-22T08:49:12Z</time>
      </trkpt>
      <trkpt lat="50.33881" lon="3.23943">
        <ele>30.3</ele>
        <time>2023-01-22T08:49:13Z</time>
      </trkpt>
      <trkpt lat="50.3388" lon="3.23941">
        <ele>30.3</ele>
        <time>2023-01-22T08:49:14Z</time>
      </trkpt>
      <trkpt lat="50.3388" lon="3.23939">
        <ele>30.3</ele>
        <time>2023-01-22T08:49:15Z</time>
      </trkpt>
      <trkpt lat="50.3388" lon="3.23937">
        <ele>30.3</ele>
        <time>2023-01-22T08:49:16Z</time>
      </trkpt>
      <trkpt lat="50.33879" lon="3.23935">
        <ele>30.4</ele>
        <time>2023-01-22T08:49:17Z</time>
      </trkpt>
      <trkpt lat="50.33878" lon="3.23933">
        <ele>30.4</ele>
        <time>2023-01-22T08:49:18Z</time>
      </trkpt>
      <trkpt lat="50.33877" lon="3.23931">
        <ele>30.4</ele>
        <time>2023-01-22T08:49:19Z</time>
        <extensions>
          <gpxtpx:TrackPointExtension xmlns:gpxtpx="http://www.garmin.com/xmlschemas/TrackPointExtension/v1">
            <gpxtpx:hr>134</gpxtpx:hr>
          </gpxtpx:TrackPointExtension>
        </extensions>
      </trkpt>
      <trkpt lat="50.33876" lon="3.23929">
        <ele>23.26094</ele>
        <time>2023-01-22T08:49:20Z</time>
      </trkpt>
      <trkpt lat="50.33876" lon="3.23926">
        <ele>30.5</ele>
        <time>2023-01-22T08:49:21Z</time>
      </trkpt>
      <trkpt lat="50.33875" lon="3.23924">
        <ele>30.5</ele>
        <time>2023-01-22T08:49:22Z</time>
      </trkpt>
      <trkpt lat="50.33875" lon="3.23922">
        <ele>30.5</ele>
        <time>2023-01-22T08:49:23Z</time>
      </trkpt>
      <trkpt lat="50.33874" lon="3.23921">
        <ele>30.5</ele>
        <time>2023-01-22T08:49:24Z</time>
      </trkpt>
      <trkpt lat="50.33873" lon="3.2392">
        <ele>30.6</ele>
        <time>2023-01-22T08:49:25Z</time>
      </trkpt>
      <trkpt lat="50.33873" lon="3.23919">
        <ele>30.6</ele>
        <time>2023-01-22T08:49:26Z</time>
      </trkpt>
      <trkpt lat="50.33873" lon="3.23918">
        <ele>30.6</ele>
        <time>2023-01-22T08:49:27Z</time>
      </trkpt>
      <trkpt lat="50.33873" lon="3.23916">
        <ele>30.6</ele>
        <time>2023-01-22T08:49:28Z</time>
      </trkpt>
      <trkpt lat="50.33872" lon="3.23914">
        <ele>30.6</ele>
        <time>2023-01-22T08:49:29Z</time>
      </trkpt>
      <trkpt lat="50.33872" lon="3.23912">
        <ele>23.309322</ele>
        <time>2023-01-22T08:49:30Z</time>
      </trkpt>
      <trkpt lat="50.33871" lon="3.2391">
        <ele>30.7</ele>
        <time>2023-01-22T08:49:31Z</time>
      </trkpt>
      <trkpt lat="50.3387" lon="3.23908">
        <ele>30.7</ele>
        <time>2023-01-22T08:49:32Z</time>
      </trkpt>
      <trkpt lat="50.3387" lon="3.23906">
        <ele>30.7</ele>
        <time>2023-01-22T08:49:33Z</time>
      </trkpt>
      <trkpt lat="50.33869" lon="3.23905">
        <ele>30.7</ele>
        <time>2023-01-22T08:49:34Z</time>
      </trkpt>
      <trkpt lat="50.33868" lon="3.23903">
        <ele>30.7</ele>
        <time>2023-01-22T08:49:35Z</time>
      </trkpt>
      <trkpt lat="50.33868" lon="3.239">
        <ele>30.8</ele>
        <time>2023-01-22T08:49:36Z</time>
      </trkpt>
      <trkpt lat="50.33867" lon="3.23899">
        <ele>30.8</ele>
        <time>2023-01-22T08:49:37Z</time>
      </trkpt>
      <trkpt lat="50.33867" lon="3.23898">
        <ele>30.8</ele>
        <time>2023-01-22T08:49:38Z</time>
      </trkpt>
      <trkpt lat="50.33866" lon="3.23896">
        <ele>30.8</ele>
        <time>2023-01-22T08:49:39Z</time>
        <extensions>
          <gpxtpx:TrackPointExtension xmlns:gpxtpx="http://www.garmin.com/xmlschemas/TrackPointExtension/v1">
            <gpxtpx:hr>137</gpxtpx:hr>
          </gpxtpx:TrackPointExtension>
        </extensions>
      </trkpt>
      <trkpt lat="50.33866" lon="3.23893">
        <ele>23.476292</ele>
        <time>2023-01-22T08:49:40Z</time>
      </trkpt>
      <trkpt lat="50.33865" lon="3.23891">
        <ele>30.8</ele>
        <time>2023-01-22T08:49:41Z</time>
      </trkpt>
      <trkpt lat="50.33864" lon="3.23889">
        <ele>30.9</ele>
        <time>2023-01-22T08:49:42Z</time>
      </trkpt>
      <trkpt lat="50.33863" lon="3.23887">
        <ele>30.8</ele>
        <time>2023-01-22T08:49:43Z</time>
      </trkpt>
      <trkpt lat="50.33863" lon="3.23885">
        <ele>30.8</ele>
        <time>2023-01-22T08:49:44Z</time>
      </trkpt>
      <trkpt lat="50.33862" lon="3.23883">
        <ele>30.8</ele>
        <time>2023-01-22T08:49:45Z</time>
      </trkpt>
      <trkpt lat="50.33862" lon="3.23881">
        <ele>30.7</ele>
        <time>2023-01-22T08:49:46Z</time>
      </trkpt>
      <trkpt lat="50.33861" lon="3.23879">
        <ele>30.6</ele>
        <time>2023-01-22T08:49:47Z</time>
      </trkpt>
      <trkpt lat="50.3386" lon="3.23877">
        <ele>30.6</ele>
        <time>2023-01-22T08:49:48Z</time>
      </trkpt>
      <trkpt lat="50.33859" lon="3.23875">
        <ele>30.5</ele>
        <time>2023-01-22T08:49:49Z</time>
      </trkpt>
      <trkpt lat="50.33858" lon="3.23873">
        <ele>23.708721</ele>
        <time>2023-01-22T08:49:50Z</time>
      </trkpt>
      <trkpt lat="50.33858" lon="3.23871">
        <ele>30.4</ele>
        <time>2023-01-22T08:49:51Z</time>
      </trkpt>
      <trkpt lat="50.33857" lon="3.23869">
        <ele>30.4</ele>
        <time>2023-01-22T08:49:52Z</time>
      </trkpt>
      <trkpt lat="50.33856" lon="3.23866">
        <ele>30.3</ele>
        <time>2023-01-22T08:49:53Z</time>
      </trkpt>
      <trkpt lat="50.33855" lon="3.23864">
        <ele>30.3</ele>
        <time>2023-01-22T08:49:54Z</time>
      </trkpt>
      <trkpt lat="50.33855" lon="3.23862">
        <ele>30.3</ele>
        <time>2023-01-22T08:49:55Z</time>
      </trkpt>
      <trkpt lat="50.33854" lon="3.23861">
        <ele>30.3</ele>
        <time>2023-01-22T08:49:56Z</time>
      </trkpt>
      <trkpt lat="50.33853" lon="3.2386">
        <ele>30.3</ele>
        <time>2023-01-22T08:49:57Z</time>
      </trkpt>
      <trkpt lat="50.33852" lon="3.23858">
        <ele>30.3</ele>
        <time>2023-01-22T08:49:58Z</time>
      </trkpt>
      <trkpt lat="50.33852" lon="3.23855">
        <ele>30.3</ele>
        <time>2023-01-22T08:49:59Z</time>
      </trkpt>
      <trkpt lat="50.33851" lon="3.23853">
        <ele>23.772285</ele>
        <time>2023-01-22T08:50:00Z</time>
      </trkpt>
      <trkpt lat="50.3385" lon="3.23851">
        <ele>30.4</ele>
        <time>2023-01-22T08:50:01Z</time>
      </trkpt>
      <trkpt lat="50.33849" lon="3.23849">
        <ele>30.4</ele>
        <time>2023-01-22T08:50:02Z</time>
      </trkpt>
      <trkpt lat="50.33849" lon="3.23847">
        <ele>30.5</ele>
        <time>2023-01-22T08:50:03Z</time>
      </trkpt>
      <trkpt lat="50.33848" lon="3.23845">
        <ele>30.5</ele>
        <time>2023-01-22T08:50:04Z</time>
        <extensions>
          <gpxtpx:TrackPointExtension xmlns:gpxtpx="http://www.garmin.com/xmlschemas/TrackPointExtension/v1">
            <gpxtpx:hr>140</gpxtpx:hr>
          </gpxtpx:TrackPointExtension>
        </extensions>
      </trkpt>
      <trkpt lat="50.33847" lon="3.23843">
        <ele>30.5</ele>
        <time>2023-01-22T08:50:05Z</time>
      </trkpt>
      <trkpt lat="50.33846" lon="3.23842">
        <ele>30.5</ele>
        <time>2023-01-22T08:50:06Z</time>
      </trkpt>
      <trkpt lat="50.33846" lon="3.2384">
        <ele>30.5</ele>
        <time>2023-01-22T08:50:07Z</time>
      </trkpt>
      <trkpt lat="50.33845" lon="3.23838">
        <ele>30.6</ele>
        <time>2023-01-22T08:50:08Z</time>
      </trkpt>
      <trkpt lat="50.33844" lon="3.23835">
        <ele>30.6</ele>
        <time>2023-01-22T08:50:09Z</time>
      </trkpt>
      <trkpt lat="50.33844" lon="3.23834">
        <ele>30.6</ele>
        <time>2023-01-22T08:50:10Z</time>
      </trkpt>
      <trkpt lat="50.33843" lon="3.23831">
        <ele>30.6</ele>
        <time>2023-01-22T08:50:11Z</time>
      </trkpt>
      <trkpt lat="50.33843" lon="3.2383">
        <ele>30.7</ele>
        <time>2023-01-22T08:50:12Z</time>
      </trkpt>
      <trkpt lat="50.33842" lon="3.23827">
        <ele>30.7</ele>
        <time>2023-01-22T08:50:13Z</time>
      </trkpt>
      <trkpt lat="50.33841" lon="3.23825">
        <ele>30.7</ele>
        <time>2023-01-22T08:50:14Z</time>
      </trkpt>
      <trkpt lat="50.33841" lon="3.23823">
        <ele>23.888975</ele>
        <time>2023-01-22T08:50:15Z</time>
      </trkpt>
      <trkpt lat="50.33839" lon="3.23821">
        <ele>30.8</ele>
        <time>2023-01-22T08:50:16Z</time>
      </trkpt>
      <trkpt lat="50.33839" lon="3.2382">
        <ele>30.8</ele>
        <time>2023-01-22T08:50:17Z</time>
      </trkpt>
      <trkpt lat="50.33838" lon="3.23818">
        <ele>30.8</ele>
        <time>2023-01-22T08:50:18Z</time>
      </trkpt>
      <trkpt lat="50.33837" lon="3.23816">
        <ele>30.9</ele>
        <time>2023-01-22T08:50:19Z</time>
        <extensions>
          <gpxtpx:TrackPointExtension xmlns:gpxtpx="http://www.garmin.com/xmlschemas/TrackPointExtension/v1">
            <gpxtpx:hr>139</gpxtpx:hr>
          </gpxtpx:TrackPointExtension>
        </extensions>
      </trkpt>
      <trkpt lat="50.33837" lon="3.23813">
        <ele>23.860514</ele>
        <time>2023-01-22T08:50:20Z</time>
      </trkpt>
      <trkpt lat="50.33836" lon="3.23812">
        <ele>30.9</ele>
        <time>2023-01-22T08:50:21Z</time>
      </trkpt>
      <trkpt lat="50.33835" lon="3.2381">
        <ele>30.9</ele>
        <time>2023-01-22T08:50:22Z</time>
      </trkpt>
      <trkpt lat="50.33835" lon="3.23808">
        <ele>30.9</ele>
        <time>2023-01-22T08:50:23Z</time>
      </trkpt>
      <trkpt lat="50.33835" lon="3.23806">
        <ele>31</ele>
        <time>2023-01-22T08:50:24Z</time>
      </trkpt>
      <trkpt lat="50.33834" lon="3.23804">
        <ele>30.9</ele>
        <time>2023-01-22T08:50:25Z</time>
      </trkpt>
      <trkpt lat="50.33833" lon="3.23802">
        <ele>30.9</ele>
        <time>2023-01-22T08:50:26Z</time>
      </trkpt>
      <trkpt lat="50.33832" lon="3.23799">
        <ele>30.7</ele>
        <time>2023-01-22T08:50:27Z</time>
      </trkpt>
      <trkpt lat="50.33831" lon="3.23797">
        <ele>30.6</ele>
        <time>2023-01-22T08:50:28Z</time>
      </trkpt>
      <trkpt lat="50.3383" lon="3.23795">
        <ele>30.5</ele>
        <time>2023-01-22T08:50:29Z</time>
      </trkpt>
      <trkpt lat="50.3383" lon="3.23794">
        <ele>23.702082</ele>
        <time>2023-01-22T08:50:30Z</time>
      </trkpt>
      <trkpt lat="50.33829" lon="3.23792">
        <ele>30.4</ele>
        <time>2023-01-22T08:50:31Z</time>
      </trkpt>
      <trkpt lat="50.33828" lon="3.2379">
        <ele>30.3</ele>
        <time>2023-01-22T08:50:32Z</time>
      </trkpt>
      <trkpt lat="50.33828" lon="3.23788">
        <ele>30.3</ele>
        <time>2023-01-22T08:50:33Z</time>
      </trkpt>
      <trkpt lat="50.33827" lon="3.23786">
        <ele>30.2</ele>
        <time>2023-01-22T08:50:34Z</time>
      </trkpt>
      <trkpt lat="50.33826" lon="3.23785">
        <ele>30.2</ele>
        <time>2023-01-22T08:50:35Z</time>
      </trkpt>
      <trkpt lat="50.33825" lon="3.23783">
        <ele>30.1</ele>
        <time>2023-01-22T08:50:36Z</time>
      </trkpt>
      <trkpt lat="50.33825" lon="3.23781">
        <ele>30.1</ele>
        <time>2023-01-22T08:50:37Z</time>
      </trkpt>
      <trkpt lat="50.33824" lon="3.23779">
        <ele>30</ele>
        <time>2023-01-22T08:50:38Z</time>
      </trkpt>
      <trkpt lat="50.33824" lon="3.23777">
        <ele>30</ele>
        <time>2023-01-22T08:50:39Z</time>
        <extensions>
          <gpxtpx:TrackPointExtension xmlns:gpxtpx="http://www.garmin.com/xmlschemas/TrackPointExtension/v1">
            <gpxtpx:hr>139</gpxtpx:hr>
          </gpxtpx:TrackPointExtension>
        </extensions>
      </trkpt>
      <trkpt lat="50.33823" lon="3.23775">
        <ele>23.706825</ele>
        <time>2023-01-22T08:50:40Z</time>
      </trkpt>
      <trkpt lat="50.33823" lon="3.23773">
        <ele>30.2</ele>
        <time>2023-01-22T08:50:41Z</time>
      </trkpt>
      <trkpt lat="50.33822" lon="3.23771">
        <ele>30.2</ele>
        <time>2023-01-22T08:50:42Z</time>
      </trkpt>
      <trkpt lat="50.33821" lon="3.23769">
        <ele>30.3</ele>
        <time>2023-01-22T08:50:43Z</time>
      </trkpt>
      <trkpt lat="50.3382" lon="3.23767">
        <ele>30.4</ele>
        <time>2023-01-22T08:50:44Z</time>
      </trkpt>
      <trkpt lat="50.33819" lon="3.23765">
        <ele>30.5</ele>
        <time>2023-01-22T08:50:45Z</time>
      </trkpt>
      <trkpt lat="50.33819" lon="3.23763">
        <ele>30.6</ele>
        <time>2023-01-22T08:50:46Z</time>
      </trkpt>
      <trkpt lat="50.33818" lon="3.2376">
        <ele>30.6</ele>
        <time>2023-01-22T08:50:47Z</time>
      </trkpt>
      <trkpt lat="50.33818" lon="3.23758">
        <ele>30.7</ele>
        <time>2023-01-22T08:50:48Z</time>
      </trkpt>
      <trkpt lat="50.33818" lon="3.23757">
        <ele>30.8</ele>
        <time>2023-01-22T08:50:49Z</time>
      </trkpt>
      <trkpt lat="50.33818" lon="3.23756">
        <ele>23.693542</ele>
        <time>2023-01-22T08:50:50Z</time>
      </trkpt>
      <trkpt lat="50.33819" lon="3.23756">
        <ele>30.8</ele>
        <time>2023-01-22T08:50:51Z</time>
      </trkpt>
      <trkpt lat="50.33818" lon="3.23756">
        <ele>30.8</ele>
        <time>2023-01-22T08:50:52Z</time>
      </trkpt>
      <trkpt lat="50.33818" lon="3.23756">
        <ele>30.8</ele>
        <time>2023-01-22T08:50:53Z</time>
      </trkpt>
      <trkpt lat="50.33818" lon="3.23756">
        <ele>30.8</ele>
        <time>2023-01-22T08:50:54Z</time>
      </trkpt>
      <trkpt lat="50.33818" lon="3.23755">
        <ele>30.8</ele>
        <time>2023-01-22T08:50:55Z</time>
      </trkpt>
      <trkpt lat="50.33818" lon="3.23756">
        <ele>30.8</ele>
        <time>2023-01-22T08:50:56Z</time>
      </trkpt>
      <trkpt lat="50.33818" lon="3.23755">
        <ele>30.8</ele>
        <time>2023-01-22T08:50:57Z</time>
      </trkpt>
      <trkpt lat="50.33818" lon="3.23755">
        <ele>30.8</ele>
        <time>2023-01-22T08:50:58Z</time>
      </trkpt>
      <trkpt lat="50.33818" lon="3.23755">
        <ele>30.8</ele>
        <time>2023-01-22T08:50:59Z</time>
      </trkpt>
      <trkpt lat="50.33818" lon="3.23755">
        <ele>23.727695</ele>
        <time>2023-01-22T08:51:00Z</time>
      </trkpt>
      <trkpt lat="50.33818" lon="3.23755">
        <ele>30.8</ele>
        <time>2023-01-22T08:51:01Z</time>
      </trkpt>
      <trkpt lat="50.33818" lon="3.23755">
        <ele>30.8</ele>
        <time>2023-01-22T08:51:02Z</time>
      </trkpt>
      <trkpt lat="50.33818" lon="3.23755">
        <ele>30.8</ele>
        <time>2023-01-22T08:51:03Z</time>
      </trkpt>
      <trkpt lat="50.33818" lon="3.23755">
        <ele>30.8</ele>
        <time>2023-01-22T08:51:04Z</time>
      </trkpt>
      <trkpt lat="50.33818" lon="3.23755">
        <ele>30.8</ele>
        <time>2023-01-22T08:51:05Z</time>
      </trkpt>
      <trkpt lat="50.33819" lon="3.23755">
        <ele>30.8</ele>
        <time>2023-01-22T08:51:06Z</time>
      </trkpt>
      <trkpt lat="50.33819" lon="3.23755">
        <ele>30.8</ele>
        <time>2023-01-22T08:51:07Z</time>
      </trkpt>
      <trkpt lat="50.33819" lon="3.23755">
        <ele>30.8</ele>
        <time>2023-01-22T08:51:08Z</time>
      </trkpt>
      <trkpt lat="50.33819" lon="3.23755">
        <ele>30.8</ele>
        <time>2023-01-22T08:51:09Z</time>
      </trkpt>
      <trkpt lat="50.33819" lon="3.23755">
        <ele>23.77608</ele>
        <time>2023-01-22T08:51:10Z</time>
      </trkpt>
      <trkpt lat="50.33819" lon="3.23755">
        <ele>30.8</ele>
        <time>2023-01-22T08:51:11Z</time>
      </trkpt>
      <trkpt lat="50.33819" lon="3.23755">
        <ele>30.8</ele>
        <time>2023-01-22T08:51:12Z</time>
      </trkpt>
      <trkpt lat="50.33818" lon="3.23755">
        <ele>30.8</ele>
        <time>2023-01-22T08:51:13Z</time>
      </trkpt>
      <trkpt lat="50.33818" lon="3.23755">
        <ele>30.8</ele>
        <time>2023-01-22T08:51:14Z</time>
      </trkpt>
      <trkpt lat="50.33818" lon="3.23755">
        <ele>30.8</ele>
        <time>2023-01-22T08:51:15Z</time>
      </trkpt>
      <trkpt lat="50.33818" lon="3.23755">
        <ele>30.8</ele>
        <time>2023-01-22T08:51:16Z</time>
      </trkpt>
      <trkpt lat="50.33818" lon="3.23755">
        <ele>30.8</ele>
        <time>2023-01-22T08:51:17Z</time>
      </trkpt>
      <trkpt lat="50.33818" lon="3.23755">
        <ele>30.8</ele>
        <time>2023-01-22T08:51:18Z</time>
      </trkpt>
      <trkpt lat="50.33818" lon="3.23755">
        <ele>30.8</ele>
        <time>2023-01-22T08:51:19Z</time>
      </trkpt>
      <trkpt lat="50.33818" lon="3.23755">
        <ele>23.719158</ele>
        <time>2023-01-22T08:51:20Z</time>
      </trkpt>
      <trkpt lat="50.33818" lon="3.23755">
        <ele>30.8</ele>
        <time>2023-01-22T08:51:21Z</time>
      </trkpt>
      <trkpt lat="50.33818" lon="3.23755">
        <ele>30.8</ele>
        <time>2023-01-22T08:51:22Z</time>
      </trkpt>
      <trkpt lat="50.33818" lon="3.23755">
        <ele>30.8</ele>
        <time>2023-01-22T08:51:23Z</time>
      </trkpt>
      <trkpt lat="50.33818" lon="3.23755">
        <ele>30.8</ele>
        <time>2023-01-22T08:51:24Z</time>
      </trkpt>
      <trkpt lat="50.33818" lon="3.23755">
        <ele>30.8</ele>
        <time>2023-01-22T08:51:25Z</time>
      </trkpt>
      <trkpt lat="50.33818" lon="3.23755">
        <ele>30.8</ele>
        <time>2023-01-22T08:51:26Z</time>
      </trkpt>
      <trkpt lat="50.33818" lon="3.23755">
        <ele>30.8</ele>
        <time>2023-01-22T08:51:27Z</time>
      </trkpt>
      <trkpt lat="50.33819" lon="3.23755">
        <ele>30.8</ele>
        <time>2023-01-22T08:51:28Z</time>
      </trkpt>
      <trkpt lat="50.33819" lon="3.23755">
        <ele>30.8</ele>
        <time>2023-01-22T08:51:29Z</time>
      </trkpt>
      <trkpt lat="50.33819" lon="3.23755">
        <ele>23.787464</ele>
        <time>2023-01-22T08:51:30Z</time>
      </trkpt>
      <trkpt lat="50.33819" lon="3.23755">
        <ele>30.8</ele>
        <time>2023-01-22T08:51:31Z</time>
      </trkpt>
      <trkpt lat="50.33819" lon="3.23755">
        <ele>30.8</ele>
        <time>2023-01-22T08:51:32Z</time>
      </trkpt>
      <trkpt lat="50.33819" lon="3.23755">
        <ele>30.8</ele>
        <time>2023-01-22T08:51:33Z</time>
      </trkpt>
      <trkpt lat="50.33819" lon="3.23755">
        <ele>30.8</ele>
        <time>2023-01-22T08:51:34Z</time>
      </trkpt>
      <trkpt lat="50.33819" lon="3.23755">
        <ele>30.8</ele>
        <time>2023-01-22T08:51:35Z</time>
      </trkpt>
      <trkpt lat="50.33819" lon="3.23755">
        <ele>30.8</ele>
        <time>2023-01-22T08:51:36Z</time>
      </trkpt>
      <trkpt lat="50.33819" lon="3.23754">
        <ele>30.8</ele>
        <time>2023-01-22T08:51:37Z</time>
      </trkpt>
      <trkpt lat="50.33819" lon="3.23754">
        <ele>30.8</ele>
        <time>2023-01-22T08:51:38Z</time>
      </trkpt>
      <trkpt lat="50.33819" lon="3.23754">
        <ele>30.8</ele>
        <time>2023-01-22T08:51:39Z</time>
      </trkpt>
      <trkpt lat="50.33819" lon="3.23754">
        <ele>23.761848</ele>
        <time>2023-01-22T08:51:40Z</time>
      </trkpt>
      <trkpt lat="50.33819" lon="3.23754">
        <ele>30.9</ele>
        <time>2023-01-22T08:51:41Z</time>
      </trkpt>
      <trkpt lat="50.33819" lon="3.23754">
        <ele>30.9</ele>
        <time>2023-01-22T08:51:42Z</time>
      </trkpt>
      <trkpt lat="50.33819" lon="3.23754">
        <ele>30.9</ele>
        <time>2023-01-22T08:51:43Z</time>
      </trkpt>
      <trkpt lat="50.33819" lon="3.23754">
        <ele>30.9</ele>
        <time>2023-01-22T08:51:44Z</time>
      </trkpt>
      <trkpt lat="50.33819" lon="3.23754">
        <ele>30.9</ele>
        <time>2023-01-22T08:51:45Z</time>
      </trkpt>
      <trkpt lat="50.33818" lon="3.23755">
        <ele>30.8</ele>
        <time>2023-01-22T08:51:46Z</time>
      </trkpt>
      <trkpt lat="50.33818" lon="3.23755">
        <ele>30.8</ele>
        <time>2023-01-22T08:51:47Z</time>
      </trkpt>
      <trkpt lat="50.33818" lon="3.23756">
        <ele>30.8</ele>
        <time>2023-01-22T08:51:48Z</time>
      </trkpt>
      <trkpt lat="50.33818" lon="3.23756">
        <ele>30.8</ele>
        <time>2023-01-22T08:51:49Z</time>
      </trkpt>
      <trkpt lat="50.33818" lon="3.23757">
        <ele>30.8</ele>
        <time>2023-01-22T08:51:50Z</time>
      </trkpt>
      <trkpt lat="50.33818" lon="3.23757">
        <ele>30.8</ele>
        <time>2023-01-22T08:51:51Z</time>
      </trkpt>
      <trkpt lat="50.33818" lon="3.23757">
        <ele>30.8</ele>
        <time>2023-01-22T08:51:52Z</time>
      </trkpt>
      <trkpt lat="50.33818" lon="3.23757">
        <ele>30.8</ele>
        <time>2023-01-22T08:51:53Z</time>
      </trkpt>
      <trkpt lat="50.33818" lon="3.23757">
        <ele>30.8</ele>
        <time>2023-01-22T08:51:54Z</time>
      </trkpt>
      <trkpt lat="50.33818" lon="3.23756">
        <ele>23.674568</ele>
        <time>2023-01-22T08:51:55Z</time>
      </trkpt>
      <trkpt lat="50.33818" lon="3.23756">
        <ele>30.8</ele>
        <time>2023-01-22T08:51:56Z</time>
      </trkpt>
      <trkpt lat="50.33818" lon="3.23756">
        <ele>30.8</ele>
        <time>2023-01-22T08:51:57Z</time>
      </trkpt>
      <trkpt lat="50.33818" lon="3.23756">
        <ele>30.8</ele>
        <time>2023-01-22T08:51:58Z</time>
      </trkpt>
      <trkpt lat="50.33818" lon="3.23756">
        <ele>30.8</ele>
        <time>2023-01-22T08:51:59Z</time>
      </trkpt>
      <trkpt lat="50.33818" lon="3.23756">
        <ele>23.671722</ele>
        <time>2023-01-22T08:52:00Z</time>
      </trkpt>
      <trkpt lat="50.33818" lon="3.23756">
        <ele>30.8</ele>
        <time>2023-01-22T08:52:01Z</time>
      </trkpt>
      <trkpt lat="50.33819" lon="3.23756">
        <ele>30.8</ele>
        <time>2023-01-22T08:52:02Z</time>
      </trkpt>
      <trkpt lat="50.33818" lon="3.23756">
        <ele>30.8</ele>
        <time>2023-01-22T08:52:03Z</time>
      </trkpt>
      <trkpt lat="50.33818" lon="3.23756">
        <ele>30.8</ele>
        <time>2023-01-22T08:52:04Z</time>
      </trkpt>
      <trkpt lat="50.33819" lon="3.23756">
        <ele>30.8</ele>
        <time>2023-01-22T08:52:05Z</time>
      </trkpt>
      <trkpt lat="50.33819" lon="3.23756">
        <ele>30.8</ele>
        <time>2023-01-22T08:52:06Z</time>
      </trkpt>
      <trkpt lat="50.33818" lon="3.23756">
        <ele>30.8</ele>
        <time>2023-01-22T08:52:07Z</time>
      </trkpt>
      <trkpt lat="50.33818" lon="3.23756">
        <ele>30.8</ele>
        <time>2023-01-22T08:52:08Z</time>
      </trkpt>
      <trkpt lat="50.33818" lon="3.23756">
        <ele>30.8</ele>
        <time>2023-01-22T08:52:09Z</time>
      </trkpt>
      <trkpt lat="50.33819" lon="3.23756">
        <ele>23.730541</ele>
        <time>2023-01-22T08:52:10Z</time>
      </trkpt>
      <trkpt lat="50.33819" lon="3.23756">
        <ele>30.8</ele>
        <time>2023-01-22T08:52:11Z</time>
      </trkpt>
      <trkpt lat="50.33819" lon="3.23755">
        <ele>30.8</ele>
        <time>2023-01-22T08:52:12Z</time>
      </trkpt>
      <trkpt lat="50.33819" lon="3.23755">
        <ele>30.8</ele>
        <time>2023-01-22T08:52:13Z</time>
      </trkpt>
      <trkpt lat="50.33819" lon="3.23755">
        <ele>30.8</ele>
        <time>2023-01-22T08:52:14Z</time>
      </trkpt>
      <trkpt lat="50.33819" lon="3.23755">
        <ele>30.8</ele>
        <time>2023-01-22T08:52:15Z</time>
      </trkpt>
      <trkpt lat="50.33819" lon="3.23755">
        <ele>30.8</ele>
        <time>2023-01-22T08:52:16Z</time>
      </trkpt>
      <trkpt lat="50.33819" lon="3.23755">
        <ele>30.8</ele>
        <time>2023-01-22T08:52:17Z</time>
      </trkpt>
      <trkpt lat="50.33819" lon="3.23755">
        <ele>30.8</ele>
        <time>2023-01-22T08:52:18Z</time>
      </trkpt>
      <trkpt lat="50.33819" lon="3.23755">
        <ele>30.8</ele>
        <time>2023-01-22T08:52:19Z</time>
      </trkpt>
      <trkpt lat="50.33819" lon="3.23755">
        <ele>23.737183</ele>
        <time>2023-01-22T08:52:20Z</time>
      </trkpt>
      <trkpt lat="50.33819" lon="3.23755">
        <ele>30.8</ele>
        <time>2023-01-22T08:52:21Z</time>
      </trkpt>
      <trkpt lat="50.33819" lon="3.23755">
        <ele>30.8</ele>
        <time>2023-01-22T08:52:22Z</time>
      </trkpt>
      <trkpt lat="50.3382" lon="3.23755">
        <ele>30.8</ele>
        <time>2023-01-22T08:52:23Z</time>
      </trkpt>
      <trkpt lat="50.3382" lon="3.23755">
        <ele>30.8</ele>
        <time>2023-01-22T08:52:24Z</time>
      </trkpt>
      <trkpt lat="50.3382" lon="3.23754">
        <ele>30.9</ele>
        <time>2023-01-22T08:52:25Z</time>
      </trkpt>
      <trkpt lat="50.33821" lon="3.23753">
        <ele>30.9</ele>
        <time>2023-01-22T08:52:26Z</time>
      </trkpt>
      <trkpt lat="50.33822" lon="3.23751">
        <ele>31</ele>
        <time>2023-01-22T08:52:27Z</time>
      </trkpt>
      <trkpt lat="50.33822" lon="3.23749">
        <ele>31</ele>
        <time>2023-01-22T08:52:28Z</time>
      </trkpt>
      <trkpt lat="50.33823" lon="3.23748">
        <ele>30.9</ele>
        <time>2023-01-22T08:52:29Z</time>
      </trkpt>
      <trkpt lat="50.33823" lon="3.23746">
        <ele>23.8349</ele>
        <time>2023-01-22T08:52:30Z</time>
      </trkpt>
      <trkpt lat="50.33824" lon="3.23744">
        <ele>30.9</ele>
        <time>2023-01-22T08:52:31Z</time>
      </trkpt>
      <trkpt lat="50.33824" lon="3.23743">
        <ele>30.8</ele>
        <time>2023-01-22T08:52:32Z</time>
      </trkpt>
      <trkpt lat="50.33825" lon="3.23743">
        <ele>30.8</ele>
        <time>2023-01-22T08:52:33Z</time>
      </trkpt>
      <trkpt lat="50.33826" lon="3.23743">
        <ele>30.8</ele>
        <time>2023-01-22T08:52:34Z</time>
      </trkpt>
      <trkpt lat="50.33826" lon="3.23742">
        <ele>30.8</ele>
        <time>2023-01-22T08:52:35Z</time>
      </trkpt>
      <trkpt lat="50.33827" lon="3.23742">
        <ele>30.8</ele>
        <time>2023-01-22T08:52:36Z</time>
      </trkpt>
      <trkpt lat="50.33828" lon="3.23742">
        <ele>30.8</ele>
        <time>2023-01-22T08:52:37Z</time>
      </trkpt>
      <trkpt lat="50.3383" lon="3.23741">
        <ele>30.7</ele>
        <time>2023-01-22T08:52:38Z</time>
      </trkpt>
      <trkpt lat="50.33831" lon="3.23741">
        <ele>30.7</ele>
        <time>2023-01-22T08:52:39Z</time>
      </trkpt>
      <trkpt lat="50.33833" lon="3.23741">
        <ele>23.893719</ele>
        <time>2023-01-22T08:52:40Z</time>
      </trkpt>
      <trkpt lat="50.33835" lon="3.23741">
        <ele>30.6</ele>
        <time>2023-01-22T08:52:41Z</time>
      </trkpt>
      <trkpt lat="50.33836" lon="3.23741">
        <ele>30.6</ele>
        <time>2023-01-22T08:52:42Z</time>
      </trkpt>
      <trkpt lat="50.33838" lon="3.23741">
        <ele>30.6</ele>
        <time>2023-01-22T08:52:43Z</time>
      </trkpt>
      <trkpt lat="50.33839" lon="3.23741">
        <ele>30.5</ele>
        <time>2023-01-22T08:52:44Z</time>
      </trkpt>
      <trkpt lat="50.33841" lon="3.23741">
        <ele>30.5</ele>
        <time>2023-01-22T08:52:45Z</time>
      </trkpt>
      <trkpt lat="50.33843" lon="3.23742">
        <ele>30.5</ele>
        <time>2023-01-22T08:52:46Z</time>
      </trkpt>
      <trkpt lat="50.33844" lon="3.23742">
        <ele>30.4</ele>
        <time>2023-01-22T08:52:47Z</time>
      </trkpt>
      <trkpt lat="50.33846" lon="3.23742">
        <ele>30.4</ele>
        <time>2023-01-22T08:52:48Z</time>
      </trkpt>
      <trkpt lat="50.33847" lon="3.23742">
        <ele>30.4</ele>
        <time>2023-01-22T08:52:49Z</time>
      </trkpt>
      <trkpt lat="50.33847" lon="3.23741">
        <ele>23.992386</ele>
        <time>2023-01-22T08:52:50Z</time>
      </trkpt>
      <trkpt lat="50.33849" lon="3.2374">
        <ele>30.3</ele>
        <time>2023-01-22T08:52:51Z</time>
      </trkpt>
      <trkpt lat="50.33849" lon="3.2374">
        <ele>30.3</ele>
        <time>2023-01-22T08:52:52Z</time>
      </trkpt>
      <trkpt lat="50.33851" lon="3.2374">
        <ele>30.2</ele>
        <time>2023-01-22T08:52:53Z</time>
      </trkpt>
      <trkpt lat="50.33852" lon="3.23739">
        <ele>30.2</ele>
        <time>2023-01-22T08:52:54Z</time>
      </trkpt>
      <trkpt lat="50.33853" lon="3.23739">
        <ele>30.2</ele>
        <time>2023-01-22T08:52:55Z</time>
      </trkpt>
      <trkpt lat="50.33854" lon="3.23739">
        <ele>30.2</ele>
        <time>2023-01-22T08:52:56Z</time>
        <extensions>
          <gpxtpx:TrackPointExtension xmlns:gpxtpx="http://www.garmin.com/xmlschemas/TrackPointExtension/v1">
            <gpxtpx:hr>128</gpxtpx:hr>
          </gpxtpx:TrackPointExtension>
        </extensions>
      </trkpt>
      <trkpt lat="50.33855" lon="3.23739">
        <ele>30.1</ele>
        <time>2023-01-22T08:52:57Z</time>
      </trkpt>
      <trkpt lat="50.33857" lon="3.23738">
        <ele>30.1</ele>
        <time>2023-01-22T08:52:58Z</time>
      </trkpt>
      <trkpt lat="50.33858" lon="3.23738">
        <ele>30.1</ele>
        <time>2023-01-22T08:52:59Z</time>
      </trkpt>
      <trkpt lat="50.3386" lon="3.23738">
        <ele>23.829206</ele>
        <time>2023-01-22T08:53:00Z</time>
      </trkpt>
      <trkpt lat="50.33861" lon="3.23737">
        <ele>30</ele>
        <time>2023-01-22T08:53:01Z</time>
      </trkpt>
      <trkpt lat="50.33863" lon="3.23737">
        <ele>30</ele>
        <time>2023-01-22T08:53:02Z</time>
        <extensions>
          <gpxtpx:TrackPointExtension xmlns:gpxtpx="http://www.garmin.com/xmlschemas/TrackPointExtension/v1">
            <gpxtpx:hr>130</gpxtpx:hr>
          </gpxtpx:TrackPointExtension>
        </extensions>
      </trkpt>
      <trkpt lat="50.33864" lon="3.23737">
        <ele>30</ele>
        <time>2023-01-22T08:53:03Z</time>
      </trkpt>
      <trkpt lat="50.33865" lon="3.23736">
        <ele>30</ele>
        <time>2023-01-22T08:53:04Z</time>
      </trkpt>
      <trkpt lat="50.33867" lon="3.23735">
        <ele>30</ele>
        <time>2023-01-22T08:53:05Z</time>
      </trkpt>
      <trkpt lat="50.33868" lon="3.23734">
        <ele>30</ele>
        <time>2023-01-22T08:53:06Z</time>
      </trkpt>
      <trkpt lat="50.33869" lon="3.23734">
        <ele>30</ele>
        <time>2023-01-22T08:53:07Z</time>
      </trkpt>
      <trkpt lat="50.3387" lon="3.23732">
        <ele>30</ele>
        <time>2023-01-22T08:53:08Z</time>
      </trkpt>
      <trkpt lat="50.33871" lon="3.23732">
        <ele>30</ele>
        <time>2023-01-22T08:53:09Z</time>
      </trkpt>
      <trkpt lat="50.33872" lon="3.23731">
        <ele>23.79885</ele>
        <time>2023-01-22T08:53:10Z</time>
      </trkpt>
      <trkpt lat="50.33873" lon="3.23731">
        <ele>30</ele>
        <time>2023-01-22T08:53:11Z</time>
      </trkpt>
      <trkpt lat="50.33875" lon="3.23731">
        <ele>30</ele>
        <time>2023-01-22T08:53:12Z</time>
      </trkpt>
      <trkpt lat="50.33875" lon="3.2373">
        <ele>30</ele>
        <time>2023-01-22T08:53:13Z</time>
      </trkpt>
      <trkpt lat="50.33876" lon="3.23729">
        <ele>30</ele>
        <time>2023-01-22T08:53:14Z</time>
      </trkpt>
      <trkpt lat="50.33878" lon="3.23729">
        <ele>30</ele>
        <time>2023-01-22T08:53:15Z</time>
      </trkpt>
      <trkpt lat="50.33879" lon="3.23729">
        <ele>30</ele>
        <time>2023-01-22T08:53:16Z</time>
      </trkpt>
      <trkpt lat="50.3388" lon="3.23728">
        <ele>30</ele>
        <time>2023-01-22T08:53:17Z</time>
      </trkpt>
      <trkpt lat="50.33882" lon="3.23729">
        <ele>30</ele>
        <time>2023-01-22T08:53:18Z</time>
      </trkpt>
      <trkpt lat="50.33884" lon="3.23728">
        <ele>30</ele>
        <time>2023-01-22T08:53:19Z</time>
        <extensions>
          <gpxtpx:TrackPointExtension xmlns:gpxtpx="http://www.garmin.com/xmlschemas/TrackPointExtension/v1">
            <gpxtpx:hr>129</gpxtpx:hr>
          </gpxtpx:TrackPointExtension>
        </extensions>
      </trkpt>
      <trkpt lat="50.33885" lon="3.23728">
        <ele>23.682158</ele>
        <time>2023-01-22T08:53:20Z</time>
      </trkpt>
      <trkpt lat="50.33886" lon="3.23726">
        <ele>30</ele>
        <time>2023-01-22T08:53:21Z</time>
      </trkpt>
      <trkpt lat="50.33888" lon="3.23726">
        <ele>30</ele>
        <time>2023-01-22T08:53:22Z</time>
      </trkpt>
      <trkpt lat="50.33889" lon="3.23725">
        <ele>30</ele>
        <time>2023-01-22T08:53:23Z</time>
      </trkpt>
      <trkpt lat="50.33889" lon="3.23724">
        <ele>30</ele>
        <time>2023-01-22T08:53:24Z</time>
      </trkpt>
      <trkpt lat="50.33891" lon="3.23722">
        <ele>30</ele>
        <time>2023-01-22T08:53:25Z</time>
      </trkpt>
      <trkpt lat="50.33892" lon="3.23721">
        <ele>30</ele>
        <time>2023-01-22T08:53:26Z</time>
      </trkpt>
      <trkpt lat="50.33894" lon="3.2372">
        <ele>29.9</ele>
        <time>2023-01-22T08:53:27Z</time>
      </trkpt>
      <trkpt lat="50.33895" lon="3.2372">
        <ele>29.9</ele>
        <time>2023-01-22T08:53:28Z</time>
      </trkpt>
      <trkpt lat="50.33896" lon="3.23719">
        <ele>29.9</ele>
        <time>2023-01-22T08:53:29Z</time>
      </trkpt>
      <trkpt lat="50.33897" lon="3.23718">
        <ele>29.9</ele>
        <time>2023-01-22T08:53:30Z</time>
      </trkpt>
      <trkpt lat="50.33898" lon="3.23716">
        <ele>29.9</ele>
        <time>2023-01-22T08:53:31Z</time>
      </trkpt>
      <trkpt lat="50.33899" lon="3.23715">
        <ele>29.8</ele>
        <time>2023-01-22T08:53:32Z</time>
      </trkpt>
      <trkpt lat="50.33901" lon="3.23715">
        <ele>29.8</ele>
        <time>2023-01-22T08:53:33Z</time>
      </trkpt>
      <trkpt lat="50.33902" lon="3.23714">
        <ele>29.8</ele>
        <time>2023-01-22T08:53:34Z</time>
      </trkpt>
      <trkpt lat="50.33903" lon="3.23713">
        <ele>23.698286</ele>
        <time>2023-01-22T08:53:35Z</time>
      </trkpt>
      <trkpt lat="50.33904" lon="3.23712">
        <ele>29.8</ele>
        <time>2023-01-22T08:53:36Z</time>
      </trkpt>
      <trkpt lat="50.33905" lon="3.23711">
        <ele>29.8</ele>
        <time>2023-01-22T08:53:37Z</time>
      </trkpt>
      <trkpt lat="50.33906" lon="3.2371">
        <ele>29.8</ele>
        <time>2023-01-22T08:53:38Z</time>
      </trkpt>
      <trkpt lat="50.33907" lon="3.23709">
        <ele>29.8</ele>
        <time>2023-01-22T08:53:39Z</time>
        <extensions>
          <gpxtpx:TrackPointExtension xmlns:gpxtpx="http://www.garmin.com/xmlschemas/TrackPointExtension/v1">
            <gpxtpx:hr>129</gpxtpx:hr>
          </gpxtpx:TrackPointExtension>
        </extensions>
      </trkpt>
      <trkpt lat="50.33908" lon="3.23708">
        <ele>23.601519</ele>
        <time>2023-01-22T08:53:40Z</time>
      </trkpt>
      <trkpt lat="50.33909" lon="3.23708">
        <ele>29.9</ele>
        <time>2023-01-22T08:53:41Z</time>
      </trkpt>
      <trkpt lat="50.3391" lon="3.23707">
        <ele>29.9</ele>
        <time>2023-01-22T08:53:42Z</time>
      </trkpt>
      <trkpt lat="50.33912" lon="3.23706">
        <ele>29.9</ele>
        <time>2023-01-22T08:53:43Z</time>
      </trkpt>
      <trkpt lat="50.33913" lon="3.23706">
        <ele>29.9</ele>
        <time>2023-01-22T08:53:44Z</time>
      </trkpt>
      <trkpt lat="50.33915" lon="3.23704">
        <ele>30</ele>
        <time>2023-01-22T08:53:45Z</time>
      </trkpt>
      <trkpt lat="50.33916" lon="3.23704">
        <ele>30</ele>
        <time>2023-01-22T08:53:46Z</time>
      </trkpt>
      <trkpt lat="50.33917" lon="3.23704">
        <ele>30</ele>
        <time>2023-01-22T08:53:47Z</time>
      </trkpt>
      <trkpt lat="50.33919" lon="3.23704">
        <ele>30</ele>
        <time>2023-01-22T08:53:48Z</time>
      </trkpt>
      <trkpt lat="50.3392" lon="3.23703">
        <ele>30</ele>
        <time>2023-01-22T08:53:49Z</time>
      </trkpt>
      <trkpt lat="50.33922" lon="3.23703">
        <ele>23.517086</ele>
        <time>2023-01-22T08:53:50Z</time>
      </trkpt>
      <trkpt lat="50.33923" lon="3.23703">
        <ele>29.9</ele>
        <time>2023-01-22T08:53:51Z</time>
      </trkpt>
      <trkpt lat="50.33925" lon="3.23702">
        <ele>29.9</ele>
        <time>2023-01-22T08:53:52Z</time>
      </trkpt>
      <trkpt lat="50.33926" lon="3.23702">
        <ele>29.9</ele>
        <time>2023-01-22T08:53:53Z</time>
      </trkpt>
      <trkpt lat="50.33928" lon="3.23701">
        <ele>29.9</ele>
        <time>2023-01-22T08:53:54Z</time>
      </trkpt>
      <trkpt lat="50.33929" lon="3.23701">
        <ele>29.9</ele>
        <time>2023-01-22T08:53:55Z</time>
      </trkpt>
      <trkpt lat="50.33931" lon="3.237">
        <ele>29.9</ele>
        <time>2023-01-22T08:53:56Z</time>
      </trkpt>
      <trkpt lat="50.33933" lon="3.23699">
        <ele>29.9</ele>
        <time>2023-01-22T08:53:57Z</time>
      </trkpt>
      <trkpt lat="50.33934" lon="3.23699">
        <ele>29.9</ele>
        <time>2023-01-22T08:53:58Z</time>
      </trkpt>
      <trkpt lat="50.33935" lon="3.23698">
        <ele>29.9</ele>
        <time>2023-01-22T08:53:59Z</time>
        <extensions>
          <gpxtpx:TrackPointExtension xmlns:gpxtpx="http://www.garmin.com/xmlschemas/TrackPointExtension/v1">
            <gpxtpx:hr>133</gpxtpx:hr>
          </gpxtpx:TrackPointExtension>
        </extensions>
      </trkpt>
      <trkpt lat="50.33936" lon="3.23698">
        <ele>23.234377</ele>
        <time>2023-01-22T08:54:00Z</time>
      </trkpt>
      <trkpt lat="50.33938" lon="3.23697">
        <ele>29.9</ele>
        <time>2023-01-22T08:54:01Z</time>
      </trkpt>
      <trkpt lat="50.33939" lon="3.23696">
        <ele>29.9</ele>
        <time>2023-01-22T08:54:02Z</time>
      </trkpt>
      <trkpt lat="50.3394" lon="3.23696">
        <ele>30</ele>
        <time>2023-01-22T08:54:03Z</time>
      </trkpt>
      <trkpt lat="50.33941" lon="3.23696">
        <ele>30</ele>
        <time>2023-01-22T08:54:04Z</time>
      </trkpt>
      <trkpt lat="50.33942" lon="3.23695">
        <ele>30</ele>
        <time>2023-01-22T08:54:05Z</time>
      </trkpt>
      <trkpt lat="50.33943" lon="3.23695">
        <ele>30</ele>
        <time>2023-01-22T08:54:06Z</time>
      </trkpt>
      <trkpt lat="50.33944" lon="3.23695">
        <ele>30</ele>
        <time>2023-01-22T08:54:07Z</time>
      </trkpt>
      <trkpt lat="50.33945" lon="3.23694">
        <ele>30</ele>
        <time>2023-01-22T08:54:08Z</time>
      </trkpt>
      <trkpt lat="50.33947" lon="3.23694">
        <ele>29.9</ele>
        <time>2023-01-22T08:54:09Z</time>
      </trkpt>
      <trkpt lat="50.33948" lon="3.23693">
        <ele>23.075949</ele>
        <time>2023-01-22T08:54:10Z</time>
      </trkpt>
      <trkpt lat="50.3395" lon="3.23692">
        <ele>29.7</ele>
        <time>2023-01-22T08:54:11Z</time>
      </trkpt>
      <trkpt lat="50.33951" lon="3.23692">
        <ele>29.6</ele>
        <time>2023-01-22T08:54:12Z</time>
      </trkpt>
      <trkpt lat="50.33953" lon="3.23691">
        <ele>29.5</ele>
        <time>2023-01-22T08:54:13Z</time>
      </trkpt>
      <trkpt lat="50.33954" lon="3.2369">
        <ele>29.5</ele>
        <time>2023-01-22T08:54:14Z</time>
      </trkpt>
      <trkpt lat="50.33955" lon="3.2369">
        <ele>29.4</ele>
        <time>2023-01-22T08:54:15Z</time>
      </trkpt>
      <trkpt lat="50.33956" lon="3.2369">
        <ele>29.4</ele>
        <time>2023-01-22T08:54:16Z</time>
      </trkpt>
      <trkpt lat="50.33957" lon="3.23689">
        <ele>29.3</ele>
        <time>2023-01-22T08:54:17Z</time>
      </trkpt>
      <trkpt lat="50.33959" lon="3.23689">
        <ele>29.3</ele>
        <time>2023-01-22T08:54:18Z</time>
      </trkpt>
      <trkpt lat="50.3396" lon="3.23689">
        <ele>29.3</ele>
        <time>2023-01-22T08:54:19Z</time>
        <extensions>
          <gpxtpx:TrackPointExtension xmlns:gpxtpx="http://www.garmin.com/xmlschemas/TrackPointExtension/v1">
            <gpxtpx:hr>137</gpxtpx:hr>
          </gpxtpx:TrackPointExtension>
        </extensions>
      </trkpt>
      <trkpt lat="50.33961" lon="3.23689">
        <ele>22.870089</ele>
        <time>2023-01-22T08:54:20Z</time>
      </trkpt>
      <trkpt lat="50.33963" lon="3.23688">
        <ele>29.2</ele>
        <time>2023-01-22T08:54:21Z</time>
      </trkpt>
      <trkpt lat="50.33964" lon="3.23688">
        <ele>29.2</ele>
        <time>2023-01-22T08:54:22Z</time>
      </trkpt>
      <trkpt lat="50.33966" lon="3.23687">
        <ele>29.1</ele>
        <time>2023-01-22T08:54:23Z</time>
      </trkpt>
      <trkpt lat="50.33967" lon="3.23686">
        <ele>29.1</ele>
        <time>2023-01-22T08:54:24Z</time>
      </trkpt>
      <trkpt lat="50.33968" lon="3.23686">
        <ele>29.1</ele>
        <time>2023-01-22T08:54:25Z</time>
      </trkpt>
      <trkpt lat="50.3397" lon="3.23686">
        <ele>29</ele>
        <time>2023-01-22T08:54:26Z</time>
      </trkpt>
      <trkpt lat="50.33971" lon="3.23685">
        <ele>29</ele>
        <time>2023-01-22T08:54:27Z</time>
      </trkpt>
      <trkpt lat="50.33973" lon="3.23684">
        <ele>29</ele>
        <time>2023-01-22T08:54:28Z</time>
      </trkpt>
      <trkpt lat="50.33974" lon="3.23683">
        <ele>29</ele>
        <time>2023-01-22T08:54:29Z</time>
      </trkpt>
      <trkpt lat="50.33976" lon="3.23682">
        <ele>22.857756</ele>
        <time>2023-01-22T08:54:30Z</time>
      </trkpt>
      <trkpt lat="50.33977" lon="3.23682">
        <ele>28.9</ele>
        <time>2023-01-22T08:54:31Z</time>
      </trkpt>
      <trkpt lat="50.33979" lon="3.23681">
        <ele>28.9</ele>
        <time>2023-01-22T08:54:32Z</time>
      </trkpt>
      <trkpt lat="50.33981" lon="3.2368">
        <ele>28.9</ele>
        <time>2023-01-22T08:54:33Z</time>
      </trkpt>
      <trkpt lat="50.33982" lon="3.23679">
        <ele>28.8</ele>
        <time>2023-01-22T08:54:34Z</time>
      </trkpt>
      <trkpt lat="50.33983" lon="3.23678">
        <ele>28.8</ele>
        <time>2023-01-22T08:54:35Z</time>
      </trkpt>
      <trkpt lat="50.33984" lon="3.23678">
        <ele>28.8</ele>
        <time>2023-01-22T08:54:36Z</time>
      </trkpt>
      <trkpt lat="50.33985" lon="3.23677">
        <ele>28.8</ele>
        <time>2023-01-22T08:54:37Z</time>
      </trkpt>
      <trkpt lat="50.33986" lon="3.23676">
        <ele>28.8</ele>
        <time>2023-01-22T08:54:38Z</time>
      </trkpt>
      <trkpt lat="50.33987" lon="3.23676">
        <ele>28.8</ele>
        <time>2023-01-22T08:54:39Z</time>
        <extensions>
          <gpxtpx:TrackPointExtension xmlns:gpxtpx="http://www.garmin.com/xmlschemas/TrackPointExtension/v1">
            <gpxtpx:hr>136</gpxtpx:hr>
          </gpxtpx:TrackPointExtension>
        </extensions>
      </trkpt>
      <trkpt lat="50.33989" lon="3.23675">
        <ele>22.832142</ele>
        <time>2023-01-22T08:54:40Z</time>
      </trkpt>
      <trkpt lat="50.3399" lon="3.23675">
        <ele>28.8</ele>
        <time>2023-01-22T08:54:41Z</time>
      </trkpt>
      <trkpt lat="50.33991" lon="3.23675">
        <ele>28.8</ele>
        <time>2023-01-22T08:54:42Z</time>
      </trkpt>
      <trkpt lat="50.33993" lon="3.23675">
        <ele>28.8</ele>
        <time>2023-01-22T08:54:43Z</time>
      </trkpt>
      <trkpt lat="50.33994" lon="3.23674">
        <ele>28.8</ele>
        <time>2023-01-22T08:54:44Z</time>
      </trkpt>
      <trkpt lat="50.33995" lon="3.23674">
        <ele>28.8</ele>
        <time>2023-01-22T08:54:45Z</time>
      </trkpt>
      <trkpt lat="50.33997" lon="3.23674">
        <ele>28.8</ele>
        <time>2023-01-22T08:54:46Z</time>
      </trkpt>
      <trkpt lat="50.33998" lon="3.23674">
        <ele>28.8</ele>
        <time>2023-01-22T08:54:47Z</time>
      </trkpt>
      <trkpt lat="50.34" lon="3.23673">
        <ele>28.8</ele>
        <time>2023-01-22T08:54:48Z</time>
      </trkpt>
      <trkpt lat="50.34001" lon="3.23673">
        <ele>28.7</ele>
        <time>2023-01-22T08:54:49Z</time>
      </trkpt>
      <trkpt lat="50.34002" lon="3.23672">
        <ele>22.620592</ele>
        <time>2023-01-22T08:54:50Z</time>
      </trkpt>
      <trkpt lat="50.34004" lon="3.23672">
        <ele>28.5</ele>
        <time>2023-01-22T08:54:51Z</time>
      </trkpt>
      <trkpt lat="50.34006" lon="3.23671">
        <ele>28.5</ele>
        <time>2023-01-22T08:54:52Z</time>
      </trkpt>
      <trkpt lat="50.34007" lon="3.2367">
        <ele>28.4</ele>
        <time>2023-01-22T08:54:53Z</time>
      </trkpt>
      <trkpt lat="50.34009" lon="3.23669">
        <ele>28.3</ele>
        <time>2023-01-22T08:54:54Z</time>
      </trkpt>
      <trkpt lat="50.3401" lon="3.23669">
        <ele>28.2</ele>
        <time>2023-01-22T08:54:55Z</time>
      </trkpt>
      <trkpt lat="50.34012" lon="3.23669">
        <ele>28.1</ele>
        <time>2023-01-22T08:54:56Z</time>
      </trkpt>
      <trkpt lat="50.34014" lon="3.23668">
        <ele>28</ele>
        <time>2023-01-22T08:54:57Z</time>
      </trkpt>
      <trkpt lat="50.34016" lon="3.23668">
        <ele>27.9</ele>
        <time>2023-01-22T08:54:58Z</time>
      </trkpt>
      <trkpt lat="50.34017" lon="3.23667">
        <ele>27.8</ele>
        <time>2023-01-22T08:54:59Z</time>
      </trkpt>
      <trkpt lat="50.34019" lon="3.23667">
        <ele>22.471653</ele>
        <time>2023-01-22T08:55:00Z</time>
      </trkpt>
      <trkpt lat="50.3402" lon="3.23667">
        <ele>27.5</ele>
        <time>2023-01-22T08:55:01Z</time>
      </trkpt>
      <trkpt lat="50.34022" lon="3.23666">
        <ele>27.4</ele>
        <time>2023-01-22T08:55:02Z</time>
      </trkpt>
      <trkpt lat="50.34023" lon="3.23666">
        <ele>27.4</ele>
        <time>2023-01-22T08:55:03Z</time>
      </trkpt>
      <trkpt lat="50.34023" lon="3.23665">
        <ele>27.3</ele>
        <time>2023-01-22T08:55:04Z</time>
      </trkpt>
      <trkpt lat="50.34024" lon="3.23665">
        <ele>27.2</ele>
        <time>2023-01-22T08:55:05Z</time>
      </trkpt>
      <trkpt lat="50.34026" lon="3.23665">
        <ele>27.1</ele>
        <time>2023-01-22T08:55:06Z</time>
      </trkpt>
      <trkpt lat="50.34027" lon="3.23664">
        <ele>27.1</ele>
        <time>2023-01-22T08:55:07Z</time>
      </trkpt>
      <trkpt lat="50.34028" lon="3.23664">
        <ele>27</ele>
        <time>2023-01-22T08:55:08Z</time>
      </trkpt>
      <trkpt lat="50.34029" lon="3.23664">
        <ele>27.1</ele>
        <time>2023-01-22T08:55:09Z</time>
      </trkpt>
      <trkpt lat="50.34031" lon="3.23663">
        <ele>27.1</ele>
        <time>2023-01-22T08:55:10Z</time>
      </trkpt>
      <trkpt lat="50.34032" lon="3.23663">
        <ele>27.1</ele>
        <time>2023-01-22T08:55:11Z</time>
      </trkpt>
      <trkpt lat="50.34033" lon="3.23662">
        <ele>27.2</ele>
        <time>2023-01-22T08:55:12Z</time>
      </trkpt>
      <trkpt lat="50.34034" lon="3.23662">
        <ele>27.2</ele>
        <time>2023-01-22T08:55:13Z</time>
      </trkpt>
      <trkpt lat="50.34035" lon="3.23661">
        <ele>27.2</ele>
        <time>2023-01-22T08:55:14Z</time>
      </trkpt>
      <trkpt lat="50.34036" lon="3.2366">
        <ele>22.321768</ele>
        <time>2023-01-22T08:55:15Z</time>
      </trkpt>
      <trkpt lat="50.34037" lon="3.23659">
        <ele>27.2</ele>
        <time>2023-01-22T08:55:16Z</time>
      </trkpt>
      <trkpt lat="50.34038" lon="3.23658">
        <ele>27.3</ele>
        <time>2023-01-22T08:55:17Z</time>
      </trkpt>
      <trkpt lat="50.3404" lon="3.23657">
        <ele>27.3</ele>
        <time>2023-01-22T08:55:18Z</time>
      </trkpt>
      <trkpt lat="50.34041" lon="3.23656">
        <ele>27.3</ele>
        <time>2023-01-22T08:55:19Z</time>
      </trkpt>
      <trkpt lat="50.34042" lon="3.23655">
        <ele>22.357817</ele>
        <time>2023-01-22T08:55:20Z</time>
      </trkpt>
      <trkpt lat="50.34044" lon="3.23654">
        <ele>27.3</ele>
        <time>2023-01-22T08:55:21Z</time>
      </trkpt>
      <trkpt lat="50.34045" lon="3.23652">
        <ele>27.3</ele>
        <time>2023-01-22T08:55:22Z</time>
      </trkpt>
      <trkpt lat="50.34046" lon="3.2365">
        <ele>27.3</ele>
        <time>2023-01-22T08:55:23Z</time>
      </trkpt>
      <trkpt lat="50.34048" lon="3.23649">
        <ele>27.3</ele>
        <time>2023-01-22T08:55:24Z</time>
      </trkpt>
      <trkpt lat="50.34049" lon="3.23647">
        <ele>27.2</ele>
        <time>2023-01-22T08:55:25Z</time>
      </trkpt>
      <trkpt lat="50.34051" lon="3.23646">
        <ele>27.2</ele>
        <time>2023-01-22T08:55:26Z</time>
      </trkpt>
      <trkpt lat="50.34052" lon="3.23645">
        <ele>27.2</ele>
        <time>2023-01-22T08:55:27Z</time>
      </trkpt>
      <trkpt lat="50.34053" lon="3.23644">
        <ele>27.2</ele>
        <time>2023-01-22T08:55:28Z</time>
      </trkpt>
      <trkpt lat="50.34054" lon="3.23642">
        <ele>27.1</ele>
        <time>2023-01-22T08:55:29Z</time>
      </trkpt>
      <trkpt lat="50.34055" lon="3.23641">
        <ele>22.181372</ele>
        <time>2023-01-22T08:55:30Z</time>
      </trkpt>
      <trkpt lat="50.34057" lon="3.2364">
        <ele>27.1</ele>
        <time>2023-01-22T08:55:31Z</time>
      </trkpt>
      <trkpt lat="50.34058" lon="3.23639">
        <ele>27.2</ele>
        <time>2023-01-22T08:55:32Z</time>
      </trkpt>
      <trkpt lat="50.34058" lon="3.23638">
        <ele>27.2</ele>
        <time>2023-01-22T08:55:33Z</time>
      </trkpt>
      <trkpt lat="50.34059" lon="3.23638">
        <ele>27.2</ele>
        <time>2023-01-22T08:55:34Z</time>
      </trkpt>
      <trkpt lat="50.3406" lon="3.23637">
        <ele>27.3</ele>
        <time>2023-01-22T08:55:35Z</time>
        <extensions>
          <gpxtpx:TrackPointExtension xmlns:gpxtpx="http://www.garmin.com/xmlschemas/TrackPointExtension/v1">
            <gpxtpx:hr>140</gpxtpx:hr>
          </gpxtpx:TrackPointExtension>
        </extensions>
      </trkpt>
      <trkpt lat="50.34062" lon="3.23635">
        <ele>27.4</ele>
        <time>2023-01-22T08:55:36Z</time>
      </trkpt>
      <trkpt lat="50.34064" lon="3.23633">
        <ele>27.5</ele>
        <time>2023-01-22T08:55:37Z</time>
      </trkpt>
      <trkpt lat="50.34065" lon="3.23633">
        <ele>27.6</ele>
        <time>2023-01-22T08:55:38Z</time>
      </trkpt>
      <trkpt lat="50.34066" lon="3.23632">
        <ele>27.7</ele>
        <time>2023-01-22T08:55:39Z</time>
        <extensions>
          <gpxtpx:TrackPointExtension xmlns:gpxtpx="http://www.garmin.com/xmlschemas/TrackPointExtension/v1">
            <gpxtpx:hr>139</gpxtpx:hr>
          </gpxtpx:TrackPointExtension>
        </extensions>
      </trkpt>
      <trkpt lat="50.34068" lon="3.2363">
        <ele>22.087456</ele>
        <time>2023-01-22T08:55:40Z</time>
      </trkpt>
      <trkpt lat="50.34069" lon="3.23629">
        <ele>27.8</ele>
        <time>2023-01-22T08:55:41Z</time>
      </trkpt>
      <trkpt lat="50.34071" lon="3.23627">
        <ele>27.9</ele>
        <time>2023-01-22T08:55:42Z</time>
      </trkpt>
      <trkpt lat="50.34072" lon="3.23626">
        <ele>27.9</ele>
        <time>2023-01-22T08:55:43Z</time>
      </trkpt>
      <trkpt lat="50.34073" lon="3.23624">
        <ele>27.9</ele>
        <time>2023-01-22T08:55:44Z</time>
      </trkpt>
      <trkpt lat="50.34074" lon="3.23623">
        <ele>27.9</ele>
        <time>2023-01-22T08:55:45Z</time>
      </trkpt>
      <trkpt lat="50.34075" lon="3.23621">
        <ele>27.9</ele>
        <time>2023-01-22T08:55:46Z</time>
      </trkpt>
      <trkpt lat="50.34076" lon="3.23621">
        <ele>28</ele>
        <time>2023-01-22T08:55:47Z</time>
      </trkpt>
      <trkpt lat="50.34077" lon="3.23619">
        <ele>28</ele>
        <time>2023-01-22T08:55:48Z</time>
      </trkpt>
      <trkpt lat="50.34078" lon="3.23617">
        <ele>28</ele>
        <time>2023-01-22T08:55:49Z</time>
      </trkpt>
      <trkpt lat="50.34079" lon="3.23615">
        <ele>22.04477</ele>
        <time>2023-01-22T08:55:50Z</time>
      </trkpt>
      <trkpt lat="50.3408" lon="3.23614">
        <ele>28</ele>
        <time>2023-01-22T08:55:51Z</time>
      </trkpt>
      <trkpt lat="50.34081" lon="3.23612">
        <ele>27.9</ele>
        <time>2023-01-22T08:55:52Z</time>
      </trkpt>
      <trkpt lat="50.34082" lon="3.23609">
        <ele>27.9</ele>
        <time>2023-01-22T08:55:53Z</time>
      </trkpt>
      <trkpt lat="50.34083" lon="3.23607">
        <ele>28</ele>
        <time>2023-01-22T08:55:54Z</time>
      </trkpt>
      <trkpt lat="50.34084" lon="3.23605">
        <ele>28</ele>
        <time>2023-01-22T08:55:55Z</time>
      </trkpt>
      <trkpt lat="50.34085" lon="3.23604">
        <ele>28.1</ele>
        <time>2023-01-22T08:55:56Z</time>
      </trkpt>
      <trkpt lat="50.34086" lon="3.23602">
        <ele>28.2</ele>
        <time>2023-01-22T08:55:57Z</time>
      </trkpt>
      <trkpt lat="50.34087" lon="3.23601">
        <ele>28.3</ele>
        <time>2023-01-22T08:55:58Z</time>
      </trkpt>
      <trkpt lat="50.34088" lon="3.23599">
        <ele>28.3</ele>
        <time>2023-01-22T08:55:59Z</time>
        <extensions>
          <gpxtpx:TrackPointExtension xmlns:gpxtpx="http://www.garmin.com/xmlschemas/TrackPointExtension/v1">
            <gpxtpx:hr>135</gpxtpx:hr>
          </gpxtpx:TrackPointExtension>
        </extensions>
      </trkpt>
      <trkpt lat="50.34089" lon="3.23597">
        <ele>21.936625</ele>
        <time>2023-01-22T08:56:00Z</time>
      </trkpt>
      <trkpt lat="50.3409" lon="3.23596">
        <ele>28.5</ele>
        <time>2023-01-22T08:56:01Z</time>
      </trkpt>
      <trkpt lat="50.34091" lon="3.23596">
        <ele>28.6</ele>
        <time>2023-01-22T08:56:02Z</time>
      </trkpt>
      <trkpt lat="50.34092" lon="3.23595">
        <ele>28.6</ele>
        <time>2023-01-22T08:56:03Z</time>
      </trkpt>
      <trkpt lat="50.34093" lon="3.23594">
        <ele>28.7</ele>
        <time>2023-01-22T08:56:04Z</time>
      </trkpt>
      <trkpt lat="50.34094" lon="3.23592">
        <ele>28.7</ele>
        <time>2023-01-22T08:56:05Z</time>
      </trkpt>
      <trkpt lat="50.34094" lon="3.23589">
        <ele>28.8</ele>
        <time>2023-01-22T08:56:06Z</time>
      </trkpt>
      <trkpt lat="50.34096" lon="3.23587">
        <ele>28.9</ele>
        <time>2023-01-22T08:56:07Z</time>
      </trkpt>
      <trkpt lat="50.34097" lon="3.23585">
        <ele>29</ele>
        <time>2023-01-22T08:56:08Z</time>
      </trkpt>
      <trkpt lat="50.34098" lon="3.23584">
        <ele>29.1</ele>
        <time>2023-01-22T08:56:09Z</time>
      </trkpt>
      <trkpt lat="50.34099" lon="3.23582">
        <ele>21.87212</ele>
        <time>2023-01-22T08:56:10Z</time>
      </trkpt>
      <trkpt lat="50.34098" lon="3.23579">
        <ele>28.9</ele>
        <time>2023-01-22T08:56:11Z</time>
      </trkpt>
      <trkpt lat="50.34097" lon="3.23576">
        <ele>28.7</ele>
        <time>2023-01-22T08:56:12Z</time>
      </trkpt>
      <trkpt lat="50.34096" lon="3.23573">
        <ele>28.5</ele>
        <time>2023-01-22T08:56:13Z</time>
      </trkpt>
      <trkpt lat="50.34096" lon="3.23569">
        <ele>28.4</ele>
        <time>2023-01-22T08:56:14Z</time>
      </trkpt>
      <trkpt lat="50.34096" lon="3.23566">
        <ele>28.3</ele>
        <time>2023-01-22T08:56:15Z</time>
      </trkpt>
      <trkpt lat="50.34097" lon="3.23564">
        <ele>28.3</ele>
        <time>2023-01-22T08:56:16Z</time>
      </trkpt>
      <trkpt lat="50.34098" lon="3.23562">
        <ele>28.3</ele>
        <time>2023-01-22T08:56:17Z</time>
      </trkpt>
      <trkpt lat="50.34098" lon="3.23559">
        <ele>28.1</ele>
        <time>2023-01-22T08:56:18Z</time>
      </trkpt>
      <trkpt lat="50.34099" lon="3.23557">
        <ele>28.2</ele>
        <time>2023-01-22T08:56:19Z</time>
      </trkpt>
      <trkpt lat="50.341" lon="3.23556">
        <ele>21.855043</ele>
        <time>2023-01-22T08:56:20Z</time>
      </trkpt>
      <trkpt lat="50.34101" lon="3.23554">
        <ele>28.2</ele>
        <time>2023-01-22T08:56:21Z</time>
      </trkpt>
      <trkpt lat="50.34102" lon="3.23552">
        <ele>28.2</ele>
        <time>2023-01-22T08:56:22Z</time>
      </trkpt>
      <trkpt lat="50.34102" lon="3.2355">
        <ele>28.2</ele>
        <time>2023-01-22T08:56:23Z</time>
      </trkpt>
      <trkpt lat="50.34103" lon="3.23548">
        <ele>28.2</ele>
        <time>2023-01-22T08:56:24Z</time>
      </trkpt>
      <trkpt lat="50.34103" lon="3.23546">
        <ele>28.2</ele>
        <time>2023-01-22T08:56:25Z</time>
      </trkpt>
      <trkpt lat="50.34104" lon="3.23545">
        <ele>28.2</ele>
        <time>2023-01-22T08:56:26Z</time>
      </trkpt>
      <trkpt lat="50.34105" lon="3.23543">
        <ele>28.2</ele>
        <time>2023-01-22T08:56:27Z</time>
      </trkpt>
      <trkpt lat="50.34106" lon="3.23541">
        <ele>28.2</ele>
        <time>2023-01-22T08:56:28Z</time>
      </trkpt>
      <trkpt lat="50.34106" lon="3.2354">
        <ele>28.2</ele>
        <time>2023-01-22T08:56:29Z</time>
      </trkpt>
      <trkpt lat="50.34108" lon="3.23538">
        <ele>21.58469</ele>
        <time>2023-01-22T08:56:30Z</time>
      </trkpt>
      <trkpt lat="50.34109" lon="3.23537">
        <ele>28.2</ele>
        <time>2023-01-22T08:56:31Z</time>
      </trkpt>
      <trkpt lat="50.34109" lon="3.23535">
        <ele>28.2</ele>
        <time>2023-01-22T08:56:32Z</time>
      </trkpt>
      <trkpt lat="50.3411" lon="3.23533">
        <ele>28.1</ele>
        <time>2023-01-22T08:56:33Z</time>
      </trkpt>
      <trkpt lat="50.34112" lon="3.23532">
        <ele>28.2</ele>
        <time>2023-01-22T08:56:34Z</time>
      </trkpt>
      <trkpt lat="50.34112" lon="3.2353">
        <ele>28.1</ele>
        <time>2023-01-22T08:56:35Z</time>
      </trkpt>
      <trkpt lat="50.34113" lon="3.23529">
        <ele>28.1</ele>
        <time>2023-01-22T08:56:36Z</time>
      </trkpt>
      <trkpt lat="50.34113" lon="3.23528">
        <ele>28.1</ele>
        <time>2023-01-22T08:56:37Z</time>
      </trkpt>
      <trkpt lat="50.34114" lon="3.23526">
        <ele>28.1</ele>
        <time>2023-01-22T08:56:38Z</time>
      </trkpt>
      <trkpt lat="50.34115" lon="3.23524">
        <ele>28.1</ele>
        <time>2023-01-22T08:56:39Z</time>
        <extensions>
          <gpxtpx:TrackPointExtension xmlns:gpxtpx="http://www.garmin.com/xmlschemas/TrackPointExtension/v1">
            <gpxtpx:hr>140</gpxtpx:hr>
          </gpxtpx:TrackPointExtension>
        </extensions>
      </trkpt>
      <trkpt lat="50.34115" lon="3.23522">
        <ele>21.538208</ele>
        <time>2023-01-22T08:56:40Z</time>
      </trkpt>
      <trkpt lat="50.34116" lon="3.2352">
        <ele>28.2</ele>
        <time>2023-01-22T08:56:41Z</time>
      </trkpt>
      <trkpt lat="50.34118" lon="3.23519">
        <ele>28.2</ele>
        <time>2023-01-22T08:56:42Z</time>
      </trkpt>
      <trkpt lat="50.34118" lon="3.23519">
        <ele>28.3</ele>
        <time>2023-01-22T08:56:43Z</time>
      </trkpt>
      <trkpt lat="50.34119" lon="3.23519">
        <ele>28.3</ele>
        <time>2023-01-22T08:56:44Z</time>
      </trkpt>
      <trkpt lat="50.3412" lon="3.23518">
        <ele>28.3</ele>
        <time>2023-01-22T08:56:45Z</time>
      </trkpt>
      <trkpt lat="50.34121" lon="3.23517">
        <ele>28.4</ele>
        <time>2023-01-22T08:56:46Z</time>
      </trkpt>
      <trkpt lat="50.34123" lon="3.23515">
        <ele>28.4</ele>
        <time>2023-01-22T08:56:47Z</time>
      </trkpt>
      <trkpt lat="50.34123" lon="3.23514">
        <ele>28.4</ele>
        <time>2023-01-22T08:56:48Z</time>
      </trkpt>
      <trkpt lat="50.34124" lon="3.23513">
        <ele>28.4</ele>
        <time>2023-01-22T08:56:49Z</time>
      </trkpt>
      <trkpt lat="50.34124" lon="3.23512">
        <ele>28.5</ele>
        <time>2023-01-22T08:56:50Z</time>
      </trkpt>
      <trkpt lat="50.34125" lon="3.23511">
        <ele>28.5</ele>
        <time>2023-01-22T08:56:51Z</time>
      </trkpt>
      <trkpt lat="50.34126" lon="3.2351">
        <ele>28.5</ele>
        <time>2023-01-22T08:56:52Z</time>
      </trkpt>
      <trkpt lat="50.34126" lon="3.23509">
        <ele>28.5</ele>
        <time>2023-01-22T08:56:53Z</time>
      </trkpt>
      <trkpt lat="50.34127" lon="3.23508">
        <ele>28.6</ele>
        <time>2023-01-22T08:56:54Z</time>
      </trkpt>
      <trkpt lat="50.34128" lon="3.23507">
        <ele>22.020103</ele>
        <time>2023-01-22T08:56:55Z</time>
      </trkpt>
      <trkpt lat="50.34128" lon="3.23506">
        <ele>28.6</ele>
        <time>2023-01-22T08:56:56Z</time>
      </trkpt>
      <trkpt lat="50.34128" lon="3.23506">
        <ele>28.6</ele>
        <time>2023-01-22T08:56:57Z</time>
      </trkpt>
      <trkpt lat="50.34128" lon="3.23504">
        <ele>28.6</ele>
        <time>2023-01-22T08:56:58Z</time>
      </trkpt>
      <trkpt lat="50.34128" lon="3.23504">
        <ele>28.6</ele>
        <time>2023-01-22T08:56:59Z</time>
      </trkpt>
      <trkpt lat="50.34128" lon="3.23503">
        <ele>22.02959</ele>
        <time>2023-01-22T08:57:00Z</time>
      </trkpt>
      <trkpt lat="50.34127" lon="3.23503">
        <ele>28.6</ele>
        <time>2023-01-22T08:57:01Z</time>
      </trkpt>
      <trkpt lat="50.34127" lon="3.23503">
        <ele>28.6</ele>
        <time>2023-01-22T08:57:02Z</time>
      </trkpt>
      <trkpt lat="50.34127" lon="3.23503">
        <ele>28.6</ele>
        <time>2023-01-22T08:57:03Z</time>
      </trkpt>
      <trkpt lat="50.34127" lon="3.23503">
        <ele>28.6</ele>
        <time>2023-01-22T08:57:04Z</time>
      </trkpt>
      <trkpt lat="50.34127" lon="3.23503">
        <ele>28.6</ele>
        <time>2023-01-22T08:57:05Z</time>
      </trkpt>
      <trkpt lat="50.34127" lon="3.23503">
        <ele>28.6</ele>
        <time>2023-01-22T08:57:06Z</time>
      </trkpt>
      <trkpt lat="50.34127" lon="3.23503">
        <ele>28.6</ele>
        <time>2023-01-22T08:57:07Z</time>
      </trkpt>
      <trkpt lat="50.34127" lon="3.23503">
        <ele>28.6</ele>
        <time>2023-01-22T08:57:08Z</time>
      </trkpt>
      <trkpt lat="50.34127" lon="3.23503">
        <ele>28.6</ele>
        <time>2023-01-22T08:57:09Z</time>
      </trkpt>
      <trkpt lat="50.34127" lon="3.23502">
        <ele>21.889194</ele>
        <time>2023-01-22T08:57:10Z</time>
      </trkpt>
      <trkpt lat="50.34127" lon="3.23502">
        <ele>28.6</ele>
        <time>2023-01-22T08:57:11Z</time>
        <extensions>
          <gpxtpx:TrackPointExtension xmlns:gpxtpx="http://www.garmin.com/xmlschemas/TrackPointExtension/v1">
            <gpxtpx:hr>140</gpxtpx:hr>
          </gpxtpx:TrackPointExtension>
        </extensions>
      </trkpt>
      <trkpt lat="50.34128" lon="3.23501">
        <ele>28.6</ele>
        <time>2023-01-22T08:57:12Z</time>
      </trkpt>
      <trkpt lat="50.34128" lon="3.23501">
        <ele>28.6</ele>
        <time>2023-01-22T08:57:13Z</time>
      </trkpt>
      <trkpt lat="50.34128" lon="3.23501">
        <ele>28.6</ele>
        <time>2023-01-22T08:57:14Z</time>
      </trkpt>
      <trkpt lat="50.34128" lon="3.23501">
        <ele>28.6</ele>
        <time>2023-01-22T08:57:15Z</time>
      </trkpt>
      <trkpt lat="50.34128" lon="3.23501">
        <ele>28.6</ele>
        <time>2023-01-22T08:57:16Z</time>
      </trkpt>
      <trkpt lat="50.34128" lon="3.235">
        <ele>28.6</ele>
        <time>2023-01-22T08:57:17Z</time>
      </trkpt>
      <trkpt lat="50.34128" lon="3.23499">
        <ele>28.6</ele>
        <time>2023-01-22T08:57:18Z</time>
      </trkpt>
      <trkpt lat="50.34128" lon="3.23499">
        <ele>28.6</ele>
        <time>2023-01-22T08:57:19Z</time>
        <extensions>
          <gpxtpx:TrackPointExtension xmlns:gpxtpx="http://www.garmin.com/xmlschemas/TrackPointExtension/v1">
            <gpxtpx:hr>140</gpxtpx:hr>
          </gpxtpx:TrackPointExtension>
        </extensions>
      </trkpt>
      <trkpt lat="50.34128" lon="3.23499">
        <ele>21.958445</ele>
        <time>2023-01-22T08:57:20Z</time>
      </trkpt>
      <trkpt lat="50.34128" lon="3.23498">
        <ele>28.5</ele>
        <time>2023-01-22T08:57:21Z</time>
      </trkpt>
      <trkpt lat="50.34127" lon="3.23498">
        <ele>28.5</ele>
        <time>2023-01-22T08:57:22Z</time>
      </trkpt>
      <trkpt lat="50.34127" lon="3.23498">
        <ele>28.5</ele>
        <time>2023-01-22T08:57:23Z</time>
      </trkpt>
      <trkpt lat="50.34127" lon="3.23496">
        <ele>28.5</ele>
        <time>2023-01-22T08:57:24Z</time>
      </trkpt>
      <trkpt lat="50.34127" lon="3.23496">
        <ele>28.5</ele>
        <time>2023-01-22T08:57:25Z</time>
      </trkpt>
      <trkpt lat="50.34127" lon="3.23496">
        <ele>28.4</ele>
        <time>2023-01-22T08:57:26Z</time>
      </trkpt>
      <trkpt lat="50.34127" lon="3.23496">
        <ele>28.4</ele>
        <time>2023-01-22T08:57:27Z</time>
      </trkpt>
      <trkpt lat="50.34127" lon="3.23495">
        <ele>28.4</ele>
        <time>2023-01-22T08:57:28Z</time>
      </trkpt>
      <trkpt lat="50.34127" lon="3.23494">
        <ele>28.4</ele>
        <time>2023-01-22T08:57:29Z</time>
      </trkpt>
      <trkpt lat="50.34127" lon="3.23492">
        <ele>22.015362</ele>
        <time>2023-01-22T08:57:30Z</time>
      </trkpt>
      <trkpt lat="50.34127" lon="3.23491">
        <ele>28.3</ele>
        <time>2023-01-22T08:57:31Z</time>
      </trkpt>
      <trkpt lat="50.34127" lon="3.23491">
        <ele>28.3</ele>
        <time>2023-01-22T08:57:32Z</time>
      </trkpt>
      <trkpt lat="50.34127" lon="3.23491">
        <ele>28.2</ele>
        <time>2023-01-22T08:57:33Z</time>
      </trkpt>
      <trkpt lat="50.34127" lon="3.2349">
        <ele>28.2</ele>
        <time>2023-01-22T08:57:34Z</time>
      </trkpt>
      <trkpt lat="50.34127" lon="3.2349">
        <ele>28.2</ele>
        <time>2023-01-22T08:57:35Z</time>
      </trkpt>
      <trkpt lat="50.34127" lon="3.2349">
        <ele>28.2</ele>
        <time>2023-01-22T08:57:36Z</time>
      </trkpt>
      <trkpt lat="50.34127" lon="3.2349">
        <ele>28.2</ele>
        <time>2023-01-22T08:57:37Z</time>
      </trkpt>
      <trkpt lat="50.34127" lon="3.23489">
        <ele>28.2</ele>
        <time>2023-01-22T08:57:38Z</time>
      </trkpt>
      <trkpt lat="50.34127" lon="3.23489">
        <ele>28.2</ele>
        <time>2023-01-22T08:57:39Z</time>
        <extensions>
          <gpxtpx:TrackPointExtension xmlns:gpxtpx="http://www.garmin.com/xmlschemas/TrackPointExtension/v1">
            <gpxtpx:hr>125</gpxtpx:hr>
          </gpxtpx:TrackPointExtension>
        </extensions>
      </trkpt>
      <trkpt lat="50.34128" lon="3.23489">
        <ele>22.101686</ele>
        <time>2023-01-22T08:57:40Z</time>
      </trkpt>
      <trkpt lat="50.34128" lon="3.23489">
        <ele>28.2</ele>
        <time>2023-01-22T08:57:41Z</time>
      </trkpt>
      <trkpt lat="50.34128" lon="3.23489">
        <ele>28.2</ele>
        <time>2023-01-22T08:57:42Z</time>
      </trkpt>
      <trkpt lat="50.34128" lon="3.23489">
        <ele>28.2</ele>
        <time>2023-01-22T08:57:43Z</time>
      </trkpt>
      <trkpt lat="50.34128" lon="3.23489">
        <ele>28.2</ele>
        <time>2023-01-22T08:57:44Z</time>
      </trkpt>
      <trkpt lat="50.34128" lon="3.23488">
        <ele>28.2</ele>
        <time>2023-01-22T08:57:45Z</time>
      </trkpt>
      <trkpt lat="50.34129" lon="3.23488">
        <ele>28.2</ele>
        <time>2023-01-22T08:57:46Z</time>
      </trkpt>
      <trkpt lat="50.34129" lon="3.23487">
        <ele>28.2</ele>
        <time>2023-01-22T08:57:47Z</time>
      </trkpt>
      <trkpt lat="50.3413" lon="3.23486">
        <ele>28.2</ele>
        <time>2023-01-22T08:57:48Z</time>
      </trkpt>
      <trkpt lat="50.34132" lon="3.23484">
        <ele>28.2</ele>
        <time>2023-01-22T08:57:49Z</time>
      </trkpt>
      <trkpt lat="50.34133" lon="3.23483">
        <ele>22.189909</ele>
        <time>2023-01-22T08:57:50Z</time>
      </trkpt>
      <trkpt lat="50.34134" lon="3.23481">
        <ele>28.1</ele>
        <time>2023-01-22T08:57:51Z</time>
      </trkpt>
      <trkpt lat="50.34135" lon="3.2348">
        <ele>28.1</ele>
        <time>2023-01-22T08:57:52Z</time>
      </trkpt>
      <trkpt lat="50.34136" lon="3.23478">
        <ele>28.1</ele>
        <time>2023-01-22T08:57:53Z</time>
      </trkpt>
      <trkpt lat="50.34137" lon="3.23476">
        <ele>28.1</ele>
        <time>2023-01-22T08:57:54Z</time>
      </trkpt>
      <trkpt lat="50.34138" lon="3.23475">
        <ele>28.1</ele>
        <time>2023-01-22T08:57:55Z</time>
      </trkpt>
      <trkpt lat="50.3414" lon="3.23474">
        <ele>28.1</ele>
        <time>2023-01-22T08:57:56Z</time>
      </trkpt>
      <trkpt lat="50.34141" lon="3.23473">
        <ele>28.1</ele>
        <time>2023-01-22T08:57:57Z</time>
      </trkpt>
      <trkpt lat="50.34142" lon="3.23471">
        <ele>28.1</ele>
        <time>2023-01-22T08:57:58Z</time>
      </trkpt>
      <trkpt lat="50.34143" lon="3.23471">
        <ele>28.1</ele>
        <time>2023-01-22T08:57:59Z</time>
        <extensions>
          <gpxtpx:TrackPointExtension xmlns:gpxtpx="http://www.garmin.com/xmlschemas/TrackPointExtension/v1">
            <gpxtpx:hr>121</gpxtpx:hr>
          </gpxtpx:TrackPointExtension>
        </extensions>
      </trkpt>
      <trkpt lat="50.34144" lon="3.23471">
        <ele>21.959393</ele>
        <time>2023-01-22T08:58:00Z</time>
      </trkpt>
      <trkpt lat="50.34145" lon="3.2347">
        <ele>28.2</ele>
        <time>2023-01-22T08:58:01Z</time>
      </trkpt>
      <trkpt lat="50.34145" lon="3.23466">
        <ele>28.2</ele>
        <time>2023-01-22T08:58:02Z</time>
      </trkpt>
      <trkpt lat="50.34145" lon="3.23462">
        <ele>28.1</ele>
        <time>2023-01-22T08:58:03Z</time>
      </trkpt>
      <trkpt lat="50.34146" lon="3.2346">
        <ele>28.1</ele>
        <time>2023-01-22T08:58:04Z</time>
      </trkpt>
      <trkpt lat="50.34146" lon="3.23459">
        <ele>28.1</ele>
        <time>2023-01-22T08:58:05Z</time>
      </trkpt>
      <trkpt lat="50.34146" lon="3.23458">
        <ele>28.1</ele>
        <time>2023-01-22T08:58:06Z</time>
      </trkpt>
      <trkpt lat="50.34146" lon="3.23457">
        <ele>28.1</ele>
        <time>2023-01-22T08:58:07Z</time>
      </trkpt>
      <trkpt lat="50.34146" lon="3.23457">
        <ele>28.1</ele>
        <time>2023-01-22T08:58:08Z</time>
      </trkpt>
      <trkpt lat="50.34146" lon="3.23457">
        <ele>28.1</ele>
        <time>2023-01-22T08:58:09Z</time>
      </trkpt>
      <trkpt lat="50.34146" lon="3.23456">
        <ele>22.072279</ele>
        <time>2023-01-22T08:58:10Z</time>
      </trkpt>
      <trkpt lat="50.34146" lon="3.23455">
        <ele>28.1</ele>
        <time>2023-01-22T08:58:11Z</time>
      </trkpt>
      <trkpt lat="50.34146" lon="3.23454">
        <ele>28.1</ele>
        <time>2023-01-22T08:58:12Z</time>
      </trkpt>
      <trkpt lat="50.34145" lon="3.23453">
        <ele>28.1</ele>
        <time>2023-01-22T08:58:13Z</time>
      </trkpt>
      <trkpt lat="50.34145" lon="3.23453">
        <ele>28.1</ele>
        <time>2023-01-22T08:58:14Z</time>
      </trkpt>
      <trkpt lat="50.34144" lon="3.2345">
        <ele>28</ele>
        <time>2023-01-22T08:58:15Z</time>
      </trkpt>
      <trkpt lat="50.34142" lon="3.23451">
        <ele>28</ele>
        <time>2023-01-22T08:58:16Z</time>
      </trkpt>
      <trkpt lat="50.34142" lon="3.23451">
        <ele>28</ele>
        <time>2023-01-22T08:58:17Z</time>
      </trkpt>
      <trkpt lat="50.34141" lon="3.23451">
        <ele>28</ele>
        <time>2023-01-22T08:58:18Z</time>
      </trkpt>
      <trkpt lat="50.34141" lon="3.23451">
        <ele>28</ele>
        <time>2023-01-22T08:58:19Z</time>
        <extensions>
          <gpxtpx:TrackPointExtension xmlns:gpxtpx="http://www.garmin.com/xmlschemas/TrackPointExtension/v1">
            <gpxtpx:hr>116</gpxtpx:hr>
          </gpxtpx:TrackPointExtension>
        </extensions>
      </trkpt>
      <trkpt lat="50.34141" lon="3.23451">
        <ele>22.013464</ele>
        <time>2023-01-22T08:58:20Z</time>
      </trkpt>
      <trkpt lat="50.34141" lon="3.23451">
        <ele>28</ele>
        <time>2023-01-22T08:58:21Z</time>
      </trkpt>
      <trkpt lat="50.34141" lon="3.23451">
        <ele>28</ele>
        <time>2023-01-22T08:58:22Z</time>
      </trkpt>
      <trkpt lat="50.34141" lon="3.23451">
        <ele>28</ele>
        <time>2023-01-22T08:58:23Z</time>
      </trkpt>
      <trkpt lat="50.34141" lon="3.23451">
        <ele>28</ele>
        <time>2023-01-22T08:58:24Z</time>
      </trkpt>
      <trkpt lat="50.34141" lon="3.23451">
        <ele>28</ele>
        <time>2023-01-22T08:58:25Z</time>
      </trkpt>
      <trkpt lat="50.34141" lon="3.23451">
        <ele>28</ele>
        <time>2023-01-22T08:58:26Z</time>
      </trkpt>
      <trkpt lat="50.34141" lon="3.23451">
        <ele>28</ele>
        <time>2023-01-22T08:58:27Z</time>
      </trkpt>
      <trkpt lat="50.34141" lon="3.23451">
        <ele>28</ele>
        <time>2023-01-22T08:58:28Z</time>
      </trkpt>
      <trkpt lat="50.34141" lon="3.23451">
        <ele>28</ele>
        <time>2023-01-22T08:58:29Z</time>
      </trkpt>
      <trkpt lat="50.34141" lon="3.23451">
        <ele>28</ele>
        <time>2023-01-22T08:58:30Z</time>
      </trkpt>
      <trkpt lat="50.34141" lon="3.23451">
        <ele>28</ele>
        <time>2023-01-22T08:58:31Z</time>
      </trkpt>
      <trkpt lat="50.34142" lon="3.23451">
        <ele>28</ele>
        <time>2023-01-22T08:58:32Z</time>
      </trkpt>
      <trkpt lat="50.34142" lon="3.2345">
        <ele>28</ele>
        <time>2023-01-22T08:58:33Z</time>
      </trkpt>
      <trkpt lat="50.34142" lon="3.2345">
        <ele>28</ele>
        <time>2023-01-22T08:58:34Z</time>
      </trkpt>
      <trkpt lat="50.34142" lon="3.2345">
        <ele>21.853148</ele>
        <time>2023-01-22T08:58:35Z</time>
      </trkpt>
      <trkpt lat="50.34142" lon="3.2345">
        <ele>28</ele>
        <time>2023-01-22T08:58:36Z</time>
      </trkpt>
      <trkpt lat="50.34142" lon="3.2345">
        <ele>28</ele>
        <time>2023-01-22T08:58:37Z</time>
      </trkpt>
      <trkpt lat="50.34142" lon="3.2345">
        <ele>28</ele>
        <time>2023-01-22T08:58:38Z</time>
      </trkpt>
      <trkpt lat="50.34142" lon="3.2345">
        <ele>28</ele>
        <time>2023-01-22T08:58:39Z</time>
        <extensions>
          <gpxtpx:TrackPointExtension xmlns:gpxtpx="http://www.garmin.com/xmlschemas/TrackPointExtension/v1">
            <gpxtpx:hr>114</gpxtpx:hr>
          </gpxtpx:TrackPointExtension>
        </extensions>
      </trkpt>
      <trkpt lat="50.34142" lon="3.2345">
        <ele>21.83702</ele>
        <time>2023-01-22T08:58:40Z</time>
      </trkpt>
      <trkpt lat="50.34142" lon="3.2345">
        <ele>28</ele>
        <time>2023-01-22T08:58:41Z</time>
      </trkpt>
      <trkpt lat="50.34143" lon="3.23448">
        <ele>28</ele>
        <time>2023-01-22T08:58:42Z</time>
      </trkpt>
      <trkpt lat="50.34144" lon="3.23447">
        <ele>28</ele>
        <time>2023-01-22T08:58:43Z</time>
      </trkpt>
      <trkpt lat="50.34144" lon="3.23446">
        <ele>28</ele>
        <time>2023-01-22T08:58:44Z</time>
      </trkpt>
      <trkpt lat="50.34145" lon="3.23444">
        <ele>28</ele>
        <time>2023-01-22T08:58:45Z</time>
      </trkpt>
      <trkpt lat="50.34146" lon="3.23443">
        <ele>28</ele>
        <time>2023-01-22T08:58:46Z</time>
      </trkpt>
      <trkpt lat="50.34146" lon="3.23443">
        <ele>28</ele>
        <time>2023-01-22T08:58:47Z</time>
      </trkpt>
      <trkpt lat="50.34147" lon="3.23442">
        <ele>28</ele>
        <time>2023-01-22T08:58:48Z</time>
      </trkpt>
      <trkpt lat="50.34147" lon="3.23442">
        <ele>28</ele>
        <time>2023-01-22T08:58:49Z</time>
      </trkpt>
      <trkpt lat="50.34149" lon="3.23441">
        <ele>22.081764</ele>
        <time>2023-01-22T08:58:50Z</time>
      </trkpt>
      <trkpt lat="50.34151" lon="3.2344">
        <ele>28</ele>
        <time>2023-01-22T08:58:51Z</time>
      </trkpt>
      <trkpt lat="50.34152" lon="3.23439">
        <ele>28</ele>
        <time>2023-01-22T08:58:52Z</time>
      </trkpt>
      <trkpt lat="50.34154" lon="3.23439">
        <ele>28</ele>
        <time>2023-01-22T08:58:53Z</time>
      </trkpt>
      <trkpt lat="50.34154" lon="3.23438">
        <ele>28</ele>
        <time>2023-01-22T08:58:54Z</time>
      </trkpt>
      <trkpt lat="50.34154" lon="3.23438">
        <ele>28</ele>
        <time>2023-01-22T08:58:55Z</time>
      </trkpt>
      <trkpt lat="50.34154" lon="3.23438">
        <ele>28</ele>
        <time>2023-01-22T08:58:56Z</time>
      </trkpt>
      <trkpt lat="50.34156" lon="3.23437">
        <ele>28</ele>
        <time>2023-01-22T08:58:57Z</time>
      </trkpt>
      <trkpt lat="50.34158" lon="3.23435">
        <ele>28</ele>
        <time>2023-01-22T08:58:58Z</time>
      </trkpt>
      <trkpt lat="50.34159" lon="3.23433">
        <ele>28</ele>
        <time>2023-01-22T08:58:59Z</time>
        <extensions>
          <gpxtpx:TrackPointExtension xmlns:gpxtpx="http://www.garmin.com/xmlschemas/TrackPointExtension/v1">
            <gpxtpx:hr>107</gpxtpx:hr>
          </gpxtpx:TrackPointExtension>
        </extensions>
      </trkpt>
      <trkpt lat="50.34161" lon="3.23431">
        <ele>22.332203</ele>
        <time>2023-01-22T08:59:00Z</time>
      </trkpt>
      <trkpt lat="50.34163" lon="3.23429">
        <ele>28</ele>
        <time>2023-01-22T08:59:01Z</time>
      </trkpt>
      <trkpt lat="50.34164" lon="3.23427">
        <ele>28</ele>
        <time>2023-01-22T08:59:02Z</time>
      </trkpt>
      <trkpt lat="50.34164" lon="3.23425">
        <ele>28</ele>
        <time>2023-01-22T08:59:03Z</time>
      </trkpt>
      <trkpt lat="50.34166" lon="3.23424">
        <ele>28</ele>
        <time>2023-01-22T08:59:04Z</time>
      </trkpt>
      <trkpt lat="50.34167" lon="3.23421">
        <ele>28</ele>
        <time>2023-01-22T08:59:05Z</time>
      </trkpt>
      <trkpt lat="50.34168" lon="3.23419">
        <ele>28</ele>
        <time>2023-01-22T08:59:06Z</time>
      </trkpt>
      <trkpt lat="50.34169" lon="3.23418">
        <ele>28</ele>
        <time>2023-01-22T08:59:07Z</time>
      </trkpt>
      <trkpt lat="50.34169" lon="3.23416">
        <ele>28</ele>
        <time>2023-01-22T08:59:08Z</time>
      </trkpt>
      <trkpt lat="50.3417" lon="3.23414">
        <ele>28</ele>
        <time>2023-01-22T08:59:09Z</time>
      </trkpt>
      <trkpt lat="50.3417" lon="3.23412">
        <ele>22.137733</ele>
        <time>2023-01-22T08:59:10Z</time>
      </trkpt>
      <trkpt lat="50.34171" lon="3.23411">
        <ele>28</ele>
        <time>2023-01-22T08:59:11Z</time>
      </trkpt>
      <trkpt lat="50.34171" lon="3.2341">
        <ele>28</ele>
        <time>2023-01-22T08:59:12Z</time>
      </trkpt>
      <trkpt lat="50.34172" lon="3.23408">
        <ele>28</ele>
        <time>2023-01-22T08:59:13Z</time>
      </trkpt>
      <trkpt lat="50.34173" lon="3.23407">
        <ele>28</ele>
        <time>2023-01-22T08:59:14Z</time>
      </trkpt>
      <trkpt lat="50.34173" lon="3.23405">
        <ele>28</ele>
        <time>2023-01-22T08:59:15Z</time>
      </trkpt>
      <trkpt lat="50.34173" lon="3.23403">
        <ele>28</ele>
        <time>2023-01-22T08:59:16Z</time>
      </trkpt>
      <trkpt lat="50.34174" lon="3.23402">
        <ele>28</ele>
        <time>2023-01-22T08:59:17Z</time>
      </trkpt>
      <trkpt lat="50.34174" lon="3.234">
        <ele>28</ele>
        <time>2023-01-22T08:59:18Z</time>
      </trkpt>
      <trkpt lat="50.34176" lon="3.23398">
        <ele>28</ele>
        <time>2023-01-22T08:59:19Z</time>
        <extensions>
          <gpxtpx:TrackPointExtension xmlns:gpxtpx="http://www.garmin.com/xmlschemas/TrackPointExtension/v1">
            <gpxtpx:hr>113</gpxtpx:hr>
          </gpxtpx:TrackPointExtension>
        </extensions>
      </trkpt>
      <trkpt lat="50.34176" lon="3.23395">
        <ele>21.38833</ele>
        <time>2023-01-22T08:59:20Z</time>
      </trkpt>
      <trkpt lat="50.34177" lon="3.23393">
        <ele>28</ele>
        <time>2023-01-22T08:59:21Z</time>
      </trkpt>
      <trkpt lat="50.34177" lon="3.23392">
        <ele>28</ele>
        <time>2023-01-22T08:59:22Z</time>
      </trkpt>
      <trkpt lat="50.34179" lon="3.23391">
        <ele>28</ele>
        <time>2023-01-22T08:59:23Z</time>
      </trkpt>
      <trkpt lat="50.3418" lon="3.23389">
        <ele>28</ele>
        <time>2023-01-22T08:59:24Z</time>
      </trkpt>
      <trkpt lat="50.34181" lon="3.23387">
        <ele>28</ele>
        <time>2023-01-22T08:59:25Z</time>
      </trkpt>
      <trkpt lat="50.34182" lon="3.23386">
        <ele>28</ele>
        <time>2023-01-22T08:59:26Z</time>
      </trkpt>
      <trkpt lat="50.34183" lon="3.23384">
        <ele>28</ele>
        <time>2023-01-22T08:59:27Z</time>
      </trkpt>
      <trkpt lat="50.34183" lon="3.23383">
        <ele>28</ele>
        <time>2023-01-22T08:59:28Z</time>
      </trkpt>
      <trkpt lat="50.34183" lon="3.2338">
        <ele>28</ele>
        <time>2023-01-22T08:59:29Z</time>
      </trkpt>
      <trkpt lat="50.34184" lon="3.23379">
        <ele>21.073399</ele>
        <time>2023-01-22T08:59:30Z</time>
      </trkpt>
      <trkpt lat="50.34184" lon="3.23377">
        <ele>28</ele>
        <time>2023-01-22T08:59:31Z</time>
      </trkpt>
      <trkpt lat="50.34184" lon="3.23376">
        <ele>28</ele>
        <time>2023-01-22T08:59:32Z</time>
      </trkpt>
      <trkpt lat="50.34185" lon="3.23374">
        <ele>28</ele>
        <time>2023-01-22T08:59:33Z</time>
      </trkpt>
      <trkpt lat="50.34186" lon="3.23373">
        <ele>28</ele>
        <time>2023-01-22T08:59:34Z</time>
      </trkpt>
      <trkpt lat="50.34187" lon="3.23372">
        <ele>28</ele>
        <time>2023-01-22T08:59:35Z</time>
      </trkpt>
      <trkpt lat="50.34188" lon="3.23371">
        <ele>28</ele>
        <time>2023-01-22T08:59:36Z</time>
      </trkpt>
      <trkpt lat="50.34189" lon="3.2337">
        <ele>28</ele>
        <time>2023-01-22T08:59:37Z</time>
      </trkpt>
      <trkpt lat="50.34189" lon="3.23368">
        <ele>28</ele>
        <time>2023-01-22T08:59:38Z</time>
      </trkpt>
      <trkpt lat="50.3419" lon="3.23367">
        <ele>28</ele>
        <time>2023-01-22T08:59:39Z</time>
        <extensions>
          <gpxtpx:TrackPointExtension xmlns:gpxtpx="http://www.garmin.com/xmlschemas/TrackPointExtension/v1">
            <gpxtpx:hr>112</gpxtpx:hr>
          </gpxtpx:TrackPointExtension>
        </extensions>
      </trkpt>
      <trkpt lat="50.34192" lon="3.23366">
        <ele>20.845741</ele>
        <time>2023-01-22T08:59:40Z</time>
      </trkpt>
      <trkpt lat="50.34192" lon="3.23365">
        <ele>28</ele>
        <time>2023-01-22T08:59:41Z</time>
      </trkpt>
      <trkpt lat="50.34193" lon="3.23364">
        <ele>28</ele>
        <time>2023-01-22T08:59:42Z</time>
      </trkpt>
      <trkpt lat="50.34194" lon="3.23363">
        <ele>28</ele>
        <time>2023-01-22T08:59:43Z</time>
      </trkpt>
      <trkpt lat="50.34195" lon="3.23363">
        <ele>28</ele>
        <time>2023-01-22T08:59:44Z</time>
      </trkpt>
      <trkpt lat="50.34196" lon="3.23362">
        <ele>28</ele>
        <time>2023-01-22T08:59:45Z</time>
      </trkpt>
      <trkpt lat="50.34197" lon="3.23361">
        <ele>28</ele>
        <time>2023-01-22T08:59:46Z</time>
      </trkpt>
      <trkpt lat="50.34197" lon="3.23361">
        <ele>28</ele>
        <time>2023-01-22T08:59:47Z</time>
      </trkpt>
      <trkpt lat="50.34198" lon="3.2336">
        <ele>28</ele>
        <time>2023-01-22T08:59:48Z</time>
      </trkpt>
      <trkpt lat="50.34199" lon="3.23359">
        <ele>28</ele>
        <time>2023-01-22T08:59:49Z</time>
      </trkpt>
      <trkpt lat="50.34201" lon="3.23357">
        <ele>20.725273</ele>
        <time>2023-01-22T08:59:50Z</time>
      </trkpt>
      <trkpt lat="50.34202" lon="3.23356">
        <ele>28</ele>
        <time>2023-01-22T08:59:51Z</time>
      </trkpt>
      <trkpt lat="50.34203" lon="3.23356">
        <ele>28</ele>
        <time>2023-01-22T08:59:52Z</time>
      </trkpt>
      <trkpt lat="50.34204" lon="3.23355">
        <ele>28</ele>
        <time>2023-01-22T08:59:53Z</time>
      </trkpt>
      <trkpt lat="50.34205" lon="3.23354">
        <ele>28</ele>
        <time>2023-01-22T08:59:54Z</time>
      </trkpt>
      <trkpt lat="50.34205" lon="3.23353">
        <ele>28</ele>
        <time>2023-01-22T08:59:55Z</time>
      </trkpt>
      <trkpt lat="50.34207" lon="3.2335">
        <ele>28</ele>
        <time>2023-01-22T08:59:56Z</time>
      </trkpt>
      <trkpt lat="50.34209" lon="3.2335">
        <ele>28</ele>
        <time>2023-01-22T08:59:57Z</time>
      </trkpt>
      <trkpt lat="50.3421" lon="3.23347">
        <ele>28</ele>
        <time>2023-01-22T08:59:58Z</time>
      </trkpt>
      <trkpt lat="50.34211" lon="3.23344">
        <ele>28</ele>
        <time>2023-01-22T08:59:59Z</time>
        <extensions>
          <gpxtpx:TrackPointExtension xmlns:gpxtpx="http://www.garmin.com/xmlschemas/TrackPointExtension/v1">
            <gpxtpx:hr>116</gpxtpx:hr>
          </gpxtpx:TrackPointExtension>
        </extensions>
      </trkpt>
      <trkpt lat="50.34212" lon="3.23342">
        <ele>20.757524</ele>
        <time>2023-01-22T09:00:00Z</time>
      </trkpt>
      <trkpt lat="50.34213" lon="3.2334">
        <ele>28</ele>
        <time>2023-01-22T09:00:01Z</time>
      </trkpt>
      <trkpt lat="50.34214" lon="3.23338">
        <ele>28</ele>
        <time>2023-01-22T09:00:02Z</time>
      </trkpt>
      <trkpt lat="50.34214" lon="3.23337">
        <ele>28</ele>
        <time>2023-01-22T09:00:03Z</time>
      </trkpt>
      <trkpt lat="50.34216" lon="3.23336">
        <ele>28</ele>
        <time>2023-01-22T09:00:04Z</time>
      </trkpt>
      <trkpt lat="50.34216" lon="3.23333">
        <ele>28</ele>
        <time>2023-01-22T09:00:05Z</time>
      </trkpt>
      <trkpt lat="50.34217" lon="3.23332">
        <ele>28.1</ele>
        <time>2023-01-22T09:00:06Z</time>
      </trkpt>
      <trkpt lat="50.34217" lon="3.2333">
        <ele>28.1</ele>
        <time>2023-01-22T09:00:07Z</time>
      </trkpt>
      <trkpt lat="50.34218" lon="3.23329">
        <ele>28.2</ele>
        <time>2023-01-22T09:00:08Z</time>
      </trkpt>
      <trkpt lat="50.34218" lon="3.23326">
        <ele>28.3</ele>
        <time>2023-01-22T09:00:09Z</time>
      </trkpt>
      <trkpt lat="50.34218" lon="3.23323">
        <ele>28.4</ele>
        <time>2023-01-22T09:00:10Z</time>
      </trkpt>
      <trkpt lat="50.34218" lon="3.23321">
        <ele>28.4</ele>
        <time>2023-01-22T09:00:11Z</time>
      </trkpt>
      <trkpt lat="50.34219" lon="3.2332">
        <ele>28.5</ele>
        <time>2023-01-22T09:00:12Z</time>
      </trkpt>
      <trkpt lat="50.34219" lon="3.23318">
        <ele>28.5</ele>
        <time>2023-01-22T09:00:13Z</time>
      </trkpt>
      <trkpt lat="50.34221" lon="3.23316">
        <ele>28.6</ele>
        <time>2023-01-22T09:00:14Z</time>
      </trkpt>
      <trkpt lat="50.34222" lon="3.23314">
        <ele>20.511847</ele>
        <time>2023-01-22T09:00:15Z</time>
      </trkpt>
      <trkpt lat="50.34223" lon="3.23311">
        <ele>28.8</ele>
        <time>2023-01-22T09:00:16Z</time>
      </trkpt>
      <trkpt lat="50.34224" lon="3.2331">
        <ele>28.9</ele>
        <time>2023-01-22T09:00:17Z</time>
      </trkpt>
      <trkpt lat="50.34225" lon="3.23307">
        <ele>29</ele>
        <time>2023-01-22T09:00:18Z</time>
      </trkpt>
      <trkpt lat="50.34226" lon="3.23305">
        <ele>29</ele>
        <time>2023-01-22T09:00:19Z</time>
        <extensions>
          <gpxtpx:TrackPointExtension xmlns:gpxtpx="http://www.garmin.com/xmlschemas/TrackPointExtension/v1">
            <gpxtpx:hr>124</gpxtpx:hr>
          </gpxtpx:TrackPointExtension>
        </extensions>
      </trkpt>
      <trkpt lat="50.34227" lon="3.23303">
        <ele>20.458727</ele>
        <time>2023-01-22T09:00:20Z</time>
      </trkpt>
      <trkpt lat="50.34228" lon="3.23301">
        <ele>29.1</ele>
        <time>2023-01-22T09:00:21Z</time>
      </trkpt>
      <trkpt lat="50.34229" lon="3.23299">
        <ele>29.2</ele>
        <time>2023-01-22T09:00:22Z</time>
      </trkpt>
      <trkpt lat="50.3423" lon="3.23298">
        <ele>29.2</ele>
        <time>2023-01-22T09:00:23Z</time>
      </trkpt>
      <trkpt lat="50.3423" lon="3.23296">
        <ele>29.2</ele>
        <time>2023-01-22T09:00:24Z</time>
      </trkpt>
      <trkpt lat="50.34232" lon="3.23294">
        <ele>29.3</ele>
        <time>2023-01-22T09:00:25Z</time>
      </trkpt>
      <trkpt lat="50.34232" lon="3.23293">
        <ele>29.3</ele>
        <time>2023-01-22T09:00:26Z</time>
      </trkpt>
      <trkpt lat="50.34233" lon="3.23291">
        <ele>29.3</ele>
        <time>2023-01-22T09:00:27Z</time>
      </trkpt>
      <trkpt lat="50.34234" lon="3.23289">
        <ele>29.3</ele>
        <time>2023-01-22T09:00:28Z</time>
      </trkpt>
      <trkpt lat="50.34235" lon="3.23287">
        <ele>29.4</ele>
        <time>2023-01-22T09:00:29Z</time>
      </trkpt>
      <trkpt lat="50.34236" lon="3.23285">
        <ele>20.51659</ele>
        <time>2023-01-22T09:00:30Z</time>
      </trkpt>
      <trkpt lat="50.34237" lon="3.23283">
        <ele>29.4</ele>
        <time>2023-01-22T09:00:31Z</time>
      </trkpt>
      <trkpt lat="50.34238" lon="3.23282">
        <ele>29.4</ele>
        <time>2023-01-22T09:00:32Z</time>
      </trkpt>
      <trkpt lat="50.34238" lon="3.23281">
        <ele>29.4</ele>
        <time>2023-01-22T09:00:33Z</time>
      </trkpt>
      <trkpt lat="50.34239" lon="3.2328">
        <ele>29.4</ele>
        <time>2023-01-22T09:00:34Z</time>
      </trkpt>
      <trkpt lat="50.3424" lon="3.23279">
        <ele>29.3</ele>
        <time>2023-01-22T09:00:35Z</time>
      </trkpt>
      <trkpt lat="50.34242" lon="3.23279">
        <ele>29.3</ele>
        <time>2023-01-22T09:00:36Z</time>
      </trkpt>
      <trkpt lat="50.34243" lon="3.23278">
        <ele>29.3</ele>
        <time>2023-01-22T09:00:37Z</time>
      </trkpt>
      <trkpt lat="50.34245" lon="3.23276">
        <ele>29.2</ele>
        <time>2023-01-22T09:00:38Z</time>
      </trkpt>
      <trkpt lat="50.34246" lon="3.23275">
        <ele>29.2</ele>
        <time>2023-01-22T09:00:39Z</time>
        <extensions>
          <gpxtpx:TrackPointExtension xmlns:gpxtpx="http://www.garmin.com/xmlschemas/TrackPointExtension/v1">
            <gpxtpx:hr>132</gpxtpx:hr>
          </gpxtpx:TrackPointExtension>
        </extensions>
      </trkpt>
      <trkpt lat="50.34247" lon="3.23274">
        <ele>20.688278</ele>
        <time>2023-01-22T09:00:40Z</time>
      </trkpt>
      <trkpt lat="50.34249" lon="3.23272">
        <ele>29.2</ele>
        <time>2023-01-22T09:00:41Z</time>
      </trkpt>
      <trkpt lat="50.3425" lon="3.23272">
        <ele>29.2</ele>
        <time>2023-01-22T09:00:42Z</time>
      </trkpt>
      <trkpt lat="50.34251" lon="3.23271">
        <ele>29.2</ele>
        <time>2023-01-22T09:00:43Z</time>
      </trkpt>
      <trkpt lat="50.34252" lon="3.23271">
        <ele>29.2</ele>
        <time>2023-01-22T09:00:44Z</time>
      </trkpt>
      <trkpt lat="50.34253" lon="3.2327">
        <ele>29.2</ele>
        <time>2023-01-22T09:00:45Z</time>
      </trkpt>
      <trkpt lat="50.34255" lon="3.2327">
        <ele>29.2</ele>
        <time>2023-01-22T09:00:46Z</time>
      </trkpt>
      <trkpt lat="50.34255" lon="3.23269">
        <ele>29.3</ele>
        <time>2023-01-22T09:00:47Z</time>
      </trkpt>
      <trkpt lat="50.34256" lon="3.23268">
        <ele>29.3</ele>
        <time>2023-01-22T09:00:48Z</time>
      </trkpt>
      <trkpt lat="50.34258" lon="3.23268">
        <ele>29.3</ele>
        <time>2023-01-22T09:00:49Z</time>
      </trkpt>
      <trkpt lat="50.34259" lon="3.23267">
        <ele>20.714838</ele>
        <time>2023-01-22T09:00:50Z</time>
      </trkpt>
      <trkpt lat="50.34259" lon="3.23266">
        <ele>29.3</ele>
        <time>2023-01-22T09:00:51Z</time>
      </trkpt>
      <trkpt lat="50.3426" lon="3.23266">
        <ele>29.3</ele>
        <time>2023-01-22T09:00:52Z</time>
      </trkpt>
      <trkpt lat="50.34261" lon="3.23265">
        <ele>29.3</ele>
        <time>2023-01-22T09:00:53Z</time>
      </trkpt>
      <trkpt lat="50.34263" lon="3.23265">
        <ele>29.3</ele>
        <time>2023-01-22T09:00:54Z</time>
      </trkpt>
      <trkpt lat="50.34263" lon="3.23264">
        <ele>29.3</ele>
        <time>2023-01-22T09:00:55Z</time>
      </trkpt>
      <trkpt lat="50.34264" lon="3.23264">
        <ele>29.2</ele>
        <time>2023-01-22T09:00:56Z</time>
      </trkpt>
      <trkpt lat="50.34266" lon="3.23263">
        <ele>29.2</ele>
        <time>2023-01-22T09:00:57Z</time>
      </trkpt>
      <trkpt lat="50.34267" lon="3.23262">
        <ele>29.2</ele>
        <time>2023-01-22T09:00:58Z</time>
      </trkpt>
      <trkpt lat="50.34268" lon="3.23261">
        <ele>29.2</ele>
        <time>2023-01-22T09:00:59Z</time>
        <extensions>
          <gpxtpx:TrackPointExtension xmlns:gpxtpx="http://www.garmin.com/xmlschemas/TrackPointExtension/v1">
            <gpxtpx:hr>130</gpxtpx:hr>
          </gpxtpx:TrackPointExtension>
        </extensions>
      </trkpt>
      <trkpt lat="50.34269" lon="3.23261">
        <ele>20.804003</ele>
        <time>2023-01-22T09:01:00Z</time>
      </trkpt>
      <trkpt lat="50.34271" lon="3.2326">
        <ele>29.2</ele>
        <time>2023-01-22T09:01:01Z</time>
      </trkpt>
      <trkpt lat="50.34272" lon="3.23261">
        <ele>29.1</ele>
        <time>2023-01-22T09:01:02Z</time>
      </trkpt>
      <trkpt lat="50.34273" lon="3.23262">
        <ele>29.1</ele>
        <time>2023-01-22T09:01:03Z</time>
      </trkpt>
      <trkpt lat="50.34274" lon="3.23262">
        <ele>29.1</ele>
        <time>2023-01-22T09:01:04Z</time>
      </trkpt>
      <trkpt lat="50.34275" lon="3.23263">
        <ele>29.1</ele>
        <time>2023-01-22T09:01:05Z</time>
      </trkpt>
      <trkpt lat="50.34276" lon="3.23264">
        <ele>29</ele>
        <time>2023-01-22T09:01:06Z</time>
      </trkpt>
      <trkpt lat="50.34277" lon="3.23266">
        <ele>29</ele>
        <time>2023-01-22T09:01:07Z</time>
      </trkpt>
      <trkpt lat="50.34278" lon="3.23267">
        <ele>29</ele>
        <time>2023-01-22T09:01:08Z</time>
      </trkpt>
      <trkpt lat="50.34278" lon="3.23267">
        <ele>29</ele>
        <time>2023-01-22T09:01:09Z</time>
      </trkpt>
      <trkpt lat="50.34279" lon="3.23267">
        <ele>20.829615</ele>
        <time>2023-01-22T09:01:10Z</time>
      </trkpt>
      <trkpt lat="50.3428" lon="3.23267">
        <ele>29</ele>
        <time>2023-01-22T09:01:11Z</time>
      </trkpt>
      <trkpt lat="50.34281" lon="3.23268">
        <ele>29</ele>
        <time>2023-01-22T09:01:12Z</time>
      </trkpt>
      <trkpt lat="50.34282" lon="3.23268">
        <ele>29</ele>
        <time>2023-01-22T09:01:13Z</time>
      </trkpt>
      <trkpt lat="50.34282" lon="3.23269">
        <ele>29</ele>
        <time>2023-01-22T09:01:14Z</time>
      </trkpt>
      <trkpt lat="50.34282" lon="3.23269">
        <ele>29</ele>
        <time>2023-01-22T09:01:15Z</time>
      </trkpt>
      <trkpt lat="50.34283" lon="3.2327">
        <ele>29</ele>
        <time>2023-01-22T09:01:16Z</time>
      </trkpt>
      <trkpt lat="50.34284" lon="3.23271">
        <ele>29</ele>
        <time>2023-01-22T09:01:17Z</time>
      </trkpt>
      <trkpt lat="50.34285" lon="3.23272">
        <ele>29</ele>
        <time>2023-01-22T09:01:18Z</time>
      </trkpt>
      <trkpt lat="50.34285" lon="3.23274">
        <ele>29</ele>
        <time>2023-01-22T09:01:19Z</time>
        <extensions>
          <gpxtpx:TrackPointExtension xmlns:gpxtpx="http://www.garmin.com/xmlschemas/TrackPointExtension/v1">
            <gpxtpx:hr>128</gpxtpx:hr>
          </gpxtpx:TrackPointExtension>
        </extensions>
      </trkpt>
      <trkpt lat="50.34286" lon="3.23275">
        <ele>21.231813</ele>
        <time>2023-01-22T09:01:20Z</time>
      </trkpt>
      <trkpt lat="50.34286" lon="3.23276">
        <ele>29</ele>
        <time>2023-01-22T09:01:21Z</time>
      </trkpt>
      <trkpt lat="50.34287" lon="3.23277">
        <ele>29</ele>
        <time>2023-01-22T09:01:22Z</time>
      </trkpt>
      <trkpt lat="50.34287" lon="3.23278">
        <ele>29</ele>
        <time>2023-01-22T09:01:23Z</time>
      </trkpt>
      <trkpt lat="50.34286" lon="3.23279">
        <ele>29</ele>
        <time>2023-01-22T09:01:24Z</time>
      </trkpt>
      <trkpt lat="50.34286" lon="3.2328">
        <ele>29</ele>
        <time>2023-01-22T09:01:25Z</time>
      </trkpt>
      <trkpt lat="50.34287" lon="3.23282">
        <ele>29</ele>
        <time>2023-01-22T09:01:26Z</time>
      </trkpt>
      <trkpt lat="50.34287" lon="3.23282">
        <ele>29.1</ele>
        <time>2023-01-22T09:01:27Z</time>
      </trkpt>
      <trkpt lat="50.34287" lon="3.23284">
        <ele>29.1</ele>
        <time>2023-01-22T09:01:28Z</time>
      </trkpt>
      <trkpt lat="50.34288" lon="3.23285">
        <ele>29.1</ele>
        <time>2023-01-22T09:01:29Z</time>
      </trkpt>
      <trkpt lat="50.34289" lon="3.23286">
        <ele>21.594177</ele>
        <time>2023-01-22T09:01:30Z</time>
      </trkpt>
      <trkpt lat="50.3429" lon="3.23288">
        <ele>29.2</ele>
        <time>2023-01-22T09:01:31Z</time>
      </trkpt>
      <trkpt lat="50.3429" lon="3.2329">
        <ele>29.2</ele>
        <time>2023-01-22T09:01:32Z</time>
      </trkpt>
      <trkpt lat="50.3429" lon="3.23292">
        <ele>29.2</ele>
        <time>2023-01-22T09:01:33Z</time>
      </trkpt>
      <trkpt lat="50.3429" lon="3.23294">
        <ele>29.3</ele>
        <time>2023-01-22T09:01:34Z</time>
      </trkpt>
      <trkpt lat="50.34291" lon="3.23296">
        <ele>29.3</ele>
        <time>2023-01-22T09:01:35Z</time>
      </trkpt>
      <trkpt lat="50.34291" lon="3.23299">
        <ele>29.4</ele>
        <time>2023-01-22T09:01:36Z</time>
      </trkpt>
      <trkpt lat="50.34291" lon="3.23302">
        <ele>29.4</ele>
        <time>2023-01-22T09:01:37Z</time>
      </trkpt>
      <trkpt lat="50.34291" lon="3.23304">
        <ele>29.4</ele>
        <time>2023-01-22T09:01:38Z</time>
      </trkpt>
      <trkpt lat="50.34292" lon="3.23305">
        <ele>29.5</ele>
        <time>2023-01-22T09:01:39Z</time>
        <extensions>
          <gpxtpx:TrackPointExtension xmlns:gpxtpx="http://www.garmin.com/xmlschemas/TrackPointExtension/v1">
            <gpxtpx:hr>133</gpxtpx:hr>
          </gpxtpx:TrackPointExtension>
        </extensions>
      </trkpt>
      <trkpt lat="50.34293" lon="3.23306">
        <ele>21.97552</ele>
        <time>2023-01-22T09:01:40Z</time>
      </trkpt>
      <trkpt lat="50.34293" lon="3.23308">
        <ele>29.5</ele>
        <time>2023-01-22T09:01:41Z</time>
      </trkpt>
      <trkpt lat="50.34294" lon="3.23309">
        <ele>29.5</ele>
        <time>2023-01-22T09:01:42Z</time>
      </trkpt>
      <trkpt lat="50.34295" lon="3.2331">
        <ele>29.5</ele>
        <time>2023-01-22T09:01:43Z</time>
      </trkpt>
      <trkpt lat="50.34295" lon="3.23311">
        <ele>29.5</ele>
        <time>2023-01-22T09:01:44Z</time>
      </trkpt>
      <trkpt lat="50.34295" lon="3.23312">
        <ele>29.5</ele>
        <time>2023-01-22T09:01:45Z</time>
      </trkpt>
      <trkpt lat="50.34296" lon="3.23313">
        <ele>29.5</ele>
        <time>2023-01-22T09:01:46Z</time>
      </trkpt>
      <trkpt lat="50.34297" lon="3.23315">
        <ele>29.5</ele>
        <time>2023-01-22T09:01:47Z</time>
      </trkpt>
      <trkpt lat="50.34297" lon="3.23317">
        <ele>29.4</ele>
        <time>2023-01-22T09:01:48Z</time>
      </trkpt>
      <trkpt lat="50.34298" lon="3.23318">
        <ele>29.4</ele>
        <time>2023-01-22T09:01:49Z</time>
      </trkpt>
      <trkpt lat="50.34298" lon="3.2332">
        <ele>29.3</ele>
        <time>2023-01-22T09:01:50Z</time>
      </trkpt>
      <trkpt lat="50.34299" lon="3.23322">
        <ele>29.3</ele>
        <time>2023-01-22T09:01:51Z</time>
      </trkpt>
      <trkpt lat="50.343" lon="3.23324">
        <ele>29.3</ele>
        <time>2023-01-22T09:01:52Z</time>
      </trkpt>
      <trkpt lat="50.34301" lon="3.23325">
        <ele>29.2</ele>
        <time>2023-01-22T09:01:53Z</time>
      </trkpt>
      <trkpt lat="50.34302" lon="3.23327">
        <ele>29.2</ele>
        <time>2023-01-22T09:01:54Z</time>
      </trkpt>
      <trkpt lat="50.34303" lon="3.23328">
        <ele>22.89665</ele>
        <time>2023-01-22T09:01:55Z</time>
      </trkpt>
      <trkpt lat="50.34303" lon="3.23329">
        <ele>29.1</ele>
        <time>2023-01-22T09:01:56Z</time>
      </trkpt>
      <trkpt lat="50.34303" lon="3.23331">
        <ele>29.1</ele>
        <time>2023-01-22T09:01:57Z</time>
      </trkpt>
      <trkpt lat="50.34304" lon="3.23333">
        <ele>29</ele>
        <time>2023-01-22T09:01:58Z</time>
      </trkpt>
      <trkpt lat="50.34305" lon="3.23335">
        <ele>29</ele>
        <time>2023-01-22T09:01:59Z</time>
        <extensions>
          <gpxtpx:TrackPointExtension xmlns:gpxtpx="http://www.garmin.com/xmlschemas/TrackPointExtension/v1">
            <gpxtpx:hr>133</gpxtpx:hr>
          </gpxtpx:TrackPointExtension>
        </extensions>
      </trkpt>
      <trkpt lat="50.34305" lon="3.23336">
        <ele>23.141407</ele>
        <time>2023-01-22T09:02:00Z</time>
      </trkpt>
      <trkpt lat="50.34306" lon="3.23338">
        <ele>29</ele>
        <time>2023-01-22T09:02:01Z</time>
      </trkpt>
      <trkpt lat="50.34307" lon="3.23339">
        <ele>29</ele>
        <time>2023-01-22T09:02:02Z</time>
      </trkpt>
      <trkpt lat="50.34307" lon="3.2334">
        <ele>29</ele>
        <time>2023-01-22T09:02:03Z</time>
      </trkpt>
      <trkpt lat="50.34308" lon="3.23342">
        <ele>28.9</ele>
        <time>2023-01-22T09:02:04Z</time>
      </trkpt>
      <trkpt lat="50.34309" lon="3.23343">
        <ele>28.9</ele>
        <time>2023-01-22T09:02:05Z</time>
      </trkpt>
      <trkpt lat="50.34309" lon="3.23345">
        <ele>28.9</ele>
        <time>2023-01-22T09:02:06Z</time>
      </trkpt>
      <trkpt lat="50.3431" lon="3.23346">
        <ele>28.9</ele>
        <time>2023-01-22T09:02:07Z</time>
      </trkpt>
      <trkpt lat="50.34311" lon="3.23348">
        <ele>28.9</ele>
        <time>2023-01-22T09:02:08Z</time>
      </trkpt>
      <trkpt lat="50.34312" lon="3.23348">
        <ele>28.9</ele>
        <time>2023-01-22T09:02:09Z</time>
      </trkpt>
      <trkpt lat="50.34312" lon="3.23349">
        <ele>22.971596</ele>
        <time>2023-01-22T09:02:10Z</time>
      </trkpt>
      <trkpt lat="50.34313" lon="3.23351">
        <ele>28.9</ele>
        <time>2023-01-22T09:02:11Z</time>
      </trkpt>
      <trkpt lat="50.34314" lon="3.23352">
        <ele>28.9</ele>
        <time>2023-01-22T09:02:12Z</time>
      </trkpt>
      <trkpt lat="50.34315" lon="3.23352">
        <ele>28.9</ele>
        <time>2023-01-22T09:02:13Z</time>
      </trkpt>
      <trkpt lat="50.34315" lon="3.23353">
        <ele>28.9</ele>
        <time>2023-01-22T09:02:14Z</time>
      </trkpt>
      <trkpt lat="50.34316" lon="3.23355">
        <ele>28.9</ele>
        <time>2023-01-22T09:02:15Z</time>
      </trkpt>
      <trkpt lat="50.34317" lon="3.23355">
        <ele>28.9</ele>
        <time>2023-01-22T09:02:16Z</time>
      </trkpt>
      <trkpt lat="50.34318" lon="3.23355">
        <ele>28.9</ele>
        <time>2023-01-22T09:02:17Z</time>
      </trkpt>
      <trkpt lat="50.34319" lon="3.23355">
        <ele>28.9</ele>
        <time>2023-01-22T09:02:18Z</time>
      </trkpt>
      <trkpt lat="50.34319" lon="3.23354">
        <ele>28.9</ele>
        <time>2023-01-22T09:02:19Z</time>
        <extensions>
          <gpxtpx:TrackPointExtension xmlns:gpxtpx="http://www.garmin.com/xmlschemas/TrackPointExtension/v1">
            <gpxtpx:hr>135</gpxtpx:hr>
          </gpxtpx:TrackPointExtension>
        </extensions>
      </trkpt>
      <trkpt lat="50.34319" lon="3.23353">
        <ele>22.859653</ele>
        <time>2023-01-22T09:02:20Z</time>
      </trkpt>
      <trkpt lat="50.34319" lon="3.23353">
        <ele>28.9</ele>
        <time>2023-01-22T09:02:21Z</time>
      </trkpt>
      <trkpt lat="50.34319" lon="3.23354">
        <ele>28.9</ele>
        <time>2023-01-22T09:02:22Z</time>
      </trkpt>
      <trkpt lat="50.34319" lon="3.23354">
        <ele>28.9</ele>
        <time>2023-01-22T09:02:23Z</time>
      </trkpt>
      <trkpt lat="50.34319" lon="3.23354">
        <ele>28.9</ele>
        <time>2023-01-22T09:02:24Z</time>
      </trkpt>
      <trkpt lat="50.34319" lon="3.23354">
        <ele>28.9</ele>
        <time>2023-01-22T09:02:25Z</time>
      </trkpt>
      <trkpt lat="50.34319" lon="3.23354">
        <ele>28.9</ele>
        <time>2023-01-22T09:02:26Z</time>
      </trkpt>
      <trkpt lat="50.34319" lon="3.23354">
        <ele>28.9</ele>
        <time>2023-01-22T09:02:27Z</time>
      </trkpt>
      <trkpt lat="50.34319" lon="3.23354">
        <ele>28.9</ele>
        <time>2023-01-22T09:02:28Z</time>
      </trkpt>
      <trkpt lat="50.34319" lon="3.23354">
        <ele>28.9</ele>
        <time>2023-01-22T09:02:29Z</time>
      </trkpt>
      <trkpt lat="50.3432" lon="3.23354">
        <ele>23.059822</ele>
        <time>2023-01-22T09:02:30Z</time>
      </trkpt>
      <trkpt lat="50.3432" lon="3.23354">
        <ele>28.9</ele>
        <time>2023-01-22T09:02:31Z</time>
      </trkpt>
      <trkpt lat="50.3432" lon="3.23354">
        <ele>28.9</ele>
        <time>2023-01-22T09:02:32Z</time>
      </trkpt>
      <trkpt lat="50.3432" lon="3.23355">
        <ele>28.9</ele>
        <time>2023-01-22T09:02:33Z</time>
      </trkpt>
      <trkpt lat="50.3432" lon="3.23355">
        <ele>28.9</ele>
        <time>2023-01-22T09:02:34Z</time>
      </trkpt>
      <trkpt lat="50.3432" lon="3.23355">
        <ele>28.9</ele>
        <time>2023-01-22T09:02:35Z</time>
      </trkpt>
      <trkpt lat="50.3432" lon="3.23355">
        <ele>28.9</ele>
        <time>2023-01-22T09:02:36Z</time>
      </trkpt>
      <trkpt lat="50.3432" lon="3.23355">
        <ele>28.9</ele>
        <time>2023-01-22T09:02:37Z</time>
      </trkpt>
      <trkpt lat="50.3432" lon="3.23355">
        <ele>28.9</ele>
        <time>2023-01-22T09:02:38Z</time>
      </trkpt>
      <trkpt lat="50.3432" lon="3.23355">
        <ele>28.9</ele>
        <time>2023-01-22T09:02:39Z</time>
        <extensions>
          <gpxtpx:TrackPointExtension xmlns:gpxtpx="http://www.garmin.com/xmlschemas/TrackPointExtension/v1">
            <gpxtpx:hr>127</gpxtpx:hr>
          </gpxtpx:TrackPointExtension>
        </extensions>
      </trkpt>
      <trkpt lat="50.3432" lon="3.23355">
        <ele>22.977287</ele>
        <time>2023-01-22T09:02:40Z</time>
      </trkpt>
      <trkpt lat="50.3432" lon="3.23355">
        <ele>28.9</ele>
        <time>2023-01-22T09:02:41Z</time>
      </trkpt>
      <trkpt lat="50.34321" lon="3.23355">
        <ele>28.9</ele>
        <time>2023-01-22T09:02:42Z</time>
      </trkpt>
      <trkpt lat="50.34321" lon="3.23355">
        <ele>28.9</ele>
        <time>2023-01-22T09:02:43Z</time>
      </trkpt>
      <trkpt lat="50.34321" lon="3.23355">
        <ele>28.9</ele>
        <time>2023-01-22T09:02:44Z</time>
      </trkpt>
      <trkpt lat="50.34321" lon="3.23355">
        <ele>28.9</ele>
        <time>2023-01-22T09:02:45Z</time>
      </trkpt>
      <trkpt lat="50.34321" lon="3.23355">
        <ele>28.9</ele>
        <time>2023-01-22T09:02:46Z</time>
      </trkpt>
      <trkpt lat="50.34322" lon="3.23356">
        <ele>28.9</ele>
        <time>2023-01-22T09:02:47Z</time>
      </trkpt>
      <trkpt lat="50.34323" lon="3.23357">
        <ele>28.9</ele>
        <time>2023-01-22T09:02:48Z</time>
      </trkpt>
      <trkpt lat="50.34324" lon="3.23358">
        <ele>28.9</ele>
        <time>2023-01-22T09:02:49Z</time>
      </trkpt>
      <trkpt lat="50.34325" lon="3.23358">
        <ele>23.043694</ele>
        <time>2023-01-22T09:02:50Z</time>
      </trkpt>
      <trkpt lat="50.34326" lon="3.23359">
        <ele>28.9</ele>
        <time>2023-01-22T09:02:51Z</time>
      </trkpt>
      <trkpt lat="50.34328" lon="3.23359">
        <ele>28.9</ele>
        <time>2023-01-22T09:02:52Z</time>
      </trkpt>
      <trkpt lat="50.3433" lon="3.23359">
        <ele>28.9</ele>
        <time>2023-01-22T09:02:53Z</time>
      </trkpt>
      <trkpt lat="50.34331" lon="3.23358">
        <ele>28.9</ele>
        <time>2023-01-22T09:02:54Z</time>
      </trkpt>
      <trkpt lat="50.34333" lon="3.23358">
        <ele>28.9</ele>
        <time>2023-01-22T09:02:55Z</time>
      </trkpt>
      <trkpt lat="50.34334" lon="3.23358">
        <ele>28.9</ele>
        <time>2023-01-22T09:02:56Z</time>
      </trkpt>
      <trkpt lat="50.34336" lon="3.23358">
        <ele>29</ele>
        <time>2023-01-22T09:02:57Z</time>
      </trkpt>
      <trkpt lat="50.34337" lon="3.23358">
        <ele>29</ele>
        <time>2023-01-22T09:02:58Z</time>
      </trkpt>
      <trkpt lat="50.34339" lon="3.23359">
        <ele>29.1</ele>
        <time>2023-01-22T09:02:59Z</time>
        <extensions>
          <gpxtpx:TrackPointExtension xmlns:gpxtpx="http://www.garmin.com/xmlschemas/TrackPointExtension/v1">
            <gpxtpx:hr>126</gpxtpx:hr>
          </gpxtpx:TrackPointExtension>
        </extensions>
      </trkpt>
      <trkpt lat="50.34343" lon="3.23358">
        <ele>23.52088</ele>
        <time>2023-01-22T09:03:00Z</time>
      </trkpt>
      <trkpt lat="50.34346" lon="3.23358">
        <ele>29.4</ele>
        <time>2023-01-22T09:03:01Z</time>
      </trkpt>
      <trkpt lat="50.3435" lon="3.23357">
        <ele>29.5</ele>
        <time>2023-01-22T09:03:02Z</time>
      </trkpt>
      <trkpt lat="50.34354" lon="3.23357">
        <ele>29.6</ele>
        <time>2023-01-22T09:03:03Z</time>
      </trkpt>
      <trkpt lat="50.34356" lon="3.23356">
        <ele>29.6</ele>
        <time>2023-01-22T09:03:04Z</time>
      </trkpt>
      <trkpt lat="50.34358" lon="3.23355">
        <ele>29.7</ele>
        <time>2023-01-22T09:03:05Z</time>
      </trkpt>
      <trkpt lat="50.3436" lon="3.23355">
        <ele>29.7</ele>
        <time>2023-01-22T09:03:06Z</time>
      </trkpt>
      <trkpt lat="50.34363" lon="3.23355">
        <ele>29.7</ele>
        <time>2023-01-22T09:03:07Z</time>
      </trkpt>
      <trkpt lat="50.34365" lon="3.23354">
        <ele>29.7</ele>
        <time>2023-01-22T09:03:08Z</time>
      </trkpt>
      <trkpt lat="50.34368" lon="3.23354">
        <ele>29.6</ele>
        <time>2023-01-22T09:03:09Z</time>
      </trkpt>
      <trkpt lat="50.34371" lon="3.23355">
        <ele>24.252335</ele>
        <time>2023-01-22T09:03:10Z</time>
      </trkpt>
      <trkpt lat="50.34372" lon="3.23354">
        <ele>29.5</ele>
        <time>2023-01-22T09:03:11Z</time>
      </trkpt>
      <trkpt lat="50.34374" lon="3.23355">
        <ele>29.5</ele>
        <time>2023-01-22T09:03:12Z</time>
      </trkpt>
      <trkpt lat="50.34375" lon="3.23356">
        <ele>29.5</ele>
        <time>2023-01-22T09:03:13Z</time>
      </trkpt>
      <trkpt lat="50.34378" lon="3.23355">
        <ele>29.4</ele>
        <time>2023-01-22T09:03:14Z</time>
      </trkpt>
      <trkpt lat="50.34381" lon="3.23355">
        <ele>29.4</ele>
        <time>2023-01-22T09:03:15Z</time>
      </trkpt>
      <trkpt lat="50.34382" lon="3.23354">
        <ele>29.4</ele>
        <time>2023-01-22T09:03:16Z</time>
      </trkpt>
      <trkpt lat="50.34383" lon="3.23354">
        <ele>29.4</ele>
        <time>2023-01-22T09:03:17Z</time>
      </trkpt>
      <trkpt lat="50.34384" lon="3.23354">
        <ele>29.3</ele>
        <time>2023-01-22T09:03:18Z</time>
        <extensions>
          <gpxtpx:TrackPointExtension xmlns:gpxtpx="http://www.garmin.com/xmlschemas/TrackPointExtension/v1">
            <gpxtpx:hr>130</gpxtpx:hr>
          </gpxtpx:TrackPointExtension>
        </extensions>
      </trkpt>
      <trkpt lat="50.34385" lon="3.23355">
        <ele>29.3</ele>
        <time>2023-01-22T09:03:19Z</time>
      </trkpt>
      <trkpt lat="50.34386" lon="3.23355">
        <ele>24.525568</ele>
        <time>2023-01-22T09:03:20Z</time>
      </trkpt>
      <trkpt lat="50.34388" lon="3.23356">
        <ele>29.2</ele>
        <time>2023-01-22T09:03:21Z</time>
      </trkpt>
      <trkpt lat="50.34388" lon="3.23356">
        <ele>29.2</ele>
        <time>2023-01-22T09:03:22Z</time>
      </trkpt>
      <trkpt lat="50.34389" lon="3.23356">
        <ele>29.2</ele>
        <time>2023-01-22T09:03:23Z</time>
      </trkpt>
      <trkpt lat="50.3439" lon="3.23357">
        <ele>29.1</ele>
        <time>2023-01-22T09:03:24Z</time>
      </trkpt>
      <trkpt lat="50.3439" lon="3.23357">
        <ele>28.9</ele>
        <time>2023-01-22T09:03:25Z</time>
      </trkpt>
      <trkpt lat="50.34391" lon="3.23357">
        <ele>28.9</ele>
        <time>2023-01-22T09:03:26Z</time>
      </trkpt>
      <trkpt lat="50.34391" lon="3.23357">
        <ele>28.9</ele>
        <time>2023-01-22T09:03:27Z</time>
      </trkpt>
      <trkpt lat="50.34391" lon="3.23356">
        <ele>28.9</ele>
        <time>2023-01-22T09:03:28Z</time>
      </trkpt>
      <trkpt lat="50.34391" lon="3.23356">
        <ele>28.9</ele>
        <time>2023-01-22T09:03:29Z</time>
      </trkpt>
      <trkpt lat="50.34391" lon="3.23354">
        <ele>29</ele>
        <time>2023-01-22T09:03:30Z</time>
      </trkpt>
      <trkpt lat="50.34391" lon="3.23353">
        <ele>29</ele>
        <time>2023-01-22T09:03:31Z</time>
      </trkpt>
      <trkpt lat="50.34391" lon="3.23352">
        <ele>29</ele>
        <time>2023-01-22T09:03:32Z</time>
      </trkpt>
      <trkpt lat="50.34391" lon="3.23351">
        <ele>29.1</ele>
        <time>2023-01-22T09:03:33Z</time>
      </trkpt>
      <trkpt lat="50.34391" lon="3.23351">
        <ele>29.1</ele>
        <time>2023-01-22T09:03:34Z</time>
      </trkpt>
      <trkpt lat="50.34391" lon="3.23351">
        <ele>24.555927</ele>
        <time>2023-01-22T09:03:35Z</time>
      </trkpt>
      <trkpt lat="50.34391" lon="3.23351">
        <ele>29.1</ele>
        <time>2023-01-22T09:03:36Z</time>
      </trkpt>
      <trkpt lat="50.3439" lon="3.23351">
        <ele>29.2</ele>
        <time>2023-01-22T09:03:37Z</time>
      </trkpt>
      <trkpt lat="50.3439" lon="3.23351">
        <ele>29.2</ele>
        <time>2023-01-22T09:03:38Z</time>
        <extensions>
          <gpxtpx:TrackPointExtension xmlns:gpxtpx="http://www.garmin.com/xmlschemas/TrackPointExtension/v1">
            <gpxtpx:hr>123</gpxtpx:hr>
          </gpxtpx:TrackPointExtension>
        </extensions>
      </trkpt>
      <trkpt lat="50.3439" lon="3.23351">
        <ele>29.2</ele>
        <time>2023-01-22T09:03:39Z</time>
      </trkpt>
      <trkpt lat="50.3439" lon="3.23351">
        <ele>24.481926</ele>
        <time>2023-01-22T09:03:40Z</time>
      </trkpt>
      <trkpt lat="50.34389" lon="3.23352">
        <ele>29.3</ele>
        <time>2023-01-22T09:03:41Z</time>
      </trkpt>
      <trkpt lat="50.34389" lon="3.23353">
        <ele>29.3</ele>
        <time>2023-01-22T09:03:42Z</time>
      </trkpt>
      <trkpt lat="50.34389" lon="3.23353">
        <ele>29.3</ele>
        <time>2023-01-22T09:03:43Z</time>
      </trkpt>
      <trkpt lat="50.34389" lon="3.23353">
        <ele>29.3</ele>
        <time>2023-01-22T09:03:44Z</time>
      </trkpt>
      <trkpt lat="50.34388" lon="3.23354">
        <ele>29.3</ele>
        <time>2023-01-22T09:03:45Z</time>
      </trkpt>
      <trkpt lat="50.34388" lon="3.23354">
        <ele>29.3</ele>
        <time>2023-01-22T09:03:46Z</time>
      </trkpt>
      <trkpt lat="50.34388" lon="3.23355">
        <ele>29.2</ele>
        <time>2023-01-22T09:03:47Z</time>
      </trkpt>
      <trkpt lat="50.34388" lon="3.23355">
        <ele>29.2</ele>
        <time>2023-01-22T09:03:48Z</time>
      </trkpt>
      <trkpt lat="50.34388" lon="3.23355">
        <ele>29.3</ele>
        <time>2023-01-22T09:03:49Z</time>
      </trkpt>
      <trkpt lat="50.34388" lon="3.23355">
        <ele>24.436388</ele>
        <time>2023-01-22T09:03:50Z</time>
      </trkpt>
      <trkpt lat="50.34388" lon="3.23355">
        <ele>29.2</ele>
        <time>2023-01-22T09:03:51Z</time>
      </trkpt>
      <trkpt lat="50.34388" lon="3.23355">
        <ele>29.3</ele>
        <time>2023-01-22T09:03:52Z</time>
      </trkpt>
      <trkpt lat="50.34387" lon="3.23355">
        <ele>29.3</ele>
        <time>2023-01-22T09:03:53Z</time>
      </trkpt>
      <trkpt lat="50.34386" lon="3.23356">
        <ele>29.3</ele>
        <time>2023-01-22T09:03:54Z</time>
      </trkpt>
      <trkpt lat="50.34386" lon="3.23356">
        <ele>29.2</ele>
        <time>2023-01-22T09:03:55Z</time>
      </trkpt>
      <trkpt lat="50.34386" lon="3.23356">
        <ele>29.2</ele>
        <time>2023-01-22T09:03:56Z</time>
      </trkpt>
      <trkpt lat="50.34386" lon="3.23356">
        <ele>29.2</ele>
        <time>2023-01-22T09:03:57Z</time>
      </trkpt>
      <trkpt lat="50.34386" lon="3.23356">
        <ele>29.2</ele>
        <time>2023-01-22T09:03:58Z</time>
        <extensions>
          <gpxtpx:TrackPointExtension xmlns:gpxtpx="http://www.garmin.com/xmlschemas/TrackPointExtension/v1">
            <gpxtpx:hr>124</gpxtpx:hr>
          </gpxtpx:TrackPointExtension>
        </extensions>
      </trkpt>
      <trkpt lat="50.34386" lon="3.23356">
        <ele>29.2</ele>
        <time>2023-01-22T09:03:59Z</time>
      </trkpt>
      <trkpt lat="50.34386" lon="3.23356">
        <ele>24.47908</ele>
        <time>2023-01-22T09:04:00Z</time>
      </trkpt>
      <trkpt lat="50.34386" lon="3.23356">
        <ele>29.3</ele>
        <time>2023-01-22T09:04:01Z</time>
      </trkpt>
      <trkpt lat="50.34386" lon="3.23356">
        <ele>29.3</ele>
        <time>2023-01-22T09:04:02Z</time>
      </trkpt>
      <trkpt lat="50.34386" lon="3.23356">
        <ele>29.3</ele>
        <time>2023-01-22T09:04:03Z</time>
      </trkpt>
      <trkpt lat="50.34386" lon="3.23356">
        <ele>29.2</ele>
        <time>2023-01-22T09:04:04Z</time>
      </trkpt>
      <trkpt lat="50.34386" lon="3.23356">
        <ele>29.2</ele>
        <time>2023-01-22T09:04:05Z</time>
      </trkpt>
      <trkpt lat="50.34386" lon="3.23356">
        <ele>29.2</ele>
        <time>2023-01-22T09:04:06Z</time>
      </trkpt>
      <trkpt lat="50.34386" lon="3.23356">
        <ele>29.2</ele>
        <time>2023-01-22T09:04:07Z</time>
      </trkpt>
      <trkpt lat="50.34386" lon="3.23356">
        <ele>29.3</ele>
        <time>2023-01-22T09:04:08Z</time>
      </trkpt>
      <trkpt lat="50.34386" lon="3.23356">
        <ele>29.3</ele>
        <time>2023-01-22T09:04:09Z</time>
      </trkpt>
      <trkpt lat="50.34386" lon="3.23356">
        <ele>24.453465</ele>
        <time>2023-01-22T09:04:10Z</time>
      </trkpt>
      <trkpt lat="50.34386" lon="3.23356">
        <ele>29.3</ele>
        <time>2023-01-22T09:04:11Z</time>
      </trkpt>
      <trkpt lat="50.34386" lon="3.23356">
        <ele>29.3</ele>
        <time>2023-01-22T09:04:12Z</time>
      </trkpt>
      <trkpt lat="50.34386" lon="3.23356">
        <ele>29.3</ele>
        <time>2023-01-22T09:04:13Z</time>
      </trkpt>
      <trkpt lat="50.34386" lon="3.23356">
        <ele>29.3</ele>
        <time>2023-01-22T09:04:14Z</time>
      </trkpt>
      <trkpt lat="50.34386" lon="3.23356">
        <ele>29.3</ele>
        <time>2023-01-22T09:04:15Z</time>
      </trkpt>
      <trkpt lat="50.34385" lon="3.23356">
        <ele>29.3</ele>
        <time>2023-01-22T09:04:16Z</time>
      </trkpt>
      <trkpt lat="50.34385" lon="3.23355">
        <ele>29.3</ele>
        <time>2023-01-22T09:04:17Z</time>
      </trkpt>
      <trkpt lat="50.34385" lon="3.23355">
        <ele>29.3</ele>
        <time>2023-01-22T09:04:18Z</time>
      </trkpt>
      <trkpt lat="50.34385" lon="3.23355">
        <ele>29.3</ele>
        <time>2023-01-22T09:04:19Z</time>
      </trkpt>
      <trkpt lat="50.34385" lon="3.23356">
        <ele>24.52367</ele>
        <time>2023-01-22T09:04:20Z</time>
      </trkpt>
      <trkpt lat="50.34384" lon="3.23357">
        <ele>29.3</ele>
        <time>2023-01-22T09:04:21Z</time>
      </trkpt>
      <trkpt lat="50.34383" lon="3.23358">
        <ele>29.3</ele>
        <time>2023-01-22T09:04:22Z</time>
      </trkpt>
      <trkpt lat="50.34383" lon="3.23358">
        <ele>29.3</ele>
        <time>2023-01-22T09:04:23Z</time>
      </trkpt>
      <trkpt lat="50.34383" lon="3.23359">
        <ele>29.3</ele>
        <time>2023-01-22T09:04:24Z</time>
      </trkpt>
      <trkpt lat="50.34383" lon="3.23359">
        <ele>29.3</ele>
        <time>2023-01-22T09:04:25Z</time>
      </trkpt>
      <trkpt lat="50.34383" lon="3.23359">
        <ele>29.3</ele>
        <time>2023-01-22T09:04:26Z</time>
      </trkpt>
      <trkpt lat="50.34383" lon="3.23359">
        <ele>29.3</ele>
        <time>2023-01-22T09:04:27Z</time>
      </trkpt>
      <trkpt lat="50.34383" lon="3.23359">
        <ele>29.3</ele>
        <time>2023-01-22T09:04:28Z</time>
      </trkpt>
      <trkpt lat="50.34382" lon="3.2336">
        <ele>29.3</ele>
        <time>2023-01-22T09:04:29Z</time>
      </trkpt>
      <trkpt lat="50.34382" lon="3.2336">
        <ele>24.571108</ele>
        <time>2023-01-22T09:04:30Z</time>
      </trkpt>
      <trkpt lat="50.34381" lon="3.23361">
        <ele>29.3</ele>
        <time>2023-01-22T09:04:31Z</time>
      </trkpt>
      <trkpt lat="50.3438" lon="3.23361">
        <ele>29.3</ele>
        <time>2023-01-22T09:04:32Z</time>
      </trkpt>
      <trkpt lat="50.3438" lon="3.23362">
        <ele>29.3</ele>
        <time>2023-01-22T09:04:33Z</time>
      </trkpt>
      <trkpt lat="50.34379" lon="3.23362">
        <ele>29.4</ele>
        <time>2023-01-22T09:04:34Z</time>
      </trkpt>
      <trkpt lat="50.34379" lon="3.23364">
        <ele>29.5</ele>
        <time>2023-01-22T09:04:35Z</time>
      </trkpt>
      <trkpt lat="50.34378" lon="3.23365">
        <ele>29.6</ele>
        <time>2023-01-22T09:04:36Z</time>
      </trkpt>
      <trkpt lat="50.34377" lon="3.23365">
        <ele>29.6</ele>
        <time>2023-01-22T09:04:37Z</time>
      </trkpt>
      <trkpt lat="50.34376" lon="3.23365">
        <ele>29.7</ele>
        <time>2023-01-22T09:04:38Z</time>
      </trkpt>
      <trkpt lat="50.34375" lon="3.23365">
        <ele>29.7</ele>
        <time>2023-01-22T09:04:39Z</time>
      </trkpt>
      <trkpt lat="50.34373" lon="3.23366">
        <ele>24.12141</ele>
        <time>2023-01-22T09:04:40Z</time>
      </trkpt>
      <trkpt lat="50.34372" lon="3.23367">
        <ele>30</ele>
        <time>2023-01-22T09:04:41Z</time>
      </trkpt>
      <trkpt lat="50.34371" lon="3.23369">
        <ele>30.1</ele>
        <time>2023-01-22T09:04:42Z</time>
      </trkpt>
      <trkpt lat="50.3437" lon="3.2337">
        <ele>30.2</ele>
        <time>2023-01-22T09:04:43Z</time>
      </trkpt>
      <trkpt lat="50.3437" lon="3.2337">
        <ele>30.2</ele>
        <time>2023-01-22T09:04:44Z</time>
      </trkpt>
      <trkpt lat="50.3437" lon="3.2337">
        <ele>30.2</ele>
        <time>2023-01-22T09:04:45Z</time>
      </trkpt>
      <trkpt lat="50.3437" lon="3.23369">
        <ele>30.2</ele>
        <time>2023-01-22T09:04:46Z</time>
      </trkpt>
      <trkpt lat="50.3437" lon="3.23369">
        <ele>30.2</ele>
        <time>2023-01-22T09:04:47Z</time>
      </trkpt>
      <trkpt lat="50.3437" lon="3.23369">
        <ele>30.1</ele>
        <time>2023-01-22T09:04:48Z</time>
      </trkpt>
      <trkpt lat="50.3437" lon="3.23369">
        <ele>30.1</ele>
        <time>2023-01-22T09:04:49Z</time>
      </trkpt>
      <trkpt lat="50.3437" lon="3.23369">
        <ele>23.76944</ele>
        <time>2023-01-22T09:04:50Z</time>
      </trkpt>
      <trkpt lat="50.3437" lon="3.23369">
        <ele>30.2</ele>
        <time>2023-01-22T09:04:51Z</time>
        <extensions>
          <gpxtpx:TrackPointExtension xmlns:gpxtpx="http://www.garmin.com/xmlschemas/TrackPointExtension/v1">
            <gpxtpx:hr>132</gpxtpx:hr>
          </gpxtpx:TrackPointExtension>
        </extensions>
      </trkpt>
      <trkpt lat="50.3437" lon="3.23369">
        <ele>30.2</ele>
        <time>2023-01-22T09:04:52Z</time>
      </trkpt>
      <trkpt lat="50.3437" lon="3.23369">
        <ele>30.2</ele>
        <time>2023-01-22T09:04:53Z</time>
      </trkpt>
      <trkpt lat="50.3437" lon="3.23369">
        <ele>30.2</ele>
        <time>2023-01-22T09:04:54Z</time>
      </trkpt>
      <trkpt lat="50.34369" lon="3.23369">
        <ele>30.2</ele>
        <time>2023-01-22T09:04:55Z</time>
      </trkpt>
      <trkpt lat="50.34369" lon="3.23369">
        <ele>30.2</ele>
        <time>2023-01-22T09:04:56Z</time>
      </trkpt>
      <trkpt lat="50.34369" lon="3.23369">
        <ele>30.2</ele>
        <time>2023-01-22T09:04:57Z</time>
      </trkpt>
      <trkpt lat="50.34369" lon="3.23369">
        <ele>30.2</ele>
        <time>2023-01-22T09:04:58Z</time>
      </trkpt>
      <trkpt lat="50.34368" lon="3.23369">
        <ele>30.2</ele>
        <time>2023-01-22T09:04:59Z</time>
        <extensions>
          <gpxtpx:TrackPointExtension xmlns:gpxtpx="http://www.garmin.com/xmlschemas/TrackPointExtension/v1">
            <gpxtpx:hr>122</gpxtpx:hr>
          </gpxtpx:TrackPointExtension>
        </extensions>
      </trkpt>
      <trkpt lat="50.34368" lon="3.23369">
        <ele>23.341578</ele>
        <time>2023-01-22T09:05:00Z</time>
      </trkpt>
      <trkpt lat="50.34367" lon="3.23369">
        <ele>30.3</ele>
        <time>2023-01-22T09:05:01Z</time>
      </trkpt>
      <trkpt lat="50.34366" lon="3.2337">
        <ele>30.4</ele>
        <time>2023-01-22T09:05:02Z</time>
      </trkpt>
      <trkpt lat="50.34364" lon="3.23371">
        <ele>30.5</ele>
        <time>2023-01-22T09:05:03Z</time>
      </trkpt>
      <trkpt lat="50.34364" lon="3.23371">
        <ele>30.6</ele>
        <time>2023-01-22T09:05:04Z</time>
      </trkpt>
      <trkpt lat="50.34363" lon="3.2337">
        <ele>30.6</ele>
        <time>2023-01-22T09:05:05Z</time>
      </trkpt>
      <trkpt lat="50.34361" lon="3.23371">
        <ele>30.7</ele>
        <time>2023-01-22T09:05:06Z</time>
      </trkpt>
      <trkpt lat="50.3436" lon="3.2337">
        <ele>30.6</ele>
        <time>2023-01-22T09:05:07Z</time>
      </trkpt>
      <trkpt lat="50.34358" lon="3.2337">
        <ele>30.6</ele>
        <time>2023-01-22T09:05:08Z</time>
      </trkpt>
      <trkpt lat="50.34356" lon="3.2337">
        <ele>30.5</ele>
        <time>2023-01-22T09:05:09Z</time>
      </trkpt>
      <trkpt lat="50.34354" lon="3.2337">
        <ele>30.4</ele>
        <time>2023-01-22T09:05:10Z</time>
      </trkpt>
      <trkpt lat="50.34352" lon="3.2337">
        <ele>30.3</ele>
        <time>2023-01-22T09:05:11Z</time>
      </trkpt>
      <trkpt lat="50.34349" lon="3.2337">
        <ele>30.2</ele>
        <time>2023-01-22T09:05:12Z</time>
      </trkpt>
      <trkpt lat="50.34348" lon="3.23369">
        <ele>30.1</ele>
        <time>2023-01-22T09:05:13Z</time>
      </trkpt>
      <trkpt lat="50.34346" lon="3.23369">
        <ele>30</ele>
        <time>2023-01-22T09:05:14Z</time>
      </trkpt>
      <trkpt lat="50.34344" lon="3.2337">
        <ele>22.87578</ele>
        <time>2023-01-22T09:05:15Z</time>
      </trkpt>
      <trkpt lat="50.34342" lon="3.2337">
        <ele>30</ele>
        <time>2023-01-22T09:05:16Z</time>
      </trkpt>
      <trkpt lat="50.34341" lon="3.2337">
        <ele>29.9</ele>
        <time>2023-01-22T09:05:17Z</time>
      </trkpt>
      <trkpt lat="50.3434" lon="3.23371">
        <ele>29.9</ele>
        <time>2023-01-22T09:05:18Z</time>
      </trkpt>
      <trkpt lat="50.34338" lon="3.23371">
        <ele>29.9</ele>
        <time>2023-01-22T09:05:19Z</time>
        <extensions>
          <gpxtpx:TrackPointExtension xmlns:gpxtpx="http://www.garmin.com/xmlschemas/TrackPointExtension/v1">
            <gpxtpx:hr>118</gpxtpx:hr>
          </gpxtpx:TrackPointExtension>
        </extensions>
      </trkpt>
      <trkpt lat="50.34337" lon="3.23371">
        <ele>22.822655</ele>
        <time>2023-01-22T09:05:20Z</time>
      </trkpt>
      <trkpt lat="50.34335" lon="3.23371">
        <ele>29.8</ele>
        <time>2023-01-22T09:05:21Z</time>
      </trkpt>
      <trkpt lat="50.34334" lon="3.2337">
        <ele>29.7</ele>
        <time>2023-01-22T09:05:22Z</time>
      </trkpt>
      <trkpt lat="50.34332" lon="3.23368">
        <ele>29.5</ele>
        <time>2023-01-22T09:05:23Z</time>
      </trkpt>
      <trkpt lat="50.34331" lon="3.23367">
        <ele>29.4</ele>
        <time>2023-01-22T09:05:24Z</time>
      </trkpt>
      <trkpt lat="50.3433" lon="3.23366">
        <ele>29.4</ele>
        <time>2023-01-22T09:05:25Z</time>
      </trkpt>
      <trkpt lat="50.34329" lon="3.23366">
        <ele>29.3</ele>
        <time>2023-01-22T09:05:26Z</time>
      </trkpt>
      <trkpt lat="50.34328" lon="3.23366">
        <ele>29.3</ele>
        <time>2023-01-22T09:05:27Z</time>
      </trkpt>
      <trkpt lat="50.34328" lon="3.23366">
        <ele>29.3</ele>
        <time>2023-01-22T09:05:28Z</time>
      </trkpt>
      <trkpt lat="50.34328" lon="3.23366">
        <ele>29.3</ele>
        <time>2023-01-22T09:05:29Z</time>
      </trkpt>
      <trkpt lat="50.34328" lon="3.23366">
        <ele>22.506754</ele>
        <time>2023-01-22T09:05:30Z</time>
      </trkpt>
      <trkpt lat="50.34328" lon="3.23367">
        <ele>29.4</ele>
        <time>2023-01-22T09:05:31Z</time>
      </trkpt>
      <trkpt lat="50.34328" lon="3.23367">
        <ele>29.4</ele>
        <time>2023-01-22T09:05:32Z</time>
      </trkpt>
      <trkpt lat="50.34328" lon="3.23368">
        <ele>29.4</ele>
        <time>2023-01-22T09:05:33Z</time>
      </trkpt>
      <trkpt lat="50.34328" lon="3.23369">
        <ele>29.5</ele>
        <time>2023-01-22T09:05:34Z</time>
      </trkpt>
      <trkpt lat="50.34327" lon="3.23369">
        <ele>29.5</ele>
        <time>2023-01-22T09:05:35Z</time>
      </trkpt>
      <trkpt lat="50.34327" lon="3.23369">
        <ele>29.5</ele>
        <time>2023-01-22T09:05:36Z</time>
      </trkpt>
      <trkpt lat="50.34327" lon="3.23369">
        <ele>29.5</ele>
        <time>2023-01-22T09:05:37Z</time>
      </trkpt>
      <trkpt lat="50.34326" lon="3.2337">
        <ele>29.6</ele>
        <time>2023-01-22T09:05:38Z</time>
      </trkpt>
      <trkpt lat="50.34326" lon="3.23371">
        <ele>29.6</ele>
        <time>2023-01-22T09:05:39Z</time>
        <extensions>
          <gpxtpx:TrackPointExtension xmlns:gpxtpx="http://www.garmin.com/xmlschemas/TrackPointExtension/v1">
            <gpxtpx:hr>123</gpxtpx:hr>
          </gpxtpx:TrackPointExtension>
        </extensions>
      </trkpt>
      <trkpt lat="50.34325" lon="3.23372">
        <ele>20.904552</ele>
        <time>2023-01-22T09:05:40Z</time>
      </trkpt>
      <trkpt lat="50.34324" lon="3.23374">
        <ele>29.8</ele>
        <time>2023-01-22T09:05:41Z</time>
      </trkpt>
      <trkpt lat="50.34323" lon="3.23375">
        <ele>29.8</ele>
        <time>2023-01-22T09:05:42Z</time>
      </trkpt>
      <trkpt lat="50.34322" lon="3.23376">
        <ele>29.8</ele>
        <time>2023-01-22T09:05:43Z</time>
      </trkpt>
      <trkpt lat="50.34321" lon="3.23376">
        <ele>29.8</ele>
        <time>2023-01-22T09:05:44Z</time>
      </trkpt>
      <trkpt lat="50.3432" lon="3.23376">
        <ele>29.8</ele>
        <time>2023-01-22T09:05:45Z</time>
      </trkpt>
      <trkpt lat="50.3432" lon="3.23377">
        <ele>29.9</ele>
        <time>2023-01-22T09:05:46Z</time>
      </trkpt>
      <trkpt lat="50.34319" lon="3.23379">
        <ele>30</ele>
        <time>2023-01-22T09:05:47Z</time>
      </trkpt>
      <trkpt lat="50.34319" lon="3.23381">
        <ele>30</ele>
        <time>2023-01-22T09:05:48Z</time>
      </trkpt>
      <trkpt lat="50.34317" lon="3.23385">
        <ele>30.2</ele>
        <time>2023-01-22T09:05:49Z</time>
      </trkpt>
      <trkpt lat="50.34315" lon="3.23388">
        <ele>20.851433</ele>
        <time>2023-01-22T09:05:50Z</time>
      </trkpt>
      <trkpt lat="50.34314" lon="3.2339">
        <ele>30.3</ele>
        <time>2023-01-22T09:05:51Z</time>
      </trkpt>
      <trkpt lat="50.34314" lon="3.23392">
        <ele>30.3</ele>
        <time>2023-01-22T09:05:52Z</time>
      </trkpt>
      <trkpt lat="50.34313" lon="3.23394">
        <ele>30.3</ele>
        <time>2023-01-22T09:05:53Z</time>
      </trkpt>
      <trkpt lat="50.34313" lon="3.23396">
        <ele>30.3</ele>
        <time>2023-01-22T09:05:54Z</time>
      </trkpt>
      <trkpt lat="50.34313" lon="3.23398">
        <ele>30.4</ele>
        <time>2023-01-22T09:05:55Z</time>
      </trkpt>
      <trkpt lat="50.34312" lon="3.23401">
        <ele>30.3</ele>
        <time>2023-01-22T09:05:56Z</time>
      </trkpt>
      <trkpt lat="50.34312" lon="3.23402">
        <ele>30.3</ele>
        <time>2023-01-22T09:05:57Z</time>
      </trkpt>
      <trkpt lat="50.34312" lon="3.23404">
        <ele>30.3</ele>
        <time>2023-01-22T09:05:58Z</time>
      </trkpt>
      <trkpt lat="50.34311" lon="3.23406">
        <ele>30.3</ele>
        <time>2023-01-22T09:05:59Z</time>
        <extensions>
          <gpxtpx:TrackPointExtension xmlns:gpxtpx="http://www.garmin.com/xmlschemas/TrackPointExtension/v1">
            <gpxtpx:hr>131</gpxtpx:hr>
          </gpxtpx:TrackPointExtension>
        </extensions>
      </trkpt>
      <trkpt lat="50.34311" lon="3.23408">
        <ele>21.225172</ele>
        <time>2023-01-22T09:06:00Z</time>
      </trkpt>
      <trkpt lat="50.3431" lon="3.23411">
        <ele>30.3</ele>
        <time>2023-01-22T09:06:01Z</time>
      </trkpt>
      <trkpt lat="50.34309" lon="3.23415">
        <ele>30.3</ele>
        <time>2023-01-22T09:06:02Z</time>
      </trkpt>
      <trkpt lat="50.34309" lon="3.23418">
        <ele>30.3</ele>
        <time>2023-01-22T09:06:03Z</time>
      </trkpt>
      <trkpt lat="50.34309" lon="3.2342">
        <ele>30.3</ele>
        <time>2023-01-22T09:06:04Z</time>
      </trkpt>
      <trkpt lat="50.34308" lon="3.23422">
        <ele>30.4</ele>
        <time>2023-01-22T09:06:05Z</time>
      </trkpt>
      <trkpt lat="50.34308" lon="3.23425">
        <ele>30.5</ele>
        <time>2023-01-22T09:06:06Z</time>
      </trkpt>
      <trkpt lat="50.34308" lon="3.23426">
        <ele>30.5</ele>
        <time>2023-01-22T09:06:07Z</time>
      </trkpt>
      <trkpt lat="50.34308" lon="3.23428">
        <ele>30.5</ele>
        <time>2023-01-22T09:06:08Z</time>
      </trkpt>
      <trkpt lat="50.34308" lon="3.2343">
        <ele>30.6</ele>
        <time>2023-01-22T09:06:09Z</time>
      </trkpt>
      <trkpt lat="50.34308" lon="3.23431">
        <ele>21.997337</ele>
        <time>2023-01-22T09:06:10Z</time>
      </trkpt>
      <trkpt lat="50.34308" lon="3.23433">
        <ele>30.8</ele>
        <time>2023-01-22T09:06:11Z</time>
      </trkpt>
      <trkpt lat="50.34308" lon="3.23434">
        <ele>30.8</ele>
        <time>2023-01-22T09:06:12Z</time>
      </trkpt>
      <trkpt lat="50.34308" lon="3.23435">
        <ele>30.8</ele>
        <time>2023-01-22T09:06:13Z</time>
      </trkpt>
      <trkpt lat="50.34309" lon="3.23435">
        <ele>30.9</ele>
        <time>2023-01-22T09:06:14Z</time>
      </trkpt>
      <trkpt lat="50.3431" lon="3.23435">
        <ele>31</ele>
        <time>2023-01-22T09:06:15Z</time>
      </trkpt>
      <trkpt lat="50.3431" lon="3.23436">
        <ele>31</ele>
        <time>2023-01-22T09:06:16Z</time>
      </trkpt>
      <trkpt lat="50.3431" lon="3.23436">
        <ele>31</ele>
        <time>2023-01-22T09:06:17Z</time>
      </trkpt>
      <trkpt lat="50.3431" lon="3.23436">
        <ele>31</ele>
        <time>2023-01-22T09:06:18Z</time>
      </trkpt>
      <trkpt lat="50.34311" lon="3.23436">
        <ele>31.1</ele>
        <time>2023-01-22T09:06:19Z</time>
        <extensions>
          <gpxtpx:TrackPointExtension xmlns:gpxtpx="http://www.garmin.com/xmlschemas/TrackPointExtension/v1">
            <gpxtpx:hr>137</gpxtpx:hr>
          </gpxtpx:TrackPointExtension>
        </extensions>
      </trkpt>
      <trkpt lat="50.34311" lon="3.23436">
        <ele>23.685953</ele>
        <time>2023-01-22T09:06:20Z</time>
      </trkpt>
      <trkpt lat="50.34311" lon="3.23436">
        <ele>31.1</ele>
        <time>2023-01-22T09:06:21Z</time>
      </trkpt>
      <trkpt lat="50.34311" lon="3.23436">
        <ele>31.1</ele>
        <time>2023-01-22T09:06:22Z</time>
      </trkpt>
      <trkpt lat="50.34311" lon="3.23437">
        <ele>31.1</ele>
        <time>2023-01-22T09:06:23Z</time>
      </trkpt>
      <trkpt lat="50.34311" lon="3.23437">
        <ele>31.1</ele>
        <time>2023-01-22T09:06:24Z</time>
      </trkpt>
      <trkpt lat="50.34311" lon="3.23437">
        <ele>31.1</ele>
        <time>2023-01-22T09:06:25Z</time>
      </trkpt>
      <trkpt lat="50.34311" lon="3.23437">
        <ele>31.1</ele>
        <time>2023-01-22T09:06:26Z</time>
      </trkpt>
      <trkpt lat="50.34311" lon="3.23437">
        <ele>31.1</ele>
        <time>2023-01-22T09:06:27Z</time>
      </trkpt>
      <trkpt lat="50.34311" lon="3.23438">
        <ele>31.2</ele>
        <time>2023-01-22T09:06:28Z</time>
      </trkpt>
      <trkpt lat="50.34312" lon="3.23438">
        <ele>31.2</ele>
        <time>2023-01-22T09:06:29Z</time>
      </trkpt>
      <trkpt lat="50.34312" lon="3.23439">
        <ele>25.949669</ele>
        <time>2023-01-22T09:06:30Z</time>
      </trkpt>
      <trkpt lat="50.34314" lon="3.23441">
        <ele>31.4</ele>
        <time>2023-01-22T09:06:31Z</time>
      </trkpt>
      <trkpt lat="50.34315" lon="3.23443">
        <ele>31.6</ele>
        <time>2023-01-22T09:06:32Z</time>
      </trkpt>
      <trkpt lat="50.34316" lon="3.23446">
        <ele>31.8</ele>
        <time>2023-01-22T09:06:33Z</time>
      </trkpt>
      <trkpt lat="50.34317" lon="3.23448">
        <ele>31.9</ele>
        <time>2023-01-22T09:06:34Z</time>
      </trkpt>
      <trkpt lat="50.34319" lon="3.23449">
        <ele>31.9</ele>
        <time>2023-01-22T09:06:35Z</time>
      </trkpt>
      <trkpt lat="50.34319" lon="3.2345">
        <ele>32</ele>
        <time>2023-01-22T09:06:36Z</time>
      </trkpt>
      <trkpt lat="50.34319" lon="3.2345">
        <ele>32</ele>
        <time>2023-01-22T09:06:37Z</time>
      </trkpt>
      <trkpt lat="50.3432" lon="3.2345">
        <ele>32.1</ele>
        <time>2023-01-22T09:06:38Z</time>
      </trkpt>
      <trkpt lat="50.34321" lon="3.23451">
        <ele>32.1</ele>
        <time>2023-01-22T09:06:39Z</time>
      </trkpt>
      <trkpt lat="50.34322" lon="3.23452">
        <ele>27.739183</ele>
        <time>2023-01-22T09:06:40Z</time>
      </trkpt>
      <trkpt lat="50.34324" lon="3.23454">
        <ele>32.3</ele>
        <time>2023-01-22T09:06:41Z</time>
      </trkpt>
      <trkpt lat="50.34325" lon="3.23455">
        <ele>32.4</ele>
        <time>2023-01-22T09:06:42Z</time>
      </trkpt>
      <trkpt lat="50.34326" lon="3.23457">
        <ele>32.5</ele>
        <time>2023-01-22T09:06:43Z</time>
      </trkpt>
      <trkpt lat="50.34328" lon="3.23459">
        <ele>32.6</ele>
        <time>2023-01-22T09:06:44Z</time>
      </trkpt>
      <trkpt lat="50.34329" lon="3.23462">
        <ele>32.7</ele>
        <time>2023-01-22T09:06:45Z</time>
      </trkpt>
      <trkpt lat="50.3433" lon="3.23464">
        <ele>32.8</ele>
        <time>2023-01-22T09:06:46Z</time>
      </trkpt>
      <trkpt lat="50.34332" lon="3.23465">
        <ele>32.9</ele>
        <time>2023-01-22T09:06:47Z</time>
      </trkpt>
      <trkpt lat="50.34333" lon="3.23465">
        <ele>33</ele>
        <time>2023-01-22T09:06:48Z</time>
      </trkpt>
      <trkpt lat="50.34334" lon="3.23465">
        <ele>33</ele>
        <time>2023-01-22T09:06:49Z</time>
      </trkpt>
      <trkpt lat="50.34335" lon="3.23466">
        <ele>33.1</ele>
        <time>2023-01-22T09:06:50Z</time>
      </trkpt>
      <trkpt lat="50.34337" lon="3.23466">
        <ele>33.2</ele>
        <time>2023-01-22T09:06:51Z</time>
      </trkpt>
      <trkpt lat="50.34338" lon="3.23467">
        <ele>33.3</ele>
        <time>2023-01-22T09:06:52Z</time>
      </trkpt>
      <trkpt lat="50.34339" lon="3.23468">
        <ele>33.4</ele>
        <time>2023-01-22T09:06:53Z</time>
      </trkpt>
      <trkpt lat="50.3434" lon="3.23469">
        <ele>33.4</ele>
        <time>2023-01-22T09:06:54Z</time>
      </trkpt>
      <trkpt lat="50.34341" lon="3.23469">
        <ele>28.806702</ele>
        <time>2023-01-22T09:06:55Z</time>
      </trkpt>
      <trkpt lat="50.34343" lon="3.2347">
        <ele>33.7</ele>
        <time>2023-01-22T09:06:56Z</time>
      </trkpt>
      <trkpt lat="50.34346" lon="3.2347">
        <ele>33.9</ele>
        <time>2023-01-22T09:06:57Z</time>
      </trkpt>
      <trkpt lat="50.34349" lon="3.2347">
        <ele>34.1</ele>
        <time>2023-01-22T09:06:58Z</time>
      </trkpt>
      <trkpt lat="50.34351" lon="3.23471">
        <ele>34.3</ele>
        <time>2023-01-22T09:06:59Z</time>
      </trkpt>
      <trkpt lat="50.34353" lon="3.23471">
        <ele>28.643486</ele>
        <time>2023-01-22T09:07:00Z</time>
      </trkpt>
      <trkpt lat="50.34356" lon="3.23471">
        <ele>34.5</ele>
        <time>2023-01-22T09:07:01Z</time>
      </trkpt>
      <trkpt lat="50.34358" lon="3.23471">
        <ele>34.8</ele>
        <time>2023-01-22T09:07:02Z</time>
      </trkpt>
      <trkpt lat="50.34362" lon="3.23471">
        <ele>35</ele>
        <time>2023-01-22T09:07:03Z</time>
      </trkpt>
      <trkpt lat="50.34364" lon="3.23473">
        <ele>35</ele>
        <time>2023-01-22T09:07:04Z</time>
      </trkpt>
      <trkpt lat="50.34366" lon="3.23474">
        <ele>35</ele>
        <time>2023-01-22T09:07:05Z</time>
      </trkpt>
      <trkpt lat="50.34368" lon="3.23474">
        <ele>34.9</ele>
        <time>2023-01-22T09:07:06Z</time>
      </trkpt>
      <trkpt lat="50.3437" lon="3.23475">
        <ele>34.9</ele>
        <time>2023-01-22T09:07:07Z</time>
      </trkpt>
      <trkpt lat="50.34372" lon="3.23476">
        <ele>34.9</ele>
        <time>2023-01-22T09:07:08Z</time>
      </trkpt>
      <trkpt lat="50.34374" lon="3.23477">
        <ele>34.8</ele>
        <time>2023-01-22T09:07:09Z</time>
      </trkpt>
      <trkpt lat="50.34376" lon="3.23478">
        <ele>28.28195</ele>
        <time>2023-01-22T09:07:10Z</time>
      </trkpt>
      <trkpt lat="50.34378" lon="3.23478">
        <ele>34.8</ele>
        <time>2023-01-22T09:07:11Z</time>
      </trkpt>
      <trkpt lat="50.3438" lon="3.23479">
        <ele>34.8</ele>
        <time>2023-01-22T09:07:12Z</time>
      </trkpt>
      <trkpt lat="50.34381" lon="3.23479">
        <ele>34.8</ele>
        <time>2023-01-22T09:07:13Z</time>
      </trkpt>
      <trkpt lat="50.34382" lon="3.23479">
        <ele>34.8</ele>
        <time>2023-01-22T09:07:14Z</time>
      </trkpt>
      <trkpt lat="50.34383" lon="3.23479">
        <ele>34.7</ele>
        <time>2023-01-22T09:07:15Z</time>
      </trkpt>
      <trkpt lat="50.34385" lon="3.2348">
        <ele>34.7</ele>
        <time>2023-01-22T09:07:16Z</time>
      </trkpt>
      <trkpt lat="50.34386" lon="3.23481">
        <ele>34.7</ele>
        <time>2023-01-22T09:07:17Z</time>
      </trkpt>
      <trkpt lat="50.34388" lon="3.23481">
        <ele>34.7</ele>
        <time>2023-01-22T09:07:18Z</time>
      </trkpt>
      <trkpt lat="50.34388" lon="3.23481">
        <ele>34.7</ele>
        <time>2023-01-22T09:07:19Z</time>
      </trkpt>
      <trkpt lat="50.3439" lon="3.23482">
        <ele>27.297009</ele>
        <time>2023-01-22T09:07:20Z</time>
      </trkpt>
      <trkpt lat="50.34391" lon="3.23484">
        <ele>34.7</ele>
        <time>2023-01-22T09:07:21Z</time>
      </trkpt>
      <trkpt lat="50.34391" lon="3.23484">
        <ele>34.7</ele>
        <time>2023-01-22T09:07:22Z</time>
      </trkpt>
      <trkpt lat="50.34393" lon="3.23486">
        <ele>34.7</ele>
        <time>2023-01-22T09:07:23Z</time>
      </trkpt>
      <trkpt lat="50.34395" lon="3.23488">
        <ele>34.6</ele>
        <time>2023-01-22T09:07:24Z</time>
      </trkpt>
      <trkpt lat="50.34396" lon="3.2349">
        <ele>34.6</ele>
        <time>2023-01-22T09:07:25Z</time>
      </trkpt>
      <trkpt lat="50.34397" lon="3.23492">
        <ele>34.6</ele>
        <time>2023-01-22T09:07:26Z</time>
      </trkpt>
      <trkpt lat="50.34398" lon="3.23494">
        <ele>34.5</ele>
        <time>2023-01-22T09:07:27Z</time>
      </trkpt>
      <trkpt lat="50.34399" lon="3.23496">
        <ele>34.5</ele>
        <time>2023-01-22T09:07:28Z</time>
      </trkpt>
      <trkpt lat="50.344" lon="3.23498">
        <ele>34.5</ele>
        <time>2023-01-22T09:07:29Z</time>
      </trkpt>
      <trkpt lat="50.344" lon="3.23499">
        <ele>25.912666</ele>
        <time>2023-01-22T09:07:30Z</time>
      </trkpt>
      <trkpt lat="50.344" lon="3.23501">
        <ele>34.4</ele>
        <time>2023-01-22T09:07:31Z</time>
      </trkpt>
      <trkpt lat="50.34401" lon="3.23504">
        <ele>34.3</ele>
        <time>2023-01-22T09:07:32Z</time>
      </trkpt>
      <trkpt lat="50.34401" lon="3.23505">
        <ele>34.2</ele>
        <time>2023-01-22T09:07:33Z</time>
      </trkpt>
      <trkpt lat="50.344" lon="3.23507">
        <ele>34.2</ele>
        <time>2023-01-22T09:07:34Z</time>
      </trkpt>
      <trkpt lat="50.34401" lon="3.23509">
        <ele>34.1</ele>
        <time>2023-01-22T09:07:35Z</time>
      </trkpt>
      <trkpt lat="50.34401" lon="3.2351">
        <ele>34.1</ele>
        <time>2023-01-22T09:07:36Z</time>
      </trkpt>
      <trkpt lat="50.34401" lon="3.23512">
        <ele>34</ele>
        <time>2023-01-22T09:07:37Z</time>
      </trkpt>
      <trkpt lat="50.34402" lon="3.23514">
        <ele>34</ele>
        <time>2023-01-22T09:07:38Z</time>
      </trkpt>
      <trkpt lat="50.34402" lon="3.23516">
        <ele>33.9</ele>
        <time>2023-01-22T09:07:39Z</time>
      </trkpt>
      <trkpt lat="50.34403" lon="3.23517">
        <ele>24.435438</ele>
        <time>2023-01-22T09:07:40Z</time>
      </trkpt>
      <trkpt lat="50.34403" lon="3.23518">
        <ele>33.9</ele>
        <time>2023-01-22T09:07:41Z</time>
      </trkpt>
      <trkpt lat="50.34403" lon="3.2352">
        <ele>33.8</ele>
        <time>2023-01-22T09:07:42Z</time>
      </trkpt>
      <trkpt lat="50.34403" lon="3.23523">
        <ele>33.7</ele>
        <time>2023-01-22T09:07:43Z</time>
      </trkpt>
      <trkpt lat="50.34404" lon="3.23525">
        <ele>33.6</ele>
        <time>2023-01-22T09:07:44Z</time>
      </trkpt>
      <trkpt lat="50.34404" lon="3.2353">
        <ele>33.3</ele>
        <time>2023-01-22T09:07:45Z</time>
      </trkpt>
      <trkpt lat="50.34405" lon="3.23532">
        <ele>33.2</ele>
        <time>2023-01-22T09:07:46Z</time>
      </trkpt>
      <trkpt lat="50.34406" lon="3.23534">
        <ele>33</ele>
        <time>2023-01-22T09:07:47Z</time>
      </trkpt>
      <trkpt lat="50.34406" lon="3.23535">
        <ele>32.9</ele>
        <time>2023-01-22T09:07:48Z</time>
      </trkpt>
      <trkpt lat="50.34406" lon="3.23537">
        <ele>32.8</ele>
        <time>2023-01-22T09:07:49Z</time>
      </trkpt>
      <trkpt lat="50.34406" lon="3.23539">
        <ele>22.785658</ele>
        <time>2023-01-22T09:07:50Z</time>
      </trkpt>
      <trkpt lat="50.34407" lon="3.2354">
        <ele>32.5</ele>
        <time>2023-01-22T09:07:51Z</time>
      </trkpt>
      <trkpt lat="50.34407" lon="3.23541">
        <ele>32.4</ele>
        <time>2023-01-22T09:07:52Z</time>
      </trkpt>
      <trkpt lat="50.34407" lon="3.23542">
        <ele>32.3</ele>
        <time>2023-01-22T09:07:53Z</time>
      </trkpt>
      <trkpt lat="50.34407" lon="3.23544">
        <ele>32.2</ele>
        <time>2023-01-22T09:07:54Z</time>
      </trkpt>
      <trkpt lat="50.34408" lon="3.23545">
        <ele>32</ele>
        <time>2023-01-22T09:07:55Z</time>
      </trkpt>
      <trkpt lat="50.34409" lon="3.23546">
        <ele>31.9</ele>
        <time>2023-01-22T09:07:56Z</time>
      </trkpt>
      <trkpt lat="50.34409" lon="3.23548">
        <ele>31.8</ele>
        <time>2023-01-22T09:07:57Z</time>
      </trkpt>
      <trkpt lat="50.34409" lon="3.23548">
        <ele>31.7</ele>
        <time>2023-01-22T09:07:58Z</time>
      </trkpt>
      <trkpt lat="50.3441" lon="3.23549">
        <ele>31.6</ele>
        <time>2023-01-22T09:07:59Z</time>
      </trkpt>
      <trkpt lat="50.34411" lon="3.2355">
        <ele>21.941368</ele>
        <time>2023-01-22T09:08:00Z</time>
      </trkpt>
      <trkpt lat="50.34411" lon="3.23549">
        <ele>31.6</ele>
        <time>2023-01-22T09:08:01Z</time>
      </trkpt>
      <trkpt lat="50.34412" lon="3.2355">
        <ele>31.6</ele>
        <time>2023-01-22T09:08:02Z</time>
      </trkpt>
      <trkpt lat="50.34412" lon="3.2355">
        <ele>31.6</ele>
        <time>2023-01-22T09:08:03Z</time>
      </trkpt>
      <trkpt lat="50.34412" lon="3.2355">
        <ele>31.6</ele>
        <time>2023-01-22T09:08:04Z</time>
      </trkpt>
      <trkpt lat="50.34413" lon="3.2355">
        <ele>31.6</ele>
        <time>2023-01-22T09:08:05Z</time>
      </trkpt>
      <trkpt lat="50.34412" lon="3.2355">
        <ele>31.6</ele>
        <time>2023-01-22T09:08:06Z</time>
      </trkpt>
      <trkpt lat="50.34413" lon="3.2355">
        <ele>31.5</ele>
        <time>2023-01-22T09:08:07Z</time>
      </trkpt>
      <trkpt lat="50.34413" lon="3.2355">
        <ele>31.5</ele>
        <time>2023-01-22T09:08:08Z</time>
      </trkpt>
      <trkpt lat="50.34413" lon="3.2355">
        <ele>31.5</ele>
        <time>2023-01-22T09:08:09Z</time>
      </trkpt>
      <trkpt lat="50.34413" lon="3.2355">
        <ele>21.764927</ele>
        <time>2023-01-22T09:08:10Z</time>
      </trkpt>
      <trkpt lat="50.34414" lon="3.23549">
        <ele>31.6</ele>
        <time>2023-01-22T09:08:11Z</time>
        <extensions>
          <gpxtpx:TrackPointExtension xmlns:gpxtpx="http://www.garmin.com/xmlschemas/TrackPointExtension/v1">
            <gpxtpx:hr>138</gpxtpx:hr>
          </gpxtpx:TrackPointExtension>
        </extensions>
      </trkpt>
      <trkpt lat="50.34414" lon="3.23549">
        <ele>31.7</ele>
        <time>2023-01-22T09:08:12Z</time>
      </trkpt>
      <trkpt lat="50.34414" lon="3.23548">
        <ele>31.7</ele>
        <time>2023-01-22T09:08:13Z</time>
      </trkpt>
      <trkpt lat="50.34414" lon="3.23548">
        <ele>31.8</ele>
        <time>2023-01-22T09:08:14Z</time>
      </trkpt>
      <trkpt lat="50.34414" lon="3.23548">
        <ele>31.8</ele>
        <time>2023-01-22T09:08:15Z</time>
      </trkpt>
      <trkpt lat="50.34414" lon="3.23548">
        <ele>31.8</ele>
        <time>2023-01-22T09:08:16Z</time>
      </trkpt>
      <trkpt lat="50.34415" lon="3.23549">
        <ele>31.7</ele>
        <time>2023-01-22T09:08:17Z</time>
      </trkpt>
      <trkpt lat="50.34415" lon="3.23549">
        <ele>31.7</ele>
        <time>2023-01-22T09:08:18Z</time>
      </trkpt>
      <trkpt lat="50.34415" lon="3.23549">
        <ele>31.7</ele>
        <time>2023-01-22T09:08:19Z</time>
        <extensions>
          <gpxtpx:TrackPointExtension xmlns:gpxtpx="http://www.garmin.com/xmlschemas/TrackPointExtension/v1">
            <gpxtpx:hr>124</gpxtpx:hr>
          </gpxtpx:TrackPointExtension>
        </extensions>
      </trkpt>
      <trkpt lat="50.34415" lon="3.23549">
        <ele>21.731724</ele>
        <time>2023-01-22T09:08:20Z</time>
      </trkpt>
      <trkpt lat="50.34415" lon="3.23549">
        <ele>31.7</ele>
        <time>2023-01-22T09:08:21Z</time>
      </trkpt>
      <trkpt lat="50.34415" lon="3.23549">
        <ele>31.7</ele>
        <time>2023-01-22T09:08:22Z</time>
      </trkpt>
      <trkpt lat="50.34415" lon="3.23549">
        <ele>31.7</ele>
        <time>2023-01-22T09:08:23Z</time>
      </trkpt>
      <trkpt lat="50.34415" lon="3.23549">
        <ele>31.6</ele>
        <time>2023-01-22T09:08:24Z</time>
      </trkpt>
      <trkpt lat="50.34415" lon="3.2355">
        <ele>31.6</ele>
        <time>2023-01-22T09:08:25Z</time>
      </trkpt>
      <trkpt lat="50.34415" lon="3.2355">
        <ele>31.6</ele>
        <time>2023-01-22T09:08:26Z</time>
      </trkpt>
      <trkpt lat="50.34415" lon="3.2355">
        <ele>31.6</ele>
        <time>2023-01-22T09:08:27Z</time>
      </trkpt>
      <trkpt lat="50.34415" lon="3.2355">
        <ele>31.6</ele>
        <time>2023-01-22T09:08:28Z</time>
      </trkpt>
      <trkpt lat="50.34415" lon="3.2355">
        <ele>31.6</ele>
        <time>2023-01-22T09:08:29Z</time>
      </trkpt>
      <trkpt lat="50.34415" lon="3.2355">
        <ele>31.6</ele>
        <time>2023-01-22T09:08:30Z</time>
      </trkpt>
      <trkpt lat="50.34415" lon="3.2355">
        <ele>31.6</ele>
        <time>2023-01-22T09:08:31Z</time>
      </trkpt>
      <trkpt lat="50.34415" lon="3.2355">
        <ele>31.6</ele>
        <time>2023-01-22T09:08:32Z</time>
      </trkpt>
      <trkpt lat="50.34415" lon="3.2355">
        <ele>31.6</ele>
        <time>2023-01-22T09:08:33Z</time>
      </trkpt>
      <trkpt lat="50.34415" lon="3.2355">
        <ele>31.6</ele>
        <time>2023-01-22T09:08:34Z</time>
      </trkpt>
      <trkpt lat="50.34415" lon="3.2355">
        <ele>21.737415</ele>
        <time>2023-01-22T09:08:35Z</time>
      </trkpt>
      <trkpt lat="50.34415" lon="3.2355">
        <ele>31.6</ele>
        <time>2023-01-22T09:08:36Z</time>
      </trkpt>
      <trkpt lat="50.34415" lon="3.2355">
        <ele>31.6</ele>
        <time>2023-01-22T09:08:37Z</time>
      </trkpt>
      <trkpt lat="50.34415" lon="3.2355">
        <ele>31.6</ele>
        <time>2023-01-22T09:08:38Z</time>
      </trkpt>
      <trkpt lat="50.34415" lon="3.2355">
        <ele>31.6</ele>
        <time>2023-01-22T09:08:39Z</time>
        <extensions>
          <gpxtpx:TrackPointExtension xmlns:gpxtpx="http://www.garmin.com/xmlschemas/TrackPointExtension/v1">
            <gpxtpx:hr>108</gpxtpx:hr>
          </gpxtpx:TrackPointExtension>
        </extensions>
      </trkpt>
      <trkpt lat="50.34415" lon="3.2355">
        <ele>21.79623</ele>
        <time>2023-01-22T09:08:40Z</time>
      </trkpt>
      <trkpt lat="50.34415" lon="3.2355">
        <ele>31.6</ele>
        <time>2023-01-22T09:08:41Z</time>
      </trkpt>
      <trkpt lat="50.34415" lon="3.2355">
        <ele>31.6</ele>
        <time>2023-01-22T09:08:42Z</time>
      </trkpt>
      <trkpt lat="50.34415" lon="3.2355">
        <ele>31.6</ele>
        <time>2023-01-22T09:08:43Z</time>
      </trkpt>
      <trkpt lat="50.34415" lon="3.2355">
        <ele>31.6</ele>
        <time>2023-01-22T09:08:44Z</time>
      </trkpt>
      <trkpt lat="50.34415" lon="3.2355">
        <ele>31.6</ele>
        <time>2023-01-22T09:08:45Z</time>
      </trkpt>
      <trkpt lat="50.34415" lon="3.2355">
        <ele>31.6</ele>
        <time>2023-01-22T09:08:46Z</time>
      </trkpt>
      <trkpt lat="50.34415" lon="3.2355">
        <ele>31.6</ele>
        <time>2023-01-22T09:08:47Z</time>
      </trkpt>
      <trkpt lat="50.34415" lon="3.2355">
        <ele>31.6</ele>
        <time>2023-01-22T09:08:48Z</time>
      </trkpt>
      <trkpt lat="50.34415" lon="3.23549">
        <ele>31.7</ele>
        <time>2023-01-22T09:08:49Z</time>
      </trkpt>
      <trkpt lat="50.34415" lon="3.23549">
        <ele>21.977417</ele>
        <time>2023-01-22T09:08:50Z</time>
      </trkpt>
      <trkpt lat="50.34415" lon="3.23549">
        <ele>31.7</ele>
        <time>2023-01-22T09:08:51Z</time>
      </trkpt>
      <trkpt lat="50.34415" lon="3.23549">
        <ele>31.7</ele>
        <time>2023-01-22T09:08:52Z</time>
      </trkpt>
      <trkpt lat="50.34415" lon="3.23549">
        <ele>31.7</ele>
        <time>2023-01-22T09:08:53Z</time>
      </trkpt>
      <trkpt lat="50.34415" lon="3.23549">
        <ele>31.7</ele>
        <time>2023-01-22T09:08:54Z</time>
      </trkpt>
      <trkpt lat="50.34414" lon="3.2355">
        <ele>31.6</ele>
        <time>2023-01-22T09:08:55Z</time>
      </trkpt>
      <trkpt lat="50.34414" lon="3.23551">
        <ele>31.4</ele>
        <time>2023-01-22T09:08:56Z</time>
      </trkpt>
      <trkpt lat="50.34414" lon="3.23552">
        <ele>31.3</ele>
        <time>2023-01-22T09:08:57Z</time>
      </trkpt>
      <trkpt lat="50.34414" lon="3.23553">
        <ele>31.3</ele>
        <time>2023-01-22T09:08:58Z</time>
      </trkpt>
      <trkpt lat="50.34414" lon="3.23553">
        <ele>31.2</ele>
        <time>2023-01-22T09:08:59Z</time>
        <extensions>
          <gpxtpx:TrackPointExtension xmlns:gpxtpx="http://www.garmin.com/xmlschemas/TrackPointExtension/v1">
            <gpxtpx:hr>94</gpxtpx:hr>
          </gpxtpx:TrackPointExtension>
        </extensions>
      </trkpt>
      <trkpt lat="50.34414" lon="3.23554">
        <ele>21.812357</ele>
        <time>2023-01-22T09:09:00Z</time>
      </trkpt>
      <trkpt lat="50.34414" lon="3.23556">
        <ele>31</ele>
        <time>2023-01-22T09:09:01Z</time>
      </trkpt>
      <trkpt lat="50.34414" lon="3.23558">
        <ele>30.8</ele>
        <time>2023-01-22T09:09:02Z</time>
      </trkpt>
      <trkpt lat="50.34413" lon="3.2356">
        <ele>30.7</ele>
        <time>2023-01-22T09:09:03Z</time>
      </trkpt>
      <trkpt lat="50.34413" lon="3.23562">
        <ele>30.5</ele>
        <time>2023-01-22T09:09:04Z</time>
      </trkpt>
      <trkpt lat="50.34413" lon="3.23563">
        <ele>30.5</ele>
        <time>2023-01-22T09:09:05Z</time>
      </trkpt>
      <trkpt lat="50.34412" lon="3.23564">
        <ele>30.4</ele>
        <time>2023-01-22T09:09:06Z</time>
      </trkpt>
      <trkpt lat="50.34412" lon="3.23567">
        <ele>30.3</ele>
        <time>2023-01-22T09:09:07Z</time>
      </trkpt>
      <trkpt lat="50.34412" lon="3.23569">
        <ele>30.1</ele>
        <time>2023-01-22T09:09:08Z</time>
      </trkpt>
      <trkpt lat="50.34411" lon="3.23572">
        <ele>29.9</ele>
        <time>2023-01-22T09:09:09Z</time>
      </trkpt>
      <trkpt lat="50.3441" lon="3.23575">
        <ele>21.082884</ele>
        <time>2023-01-22T09:09:10Z</time>
      </trkpt>
      <trkpt lat="50.34409" lon="3.23577">
        <ele>29.6</ele>
        <time>2023-01-22T09:09:11Z</time>
      </trkpt>
      <trkpt lat="50.34408" lon="3.2358">
        <ele>29.5</ele>
        <time>2023-01-22T09:09:12Z</time>
      </trkpt>
      <trkpt lat="50.34408" lon="3.23581">
        <ele>29.4</ele>
        <time>2023-01-22T09:09:13Z</time>
      </trkpt>
      <trkpt lat="50.34408" lon="3.23583">
        <ele>29.4</ele>
        <time>2023-01-22T09:09:14Z</time>
      </trkpt>
      <trkpt lat="50.34408" lon="3.23585">
        <ele>29.5</ele>
        <time>2023-01-22T09:09:15Z</time>
      </trkpt>
      <trkpt lat="50.34408" lon="3.23587">
        <ele>29.6</ele>
        <time>2023-01-22T09:09:16Z</time>
      </trkpt>
      <trkpt lat="50.34408" lon="3.23588">
        <ele>29.7</ele>
        <time>2023-01-22T09:09:17Z</time>
      </trkpt>
      <trkpt lat="50.34409" lon="3.2359">
        <ele>29.8</ele>
        <time>2023-01-22T09:09:18Z</time>
      </trkpt>
      <trkpt lat="50.34408" lon="3.23591">
        <ele>29.9</ele>
        <time>2023-01-22T09:09:19Z</time>
        <extensions>
          <gpxtpx:TrackPointExtension xmlns:gpxtpx="http://www.garmin.com/xmlschemas/TrackPointExtension/v1">
            <gpxtpx:hr>98</gpxtpx:hr>
          </gpxtpx:TrackPointExtension>
        </extensions>
      </trkpt>
      <trkpt lat="50.34408" lon="3.23592">
        <ele>19.237974</ele>
        <time>2023-01-22T09:09:20Z</time>
      </trkpt>
      <trkpt lat="50.34407" lon="3.23593">
        <ele>30.1</ele>
        <time>2023-01-22T09:09:21Z</time>
      </trkpt>
      <trkpt lat="50.34406" lon="3.23593">
        <ele>30.2</ele>
        <time>2023-01-22T09:09:22Z</time>
      </trkpt>
      <trkpt lat="50.34404" lon="3.23593">
        <ele>30.3</ele>
        <time>2023-01-22T09:09:23Z</time>
      </trkpt>
      <trkpt lat="50.34403" lon="3.23595">
        <ele>30.5</ele>
        <time>2023-01-22T09:09:24Z</time>
      </trkpt>
      <trkpt lat="50.34401" lon="3.23596">
        <ele>30.7</ele>
        <time>2023-01-22T09:09:25Z</time>
      </trkpt>
      <trkpt lat="50.344" lon="3.23596">
        <ele>30.8</ele>
        <time>2023-01-22T09:09:26Z</time>
      </trkpt>
      <trkpt lat="50.34399" lon="3.23598">
        <ele>31</ele>
        <time>2023-01-22T09:09:27Z</time>
      </trkpt>
      <trkpt lat="50.34398" lon="3.23598">
        <ele>31.1</ele>
        <time>2023-01-22T09:09:28Z</time>
      </trkpt>
      <trkpt lat="50.34396" lon="3.23599">
        <ele>31.2</ele>
        <time>2023-01-22T09:09:29Z</time>
      </trkpt>
      <trkpt lat="50.34395" lon="3.23599">
        <ele>19.336618</ele>
        <time>2023-01-22T09:09:30Z</time>
      </trkpt>
      <trkpt lat="50.34394" lon="3.23599">
        <ele>31.4</ele>
        <time>2023-01-22T09:09:31Z</time>
      </trkpt>
      <trkpt lat="50.34393" lon="3.23598">
        <ele>31.4</ele>
        <time>2023-01-22T09:09:32Z</time>
      </trkpt>
      <trkpt lat="50.34392" lon="3.23598">
        <ele>31.4</ele>
        <time>2023-01-22T09:09:33Z</time>
      </trkpt>
      <trkpt lat="50.34391" lon="3.23598">
        <ele>31.4</ele>
        <time>2023-01-22T09:09:34Z</time>
      </trkpt>
      <trkpt lat="50.3439" lon="3.23597">
        <ele>31.4</ele>
        <time>2023-01-22T09:09:35Z</time>
      </trkpt>
      <trkpt lat="50.34388" lon="3.23597">
        <ele>31.5</ele>
        <time>2023-01-22T09:09:36Z</time>
      </trkpt>
      <trkpt lat="50.34387" lon="3.23597">
        <ele>31.6</ele>
        <time>2023-01-22T09:09:37Z</time>
      </trkpt>
      <trkpt lat="50.34386" lon="3.23598">
        <ele>31.8</ele>
        <time>2023-01-22T09:09:38Z</time>
      </trkpt>
      <trkpt lat="50.34384" lon="3.23597">
        <ele>31.8</ele>
        <time>2023-01-22T09:09:39Z</time>
        <extensions>
          <gpxtpx:TrackPointExtension xmlns:gpxtpx="http://www.garmin.com/xmlschemas/TrackPointExtension/v1">
            <gpxtpx:hr>106</gpxtpx:hr>
          </gpxtpx:TrackPointExtension>
        </extensions>
      </trkpt>
      <trkpt lat="50.34383" lon="3.23595">
        <ele>20.88558</ele>
        <time>2023-01-22T09:09:40Z</time>
      </trkpt>
      <trkpt lat="50.34383" lon="3.23593">
        <ele>31.5</ele>
        <time>2023-01-22T09:09:41Z</time>
      </trkpt>
      <trkpt lat="50.34382" lon="3.23591">
        <ele>31.3</ele>
        <time>2023-01-22T09:09:42Z</time>
      </trkpt>
      <trkpt lat="50.34381" lon="3.23589">
        <ele>31.2</ele>
        <time>2023-01-22T09:09:43Z</time>
      </trkpt>
      <trkpt lat="50.3438" lon="3.23587">
        <ele>31</ele>
        <time>2023-01-22T09:09:44Z</time>
      </trkpt>
      <trkpt lat="50.34379" lon="3.23586">
        <ele>31</ele>
        <time>2023-01-22T09:09:45Z</time>
      </trkpt>
      <trkpt lat="50.34378" lon="3.23585">
        <ele>30.9</ele>
        <time>2023-01-22T09:09:46Z</time>
      </trkpt>
      <trkpt lat="50.34378" lon="3.23584">
        <ele>30.9</ele>
        <time>2023-01-22T09:09:47Z</time>
      </trkpt>
      <trkpt lat="50.34377" lon="3.23583">
        <ele>30.9</ele>
        <time>2023-01-22T09:09:48Z</time>
      </trkpt>
      <trkpt lat="50.34376" lon="3.23582">
        <ele>30.9</ele>
        <time>2023-01-22T09:09:49Z</time>
      </trkpt>
      <trkpt lat="50.34375" lon="3.23581">
        <ele>23.1822</ele>
        <time>2023-01-22T09:09:50Z</time>
      </trkpt>
      <trkpt lat="50.34374" lon="3.2358">
        <ele>31.1</ele>
        <time>2023-01-22T09:09:51Z</time>
      </trkpt>
      <trkpt lat="50.34373" lon="3.23579">
        <ele>31.1</ele>
        <time>2023-01-22T09:09:52Z</time>
      </trkpt>
      <trkpt lat="50.34372" lon="3.23579">
        <ele>31.2</ele>
        <time>2023-01-22T09:09:53Z</time>
      </trkpt>
      <trkpt lat="50.34371" lon="3.23578">
        <ele>31.2</ele>
        <time>2023-01-22T09:09:54Z</time>
      </trkpt>
      <trkpt lat="50.3437" lon="3.23578">
        <ele>31.3</ele>
        <time>2023-01-22T09:09:55Z</time>
      </trkpt>
      <trkpt lat="50.34369" lon="3.23578">
        <ele>31.3</ele>
        <time>2023-01-22T09:09:56Z</time>
      </trkpt>
      <trkpt lat="50.34369" lon="3.23578">
        <ele>31.4</ele>
        <time>2023-01-22T09:09:57Z</time>
      </trkpt>
      <trkpt lat="50.34368" lon="3.23578">
        <ele>31.4</ele>
        <time>2023-01-22T09:09:58Z</time>
      </trkpt>
      <trkpt lat="50.34368" lon="3.23578">
        <ele>31.4</ele>
        <time>2023-01-22T09:09:59Z</time>
        <extensions>
          <gpxtpx:TrackPointExtension xmlns:gpxtpx="http://www.garmin.com/xmlschemas/TrackPointExtension/v1">
            <gpxtpx:hr>128</gpxtpx:hr>
          </gpxtpx:TrackPointExtension>
        </extensions>
      </trkpt>
      <trkpt lat="50.34367" lon="3.23579">
        <ele>24.832012</ele>
        <time>2023-01-22T09:10:00Z</time>
      </trkpt>
      <trkpt lat="50.34367" lon="3.2358">
        <ele>31.5</ele>
        <time>2023-01-22T09:10:01Z</time>
      </trkpt>
      <trkpt lat="50.34366" lon="3.23579">
        <ele>31.5</ele>
        <time>2023-01-22T09:10:02Z</time>
      </trkpt>
      <trkpt lat="50.34366" lon="3.2358">
        <ele>31.6</ele>
        <time>2023-01-22T09:10:03Z</time>
      </trkpt>
      <trkpt lat="50.34366" lon="3.2358">
        <ele>31.6</ele>
        <time>2023-01-22T09:10:04Z</time>
      </trkpt>
      <trkpt lat="50.34366" lon="3.2358">
        <ele>31.6</ele>
        <time>2023-01-22T09:10:05Z</time>
      </trkpt>
      <trkpt lat="50.34365" lon="3.23579">
        <ele>31.6</ele>
        <time>2023-01-22T09:10:06Z</time>
      </trkpt>
      <trkpt lat="50.34365" lon="3.23578">
        <ele>31.6</ele>
        <time>2023-01-22T09:10:07Z</time>
      </trkpt>
      <trkpt lat="50.34363" lon="3.23579">
        <ele>31.7</ele>
        <time>2023-01-22T09:10:08Z</time>
      </trkpt>
      <trkpt lat="50.34363" lon="3.23577">
        <ele>31.7</ele>
        <time>2023-01-22T09:10:09Z</time>
      </trkpt>
      <trkpt lat="50.34362" lon="3.23576">
        <ele>31.7</ele>
        <time>2023-01-22T09:10:10Z</time>
      </trkpt>
      <trkpt lat="50.34359" lon="3.23577">
        <ele>31.8</ele>
        <time>2023-01-22T09:10:11Z</time>
      </trkpt>
      <trkpt lat="50.34358" lon="3.23578">
        <ele>31.8</ele>
        <time>2023-01-22T09:10:12Z</time>
      </trkpt>
      <trkpt lat="50.34357" lon="3.23577">
        <ele>31.7</ele>
        <time>2023-01-22T09:10:13Z</time>
      </trkpt>
      <trkpt lat="50.34356" lon="3.23577">
        <ele>31.7</ele>
        <time>2023-01-22T09:10:14Z</time>
      </trkpt>
      <trkpt lat="50.34354" lon="3.23576">
        <ele>25.877562</ele>
        <time>2023-01-22T09:10:15Z</time>
      </trkpt>
      <trkpt lat="50.34353" lon="3.23575">
        <ele>31.6</ele>
        <time>2023-01-22T09:10:16Z</time>
      </trkpt>
      <trkpt lat="50.34353" lon="3.23574">
        <ele>31.6</ele>
        <time>2023-01-22T09:10:17Z</time>
      </trkpt>
      <trkpt lat="50.34353" lon="3.23572">
        <ele>31.5</ele>
        <time>2023-01-22T09:10:18Z</time>
      </trkpt>
      <trkpt lat="50.34353" lon="3.23572">
        <ele>31.4</ele>
        <time>2023-01-22T09:10:19Z</time>
        <extensions>
          <gpxtpx:TrackPointExtension xmlns:gpxtpx="http://www.garmin.com/xmlschemas/TrackPointExtension/v1">
            <gpxtpx:hr>138</gpxtpx:hr>
          </gpxtpx:TrackPointExtension>
        </extensions>
      </trkpt>
      <trkpt lat="50.34353" lon="3.2357">
        <ele>25.84625</ele>
        <time>2023-01-22T09:10:20Z</time>
      </trkpt>
      <trkpt lat="50.34353" lon="3.23569">
        <ele>31.3</ele>
        <time>2023-01-22T09:10:21Z</time>
      </trkpt>
      <trkpt lat="50.34353" lon="3.23568">
        <ele>31.3</ele>
        <time>2023-01-22T09:10:22Z</time>
      </trkpt>
      <trkpt lat="50.34352" lon="3.23566">
        <ele>31.2</ele>
        <time>2023-01-22T09:10:23Z</time>
      </trkpt>
      <trkpt lat="50.34353" lon="3.23564">
        <ele>31.1</ele>
        <time>2023-01-22T09:10:24Z</time>
      </trkpt>
      <trkpt lat="50.34353" lon="3.23563">
        <ele>31.1</ele>
        <time>2023-01-22T09:10:25Z</time>
      </trkpt>
      <trkpt lat="50.34353" lon="3.23562">
        <ele>31</ele>
        <time>2023-01-22T09:10:26Z</time>
      </trkpt>
      <trkpt lat="50.34352" lon="3.23561">
        <ele>30.9</ele>
        <time>2023-01-22T09:10:27Z</time>
      </trkpt>
      <trkpt lat="50.34351" lon="3.23561">
        <ele>30.9</ele>
        <time>2023-01-22T09:10:28Z</time>
      </trkpt>
      <trkpt lat="50.3435" lon="3.2356">
        <ele>30.8</ele>
        <time>2023-01-22T09:10:29Z</time>
      </trkpt>
      <trkpt lat="50.34349" lon="3.23558">
        <ele>25.305445</ele>
        <time>2023-01-22T09:10:30Z</time>
      </trkpt>
      <trkpt lat="50.34348" lon="3.23557">
        <ele>30.6</ele>
        <time>2023-01-22T09:10:31Z</time>
      </trkpt>
      <trkpt lat="50.34348" lon="3.23556">
        <ele>30.5</ele>
        <time>2023-01-22T09:10:32Z</time>
      </trkpt>
      <trkpt lat="50.34347" lon="3.23555">
        <ele>30.5</ele>
        <time>2023-01-22T09:10:33Z</time>
      </trkpt>
      <trkpt lat="50.34345" lon="3.23554">
        <ele>30.5</ele>
        <time>2023-01-22T09:10:34Z</time>
      </trkpt>
      <trkpt lat="50.34344" lon="3.23553">
        <ele>30.5</ele>
        <time>2023-01-22T09:10:35Z</time>
      </trkpt>
      <trkpt lat="50.34343" lon="3.23552">
        <ele>30.5</ele>
        <time>2023-01-22T09:10:36Z</time>
      </trkpt>
      <trkpt lat="50.34341" lon="3.23549">
        <ele>30.5</ele>
        <time>2023-01-22T09:10:37Z</time>
      </trkpt>
      <trkpt lat="50.34339" lon="3.23548">
        <ele>30.5</ele>
        <time>2023-01-22T09:10:38Z</time>
      </trkpt>
      <trkpt lat="50.34337" lon="3.23546">
        <ele>30.5</ele>
        <time>2023-01-22T09:10:39Z</time>
        <extensions>
          <gpxtpx:TrackPointExtension xmlns:gpxtpx="http://www.garmin.com/xmlschemas/TrackPointExtension/v1">
            <gpxtpx:hr>132</gpxtpx:hr>
          </gpxtpx:TrackPointExtension>
        </extensions>
      </trkpt>
      <trkpt lat="50.34335" lon="3.23544">
        <ele>24.709623</ele>
        <time>2023-01-22T09:10:40Z</time>
      </trkpt>
      <trkpt lat="50.34332" lon="3.23542">
        <ele>30.4</ele>
        <time>2023-01-22T09:10:41Z</time>
      </trkpt>
      <trkpt lat="50.3433" lon="3.23542">
        <ele>30.4</ele>
        <time>2023-01-22T09:10:42Z</time>
      </trkpt>
      <trkpt lat="50.34328" lon="3.23542">
        <ele>30.4</ele>
        <time>2023-01-22T09:10:43Z</time>
      </trkpt>
      <trkpt lat="50.34326" lon="3.23541">
        <ele>30.4</ele>
        <time>2023-01-22T09:10:44Z</time>
      </trkpt>
      <trkpt lat="50.34324" lon="3.23539">
        <ele>30.4</ele>
        <time>2023-01-22T09:10:45Z</time>
      </trkpt>
      <trkpt lat="50.34322" lon="3.23538">
        <ele>30.5</ele>
        <time>2023-01-22T09:10:46Z</time>
      </trkpt>
      <trkpt lat="50.34321" lon="3.23537">
        <ele>30.5</ele>
        <time>2023-01-22T09:10:47Z</time>
      </trkpt>
      <trkpt lat="50.3432" lon="3.23537">
        <ele>30.5</ele>
        <time>2023-01-22T09:10:48Z</time>
      </trkpt>
      <trkpt lat="50.34319" lon="3.23537">
        <ele>30.5</ele>
        <time>2023-01-22T09:10:49Z</time>
      </trkpt>
      <trkpt lat="50.34319" lon="3.23537">
        <ele>24.656494</ele>
        <time>2023-01-22T09:10:50Z</time>
      </trkpt>
      <trkpt lat="50.34319" lon="3.23537">
        <ele>30.5</ele>
        <time>2023-01-22T09:10:51Z</time>
      </trkpt>
      <trkpt lat="50.34319" lon="3.23538">
        <ele>30.4</ele>
        <time>2023-01-22T09:10:52Z</time>
      </trkpt>
      <trkpt lat="50.34319" lon="3.23539">
        <ele>30.4</ele>
        <time>2023-01-22T09:10:53Z</time>
      </trkpt>
      <trkpt lat="50.3432" lon="3.23539">
        <ele>30.4</ele>
        <time>2023-01-22T09:10:54Z</time>
      </trkpt>
      <trkpt lat="50.34319" lon="3.23539">
        <ele>30.4</ele>
        <time>2023-01-22T09:10:55Z</time>
      </trkpt>
      <trkpt lat="50.34319" lon="3.23539">
        <ele>30.4</ele>
        <time>2023-01-22T09:10:56Z</time>
      </trkpt>
      <trkpt lat="50.34319" lon="3.23539">
        <ele>30.4</ele>
        <time>2023-01-22T09:10:57Z</time>
      </trkpt>
      <trkpt lat="50.34318" lon="3.23538">
        <ele>30.4</ele>
        <time>2023-01-22T09:10:58Z</time>
      </trkpt>
      <trkpt lat="50.34318" lon="3.23538">
        <ele>30.4</ele>
        <time>2023-01-22T09:10:59Z</time>
        <extensions>
          <gpxtpx:TrackPointExtension xmlns:gpxtpx="http://www.garmin.com/xmlschemas/TrackPointExtension/v1">
            <gpxtpx:hr>132</gpxtpx:hr>
          </gpxtpx:TrackPointExtension>
        </extensions>
      </trkpt>
      <trkpt lat="50.34317" lon="3.23538">
        <ele>23.327349</ele>
        <time>2023-01-22T09:11:00Z</time>
      </trkpt>
      <trkpt lat="50.34317" lon="3.23538">
        <ele>30.4</ele>
        <time>2023-01-22T09:11:01Z</time>
      </trkpt>
      <trkpt lat="50.34317" lon="3.23538">
        <ele>30.4</ele>
        <time>2023-01-22T09:11:02Z</time>
      </trkpt>
      <trkpt lat="50.34317" lon="3.23538">
        <ele>30.4</ele>
        <time>2023-01-22T09:11:03Z</time>
      </trkpt>
      <trkpt lat="50.34317" lon="3.23538">
        <ele>30.4</ele>
        <time>2023-01-22T09:11:04Z</time>
      </trkpt>
      <trkpt lat="50.34317" lon="3.23538">
        <ele>30.4</ele>
        <time>2023-01-22T09:11:05Z</time>
      </trkpt>
      <trkpt lat="50.34317" lon="3.23538">
        <ele>30.4</ele>
        <time>2023-01-22T09:11:06Z</time>
      </trkpt>
      <trkpt lat="50.34317" lon="3.23538">
        <ele>30.4</ele>
        <time>2023-01-22T09:11:07Z</time>
      </trkpt>
      <trkpt lat="50.34317" lon="3.23538">
        <ele>30.4</ele>
        <time>2023-01-22T09:11:08Z</time>
      </trkpt>
      <trkpt lat="50.34317" lon="3.23538">
        <ele>30.4</ele>
        <time>2023-01-22T09:11:09Z</time>
      </trkpt>
      <trkpt lat="50.34317" lon="3.23538">
        <ele>20.917831</ele>
        <time>2023-01-22T09:11:10Z</time>
      </trkpt>
      <trkpt lat="50.34317" lon="3.23538">
        <ele>30.4</ele>
        <time>2023-01-22T09:11:11Z</time>
      </trkpt>
      <trkpt lat="50.34317" lon="3.23538">
        <ele>30.4</ele>
        <time>2023-01-22T09:11:12Z</time>
      </trkpt>
      <trkpt lat="50.34317" lon="3.23538">
        <ele>30.4</ele>
        <time>2023-01-22T09:11:13Z</time>
      </trkpt>
      <trkpt lat="50.34316" lon="3.23538">
        <ele>30.4</ele>
        <time>2023-01-22T09:11:14Z</time>
      </trkpt>
      <trkpt lat="50.34315" lon="3.23537">
        <ele>30.4</ele>
        <time>2023-01-22T09:11:15Z</time>
      </trkpt>
      <trkpt lat="50.34314" lon="3.23536">
        <ele>30.5</ele>
        <time>2023-01-22T09:11:16Z</time>
      </trkpt>
      <trkpt lat="50.34312" lon="3.23536">
        <ele>30.5</ele>
        <time>2023-01-22T09:11:17Z</time>
      </trkpt>
      <trkpt lat="50.3431" lon="3.23536">
        <ele>30.5</ele>
        <time>2023-01-22T09:11:18Z</time>
      </trkpt>
      <trkpt lat="50.34308" lon="3.23535">
        <ele>30.5</ele>
        <time>2023-01-22T09:11:19Z</time>
        <extensions>
          <gpxtpx:TrackPointExtension xmlns:gpxtpx="http://www.garmin.com/xmlschemas/TrackPointExtension/v1">
            <gpxtpx:hr>138</gpxtpx:hr>
          </gpxtpx:TrackPointExtension>
        </extensions>
      </trkpt>
      <trkpt lat="50.34307" lon="3.23535">
        <ele>20.232973</ele>
        <time>2023-01-22T09:11:20Z</time>
      </trkpt>
      <trkpt lat="50.34305" lon="3.23534">
        <ele>30.5</ele>
        <time>2023-01-22T09:11:21Z</time>
      </trkpt>
      <trkpt lat="50.34303" lon="3.23534">
        <ele>30.6</ele>
        <time>2023-01-22T09:11:22Z</time>
      </trkpt>
      <trkpt lat="50.34301" lon="3.23533">
        <ele>30.6</ele>
        <time>2023-01-22T09:11:23Z</time>
      </trkpt>
      <trkpt lat="50.343" lon="3.23533">
        <ele>30.7</ele>
        <time>2023-01-22T09:11:24Z</time>
      </trkpt>
      <trkpt lat="50.34299" lon="3.23532">
        <ele>30.7</ele>
        <time>2023-01-22T09:11:25Z</time>
      </trkpt>
      <trkpt lat="50.34298" lon="3.23531">
        <ele>30.8</ele>
        <time>2023-01-22T09:11:26Z</time>
      </trkpt>
      <trkpt lat="50.34297" lon="3.23531">
        <ele>30.8</ele>
        <time>2023-01-22T09:11:27Z</time>
      </trkpt>
      <trkpt lat="50.34296" lon="3.23531">
        <ele>30.7</ele>
        <time>2023-01-22T09:11:28Z</time>
      </trkpt>
      <trkpt lat="50.34295" lon="3.23531">
        <ele>30.8</ele>
        <time>2023-01-22T09:11:29Z</time>
      </trkpt>
      <trkpt lat="50.34294" lon="3.23531">
        <ele>20.187443</ele>
        <time>2023-01-22T09:11:30Z</time>
      </trkpt>
      <trkpt lat="50.34293" lon="3.2353">
        <ele>30.8</ele>
        <time>2023-01-22T09:11:31Z</time>
      </trkpt>
      <trkpt lat="50.34292" lon="3.2353">
        <ele>30.9</ele>
        <time>2023-01-22T09:11:32Z</time>
      </trkpt>
      <trkpt lat="50.3429" lon="3.2353">
        <ele>30.8</ele>
        <time>2023-01-22T09:11:33Z</time>
      </trkpt>
      <trkpt lat="50.34289" lon="3.23529">
        <ele>30.9</ele>
        <time>2023-01-22T09:11:34Z</time>
      </trkpt>
      <trkpt lat="50.34288" lon="3.23528">
        <ele>31</ele>
        <time>2023-01-22T09:11:35Z</time>
      </trkpt>
      <trkpt lat="50.34287" lon="3.23528">
        <ele>31</ele>
        <time>2023-01-22T09:11:36Z</time>
      </trkpt>
      <trkpt lat="50.34286" lon="3.23528">
        <ele>31</ele>
        <time>2023-01-22T09:11:37Z</time>
      </trkpt>
      <trkpt lat="50.34285" lon="3.23527">
        <ele>31</ele>
        <time>2023-01-22T09:11:38Z</time>
      </trkpt>
      <trkpt lat="50.34284" lon="3.23527">
        <ele>31</ele>
        <time>2023-01-22T09:11:39Z</time>
        <extensions>
          <gpxtpx:TrackPointExtension xmlns:gpxtpx="http://www.garmin.com/xmlschemas/TrackPointExtension/v1">
            <gpxtpx:hr>138</gpxtpx:hr>
          </gpxtpx:TrackPointExtension>
        </extensions>
      </trkpt>
      <trkpt lat="50.34283" lon="3.23527">
        <ele>19.824154</ele>
        <time>2023-01-22T09:11:40Z</time>
      </trkpt>
      <trkpt lat="50.34283" lon="3.23527">
        <ele>31</ele>
        <time>2023-01-22T09:11:41Z</time>
      </trkpt>
      <trkpt lat="50.34283" lon="3.23527">
        <ele>31</ele>
        <time>2023-01-22T09:11:42Z</time>
      </trkpt>
      <trkpt lat="50.34283" lon="3.23527">
        <ele>31</ele>
        <time>2023-01-22T09:11:43Z</time>
      </trkpt>
      <trkpt lat="50.34283" lon="3.23527">
        <ele>31</ele>
        <time>2023-01-22T09:11:44Z</time>
      </trkpt>
      <trkpt lat="50.34283" lon="3.23528">
        <ele>31</ele>
        <time>2023-01-22T09:11:45Z</time>
      </trkpt>
      <trkpt lat="50.34283" lon="3.23528">
        <ele>31</ele>
        <time>2023-01-22T09:11:46Z</time>
      </trkpt>
      <trkpt lat="50.34283" lon="3.23528">
        <ele>31</ele>
        <time>2023-01-22T09:11:47Z</time>
      </trkpt>
      <trkpt lat="50.34282" lon="3.23528">
        <ele>31</ele>
        <time>2023-01-22T09:11:48Z</time>
      </trkpt>
      <trkpt lat="50.34282" lon="3.23528">
        <ele>31</ele>
        <time>2023-01-22T09:11:49Z</time>
      </trkpt>
      <trkpt lat="50.34282" lon="3.23528">
        <ele>19.85261</ele>
        <time>2023-01-22T09:11:50Z</time>
      </trkpt>
      <trkpt lat="50.34282" lon="3.23529">
        <ele>30.9</ele>
        <time>2023-01-22T09:11:51Z</time>
      </trkpt>
      <trkpt lat="50.34282" lon="3.23529">
        <ele>30.9</ele>
        <time>2023-01-22T09:11:52Z</time>
      </trkpt>
      <trkpt lat="50.34282" lon="3.23529">
        <ele>30.9</ele>
        <time>2023-01-22T09:11:53Z</time>
      </trkpt>
      <trkpt lat="50.34281" lon="3.2353">
        <ele>30.8</ele>
        <time>2023-01-22T09:11:54Z</time>
      </trkpt>
      <trkpt lat="50.3428" lon="3.23532">
        <ele>30.7</ele>
        <time>2023-01-22T09:11:55Z</time>
      </trkpt>
      <trkpt lat="50.3428" lon="3.23534">
        <ele>30.6</ele>
        <time>2023-01-22T09:11:56Z</time>
      </trkpt>
      <trkpt lat="50.34279" lon="3.23536">
        <ele>30.4</ele>
        <time>2023-01-22T09:11:57Z</time>
      </trkpt>
      <trkpt lat="50.34278" lon="3.2354">
        <ele>30.1</ele>
        <time>2023-01-22T09:11:58Z</time>
      </trkpt>
      <trkpt lat="50.34277" lon="3.23543">
        <ele>29.9</ele>
        <time>2023-01-22T09:11:59Z</time>
      </trkpt>
      <trkpt lat="50.34276" lon="3.23545">
        <ele>22.156706</ele>
        <time>2023-01-22T09:12:00Z</time>
      </trkpt>
      <trkpt lat="50.34275" lon="3.23548">
        <ele>29.5</ele>
        <time>2023-01-22T09:12:01Z</time>
      </trkpt>
      <trkpt lat="50.34275" lon="3.2355">
        <ele>29.4</ele>
        <time>2023-01-22T09:12:02Z</time>
      </trkpt>
      <trkpt lat="50.34274" lon="3.23552">
        <ele>29.2</ele>
        <time>2023-01-22T09:12:03Z</time>
      </trkpt>
      <trkpt lat="50.34273" lon="3.23553">
        <ele>29.1</ele>
        <time>2023-01-22T09:12:04Z</time>
      </trkpt>
      <trkpt lat="50.34272" lon="3.23556">
        <ele>29</ele>
        <time>2023-01-22T09:12:05Z</time>
      </trkpt>
      <trkpt lat="50.34272" lon="3.23558">
        <ele>29</ele>
        <time>2023-01-22T09:12:06Z</time>
      </trkpt>
      <trkpt lat="50.34271" lon="3.2356">
        <ele>29</ele>
        <time>2023-01-22T09:12:07Z</time>
      </trkpt>
      <trkpt lat="50.3427" lon="3.23561">
        <ele>29.1</ele>
        <time>2023-01-22T09:12:08Z</time>
      </trkpt>
      <trkpt lat="50.34268" lon="3.23562">
        <ele>29.1</ele>
        <time>2023-01-22T09:12:09Z</time>
      </trkpt>
      <trkpt lat="50.34266" lon="3.23564">
        <ele>23.817823</ele>
        <time>2023-01-22T09:12:10Z</time>
      </trkpt>
      <trkpt lat="50.34264" lon="3.23567">
        <ele>29.2</ele>
        <time>2023-01-22T09:12:11Z</time>
      </trkpt>
      <trkpt lat="50.34263" lon="3.23569">
        <ele>29.3</ele>
        <time>2023-01-22T09:12:12Z</time>
      </trkpt>
      <trkpt lat="50.3426" lon="3.23571">
        <ele>29.4</ele>
        <time>2023-01-22T09:12:13Z</time>
      </trkpt>
      <trkpt lat="50.34258" lon="3.23574">
        <ele>29.5</ele>
        <time>2023-01-22T09:12:14Z</time>
      </trkpt>
      <trkpt lat="50.34255" lon="3.23575">
        <ele>29.6</ele>
        <time>2023-01-22T09:12:15Z</time>
      </trkpt>
      <trkpt lat="50.34253" lon="3.23576">
        <ele>29.7</ele>
        <time>2023-01-22T09:12:16Z</time>
      </trkpt>
      <trkpt lat="50.34251" lon="3.23577">
        <ele>29.8</ele>
        <time>2023-01-22T09:12:17Z</time>
      </trkpt>
      <trkpt lat="50.3425" lon="3.23576">
        <ele>29.7</ele>
        <time>2023-01-22T09:12:18Z</time>
      </trkpt>
      <trkpt lat="50.34249" lon="3.23575">
        <ele>29.7</ele>
        <time>2023-01-22T09:12:19Z</time>
      </trkpt>
      <trkpt lat="50.34247" lon="3.23575">
        <ele>23.81308</ele>
        <time>2023-01-22T09:12:20Z</time>
      </trkpt>
      <trkpt lat="50.34246" lon="3.23575">
        <ele>29.6</ele>
        <time>2023-01-22T09:12:21Z</time>
      </trkpt>
      <trkpt lat="50.34245" lon="3.23575">
        <ele>29.6</ele>
        <time>2023-01-22T09:12:22Z</time>
      </trkpt>
      <trkpt lat="50.34243" lon="3.23576">
        <ele>29.6</ele>
        <time>2023-01-22T09:12:23Z</time>
      </trkpt>
      <trkpt lat="50.34241" lon="3.23575">
        <ele>29.6</ele>
        <time>2023-01-22T09:12:24Z</time>
      </trkpt>
      <trkpt lat="50.34238" lon="3.23576">
        <ele>29.5</ele>
        <time>2023-01-22T09:12:25Z</time>
      </trkpt>
      <trkpt lat="50.34236" lon="3.23577">
        <ele>29.5</ele>
        <time>2023-01-22T09:12:26Z</time>
      </trkpt>
      <trkpt lat="50.34235" lon="3.23577">
        <ele>29.5</ele>
        <time>2023-01-22T09:12:27Z</time>
      </trkpt>
      <trkpt lat="50.34233" lon="3.23578">
        <ele>29.4</ele>
        <time>2023-01-22T09:12:28Z</time>
      </trkpt>
      <trkpt lat="50.3423" lon="3.23579">
        <ele>29.4</ele>
        <time>2023-01-22T09:12:29Z</time>
      </trkpt>
      <trkpt lat="50.3423" lon="3.23577">
        <ele>22.913727</ele>
        <time>2023-01-22T09:12:30Z</time>
      </trkpt>
      <trkpt lat="50.34229" lon="3.23575">
        <ele>29.4</ele>
        <time>2023-01-22T09:12:31Z</time>
      </trkpt>
      <trkpt lat="50.34229" lon="3.23573">
        <ele>29.4</ele>
        <time>2023-01-22T09:12:32Z</time>
      </trkpt>
      <trkpt lat="50.34228" lon="3.23571">
        <ele>29.5</ele>
        <time>2023-01-22T09:12:33Z</time>
      </trkpt>
      <trkpt lat="50.34228" lon="3.2357">
        <ele>29.5</ele>
        <time>2023-01-22T09:12:34Z</time>
      </trkpt>
      <trkpt lat="50.34228" lon="3.23568">
        <ele>29.5</ele>
        <time>2023-01-22T09:12:35Z</time>
      </trkpt>
      <trkpt lat="50.34228" lon="3.23566">
        <ele>29.6</ele>
        <time>2023-01-22T09:12:36Z</time>
      </trkpt>
      <trkpt lat="50.34229" lon="3.23565">
        <ele>29.6</ele>
        <time>2023-01-22T09:12:37Z</time>
      </trkpt>
      <trkpt lat="50.34229" lon="3.23563">
        <ele>29.6</ele>
        <time>2023-01-22T09:12:38Z</time>
      </trkpt>
      <trkpt lat="50.3423" lon="3.23561">
        <ele>29.6</ele>
        <time>2023-01-22T09:12:39Z</time>
      </trkpt>
      <trkpt lat="50.3423" lon="3.23559">
        <ele>23.04654</ele>
        <time>2023-01-22T09:12:40Z</time>
      </trkpt>
      <trkpt lat="50.3423" lon="3.23558">
        <ele>29.7</ele>
        <time>2023-01-22T09:12:41Z</time>
      </trkpt>
      <trkpt lat="50.34231" lon="3.23556">
        <ele>29.7</ele>
        <time>2023-01-22T09:12:42Z</time>
      </trkpt>
      <trkpt lat="50.34232" lon="3.23555">
        <ele>29.7</ele>
        <time>2023-01-22T09:12:43Z</time>
      </trkpt>
      <trkpt lat="50.34233" lon="3.23554">
        <ele>29.6</ele>
        <time>2023-01-22T09:12:44Z</time>
      </trkpt>
      <trkpt lat="50.34234" lon="3.23552">
        <ele>29.6</ele>
        <time>2023-01-22T09:12:45Z</time>
      </trkpt>
      <trkpt lat="50.34235" lon="3.2355">
        <ele>29.6</ele>
        <time>2023-01-22T09:12:46Z</time>
      </trkpt>
      <trkpt lat="50.34236" lon="3.23549">
        <ele>29.6</ele>
        <time>2023-01-22T09:12:47Z</time>
      </trkpt>
      <trkpt lat="50.34237" lon="3.23547">
        <ele>29.6</ele>
        <time>2023-01-22T09:12:48Z</time>
      </trkpt>
      <trkpt lat="50.34239" lon="3.23545">
        <ele>29.6</ele>
        <time>2023-01-22T09:12:49Z</time>
      </trkpt>
      <trkpt lat="50.34241" lon="3.23544">
        <ele>23.30458</ele>
        <time>2023-01-22T09:12:50Z</time>
      </trkpt>
      <trkpt lat="50.34241" lon="3.23542">
        <ele>29.6</ele>
        <time>2023-01-22T09:12:51Z</time>
      </trkpt>
      <trkpt lat="50.34242" lon="3.23541">
        <ele>29.7</ele>
        <time>2023-01-22T09:12:52Z</time>
      </trkpt>
      <trkpt lat="50.34243" lon="3.23539">
        <ele>29.7</ele>
        <time>2023-01-22T09:12:53Z</time>
      </trkpt>
      <trkpt lat="50.34243" lon="3.23538">
        <ele>29.7</ele>
        <time>2023-01-22T09:12:54Z</time>
      </trkpt>
      <trkpt lat="50.34244" lon="3.23536">
        <ele>29.8</ele>
        <time>2023-01-22T09:12:55Z</time>
      </trkpt>
      <trkpt lat="50.34245" lon="3.23534">
        <ele>29.8</ele>
        <time>2023-01-22T09:12:56Z</time>
      </trkpt>
      <trkpt lat="50.34246" lon="3.23532">
        <ele>29.9</ele>
        <time>2023-01-22T09:12:57Z</time>
      </trkpt>
      <trkpt lat="50.34247" lon="3.2353">
        <ele>29.9</ele>
        <time>2023-01-22T09:12:58Z</time>
      </trkpt>
      <trkpt lat="50.34248" lon="3.23527">
        <ele>30</ele>
        <time>2023-01-22T09:12:59Z</time>
      </trkpt>
      <trkpt lat="50.34248" lon="3.23525">
        <ele>23.37668</ele>
        <time>2023-01-22T09:13:00Z</time>
      </trkpt>
      <trkpt lat="50.34248" lon="3.23524">
        <ele>30</ele>
        <time>2023-01-22T09:13:01Z</time>
      </trkpt>
      <trkpt lat="50.34249" lon="3.23522">
        <ele>30</ele>
        <time>2023-01-22T09:13:02Z</time>
      </trkpt>
      <trkpt lat="50.34249" lon="3.2352">
        <ele>30</ele>
        <time>2023-01-22T09:13:03Z</time>
      </trkpt>
      <trkpt lat="50.34249" lon="3.23519">
        <ele>30</ele>
        <time>2023-01-22T09:13:04Z</time>
      </trkpt>
      <trkpt lat="50.34249" lon="3.23518">
        <ele>30</ele>
        <time>2023-01-22T09:13:05Z</time>
      </trkpt>
      <trkpt lat="50.34249" lon="3.23517">
        <ele>30</ele>
        <time>2023-01-22T09:13:06Z</time>
      </trkpt>
      <trkpt lat="50.34249" lon="3.23516">
        <ele>30</ele>
        <time>2023-01-22T09:13:07Z</time>
      </trkpt>
      <trkpt lat="50.34249" lon="3.23515">
        <ele>30</ele>
        <time>2023-01-22T09:13:08Z</time>
      </trkpt>
      <trkpt lat="50.34249" lon="3.23513">
        <ele>30</ele>
        <time>2023-01-22T09:13:09Z</time>
      </trkpt>
      <trkpt lat="50.34248" lon="3.23511">
        <ele>23.206865</ele>
        <time>2023-01-22T09:13:10Z</time>
      </trkpt>
      <trkpt lat="50.34248" lon="3.2351">
        <ele>30</ele>
        <time>2023-01-22T09:13:11Z</time>
      </trkpt>
      <trkpt lat="50.34248" lon="3.2351">
        <ele>30</ele>
        <time>2023-01-22T09:13:12Z</time>
      </trkpt>
      <trkpt lat="50.34248" lon="3.2351">
        <ele>30</ele>
        <time>2023-01-22T09:13:13Z</time>
      </trkpt>
      <trkpt lat="50.34248" lon="3.2351">
        <ele>30</ele>
        <time>2023-01-22T09:13:14Z</time>
      </trkpt>
      <trkpt lat="50.34248" lon="3.23509">
        <ele>30</ele>
        <time>2023-01-22T09:13:15Z</time>
      </trkpt>
      <trkpt lat="50.34248" lon="3.23509">
        <ele>30</ele>
        <time>2023-01-22T09:13:16Z</time>
      </trkpt>
      <trkpt lat="50.34248" lon="3.23509">
        <ele>30</ele>
        <time>2023-01-22T09:13:17Z</time>
      </trkpt>
      <trkpt lat="50.34248" lon="3.23509">
        <ele>30</ele>
        <time>2023-01-22T09:13:18Z</time>
      </trkpt>
      <trkpt lat="50.34248" lon="3.23509">
        <ele>30</ele>
        <time>2023-01-22T09:13:19Z</time>
      </trkpt>
      <trkpt lat="50.34248" lon="3.23509">
        <ele>23.123383</ele>
        <time>2023-01-22T09:13:20Z</time>
      </trkpt>
      <trkpt lat="50.34248" lon="3.23509">
        <ele>30</ele>
        <time>2023-01-22T09:13:21Z</time>
      </trkpt>
      <trkpt lat="50.34248" lon="3.23509">
        <ele>30</ele>
        <time>2023-01-22T09:13:22Z</time>
      </trkpt>
      <trkpt lat="50.34248" lon="3.23509">
        <ele>30</ele>
        <time>2023-01-22T09:13:23Z</time>
      </trkpt>
      <trkpt lat="50.34248" lon="3.23509">
        <ele>30</ele>
        <time>2023-01-22T09:13:24Z</time>
      </trkpt>
      <trkpt lat="50.34247" lon="3.23509">
        <ele>30</ele>
        <time>2023-01-22T09:13:25Z</time>
      </trkpt>
      <trkpt lat="50.34247" lon="3.23509">
        <ele>30</ele>
        <time>2023-01-22T09:13:26Z</time>
      </trkpt>
      <trkpt lat="50.34247" lon="3.23509">
        <ele>30</ele>
        <time>2023-01-22T09:13:27Z</time>
      </trkpt>
      <trkpt lat="50.34247" lon="3.23509">
        <ele>30</ele>
        <time>2023-01-22T09:13:28Z</time>
      </trkpt>
      <trkpt lat="50.34247" lon="3.23509">
        <ele>30</ele>
        <time>2023-01-22T09:13:29Z</time>
      </trkpt>
      <trkpt lat="50.34247" lon="3.23509">
        <ele>23.120537</ele>
        <time>2023-01-22T09:13:30Z</time>
      </trkpt>
      <trkpt lat="50.34247" lon="3.23508">
        <ele>30</ele>
        <time>2023-01-22T09:13:31Z</time>
      </trkpt>
      <trkpt lat="50.34247" lon="3.23508">
        <ele>30</ele>
        <time>2023-01-22T09:13:32Z</time>
      </trkpt>
      <trkpt lat="50.34247" lon="3.23508">
        <ele>30</ele>
        <time>2023-01-22T09:13:33Z</time>
      </trkpt>
      <trkpt lat="50.34247" lon="3.23508">
        <ele>30</ele>
        <time>2023-01-22T09:13:34Z</time>
      </trkpt>
      <trkpt lat="50.34247" lon="3.23508">
        <ele>30</ele>
        <time>2023-01-22T09:13:35Z</time>
      </trkpt>
      <trkpt lat="50.34247" lon="3.23508">
        <ele>30</ele>
        <time>2023-01-22T09:13:36Z</time>
      </trkpt>
      <trkpt lat="50.34247" lon="3.23508">
        <ele>30</ele>
        <time>2023-01-22T09:13:37Z</time>
      </trkpt>
      <trkpt lat="50.34247" lon="3.23508">
        <ele>30</ele>
        <time>2023-01-22T09:13:38Z</time>
      </trkpt>
      <trkpt lat="50.34247" lon="3.23508">
        <ele>30</ele>
        <time>2023-01-22T09:13:39Z</time>
      </trkpt>
      <trkpt lat="50.34247" lon="3.23508">
        <ele>23.113895</ele>
        <time>2023-01-22T09:13:40Z</time>
      </trkpt>
      <trkpt lat="50.34247" lon="3.23508">
        <ele>30</ele>
        <time>2023-01-22T09:13:41Z</time>
      </trkpt>
      <trkpt lat="50.34247" lon="3.23509">
        <ele>30</ele>
        <time>2023-01-22T09:13:42Z</time>
      </trkpt>
      <trkpt lat="50.34247" lon="3.23509">
        <ele>30</ele>
        <time>2023-01-22T09:13:43Z</time>
      </trkpt>
      <trkpt lat="50.34247" lon="3.23508">
        <ele>30</ele>
        <time>2023-01-22T09:13:44Z</time>
      </trkpt>
      <trkpt lat="50.34247" lon="3.23509">
        <ele>30</ele>
        <time>2023-01-22T09:13:45Z</time>
      </trkpt>
      <trkpt lat="50.34246" lon="3.23508">
        <ele>30</ele>
        <time>2023-01-22T09:13:46Z</time>
      </trkpt>
      <trkpt lat="50.34245" lon="3.23507">
        <ele>30</ele>
        <time>2023-01-22T09:13:47Z</time>
      </trkpt>
      <trkpt lat="50.34245" lon="3.23507">
        <ele>30</ele>
        <time>2023-01-22T09:13:48Z</time>
      </trkpt>
      <trkpt lat="50.34244" lon="3.23506">
        <ele>30</ele>
        <time>2023-01-22T09:13:49Z</time>
      </trkpt>
      <trkpt lat="50.34243" lon="3.23504">
        <ele>22.998158</ele>
        <time>2023-01-22T09:13:50Z</time>
      </trkpt>
      <trkpt lat="50.34242" lon="3.23503">
        <ele>30</ele>
        <time>2023-01-22T09:13:51Z</time>
      </trkpt>
      <trkpt lat="50.34241" lon="3.23501">
        <ele>30</ele>
        <time>2023-01-22T09:13:52Z</time>
      </trkpt>
      <trkpt lat="50.3424" lon="3.23499">
        <ele>30</ele>
        <time>2023-01-22T09:13:53Z</time>
      </trkpt>
      <trkpt lat="50.34239" lon="3.23498">
        <ele>29.9</ele>
        <time>2023-01-22T09:13:54Z</time>
      </trkpt>
      <trkpt lat="50.34238" lon="3.23497">
        <ele>29.9</ele>
        <time>2023-01-22T09:13:55Z</time>
      </trkpt>
      <trkpt lat="50.34237" lon="3.23495">
        <ele>29.8</ele>
        <time>2023-01-22T09:13:56Z</time>
      </trkpt>
      <trkpt lat="50.34237" lon="3.23494">
        <ele>29.8</ele>
        <time>2023-01-22T09:13:57Z</time>
      </trkpt>
      <trkpt lat="50.34235" lon="3.23492">
        <ele>29.7</ele>
        <time>2023-01-22T09:13:58Z</time>
      </trkpt>
      <trkpt lat="50.34234" lon="3.23491">
        <ele>29.7</ele>
        <time>2023-01-22T09:13:59Z</time>
      </trkpt>
      <trkpt lat="50.34233" lon="3.23489">
        <ele>22.647154</ele>
        <time>2023-01-22T09:14:00Z</time>
      </trkpt>
      <trkpt lat="50.34232" lon="3.23488">
        <ele>29.6</ele>
        <time>2023-01-22T09:14:01Z</time>
      </trkpt>
      <trkpt lat="50.3423" lon="3.23487">
        <ele>29.5</ele>
        <time>2023-01-22T09:14:02Z</time>
      </trkpt>
      <trkpt lat="50.3423" lon="3.23485">
        <ele>29.5</ele>
        <time>2023-01-22T09:14:03Z</time>
      </trkpt>
      <trkpt lat="50.34229" lon="3.23484">
        <ele>29.4</ele>
        <time>2023-01-22T09:14:04Z</time>
      </trkpt>
      <trkpt lat="50.34227" lon="3.23483">
        <ele>29.4</ele>
        <time>2023-01-22T09:14:05Z</time>
      </trkpt>
      <trkpt lat="50.34226" lon="3.23483">
        <ele>29.4</ele>
        <time>2023-01-22T09:14:06Z</time>
      </trkpt>
      <trkpt lat="50.34224" lon="3.23483">
        <ele>29.4</ele>
        <time>2023-01-22T09:14:07Z</time>
      </trkpt>
      <trkpt lat="50.34223" lon="3.23483">
        <ele>29.4</ele>
        <time>2023-01-22T09:14:08Z</time>
      </trkpt>
      <trkpt lat="50.34221" lon="3.23482">
        <ele>29.4</ele>
        <time>2023-01-22T09:14:09Z</time>
      </trkpt>
      <trkpt lat="50.3422" lon="3.23482">
        <ele>22.547546</ele>
        <time>2023-01-22T09:14:10Z</time>
      </trkpt>
      <trkpt lat="50.34219" lon="3.23481">
        <ele>29.3</ele>
        <time>2023-01-22T09:14:11Z</time>
      </trkpt>
      <trkpt lat="50.34219" lon="3.2348">
        <ele>29.3</ele>
        <time>2023-01-22T09:14:12Z</time>
      </trkpt>
      <trkpt lat="50.34218" lon="3.2348">
        <ele>29.3</ele>
        <time>2023-01-22T09:14:13Z</time>
      </trkpt>
      <trkpt lat="50.34217" lon="3.23479">
        <ele>29.2</ele>
        <time>2023-01-22T09:14:14Z</time>
      </trkpt>
      <trkpt lat="50.34216" lon="3.23478">
        <ele>29.2</ele>
        <time>2023-01-22T09:14:15Z</time>
      </trkpt>
      <trkpt lat="50.34215" lon="3.23477">
        <ele>29.2</ele>
        <time>2023-01-22T09:14:16Z</time>
      </trkpt>
      <trkpt lat="50.34214" lon="3.23476">
        <ele>29.1</ele>
        <time>2023-01-22T09:14:17Z</time>
      </trkpt>
      <trkpt lat="50.34213" lon="3.23475">
        <ele>29.1</ele>
        <time>2023-01-22T09:14:18Z</time>
      </trkpt>
      <trkpt lat="50.34211" lon="3.23473">
        <ele>29</ele>
        <time>2023-01-22T09:14:19Z</time>
      </trkpt>
      <trkpt lat="50.34211" lon="3.23471">
        <ele>22.493473</ele>
        <time>2023-01-22T09:14:20Z</time>
      </trkpt>
      <trkpt lat="50.34209" lon="3.2347">
        <ele>28.9</ele>
        <time>2023-01-22T09:14:21Z</time>
      </trkpt>
      <trkpt lat="50.34209" lon="3.23468">
        <ele>28.9</ele>
        <time>2023-01-22T09:14:22Z</time>
      </trkpt>
      <trkpt lat="50.34208" lon="3.23467">
        <ele>28.8</ele>
        <time>2023-01-22T09:14:23Z</time>
      </trkpt>
      <trkpt lat="50.34206" lon="3.23466">
        <ele>28.8</ele>
        <time>2023-01-22T09:14:24Z</time>
      </trkpt>
      <trkpt lat="50.34206" lon="3.23464">
        <ele>28.7</ele>
        <time>2023-01-22T09:14:25Z</time>
      </trkpt>
      <trkpt lat="50.34205" lon="3.23464">
        <ele>28.7</ele>
        <time>2023-01-22T09:14:26Z</time>
      </trkpt>
      <trkpt lat="50.34203" lon="3.23462">
        <ele>28.6</ele>
        <time>2023-01-22T09:14:27Z</time>
      </trkpt>
      <trkpt lat="50.34202" lon="3.2346">
        <ele>28.6</ele>
        <time>2023-01-22T09:14:28Z</time>
      </trkpt>
      <trkpt lat="50.34201" lon="3.23459">
        <ele>28.5</ele>
        <time>2023-01-22T09:14:29Z</time>
      </trkpt>
      <trkpt lat="50.342" lon="3.23457">
        <ele>22.367304</ele>
        <time>2023-01-22T09:14:30Z</time>
      </trkpt>
      <trkpt lat="50.34199" lon="3.23455">
        <ele>28.4</ele>
        <time>2023-01-22T09:14:31Z</time>
      </trkpt>
      <trkpt lat="50.34198" lon="3.23454">
        <ele>28.3</ele>
        <time>2023-01-22T09:14:32Z</time>
      </trkpt>
      <trkpt lat="50.34197" lon="3.23453">
        <ele>28.3</ele>
        <time>2023-01-22T09:14:33Z</time>
      </trkpt>
      <trkpt lat="50.34196" lon="3.23451">
        <ele>28.2</ele>
        <time>2023-01-22T09:14:34Z</time>
      </trkpt>
      <trkpt lat="50.34195" lon="3.2345">
        <ele>28.2</ele>
        <time>2023-01-22T09:14:35Z</time>
      </trkpt>
      <trkpt lat="50.34194" lon="3.23449">
        <ele>28.2</ele>
        <time>2023-01-22T09:14:36Z</time>
      </trkpt>
      <trkpt lat="50.34193" lon="3.23448">
        <ele>28.1</ele>
        <time>2023-01-22T09:14:37Z</time>
      </trkpt>
      <trkpt lat="50.34192" lon="3.23447">
        <ele>28.1</ele>
        <time>2023-01-22T09:14:38Z</time>
      </trkpt>
      <trkpt lat="50.3419" lon="3.23446">
        <ele>28.1</ele>
        <time>2023-01-22T09:14:39Z</time>
      </trkpt>
      <trkpt lat="50.34189" lon="3.23446">
        <ele>22.365406</ele>
        <time>2023-01-22T09:14:40Z</time>
      </trkpt>
      <trkpt lat="50.34188" lon="3.23445">
        <ele>28</ele>
        <time>2023-01-22T09:14:41Z</time>
      </trkpt>
      <trkpt lat="50.34187" lon="3.23444">
        <ele>28</ele>
        <time>2023-01-22T09:14:42Z</time>
      </trkpt>
      <trkpt lat="50.34185" lon="3.23444">
        <ele>28</ele>
        <time>2023-01-22T09:14:43Z</time>
      </trkpt>
      <trkpt lat="50.34184" lon="3.23443">
        <ele>28</ele>
        <time>2023-01-22T09:14:44Z</time>
      </trkpt>
      <trkpt lat="50.34182" lon="3.23442">
        <ele>28</ele>
        <time>2023-01-22T09:14:45Z</time>
      </trkpt>
      <trkpt lat="50.3418" lon="3.23442">
        <ele>28</ele>
        <time>2023-01-22T09:14:46Z</time>
      </trkpt>
      <trkpt lat="50.34179" lon="3.23441">
        <ele>28</ele>
        <time>2023-01-22T09:14:47Z</time>
      </trkpt>
      <trkpt lat="50.34177" lon="3.23441">
        <ele>28</ele>
        <time>2023-01-22T09:14:48Z</time>
      </trkpt>
      <trkpt lat="50.34175" lon="3.23441">
        <ele>28</ele>
        <time>2023-01-22T09:14:49Z</time>
      </trkpt>
      <trkpt lat="50.34174" lon="3.23439">
        <ele>22.322718</ele>
        <time>2023-01-22T09:14:50Z</time>
      </trkpt>
      <trkpt lat="50.34171" lon="3.23441">
        <ele>28</ele>
        <time>2023-01-22T09:14:51Z</time>
      </trkpt>
      <trkpt lat="50.3417" lon="3.23442">
        <ele>28</ele>
        <time>2023-01-22T09:14:52Z</time>
      </trkpt>
      <trkpt lat="50.34168" lon="3.23442">
        <ele>28</ele>
        <time>2023-01-22T09:14:53Z</time>
      </trkpt>
      <trkpt lat="50.34167" lon="3.23442">
        <ele>28</ele>
        <time>2023-01-22T09:14:54Z</time>
      </trkpt>
      <trkpt lat="50.34165" lon="3.23441">
        <ele>28</ele>
        <time>2023-01-22T09:14:55Z</time>
      </trkpt>
      <trkpt lat="50.34164" lon="3.23441">
        <ele>28</ele>
        <time>2023-01-22T09:14:56Z</time>
      </trkpt>
      <trkpt lat="50.34163" lon="3.23441">
        <ele>28</ele>
        <time>2023-01-22T09:14:57Z</time>
      </trkpt>
      <trkpt lat="50.34161" lon="3.2344">
        <ele>28</ele>
        <time>2023-01-22T09:14:58Z</time>
      </trkpt>
      <trkpt lat="50.3416" lon="3.2344">
        <ele>28</ele>
        <time>2023-01-22T09:14:59Z</time>
      </trkpt>
      <trkpt lat="50.34158" lon="3.2344">
        <ele>22.111172</ele>
        <time>2023-01-22T09:15:00Z</time>
      </trkpt>
      <trkpt lat="50.34156" lon="3.23439">
        <ele>28</ele>
        <time>2023-01-22T09:15:01Z</time>
      </trkpt>
      <trkpt lat="50.34155" lon="3.23439">
        <ele>28</ele>
        <time>2023-01-22T09:15:02Z</time>
      </trkpt>
      <trkpt lat="50.34153" lon="3.23438">
        <ele>28</ele>
        <time>2023-01-22T09:15:03Z</time>
      </trkpt>
      <trkpt lat="50.34152" lon="3.23439">
        <ele>28</ele>
        <time>2023-01-22T09:15:04Z</time>
      </trkpt>
      <trkpt lat="50.34152" lon="3.23439">
        <ele>28</ele>
        <time>2023-01-22T09:15:05Z</time>
      </trkpt>
      <trkpt lat="50.34151" lon="3.23439">
        <ele>28</ele>
        <time>2023-01-22T09:15:06Z</time>
      </trkpt>
      <trkpt lat="50.3415" lon="3.23439">
        <ele>28</ele>
        <time>2023-01-22T09:15:07Z</time>
      </trkpt>
      <trkpt lat="50.3415" lon="3.2344">
        <ele>28</ele>
        <time>2023-01-22T09:15:08Z</time>
      </trkpt>
      <trkpt lat="50.3415" lon="3.2344">
        <ele>28</ele>
        <time>2023-01-22T09:15:09Z</time>
      </trkpt>
      <trkpt lat="50.3415" lon="3.2344">
        <ele>22.09315</ele>
        <time>2023-01-22T09:15:10Z</time>
      </trkpt>
      <trkpt lat="50.34149" lon="3.23441">
        <ele>28</ele>
        <time>2023-01-22T09:15:11Z</time>
      </trkpt>
      <trkpt lat="50.34149" lon="3.23443">
        <ele>28</ele>
        <time>2023-01-22T09:15:12Z</time>
      </trkpt>
      <trkpt lat="50.34149" lon="3.23445">
        <ele>28</ele>
        <time>2023-01-22T09:15:13Z</time>
      </trkpt>
      <trkpt lat="50.34149" lon="3.23448">
        <ele>28</ele>
        <time>2023-01-22T09:15:14Z</time>
      </trkpt>
      <trkpt lat="50.34149" lon="3.2345">
        <ele>28.1</ele>
        <time>2023-01-22T09:15:15Z</time>
      </trkpt>
      <trkpt lat="50.3415" lon="3.23453">
        <ele>28.1</ele>
        <time>2023-01-22T09:15:16Z</time>
      </trkpt>
      <trkpt lat="50.3415" lon="3.23456">
        <ele>28.2</ele>
        <time>2023-01-22T09:15:17Z</time>
      </trkpt>
      <trkpt lat="50.34149" lon="3.23461">
        <ele>28.2</ele>
        <time>2023-01-22T09:15:18Z</time>
      </trkpt>
      <trkpt lat="50.34148" lon="3.23466">
        <ele>28.3</ele>
        <time>2023-01-22T09:15:19Z</time>
      </trkpt>
      <trkpt lat="50.34147" lon="3.23471">
        <ele>22.384378</ele>
        <time>2023-01-22T09:15:20Z</time>
      </trkpt>
      <trkpt lat="50.34147" lon="3.23475">
        <ele>28.4</ele>
        <time>2023-01-22T09:15:21Z</time>
      </trkpt>
      <trkpt lat="50.34147" lon="3.23477">
        <ele>28.4</ele>
        <time>2023-01-22T09:15:22Z</time>
      </trkpt>
      <trkpt lat="50.34148" lon="3.23479">
        <ele>28.5</ele>
        <time>2023-01-22T09:15:23Z</time>
      </trkpt>
      <trkpt lat="50.34149" lon="3.23481">
        <ele>28.6</ele>
        <time>2023-01-22T09:15:24Z</time>
      </trkpt>
      <trkpt lat="50.34149" lon="3.23483">
        <ele>28.6</ele>
        <time>2023-01-22T09:15:25Z</time>
      </trkpt>
      <trkpt lat="50.3415" lon="3.23485">
        <ele>28.7</ele>
        <time>2023-01-22T09:15:26Z</time>
      </trkpt>
      <trkpt lat="50.34151" lon="3.23487">
        <ele>28.7</ele>
        <time>2023-01-22T09:15:27Z</time>
      </trkpt>
      <trkpt lat="50.34152" lon="3.23489">
        <ele>28.8</ele>
        <time>2023-01-22T09:15:28Z</time>
      </trkpt>
      <trkpt lat="50.34152" lon="3.2349">
        <ele>28.8</ele>
        <time>2023-01-22T09:15:29Z</time>
      </trkpt>
      <trkpt lat="50.34153" lon="3.23492">
        <ele>23.024721</ele>
        <time>2023-01-22T09:15:30Z</time>
      </trkpt>
      <trkpt lat="50.34154" lon="3.23494">
        <ele>28.9</ele>
        <time>2023-01-22T09:15:31Z</time>
      </trkpt>
      <trkpt lat="50.34155" lon="3.23495">
        <ele>28.9</ele>
        <time>2023-01-22T09:15:32Z</time>
      </trkpt>
      <trkpt lat="50.34156" lon="3.23497">
        <ele>29</ele>
        <time>2023-01-22T09:15:33Z</time>
      </trkpt>
      <trkpt lat="50.34156" lon="3.23499">
        <ele>29</ele>
        <time>2023-01-22T09:15:34Z</time>
      </trkpt>
      <trkpt lat="50.34157" lon="3.235">
        <ele>29</ele>
        <time>2023-01-22T09:15:35Z</time>
      </trkpt>
      <trkpt lat="50.34157" lon="3.23503">
        <ele>29</ele>
        <time>2023-01-22T09:15:36Z</time>
      </trkpt>
      <trkpt lat="50.34158" lon="3.23504">
        <ele>29</ele>
        <time>2023-01-22T09:15:37Z</time>
      </trkpt>
      <trkpt lat="50.34158" lon="3.23505">
        <ele>29</ele>
        <time>2023-01-22T09:15:38Z</time>
      </trkpt>
      <trkpt lat="50.34158" lon="3.23506">
        <ele>29</ele>
        <time>2023-01-22T09:15:39Z</time>
      </trkpt>
      <trkpt lat="50.3416" lon="3.23508">
        <ele>23.428858</ele>
        <time>2023-01-22T09:15:40Z</time>
      </trkpt>
      <trkpt lat="50.3416" lon="3.2351">
        <ele>29</ele>
        <time>2023-01-22T09:15:41Z</time>
      </trkpt>
      <trkpt lat="50.34161" lon="3.23511">
        <ele>29</ele>
        <time>2023-01-22T09:15:42Z</time>
      </trkpt>
      <trkpt lat="50.34162" lon="3.23512">
        <ele>29</ele>
        <time>2023-01-22T09:15:43Z</time>
      </trkpt>
      <trkpt lat="50.34163" lon="3.23513">
        <ele>29</ele>
        <time>2023-01-22T09:15:44Z</time>
      </trkpt>
      <trkpt lat="50.34164" lon="3.23515">
        <ele>29</ele>
        <time>2023-01-22T09:15:45Z</time>
      </trkpt>
      <trkpt lat="50.34166" lon="3.23516">
        <ele>29</ele>
        <time>2023-01-22T09:15:46Z</time>
      </trkpt>
      <trkpt lat="50.34166" lon="3.23517">
        <ele>29</ele>
        <time>2023-01-22T09:15:47Z</time>
      </trkpt>
      <trkpt lat="50.34167" lon="3.23519">
        <ele>29</ele>
        <time>2023-01-22T09:15:48Z</time>
      </trkpt>
      <trkpt lat="50.34168" lon="3.2352">
        <ele>29.1</ele>
        <time>2023-01-22T09:15:49Z</time>
      </trkpt>
      <trkpt lat="50.34169" lon="3.23521">
        <ele>23.888027</ele>
        <time>2023-01-22T09:15:50Z</time>
      </trkpt>
      <trkpt lat="50.34169" lon="3.23522">
        <ele>29.1</ele>
        <time>2023-01-22T09:15:51Z</time>
      </trkpt>
      <trkpt lat="50.34169" lon="3.23524">
        <ele>29.1</ele>
        <time>2023-01-22T09:15:52Z</time>
      </trkpt>
      <trkpt lat="50.3417" lon="3.23526">
        <ele>29.1</ele>
        <time>2023-01-22T09:15:53Z</time>
      </trkpt>
      <trkpt lat="50.34171" lon="3.23527">
        <ele>29.1</ele>
        <time>2023-01-22T09:15:54Z</time>
      </trkpt>
      <trkpt lat="50.34171" lon="3.23528">
        <ele>29.2</ele>
        <time>2023-01-22T09:15:55Z</time>
      </trkpt>
      <trkpt lat="50.34172" lon="3.23529">
        <ele>29.2</ele>
        <time>2023-01-22T09:15:56Z</time>
      </trkpt>
      <trkpt lat="50.34173" lon="3.23531">
        <ele>29.3</ele>
        <time>2023-01-22T09:15:57Z</time>
      </trkpt>
      <trkpt lat="50.34174" lon="3.23533">
        <ele>29.4</ele>
        <time>2023-01-22T09:15:58Z</time>
      </trkpt>
      <trkpt lat="50.34176" lon="3.23535">
        <ele>29.5</ele>
        <time>2023-01-22T09:15:59Z</time>
      </trkpt>
      <trkpt lat="50.34176" lon="3.23536">
        <ele>24.08536</ele>
        <time>2023-01-22T09:16:00Z</time>
      </trkpt>
      <trkpt lat="50.34177" lon="3.23537">
        <ele>29.6</ele>
        <time>2023-01-22T09:16:01Z</time>
      </trkpt>
      <trkpt lat="50.34177" lon="3.23539">
        <ele>29.6</ele>
        <time>2023-01-22T09:16:02Z</time>
      </trkpt>
      <trkpt lat="50.34177" lon="3.23541">
        <ele>29.7</ele>
        <time>2023-01-22T09:16:03Z</time>
      </trkpt>
      <trkpt lat="50.34178" lon="3.23543">
        <ele>29.7</ele>
        <time>2023-01-22T09:16:04Z</time>
      </trkpt>
      <trkpt lat="50.34179" lon="3.23545">
        <ele>29.8</ele>
        <time>2023-01-22T09:16:05Z</time>
      </trkpt>
      <trkpt lat="50.34179" lon="3.23547">
        <ele>29.8</ele>
        <time>2023-01-22T09:16:06Z</time>
      </trkpt>
      <trkpt lat="50.3418" lon="3.23548">
        <ele>29.9</ele>
        <time>2023-01-22T09:16:07Z</time>
      </trkpt>
      <trkpt lat="50.34181" lon="3.23551">
        <ele>29.9</ele>
        <time>2023-01-22T09:16:08Z</time>
      </trkpt>
      <trkpt lat="50.34181" lon="3.23553">
        <ele>30</ele>
        <time>2023-01-22T09:16:09Z</time>
      </trkpt>
      <trkpt lat="50.34181" lon="3.23555">
        <ele>24.341515</ele>
        <time>2023-01-22T09:16:10Z</time>
      </trkpt>
      <trkpt lat="50.34182" lon="3.23557">
        <ele>30</ele>
        <time>2023-01-22T09:16:11Z</time>
      </trkpt>
      <trkpt lat="50.34182" lon="3.23558">
        <ele>29.9</ele>
        <time>2023-01-22T09:16:12Z</time>
      </trkpt>
      <trkpt lat="50.34183" lon="3.2356">
        <ele>29.9</ele>
        <time>2023-01-22T09:16:13Z</time>
      </trkpt>
      <trkpt lat="50.34184" lon="3.2356">
        <ele>29.9</ele>
        <time>2023-01-22T09:16:14Z</time>
      </trkpt>
      <trkpt lat="50.34184" lon="3.23562">
        <ele>29.9</ele>
        <time>2023-01-22T09:16:15Z</time>
      </trkpt>
      <trkpt lat="50.34185" lon="3.23564">
        <ele>29.8</ele>
        <time>2023-01-22T09:16:16Z</time>
      </trkpt>
      <trkpt lat="50.34186" lon="3.23566">
        <ele>29.7</ele>
        <time>2023-01-22T09:16:17Z</time>
      </trkpt>
      <trkpt lat="50.34187" lon="3.23567">
        <ele>29.7</ele>
        <time>2023-01-22T09:16:18Z</time>
      </trkpt>
      <trkpt lat="50.34188" lon="3.23569">
        <ele>29.6</ele>
        <time>2023-01-22T09:16:19Z</time>
      </trkpt>
      <trkpt lat="50.34189" lon="3.23571">
        <ele>24.689701</ele>
        <time>2023-01-22T09:16:20Z</time>
      </trkpt>
      <trkpt lat="50.34189" lon="3.23573">
        <ele>29.5</ele>
        <time>2023-01-22T09:16:21Z</time>
      </trkpt>
      <trkpt lat="50.34189" lon="3.23575">
        <ele>29.4</ele>
        <time>2023-01-22T09:16:22Z</time>
      </trkpt>
      <trkpt lat="50.34189" lon="3.23577">
        <ele>29.4</ele>
        <time>2023-01-22T09:16:23Z</time>
      </trkpt>
      <trkpt lat="50.34189" lon="3.23579">
        <ele>29.3</ele>
        <time>2023-01-22T09:16:24Z</time>
      </trkpt>
      <trkpt lat="50.34189" lon="3.2358">
        <ele>29.3</ele>
        <time>2023-01-22T09:16:25Z</time>
      </trkpt>
      <trkpt lat="50.34189" lon="3.23582">
        <ele>29.2</ele>
        <time>2023-01-22T09:16:26Z</time>
      </trkpt>
      <trkpt lat="50.34189" lon="3.23583">
        <ele>29.2</ele>
        <time>2023-01-22T09:16:27Z</time>
      </trkpt>
      <trkpt lat="50.34189" lon="3.23585">
        <ele>29.3</ele>
        <time>2023-01-22T09:16:28Z</time>
      </trkpt>
      <trkpt lat="50.34189" lon="3.23585">
        <ele>29.3</ele>
        <time>2023-01-22T09:16:29Z</time>
      </trkpt>
      <trkpt lat="50.34189" lon="3.23585">
        <ele>25.426888</ele>
        <time>2023-01-22T09:16:30Z</time>
      </trkpt>
      <trkpt lat="50.34189" lon="3.23585">
        <ele>29.3</ele>
        <time>2023-01-22T09:16:31Z</time>
      </trkpt>
      <trkpt lat="50.34189" lon="3.23585">
        <ele>29.3</ele>
        <time>2023-01-22T09:16:32Z</time>
      </trkpt>
      <trkpt lat="50.34189" lon="3.23585">
        <ele>29.3</ele>
        <time>2023-01-22T09:16:33Z</time>
      </trkpt>
      <trkpt lat="50.34189" lon="3.23585">
        <ele>29.3</ele>
        <time>2023-01-22T09:16:34Z</time>
      </trkpt>
      <trkpt lat="50.34188" lon="3.23585">
        <ele>29.3</ele>
        <time>2023-01-22T09:16:35Z</time>
      </trkpt>
      <trkpt lat="50.34187" lon="3.23586">
        <ele>29.4</ele>
        <time>2023-01-22T09:16:36Z</time>
      </trkpt>
      <trkpt lat="50.34186" lon="3.23587">
        <ele>29.5</ele>
        <time>2023-01-22T09:16:37Z</time>
      </trkpt>
      <trkpt lat="50.34185" lon="3.23589">
        <ele>29.6</ele>
        <time>2023-01-22T09:16:38Z</time>
      </trkpt>
      <trkpt lat="50.34185" lon="3.2359">
        <ele>29.7</ele>
        <time>2023-01-22T09:16:39Z</time>
      </trkpt>
      <trkpt lat="50.34184" lon="3.23591">
        <ele>26.321602</ele>
        <time>2023-01-22T09:16:40Z</time>
      </trkpt>
      <trkpt lat="50.34183" lon="3.23592">
        <ele>29.8</ele>
        <time>2023-01-22T09:16:41Z</time>
      </trkpt>
      <trkpt lat="50.34182" lon="3.23593">
        <ele>29.8</ele>
        <time>2023-01-22T09:16:42Z</time>
      </trkpt>
      <trkpt lat="50.34182" lon="3.23595">
        <ele>29.9</ele>
        <time>2023-01-22T09:16:43Z</time>
      </trkpt>
      <trkpt lat="50.34181" lon="3.23596">
        <ele>30</ele>
        <time>2023-01-22T09:16:44Z</time>
      </trkpt>
      <trkpt lat="50.34181" lon="3.23598">
        <ele>30</ele>
        <time>2023-01-22T09:16:45Z</time>
      </trkpt>
      <trkpt lat="50.3418" lon="3.23601">
        <ele>30.1</ele>
        <time>2023-01-22T09:16:46Z</time>
      </trkpt>
      <trkpt lat="50.3418" lon="3.23604">
        <ele>30.2</ele>
        <time>2023-01-22T09:16:47Z</time>
      </trkpt>
      <trkpt lat="50.3418" lon="3.23606">
        <ele>30.3</ele>
        <time>2023-01-22T09:16:48Z</time>
      </trkpt>
      <trkpt lat="50.34179" lon="3.2361">
        <ele>30.4</ele>
        <time>2023-01-22T09:16:49Z</time>
      </trkpt>
      <trkpt lat="50.34178" lon="3.23611">
        <ele>27.083517</ele>
        <time>2023-01-22T09:16:50Z</time>
      </trkpt>
      <trkpt lat="50.34178" lon="3.23613">
        <ele>30.6</ele>
        <time>2023-01-22T09:16:51Z</time>
      </trkpt>
      <trkpt lat="50.34178" lon="3.23615">
        <ele>30.7</ele>
        <time>2023-01-22T09:16:52Z</time>
      </trkpt>
      <trkpt lat="50.34178" lon="3.23617">
        <ele>30.8</ele>
        <time>2023-01-22T09:16:53Z</time>
      </trkpt>
      <trkpt lat="50.34177" lon="3.23619">
        <ele>30.9</ele>
        <time>2023-01-22T09:16:54Z</time>
      </trkpt>
      <trkpt lat="50.34178" lon="3.23621">
        <ele>31.1</ele>
        <time>2023-01-22T09:16:55Z</time>
      </trkpt>
      <trkpt lat="50.34178" lon="3.23623">
        <ele>31.3</ele>
        <time>2023-01-22T09:16:56Z</time>
      </trkpt>
      <trkpt lat="50.34178" lon="3.23625">
        <ele>31.4</ele>
        <time>2023-01-22T09:16:57Z</time>
      </trkpt>
      <trkpt lat="50.34178" lon="3.23626">
        <ele>31.5</ele>
        <time>2023-01-22T09:16:58Z</time>
      </trkpt>
      <trkpt lat="50.34177" lon="3.23627">
        <ele>31.4</ele>
        <time>2023-01-22T09:16:59Z</time>
      </trkpt>
      <trkpt lat="50.34177" lon="3.23629">
        <ele>27.779036</ele>
        <time>2023-01-22T09:17:00Z</time>
      </trkpt>
      <trkpt lat="50.34177" lon="3.23631">
        <ele>31.6</ele>
        <time>2023-01-22T09:17:01Z</time>
      </trkpt>
      <trkpt lat="50.34177" lon="3.23634">
        <ele>31.9</ele>
        <time>2023-01-22T09:17:02Z</time>
      </trkpt>
      <trkpt lat="50.34177" lon="3.23636">
        <ele>32.1</ele>
        <time>2023-01-22T09:17:03Z</time>
      </trkpt>
      <trkpt lat="50.34178" lon="3.23638">
        <ele>32.4</ele>
        <time>2023-01-22T09:17:04Z</time>
      </trkpt>
      <trkpt lat="50.34178" lon="3.2364">
        <ele>32.4</ele>
        <time>2023-01-22T09:17:05Z</time>
      </trkpt>
      <trkpt lat="50.34178" lon="3.23642">
        <ele>32.5</ele>
        <time>2023-01-22T09:17:06Z</time>
      </trkpt>
      <trkpt lat="50.34178" lon="3.23644">
        <ele>32.5</ele>
        <time>2023-01-22T09:17:07Z</time>
      </trkpt>
      <trkpt lat="50.34178" lon="3.23646">
        <ele>32.6</ele>
        <time>2023-01-22T09:17:08Z</time>
      </trkpt>
      <trkpt lat="50.34178" lon="3.23648">
        <ele>32.7</ele>
        <time>2023-01-22T09:17:09Z</time>
      </trkpt>
      <trkpt lat="50.34177" lon="3.2365">
        <ele>28.021002</ele>
        <time>2023-01-22T09:17:10Z</time>
      </trkpt>
      <trkpt lat="50.34177" lon="3.23651">
        <ele>32.7</ele>
        <time>2023-01-22T09:17:11Z</time>
      </trkpt>
      <trkpt lat="50.34177" lon="3.23653">
        <ele>32.5</ele>
        <time>2023-01-22T09:17:12Z</time>
      </trkpt>
      <trkpt lat="50.34176" lon="3.23654">
        <ele>32.5</ele>
        <time>2023-01-22T09:17:13Z</time>
      </trkpt>
      <trkpt lat="50.34176" lon="3.23656">
        <ele>32.5</ele>
        <time>2023-01-22T09:17:14Z</time>
      </trkpt>
      <trkpt lat="50.34177" lon="3.23657">
        <ele>32.6</ele>
        <time>2023-01-22T09:17:15Z</time>
      </trkpt>
      <trkpt lat="50.34176" lon="3.23659">
        <ele>32.6</ele>
        <time>2023-01-22T09:17:16Z</time>
      </trkpt>
      <trkpt lat="50.34176" lon="3.23661">
        <ele>32.6</ele>
        <time>2023-01-22T09:17:17Z</time>
      </trkpt>
      <trkpt lat="50.34176" lon="3.23663">
        <ele>32.7</ele>
        <time>2023-01-22T09:17:18Z</time>
      </trkpt>
      <trkpt lat="50.34177" lon="3.23666">
        <ele>33</ele>
        <time>2023-01-22T09:17:19Z</time>
      </trkpt>
      <trkpt lat="50.34177" lon="3.23669">
        <ele>28.12728</ele>
        <time>2023-01-22T09:17:20Z</time>
      </trkpt>
      <trkpt lat="50.34177" lon="3.23671">
        <ele>33</ele>
        <time>2023-01-22T09:17:21Z</time>
      </trkpt>
      <trkpt lat="50.34178" lon="3.23673">
        <ele>33.2</ele>
        <time>2023-01-22T09:17:22Z</time>
      </trkpt>
      <trkpt lat="50.34178" lon="3.23676">
        <ele>33.1</ele>
        <time>2023-01-22T09:17:23Z</time>
      </trkpt>
      <trkpt lat="50.34177" lon="3.23678">
        <ele>32.9</ele>
        <time>2023-01-22T09:17:24Z</time>
      </trkpt>
      <trkpt lat="50.34177" lon="3.2368">
        <ele>32.8</ele>
        <time>2023-01-22T09:17:25Z</time>
      </trkpt>
      <trkpt lat="50.34177" lon="3.23683">
        <ele>32.8</ele>
        <time>2023-01-22T09:17:26Z</time>
      </trkpt>
      <trkpt lat="50.34177" lon="3.23686">
        <ele>32.7</ele>
        <time>2023-01-22T09:17:27Z</time>
      </trkpt>
      <trkpt lat="50.34177" lon="3.23689">
        <ele>32.7</ele>
        <time>2023-01-22T09:17:28Z</time>
      </trkpt>
      <trkpt lat="50.34177" lon="3.23692">
        <ele>32.7</ele>
        <time>2023-01-22T09:17:29Z</time>
      </trkpt>
      <trkpt lat="50.34178" lon="3.23695">
        <ele>28.18706</ele>
        <time>2023-01-22T09:17:30Z</time>
      </trkpt>
      <trkpt lat="50.34178" lon="3.23697">
        <ele>32.8</ele>
        <time>2023-01-22T09:17:31Z</time>
      </trkpt>
      <trkpt lat="50.34178" lon="3.237">
        <ele>32.7</ele>
        <time>2023-01-22T09:17:32Z</time>
      </trkpt>
      <trkpt lat="50.34177" lon="3.23702">
        <ele>32.6</ele>
        <time>2023-01-22T09:17:33Z</time>
      </trkpt>
      <trkpt lat="50.34178" lon="3.23704">
        <ele>32.7</ele>
        <time>2023-01-22T09:17:34Z</time>
      </trkpt>
      <trkpt lat="50.34178" lon="3.23706">
        <ele>32.6</ele>
        <time>2023-01-22T09:17:35Z</time>
      </trkpt>
      <trkpt lat="50.34178" lon="3.23708">
        <ele>32.7</ele>
        <time>2023-01-22T09:17:36Z</time>
      </trkpt>
      <trkpt lat="50.34179" lon="3.2371">
        <ele>32.7</ele>
        <time>2023-01-22T09:17:37Z</time>
      </trkpt>
      <trkpt lat="50.34179" lon="3.23713">
        <ele>32.7</ele>
        <time>2023-01-22T09:17:38Z</time>
      </trkpt>
      <trkpt lat="50.34179" lon="3.23715">
        <ele>32.8</ele>
        <time>2023-01-22T09:17:39Z</time>
      </trkpt>
      <trkpt lat="50.34179" lon="3.23718">
        <ele>28.113995</ele>
        <time>2023-01-22T09:17:40Z</time>
      </trkpt>
      <trkpt lat="50.34179" lon="3.2372">
        <ele>32.6</ele>
        <time>2023-01-22T09:17:41Z</time>
      </trkpt>
      <trkpt lat="50.34179" lon="3.23723">
        <ele>32.5</ele>
        <time>2023-01-22T09:17:42Z</time>
      </trkpt>
      <trkpt lat="50.34179" lon="3.23725">
        <ele>32.6</ele>
        <time>2023-01-22T09:17:43Z</time>
      </trkpt>
      <trkpt lat="50.34179" lon="3.23727">
        <ele>32.5</ele>
        <time>2023-01-22T09:17:44Z</time>
      </trkpt>
      <trkpt lat="50.34179" lon="3.23729">
        <ele>32.3</ele>
        <time>2023-01-22T09:17:45Z</time>
      </trkpt>
      <trkpt lat="50.34178" lon="3.23732">
        <ele>32.1</ele>
        <time>2023-01-22T09:17:46Z</time>
      </trkpt>
      <trkpt lat="50.34179" lon="3.23734">
        <ele>32.2</ele>
        <time>2023-01-22T09:17:47Z</time>
      </trkpt>
      <trkpt lat="50.34179" lon="3.23737">
        <ele>32.1</ele>
        <time>2023-01-22T09:17:48Z</time>
      </trkpt>
      <trkpt lat="50.34176" lon="3.23747">
        <ele>31.2</ele>
        <time>2023-01-22T09:17:49Z</time>
      </trkpt>
      <trkpt lat="50.34176" lon="3.23753">
        <ele>28.279104</ele>
        <time>2023-01-22T09:17:50Z</time>
      </trkpt>
      <trkpt lat="50.34176" lon="3.23758">
        <ele>30.8</ele>
        <time>2023-01-22T09:17:51Z</time>
      </trkpt>
      <trkpt lat="50.34177" lon="3.23762">
        <ele>31</ele>
        <time>2023-01-22T09:17:52Z</time>
      </trkpt>
      <trkpt lat="50.34177" lon="3.23765">
        <ele>31</ele>
        <time>2023-01-22T09:17:53Z</time>
      </trkpt>
      <trkpt lat="50.34177" lon="3.23767">
        <ele>31</ele>
        <time>2023-01-22T09:17:54Z</time>
      </trkpt>
      <trkpt lat="50.34178" lon="3.2377">
        <ele>31.1</ele>
        <time>2023-01-22T09:17:55Z</time>
      </trkpt>
      <trkpt lat="50.34178" lon="3.23772">
        <ele>31.1</ele>
        <time>2023-01-22T09:17:56Z</time>
      </trkpt>
      <trkpt lat="50.34179" lon="3.23774">
        <ele>31.2</ele>
        <time>2023-01-22T09:17:57Z</time>
      </trkpt>
      <trkpt lat="50.34179" lon="3.23776">
        <ele>31.2</ele>
        <time>2023-01-22T09:17:58Z</time>
      </trkpt>
      <trkpt lat="50.3418" lon="3.23779">
        <ele>31.3</ele>
        <time>2023-01-22T09:17:59Z</time>
      </trkpt>
      <trkpt lat="50.34181" lon="3.2378">
        <ele>27.958376</ele>
        <time>2023-01-22T09:18:00Z</time>
      </trkpt>
      <trkpt lat="50.34181" lon="3.23782">
        <ele>31.5</ele>
        <time>2023-01-22T09:18:01Z</time>
      </trkpt>
      <trkpt lat="50.34182" lon="3.23785">
        <ele>31.4</ele>
        <time>2023-01-22T09:18:02Z</time>
      </trkpt>
      <trkpt lat="50.34182" lon="3.23787">
        <ele>31.4</ele>
        <time>2023-01-22T09:18:03Z</time>
      </trkpt>
      <trkpt lat="50.34182" lon="3.23789">
        <ele>31.4</ele>
        <time>2023-01-22T09:18:04Z</time>
      </trkpt>
      <trkpt lat="50.34183" lon="3.23791">
        <ele>31.5</ele>
        <time>2023-01-22T09:18:05Z</time>
      </trkpt>
      <trkpt lat="50.34184" lon="3.23793">
        <ele>31.5</ele>
        <time>2023-01-22T09:18:06Z</time>
      </trkpt>
      <trkpt lat="50.34184" lon="3.23794">
        <ele>31.5</ele>
        <time>2023-01-22T09:18:07Z</time>
      </trkpt>
      <trkpt lat="50.34185" lon="3.23796">
        <ele>31.6</ele>
        <time>2023-01-22T09:18:08Z</time>
      </trkpt>
      <trkpt lat="50.34185" lon="3.23797">
        <ele>31.7</ele>
        <time>2023-01-22T09:18:09Z</time>
      </trkpt>
      <trkpt lat="50.34186" lon="3.23799">
        <ele>27.748672</ele>
        <time>2023-01-22T09:18:10Z</time>
      </trkpt>
      <trkpt lat="50.34187" lon="3.23801">
        <ele>31.7</ele>
        <time>2023-01-22T09:18:11Z</time>
      </trkpt>
      <trkpt lat="50.34188" lon="3.23803">
        <ele>31.9</ele>
        <time>2023-01-22T09:18:12Z</time>
      </trkpt>
      <trkpt lat="50.34188" lon="3.23805">
        <ele>31.8</ele>
        <time>2023-01-22T09:18:13Z</time>
      </trkpt>
      <trkpt lat="50.34189" lon="3.23808">
        <ele>32</ele>
        <time>2023-01-22T09:18:14Z</time>
      </trkpt>
      <trkpt lat="50.3419" lon="3.2381">
        <ele>32.1</ele>
        <time>2023-01-22T09:18:15Z</time>
      </trkpt>
      <trkpt lat="50.3419" lon="3.23811">
        <ele>32.1</ele>
        <time>2023-01-22T09:18:16Z</time>
      </trkpt>
      <trkpt lat="50.34192" lon="3.23813">
        <ele>32.2</ele>
        <time>2023-01-22T09:18:17Z</time>
      </trkpt>
      <trkpt lat="50.34192" lon="3.23814">
        <ele>32.3</ele>
        <time>2023-01-22T09:18:18Z</time>
      </trkpt>
      <trkpt lat="50.34193" lon="3.23816">
        <ele>32.4</ele>
        <time>2023-01-22T09:18:19Z</time>
      </trkpt>
      <trkpt lat="50.34193" lon="3.23818">
        <ele>27.687944</ele>
        <time>2023-01-22T09:18:20Z</time>
      </trkpt>
      <trkpt lat="50.34194" lon="3.2382">
        <ele>32.4</ele>
        <time>2023-01-22T09:18:21Z</time>
      </trkpt>
      <trkpt lat="50.34194" lon="3.23821">
        <ele>32.4</ele>
        <time>2023-01-22T09:18:22Z</time>
      </trkpt>
      <trkpt lat="50.34195" lon="3.23822">
        <ele>32.5</ele>
        <time>2023-01-22T09:18:23Z</time>
      </trkpt>
      <trkpt lat="50.34195" lon="3.23824">
        <ele>32.6</ele>
        <time>2023-01-22T09:18:24Z</time>
      </trkpt>
      <trkpt lat="50.34197" lon="3.23825">
        <ele>32.8</ele>
        <time>2023-01-22T09:18:25Z</time>
      </trkpt>
      <trkpt lat="50.34197" lon="3.23827">
        <ele>32.9</ele>
        <time>2023-01-22T09:18:26Z</time>
      </trkpt>
      <trkpt lat="50.34198" lon="3.23827">
        <ele>33</ele>
        <time>2023-01-22T09:18:27Z</time>
      </trkpt>
      <trkpt lat="50.34198" lon="3.23829">
        <ele>33</ele>
        <time>2023-01-22T09:18:28Z</time>
      </trkpt>
      <trkpt lat="50.34199" lon="3.23831">
        <ele>33.2</ele>
        <time>2023-01-22T09:18:29Z</time>
      </trkpt>
      <trkpt lat="50.342" lon="3.23832">
        <ele>28.063704</ele>
        <time>2023-01-22T09:18:30Z</time>
      </trkpt>
      <trkpt lat="50.342" lon="3.23833">
        <ele>33.4</ele>
        <time>2023-01-22T09:18:31Z</time>
      </trkpt>
      <trkpt lat="50.342" lon="3.23835">
        <ele>33.4</ele>
        <time>2023-01-22T09:18:32Z</time>
      </trkpt>
      <trkpt lat="50.34201" lon="3.23837">
        <ele>33.5</ele>
        <time>2023-01-22T09:18:33Z</time>
      </trkpt>
      <trkpt lat="50.34203" lon="3.23838">
        <ele>33.7</ele>
        <time>2023-01-22T09:18:34Z</time>
      </trkpt>
      <trkpt lat="50.34203" lon="3.23841">
        <ele>33.6</ele>
        <time>2023-01-22T09:18:35Z</time>
      </trkpt>
      <trkpt lat="50.34204" lon="3.23842">
        <ele>33.6</ele>
        <time>2023-01-22T09:18:36Z</time>
      </trkpt>
      <trkpt lat="50.34205" lon="3.23844">
        <ele>33.7</ele>
        <time>2023-01-22T09:18:37Z</time>
      </trkpt>
      <trkpt lat="50.34205" lon="3.23846">
        <ele>33.6</ele>
        <time>2023-01-22T09:18:38Z</time>
      </trkpt>
      <trkpt lat="50.34206" lon="3.23848">
        <ele>33.6</ele>
        <time>2023-01-22T09:18:39Z</time>
      </trkpt>
      <trkpt lat="50.34206" lon="3.23849">
        <ele>28.22217</ele>
        <time>2023-01-22T09:18:40Z</time>
      </trkpt>
      <trkpt lat="50.34207" lon="3.23852">
        <ele>33.5</ele>
        <time>2023-01-22T09:18:41Z</time>
      </trkpt>
      <trkpt lat="50.34208" lon="3.23853">
        <ele>33.5</ele>
        <time>2023-01-22T09:18:42Z</time>
      </trkpt>
      <trkpt lat="50.34208" lon="3.23855">
        <ele>33.6</ele>
        <time>2023-01-22T09:18:43Z</time>
      </trkpt>
      <trkpt lat="50.34208" lon="3.23856">
        <ele>33.5</ele>
        <time>2023-01-22T09:18:44Z</time>
      </trkpt>
      <trkpt lat="50.34209" lon="3.23857">
        <ele>33.5</ele>
        <time>2023-01-22T09:18:45Z</time>
      </trkpt>
      <trkpt lat="50.34209" lon="3.23858">
        <ele>33.4</ele>
        <time>2023-01-22T09:18:46Z</time>
      </trkpt>
      <trkpt lat="50.3421" lon="3.2386">
        <ele>33.5</ele>
        <time>2023-01-22T09:18:47Z</time>
      </trkpt>
      <trkpt lat="50.34211" lon="3.23862">
        <ele>33.5</ele>
        <time>2023-01-22T09:18:48Z</time>
      </trkpt>
      <trkpt lat="50.34212" lon="3.23863">
        <ele>33.5</ele>
        <time>2023-01-22T09:18:49Z</time>
      </trkpt>
      <trkpt lat="50.34213" lon="3.23865">
        <ele>27.767649</ele>
        <time>2023-01-22T09:18:50Z</time>
      </trkpt>
      <trkpt lat="50.34214" lon="3.23867">
        <ele>33.5</ele>
        <time>2023-01-22T09:18:51Z</time>
      </trkpt>
      <trkpt lat="50.34215" lon="3.23869">
        <ele>33.6</ele>
        <time>2023-01-22T09:18:52Z</time>
      </trkpt>
      <trkpt lat="50.34216" lon="3.23871">
        <ele>33.5</ele>
        <time>2023-01-22T09:18:53Z</time>
      </trkpt>
      <trkpt lat="50.34217" lon="3.23873">
        <ele>33.6</ele>
        <time>2023-01-22T09:18:54Z</time>
      </trkpt>
      <trkpt lat="50.34217" lon="3.23875">
        <ele>33.5</ele>
        <time>2023-01-22T09:18:55Z</time>
      </trkpt>
      <trkpt lat="50.34219" lon="3.23876">
        <ele>33.7</ele>
        <time>2023-01-22T09:18:56Z</time>
      </trkpt>
      <trkpt lat="50.34219" lon="3.23877">
        <ele>33.7</ele>
        <time>2023-01-22T09:18:57Z</time>
      </trkpt>
      <trkpt lat="50.3422" lon="3.23879">
        <ele>33.7</ele>
        <time>2023-01-22T09:18:58Z</time>
      </trkpt>
      <trkpt lat="50.34221" lon="3.23881">
        <ele>33.5</ele>
        <time>2023-01-22T09:18:59Z</time>
      </trkpt>
      <trkpt lat="50.34221" lon="3.23883">
        <ele>26.556911</ele>
        <time>2023-01-22T09:19:00Z</time>
      </trkpt>
      <trkpt lat="50.34221" lon="3.23885">
        <ele>33.3</ele>
        <time>2023-01-22T09:19:01Z</time>
      </trkpt>
      <trkpt lat="50.34222" lon="3.23886">
        <ele>33.2</ele>
        <time>2023-01-22T09:19:02Z</time>
      </trkpt>
      <trkpt lat="50.34222" lon="3.23887">
        <ele>33.1</ele>
        <time>2023-01-22T09:19:03Z</time>
      </trkpt>
      <trkpt lat="50.34222" lon="3.23888">
        <ele>33.1</ele>
        <time>2023-01-22T09:19:04Z</time>
      </trkpt>
      <trkpt lat="50.34223" lon="3.2389">
        <ele>33</ele>
        <time>2023-01-22T09:19:05Z</time>
      </trkpt>
      <trkpt lat="50.34224" lon="3.23891">
        <ele>33.2</ele>
        <time>2023-01-22T09:19:06Z</time>
      </trkpt>
      <trkpt lat="50.34224" lon="3.23892">
        <ele>33.1</ele>
        <time>2023-01-22T09:19:07Z</time>
      </trkpt>
      <trkpt lat="50.34226" lon="3.23893">
        <ele>33.3</ele>
        <time>2023-01-22T09:19:08Z</time>
      </trkpt>
      <trkpt lat="50.34226" lon="3.23896">
        <ele>33.1</ele>
        <time>2023-01-22T09:19:09Z</time>
      </trkpt>
      <trkpt lat="50.34226" lon="3.23898">
        <ele>24.7656</ele>
        <time>2023-01-22T09:19:10Z</time>
      </trkpt>
      <trkpt lat="50.34227" lon="3.23901">
        <ele>32.8</ele>
        <time>2023-01-22T09:19:11Z</time>
      </trkpt>
      <trkpt lat="50.34229" lon="3.23903">
        <ele>32.7</ele>
        <time>2023-01-22T09:19:12Z</time>
      </trkpt>
      <trkpt lat="50.34229" lon="3.23905">
        <ele>32.6</ele>
        <time>2023-01-22T09:19:13Z</time>
      </trkpt>
      <trkpt lat="50.34229" lon="3.23908">
        <ele>32.3</ele>
        <time>2023-01-22T09:19:14Z</time>
      </trkpt>
      <trkpt lat="50.3423" lon="3.23909">
        <ele>32.3</ele>
        <time>2023-01-22T09:19:15Z</time>
      </trkpt>
      <trkpt lat="50.3423" lon="3.2391">
        <ele>32.2</ele>
        <time>2023-01-22T09:19:16Z</time>
      </trkpt>
      <trkpt lat="50.3423" lon="3.2391">
        <ele>32.1</ele>
        <time>2023-01-22T09:19:17Z</time>
      </trkpt>
      <trkpt lat="50.3423" lon="3.2391">
        <ele>32.1</ele>
        <time>2023-01-22T09:19:18Z</time>
      </trkpt>
      <trkpt lat="50.3423" lon="3.2391">
        <ele>32.1</ele>
        <time>2023-01-22T09:19:19Z</time>
      </trkpt>
      <trkpt lat="50.3423" lon="3.2391">
        <ele>22.34928</ele>
        <time>2023-01-22T09:19:20Z</time>
      </trkpt>
      <trkpt lat="50.3423" lon="3.23911">
        <ele>32.1</ele>
        <time>2023-01-22T09:19:21Z</time>
      </trkpt>
      <trkpt lat="50.3423" lon="3.23911">
        <ele>32.1</ele>
        <time>2023-01-22T09:19:22Z</time>
      </trkpt>
      <trkpt lat="50.3423" lon="3.23912">
        <ele>32</ele>
        <time>2023-01-22T09:19:23Z</time>
      </trkpt>
      <trkpt lat="50.34231" lon="3.23913">
        <ele>32.1</ele>
        <time>2023-01-22T09:19:24Z</time>
      </trkpt>
      <trkpt lat="50.34232" lon="3.23914">
        <ele>32</ele>
        <time>2023-01-22T09:19:25Z</time>
      </trkpt>
      <trkpt lat="50.34232" lon="3.23914">
        <ele>32</ele>
        <time>2023-01-22T09:19:26Z</time>
      </trkpt>
      <trkpt lat="50.34232" lon="3.23914">
        <ele>32</ele>
        <time>2023-01-22T09:19:27Z</time>
      </trkpt>
      <trkpt lat="50.34232" lon="3.23914">
        <ele>32</ele>
        <time>2023-01-22T09:19:28Z</time>
      </trkpt>
      <trkpt lat="50.34231" lon="3.23915">
        <ele>31.8</ele>
        <time>2023-01-22T09:19:29Z</time>
      </trkpt>
      <trkpt lat="50.3423" lon="3.23915">
        <ele>20.119148</ele>
        <time>2023-01-22T09:19:30Z</time>
      </trkpt>
      <trkpt lat="50.34229" lon="3.23916">
        <ele>31.4</ele>
        <time>2023-01-22T09:19:31Z</time>
      </trkpt>
      <trkpt lat="50.34228" lon="3.23916">
        <ele>31.1</ele>
        <time>2023-01-22T09:19:32Z</time>
      </trkpt>
      <trkpt lat="50.34226" lon="3.23916">
        <ele>30.7</ele>
        <time>2023-01-22T09:19:33Z</time>
      </trkpt>
      <trkpt lat="50.34225" lon="3.23916">
        <ele>30.6</ele>
        <time>2023-01-22T09:19:34Z</time>
      </trkpt>
      <trkpt lat="50.34224" lon="3.23917">
        <ele>30.2</ele>
        <time>2023-01-22T09:19:35Z</time>
      </trkpt>
      <trkpt lat="50.34223" lon="3.23917">
        <ele>30.1</ele>
        <time>2023-01-22T09:19:36Z</time>
      </trkpt>
      <trkpt lat="50.34222" lon="3.23917">
        <ele>29.9</ele>
        <time>2023-01-22T09:19:37Z</time>
      </trkpt>
      <trkpt lat="50.34221" lon="3.23917">
        <ele>29.9</ele>
        <time>2023-01-22T09:19:38Z</time>
      </trkpt>
      <trkpt lat="50.3422" lon="3.23918">
        <ele>29.8</ele>
        <time>2023-01-22T09:19:39Z</time>
      </trkpt>
      <trkpt lat="50.34219" lon="3.23919">
        <ele>19.71792</ele>
        <time>2023-01-22T09:19:40Z</time>
      </trkpt>
      <trkpt lat="50.34219" lon="3.2392">
        <ele>29.5</ele>
        <time>2023-01-22T09:19:41Z</time>
      </trkpt>
      <trkpt lat="50.34218" lon="3.23922">
        <ele>29.4</ele>
        <time>2023-01-22T09:19:42Z</time>
      </trkpt>
      <trkpt lat="50.34218" lon="3.23923">
        <ele>29.3</ele>
        <time>2023-01-22T09:19:43Z</time>
      </trkpt>
      <trkpt lat="50.34217" lon="3.23924">
        <ele>29.1</ele>
        <time>2023-01-22T09:19:44Z</time>
      </trkpt>
      <trkpt lat="50.34217" lon="3.23926">
        <ele>29</ele>
        <time>2023-01-22T09:19:45Z</time>
      </trkpt>
      <trkpt lat="50.34216" lon="3.23927">
        <ele>28.9</ele>
        <time>2023-01-22T09:19:46Z</time>
      </trkpt>
      <trkpt lat="50.34216" lon="3.23929">
        <ele>28.8</ele>
        <time>2023-01-22T09:19:47Z</time>
      </trkpt>
      <trkpt lat="50.34216" lon="3.23931">
        <ele>28.7</ele>
        <time>2023-01-22T09:19:48Z</time>
      </trkpt>
      <trkpt lat="50.34216" lon="3.23933">
        <ele>28.5</ele>
        <time>2023-01-22T09:19:49Z</time>
      </trkpt>
      <trkpt lat="50.34216" lon="3.23934">
        <ele>19.858301</ele>
        <time>2023-01-22T09:19:50Z</time>
      </trkpt>
      <trkpt lat="50.34217" lon="3.23937">
        <ele>28.3</ele>
        <time>2023-01-22T09:19:51Z</time>
      </trkpt>
      <trkpt lat="50.34217" lon="3.23938">
        <ele>28.2</ele>
        <time>2023-01-22T09:19:52Z</time>
      </trkpt>
      <trkpt lat="50.34218" lon="3.2394">
        <ele>28.1</ele>
        <time>2023-01-22T09:19:53Z</time>
      </trkpt>
      <trkpt lat="50.34218" lon="3.23944">
        <ele>27.9</ele>
        <time>2023-01-22T09:19:54Z</time>
      </trkpt>
      <trkpt lat="50.34218" lon="3.23946">
        <ele>27.8</ele>
        <time>2023-01-22T09:19:55Z</time>
      </trkpt>
      <trkpt lat="50.3422" lon="3.23949">
        <ele>27.8</ele>
        <time>2023-01-22T09:19:56Z</time>
      </trkpt>
      <trkpt lat="50.34219" lon="3.23959">
        <ele>27.4</ele>
        <time>2023-01-22T09:19:57Z</time>
      </trkpt>
      <trkpt lat="50.34218" lon="3.23968">
        <ele>27.1</ele>
        <time>2023-01-22T09:19:58Z</time>
      </trkpt>
      <trkpt lat="50.34218" lon="3.23974">
        <ele>27</ele>
        <time>2023-01-22T09:19:59Z</time>
      </trkpt>
      <trkpt lat="50.34219" lon="3.23977">
        <ele>19.850714</ele>
        <time>2023-01-22T09:20:00Z</time>
      </trkpt>
      <trkpt lat="50.34219" lon="3.2398">
        <ele>27</ele>
        <time>2023-01-22T09:20:01Z</time>
      </trkpt>
      <trkpt lat="50.3422" lon="3.23982">
        <ele>27</ele>
        <time>2023-01-22T09:20:02Z</time>
      </trkpt>
      <trkpt lat="50.34221" lon="3.23984">
        <ele>27</ele>
        <time>2023-01-22T09:20:03Z</time>
      </trkpt>
      <trkpt lat="50.34222" lon="3.23986">
        <ele>27</ele>
        <time>2023-01-22T09:20:04Z</time>
      </trkpt>
      <trkpt lat="50.34223" lon="3.23988">
        <ele>27</ele>
        <time>2023-01-22T09:20:05Z</time>
      </trkpt>
      <trkpt lat="50.34224" lon="3.23989">
        <ele>27.1</ele>
        <time>2023-01-22T09:20:06Z</time>
      </trkpt>
      <trkpt lat="50.34225" lon="3.23991">
        <ele>27.1</ele>
        <time>2023-01-22T09:20:07Z</time>
      </trkpt>
      <trkpt lat="50.34226" lon="3.23992">
        <ele>27.1</ele>
        <time>2023-01-22T09:20:08Z</time>
      </trkpt>
      <trkpt lat="50.34227" lon="3.23994">
        <ele>27.1</ele>
        <time>2023-01-22T09:20:09Z</time>
      </trkpt>
      <trkpt lat="50.34227" lon="3.23995">
        <ele>19.873478</ele>
        <time>2023-01-22T09:20:10Z</time>
      </trkpt>
      <trkpt lat="50.34229" lon="3.23996">
        <ele>27.1</ele>
        <time>2023-01-22T09:20:11Z</time>
      </trkpt>
      <trkpt lat="50.34229" lon="3.23996">
        <ele>27.1</ele>
        <time>2023-01-22T09:20:12Z</time>
      </trkpt>
      <trkpt lat="50.3423" lon="3.23997">
        <ele>27.1</ele>
        <time>2023-01-22T09:20:13Z</time>
      </trkpt>
      <trkpt lat="50.34231" lon="3.23997">
        <ele>27.1</ele>
        <time>2023-01-22T09:20:14Z</time>
      </trkpt>
      <trkpt lat="50.34232" lon="3.23999">
        <ele>27</ele>
        <time>2023-01-22T09:20:15Z</time>
      </trkpt>
      <trkpt lat="50.34233" lon="3.24">
        <ele>27</ele>
        <time>2023-01-22T09:20:16Z</time>
      </trkpt>
      <trkpt lat="50.34234" lon="3.24002">
        <ele>26.9</ele>
        <time>2023-01-22T09:20:17Z</time>
      </trkpt>
      <trkpt lat="50.34235" lon="3.24003">
        <ele>26.9</ele>
        <time>2023-01-22T09:20:18Z</time>
      </trkpt>
      <trkpt lat="50.34237" lon="3.24004">
        <ele>26.9</ele>
        <time>2023-01-22T09:20:19Z</time>
      </trkpt>
      <trkpt lat="50.34238" lon="3.24006">
        <ele>19.803288</ele>
        <time>2023-01-22T09:20:20Z</time>
      </trkpt>
      <trkpt lat="50.3424" lon="3.24008">
        <ele>26.7</ele>
        <time>2023-01-22T09:20:21Z</time>
      </trkpt>
      <trkpt lat="50.34241" lon="3.24009">
        <ele>26.7</ele>
        <time>2023-01-22T09:20:22Z</time>
      </trkpt>
      <trkpt lat="50.34242" lon="3.2401">
        <ele>26.6</ele>
        <time>2023-01-22T09:20:23Z</time>
      </trkpt>
      <trkpt lat="50.34242" lon="3.24012">
        <ele>26.6</ele>
        <time>2023-01-22T09:20:24Z</time>
      </trkpt>
      <trkpt lat="50.34243" lon="3.24014">
        <ele>26.5</ele>
        <time>2023-01-22T09:20:25Z</time>
      </trkpt>
      <trkpt lat="50.34244" lon="3.24015">
        <ele>26.5</ele>
        <time>2023-01-22T09:20:26Z</time>
      </trkpt>
      <trkpt lat="50.34245" lon="3.24016">
        <ele>26.4</ele>
        <time>2023-01-22T09:20:27Z</time>
      </trkpt>
      <trkpt lat="50.34246" lon="3.24016">
        <ele>26.4</ele>
        <time>2023-01-22T09:20:28Z</time>
      </trkpt>
      <trkpt lat="50.34247" lon="3.24018">
        <ele>26.4</ele>
        <time>2023-01-22T09:20:29Z</time>
      </trkpt>
      <trkpt lat="50.34248" lon="3.24018">
        <ele>19.565208</ele>
        <time>2023-01-22T09:20:30Z</time>
      </trkpt>
      <trkpt lat="50.34249" lon="3.2402">
        <ele>26.3</ele>
        <time>2023-01-22T09:20:31Z</time>
      </trkpt>
      <trkpt lat="50.3425" lon="3.24021">
        <ele>26.2</ele>
        <time>2023-01-22T09:20:32Z</time>
      </trkpt>
      <trkpt lat="50.34251" lon="3.24021">
        <ele>26.3</ele>
        <time>2023-01-22T09:20:33Z</time>
      </trkpt>
      <trkpt lat="50.34253" lon="3.24022">
        <ele>26.3</ele>
        <time>2023-01-22T09:20:34Z</time>
      </trkpt>
      <trkpt lat="50.34254" lon="3.24023">
        <ele>26.3</ele>
        <time>2023-01-22T09:20:35Z</time>
      </trkpt>
      <trkpt lat="50.34255" lon="3.24023">
        <ele>26.4</ele>
        <time>2023-01-22T09:20:36Z</time>
      </trkpt>
      <trkpt lat="50.34256" lon="3.24025">
        <ele>26.3</ele>
        <time>2023-01-22T09:20:37Z</time>
      </trkpt>
      <trkpt lat="50.34257" lon="3.24027">
        <ele>26.3</ele>
        <time>2023-01-22T09:20:38Z</time>
      </trkpt>
      <trkpt lat="50.34259" lon="3.24029">
        <ele>26.3</ele>
        <time>2023-01-22T09:20:39Z</time>
      </trkpt>
      <trkpt lat="50.3426" lon="3.2403">
        <ele>19.616428</ele>
        <time>2023-01-22T09:20:40Z</time>
      </trkpt>
      <trkpt lat="50.34261" lon="3.24031">
        <ele>26.3</ele>
        <time>2023-01-22T09:20:41Z</time>
      </trkpt>
      <trkpt lat="50.34261" lon="3.24032">
        <ele>26.2</ele>
        <time>2023-01-22T09:20:42Z</time>
      </trkpt>
      <trkpt lat="50.34262" lon="3.24033">
        <ele>26.2</ele>
        <time>2023-01-22T09:20:43Z</time>
      </trkpt>
      <trkpt lat="50.34262" lon="3.24035">
        <ele>26.2</ele>
        <time>2023-01-22T09:20:44Z</time>
      </trkpt>
      <trkpt lat="50.34263" lon="3.24036">
        <ele>26.2</ele>
        <time>2023-01-22T09:20:45Z</time>
      </trkpt>
      <trkpt lat="50.34264" lon="3.24037">
        <ele>26.2</ele>
        <time>2023-01-22T09:20:46Z</time>
      </trkpt>
      <trkpt lat="50.34264" lon="3.24039">
        <ele>26.1</ele>
        <time>2023-01-22T09:20:47Z</time>
      </trkpt>
      <trkpt lat="50.34265" lon="3.2404">
        <ele>26.1</ele>
        <time>2023-01-22T09:20:48Z</time>
      </trkpt>
      <trkpt lat="50.34266" lon="3.2404">
        <ele>26.1</ele>
        <time>2023-01-22T09:20:49Z</time>
      </trkpt>
      <trkpt lat="50.34267" lon="3.24041">
        <ele>19.737839</ele>
        <time>2023-01-22T09:20:50Z</time>
      </trkpt>
      <trkpt lat="50.34267" lon="3.24043">
        <ele>26.1</ele>
        <time>2023-01-22T09:20:51Z</time>
      </trkpt>
      <trkpt lat="50.34269" lon="3.24044">
        <ele>26.1</ele>
        <time>2023-01-22T09:20:52Z</time>
      </trkpt>
      <trkpt lat="50.34269" lon="3.24046">
        <ele>26</ele>
        <time>2023-01-22T09:20:53Z</time>
      </trkpt>
      <trkpt lat="50.34271" lon="3.24047">
        <ele>26</ele>
        <time>2023-01-22T09:20:54Z</time>
      </trkpt>
      <trkpt lat="50.34272" lon="3.24048">
        <ele>26.1</ele>
        <time>2023-01-22T09:20:55Z</time>
      </trkpt>
      <trkpt lat="50.34274" lon="3.2405">
        <ele>26.1</ele>
        <time>2023-01-22T09:20:56Z</time>
      </trkpt>
      <trkpt lat="50.34276" lon="3.24051">
        <ele>26.1</ele>
        <time>2023-01-22T09:20:57Z</time>
      </trkpt>
      <trkpt lat="50.34278" lon="3.24052">
        <ele>26.2</ele>
        <time>2023-01-22T09:20:58Z</time>
      </trkpt>
      <trkpt lat="50.3428" lon="3.24052">
        <ele>26.3</ele>
        <time>2023-01-22T09:20:59Z</time>
      </trkpt>
      <trkpt lat="50.34281" lon="3.24053">
        <ele>19.883911</ele>
        <time>2023-01-22T09:21:00Z</time>
      </trkpt>
      <trkpt lat="50.34282" lon="3.24054">
        <ele>26.4</ele>
        <time>2023-01-22T09:21:01Z</time>
      </trkpt>
      <trkpt lat="50.34284" lon="3.24056">
        <ele>26.5</ele>
        <time>2023-01-22T09:21:02Z</time>
      </trkpt>
      <trkpt lat="50.34285" lon="3.24057">
        <ele>26.5</ele>
        <time>2023-01-22T09:21:03Z</time>
      </trkpt>
      <trkpt lat="50.34287" lon="3.24058">
        <ele>26.5</ele>
        <time>2023-01-22T09:21:04Z</time>
      </trkpt>
      <trkpt lat="50.34288" lon="3.24059">
        <ele>26.5</ele>
        <time>2023-01-22T09:21:05Z</time>
      </trkpt>
      <trkpt lat="50.3429" lon="3.24061">
        <ele>26.6</ele>
        <time>2023-01-22T09:21:06Z</time>
      </trkpt>
      <trkpt lat="50.34291" lon="3.24062">
        <ele>26.6</ele>
        <time>2023-01-22T09:21:07Z</time>
      </trkpt>
      <trkpt lat="50.34292" lon="3.24062">
        <ele>26.7</ele>
        <time>2023-01-22T09:21:08Z</time>
      </trkpt>
      <trkpt lat="50.34294" lon="3.24062">
        <ele>26.8</ele>
        <time>2023-01-22T09:21:09Z</time>
      </trkpt>
      <trkpt lat="50.34296" lon="3.24063">
        <ele>19.840279</ele>
        <time>2023-01-22T09:21:10Z</time>
      </trkpt>
      <trkpt lat="50.34297" lon="3.24064">
        <ele>26.9</ele>
        <time>2023-01-22T09:21:11Z</time>
      </trkpt>
      <trkpt lat="50.34299" lon="3.24066">
        <ele>26.9</ele>
        <time>2023-01-22T09:21:12Z</time>
      </trkpt>
      <trkpt lat="50.34301" lon="3.24067">
        <ele>26.9</ele>
        <time>2023-01-22T09:21:13Z</time>
      </trkpt>
      <trkpt lat="50.34302" lon="3.24067">
        <ele>27</ele>
        <time>2023-01-22T09:21:14Z</time>
      </trkpt>
      <trkpt lat="50.34303" lon="3.24068">
        <ele>27</ele>
        <time>2023-01-22T09:21:15Z</time>
      </trkpt>
      <trkpt lat="50.34304" lon="3.24069">
        <ele>27</ele>
        <time>2023-01-22T09:21:16Z</time>
      </trkpt>
      <trkpt lat="50.34306" lon="3.2407">
        <ele>27</ele>
        <time>2023-01-22T09:21:17Z</time>
      </trkpt>
      <trkpt lat="50.34307" lon="3.24071">
        <ele>27</ele>
        <time>2023-01-22T09:21:18Z</time>
      </trkpt>
      <trkpt lat="50.34309" lon="3.24072">
        <ele>27</ele>
        <time>2023-01-22T09:21:19Z</time>
      </trkpt>
      <trkpt lat="50.3431" lon="3.24072">
        <ele>20.111559</ele>
        <time>2023-01-22T09:21:20Z</time>
      </trkpt>
      <trkpt lat="50.34311" lon="3.24073">
        <ele>27.1</ele>
        <time>2023-01-22T09:21:21Z</time>
      </trkpt>
      <trkpt lat="50.34312" lon="3.24074">
        <ele>27</ele>
        <time>2023-01-22T09:21:22Z</time>
      </trkpt>
      <trkpt lat="50.34314" lon="3.24075">
        <ele>27</ele>
        <time>2023-01-22T09:21:23Z</time>
      </trkpt>
      <trkpt lat="50.34316" lon="3.24076">
        <ele>27</ele>
        <time>2023-01-22T09:21:24Z</time>
      </trkpt>
      <trkpt lat="50.34316" lon="3.24077">
        <ele>26.9</ele>
        <time>2023-01-22T09:21:25Z</time>
      </trkpt>
      <trkpt lat="50.34318" lon="3.24079">
        <ele>26.8</ele>
        <time>2023-01-22T09:21:26Z</time>
      </trkpt>
      <trkpt lat="50.34319" lon="3.2408">
        <ele>26.8</ele>
        <time>2023-01-22T09:21:27Z</time>
      </trkpt>
      <trkpt lat="50.3432" lon="3.24081">
        <ele>26.7</ele>
        <time>2023-01-22T09:21:28Z</time>
      </trkpt>
      <trkpt lat="50.34321" lon="3.24082">
        <ele>26.7</ele>
        <time>2023-01-22T09:21:29Z</time>
      </trkpt>
      <trkpt lat="50.34322" lon="3.24083">
        <ele>20.164679</ele>
        <time>2023-01-22T09:21:30Z</time>
      </trkpt>
      <trkpt lat="50.34323" lon="3.24085">
        <ele>26.6</ele>
        <time>2023-01-22T09:21:31Z</time>
      </trkpt>
      <trkpt lat="50.34324" lon="3.24086">
        <ele>26.6</ele>
        <time>2023-01-22T09:21:32Z</time>
      </trkpt>
      <trkpt lat="50.34325" lon="3.24087">
        <ele>26.6</ele>
        <time>2023-01-22T09:21:33Z</time>
      </trkpt>
      <trkpt lat="50.34326" lon="3.24089">
        <ele>26.5</ele>
        <time>2023-01-22T09:21:34Z</time>
      </trkpt>
      <trkpt lat="50.34327" lon="3.2409">
        <ele>26.5</ele>
        <time>2023-01-22T09:21:35Z</time>
      </trkpt>
      <trkpt lat="50.34327" lon="3.24091">
        <ele>26.5</ele>
        <time>2023-01-22T09:21:36Z</time>
      </trkpt>
      <trkpt lat="50.34328" lon="3.24092">
        <ele>26.5</ele>
        <time>2023-01-22T09:21:37Z</time>
      </trkpt>
      <trkpt lat="50.34329" lon="3.24093">
        <ele>26.5</ele>
        <time>2023-01-22T09:21:38Z</time>
      </trkpt>
      <trkpt lat="50.3433" lon="3.24094">
        <ele>26.5</ele>
        <time>2023-01-22T09:21:39Z</time>
      </trkpt>
      <trkpt lat="50.34331" lon="3.24094">
        <ele>20.130531</ele>
        <time>2023-01-22T09:21:40Z</time>
      </trkpt>
      <trkpt lat="50.34332" lon="3.24094">
        <ele>26.5</ele>
        <time>2023-01-22T09:21:41Z</time>
      </trkpt>
      <trkpt lat="50.34332" lon="3.24095">
        <ele>26.5</ele>
        <time>2023-01-22T09:21:42Z</time>
      </trkpt>
      <trkpt lat="50.34333" lon="3.24096">
        <ele>26.6</ele>
        <time>2023-01-22T09:21:43Z</time>
      </trkpt>
      <trkpt lat="50.34335" lon="3.24096">
        <ele>26.6</ele>
        <time>2023-01-22T09:21:44Z</time>
      </trkpt>
      <trkpt lat="50.34335" lon="3.24098">
        <ele>26.6</ele>
        <time>2023-01-22T09:21:45Z</time>
      </trkpt>
      <trkpt lat="50.34337" lon="3.24099">
        <ele>26.6</ele>
        <time>2023-01-22T09:21:46Z</time>
      </trkpt>
      <trkpt lat="50.34338" lon="3.241">
        <ele>26.7</ele>
        <time>2023-01-22T09:21:47Z</time>
      </trkpt>
      <trkpt lat="50.34339" lon="3.24101">
        <ele>26.7</ele>
        <time>2023-01-22T09:21:48Z</time>
      </trkpt>
      <trkpt lat="50.3434" lon="3.24102">
        <ele>26.7</ele>
        <time>2023-01-22T09:21:49Z</time>
      </trkpt>
      <trkpt lat="50.34341" lon="3.24103">
        <ele>20.456831</ele>
        <time>2023-01-22T09:21:50Z</time>
      </trkpt>
      <trkpt lat="50.34342" lon="3.24104">
        <ele>26.8</ele>
        <time>2023-01-22T09:21:51Z</time>
      </trkpt>
      <trkpt lat="50.34343" lon="3.24105">
        <ele>26.8</ele>
        <time>2023-01-22T09:21:52Z</time>
      </trkpt>
      <trkpt lat="50.34344" lon="3.24107">
        <ele>26.9</ele>
        <time>2023-01-22T09:21:53Z</time>
      </trkpt>
      <trkpt lat="50.34345" lon="3.24107">
        <ele>26.9</ele>
        <time>2023-01-22T09:21:54Z</time>
      </trkpt>
      <trkpt lat="50.34345" lon="3.24107">
        <ele>26.9</ele>
        <time>2023-01-22T09:21:55Z</time>
      </trkpt>
      <trkpt lat="50.34346" lon="3.24108">
        <ele>27</ele>
        <time>2023-01-22T09:21:56Z</time>
      </trkpt>
      <trkpt lat="50.34347" lon="3.24109">
        <ele>27</ele>
        <time>2023-01-22T09:21:57Z</time>
      </trkpt>
      <trkpt lat="50.34348" lon="3.2411">
        <ele>27.1</ele>
        <time>2023-01-22T09:21:58Z</time>
      </trkpt>
      <trkpt lat="50.34349" lon="3.24111">
        <ele>27.1</ele>
        <time>2023-01-22T09:21:59Z</time>
      </trkpt>
      <trkpt lat="50.3435" lon="3.24112">
        <ele>20.645594</ele>
        <time>2023-01-22T09:22:00Z</time>
      </trkpt>
      <trkpt lat="50.34351" lon="3.24114">
        <ele>27.2</ele>
        <time>2023-01-22T09:22:01Z</time>
      </trkpt>
      <trkpt lat="50.34352" lon="3.24116">
        <ele>27.2</ele>
        <time>2023-01-22T09:22:02Z</time>
      </trkpt>
      <trkpt lat="50.34353" lon="3.24117">
        <ele>27.2</ele>
        <time>2023-01-22T09:22:03Z</time>
      </trkpt>
      <trkpt lat="50.34354" lon="3.24119">
        <ele>27.2</ele>
        <time>2023-01-22T09:22:04Z</time>
      </trkpt>
      <trkpt lat="50.34355" lon="3.24121">
        <ele>27.2</ele>
        <time>2023-01-22T09:22:05Z</time>
      </trkpt>
      <trkpt lat="50.34356" lon="3.24122">
        <ele>27.3</ele>
        <time>2023-01-22T09:22:06Z</time>
      </trkpt>
      <trkpt lat="50.34358" lon="3.24124">
        <ele>27.3</ele>
        <time>2023-01-22T09:22:07Z</time>
      </trkpt>
      <trkpt lat="50.34358" lon="3.24125">
        <ele>27.3</ele>
        <time>2023-01-22T09:22:08Z</time>
      </trkpt>
      <trkpt lat="50.34358" lon="3.24128">
        <ele>27.2</ele>
        <time>2023-01-22T09:22:09Z</time>
      </trkpt>
      <trkpt lat="50.34359" lon="3.2413">
        <ele>20.627571</ele>
        <time>2023-01-22T09:22:10Z</time>
      </trkpt>
      <trkpt lat="50.3436" lon="3.24132">
        <ele>27.2</ele>
        <time>2023-01-22T09:22:11Z</time>
      </trkpt>
      <trkpt lat="50.3436" lon="3.24134">
        <ele>27.1</ele>
        <time>2023-01-22T09:22:12Z</time>
      </trkpt>
      <trkpt lat="50.34361" lon="3.24136">
        <ele>27.1</ele>
        <time>2023-01-22T09:22:13Z</time>
      </trkpt>
      <trkpt lat="50.34362" lon="3.24137">
        <ele>27.1</ele>
        <time>2023-01-22T09:22:14Z</time>
      </trkpt>
      <trkpt lat="50.34362" lon="3.24139">
        <ele>27.1</ele>
        <time>2023-01-22T09:22:15Z</time>
      </trkpt>
      <trkpt lat="50.34363" lon="3.24141">
        <ele>27.1</ele>
        <time>2023-01-22T09:22:16Z</time>
      </trkpt>
      <trkpt lat="50.34364" lon="3.24143">
        <ele>27.2</ele>
        <time>2023-01-22T09:22:17Z</time>
      </trkpt>
      <trkpt lat="50.34364" lon="3.24144">
        <ele>27.2</ele>
        <time>2023-01-22T09:22:18Z</time>
      </trkpt>
      <trkpt lat="50.34364" lon="3.24146">
        <ele>27.2</ele>
        <time>2023-01-22T09:22:19Z</time>
      </trkpt>
      <trkpt lat="50.34365" lon="3.24147">
        <ele>20.284195</ele>
        <time>2023-01-22T09:22:20Z</time>
      </trkpt>
      <trkpt lat="50.34366" lon="3.24149">
        <ele>27.3</ele>
        <time>2023-01-22T09:22:21Z</time>
      </trkpt>
      <trkpt lat="50.34366" lon="3.24151">
        <ele>27.3</ele>
        <time>2023-01-22T09:22:22Z</time>
      </trkpt>
      <trkpt lat="50.34366" lon="3.24152">
        <ele>27.3</ele>
        <time>2023-01-22T09:22:23Z</time>
      </trkpt>
      <trkpt lat="50.34367" lon="3.24153">
        <ele>27.3</ele>
        <time>2023-01-22T09:22:24Z</time>
      </trkpt>
      <trkpt lat="50.34367" lon="3.24155">
        <ele>27.3</ele>
        <time>2023-01-22T09:22:25Z</time>
      </trkpt>
      <trkpt lat="50.34368" lon="3.24158">
        <ele>27.3</ele>
        <time>2023-01-22T09:22:26Z</time>
      </trkpt>
      <trkpt lat="50.34369" lon="3.2416">
        <ele>27.3</ele>
        <time>2023-01-22T09:22:27Z</time>
      </trkpt>
      <trkpt lat="50.3437" lon="3.24163">
        <ele>27.4</ele>
        <time>2023-01-22T09:22:28Z</time>
      </trkpt>
      <trkpt lat="50.3437" lon="3.24165">
        <ele>27.3</ele>
        <time>2023-01-22T09:22:29Z</time>
      </trkpt>
      <trkpt lat="50.3437" lon="3.24166">
        <ele>20.132427</ele>
        <time>2023-01-22T09:22:30Z</time>
      </trkpt>
      <trkpt lat="50.3437" lon="3.24168">
        <ele>27.3</ele>
        <time>2023-01-22T09:22:31Z</time>
      </trkpt>
      <trkpt lat="50.3437" lon="3.2417">
        <ele>27.3</ele>
        <time>2023-01-22T09:22:32Z</time>
      </trkpt>
      <trkpt lat="50.3437" lon="3.24172">
        <ele>27.3</ele>
        <time>2023-01-22T09:22:33Z</time>
      </trkpt>
      <trkpt lat="50.34371" lon="3.24174">
        <ele>27.3</ele>
        <time>2023-01-22T09:22:34Z</time>
      </trkpt>
      <trkpt lat="50.34371" lon="3.24176">
        <ele>27.2</ele>
        <time>2023-01-22T09:22:35Z</time>
      </trkpt>
      <trkpt lat="50.34371" lon="3.24178">
        <ele>27.2</ele>
        <time>2023-01-22T09:22:36Z</time>
      </trkpt>
      <trkpt lat="50.34372" lon="3.24178">
        <ele>27.2</ele>
        <time>2023-01-22T09:22:37Z</time>
      </trkpt>
      <trkpt lat="50.34372" lon="3.24179">
        <ele>27.2</ele>
        <time>2023-01-22T09:22:38Z</time>
      </trkpt>
      <trkpt lat="50.34373" lon="3.24181">
        <ele>27.2</ele>
        <time>2023-01-22T09:22:39Z</time>
      </trkpt>
      <trkpt lat="50.34373" lon="3.24182">
        <ele>20.049904</ele>
        <time>2023-01-22T09:22:40Z</time>
      </trkpt>
      <trkpt lat="50.34374" lon="3.24184">
        <ele>27.2</ele>
        <time>2023-01-22T09:22:41Z</time>
      </trkpt>
      <trkpt lat="50.34375" lon="3.24185">
        <ele>27.2</ele>
        <time>2023-01-22T09:22:42Z</time>
      </trkpt>
      <trkpt lat="50.34375" lon="3.24187">
        <ele>27.1</ele>
        <time>2023-01-22T09:22:43Z</time>
      </trkpt>
      <trkpt lat="50.34375" lon="3.24188">
        <ele>27.1</ele>
        <time>2023-01-22T09:22:44Z</time>
      </trkpt>
      <trkpt lat="50.34376" lon="3.24189">
        <ele>27.1</ele>
        <time>2023-01-22T09:22:45Z</time>
      </trkpt>
      <trkpt lat="50.34376" lon="3.2419">
        <ele>27.1</ele>
        <time>2023-01-22T09:22:46Z</time>
      </trkpt>
      <trkpt lat="50.34376" lon="3.2419">
        <ele>27.1</ele>
        <time>2023-01-22T09:22:47Z</time>
      </trkpt>
      <trkpt lat="50.34376" lon="3.2419">
        <ele>27.1</ele>
        <time>2023-01-22T09:22:48Z</time>
      </trkpt>
      <trkpt lat="50.34376" lon="3.2419">
        <ele>27.1</ele>
        <time>2023-01-22T09:22:49Z</time>
      </trkpt>
      <trkpt lat="50.34376" lon="3.2419">
        <ele>20.063185</ele>
        <time>2023-01-22T09:22:50Z</time>
      </trkpt>
      <trkpt lat="50.34376" lon="3.2419">
        <ele>27.1</ele>
        <time>2023-01-22T09:22:51Z</time>
      </trkpt>
      <trkpt lat="50.34376" lon="3.2419">
        <ele>27.1</ele>
        <time>2023-01-22T09:22:52Z</time>
      </trkpt>
      <trkpt lat="50.34376" lon="3.2419">
        <ele>27.1</ele>
        <time>2023-01-22T09:22:53Z</time>
      </trkpt>
      <trkpt lat="50.34376" lon="3.2419">
        <ele>27.1</ele>
        <time>2023-01-22T09:22:54Z</time>
      </trkpt>
      <trkpt lat="50.34376" lon="3.2419">
        <ele>27.1</ele>
        <time>2023-01-22T09:22:55Z</time>
      </trkpt>
      <trkpt lat="50.34376" lon="3.2419">
        <ele>27.1</ele>
        <time>2023-01-22T09:22:56Z</time>
      </trkpt>
      <trkpt lat="50.34376" lon="3.2419">
        <ele>27.1</ele>
        <time>2023-01-22T09:22:57Z</time>
      </trkpt>
      <trkpt lat="50.34376" lon="3.2419">
        <ele>27.1</ele>
        <time>2023-01-22T09:22:58Z</time>
      </trkpt>
      <trkpt lat="50.34376" lon="3.2419">
        <ele>27.1</ele>
        <time>2023-01-22T09:22:59Z</time>
      </trkpt>
      <trkpt lat="50.34376" lon="3.2419">
        <ele>19.983507</ele>
        <time>2023-01-22T09:23:00Z</time>
      </trkpt>
      <trkpt lat="50.34376" lon="3.2419">
        <ele>27.1</ele>
        <time>2023-01-22T09:23:01Z</time>
      </trkpt>
      <trkpt lat="50.34376" lon="3.2419">
        <ele>27.1</ele>
        <time>2023-01-22T09:23:02Z</time>
      </trkpt>
      <trkpt lat="50.34376" lon="3.2419">
        <ele>27.1</ele>
        <time>2023-01-22T09:23:03Z</time>
      </trkpt>
      <trkpt lat="50.34376" lon="3.2419">
        <ele>27.1</ele>
        <time>2023-01-22T09:23:04Z</time>
      </trkpt>
      <trkpt lat="50.34376" lon="3.2419">
        <ele>27.1</ele>
        <time>2023-01-22T09:23:05Z</time>
      </trkpt>
      <trkpt lat="50.34376" lon="3.2419">
        <ele>27.1</ele>
        <time>2023-01-22T09:23:06Z</time>
      </trkpt>
      <trkpt lat="50.34376" lon="3.2419">
        <ele>27.1</ele>
        <time>2023-01-22T09:23:07Z</time>
      </trkpt>
      <trkpt lat="50.34376" lon="3.2419">
        <ele>27.1</ele>
        <time>2023-01-22T09:23:08Z</time>
      </trkpt>
      <trkpt lat="50.34376" lon="3.2419">
        <ele>27.1</ele>
        <time>2023-01-22T09:23:09Z</time>
      </trkpt>
      <trkpt lat="50.34376" lon="3.2419">
        <ele>20.04706</ele>
        <time>2023-01-22T09:23:10Z</time>
      </trkpt>
      <trkpt lat="50.34377" lon="3.2419">
        <ele>27.1</ele>
        <time>2023-01-22T09:23:11Z</time>
      </trkpt>
      <trkpt lat="50.34377" lon="3.2419">
        <ele>27.1</ele>
        <time>2023-01-22T09:23:12Z</time>
      </trkpt>
      <trkpt lat="50.34377" lon="3.24192">
        <ele>27.1</ele>
        <time>2023-01-22T09:23:13Z</time>
      </trkpt>
      <trkpt lat="50.34377" lon="3.24193">
        <ele>27</ele>
        <time>2023-01-22T09:23:14Z</time>
      </trkpt>
      <trkpt lat="50.34377" lon="3.24193">
        <ele>27</ele>
        <time>2023-01-22T09:23:15Z</time>
      </trkpt>
      <trkpt lat="50.34377" lon="3.24193">
        <ele>27</ele>
        <time>2023-01-22T09:23:16Z</time>
      </trkpt>
      <trkpt lat="50.34377" lon="3.24193">
        <ele>27</ele>
        <time>2023-01-22T09:23:17Z</time>
      </trkpt>
      <trkpt lat="50.34376" lon="3.24193">
        <ele>27</ele>
        <time>2023-01-22T09:23:18Z</time>
      </trkpt>
      <trkpt lat="50.34377" lon="3.24193">
        <ele>27</ele>
        <time>2023-01-22T09:23:19Z</time>
      </trkpt>
      <trkpt lat="50.34376" lon="3.24194">
        <ele>20.134325</ele>
        <time>2023-01-22T09:23:20Z</time>
      </trkpt>
      <trkpt lat="50.34376" lon="3.24194">
        <ele>27</ele>
        <time>2023-01-22T09:23:21Z</time>
      </trkpt>
      <trkpt lat="50.34376" lon="3.24195">
        <ele>27</ele>
        <time>2023-01-22T09:23:22Z</time>
      </trkpt>
      <trkpt lat="50.34376" lon="3.24195">
        <ele>27</ele>
        <time>2023-01-22T09:23:23Z</time>
      </trkpt>
      <trkpt lat="50.34376" lon="3.24195">
        <ele>27</ele>
        <time>2023-01-22T09:23:24Z</time>
      </trkpt>
      <trkpt lat="50.34376" lon="3.24195">
        <ele>27</ele>
        <time>2023-01-22T09:23:25Z</time>
      </trkpt>
      <trkpt lat="50.34376" lon="3.24195">
        <ele>27</ele>
        <time>2023-01-22T09:23:26Z</time>
        <extensions>
          <gpxtpx:TrackPointExtension xmlns:gpxtpx="http://www.garmin.com/xmlschemas/TrackPointExtension/v1">
            <gpxtpx:hr>133</gpxtpx:hr>
          </gpxtpx:TrackPointExtension>
        </extensions>
      </trkpt>
      <trkpt lat="50.34376" lon="3.24195">
        <ele>27</ele>
        <time>2023-01-22T09:23:27Z</time>
      </trkpt>
      <trkpt lat="50.34376" lon="3.24195">
        <ele>27</ele>
        <time>2023-01-22T09:23:28Z</time>
      </trkpt>
      <trkpt lat="50.34376" lon="3.24195">
        <ele>27</ele>
        <time>2023-01-22T09:23:29Z</time>
      </trkpt>
      <trkpt lat="50.34376" lon="3.24195">
        <ele>20.14381</ele>
        <time>2023-01-22T09:23:30Z</time>
      </trkpt>
      <trkpt lat="50.34376" lon="3.24195">
        <ele>27</ele>
        <time>2023-01-22T09:23:31Z</time>
      </trkpt>
      <trkpt lat="50.34376" lon="3.24196">
        <ele>27</ele>
        <time>2023-01-22T09:23:32Z</time>
      </trkpt>
      <trkpt lat="50.34376" lon="3.24196">
        <ele>27</ele>
        <time>2023-01-22T09:23:33Z</time>
      </trkpt>
      <trkpt lat="50.34376" lon="3.24196">
        <ele>27</ele>
        <time>2023-01-22T09:23:34Z</time>
      </trkpt>
      <trkpt lat="50.34376" lon="3.24196">
        <ele>27</ele>
        <time>2023-01-22T09:23:35Z</time>
      </trkpt>
      <trkpt lat="50.34376" lon="3.24196">
        <ele>27</ele>
        <time>2023-01-22T09:23:36Z</time>
      </trkpt>
      <trkpt lat="50.34376" lon="3.24196">
        <ele>27</ele>
        <time>2023-01-22T09:23:37Z</time>
      </trkpt>
      <trkpt lat="50.34376" lon="3.24196">
        <ele>27</ele>
        <time>2023-01-22T09:23:38Z</time>
      </trkpt>
      <trkpt lat="50.34376" lon="3.24196">
        <ele>27</ele>
        <time>2023-01-22T09:23:39Z</time>
        <extensions>
          <gpxtpx:TrackPointExtension xmlns:gpxtpx="http://www.garmin.com/xmlschemas/TrackPointExtension/v1">
            <gpxtpx:hr>115</gpxtpx:hr>
          </gpxtpx:TrackPointExtension>
        </extensions>
      </trkpt>
      <trkpt lat="50.34376" lon="3.24196">
        <ele>20.209259</ele>
        <time>2023-01-22T09:23:40Z</time>
      </trkpt>
      <trkpt lat="50.34376" lon="3.24197">
        <ele>27</ele>
        <time>2023-01-22T09:23:41Z</time>
      </trkpt>
      <trkpt lat="50.34376" lon="3.24197">
        <ele>27</ele>
        <time>2023-01-22T09:23:42Z</time>
      </trkpt>
      <trkpt lat="50.34376" lon="3.24197">
        <ele>27</ele>
        <time>2023-01-22T09:23:43Z</time>
      </trkpt>
      <trkpt lat="50.34376" lon="3.24197">
        <ele>27</ele>
        <time>2023-01-22T09:23:44Z</time>
      </trkpt>
      <trkpt lat="50.34376" lon="3.24197">
        <ele>27</ele>
        <time>2023-01-22T09:23:45Z</time>
      </trkpt>
      <trkpt lat="50.34376" lon="3.24197">
        <ele>27</ele>
        <time>2023-01-22T09:23:46Z</time>
      </trkpt>
      <trkpt lat="50.34376" lon="3.24197">
        <ele>27</ele>
        <time>2023-01-22T09:23:47Z</time>
      </trkpt>
      <trkpt lat="50.34376" lon="3.24197">
        <ele>27</ele>
        <time>2023-01-22T09:23:48Z</time>
      </trkpt>
      <trkpt lat="50.34376" lon="3.24197">
        <ele>27</ele>
        <time>2023-01-22T09:23:49Z</time>
      </trkpt>
      <trkpt lat="50.34376" lon="3.24197">
        <ele>20.18365</ele>
        <time>2023-01-22T09:23:50Z</time>
      </trkpt>
      <trkpt lat="50.34376" lon="3.24198">
        <ele>27</ele>
        <time>2023-01-22T09:23:51Z</time>
      </trkpt>
      <trkpt lat="50.34376" lon="3.24199">
        <ele>27</ele>
        <time>2023-01-22T09:23:52Z</time>
      </trkpt>
      <trkpt lat="50.34375" lon="3.242">
        <ele>27</ele>
        <time>2023-01-22T09:23:53Z</time>
      </trkpt>
      <trkpt lat="50.34375" lon="3.24201">
        <ele>27</ele>
        <time>2023-01-22T09:23:54Z</time>
      </trkpt>
      <trkpt lat="50.34375" lon="3.24203">
        <ele>27</ele>
        <time>2023-01-22T09:23:55Z</time>
      </trkpt>
      <trkpt lat="50.34375" lon="3.24204">
        <ele>27</ele>
        <time>2023-01-22T09:23:56Z</time>
      </trkpt>
      <trkpt lat="50.34374" lon="3.24206">
        <ele>27</ele>
        <time>2023-01-22T09:23:57Z</time>
      </trkpt>
      <trkpt lat="50.34374" lon="3.24207">
        <ele>27</ele>
        <time>2023-01-22T09:23:58Z</time>
      </trkpt>
      <trkpt lat="50.34373" lon="3.24208">
        <ele>27</ele>
        <time>2023-01-22T09:23:59Z</time>
        <extensions>
          <gpxtpx:TrackPointExtension xmlns:gpxtpx="http://www.garmin.com/xmlschemas/TrackPointExtension/v1">
            <gpxtpx:hr>107</gpxtpx:hr>
          </gpxtpx:TrackPointExtension>
        </extensions>
      </trkpt>
      <trkpt lat="50.34372" lon="3.2421">
        <ele>19.991096</ele>
        <time>2023-01-22T09:24:00Z</time>
      </trkpt>
      <trkpt lat="50.34372" lon="3.24212">
        <ele>27</ele>
        <time>2023-01-22T09:24:01Z</time>
      </trkpt>
      <trkpt lat="50.34372" lon="3.24216">
        <ele>27</ele>
        <time>2023-01-22T09:24:02Z</time>
      </trkpt>
      <trkpt lat="50.34372" lon="3.24219">
        <ele>27</ele>
        <time>2023-01-22T09:24:03Z</time>
      </trkpt>
      <trkpt lat="50.34372" lon="3.24222">
        <ele>27</ele>
        <time>2023-01-22T09:24:04Z</time>
      </trkpt>
      <trkpt lat="50.34372" lon="3.24224">
        <ele>27</ele>
        <time>2023-01-22T09:24:05Z</time>
      </trkpt>
      <trkpt lat="50.34371" lon="3.24227">
        <ele>26.9</ele>
        <time>2023-01-22T09:24:06Z</time>
      </trkpt>
      <trkpt lat="50.34371" lon="3.24229">
        <ele>26.9</ele>
        <time>2023-01-22T09:24:07Z</time>
      </trkpt>
      <trkpt lat="50.34371" lon="3.24232">
        <ele>26.9</ele>
        <time>2023-01-22T09:24:08Z</time>
      </trkpt>
      <trkpt lat="50.3437" lon="3.24235">
        <ele>26.8</ele>
        <time>2023-01-22T09:24:09Z</time>
      </trkpt>
      <trkpt lat="50.3437" lon="3.24237">
        <ele>19.907625</ele>
        <time>2023-01-22T09:24:10Z</time>
      </trkpt>
      <trkpt lat="50.34371" lon="3.2424">
        <ele>26.8</ele>
        <time>2023-01-22T09:24:11Z</time>
      </trkpt>
      <trkpt lat="50.34371" lon="3.24242">
        <ele>26.8</ele>
        <time>2023-01-22T09:24:12Z</time>
      </trkpt>
      <trkpt lat="50.34371" lon="3.24245">
        <ele>26.7</ele>
        <time>2023-01-22T09:24:13Z</time>
      </trkpt>
      <trkpt lat="50.34372" lon="3.24247">
        <ele>26.7</ele>
        <time>2023-01-22T09:24:14Z</time>
      </trkpt>
      <trkpt lat="50.34372" lon="3.24249">
        <ele>26.6</ele>
        <time>2023-01-22T09:24:15Z</time>
      </trkpt>
      <trkpt lat="50.34372" lon="3.24251">
        <ele>26.6</ele>
        <time>2023-01-22T09:24:16Z</time>
      </trkpt>
      <trkpt lat="50.34373" lon="3.24253">
        <ele>26.4</ele>
        <time>2023-01-22T09:24:17Z</time>
      </trkpt>
      <trkpt lat="50.34374" lon="3.24254">
        <ele>26.3</ele>
        <time>2023-01-22T09:24:18Z</time>
      </trkpt>
      <trkpt lat="50.34373" lon="3.24256">
        <ele>26.3</ele>
        <time>2023-01-22T09:24:19Z</time>
        <extensions>
          <gpxtpx:TrackPointExtension xmlns:gpxtpx="http://www.garmin.com/xmlschemas/TrackPointExtension/v1">
            <gpxtpx:hr>114</gpxtpx:hr>
          </gpxtpx:TrackPointExtension>
        </extensions>
      </trkpt>
      <trkpt lat="50.34373" lon="3.24257">
        <ele>19.607891</ele>
        <time>2023-01-22T09:24:20Z</time>
      </trkpt>
      <trkpt lat="50.34372" lon="3.24259">
        <ele>26.1</ele>
        <time>2023-01-22T09:24:21Z</time>
      </trkpt>
      <trkpt lat="50.34371" lon="3.2426">
        <ele>26.1</ele>
        <time>2023-01-22T09:24:22Z</time>
      </trkpt>
      <trkpt lat="50.34371" lon="3.24261">
        <ele>26</ele>
        <time>2023-01-22T09:24:23Z</time>
      </trkpt>
      <trkpt lat="50.34372" lon="3.24261">
        <ele>26</ele>
        <time>2023-01-22T09:24:24Z</time>
      </trkpt>
      <trkpt lat="50.34372" lon="3.24261">
        <ele>26</ele>
        <time>2023-01-22T09:24:25Z</time>
      </trkpt>
      <trkpt lat="50.34372" lon="3.24262">
        <ele>25.9</ele>
        <time>2023-01-22T09:24:26Z</time>
      </trkpt>
      <trkpt lat="50.34372" lon="3.24263">
        <ele>25.9</ele>
        <time>2023-01-22T09:24:27Z</time>
      </trkpt>
      <trkpt lat="50.34372" lon="3.24263">
        <ele>25.8</ele>
        <time>2023-01-22T09:24:28Z</time>
      </trkpt>
      <trkpt lat="50.34372" lon="3.24263">
        <ele>25.8</ele>
        <time>2023-01-22T09:24:29Z</time>
      </trkpt>
      <trkpt lat="50.34372" lon="3.24263">
        <ele>19.735943</ele>
        <time>2023-01-22T09:24:30Z</time>
      </trkpt>
      <trkpt lat="50.34372" lon="3.24263">
        <ele>25.8</ele>
        <time>2023-01-22T09:24:31Z</time>
      </trkpt>
      <trkpt lat="50.34372" lon="3.24263">
        <ele>25.9</ele>
        <time>2023-01-22T09:24:32Z</time>
      </trkpt>
      <trkpt lat="50.34372" lon="3.24263">
        <ele>25.9</ele>
        <time>2023-01-22T09:24:33Z</time>
      </trkpt>
      <trkpt lat="50.34372" lon="3.24263">
        <ele>25.9</ele>
        <time>2023-01-22T09:24:34Z</time>
      </trkpt>
      <trkpt lat="50.34372" lon="3.24263">
        <ele>25.8</ele>
        <time>2023-01-22T09:24:35Z</time>
      </trkpt>
      <trkpt lat="50.34372" lon="3.24263">
        <ele>25.8</ele>
        <time>2023-01-22T09:24:36Z</time>
      </trkpt>
      <trkpt lat="50.34372" lon="3.24263">
        <ele>25.9</ele>
        <time>2023-01-22T09:24:37Z</time>
      </trkpt>
      <trkpt lat="50.34372" lon="3.24263">
        <ele>25.9</ele>
        <time>2023-01-22T09:24:38Z</time>
      </trkpt>
      <trkpt lat="50.34372" lon="3.24263">
        <ele>25.8</ele>
        <time>2023-01-22T09:24:39Z</time>
        <extensions>
          <gpxtpx:TrackPointExtension xmlns:gpxtpx="http://www.garmin.com/xmlschemas/TrackPointExtension/v1">
            <gpxtpx:hr>108</gpxtpx:hr>
          </gpxtpx:TrackPointExtension>
        </extensions>
      </trkpt>
      <trkpt lat="50.34372" lon="3.24263">
        <ele>19.838383</ele>
        <time>2023-01-22T09:24:40Z</time>
      </trkpt>
      <trkpt lat="50.34372" lon="3.24263">
        <ele>25.8</ele>
        <time>2023-01-22T09:24:41Z</time>
      </trkpt>
      <trkpt lat="50.34372" lon="3.24264">
        <ele>25.8</ele>
        <time>2023-01-22T09:24:42Z</time>
      </trkpt>
      <trkpt lat="50.34372" lon="3.24264">
        <ele>25.8</ele>
        <time>2023-01-22T09:24:43Z</time>
      </trkpt>
      <trkpt lat="50.34373" lon="3.24264">
        <ele>25.8</ele>
        <time>2023-01-22T09:24:44Z</time>
      </trkpt>
      <trkpt lat="50.34373" lon="3.24264">
        <ele>25.8</ele>
        <time>2023-01-22T09:24:45Z</time>
      </trkpt>
      <trkpt lat="50.34372" lon="3.24264">
        <ele>25.8</ele>
        <time>2023-01-22T09:24:46Z</time>
      </trkpt>
      <trkpt lat="50.34372" lon="3.24264">
        <ele>25.8</ele>
        <time>2023-01-22T09:24:47Z</time>
      </trkpt>
      <trkpt lat="50.34372" lon="3.24264">
        <ele>25.8</ele>
        <time>2023-01-22T09:24:48Z</time>
      </trkpt>
      <trkpt lat="50.34372" lon="3.24264">
        <ele>25.8</ele>
        <time>2023-01-22T09:24:49Z</time>
      </trkpt>
      <trkpt lat="50.34372" lon="3.24264">
        <ele>19.97592</ele>
        <time>2023-01-22T09:24:50Z</time>
      </trkpt>
      <trkpt lat="50.34372" lon="3.24264">
        <ele>25.8</ele>
        <time>2023-01-22T09:24:51Z</time>
      </trkpt>
      <trkpt lat="50.34372" lon="3.24264">
        <ele>25.8</ele>
        <time>2023-01-22T09:24:52Z</time>
      </trkpt>
      <trkpt lat="50.34372" lon="3.24264">
        <ele>25.8</ele>
        <time>2023-01-22T09:24:53Z</time>
      </trkpt>
      <trkpt lat="50.34372" lon="3.24264">
        <ele>25.8</ele>
        <time>2023-01-22T09:24:54Z</time>
      </trkpt>
      <trkpt lat="50.34372" lon="3.24264">
        <ele>25.8</ele>
        <time>2023-01-22T09:24:55Z</time>
      </trkpt>
      <trkpt lat="50.34372" lon="3.24264">
        <ele>25.8</ele>
        <time>2023-01-22T09:24:56Z</time>
      </trkpt>
      <trkpt lat="50.34373" lon="3.24263">
        <ele>25.8</ele>
        <time>2023-01-22T09:24:57Z</time>
      </trkpt>
      <trkpt lat="50.34373" lon="3.24263">
        <ele>25.8</ele>
        <time>2023-01-22T09:24:58Z</time>
      </trkpt>
      <trkpt lat="50.34373" lon="3.24263">
        <ele>25.8</ele>
        <time>2023-01-22T09:24:59Z</time>
        <extensions>
          <gpxtpx:TrackPointExtension xmlns:gpxtpx="http://www.garmin.com/xmlschemas/TrackPointExtension/v1">
            <gpxtpx:hr>117</gpxtpx:hr>
          </gpxtpx:TrackPointExtension>
        </extensions>
      </trkpt>
      <trkpt lat="50.34373" lon="3.24263">
        <ele>19.742582</ele>
        <time>2023-01-22T09:25:00Z</time>
      </trkpt>
      <trkpt lat="50.34373" lon="3.24263">
        <ele>25.8</ele>
        <time>2023-01-22T09:25:01Z</time>
      </trkpt>
      <trkpt lat="50.34373" lon="3.24263">
        <ele>25.8</ele>
        <time>2023-01-22T09:25:02Z</time>
      </trkpt>
      <trkpt lat="50.34373" lon="3.24263">
        <ele>25.8</ele>
        <time>2023-01-22T09:25:03Z</time>
      </trkpt>
      <trkpt lat="50.34373" lon="3.24263">
        <ele>25.8</ele>
        <time>2023-01-22T09:25:04Z</time>
      </trkpt>
      <trkpt lat="50.34372" lon="3.24263">
        <ele>25.8</ele>
        <time>2023-01-22T09:25:05Z</time>
      </trkpt>
      <trkpt lat="50.34372" lon="3.24263">
        <ele>25.8</ele>
        <time>2023-01-22T09:25:06Z</time>
      </trkpt>
      <trkpt lat="50.34372" lon="3.24263">
        <ele>25.8</ele>
        <time>2023-01-22T09:25:07Z</time>
      </trkpt>
      <trkpt lat="50.34373" lon="3.24263">
        <ele>25.8</ele>
        <time>2023-01-22T09:25:08Z</time>
      </trkpt>
      <trkpt lat="50.34373" lon="3.24263">
        <ele>25.8</ele>
        <time>2023-01-22T09:25:09Z</time>
      </trkpt>
      <trkpt lat="50.34373" lon="3.24263">
        <ele>19.791904</ele>
        <time>2023-01-22T09:25:10Z</time>
      </trkpt>
      <trkpt lat="50.34374" lon="3.24262">
        <ele>25.9</ele>
        <time>2023-01-22T09:25:11Z</time>
      </trkpt>
      <trkpt lat="50.34374" lon="3.24263">
        <ele>25.8</ele>
        <time>2023-01-22T09:25:12Z</time>
      </trkpt>
      <trkpt lat="50.34374" lon="3.24263">
        <ele>25.8</ele>
        <time>2023-01-22T09:25:13Z</time>
      </trkpt>
      <trkpt lat="50.34374" lon="3.24263">
        <ele>25.8</ele>
        <time>2023-01-22T09:25:14Z</time>
      </trkpt>
      <trkpt lat="50.34374" lon="3.24263">
        <ele>25.8</ele>
        <time>2023-01-22T09:25:15Z</time>
      </trkpt>
      <trkpt lat="50.34374" lon="3.24263">
        <ele>25.8</ele>
        <time>2023-01-22T09:25:16Z</time>
      </trkpt>
      <trkpt lat="50.34374" lon="3.24263">
        <ele>25.8</ele>
        <time>2023-01-22T09:25:17Z</time>
      </trkpt>
      <trkpt lat="50.34375" lon="3.24263">
        <ele>25.8</ele>
        <time>2023-01-22T09:25:18Z</time>
      </trkpt>
      <trkpt lat="50.34376" lon="3.24262">
        <ele>25.8</ele>
        <time>2023-01-22T09:25:19Z</time>
        <extensions>
          <gpxtpx:TrackPointExtension xmlns:gpxtpx="http://www.garmin.com/xmlschemas/TrackPointExtension/v1">
            <gpxtpx:hr>117</gpxtpx:hr>
          </gpxtpx:TrackPointExtension>
        </extensions>
      </trkpt>
      <trkpt lat="50.34377" lon="3.24263">
        <ele>19.50166</ele>
        <time>2023-01-22T09:25:20Z</time>
      </trkpt>
      <trkpt lat="50.34378" lon="3.24263">
        <ele>25.8</ele>
        <time>2023-01-22T09:25:21Z</time>
      </trkpt>
      <trkpt lat="50.3438" lon="3.24263">
        <ele>25.7</ele>
        <time>2023-01-22T09:25:22Z</time>
      </trkpt>
      <trkpt lat="50.34382" lon="3.24263">
        <ele>25.7</ele>
        <time>2023-01-22T09:25:23Z</time>
      </trkpt>
      <trkpt lat="50.34383" lon="3.24264">
        <ele>25.6</ele>
        <time>2023-01-22T09:25:24Z</time>
      </trkpt>
      <trkpt lat="50.34385" lon="3.24264">
        <ele>25.6</ele>
        <time>2023-01-22T09:25:25Z</time>
      </trkpt>
      <trkpt lat="50.34386" lon="3.24265">
        <ele>25.5</ele>
        <time>2023-01-22T09:25:26Z</time>
      </trkpt>
      <trkpt lat="50.34388" lon="3.24266">
        <ele>25.5</ele>
        <time>2023-01-22T09:25:27Z</time>
      </trkpt>
      <trkpt lat="50.34389" lon="3.24266">
        <ele>25.4</ele>
        <time>2023-01-22T09:25:28Z</time>
      </trkpt>
      <trkpt lat="50.34391" lon="3.24267">
        <ele>25.4</ele>
        <time>2023-01-22T09:25:29Z</time>
      </trkpt>
      <trkpt lat="50.34393" lon="3.24267">
        <ele>19.299627</ele>
        <time>2023-01-22T09:25:30Z</time>
      </trkpt>
      <trkpt lat="50.34394" lon="3.24267">
        <ele>25.5</ele>
        <time>2023-01-22T09:25:31Z</time>
      </trkpt>
      <trkpt lat="50.34396" lon="3.24267">
        <ele>25.5</ele>
        <time>2023-01-22T09:25:32Z</time>
      </trkpt>
      <trkpt lat="50.34398" lon="3.24267">
        <ele>25.5</ele>
        <time>2023-01-22T09:25:33Z</time>
      </trkpt>
      <trkpt lat="50.34399" lon="3.24267">
        <ele>25.6</ele>
        <time>2023-01-22T09:25:34Z</time>
      </trkpt>
      <trkpt lat="50.34401" lon="3.24266">
        <ele>25.6</ele>
        <time>2023-01-22T09:25:35Z</time>
      </trkpt>
      <trkpt lat="50.34402" lon="3.24266">
        <ele>25.6</ele>
        <time>2023-01-22T09:25:36Z</time>
      </trkpt>
      <trkpt lat="50.34403" lon="3.24266">
        <ele>25.7</ele>
        <time>2023-01-22T09:25:37Z</time>
      </trkpt>
      <trkpt lat="50.34405" lon="3.24266">
        <ele>25.7</ele>
        <time>2023-01-22T09:25:38Z</time>
      </trkpt>
      <trkpt lat="50.34406" lon="3.24265">
        <ele>25.7</ele>
        <time>2023-01-22T09:25:39Z</time>
        <extensions>
          <gpxtpx:TrackPointExtension xmlns:gpxtpx="http://www.garmin.com/xmlschemas/TrackPointExtension/v1">
            <gpxtpx:hr>118</gpxtpx:hr>
          </gpxtpx:TrackPointExtension>
        </extensions>
      </trkpt>
      <trkpt lat="50.34407" lon="3.24265">
        <ele>19.4438</ele>
        <time>2023-01-22T09:25:40Z</time>
      </trkpt>
      <trkpt lat="50.34408" lon="3.24265">
        <ele>25.8</ele>
        <time>2023-01-22T09:25:41Z</time>
      </trkpt>
      <trkpt lat="50.3441" lon="3.24266">
        <ele>25.8</ele>
        <time>2023-01-22T09:25:42Z</time>
      </trkpt>
      <trkpt lat="50.34412" lon="3.24266">
        <ele>25.8</ele>
        <time>2023-01-22T09:25:43Z</time>
      </trkpt>
      <trkpt lat="50.34414" lon="3.24265">
        <ele>25.9</ele>
        <time>2023-01-22T09:25:44Z</time>
      </trkpt>
      <trkpt lat="50.34415" lon="3.24265">
        <ele>25.9</ele>
        <time>2023-01-22T09:25:45Z</time>
      </trkpt>
      <trkpt lat="50.34418" lon="3.24264">
        <ele>26</ele>
        <time>2023-01-22T09:25:46Z</time>
      </trkpt>
      <trkpt lat="50.34419" lon="3.24264">
        <ele>26</ele>
        <time>2023-01-22T09:25:47Z</time>
      </trkpt>
      <trkpt lat="50.34421" lon="3.24264">
        <ele>26</ele>
        <time>2023-01-22T09:25:48Z</time>
      </trkpt>
      <trkpt lat="50.34423" lon="3.24264">
        <ele>26</ele>
        <time>2023-01-22T09:25:49Z</time>
      </trkpt>
      <trkpt lat="50.34425" lon="3.24264">
        <ele>19.508299</ele>
        <time>2023-01-22T09:25:50Z</time>
      </trkpt>
      <trkpt lat="50.34425" lon="3.24264">
        <ele>26</ele>
        <time>2023-01-22T09:25:51Z</time>
      </trkpt>
      <trkpt lat="50.34427" lon="3.24265">
        <ele>25.9</ele>
        <time>2023-01-22T09:25:52Z</time>
      </trkpt>
      <trkpt lat="50.34429" lon="3.24265">
        <ele>25.9</ele>
        <time>2023-01-22T09:25:53Z</time>
      </trkpt>
      <trkpt lat="50.34431" lon="3.24264">
        <ele>26</ele>
        <time>2023-01-22T09:25:54Z</time>
      </trkpt>
      <trkpt lat="50.34433" lon="3.24264">
        <ele>26</ele>
        <time>2023-01-22T09:25:55Z</time>
      </trkpt>
      <trkpt lat="50.34434" lon="3.24265">
        <ele>26</ele>
        <time>2023-01-22T09:25:56Z</time>
      </trkpt>
      <trkpt lat="50.34436" lon="3.24265">
        <ele>25.9</ele>
        <time>2023-01-22T09:25:57Z</time>
      </trkpt>
      <trkpt lat="50.34438" lon="3.24265">
        <ele>25.9</ele>
        <time>2023-01-22T09:25:58Z</time>
      </trkpt>
      <trkpt lat="50.3444" lon="3.24266">
        <ele>25.9</ele>
        <time>2023-01-22T09:25:59Z</time>
        <extensions>
          <gpxtpx:TrackPointExtension xmlns:gpxtpx="http://www.garmin.com/xmlschemas/TrackPointExtension/v1">
            <gpxtpx:hr>116</gpxtpx:hr>
          </gpxtpx:TrackPointExtension>
        </extensions>
      </trkpt>
      <trkpt lat="50.34442" lon="3.24266">
        <ele>19.665752</ele>
        <time>2023-01-22T09:26:00Z</time>
      </trkpt>
      <trkpt lat="50.34443" lon="3.24265">
        <ele>25.9</ele>
        <time>2023-01-22T09:26:01Z</time>
      </trkpt>
      <trkpt lat="50.34445" lon="3.24265">
        <ele>25.9</ele>
        <time>2023-01-22T09:26:02Z</time>
      </trkpt>
      <trkpt lat="50.34447" lon="3.24265">
        <ele>25.9</ele>
        <time>2023-01-22T09:26:03Z</time>
      </trkpt>
      <trkpt lat="50.34448" lon="3.24265">
        <ele>25.9</ele>
        <time>2023-01-22T09:26:04Z</time>
      </trkpt>
      <trkpt lat="50.34449" lon="3.24265">
        <ele>25.8</ele>
        <time>2023-01-22T09:26:05Z</time>
      </trkpt>
      <trkpt lat="50.34451" lon="3.24265">
        <ele>25.8</ele>
        <time>2023-01-22T09:26:06Z</time>
      </trkpt>
      <trkpt lat="50.34452" lon="3.24265">
        <ele>25.8</ele>
        <time>2023-01-22T09:26:07Z</time>
      </trkpt>
      <trkpt lat="50.34454" lon="3.24264">
        <ele>25.8</ele>
        <time>2023-01-22T09:26:08Z</time>
      </trkpt>
      <trkpt lat="50.34456" lon="3.24264">
        <ele>25.8</ele>
        <time>2023-01-22T09:26:09Z</time>
      </trkpt>
      <trkpt lat="50.34458" lon="3.24265">
        <ele>19.638245</ele>
        <time>2023-01-22T09:26:10Z</time>
      </trkpt>
      <trkpt lat="50.34459" lon="3.24266">
        <ele>25.6</ele>
        <time>2023-01-22T09:26:11Z</time>
      </trkpt>
      <trkpt lat="50.3446" lon="3.24266">
        <ele>25.6</ele>
        <time>2023-01-22T09:26:12Z</time>
      </trkpt>
      <trkpt lat="50.34462" lon="3.24267">
        <ele>25.6</ele>
        <time>2023-01-22T09:26:13Z</time>
      </trkpt>
      <trkpt lat="50.34463" lon="3.24267">
        <ele>25.5</ele>
        <time>2023-01-22T09:26:14Z</time>
      </trkpt>
      <trkpt lat="50.34464" lon="3.24268">
        <ele>25.4</ele>
        <time>2023-01-22T09:26:15Z</time>
      </trkpt>
      <trkpt lat="50.34465" lon="3.24269">
        <ele>25.4</ele>
        <time>2023-01-22T09:26:16Z</time>
      </trkpt>
      <trkpt lat="50.34466" lon="3.24269">
        <ele>25.4</ele>
        <time>2023-01-22T09:26:17Z</time>
      </trkpt>
      <trkpt lat="50.34468" lon="3.2427">
        <ele>25.3</ele>
        <time>2023-01-22T09:26:18Z</time>
      </trkpt>
      <trkpt lat="50.34469" lon="3.2427">
        <ele>25.3</ele>
        <time>2023-01-22T09:26:19Z</time>
        <extensions>
          <gpxtpx:TrackPointExtension xmlns:gpxtpx="http://www.garmin.com/xmlschemas/TrackPointExtension/v1">
            <gpxtpx:hr>119</gpxtpx:hr>
          </gpxtpx:TrackPointExtension>
        </extensions>
      </trkpt>
      <trkpt lat="50.3447" lon="3.2427">
        <ele>19.580385</ele>
        <time>2023-01-22T09:26:20Z</time>
      </trkpt>
      <trkpt lat="50.34471" lon="3.24271">
        <ele>25.3</ele>
        <time>2023-01-22T09:26:21Z</time>
      </trkpt>
      <trkpt lat="50.34472" lon="3.24271">
        <ele>25.2</ele>
        <time>2023-01-22T09:26:22Z</time>
      </trkpt>
      <trkpt lat="50.34474" lon="3.24271">
        <ele>25.2</ele>
        <time>2023-01-22T09:26:23Z</time>
      </trkpt>
      <trkpt lat="50.34475" lon="3.24271">
        <ele>25.2</ele>
        <time>2023-01-22T09:26:24Z</time>
      </trkpt>
      <trkpt lat="50.34476" lon="3.24272">
        <ele>25.2</ele>
        <time>2023-01-22T09:26:25Z</time>
      </trkpt>
      <trkpt lat="50.34477" lon="3.24271">
        <ele>25.2</ele>
        <time>2023-01-22T09:26:26Z</time>
      </trkpt>
      <trkpt lat="50.34478" lon="3.24271">
        <ele>25.2</ele>
        <time>2023-01-22T09:26:27Z</time>
      </trkpt>
      <trkpt lat="50.3448" lon="3.24272">
        <ele>25.2</ele>
        <time>2023-01-22T09:26:28Z</time>
      </trkpt>
      <trkpt lat="50.34482" lon="3.24271">
        <ele>25.2</ele>
        <time>2023-01-22T09:26:29Z</time>
      </trkpt>
      <trkpt lat="50.34484" lon="3.24272">
        <ele>19.333773</ele>
        <time>2023-01-22T09:26:30Z</time>
      </trkpt>
      <trkpt lat="50.34486" lon="3.24272">
        <ele>25.2</ele>
        <time>2023-01-22T09:26:31Z</time>
      </trkpt>
      <trkpt lat="50.34487" lon="3.24272">
        <ele>25.2</ele>
        <time>2023-01-22T09:26:32Z</time>
      </trkpt>
      <trkpt lat="50.34488" lon="3.24273">
        <ele>25.2</ele>
        <time>2023-01-22T09:26:33Z</time>
      </trkpt>
      <trkpt lat="50.34489" lon="3.24273">
        <ele>25.2</ele>
        <time>2023-01-22T09:26:34Z</time>
      </trkpt>
      <trkpt lat="50.3449" lon="3.24273">
        <ele>25.2</ele>
        <time>2023-01-22T09:26:35Z</time>
      </trkpt>
      <trkpt lat="50.34492" lon="3.24273">
        <ele>25.2</ele>
        <time>2023-01-22T09:26:36Z</time>
      </trkpt>
      <trkpt lat="50.34493" lon="3.24272">
        <ele>25.2</ele>
        <time>2023-01-22T09:26:37Z</time>
      </trkpt>
      <trkpt lat="50.34493" lon="3.24272">
        <ele>25.2</ele>
        <time>2023-01-22T09:26:38Z</time>
      </trkpt>
      <trkpt lat="50.34493" lon="3.24272">
        <ele>25.2</ele>
        <time>2023-01-22T09:26:39Z</time>
        <extensions>
          <gpxtpx:TrackPointExtension xmlns:gpxtpx="http://www.garmin.com/xmlschemas/TrackPointExtension/v1">
            <gpxtpx:hr>115</gpxtpx:hr>
          </gpxtpx:TrackPointExtension>
        </extensions>
      </trkpt>
      <trkpt lat="50.34494" lon="3.24272">
        <ele>19.614532</ele>
        <time>2023-01-22T09:26:40Z</time>
      </trkpt>
      <trkpt lat="50.34494" lon="3.24272">
        <ele>25.2</ele>
        <time>2023-01-22T09:26:41Z</time>
      </trkpt>
      <trkpt lat="50.34494" lon="3.24272">
        <ele>25.2</ele>
        <time>2023-01-22T09:26:42Z</time>
      </trkpt>
      <trkpt lat="50.34494" lon="3.24272">
        <ele>25.2</ele>
        <time>2023-01-22T09:26:43Z</time>
      </trkpt>
      <trkpt lat="50.34494" lon="3.24272">
        <ele>25.2</ele>
        <time>2023-01-22T09:26:44Z</time>
      </trkpt>
      <trkpt lat="50.34494" lon="3.24272">
        <ele>25.2</ele>
        <time>2023-01-22T09:26:45Z</time>
      </trkpt>
      <trkpt lat="50.34495" lon="3.24272">
        <ele>25.2</ele>
        <time>2023-01-22T09:26:46Z</time>
      </trkpt>
      <trkpt lat="50.34496" lon="3.24272">
        <ele>25.2</ele>
        <time>2023-01-22T09:26:47Z</time>
      </trkpt>
      <trkpt lat="50.34497" lon="3.24273">
        <ele>25.2</ele>
        <time>2023-01-22T09:26:48Z</time>
      </trkpt>
      <trkpt lat="50.34498" lon="3.24273">
        <ele>25.2</ele>
        <time>2023-01-22T09:26:49Z</time>
      </trkpt>
      <trkpt lat="50.345" lon="3.24274">
        <ele>19.403963</ele>
        <time>2023-01-22T09:26:50Z</time>
      </trkpt>
      <trkpt lat="50.34501" lon="3.24275">
        <ele>25.1</ele>
        <time>2023-01-22T09:26:51Z</time>
      </trkpt>
      <trkpt lat="50.34502" lon="3.24276">
        <ele>25.1</ele>
        <time>2023-01-22T09:26:52Z</time>
      </trkpt>
      <trkpt lat="50.34504" lon="3.24276">
        <ele>25.1</ele>
        <time>2023-01-22T09:26:53Z</time>
      </trkpt>
      <trkpt lat="50.34505" lon="3.24276">
        <ele>25.1</ele>
        <time>2023-01-22T09:26:54Z</time>
      </trkpt>
      <trkpt lat="50.34506" lon="3.24276">
        <ele>25.1</ele>
        <time>2023-01-22T09:26:55Z</time>
      </trkpt>
      <trkpt lat="50.34507" lon="3.24277">
        <ele>25</ele>
        <time>2023-01-22T09:26:56Z</time>
      </trkpt>
      <trkpt lat="50.34508" lon="3.24277">
        <ele>25</ele>
        <time>2023-01-22T09:26:57Z</time>
      </trkpt>
      <trkpt lat="50.3451" lon="3.24277">
        <ele>25</ele>
        <time>2023-01-22T09:26:58Z</time>
      </trkpt>
      <trkpt lat="50.34511" lon="3.24278">
        <ele>25</ele>
        <time>2023-01-22T09:26:59Z</time>
        <extensions>
          <gpxtpx:TrackPointExtension xmlns:gpxtpx="http://www.garmin.com/xmlschemas/TrackPointExtension/v1">
            <gpxtpx:hr>119</gpxtpx:hr>
          </gpxtpx:TrackPointExtension>
        </extensions>
      </trkpt>
      <trkpt lat="50.34512" lon="3.24278">
        <ele>19.569002</ele>
        <time>2023-01-22T09:27:00Z</time>
      </trkpt>
      <trkpt lat="50.34514" lon="3.24278">
        <ele>25</ele>
        <time>2023-01-22T09:27:01Z</time>
      </trkpt>
      <trkpt lat="50.34516" lon="3.24279">
        <ele>25</ele>
        <time>2023-01-22T09:27:02Z</time>
      </trkpt>
      <trkpt lat="50.34517" lon="3.24279">
        <ele>25</ele>
        <time>2023-01-22T09:27:03Z</time>
      </trkpt>
      <trkpt lat="50.34519" lon="3.2428">
        <ele>25</ele>
        <time>2023-01-22T09:27:04Z</time>
      </trkpt>
      <trkpt lat="50.34522" lon="3.2428">
        <ele>25</ele>
        <time>2023-01-22T09:27:05Z</time>
      </trkpt>
      <trkpt lat="50.34523" lon="3.24281">
        <ele>25</ele>
        <time>2023-01-22T09:27:06Z</time>
      </trkpt>
      <trkpt lat="50.34525" lon="3.2428">
        <ele>25</ele>
        <time>2023-01-22T09:27:07Z</time>
      </trkpt>
      <trkpt lat="50.34527" lon="3.2428">
        <ele>25</ele>
        <time>2023-01-22T09:27:08Z</time>
      </trkpt>
      <trkpt lat="50.34529" lon="3.2428">
        <ele>25</ele>
        <time>2023-01-22T09:27:09Z</time>
      </trkpt>
      <trkpt lat="50.34531" lon="3.24279">
        <ele>19.292988</ele>
        <time>2023-01-22T09:27:10Z</time>
      </trkpt>
      <trkpt lat="50.34532" lon="3.2428">
        <ele>25.1</ele>
        <time>2023-01-22T09:27:11Z</time>
      </trkpt>
      <trkpt lat="50.34534" lon="3.2428">
        <ele>25.2</ele>
        <time>2023-01-22T09:27:12Z</time>
      </trkpt>
      <trkpt lat="50.34535" lon="3.24279">
        <ele>25.3</ele>
        <time>2023-01-22T09:27:13Z</time>
      </trkpt>
      <trkpt lat="50.34536" lon="3.24279">
        <ele>25.3</ele>
        <time>2023-01-22T09:27:14Z</time>
      </trkpt>
      <trkpt lat="50.34538" lon="3.24278">
        <ele>25.4</ele>
        <time>2023-01-22T09:27:15Z</time>
      </trkpt>
      <trkpt lat="50.34539" lon="3.24278">
        <ele>25.4</ele>
        <time>2023-01-22T09:27:16Z</time>
      </trkpt>
      <trkpt lat="50.34541" lon="3.24279">
        <ele>25.4</ele>
        <time>2023-01-22T09:27:17Z</time>
      </trkpt>
      <trkpt lat="50.34542" lon="3.24279">
        <ele>25.5</ele>
        <time>2023-01-22T09:27:18Z</time>
      </trkpt>
      <trkpt lat="50.34543" lon="3.24279">
        <ele>25.5</ele>
        <time>2023-01-22T09:27:19Z</time>
        <extensions>
          <gpxtpx:TrackPointExtension xmlns:gpxtpx="http://www.garmin.com/xmlschemas/TrackPointExtension/v1">
            <gpxtpx:hr>122</gpxtpx:hr>
          </gpxtpx:TrackPointExtension>
        </extensions>
      </trkpt>
      <trkpt lat="50.34544" lon="3.2428">
        <ele>19.220901</ele>
        <time>2023-01-22T09:27:20Z</time>
      </trkpt>
      <trkpt lat="50.34545" lon="3.2428">
        <ele>25.6</ele>
        <time>2023-01-22T09:27:21Z</time>
      </trkpt>
      <trkpt lat="50.34546" lon="3.2428">
        <ele>25.6</ele>
        <time>2023-01-22T09:27:22Z</time>
      </trkpt>
      <trkpt lat="50.34547" lon="3.2428">
        <ele>25.6</ele>
        <time>2023-01-22T09:27:23Z</time>
      </trkpt>
      <trkpt lat="50.34548" lon="3.24281">
        <ele>25.7</ele>
        <time>2023-01-22T09:27:24Z</time>
      </trkpt>
      <trkpt lat="50.34549" lon="3.24281">
        <ele>25.7</ele>
        <time>2023-01-22T09:27:25Z</time>
      </trkpt>
      <trkpt lat="50.34551" lon="3.24281">
        <ele>25.7</ele>
        <time>2023-01-22T09:27:26Z</time>
      </trkpt>
      <trkpt lat="50.34552" lon="3.24281">
        <ele>25.8</ele>
        <time>2023-01-22T09:27:27Z</time>
      </trkpt>
      <trkpt lat="50.34553" lon="3.24281">
        <ele>25.8</ele>
        <time>2023-01-22T09:27:28Z</time>
      </trkpt>
      <trkpt lat="50.34555" lon="3.24281">
        <ele>25.9</ele>
        <time>2023-01-22T09:27:29Z</time>
      </trkpt>
      <trkpt lat="50.34556" lon="3.24281">
        <ele>19.26643</ele>
        <time>2023-01-22T09:27:30Z</time>
      </trkpt>
      <trkpt lat="50.34558" lon="3.2428">
        <ele>25.9</ele>
        <time>2023-01-22T09:27:31Z</time>
      </trkpt>
      <trkpt lat="50.3456" lon="3.2428">
        <ele>25.9</ele>
        <time>2023-01-22T09:27:32Z</time>
      </trkpt>
      <trkpt lat="50.34561" lon="3.24281">
        <ele>25.9</ele>
        <time>2023-01-22T09:27:33Z</time>
      </trkpt>
      <trkpt lat="50.34562" lon="3.24281">
        <ele>25.9</ele>
        <time>2023-01-22T09:27:34Z</time>
      </trkpt>
      <trkpt lat="50.34564" lon="3.24281">
        <ele>25.9</ele>
        <time>2023-01-22T09:27:35Z</time>
      </trkpt>
      <trkpt lat="50.34566" lon="3.24281">
        <ele>25.9</ele>
        <time>2023-01-22T09:27:36Z</time>
      </trkpt>
      <trkpt lat="50.34567" lon="3.24282">
        <ele>25.9</ele>
        <time>2023-01-22T09:27:37Z</time>
      </trkpt>
      <trkpt lat="50.34569" lon="3.24282">
        <ele>25.9</ele>
        <time>2023-01-22T09:27:38Z</time>
      </trkpt>
      <trkpt lat="50.34571" lon="3.24283">
        <ele>25.8</ele>
        <time>2023-01-22T09:27:39Z</time>
        <extensions>
          <gpxtpx:TrackPointExtension xmlns:gpxtpx="http://www.garmin.com/xmlschemas/TrackPointExtension/v1">
            <gpxtpx:hr>122</gpxtpx:hr>
          </gpxtpx:TrackPointExtension>
        </extensions>
      </trkpt>
      <trkpt lat="50.34573" lon="3.24283">
        <ele>19.453285</ele>
        <time>2023-01-22T09:27:40Z</time>
      </trkpt>
      <trkpt lat="50.34574" lon="3.24283">
        <ele>25.8</ele>
        <time>2023-01-22T09:27:41Z</time>
      </trkpt>
      <trkpt lat="50.34575" lon="3.24285">
        <ele>25.7</ele>
        <time>2023-01-22T09:27:42Z</time>
      </trkpt>
      <trkpt lat="50.34577" lon="3.24286">
        <ele>25.7</ele>
        <time>2023-01-22T09:27:43Z</time>
      </trkpt>
      <trkpt lat="50.34579" lon="3.24287">
        <ele>25.7</ele>
        <time>2023-01-22T09:27:44Z</time>
      </trkpt>
      <trkpt lat="50.34581" lon="3.24288">
        <ele>25.6</ele>
        <time>2023-01-22T09:27:45Z</time>
      </trkpt>
      <trkpt lat="50.34583" lon="3.24289">
        <ele>25.6</ele>
        <time>2023-01-22T09:27:46Z</time>
      </trkpt>
      <trkpt lat="50.34584" lon="3.24289">
        <ele>25.6</ele>
        <time>2023-01-22T09:27:47Z</time>
      </trkpt>
      <trkpt lat="50.34586" lon="3.2429">
        <ele>25.6</ele>
        <time>2023-01-22T09:27:48Z</time>
      </trkpt>
      <trkpt lat="50.34589" lon="3.24289">
        <ele>25.6</ele>
        <time>2023-01-22T09:27:49Z</time>
      </trkpt>
      <trkpt lat="50.3459" lon="3.24289">
        <ele>19.496916</ele>
        <time>2023-01-22T09:27:50Z</time>
      </trkpt>
      <trkpt lat="50.34592" lon="3.24289">
        <ele>25.6</ele>
        <time>2023-01-22T09:27:51Z</time>
      </trkpt>
      <trkpt lat="50.34593" lon="3.2429">
        <ele>25.6</ele>
        <time>2023-01-22T09:27:52Z</time>
      </trkpt>
      <trkpt lat="50.34594" lon="3.2429">
        <ele>25.6</ele>
        <time>2023-01-22T09:27:53Z</time>
      </trkpt>
      <trkpt lat="50.34596" lon="3.2429">
        <ele>25.6</ele>
        <time>2023-01-22T09:27:54Z</time>
      </trkpt>
      <trkpt lat="50.34597" lon="3.2429">
        <ele>25.6</ele>
        <time>2023-01-22T09:27:55Z</time>
      </trkpt>
      <trkpt lat="50.34598" lon="3.24291">
        <ele>25.5</ele>
        <time>2023-01-22T09:27:56Z</time>
      </trkpt>
      <trkpt lat="50.34599" lon="3.24291">
        <ele>25.5</ele>
        <time>2023-01-22T09:27:57Z</time>
      </trkpt>
      <trkpt lat="50.346" lon="3.24292">
        <ele>25.5</ele>
        <time>2023-01-22T09:27:58Z</time>
      </trkpt>
      <trkpt lat="50.34601" lon="3.24292">
        <ele>25.5</ele>
        <time>2023-01-22T09:27:59Z</time>
        <extensions>
          <gpxtpx:TrackPointExtension xmlns:gpxtpx="http://www.garmin.com/xmlschemas/TrackPointExtension/v1">
            <gpxtpx:hr>124</gpxtpx:hr>
          </gpxtpx:TrackPointExtension>
        </extensions>
      </trkpt>
      <trkpt lat="50.34603" lon="3.24291">
        <ele>19.426725</ele>
        <time>2023-01-22T09:28:00Z</time>
      </trkpt>
      <trkpt lat="50.34605" lon="3.24292">
        <ele>25.5</ele>
        <time>2023-01-22T09:28:01Z</time>
      </trkpt>
      <trkpt lat="50.34606" lon="3.24292">
        <ele>25.5</ele>
        <time>2023-01-22T09:28:02Z</time>
      </trkpt>
      <trkpt lat="50.34607" lon="3.24292">
        <ele>25.5</ele>
        <time>2023-01-22T09:28:03Z</time>
      </trkpt>
      <trkpt lat="50.34608" lon="3.24293">
        <ele>25.5</ele>
        <time>2023-01-22T09:28:04Z</time>
      </trkpt>
      <trkpt lat="50.34609" lon="3.24293">
        <ele>25.5</ele>
        <time>2023-01-22T09:28:05Z</time>
      </trkpt>
      <trkpt lat="50.3461" lon="3.24293">
        <ele>25.5</ele>
        <time>2023-01-22T09:28:06Z</time>
      </trkpt>
      <trkpt lat="50.34612" lon="3.24293">
        <ele>25.4</ele>
        <time>2023-01-22T09:28:07Z</time>
      </trkpt>
      <trkpt lat="50.34613" lon="3.24293">
        <ele>25.4</ele>
        <time>2023-01-22T09:28:08Z</time>
      </trkpt>
      <trkpt lat="50.34616" lon="3.24292">
        <ele>25.5</ele>
        <time>2023-01-22T09:28:09Z</time>
      </trkpt>
      <trkpt lat="50.34618" lon="3.24292">
        <ele>19.49502</ele>
        <time>2023-01-22T09:28:10Z</time>
      </trkpt>
      <trkpt lat="50.34619" lon="3.24291">
        <ele>25.5</ele>
        <time>2023-01-22T09:28:11Z</time>
      </trkpt>
      <trkpt lat="50.3462" lon="3.2429">
        <ele>25.6</ele>
        <time>2023-01-22T09:28:12Z</time>
      </trkpt>
      <trkpt lat="50.34621" lon="3.2429">
        <ele>25.6</ele>
        <time>2023-01-22T09:28:13Z</time>
      </trkpt>
      <trkpt lat="50.34622" lon="3.2429">
        <ele>25.6</ele>
        <time>2023-01-22T09:28:14Z</time>
      </trkpt>
      <trkpt lat="50.34624" lon="3.2429">
        <ele>25.6</ele>
        <time>2023-01-22T09:28:15Z</time>
      </trkpt>
      <trkpt lat="50.34625" lon="3.2429">
        <ele>25.5</ele>
        <time>2023-01-22T09:28:16Z</time>
      </trkpt>
      <trkpt lat="50.34627" lon="3.2429">
        <ele>25.5</ele>
        <time>2023-01-22T09:28:17Z</time>
      </trkpt>
      <trkpt lat="50.34628" lon="3.24291">
        <ele>25.5</ele>
        <time>2023-01-22T09:28:18Z</time>
      </trkpt>
      <trkpt lat="50.3463" lon="3.24291">
        <ele>25.5</ele>
        <time>2023-01-22T09:28:19Z</time>
        <extensions>
          <gpxtpx:TrackPointExtension xmlns:gpxtpx="http://www.garmin.com/xmlschemas/TrackPointExtension/v1">
            <gpxtpx:hr>125</gpxtpx:hr>
          </gpxtpx:TrackPointExtension>
        </extensions>
      </trkpt>
      <trkpt lat="50.34631" lon="3.24291">
        <ele>19.439056</ele>
        <time>2023-01-22T09:28:20Z</time>
      </trkpt>
      <trkpt lat="50.34633" lon="3.2429">
        <ele>25.5</ele>
        <time>2023-01-22T09:28:21Z</time>
      </trkpt>
      <trkpt lat="50.34635" lon="3.24291">
        <ele>25.5</ele>
        <time>2023-01-22T09:28:22Z</time>
      </trkpt>
      <trkpt lat="50.34637" lon="3.24291">
        <ele>25.5</ele>
        <time>2023-01-22T09:28:23Z</time>
      </trkpt>
      <trkpt lat="50.34638" lon="3.24291">
        <ele>25.5</ele>
        <time>2023-01-22T09:28:24Z</time>
      </trkpt>
      <trkpt lat="50.3464" lon="3.2429">
        <ele>25.6</ele>
        <time>2023-01-22T09:28:25Z</time>
      </trkpt>
      <trkpt lat="50.34641" lon="3.24289">
        <ele>25.6</ele>
        <time>2023-01-22T09:28:26Z</time>
      </trkpt>
      <trkpt lat="50.34642" lon="3.24289">
        <ele>25.6</ele>
        <time>2023-01-22T09:28:27Z</time>
      </trkpt>
      <trkpt lat="50.34643" lon="3.24289">
        <ele>25.6</ele>
        <time>2023-01-22T09:28:28Z</time>
      </trkpt>
      <trkpt lat="50.34645" lon="3.24288">
        <ele>25.6</ele>
        <time>2023-01-22T09:28:29Z</time>
      </trkpt>
      <trkpt lat="50.34646" lon="3.24288">
        <ele>19.458975</ele>
        <time>2023-01-22T09:28:30Z</time>
      </trkpt>
      <trkpt lat="50.34647" lon="3.24287">
        <ele>25.7</ele>
        <time>2023-01-22T09:28:31Z</time>
      </trkpt>
      <trkpt lat="50.34649" lon="3.24287">
        <ele>25.7</ele>
        <time>2023-01-22T09:28:32Z</time>
      </trkpt>
      <trkpt lat="50.34649" lon="3.24287">
        <ele>25.7</ele>
        <time>2023-01-22T09:28:33Z</time>
      </trkpt>
      <trkpt lat="50.3465" lon="3.24287">
        <ele>25.7</ele>
        <time>2023-01-22T09:28:34Z</time>
      </trkpt>
      <trkpt lat="50.34651" lon="3.24287">
        <ele>25.7</ele>
        <time>2023-01-22T09:28:35Z</time>
      </trkpt>
      <trkpt lat="50.34653" lon="3.24287">
        <ele>25.7</ele>
        <time>2023-01-22T09:28:36Z</time>
      </trkpt>
      <trkpt lat="50.34654" lon="3.24287">
        <ele>25.7</ele>
        <time>2023-01-22T09:28:37Z</time>
      </trkpt>
      <trkpt lat="50.34656" lon="3.24286">
        <ele>25.7</ele>
        <time>2023-01-22T09:28:38Z</time>
      </trkpt>
      <trkpt lat="50.34657" lon="3.24285">
        <ele>25.7</ele>
        <time>2023-01-22T09:28:39Z</time>
        <extensions>
          <gpxtpx:TrackPointExtension xmlns:gpxtpx="http://www.garmin.com/xmlschemas/TrackPointExtension/v1">
            <gpxtpx:hr>128</gpxtpx:hr>
          </gpxtpx:TrackPointExtension>
        </extensions>
      </trkpt>
      <trkpt lat="50.34658" lon="3.24285">
        <ele>19.36697</ele>
        <time>2023-01-22T09:28:40Z</time>
      </trkpt>
      <trkpt lat="50.34659" lon="3.24285">
        <ele>25.7</ele>
        <time>2023-01-22T09:28:41Z</time>
      </trkpt>
      <trkpt lat="50.34661" lon="3.24286">
        <ele>25.7</ele>
        <time>2023-01-22T09:28:42Z</time>
      </trkpt>
      <trkpt lat="50.34662" lon="3.24286">
        <ele>25.7</ele>
        <time>2023-01-22T09:28:43Z</time>
      </trkpt>
      <trkpt lat="50.34665" lon="3.24286">
        <ele>25.7</ele>
        <time>2023-01-22T09:28:44Z</time>
      </trkpt>
      <trkpt lat="50.34666" lon="3.24286">
        <ele>25.7</ele>
        <time>2023-01-22T09:28:45Z</time>
      </trkpt>
      <trkpt lat="50.34667" lon="3.24286">
        <ele>25.7</ele>
        <time>2023-01-22T09:28:46Z</time>
      </trkpt>
      <trkpt lat="50.34668" lon="3.24286">
        <ele>25.8</ele>
        <time>2023-01-22T09:28:47Z</time>
      </trkpt>
      <trkpt lat="50.34669" lon="3.24286">
        <ele>25.8</ele>
        <time>2023-01-22T09:28:48Z</time>
      </trkpt>
      <trkpt lat="50.3467" lon="3.24285">
        <ele>25.8</ele>
        <time>2023-01-22T09:28:49Z</time>
      </trkpt>
      <trkpt lat="50.34671" lon="3.24285">
        <ele>19.531063</ele>
        <time>2023-01-22T09:28:50Z</time>
      </trkpt>
      <trkpt lat="50.34672" lon="3.24284">
        <ele>25.9</ele>
        <time>2023-01-22T09:28:51Z</time>
      </trkpt>
      <trkpt lat="50.34673" lon="3.24283">
        <ele>26</ele>
        <time>2023-01-22T09:28:52Z</time>
      </trkpt>
      <trkpt lat="50.34675" lon="3.24283">
        <ele>26.1</ele>
        <time>2023-01-22T09:28:53Z</time>
      </trkpt>
      <trkpt lat="50.34676" lon="3.24282">
        <ele>26.2</ele>
        <time>2023-01-22T09:28:54Z</time>
      </trkpt>
      <trkpt lat="50.34677" lon="3.24281">
        <ele>26.2</ele>
        <time>2023-01-22T09:28:55Z</time>
      </trkpt>
      <trkpt lat="50.34679" lon="3.2428">
        <ele>26.3</ele>
        <time>2023-01-22T09:28:56Z</time>
      </trkpt>
      <trkpt lat="50.34679" lon="3.2428">
        <ele>26.3</ele>
        <time>2023-01-22T09:28:58Z</time>
      </trkpt>
      <trkpt lat="50.34681" lon="3.2428">
        <ele>26.4</ele>
        <time>2023-01-22T09:28:59Z</time>
        <extensions>
          <gpxtpx:TrackPointExtension xmlns:gpxtpx="http://www.garmin.com/xmlschemas/TrackPointExtension/v1">
            <gpxtpx:hr>125</gpxtpx:hr>
          </gpxtpx:TrackPointExtension>
        </extensions>
      </trkpt>
      <trkpt lat="50.34681" lon="3.2428">
        <ele>19.571848</ele>
        <time>2023-01-22T09:29:00Z</time>
      </trkpt>
      <trkpt lat="50.34682" lon="3.2428">
        <ele>26.5</ele>
        <time>2023-01-22T09:29:01Z</time>
      </trkpt>
      <trkpt lat="50.34684" lon="3.2428">
        <ele>26.5</ele>
        <time>2023-01-22T09:29:02Z</time>
      </trkpt>
      <trkpt lat="50.34687" lon="3.24278">
        <ele>26.7</ele>
        <time>2023-01-22T09:29:03Z</time>
      </trkpt>
      <trkpt lat="50.34689" lon="3.24277">
        <ele>26.8</ele>
        <time>2023-01-22T09:29:04Z</time>
      </trkpt>
      <trkpt lat="50.3469" lon="3.24277">
        <ele>26.9</ele>
        <time>2023-01-22T09:29:05Z</time>
      </trkpt>
      <trkpt lat="50.34691" lon="3.24277">
        <ele>26.9</ele>
        <time>2023-01-22T09:29:06Z</time>
      </trkpt>
      <trkpt lat="50.34693" lon="3.24277">
        <ele>27</ele>
        <time>2023-01-22T09:29:07Z</time>
      </trkpt>
      <trkpt lat="50.34695" lon="3.24277">
        <ele>27</ele>
        <time>2023-01-22T09:29:08Z</time>
      </trkpt>
      <trkpt lat="50.34696" lon="3.24277">
        <ele>27</ele>
        <time>2023-01-22T09:29:09Z</time>
      </trkpt>
      <trkpt lat="50.34697" lon="3.24277">
        <ele>19.588923</ele>
        <time>2023-01-22T09:29:10Z</time>
      </trkpt>
      <trkpt lat="50.34699" lon="3.24277">
        <ele>26.9</ele>
        <time>2023-01-22T09:29:11Z</time>
      </trkpt>
      <trkpt lat="50.34701" lon="3.24276">
        <ele>26.8</ele>
        <time>2023-01-22T09:29:12Z</time>
      </trkpt>
      <trkpt lat="50.34702" lon="3.24275">
        <ele>26.8</ele>
        <time>2023-01-22T09:29:13Z</time>
      </trkpt>
      <trkpt lat="50.34704" lon="3.24275">
        <ele>26.8</ele>
        <time>2023-01-22T09:29:14Z</time>
      </trkpt>
      <trkpt lat="50.34705" lon="3.24275">
        <ele>26.7</ele>
        <time>2023-01-22T09:29:15Z</time>
      </trkpt>
      <trkpt lat="50.34707" lon="3.24276">
        <ele>26.7</ele>
        <time>2023-01-22T09:29:16Z</time>
      </trkpt>
      <trkpt lat="50.34709" lon="3.24275">
        <ele>26.6</ele>
        <time>2023-01-22T09:29:17Z</time>
      </trkpt>
      <trkpt lat="50.34711" lon="3.24275">
        <ele>26.6</ele>
        <time>2023-01-22T09:29:18Z</time>
      </trkpt>
      <trkpt lat="50.34713" lon="3.24275">
        <ele>26.5</ele>
        <time>2023-01-22T09:29:19Z</time>
        <extensions>
          <gpxtpx:TrackPointExtension xmlns:gpxtpx="http://www.garmin.com/xmlschemas/TrackPointExtension/v1">
            <gpxtpx:hr>121</gpxtpx:hr>
          </gpxtpx:TrackPointExtension>
        </extensions>
      </trkpt>
      <trkpt lat="50.34714" lon="3.24274">
        <ele>19.728354</ele>
        <time>2023-01-22T09:29:20Z</time>
      </trkpt>
      <trkpt lat="50.34715" lon="3.24274">
        <ele>26.5</ele>
        <time>2023-01-22T09:29:21Z</time>
      </trkpt>
      <trkpt lat="50.34717" lon="3.24273">
        <ele>26.5</ele>
        <time>2023-01-22T09:29:22Z</time>
      </trkpt>
      <trkpt lat="50.34719" lon="3.24273">
        <ele>26.4</ele>
        <time>2023-01-22T09:29:23Z</time>
      </trkpt>
      <trkpt lat="50.3472" lon="3.24273">
        <ele>26.4</ele>
        <time>2023-01-22T09:29:24Z</time>
      </trkpt>
      <trkpt lat="50.34721" lon="3.24272">
        <ele>26.4</ele>
        <time>2023-01-22T09:29:25Z</time>
      </trkpt>
      <trkpt lat="50.34723" lon="3.24272">
        <ele>26.4</ele>
        <time>2023-01-22T09:29:26Z</time>
      </trkpt>
      <trkpt lat="50.34724" lon="3.24271">
        <ele>26.4</ele>
        <time>2023-01-22T09:29:27Z</time>
      </trkpt>
      <trkpt lat="50.34725" lon="3.24271">
        <ele>26.4</ele>
        <time>2023-01-22T09:29:28Z</time>
      </trkpt>
      <trkpt lat="50.34727" lon="3.24271">
        <ele>26.4</ele>
        <time>2023-01-22T09:29:29Z</time>
      </trkpt>
      <trkpt lat="50.34728" lon="3.24271">
        <ele>19.84692</ele>
        <time>2023-01-22T09:29:30Z</time>
      </trkpt>
      <trkpt lat="50.3473" lon="3.2427">
        <ele>26.5</ele>
        <time>2023-01-22T09:29:31Z</time>
      </trkpt>
      <trkpt lat="50.34731" lon="3.24269">
        <ele>26.5</ele>
        <time>2023-01-22T09:29:32Z</time>
      </trkpt>
      <trkpt lat="50.34732" lon="3.24269">
        <ele>26.6</ele>
        <time>2023-01-22T09:29:33Z</time>
      </trkpt>
      <trkpt lat="50.34734" lon="3.24268">
        <ele>26.6</ele>
        <time>2023-01-22T09:29:34Z</time>
      </trkpt>
      <trkpt lat="50.34735" lon="3.24268">
        <ele>26.6</ele>
        <time>2023-01-22T09:29:35Z</time>
      </trkpt>
      <trkpt lat="50.34736" lon="3.24267">
        <ele>26.6</ele>
        <time>2023-01-22T09:29:36Z</time>
      </trkpt>
      <trkpt lat="50.34737" lon="3.24267">
        <ele>26.6</ele>
        <time>2023-01-22T09:29:37Z</time>
      </trkpt>
      <trkpt lat="50.34739" lon="3.24266">
        <ele>26.6</ele>
        <time>2023-01-22T09:29:38Z</time>
      </trkpt>
      <trkpt lat="50.3474" lon="3.24265">
        <ele>26.6</ele>
        <time>2023-01-22T09:29:39Z</time>
        <extensions>
          <gpxtpx:TrackPointExtension xmlns:gpxtpx="http://www.garmin.com/xmlschemas/TrackPointExtension/v1">
            <gpxtpx:hr>121</gpxtpx:hr>
          </gpxtpx:TrackPointExtension>
        </extensions>
      </trkpt>
      <trkpt lat="50.34742" lon="3.24265">
        <ele>19.814669</ele>
        <time>2023-01-22T09:29:40Z</time>
      </trkpt>
      <trkpt lat="50.34743" lon="3.24265">
        <ele>26.6</ele>
        <time>2023-01-22T09:29:41Z</time>
      </trkpt>
      <trkpt lat="50.34744" lon="3.24264">
        <ele>26.6</ele>
        <time>2023-01-22T09:29:42Z</time>
      </trkpt>
      <trkpt lat="50.34746" lon="3.24263">
        <ele>26.6</ele>
        <time>2023-01-22T09:29:43Z</time>
      </trkpt>
      <trkpt lat="50.34747" lon="3.24262">
        <ele>26.6</ele>
        <time>2023-01-22T09:29:44Z</time>
      </trkpt>
      <trkpt lat="50.34749" lon="3.24262">
        <ele>26.6</ele>
        <time>2023-01-22T09:29:45Z</time>
      </trkpt>
      <trkpt lat="50.3475" lon="3.24262">
        <ele>26.6</ele>
        <time>2023-01-22T09:29:46Z</time>
      </trkpt>
      <trkpt lat="50.34752" lon="3.24261">
        <ele>26.5</ele>
        <time>2023-01-22T09:29:47Z</time>
      </trkpt>
      <trkpt lat="50.34753" lon="3.24261">
        <ele>26.5</ele>
        <time>2023-01-22T09:29:48Z</time>
      </trkpt>
      <trkpt lat="50.34755" lon="3.24262">
        <ele>26.4</ele>
        <time>2023-01-22T09:29:49Z</time>
      </trkpt>
      <trkpt lat="50.34756" lon="3.24262">
        <ele>19.695156</ele>
        <time>2023-01-22T09:29:50Z</time>
      </trkpt>
      <trkpt lat="50.34757" lon="3.24261">
        <ele>26.4</ele>
        <time>2023-01-22T09:29:51Z</time>
      </trkpt>
      <trkpt lat="50.34758" lon="3.2426">
        <ele>26.3</ele>
        <time>2023-01-22T09:29:52Z</time>
      </trkpt>
      <trkpt lat="50.3476" lon="3.2426">
        <ele>26.3</ele>
        <time>2023-01-22T09:29:53Z</time>
      </trkpt>
      <trkpt lat="50.34761" lon="3.2426">
        <ele>26.3</ele>
        <time>2023-01-22T09:29:54Z</time>
      </trkpt>
      <trkpt lat="50.34762" lon="3.2426">
        <ele>26.2</ele>
        <time>2023-01-22T09:29:55Z</time>
      </trkpt>
      <trkpt lat="50.34764" lon="3.2426">
        <ele>26.2</ele>
        <time>2023-01-22T09:29:56Z</time>
      </trkpt>
      <trkpt lat="50.34765" lon="3.24259">
        <ele>26.1</ele>
        <time>2023-01-22T09:29:57Z</time>
      </trkpt>
      <trkpt lat="50.34766" lon="3.24259">
        <ele>26.1</ele>
        <time>2023-01-22T09:29:58Z</time>
      </trkpt>
      <trkpt lat="50.34768" lon="3.24258">
        <ele>26</ele>
        <time>2023-01-22T09:29:59Z</time>
        <extensions>
          <gpxtpx:TrackPointExtension xmlns:gpxtpx="http://www.garmin.com/xmlschemas/TrackPointExtension/v1">
            <gpxtpx:hr>123</gpxtpx:hr>
          </gpxtpx:TrackPointExtension>
        </extensions>
      </trkpt>
      <trkpt lat="50.34769" lon="3.24259">
        <ele>19.678082</ele>
        <time>2023-01-22T09:30:00Z</time>
      </trkpt>
      <trkpt lat="50.34771" lon="3.24258">
        <ele>26</ele>
        <time>2023-01-22T09:30:01Z</time>
      </trkpt>
      <trkpt lat="50.34773" lon="3.24258">
        <ele>25.9</ele>
        <time>2023-01-22T09:30:02Z</time>
      </trkpt>
      <trkpt lat="50.34774" lon="3.24257">
        <ele>25.9</ele>
        <time>2023-01-22T09:30:03Z</time>
      </trkpt>
      <trkpt lat="50.34776" lon="3.24257">
        <ele>25.8</ele>
        <time>2023-01-22T09:30:04Z</time>
      </trkpt>
      <trkpt lat="50.34777" lon="3.24256">
        <ele>25.8</ele>
        <time>2023-01-22T09:30:05Z</time>
      </trkpt>
      <trkpt lat="50.34779" lon="3.24255">
        <ele>25.8</ele>
        <time>2023-01-22T09:30:06Z</time>
      </trkpt>
      <trkpt lat="50.34781" lon="3.24255">
        <ele>25.8</ele>
        <time>2023-01-22T09:30:07Z</time>
      </trkpt>
      <trkpt lat="50.34782" lon="3.24255">
        <ele>25.8</ele>
        <time>2023-01-22T09:30:08Z</time>
      </trkpt>
      <trkpt lat="50.34785" lon="3.24255">
        <ele>25.8</ele>
        <time>2023-01-22T09:30:09Z</time>
      </trkpt>
      <trkpt lat="50.34786" lon="3.24254">
        <ele>19.799494</ele>
        <time>2023-01-22T09:30:10Z</time>
      </trkpt>
      <trkpt lat="50.34787" lon="3.24254">
        <ele>25.8</ele>
        <time>2023-01-22T09:30:11Z</time>
      </trkpt>
      <trkpt lat="50.34788" lon="3.24254">
        <ele>25.9</ele>
        <time>2023-01-22T09:30:12Z</time>
      </trkpt>
      <trkpt lat="50.34789" lon="3.24254">
        <ele>25.8</ele>
        <time>2023-01-22T09:30:13Z</time>
      </trkpt>
      <trkpt lat="50.3479" lon="3.24255">
        <ele>25.8</ele>
        <time>2023-01-22T09:30:14Z</time>
      </trkpt>
      <trkpt lat="50.3479" lon="3.24255">
        <ele>25.8</ele>
        <time>2023-01-22T09:30:15Z</time>
      </trkpt>
      <trkpt lat="50.34791" lon="3.24254">
        <ele>25.8</ele>
        <time>2023-01-22T09:30:16Z</time>
      </trkpt>
      <trkpt lat="50.34793" lon="3.24254">
        <ele>25.9</ele>
        <time>2023-01-22T09:30:17Z</time>
      </trkpt>
      <trkpt lat="50.34795" lon="3.24253">
        <ele>25.9</ele>
        <time>2023-01-22T09:30:18Z</time>
      </trkpt>
      <trkpt lat="50.34796" lon="3.24252">
        <ele>25.9</ele>
        <time>2023-01-22T09:30:19Z</time>
        <extensions>
          <gpxtpx:TrackPointExtension xmlns:gpxtpx="http://www.garmin.com/xmlschemas/TrackPointExtension/v1">
            <gpxtpx:hr>125</gpxtpx:hr>
          </gpxtpx:TrackPointExtension>
        </extensions>
      </trkpt>
      <trkpt lat="50.34797" lon="3.24251">
        <ele>19.592716</ele>
        <time>2023-01-22T09:30:20Z</time>
      </trkpt>
      <trkpt lat="50.34798" lon="3.24251">
        <ele>25.9</ele>
        <time>2023-01-22T09:30:21Z</time>
      </trkpt>
      <trkpt lat="50.34799" lon="3.24251">
        <ele>26</ele>
        <time>2023-01-22T09:30:22Z</time>
      </trkpt>
      <trkpt lat="50.348" lon="3.2425">
        <ele>26</ele>
        <time>2023-01-22T09:30:23Z</time>
      </trkpt>
      <trkpt lat="50.34802" lon="3.2425">
        <ele>26</ele>
        <time>2023-01-22T09:30:24Z</time>
      </trkpt>
      <trkpt lat="50.34802" lon="3.24249">
        <ele>26</ele>
        <time>2023-01-22T09:30:25Z</time>
      </trkpt>
      <trkpt lat="50.34803" lon="3.24248">
        <ele>26.1</ele>
        <time>2023-01-22T09:30:26Z</time>
      </trkpt>
      <trkpt lat="50.34804" lon="3.24248">
        <ele>26.1</ele>
        <time>2023-01-22T09:30:27Z</time>
      </trkpt>
      <trkpt lat="50.34805" lon="3.24247">
        <ele>26.1</ele>
        <time>2023-01-22T09:30:28Z</time>
      </trkpt>
      <trkpt lat="50.34807" lon="3.24246">
        <ele>26.1</ele>
        <time>2023-01-22T09:30:29Z</time>
      </trkpt>
      <trkpt lat="50.34809" lon="3.24246">
        <ele>19.598408</ele>
        <time>2023-01-22T09:30:30Z</time>
      </trkpt>
      <trkpt lat="50.3481" lon="3.24245">
        <ele>26.1</ele>
        <time>2023-01-22T09:30:31Z</time>
      </trkpt>
      <trkpt lat="50.34811" lon="3.24244">
        <ele>26.1</ele>
        <time>2023-01-22T09:30:32Z</time>
      </trkpt>
      <trkpt lat="50.34812" lon="3.24243">
        <ele>26.1</ele>
        <time>2023-01-22T09:30:33Z</time>
      </trkpt>
      <trkpt lat="50.34813" lon="3.24242">
        <ele>26.1</ele>
        <time>2023-01-22T09:30:34Z</time>
      </trkpt>
      <trkpt lat="50.34815" lon="3.24241">
        <ele>26.1</ele>
        <time>2023-01-22T09:30:35Z</time>
      </trkpt>
      <trkpt lat="50.34816" lon="3.24241">
        <ele>26.1</ele>
        <time>2023-01-22T09:30:36Z</time>
      </trkpt>
      <trkpt lat="50.34817" lon="3.24241">
        <ele>26.1</ele>
        <time>2023-01-22T09:30:37Z</time>
      </trkpt>
      <trkpt lat="50.34818" lon="3.2424">
        <ele>26.1</ele>
        <time>2023-01-22T09:30:38Z</time>
      </trkpt>
      <trkpt lat="50.34819" lon="3.24239">
        <ele>26.1</ele>
        <time>2023-01-22T09:30:39Z</time>
        <extensions>
          <gpxtpx:TrackPointExtension xmlns:gpxtpx="http://www.garmin.com/xmlschemas/TrackPointExtension/v1">
            <gpxtpx:hr>127</gpxtpx:hr>
          </gpxtpx:TrackPointExtension>
        </extensions>
      </trkpt>
      <trkpt lat="50.34821" lon="3.24239">
        <ele>19.798544</ele>
        <time>2023-01-22T09:30:40Z</time>
      </trkpt>
      <trkpt lat="50.34822" lon="3.24238">
        <ele>26.1</ele>
        <time>2023-01-22T09:30:41Z</time>
      </trkpt>
      <trkpt lat="50.34823" lon="3.24238">
        <ele>26.1</ele>
        <time>2023-01-22T09:30:42Z</time>
      </trkpt>
      <trkpt lat="50.34824" lon="3.24237">
        <ele>26.1</ele>
        <time>2023-01-22T09:30:43Z</time>
      </trkpt>
      <trkpt lat="50.34825" lon="3.24236">
        <ele>26.2</ele>
        <time>2023-01-22T09:30:44Z</time>
      </trkpt>
      <trkpt lat="50.34826" lon="3.24235">
        <ele>26.2</ele>
        <time>2023-01-22T09:30:45Z</time>
      </trkpt>
      <trkpt lat="50.34827" lon="3.24234">
        <ele>26.2</ele>
        <time>2023-01-22T09:30:46Z</time>
      </trkpt>
      <trkpt lat="50.34828" lon="3.24234">
        <ele>26.2</ele>
        <time>2023-01-22T09:30:47Z</time>
      </trkpt>
      <trkpt lat="50.34829" lon="3.24233">
        <ele>26.3</ele>
        <time>2023-01-22T09:30:48Z</time>
      </trkpt>
      <trkpt lat="50.34831" lon="3.24232">
        <ele>26.3</ele>
        <time>2023-01-22T09:30:49Z</time>
      </trkpt>
      <trkpt lat="50.34832" lon="3.24232">
        <ele>19.893396</ele>
        <time>2023-01-22T09:30:50Z</time>
      </trkpt>
      <trkpt lat="50.34833" lon="3.24232">
        <ele>26.3</ele>
        <time>2023-01-22T09:30:51Z</time>
      </trkpt>
      <trkpt lat="50.34834" lon="3.24232">
        <ele>26.3</ele>
        <time>2023-01-22T09:30:52Z</time>
      </trkpt>
      <trkpt lat="50.34836" lon="3.24232">
        <ele>26.3</ele>
        <time>2023-01-22T09:30:53Z</time>
      </trkpt>
      <trkpt lat="50.34837" lon="3.24232">
        <ele>26.3</ele>
        <time>2023-01-22T09:30:54Z</time>
      </trkpt>
      <trkpt lat="50.34839" lon="3.24232">
        <ele>26.3</ele>
        <time>2023-01-22T09:30:55Z</time>
      </trkpt>
      <trkpt lat="50.34841" lon="3.24231">
        <ele>26.3</ele>
        <time>2023-01-22T09:30:56Z</time>
      </trkpt>
      <trkpt lat="50.34843" lon="3.24231">
        <ele>26.4</ele>
        <time>2023-01-22T09:30:57Z</time>
      </trkpt>
      <trkpt lat="50.34845" lon="3.24231">
        <ele>26.4</ele>
        <time>2023-01-22T09:30:58Z</time>
      </trkpt>
      <trkpt lat="50.34847" lon="3.24231">
        <ele>26.4</ele>
        <time>2023-01-22T09:30:59Z</time>
        <extensions>
          <gpxtpx:TrackPointExtension xmlns:gpxtpx="http://www.garmin.com/xmlschemas/TrackPointExtension/v1">
            <gpxtpx:hr>131</gpxtpx:hr>
          </gpxtpx:TrackPointExtension>
        </extensions>
      </trkpt>
      <trkpt lat="50.34848" lon="3.2423">
        <ele>19.869684</ele>
        <time>2023-01-22T09:31:00Z</time>
      </trkpt>
      <trkpt lat="50.3485" lon="3.2423">
        <ele>26.4</ele>
        <time>2023-01-22T09:31:01Z</time>
      </trkpt>
      <trkpt lat="50.34851" lon="3.2423">
        <ele>26.4</ele>
        <time>2023-01-22T09:31:02Z</time>
      </trkpt>
      <trkpt lat="50.34853" lon="3.24229">
        <ele>26.5</ele>
        <time>2023-01-22T09:31:03Z</time>
      </trkpt>
      <trkpt lat="50.34855" lon="3.24228">
        <ele>26.6</ele>
        <time>2023-01-22T09:31:04Z</time>
      </trkpt>
      <trkpt lat="50.34856" lon="3.24227">
        <ele>26.6</ele>
        <time>2023-01-22T09:31:05Z</time>
      </trkpt>
      <trkpt lat="50.34857" lon="3.24227">
        <ele>26.7</ele>
        <time>2023-01-22T09:31:06Z</time>
      </trkpt>
      <trkpt lat="50.34858" lon="3.24226">
        <ele>26.7</ele>
        <time>2023-01-22T09:31:07Z</time>
      </trkpt>
      <trkpt lat="50.3486" lon="3.24226">
        <ele>26.7</ele>
        <time>2023-01-22T09:31:08Z</time>
      </trkpt>
      <trkpt lat="50.34861" lon="3.24226">
        <ele>26.7</ele>
        <time>2023-01-22T09:31:09Z</time>
      </trkpt>
      <trkpt lat="50.34863" lon="3.24225">
        <ele>19.682825</ele>
        <time>2023-01-22T09:31:10Z</time>
      </trkpt>
      <trkpt lat="50.34864" lon="3.24225">
        <ele>26.7</ele>
        <time>2023-01-22T09:31:11Z</time>
      </trkpt>
      <trkpt lat="50.34866" lon="3.24224">
        <ele>26.7</ele>
        <time>2023-01-22T09:31:12Z</time>
      </trkpt>
      <trkpt lat="50.34867" lon="3.24223">
        <ele>26.7</ele>
        <time>2023-01-22T09:31:13Z</time>
      </trkpt>
      <trkpt lat="50.34869" lon="3.24222">
        <ele>26.7</ele>
        <time>2023-01-22T09:31:14Z</time>
      </trkpt>
      <trkpt lat="50.3487" lon="3.24222">
        <ele>26.7</ele>
        <time>2023-01-22T09:31:15Z</time>
      </trkpt>
      <trkpt lat="50.34871" lon="3.24222">
        <ele>26.8</ele>
        <time>2023-01-22T09:31:16Z</time>
      </trkpt>
      <trkpt lat="50.34872" lon="3.24221">
        <ele>26.9</ele>
        <time>2023-01-22T09:31:17Z</time>
      </trkpt>
      <trkpt lat="50.34873" lon="3.24221">
        <ele>27</ele>
        <time>2023-01-22T09:31:18Z</time>
      </trkpt>
      <trkpt lat="50.34874" lon="3.2422">
        <ele>27.1</ele>
        <time>2023-01-22T09:31:19Z</time>
        <extensions>
          <gpxtpx:TrackPointExtension xmlns:gpxtpx="http://www.garmin.com/xmlschemas/TrackPointExtension/v1">
            <gpxtpx:hr>126</gpxtpx:hr>
          </gpxtpx:TrackPointExtension>
        </extensions>
      </trkpt>
      <trkpt lat="50.34875" lon="3.2422">
        <ele>19.728354</ele>
        <time>2023-01-22T09:31:20Z</time>
      </trkpt>
      <trkpt lat="50.34876" lon="3.2422">
        <ele>27.1</ele>
        <time>2023-01-22T09:31:21Z</time>
      </trkpt>
      <trkpt lat="50.34878" lon="3.2422">
        <ele>27.2</ele>
        <time>2023-01-22T09:31:22Z</time>
      </trkpt>
      <trkpt lat="50.34879" lon="3.2422">
        <ele>27.1</ele>
        <time>2023-01-22T09:31:23Z</time>
      </trkpt>
      <trkpt lat="50.3488" lon="3.24219">
        <ele>27.1</ele>
        <time>2023-01-22T09:31:24Z</time>
      </trkpt>
      <trkpt lat="50.34882" lon="3.24219">
        <ele>27.3</ele>
        <time>2023-01-22T09:31:25Z</time>
      </trkpt>
      <trkpt lat="50.34883" lon="3.24218">
        <ele>27.4</ele>
        <time>2023-01-22T09:31:26Z</time>
      </trkpt>
      <trkpt lat="50.34883" lon="3.24217">
        <ele>27.6</ele>
        <time>2023-01-22T09:31:27Z</time>
      </trkpt>
      <trkpt lat="50.34884" lon="3.24217">
        <ele>27.6</ele>
        <time>2023-01-22T09:31:28Z</time>
      </trkpt>
      <trkpt lat="50.34885" lon="3.24217">
        <ele>27.7</ele>
        <time>2023-01-22T09:31:29Z</time>
      </trkpt>
      <trkpt lat="50.34886" lon="3.24216">
        <ele>19.776728</ele>
        <time>2023-01-22T09:31:30Z</time>
      </trkpt>
      <trkpt lat="50.34887" lon="3.24216">
        <ele>28</ele>
        <time>2023-01-22T09:31:31Z</time>
      </trkpt>
      <trkpt lat="50.34889" lon="3.24215">
        <ele>28.2</ele>
        <time>2023-01-22T09:31:32Z</time>
      </trkpt>
      <trkpt lat="50.3489" lon="3.24215">
        <ele>28.2</ele>
        <time>2023-01-22T09:31:33Z</time>
      </trkpt>
      <trkpt lat="50.34892" lon="3.24215">
        <ele>28.2</ele>
        <time>2023-01-22T09:31:34Z</time>
      </trkpt>
      <trkpt lat="50.34893" lon="3.24215">
        <ele>28</ele>
        <time>2023-01-22T09:31:35Z</time>
      </trkpt>
      <trkpt lat="50.34894" lon="3.24215">
        <ele>28</ele>
        <time>2023-01-22T09:31:36Z</time>
      </trkpt>
      <trkpt lat="50.34895" lon="3.24216">
        <ele>27.9</ele>
        <time>2023-01-22T09:31:37Z</time>
      </trkpt>
      <trkpt lat="50.34897" lon="3.24216">
        <ele>27.8</ele>
        <time>2023-01-22T09:31:38Z</time>
      </trkpt>
      <trkpt lat="50.34898" lon="3.24217">
        <ele>27.6</ele>
        <time>2023-01-22T09:31:39Z</time>
        <extensions>
          <gpxtpx:TrackPointExtension xmlns:gpxtpx="http://www.garmin.com/xmlschemas/TrackPointExtension/v1">
            <gpxtpx:hr>123</gpxtpx:hr>
          </gpxtpx:TrackPointExtension>
        </extensions>
      </trkpt>
      <trkpt lat="50.34898" lon="3.24216">
        <ele>19.811823</ele>
        <time>2023-01-22T09:31:40Z</time>
      </trkpt>
      <trkpt lat="50.34899" lon="3.24216">
        <ele>27.7</ele>
        <time>2023-01-22T09:31:41Z</time>
      </trkpt>
      <trkpt lat="50.349" lon="3.24216">
        <ele>27.7</ele>
        <time>2023-01-22T09:31:42Z</time>
      </trkpt>
      <trkpt lat="50.34901" lon="3.24216">
        <ele>27.7</ele>
        <time>2023-01-22T09:31:43Z</time>
      </trkpt>
      <trkpt lat="50.34902" lon="3.24216">
        <ele>27.8</ele>
        <time>2023-01-22T09:31:44Z</time>
      </trkpt>
      <trkpt lat="50.34904" lon="3.24217">
        <ele>27.5</ele>
        <time>2023-01-22T09:31:45Z</time>
      </trkpt>
      <trkpt lat="50.34905" lon="3.24217">
        <ele>27.4</ele>
        <time>2023-01-22T09:31:46Z</time>
      </trkpt>
      <trkpt lat="50.34906" lon="3.24218">
        <ele>27.3</ele>
        <time>2023-01-22T09:31:47Z</time>
      </trkpt>
      <trkpt lat="50.34908" lon="3.24219">
        <ele>27.1</ele>
        <time>2023-01-22T09:31:48Z</time>
      </trkpt>
      <trkpt lat="50.34909" lon="3.24219">
        <ele>27</ele>
        <time>2023-01-22T09:31:49Z</time>
      </trkpt>
      <trkpt lat="50.3491" lon="3.24219">
        <ele>19.754911</ele>
        <time>2023-01-22T09:31:50Z</time>
      </trkpt>
      <trkpt lat="50.34912" lon="3.24219">
        <ele>27</ele>
        <time>2023-01-22T09:31:51Z</time>
      </trkpt>
      <trkpt lat="50.34913" lon="3.24219">
        <ele>27.1</ele>
        <time>2023-01-22T09:31:52Z</time>
      </trkpt>
      <trkpt lat="50.34915" lon="3.24219">
        <ele>26.9</ele>
        <time>2023-01-22T09:31:53Z</time>
      </trkpt>
      <trkpt lat="50.34916" lon="3.24219">
        <ele>27</ele>
        <time>2023-01-22T09:31:54Z</time>
      </trkpt>
      <trkpt lat="50.34917" lon="3.24219">
        <ele>26.9</ele>
        <time>2023-01-22T09:31:55Z</time>
      </trkpt>
      <trkpt lat="50.34919" lon="3.24219">
        <ele>27</ele>
        <time>2023-01-22T09:31:56Z</time>
      </trkpt>
      <trkpt lat="50.34919" lon="3.2422">
        <ele>26.6</ele>
        <time>2023-01-22T09:31:57Z</time>
      </trkpt>
      <trkpt lat="50.34921" lon="3.2422">
        <ele>26.6</ele>
        <time>2023-01-22T09:31:58Z</time>
      </trkpt>
      <trkpt lat="50.34922" lon="3.24221">
        <ele>26.4</ele>
        <time>2023-01-22T09:31:59Z</time>
        <extensions>
          <gpxtpx:TrackPointExtension xmlns:gpxtpx="http://www.garmin.com/xmlschemas/TrackPointExtension/v1">
            <gpxtpx:hr>122</gpxtpx:hr>
          </gpxtpx:TrackPointExtension>
        </extensions>
      </trkpt>
      <trkpt lat="50.34923" lon="3.24221">
        <ele>19.926596</ele>
        <time>2023-01-22T09:32:00Z</time>
      </trkpt>
      <trkpt lat="50.34924" lon="3.24222">
        <ele>26.1</ele>
        <time>2023-01-22T09:32:01Z</time>
      </trkpt>
      <trkpt lat="50.34925" lon="3.24222">
        <ele>26.1</ele>
        <time>2023-01-22T09:32:02Z</time>
      </trkpt>
      <trkpt lat="50.34926" lon="3.24222">
        <ele>26</ele>
        <time>2023-01-22T09:32:03Z</time>
      </trkpt>
      <trkpt lat="50.34928" lon="3.24222">
        <ele>26.1</ele>
        <time>2023-01-22T09:32:04Z</time>
      </trkpt>
      <trkpt lat="50.34929" lon="3.24222">
        <ele>26</ele>
        <time>2023-01-22T09:32:05Z</time>
      </trkpt>
      <trkpt lat="50.3493" lon="3.24223">
        <ele>26</ele>
        <time>2023-01-22T09:32:06Z</time>
      </trkpt>
      <trkpt lat="50.34931" lon="3.24223">
        <ele>25.9</ele>
        <time>2023-01-22T09:32:07Z</time>
      </trkpt>
      <trkpt lat="50.34932" lon="3.24224">
        <ele>25.9</ele>
        <time>2023-01-22T09:32:08Z</time>
      </trkpt>
      <trkpt lat="50.34933" lon="3.24224">
        <ele>25.9</ele>
        <time>2023-01-22T09:32:09Z</time>
      </trkpt>
      <trkpt lat="50.34935" lon="3.24224">
        <ele>20.149502</ele>
        <time>2023-01-22T09:32:10Z</time>
      </trkpt>
      <trkpt lat="50.34936" lon="3.24225">
        <ele>25.9</ele>
        <time>2023-01-22T09:32:11Z</time>
      </trkpt>
      <trkpt lat="50.34937" lon="3.24226">
        <ele>25.8</ele>
        <time>2023-01-22T09:32:12Z</time>
      </trkpt>
      <trkpt lat="50.34938" lon="3.24226">
        <ele>25.8</ele>
        <time>2023-01-22T09:32:13Z</time>
      </trkpt>
      <trkpt lat="50.3494" lon="3.24226">
        <ele>25.8</ele>
        <time>2023-01-22T09:32:14Z</time>
      </trkpt>
      <trkpt lat="50.34941" lon="3.24227">
        <ele>25.8</ele>
        <time>2023-01-22T09:32:15Z</time>
      </trkpt>
      <trkpt lat="50.34943" lon="3.24227">
        <ele>25.8</ele>
        <time>2023-01-22T09:32:16Z</time>
      </trkpt>
      <trkpt lat="50.34945" lon="3.24227">
        <ele>25.8</ele>
        <time>2023-01-22T09:32:17Z</time>
      </trkpt>
      <trkpt lat="50.34946" lon="3.24228">
        <ele>25.8</ele>
        <time>2023-01-22T09:32:18Z</time>
      </trkpt>
      <trkpt lat="50.34947" lon="3.24228">
        <ele>25.8</ele>
        <time>2023-01-22T09:32:19Z</time>
        <extensions>
          <gpxtpx:TrackPointExtension xmlns:gpxtpx="http://www.garmin.com/xmlschemas/TrackPointExtension/v1">
            <gpxtpx:hr>127</gpxtpx:hr>
          </gpxtpx:TrackPointExtension>
        </extensions>
      </trkpt>
      <trkpt lat="50.34948" lon="3.24229">
        <ele>20.113457</ele>
        <time>2023-01-22T09:32:20Z</time>
      </trkpt>
      <trkpt lat="50.3495" lon="3.24229">
        <ele>25.8</ele>
        <time>2023-01-22T09:32:21Z</time>
      </trkpt>
      <trkpt lat="50.34951" lon="3.24229">
        <ele>25.8</ele>
        <time>2023-01-22T09:32:22Z</time>
      </trkpt>
      <trkpt lat="50.34953" lon="3.24229">
        <ele>25.8</ele>
        <time>2023-01-22T09:32:23Z</time>
      </trkpt>
      <trkpt lat="50.34955" lon="3.24229">
        <ele>25.8</ele>
        <time>2023-01-22T09:32:24Z</time>
      </trkpt>
      <trkpt lat="50.34956" lon="3.2423">
        <ele>25.8</ele>
        <time>2023-01-22T09:32:25Z</time>
      </trkpt>
      <trkpt lat="50.34957" lon="3.2423">
        <ele>25.9</ele>
        <time>2023-01-22T09:32:26Z</time>
      </trkpt>
      <trkpt lat="50.34958" lon="3.2423">
        <ele>25.9</ele>
        <time>2023-01-22T09:32:27Z</time>
      </trkpt>
      <trkpt lat="50.34959" lon="3.2423">
        <ele>25.9</ele>
        <time>2023-01-22T09:32:28Z</time>
      </trkpt>
      <trkpt lat="50.34961" lon="3.24231">
        <ele>25.9</ele>
        <time>2023-01-22T09:32:29Z</time>
      </trkpt>
      <trkpt lat="50.34963" lon="3.24232">
        <ele>19.99394</ele>
        <time>2023-01-22T09:32:30Z</time>
      </trkpt>
      <trkpt lat="50.34964" lon="3.24233">
        <ele>25.9</ele>
        <time>2023-01-22T09:32:31Z</time>
      </trkpt>
      <trkpt lat="50.34966" lon="3.24234">
        <ele>25.9</ele>
        <time>2023-01-22T09:32:32Z</time>
      </trkpt>
      <trkpt lat="50.34967" lon="3.24235">
        <ele>25.9</ele>
        <time>2023-01-22T09:32:33Z</time>
      </trkpt>
      <trkpt lat="50.34968" lon="3.24236">
        <ele>25.9</ele>
        <time>2023-01-22T09:32:34Z</time>
      </trkpt>
      <trkpt lat="50.34969" lon="3.24238">
        <ele>25.9</ele>
        <time>2023-01-22T09:32:35Z</time>
      </trkpt>
      <trkpt lat="50.34971" lon="3.24239">
        <ele>26</ele>
        <time>2023-01-22T09:32:36Z</time>
      </trkpt>
      <trkpt lat="50.34972" lon="3.2424">
        <ele>26</ele>
        <time>2023-01-22T09:32:37Z</time>
      </trkpt>
      <trkpt lat="50.34974" lon="3.24242">
        <ele>26</ele>
        <time>2023-01-22T09:32:38Z</time>
      </trkpt>
      <trkpt lat="50.34975" lon="3.24244">
        <ele>26</ele>
        <time>2023-01-22T09:32:39Z</time>
        <extensions>
          <gpxtpx:TrackPointExtension xmlns:gpxtpx="http://www.garmin.com/xmlschemas/TrackPointExtension/v1">
            <gpxtpx:hr>129</gpxtpx:hr>
          </gpxtpx:TrackPointExtension>
        </extensions>
      </trkpt>
      <trkpt lat="50.34975" lon="3.24245">
        <ele>20.140965</ele>
        <time>2023-01-22T09:32:40Z</time>
      </trkpt>
      <trkpt lat="50.34977" lon="3.24246">
        <ele>26</ele>
        <time>2023-01-22T09:32:41Z</time>
      </trkpt>
      <trkpt lat="50.34978" lon="3.24246">
        <ele>26</ele>
        <time>2023-01-22T09:32:42Z</time>
      </trkpt>
      <trkpt lat="50.34979" lon="3.24247">
        <ele>26</ele>
        <time>2023-01-22T09:32:43Z</time>
      </trkpt>
      <trkpt lat="50.3498" lon="3.24248">
        <ele>26</ele>
        <time>2023-01-22T09:32:44Z</time>
      </trkpt>
      <trkpt lat="50.34981" lon="3.24249">
        <ele>26</ele>
        <time>2023-01-22T09:32:45Z</time>
      </trkpt>
      <trkpt lat="50.34983" lon="3.2425">
        <ele>26</ele>
        <time>2023-01-22T09:32:46Z</time>
      </trkpt>
      <trkpt lat="50.34984" lon="3.2425">
        <ele>26</ele>
        <time>2023-01-22T09:32:47Z</time>
      </trkpt>
      <trkpt lat="50.34985" lon="3.24251">
        <ele>26</ele>
        <time>2023-01-22T09:32:48Z</time>
      </trkpt>
      <trkpt lat="50.34986" lon="3.24251">
        <ele>26</ele>
        <time>2023-01-22T09:32:49Z</time>
      </trkpt>
      <trkpt lat="50.34987" lon="3.24251">
        <ele>20.18934</ele>
        <time>2023-01-22T09:32:50Z</time>
      </trkpt>
      <trkpt lat="50.34988" lon="3.24252">
        <ele>25.9</ele>
        <time>2023-01-22T09:32:51Z</time>
      </trkpt>
      <trkpt lat="50.34989" lon="3.24253">
        <ele>25.9</ele>
        <time>2023-01-22T09:32:52Z</time>
      </trkpt>
      <trkpt lat="50.3499" lon="3.24254">
        <ele>25.8</ele>
        <time>2023-01-22T09:32:53Z</time>
      </trkpt>
      <trkpt lat="50.34991" lon="3.24255">
        <ele>25.8</ele>
        <time>2023-01-22T09:32:54Z</time>
      </trkpt>
      <trkpt lat="50.34992" lon="3.24256">
        <ele>25.8</ele>
        <time>2023-01-22T09:32:55Z</time>
      </trkpt>
      <trkpt lat="50.34993" lon="3.24257">
        <ele>25.7</ele>
        <time>2023-01-22T09:32:56Z</time>
      </trkpt>
      <trkpt lat="50.34994" lon="3.24259">
        <ele>25.7</ele>
        <time>2023-01-22T09:32:57Z</time>
      </trkpt>
      <trkpt lat="50.34995" lon="3.2426">
        <ele>25.6</ele>
        <time>2023-01-22T09:32:58Z</time>
      </trkpt>
      <trkpt lat="50.34996" lon="3.24261">
        <ele>25.6</ele>
        <time>2023-01-22T09:32:59Z</time>
        <extensions>
          <gpxtpx:TrackPointExtension xmlns:gpxtpx="http://www.garmin.com/xmlschemas/TrackPointExtension/v1">
            <gpxtpx:hr>126</gpxtpx:hr>
          </gpxtpx:TrackPointExtension>
        </extensions>
      </trkpt>
      <trkpt lat="50.34998" lon="3.24262">
        <ele>19.903831</ele>
        <time>2023-01-22T09:33:00Z</time>
      </trkpt>
      <trkpt lat="50.34999" lon="3.24263">
        <ele>25.5</ele>
        <time>2023-01-22T09:33:01Z</time>
      </trkpt>
      <trkpt lat="50.35" lon="3.24264">
        <ele>25.5</ele>
        <time>2023-01-22T09:33:02Z</time>
      </trkpt>
      <trkpt lat="50.35001" lon="3.24264">
        <ele>25.5</ele>
        <time>2023-01-22T09:33:03Z</time>
      </trkpt>
      <trkpt lat="50.35002" lon="3.24265">
        <ele>25.5</ele>
        <time>2023-01-22T09:33:04Z</time>
      </trkpt>
      <trkpt lat="50.35004" lon="3.24266">
        <ele>25.5</ele>
        <time>2023-01-22T09:33:05Z</time>
      </trkpt>
      <trkpt lat="50.35006" lon="3.24267">
        <ele>25.4</ele>
        <time>2023-01-22T09:33:06Z</time>
      </trkpt>
      <trkpt lat="50.35008" lon="3.24267">
        <ele>25.5</ele>
        <time>2023-01-22T09:33:07Z</time>
      </trkpt>
      <trkpt lat="50.35009" lon="3.24267">
        <ele>25.5</ele>
        <time>2023-01-22T09:33:08Z</time>
      </trkpt>
      <trkpt lat="50.35011" lon="3.24267">
        <ele>25.5</ele>
        <time>2023-01-22T09:33:09Z</time>
      </trkpt>
      <trkpt lat="50.35012" lon="3.24267">
        <ele>19.926596</ele>
        <time>2023-01-22T09:33:10Z</time>
      </trkpt>
      <trkpt lat="50.35012" lon="3.24268">
        <ele>25.5</ele>
        <time>2023-01-22T09:33:11Z</time>
      </trkpt>
      <trkpt lat="50.35014" lon="3.24268">
        <ele>25.5</ele>
        <time>2023-01-22T09:33:12Z</time>
      </trkpt>
      <trkpt lat="50.35015" lon="3.24269">
        <ele>25.5</ele>
        <time>2023-01-22T09:33:13Z</time>
      </trkpt>
      <trkpt lat="50.35017" lon="3.2427">
        <ele>25.5</ele>
        <time>2023-01-22T09:33:14Z</time>
      </trkpt>
      <trkpt lat="50.35018" lon="3.24271">
        <ele>25.6</ele>
        <time>2023-01-22T09:33:15Z</time>
      </trkpt>
      <trkpt lat="50.3502" lon="3.24272">
        <ele>25.6</ele>
        <time>2023-01-22T09:33:16Z</time>
      </trkpt>
      <trkpt lat="50.35021" lon="3.24273">
        <ele>25.7</ele>
        <time>2023-01-22T09:33:17Z</time>
      </trkpt>
      <trkpt lat="50.35023" lon="3.24274">
        <ele>25.7</ele>
        <time>2023-01-22T09:33:18Z</time>
      </trkpt>
      <trkpt lat="50.35024" lon="3.24274">
        <ele>25.8</ele>
        <time>2023-01-22T09:33:19Z</time>
        <extensions>
          <gpxtpx:TrackPointExtension xmlns:gpxtpx="http://www.garmin.com/xmlschemas/TrackPointExtension/v1">
            <gpxtpx:hr>123</gpxtpx:hr>
          </gpxtpx:TrackPointExtension>
        </extensions>
      </trkpt>
      <trkpt lat="50.35025" lon="3.24276">
        <ele>25.8</ele>
        <time>2023-01-22T09:33:20Z</time>
      </trkpt>
      <trkpt lat="50.35025" lon="3.24276">
        <ele>25.9</ele>
        <time>2023-01-22T09:33:21Z</time>
      </trkpt>
      <trkpt lat="50.35027" lon="3.24277">
        <ele>25.9</ele>
        <time>2023-01-22T09:33:22Z</time>
      </trkpt>
      <trkpt lat="50.35028" lon="3.24279">
        <ele>26</ele>
        <time>2023-01-22T09:33:23Z</time>
      </trkpt>
      <trkpt lat="50.35029" lon="3.24279">
        <ele>26</ele>
        <time>2023-01-22T09:33:24Z</time>
      </trkpt>
      <trkpt lat="50.3503" lon="3.2428">
        <ele>19.962639</ele>
        <time>2023-01-22T09:33:25Z</time>
      </trkpt>
      <trkpt lat="50.35031" lon="3.24281">
        <ele>25.9</ele>
        <time>2023-01-22T09:33:26Z</time>
      </trkpt>
      <trkpt lat="50.35032" lon="3.24282">
        <ele>25.9</ele>
        <time>2023-01-22T09:33:27Z</time>
      </trkpt>
      <trkpt lat="50.35033" lon="3.24283">
        <ele>25.9</ele>
        <time>2023-01-22T09:33:28Z</time>
      </trkpt>
      <trkpt lat="50.35035" lon="3.24284">
        <ele>25.8</ele>
        <time>2023-01-22T09:33:29Z</time>
      </trkpt>
      <trkpt lat="50.35036" lon="3.24284">
        <ele>20.10587</ele>
        <time>2023-01-22T09:33:30Z</time>
      </trkpt>
      <trkpt lat="50.35037" lon="3.24284">
        <ele>25.9</ele>
        <time>2023-01-22T09:33:31Z</time>
      </trkpt>
      <trkpt lat="50.35039" lon="3.24284">
        <ele>25.9</ele>
        <time>2023-01-22T09:33:32Z</time>
      </trkpt>
      <trkpt lat="50.3504" lon="3.24285">
        <ele>25.9</ele>
        <time>2023-01-22T09:33:33Z</time>
      </trkpt>
      <trkpt lat="50.35042" lon="3.24285">
        <ele>25.9</ele>
        <time>2023-01-22T09:33:34Z</time>
      </trkpt>
      <trkpt lat="50.35043" lon="3.24286">
        <ele>25.9</ele>
        <time>2023-01-22T09:33:35Z</time>
      </trkpt>
      <trkpt lat="50.35045" lon="3.24287">
        <ele>25.9</ele>
        <time>2023-01-22T09:33:36Z</time>
      </trkpt>
      <trkpt lat="50.35046" lon="3.24288">
        <ele>25.9</ele>
        <time>2023-01-22T09:33:37Z</time>
      </trkpt>
      <trkpt lat="50.35047" lon="3.24289">
        <ele>25.9</ele>
        <time>2023-01-22T09:33:38Z</time>
      </trkpt>
      <trkpt lat="50.35049" lon="3.2429">
        <ele>25.9</ele>
        <time>2023-01-22T09:33:39Z</time>
        <extensions>
          <gpxtpx:TrackPointExtension xmlns:gpxtpx="http://www.garmin.com/xmlschemas/TrackPointExtension/v1">
            <gpxtpx:hr>123</gpxtpx:hr>
          </gpxtpx:TrackPointExtension>
        </extensions>
      </trkpt>
      <trkpt lat="50.3505" lon="3.24291">
        <ele>19.85356</ele>
        <time>2023-01-22T09:33:40Z</time>
      </trkpt>
      <trkpt lat="50.35052" lon="3.24291">
        <ele>25.9</ele>
        <time>2023-01-22T09:33:41Z</time>
      </trkpt>
      <trkpt lat="50.35053" lon="3.24292">
        <ele>26</ele>
        <time>2023-01-22T09:33:42Z</time>
      </trkpt>
      <trkpt lat="50.35055" lon="3.24292">
        <ele>26</ele>
        <time>2023-01-22T09:33:43Z</time>
      </trkpt>
      <trkpt lat="50.35056" lon="3.24292">
        <ele>26</ele>
        <time>2023-01-22T09:33:44Z</time>
      </trkpt>
      <trkpt lat="50.35057" lon="3.24293">
        <ele>26</ele>
        <time>2023-01-22T09:33:45Z</time>
      </trkpt>
      <trkpt lat="50.35059" lon="3.24294">
        <ele>26</ele>
        <time>2023-01-22T09:33:46Z</time>
      </trkpt>
      <trkpt lat="50.3506" lon="3.24294">
        <ele>26</ele>
        <time>2023-01-22T09:33:47Z</time>
      </trkpt>
      <trkpt lat="50.35061" lon="3.24295">
        <ele>26</ele>
        <time>2023-01-22T09:33:48Z</time>
      </trkpt>
      <trkpt lat="50.35062" lon="3.24295">
        <ele>26</ele>
        <time>2023-01-22T09:33:49Z</time>
      </trkpt>
      <trkpt lat="50.35064" lon="3.24296">
        <ele>19.991096</ele>
        <time>2023-01-22T09:33:50Z</time>
      </trkpt>
      <trkpt lat="50.35066" lon="3.24297">
        <ele>26</ele>
        <time>2023-01-22T09:33:51Z</time>
      </trkpt>
      <trkpt lat="50.35067" lon="3.24297">
        <ele>26</ele>
        <time>2023-01-22T09:33:52Z</time>
      </trkpt>
      <trkpt lat="50.35067" lon="3.24298">
        <ele>26</ele>
        <time>2023-01-22T09:33:53Z</time>
      </trkpt>
      <trkpt lat="50.35068" lon="3.24298">
        <ele>26</ele>
        <time>2023-01-22T09:33:54Z</time>
      </trkpt>
      <trkpt lat="50.35069" lon="3.24298">
        <ele>26</ele>
        <time>2023-01-22T09:33:55Z</time>
      </trkpt>
      <trkpt lat="50.3507" lon="3.24299">
        <ele>26</ele>
        <time>2023-01-22T09:33:56Z</time>
      </trkpt>
      <trkpt lat="50.35072" lon="3.24299">
        <ele>26</ele>
        <time>2023-01-22T09:33:57Z</time>
      </trkpt>
      <trkpt lat="50.35074" lon="3.243">
        <ele>26</ele>
        <time>2023-01-22T09:33:58Z</time>
      </trkpt>
      <trkpt lat="50.35075" lon="3.24302">
        <ele>26</ele>
        <time>2023-01-22T09:33:59Z</time>
        <extensions>
          <gpxtpx:TrackPointExtension xmlns:gpxtpx="http://www.garmin.com/xmlschemas/TrackPointExtension/v1">
            <gpxtpx:hr>125</gpxtpx:hr>
          </gpxtpx:TrackPointExtension>
        </extensions>
      </trkpt>
      <trkpt lat="50.35076" lon="3.24303">
        <ele>20.026192</ele>
        <time>2023-01-22T09:34:00Z</time>
      </trkpt>
      <trkpt lat="50.35077" lon="3.24304">
        <ele>26</ele>
        <time>2023-01-22T09:34:01Z</time>
      </trkpt>
      <trkpt lat="50.35078" lon="3.24304">
        <ele>26</ele>
        <time>2023-01-22T09:34:02Z</time>
      </trkpt>
      <trkpt lat="50.35079" lon="3.24304">
        <ele>26</ele>
        <time>2023-01-22T09:34:03Z</time>
      </trkpt>
      <trkpt lat="50.3508" lon="3.24304">
        <ele>26</ele>
        <time>2023-01-22T09:34:04Z</time>
      </trkpt>
      <trkpt lat="50.35081" lon="3.24304">
        <ele>26</ele>
        <time>2023-01-22T09:34:05Z</time>
      </trkpt>
      <trkpt lat="50.35082" lon="3.24304">
        <ele>26</ele>
        <time>2023-01-22T09:34:06Z</time>
      </trkpt>
      <trkpt lat="50.35083" lon="3.24304">
        <ele>26</ele>
        <time>2023-01-22T09:34:07Z</time>
      </trkpt>
      <trkpt lat="50.35084" lon="3.24304">
        <ele>26</ele>
        <time>2023-01-22T09:34:08Z</time>
      </trkpt>
      <trkpt lat="50.35086" lon="3.24304">
        <ele>26</ele>
        <time>2023-01-22T09:34:09Z</time>
      </trkpt>
      <trkpt lat="50.35087" lon="3.24306">
        <ele>19.945566</ele>
        <time>2023-01-22T09:34:10Z</time>
      </trkpt>
      <trkpt lat="50.35089" lon="3.24307">
        <ele>26</ele>
        <time>2023-01-22T09:34:11Z</time>
      </trkpt>
      <trkpt lat="50.35091" lon="3.24308">
        <ele>26</ele>
        <time>2023-01-22T09:34:12Z</time>
      </trkpt>
      <trkpt lat="50.35092" lon="3.24309">
        <ele>26</ele>
        <time>2023-01-22T09:34:13Z</time>
      </trkpt>
      <trkpt lat="50.35094" lon="3.2431">
        <ele>26</ele>
        <time>2023-01-22T09:34:14Z</time>
      </trkpt>
      <trkpt lat="50.35095" lon="3.24311">
        <ele>26</ele>
        <time>2023-01-22T09:34:15Z</time>
      </trkpt>
      <trkpt lat="50.35096" lon="3.24312">
        <ele>26</ele>
        <time>2023-01-22T09:34:16Z</time>
      </trkpt>
      <trkpt lat="50.35097" lon="3.24312">
        <ele>26</ele>
        <time>2023-01-22T09:34:17Z</time>
      </trkpt>
      <trkpt lat="50.35098" lon="3.24313">
        <ele>26</ele>
        <time>2023-01-22T09:34:18Z</time>
      </trkpt>
      <trkpt lat="50.35099" lon="3.24314">
        <ele>26</ele>
        <time>2023-01-22T09:34:19Z</time>
        <extensions>
          <gpxtpx:TrackPointExtension xmlns:gpxtpx="http://www.garmin.com/xmlschemas/TrackPointExtension/v1">
            <gpxtpx:hr>123</gpxtpx:hr>
          </gpxtpx:TrackPointExtension>
        </extensions>
      </trkpt>
      <trkpt lat="50.35101" lon="3.24315">
        <ele>20.097332</ele>
        <time>2023-01-22T09:34:20Z</time>
      </trkpt>
      <trkpt lat="50.35103" lon="3.24315">
        <ele>26</ele>
        <time>2023-01-22T09:34:21Z</time>
      </trkpt>
      <trkpt lat="50.35104" lon="3.24315">
        <ele>26</ele>
        <time>2023-01-22T09:34:22Z</time>
      </trkpt>
      <trkpt lat="50.35107" lon="3.24316">
        <ele>26</ele>
        <time>2023-01-22T09:34:23Z</time>
      </trkpt>
      <trkpt lat="50.35108" lon="3.24316">
        <ele>26</ele>
        <time>2023-01-22T09:34:24Z</time>
      </trkpt>
      <trkpt lat="50.35109" lon="3.24316">
        <ele>26</ele>
        <time>2023-01-22T09:34:25Z</time>
      </trkpt>
      <trkpt lat="50.35111" lon="3.24317">
        <ele>26</ele>
        <time>2023-01-22T09:34:26Z</time>
      </trkpt>
      <trkpt lat="50.35112" lon="3.24317">
        <ele>26</ele>
        <time>2023-01-22T09:34:27Z</time>
      </trkpt>
      <trkpt lat="50.35114" lon="3.24318">
        <ele>26</ele>
        <time>2023-01-22T09:34:28Z</time>
      </trkpt>
      <trkpt lat="50.35115" lon="3.24319">
        <ele>26</ele>
        <time>2023-01-22T09:34:29Z</time>
      </trkpt>
      <trkpt lat="50.35117" lon="3.24321">
        <ele>19.907625</ele>
        <time>2023-01-22T09:34:30Z</time>
      </trkpt>
      <trkpt lat="50.35119" lon="3.24321">
        <ele>26</ele>
        <time>2023-01-22T09:34:31Z</time>
      </trkpt>
      <trkpt lat="50.3512" lon="3.24322">
        <ele>26</ele>
        <time>2023-01-22T09:34:32Z</time>
      </trkpt>
      <trkpt lat="50.3512" lon="3.24322">
        <ele>26</ele>
        <time>2023-01-22T09:34:33Z</time>
      </trkpt>
      <trkpt lat="50.35122" lon="3.24322">
        <ele>26</ele>
        <time>2023-01-22T09:34:34Z</time>
      </trkpt>
      <trkpt lat="50.35122" lon="3.24322">
        <ele>26</ele>
        <time>2023-01-22T09:34:35Z</time>
      </trkpt>
      <trkpt lat="50.35123" lon="3.24323">
        <ele>26</ele>
        <time>2023-01-22T09:34:36Z</time>
      </trkpt>
      <trkpt lat="50.35124" lon="3.24324">
        <ele>26</ele>
        <time>2023-01-22T09:34:37Z</time>
      </trkpt>
      <trkpt lat="50.35125" lon="3.24324">
        <ele>26</ele>
        <time>2023-01-22T09:34:38Z</time>
      </trkpt>
      <trkpt lat="50.35126" lon="3.24325">
        <ele>26</ele>
        <time>2023-01-22T09:34:39Z</time>
        <extensions>
          <gpxtpx:TrackPointExtension xmlns:gpxtpx="http://www.garmin.com/xmlschemas/TrackPointExtension/v1">
            <gpxtpx:hr>125</gpxtpx:hr>
          </gpxtpx:TrackPointExtension>
        </extensions>
      </trkpt>
      <trkpt lat="50.35127" lon="3.24325">
        <ele>19.882963</ele>
        <time>2023-01-22T09:34:40Z</time>
      </trkpt>
      <trkpt lat="50.35127" lon="3.24326">
        <ele>26</ele>
        <time>2023-01-22T09:34:41Z</time>
      </trkpt>
      <trkpt lat="50.35129" lon="3.24327">
        <ele>26</ele>
        <time>2023-01-22T09:34:42Z</time>
      </trkpt>
      <trkpt lat="50.3513" lon="3.24328">
        <ele>26</ele>
        <time>2023-01-22T09:34:43Z</time>
      </trkpt>
      <trkpt lat="50.35132" lon="3.24329">
        <ele>26</ele>
        <time>2023-01-22T09:34:44Z</time>
      </trkpt>
      <trkpt lat="50.35133" lon="3.2433">
        <ele>26</ele>
        <time>2023-01-22T09:34:45Z</time>
      </trkpt>
      <trkpt lat="50.35134" lon="3.24332">
        <ele>26</ele>
        <time>2023-01-22T09:34:46Z</time>
      </trkpt>
      <trkpt lat="50.35135" lon="3.24332">
        <ele>26</ele>
        <time>2023-01-22T09:34:47Z</time>
      </trkpt>
      <trkpt lat="50.35136" lon="3.24334">
        <ele>26</ele>
        <time>2023-01-22T09:34:48Z</time>
      </trkpt>
      <trkpt lat="50.35138" lon="3.24335">
        <ele>26</ele>
        <time>2023-01-22T09:34:49Z</time>
      </trkpt>
      <trkpt lat="50.3514" lon="3.24335">
        <ele>20.037573</ele>
        <time>2023-01-22T09:34:50Z</time>
      </trkpt>
      <trkpt lat="50.35141" lon="3.24336">
        <ele>26</ele>
        <time>2023-01-22T09:34:51Z</time>
      </trkpt>
      <trkpt lat="50.35142" lon="3.24337">
        <ele>26</ele>
        <time>2023-01-22T09:34:52Z</time>
      </trkpt>
      <trkpt lat="50.35143" lon="3.24338">
        <ele>26</ele>
        <time>2023-01-22T09:34:53Z</time>
      </trkpt>
      <trkpt lat="50.35144" lon="3.24338">
        <ele>26</ele>
        <time>2023-01-22T09:34:54Z</time>
      </trkpt>
      <trkpt lat="50.35145" lon="3.24338">
        <ele>26</ele>
        <time>2023-01-22T09:34:55Z</time>
      </trkpt>
      <trkpt lat="50.35146" lon="3.24339">
        <ele>26</ele>
        <time>2023-01-22T09:34:56Z</time>
      </trkpt>
      <trkpt lat="50.35147" lon="3.24339">
        <ele>26</ele>
        <time>2023-01-22T09:34:57Z</time>
      </trkpt>
      <trkpt lat="50.35148" lon="3.2434">
        <ele>26</ele>
        <time>2023-01-22T09:34:58Z</time>
      </trkpt>
      <trkpt lat="50.35149" lon="3.2434">
        <ele>26</ele>
        <time>2023-01-22T09:34:59Z</time>
        <extensions>
          <gpxtpx:TrackPointExtension xmlns:gpxtpx="http://www.garmin.com/xmlschemas/TrackPointExtension/v1">
            <gpxtpx:hr>125</gpxtpx:hr>
          </gpxtpx:TrackPointExtension>
        </extensions>
      </trkpt>
      <trkpt lat="50.3515" lon="3.24341">
        <ele>20.388535</ele>
        <time>2023-01-22T09:35:00Z</time>
      </trkpt>
      <trkpt lat="50.35151" lon="3.24341">
        <ele>26</ele>
        <time>2023-01-22T09:35:01Z</time>
      </trkpt>
      <trkpt lat="50.35151" lon="3.24342">
        <ele>26</ele>
        <time>2023-01-22T09:35:02Z</time>
      </trkpt>
      <trkpt lat="50.35152" lon="3.24342">
        <ele>26</ele>
        <time>2023-01-22T09:35:03Z</time>
      </trkpt>
      <trkpt lat="50.35154" lon="3.24343">
        <ele>26</ele>
        <time>2023-01-22T09:35:04Z</time>
      </trkpt>
      <trkpt lat="50.35156" lon="3.24343">
        <ele>26</ele>
        <time>2023-01-22T09:35:05Z</time>
      </trkpt>
      <trkpt lat="50.35157" lon="3.24344">
        <ele>26</ele>
        <time>2023-01-22T09:35:06Z</time>
      </trkpt>
      <trkpt lat="50.35159" lon="3.24344">
        <ele>26</ele>
        <time>2023-01-22T09:35:07Z</time>
      </trkpt>
      <trkpt lat="50.3516" lon="3.24343">
        <ele>26</ele>
        <time>2023-01-22T09:35:08Z</time>
      </trkpt>
      <trkpt lat="50.35161" lon="3.24343">
        <ele>26</ele>
        <time>2023-01-22T09:35:09Z</time>
      </trkpt>
      <trkpt lat="50.35162" lon="3.24344">
        <ele>20.396122</ele>
        <time>2023-01-22T09:35:10Z</time>
      </trkpt>
      <trkpt lat="50.35163" lon="3.24344">
        <ele>26</ele>
        <time>2023-01-22T09:35:11Z</time>
      </trkpt>
      <trkpt lat="50.35165" lon="3.24344">
        <ele>26</ele>
        <time>2023-01-22T09:35:12Z</time>
      </trkpt>
      <trkpt lat="50.35166" lon="3.24344">
        <ele>26</ele>
        <time>2023-01-22T09:35:13Z</time>
      </trkpt>
      <trkpt lat="50.35167" lon="3.24344">
        <ele>26</ele>
        <time>2023-01-22T09:35:14Z</time>
      </trkpt>
      <trkpt lat="50.35169" lon="3.24344">
        <ele>26</ele>
        <time>2023-01-22T09:35:15Z</time>
      </trkpt>
      <trkpt lat="50.3517" lon="3.24345">
        <ele>26</ele>
        <time>2023-01-22T09:35:16Z</time>
      </trkpt>
      <trkpt lat="50.35171" lon="3.24346">
        <ele>26</ele>
        <time>2023-01-22T09:35:17Z</time>
      </trkpt>
      <trkpt lat="50.35172" lon="3.24346">
        <ele>26</ele>
        <time>2023-01-22T09:35:18Z</time>
      </trkpt>
      <trkpt lat="50.35173" lon="3.24346">
        <ele>26</ele>
        <time>2023-01-22T09:35:19Z</time>
        <extensions>
          <gpxtpx:TrackPointExtension xmlns:gpxtpx="http://www.garmin.com/xmlschemas/TrackPointExtension/v1">
            <gpxtpx:hr>122</gpxtpx:hr>
          </gpxtpx:TrackPointExtension>
        </extensions>
      </trkpt>
      <trkpt lat="50.35175" lon="3.24347">
        <ele>20.479595</ele>
        <time>2023-01-22T09:35:20Z</time>
      </trkpt>
      <trkpt lat="50.35176" lon="3.24348">
        <ele>26</ele>
        <time>2023-01-22T09:35:21Z</time>
      </trkpt>
      <trkpt lat="50.35177" lon="3.24348">
        <ele>26</ele>
        <time>2023-01-22T09:35:22Z</time>
      </trkpt>
      <trkpt lat="50.35178" lon="3.24348">
        <ele>26</ele>
        <time>2023-01-22T09:35:23Z</time>
      </trkpt>
      <trkpt lat="50.3518" lon="3.24348">
        <ele>26</ele>
        <time>2023-01-22T09:35:24Z</time>
      </trkpt>
      <trkpt lat="50.3518" lon="3.24348">
        <ele>26</ele>
        <time>2023-01-22T09:35:25Z</time>
      </trkpt>
      <trkpt lat="50.35181" lon="3.24348">
        <ele>26</ele>
        <time>2023-01-22T09:35:26Z</time>
      </trkpt>
      <trkpt lat="50.35182" lon="3.24348">
        <ele>26</ele>
        <time>2023-01-22T09:35:27Z</time>
      </trkpt>
      <trkpt lat="50.35184" lon="3.24349">
        <ele>26</ele>
        <time>2023-01-22T09:35:28Z</time>
      </trkpt>
      <trkpt lat="50.35185" lon="3.24349">
        <ele>26</ele>
        <time>2023-01-22T09:35:29Z</time>
      </trkpt>
      <trkpt lat="50.35186" lon="3.24349">
        <ele>20.689226</ele>
        <time>2023-01-22T09:35:30Z</time>
      </trkpt>
      <trkpt lat="50.35187" lon="3.24349">
        <ele>26</ele>
        <time>2023-01-22T09:35:31Z</time>
      </trkpt>
      <trkpt lat="50.35188" lon="3.24349">
        <ele>26</ele>
        <time>2023-01-22T09:35:32Z</time>
      </trkpt>
      <trkpt lat="50.35189" lon="3.24349">
        <ele>26</ele>
        <time>2023-01-22T09:35:33Z</time>
      </trkpt>
      <trkpt lat="50.35191" lon="3.2435">
        <ele>26</ele>
        <time>2023-01-22T09:35:34Z</time>
      </trkpt>
      <trkpt lat="50.35192" lon="3.2435">
        <ele>26</ele>
        <time>2023-01-22T09:35:35Z</time>
      </trkpt>
      <trkpt lat="50.35194" lon="3.2435">
        <ele>26</ele>
        <time>2023-01-22T09:35:36Z</time>
      </trkpt>
      <trkpt lat="50.35195" lon="3.2435">
        <ele>26</ele>
        <time>2023-01-22T09:35:37Z</time>
      </trkpt>
      <trkpt lat="50.35197" lon="3.2435">
        <ele>26</ele>
        <time>2023-01-22T09:35:38Z</time>
      </trkpt>
      <trkpt lat="50.35199" lon="3.24351">
        <ele>26</ele>
        <time>2023-01-22T09:35:39Z</time>
        <extensions>
          <gpxtpx:TrackPointExtension xmlns:gpxtpx="http://www.garmin.com/xmlschemas/TrackPointExtension/v1">
            <gpxtpx:hr>123</gpxtpx:hr>
          </gpxtpx:TrackPointExtension>
        </extensions>
      </trkpt>
      <trkpt lat="50.352" lon="3.24351">
        <ele>20.22918</ele>
        <time>2023-01-22T09:35:40Z</time>
      </trkpt>
      <trkpt lat="50.35201" lon="3.24351">
        <ele>26</ele>
        <time>2023-01-22T09:35:41Z</time>
      </trkpt>
      <trkpt lat="50.35202" lon="3.24351">
        <ele>26</ele>
        <time>2023-01-22T09:35:42Z</time>
      </trkpt>
      <trkpt lat="50.35204" lon="3.24352">
        <ele>26</ele>
        <time>2023-01-22T09:35:43Z</time>
      </trkpt>
      <trkpt lat="50.35206" lon="3.24352">
        <ele>26</ele>
        <time>2023-01-22T09:35:44Z</time>
      </trkpt>
      <trkpt lat="50.35207" lon="3.24353">
        <ele>26</ele>
        <time>2023-01-22T09:35:45Z</time>
      </trkpt>
      <trkpt lat="50.35209" lon="3.24353">
        <ele>26</ele>
        <time>2023-01-22T09:35:46Z</time>
      </trkpt>
      <trkpt lat="50.3521" lon="3.24353">
        <ele>26</ele>
        <time>2023-01-22T09:35:47Z</time>
      </trkpt>
      <trkpt lat="50.35212" lon="3.24353">
        <ele>26</ele>
        <time>2023-01-22T09:35:48Z</time>
      </trkpt>
      <trkpt lat="50.35213" lon="3.24353">
        <ele>26</ele>
        <time>2023-01-22T09:35:49Z</time>
      </trkpt>
      <trkpt lat="50.35214" lon="3.24354">
        <ele>20.502361</ele>
        <time>2023-01-22T09:35:50Z</time>
      </trkpt>
      <trkpt lat="50.35215" lon="3.24353">
        <ele>26</ele>
        <time>2023-01-22T09:35:51Z</time>
      </trkpt>
      <trkpt lat="50.35217" lon="3.24354">
        <ele>26</ele>
        <time>2023-01-22T09:35:52Z</time>
      </trkpt>
      <trkpt lat="50.35219" lon="3.24354">
        <ele>26</ele>
        <time>2023-01-22T09:35:53Z</time>
      </trkpt>
      <trkpt lat="50.35221" lon="3.24354">
        <ele>26</ele>
        <time>2023-01-22T09:35:54Z</time>
      </trkpt>
      <trkpt lat="50.35223" lon="3.24354">
        <ele>26</ele>
        <time>2023-01-22T09:35:55Z</time>
      </trkpt>
      <trkpt lat="50.35225" lon="3.24355">
        <ele>26</ele>
        <time>2023-01-22T09:35:56Z</time>
      </trkpt>
      <trkpt lat="50.35226" lon="3.24355">
        <ele>26</ele>
        <time>2023-01-22T09:35:57Z</time>
      </trkpt>
      <trkpt lat="50.35227" lon="3.24355">
        <ele>26</ele>
        <time>2023-01-22T09:35:58Z</time>
      </trkpt>
      <trkpt lat="50.35229" lon="3.24355">
        <ele>26</ele>
        <time>2023-01-22T09:35:59Z</time>
        <extensions>
          <gpxtpx:TrackPointExtension xmlns:gpxtpx="http://www.garmin.com/xmlschemas/TrackPointExtension/v1">
            <gpxtpx:hr>125</gpxtpx:hr>
          </gpxtpx:TrackPointExtension>
        </extensions>
      </trkpt>
      <trkpt lat="50.35231" lon="3.24354">
        <ele>20.501411</ele>
        <time>2023-01-22T09:36:00Z</time>
      </trkpt>
      <trkpt lat="50.35232" lon="3.24354">
        <ele>26</ele>
        <time>2023-01-22T09:36:01Z</time>
      </trkpt>
      <trkpt lat="50.35234" lon="3.24354">
        <ele>26</ele>
        <time>2023-01-22T09:36:02Z</time>
      </trkpt>
      <trkpt lat="50.35235" lon="3.24354">
        <ele>26</ele>
        <time>2023-01-22T09:36:03Z</time>
      </trkpt>
      <trkpt lat="50.35237" lon="3.24355">
        <ele>26</ele>
        <time>2023-01-22T09:36:04Z</time>
      </trkpt>
      <trkpt lat="50.35238" lon="3.24355">
        <ele>26</ele>
        <time>2023-01-22T09:36:05Z</time>
      </trkpt>
      <trkpt lat="50.35239" lon="3.24355">
        <ele>26</ele>
        <time>2023-01-22T09:36:06Z</time>
      </trkpt>
      <trkpt lat="50.3524" lon="3.24355">
        <ele>26</ele>
        <time>2023-01-22T09:36:07Z</time>
      </trkpt>
      <trkpt lat="50.35241" lon="3.24355">
        <ele>26</ele>
        <time>2023-01-22T09:36:08Z</time>
      </trkpt>
      <trkpt lat="50.35243" lon="3.24355">
        <ele>26</ele>
        <time>2023-01-22T09:36:09Z</time>
      </trkpt>
      <trkpt lat="50.35245" lon="3.24354">
        <ele>20.342056</ele>
        <time>2023-01-22T09:36:10Z</time>
      </trkpt>
      <trkpt lat="50.35246" lon="3.24354">
        <ele>26</ele>
        <time>2023-01-22T09:36:11Z</time>
      </trkpt>
      <trkpt lat="50.35247" lon="3.24354">
        <ele>26</ele>
        <time>2023-01-22T09:36:12Z</time>
      </trkpt>
      <trkpt lat="50.35248" lon="3.24354">
        <ele>26</ele>
        <time>2023-01-22T09:36:13Z</time>
      </trkpt>
      <trkpt lat="50.35249" lon="3.24353">
        <ele>26</ele>
        <time>2023-01-22T09:36:14Z</time>
      </trkpt>
      <trkpt lat="50.3525" lon="3.24353">
        <ele>26</ele>
        <time>2023-01-22T09:36:15Z</time>
      </trkpt>
      <trkpt lat="50.35251" lon="3.24353">
        <ele>26</ele>
        <time>2023-01-22T09:36:16Z</time>
      </trkpt>
      <trkpt lat="50.35253" lon="3.24352">
        <ele>26.1</ele>
        <time>2023-01-22T09:36:17Z</time>
      </trkpt>
      <trkpt lat="50.35254" lon="3.24352">
        <ele>26.1</ele>
        <time>2023-01-22T09:36:18Z</time>
      </trkpt>
      <trkpt lat="50.35255" lon="3.24352">
        <ele>26.1</ele>
        <time>2023-01-22T09:36:19Z</time>
        <extensions>
          <gpxtpx:TrackPointExtension xmlns:gpxtpx="http://www.garmin.com/xmlschemas/TrackPointExtension/v1">
            <gpxtpx:hr>128</gpxtpx:hr>
          </gpxtpx:TrackPointExtension>
        </extensions>
      </trkpt>
      <trkpt lat="50.35255" lon="3.24351">
        <ele>20.194082</ele>
        <time>2023-01-22T09:36:20Z</time>
      </trkpt>
      <trkpt lat="50.35256" lon="3.24351">
        <ele>26.1</ele>
        <time>2023-01-22T09:36:21Z</time>
      </trkpt>
      <trkpt lat="50.35257" lon="3.24352">
        <ele>26.2</ele>
        <time>2023-01-22T09:36:22Z</time>
      </trkpt>
      <trkpt lat="50.35259" lon="3.24352">
        <ele>26.2</ele>
        <time>2023-01-22T09:36:23Z</time>
      </trkpt>
      <trkpt lat="50.3526" lon="3.24354">
        <ele>26.3</ele>
        <time>2023-01-22T09:36:24Z</time>
      </trkpt>
      <trkpt lat="50.35261" lon="3.24355">
        <ele>26.3</ele>
        <time>2023-01-22T09:36:25Z</time>
      </trkpt>
      <trkpt lat="50.35262" lon="3.24355">
        <ele>26.3</ele>
        <time>2023-01-22T09:36:26Z</time>
      </trkpt>
      <trkpt lat="50.35263" lon="3.24355">
        <ele>26.4</ele>
        <time>2023-01-22T09:36:27Z</time>
      </trkpt>
      <trkpt lat="50.35264" lon="3.24355">
        <ele>26.4</ele>
        <time>2023-01-22T09:36:28Z</time>
      </trkpt>
      <trkpt lat="50.35265" lon="3.24356">
        <ele>26.4</ele>
        <time>2023-01-22T09:36:29Z</time>
      </trkpt>
      <trkpt lat="50.35267" lon="3.24356">
        <ele>20.386637</ele>
        <time>2023-01-22T09:36:30Z</time>
      </trkpt>
      <trkpt lat="50.35268" lon="3.24356">
        <ele>26.5</ele>
        <time>2023-01-22T09:36:31Z</time>
      </trkpt>
      <trkpt lat="50.3527" lon="3.24357">
        <ele>26.6</ele>
        <time>2023-01-22T09:36:32Z</time>
      </trkpt>
      <trkpt lat="50.35271" lon="3.24357">
        <ele>26.6</ele>
        <time>2023-01-22T09:36:33Z</time>
      </trkpt>
      <trkpt lat="50.35272" lon="3.24357">
        <ele>26.7</ele>
        <time>2023-01-22T09:36:34Z</time>
      </trkpt>
      <trkpt lat="50.35274" lon="3.24357">
        <ele>26.7</ele>
        <time>2023-01-22T09:36:35Z</time>
      </trkpt>
      <trkpt lat="50.35275" lon="3.24357">
        <ele>26.8</ele>
        <time>2023-01-22T09:36:36Z</time>
      </trkpt>
      <trkpt lat="50.35276" lon="3.24357">
        <ele>26.8</ele>
        <time>2023-01-22T09:36:37Z</time>
      </trkpt>
      <trkpt lat="50.35278" lon="3.24357">
        <ele>26.9</ele>
        <time>2023-01-22T09:36:38Z</time>
      </trkpt>
      <trkpt lat="50.35279" lon="3.24358">
        <ele>26.9</ele>
        <time>2023-01-22T09:36:39Z</time>
        <extensions>
          <gpxtpx:TrackPointExtension xmlns:gpxtpx="http://www.garmin.com/xmlschemas/TrackPointExtension/v1">
            <gpxtpx:hr>127</gpxtpx:hr>
          </gpxtpx:TrackPointExtension>
        </extensions>
      </trkpt>
      <trkpt lat="50.3528" lon="3.24358">
        <ele>20.510899</ele>
        <time>2023-01-22T09:36:40Z</time>
      </trkpt>
      <trkpt lat="50.35281" lon="3.24358">
        <ele>26.9</ele>
        <time>2023-01-22T09:36:41Z</time>
      </trkpt>
      <trkpt lat="50.35282" lon="3.24358">
        <ele>26.9</ele>
        <time>2023-01-22T09:36:42Z</time>
      </trkpt>
      <trkpt lat="50.35283" lon="3.24358">
        <ele>26.9</ele>
        <time>2023-01-22T09:36:43Z</time>
      </trkpt>
      <trkpt lat="50.35284" lon="3.24358">
        <ele>26.9</ele>
        <time>2023-01-22T09:36:44Z</time>
      </trkpt>
      <trkpt lat="50.35285" lon="3.24358">
        <ele>26.9</ele>
        <time>2023-01-22T09:36:45Z</time>
      </trkpt>
      <trkpt lat="50.35286" lon="3.24359">
        <ele>26.9</ele>
        <time>2023-01-22T09:36:46Z</time>
      </trkpt>
      <trkpt lat="50.35288" lon="3.24359">
        <ele>26.9</ele>
        <time>2023-01-22T09:36:47Z</time>
      </trkpt>
      <trkpt lat="50.35289" lon="3.2436">
        <ele>26.9</ele>
        <time>2023-01-22T09:36:48Z</time>
      </trkpt>
      <trkpt lat="50.3529" lon="3.24359">
        <ele>26.9</ele>
        <time>2023-01-22T09:36:49Z</time>
      </trkpt>
      <trkpt lat="50.35291" lon="3.2436">
        <ele>20.735706</ele>
        <time>2023-01-22T09:36:50Z</time>
      </trkpt>
      <trkpt lat="50.35292" lon="3.2436">
        <ele>27</ele>
        <time>2023-01-22T09:36:51Z</time>
      </trkpt>
      <trkpt lat="50.35294" lon="3.2436">
        <ele>26.9</ele>
        <time>2023-01-22T09:36:52Z</time>
      </trkpt>
      <trkpt lat="50.35295" lon="3.2436">
        <ele>26.9</ele>
        <time>2023-01-22T09:36:53Z</time>
      </trkpt>
      <trkpt lat="50.35297" lon="3.2436">
        <ele>26.9</ele>
        <time>2023-01-22T09:36:54Z</time>
      </trkpt>
      <trkpt lat="50.35299" lon="3.2436">
        <ele>26.9</ele>
        <time>2023-01-22T09:36:55Z</time>
      </trkpt>
      <trkpt lat="50.353" lon="3.2436">
        <ele>26.9</ele>
        <time>2023-01-22T09:36:56Z</time>
      </trkpt>
      <trkpt lat="50.35301" lon="3.2436">
        <ele>26.9</ele>
        <time>2023-01-22T09:36:57Z</time>
      </trkpt>
      <trkpt lat="50.35302" lon="3.2436">
        <ele>26.9</ele>
        <time>2023-01-22T09:36:58Z</time>
      </trkpt>
      <trkpt lat="50.35304" lon="3.2436">
        <ele>26.9</ele>
        <time>2023-01-22T09:36:59Z</time>
        <extensions>
          <gpxtpx:TrackPointExtension xmlns:gpxtpx="http://www.garmin.com/xmlschemas/TrackPointExtension/v1">
            <gpxtpx:hr>128</gpxtpx:hr>
          </gpxtpx:TrackPointExtension>
        </extensions>
      </trkpt>
      <trkpt lat="50.35305" lon="3.24359">
        <ele>20.90645</ele>
        <time>2023-01-22T09:37:00Z</time>
      </trkpt>
      <trkpt lat="50.35307" lon="3.24359">
        <ele>27</ele>
        <time>2023-01-22T09:37:01Z</time>
      </trkpt>
      <trkpt lat="50.35308" lon="3.2436">
        <ele>27</ele>
        <time>2023-01-22T09:37:02Z</time>
      </trkpt>
      <trkpt lat="50.35309" lon="3.2436">
        <ele>27.1</ele>
        <time>2023-01-22T09:37:03Z</time>
      </trkpt>
      <trkpt lat="50.3531" lon="3.2436">
        <ele>27.1</ele>
        <time>2023-01-22T09:37:04Z</time>
      </trkpt>
      <trkpt lat="50.35312" lon="3.2436">
        <ele>27.2</ele>
        <time>2023-01-22T09:37:05Z</time>
      </trkpt>
      <trkpt lat="50.35313" lon="3.2436">
        <ele>27.2</ele>
        <time>2023-01-22T09:37:06Z</time>
      </trkpt>
      <trkpt lat="50.35315" lon="3.2436">
        <ele>27.3</ele>
        <time>2023-01-22T09:37:07Z</time>
      </trkpt>
      <trkpt lat="50.35316" lon="3.2436">
        <ele>27.3</ele>
        <time>2023-01-22T09:37:08Z</time>
      </trkpt>
      <trkpt lat="50.35318" lon="3.2436">
        <ele>27.4</ele>
        <time>2023-01-22T09:37:09Z</time>
      </trkpt>
      <trkpt lat="50.35319" lon="3.24361">
        <ele>21.101856</ele>
        <time>2023-01-22T09:37:10Z</time>
      </trkpt>
      <trkpt lat="50.3532" lon="3.24361">
        <ele>27.5</ele>
        <time>2023-01-22T09:37:11Z</time>
      </trkpt>
      <trkpt lat="50.35321" lon="3.24361">
        <ele>27.6</ele>
        <time>2023-01-22T09:37:12Z</time>
      </trkpt>
      <trkpt lat="50.35323" lon="3.24361">
        <ele>27.6</ele>
        <time>2023-01-22T09:37:13Z</time>
      </trkpt>
      <trkpt lat="50.35324" lon="3.24361">
        <ele>27.7</ele>
        <time>2023-01-22T09:37:14Z</time>
      </trkpt>
      <trkpt lat="50.35326" lon="3.24361">
        <ele>27.7</ele>
        <time>2023-01-22T09:37:15Z</time>
      </trkpt>
      <trkpt lat="50.35327" lon="3.24361">
        <ele>27.8</ele>
        <time>2023-01-22T09:37:16Z</time>
      </trkpt>
      <trkpt lat="50.35328" lon="3.24361">
        <ele>27.8</ele>
        <time>2023-01-22T09:37:17Z</time>
      </trkpt>
      <trkpt lat="50.35329" lon="3.24362">
        <ele>27.8</ele>
        <time>2023-01-22T09:37:18Z</time>
      </trkpt>
      <trkpt lat="50.3533" lon="3.24362">
        <ele>27.9</ele>
        <time>2023-01-22T09:37:19Z</time>
        <extensions>
          <gpxtpx:TrackPointExtension xmlns:gpxtpx="http://www.garmin.com/xmlschemas/TrackPointExtension/v1">
            <gpxtpx:hr>127</gpxtpx:hr>
          </gpxtpx:TrackPointExtension>
        </extensions>
      </trkpt>
      <trkpt lat="50.35331" lon="3.24362">
        <ele>21.285883</ele>
        <time>2023-01-22T09:37:20Z</time>
      </trkpt>
      <trkpt lat="50.35333" lon="3.24363">
        <ele>27.9</ele>
        <time>2023-01-22T09:37:21Z</time>
      </trkpt>
      <trkpt lat="50.35334" lon="3.24363">
        <ele>27.9</ele>
        <time>2023-01-22T09:37:22Z</time>
      </trkpt>
      <trkpt lat="50.35336" lon="3.24364">
        <ele>27.9</ele>
        <time>2023-01-22T09:37:23Z</time>
      </trkpt>
      <trkpt lat="50.35337" lon="3.24364">
        <ele>27.9</ele>
        <time>2023-01-22T09:37:24Z</time>
      </trkpt>
      <trkpt lat="50.35338" lon="3.24364">
        <ele>27.9</ele>
        <time>2023-01-22T09:37:25Z</time>
      </trkpt>
      <trkpt lat="50.35339" lon="3.24364">
        <ele>27.9</ele>
        <time>2023-01-22T09:37:26Z</time>
      </trkpt>
      <trkpt lat="50.35339" lon="3.24364">
        <ele>27.9</ele>
        <time>2023-01-22T09:37:27Z</time>
      </trkpt>
      <trkpt lat="50.3534" lon="3.24364">
        <ele>27.9</ele>
        <time>2023-01-22T09:37:28Z</time>
      </trkpt>
      <trkpt lat="50.35341" lon="3.24364">
        <ele>27.9</ele>
        <time>2023-01-22T09:37:29Z</time>
      </trkpt>
      <trkpt lat="50.35342" lon="3.24364">
        <ele>21.613148</ele>
        <time>2023-01-22T09:37:30Z</time>
      </trkpt>
      <trkpt lat="50.35343" lon="3.24364">
        <ele>27.9</ele>
        <time>2023-01-22T09:37:31Z</time>
      </trkpt>
      <trkpt lat="50.35345" lon="3.24364">
        <ele>27.9</ele>
        <time>2023-01-22T09:37:32Z</time>
      </trkpt>
      <trkpt lat="50.35346" lon="3.24364">
        <ele>27.9</ele>
        <time>2023-01-22T09:37:33Z</time>
      </trkpt>
      <trkpt lat="50.35347" lon="3.24364">
        <ele>27.9</ele>
        <time>2023-01-22T09:37:34Z</time>
      </trkpt>
      <trkpt lat="50.35348" lon="3.24364">
        <ele>27.9</ele>
        <time>2023-01-22T09:37:35Z</time>
      </trkpt>
      <trkpt lat="50.35349" lon="3.24364">
        <ele>27.9</ele>
        <time>2023-01-22T09:37:36Z</time>
      </trkpt>
      <trkpt lat="50.3535" lon="3.24365">
        <ele>27.9</ele>
        <time>2023-01-22T09:37:37Z</time>
      </trkpt>
      <trkpt lat="50.35352" lon="3.24366">
        <ele>27.9</ele>
        <time>2023-01-22T09:37:38Z</time>
        <extensions>
          <gpxtpx:TrackPointExtension xmlns:gpxtpx="http://www.garmin.com/xmlschemas/TrackPointExtension/v1">
            <gpxtpx:hr>136</gpxtpx:hr>
          </gpxtpx:TrackPointExtension>
        </extensions>
      </trkpt>
      <trkpt lat="50.35353" lon="3.24366">
        <ele>27.9</ele>
        <time>2023-01-22T09:37:39Z</time>
      </trkpt>
      <trkpt lat="50.35355" lon="3.24367">
        <ele>21.91196</ele>
        <time>2023-01-22T09:37:40Z</time>
      </trkpt>
      <trkpt lat="50.35356" lon="3.24367">
        <ele>28</ele>
        <time>2023-01-22T09:37:41Z</time>
      </trkpt>
      <trkpt lat="50.35357" lon="3.24368">
        <ele>28</ele>
        <time>2023-01-22T09:37:42Z</time>
      </trkpt>
      <trkpt lat="50.35358" lon="3.24368">
        <ele>28</ele>
        <time>2023-01-22T09:37:43Z</time>
      </trkpt>
      <trkpt lat="50.3536" lon="3.24369">
        <ele>28</ele>
        <time>2023-01-22T09:37:44Z</time>
      </trkpt>
      <trkpt lat="50.35361" lon="3.2437">
        <ele>28</ele>
        <time>2023-01-22T09:37:45Z</time>
      </trkpt>
      <trkpt lat="50.35363" lon="3.2437">
        <ele>28</ele>
        <time>2023-01-22T09:37:46Z</time>
      </trkpt>
      <trkpt lat="50.35365" lon="3.2437">
        <ele>28</ele>
        <time>2023-01-22T09:37:47Z</time>
      </trkpt>
      <trkpt lat="50.35366" lon="3.24371">
        <ele>28.1</ele>
        <time>2023-01-22T09:37:48Z</time>
      </trkpt>
      <trkpt lat="50.35368" lon="3.24373">
        <ele>28.1</ele>
        <time>2023-01-22T09:37:49Z</time>
      </trkpt>
      <trkpt lat="50.35369" lon="3.24373">
        <ele>21.962238</ele>
        <time>2023-01-22T09:37:50Z</time>
      </trkpt>
      <trkpt lat="50.3537" lon="3.24374">
        <ele>28.2</ele>
        <time>2023-01-22T09:37:51Z</time>
      </trkpt>
      <trkpt lat="50.35371" lon="3.24375">
        <ele>28.2</ele>
        <time>2023-01-22T09:37:52Z</time>
      </trkpt>
      <trkpt lat="50.35372" lon="3.24376">
        <ele>28.2</ele>
        <time>2023-01-22T09:37:53Z</time>
      </trkpt>
      <trkpt lat="50.35372" lon="3.24377">
        <ele>28.2</ele>
        <time>2023-01-22T09:37:54Z</time>
      </trkpt>
      <trkpt lat="50.35373" lon="3.24378">
        <ele>28.3</ele>
        <time>2023-01-22T09:37:55Z</time>
      </trkpt>
      <trkpt lat="50.35374" lon="3.24378">
        <ele>28.3</ele>
        <time>2023-01-22T09:37:56Z</time>
      </trkpt>
      <trkpt lat="50.35374" lon="3.24379">
        <ele>28.3</ele>
        <time>2023-01-22T09:37:57Z</time>
      </trkpt>
      <trkpt lat="50.35375" lon="3.2438">
        <ele>28.3</ele>
        <time>2023-01-22T09:37:58Z</time>
        <extensions>
          <gpxtpx:TrackPointExtension xmlns:gpxtpx="http://www.garmin.com/xmlschemas/TrackPointExtension/v1">
            <gpxtpx:hr>135</gpxtpx:hr>
          </gpxtpx:TrackPointExtension>
        </extensions>
      </trkpt>
      <trkpt lat="50.35375" lon="3.24382">
        <ele>28.4</ele>
        <time>2023-01-22T09:37:59Z</time>
      </trkpt>
      <trkpt lat="50.35376" lon="3.24383">
        <ele>22.065638</ele>
        <time>2023-01-22T09:38:00Z</time>
      </trkpt>
      <trkpt lat="50.35375" lon="3.24384">
        <ele>28.4</ele>
        <time>2023-01-22T09:38:01Z</time>
      </trkpt>
      <trkpt lat="50.35376" lon="3.24385">
        <ele>28.5</ele>
        <time>2023-01-22T09:38:02Z</time>
      </trkpt>
      <trkpt lat="50.35375" lon="3.24386">
        <ele>28.4</ele>
        <time>2023-01-22T09:38:03Z</time>
      </trkpt>
      <trkpt lat="50.35376" lon="3.24385">
        <ele>28.4</ele>
        <time>2023-01-22T09:38:04Z</time>
      </trkpt>
      <trkpt lat="50.35376" lon="3.24385">
        <ele>28.5</ele>
        <time>2023-01-22T09:38:05Z</time>
      </trkpt>
      <trkpt lat="50.35376" lon="3.24385">
        <ele>28.5</ele>
        <time>2023-01-22T09:38:06Z</time>
      </trkpt>
      <trkpt lat="50.35376" lon="3.24385">
        <ele>28.5</ele>
        <time>2023-01-22T09:38:07Z</time>
      </trkpt>
      <trkpt lat="50.35376" lon="3.24386">
        <ele>28.5</ele>
        <time>2023-01-22T09:38:08Z</time>
      </trkpt>
      <trkpt lat="50.35376" lon="3.24386">
        <ele>28.5</ele>
        <time>2023-01-22T09:38:09Z</time>
      </trkpt>
      <trkpt lat="50.35376" lon="3.24386">
        <ele>22.636719</ele>
        <time>2023-01-22T09:38:10Z</time>
      </trkpt>
      <trkpt lat="50.35376" lon="3.24385">
        <ele>28.5</ele>
        <time>2023-01-22T09:38:11Z</time>
      </trkpt>
      <trkpt lat="50.35376" lon="3.24385">
        <ele>28.5</ele>
        <time>2023-01-22T09:38:12Z</time>
      </trkpt>
      <trkpt lat="50.35376" lon="3.24386">
        <ele>28.5</ele>
        <time>2023-01-22T09:38:13Z</time>
      </trkpt>
      <trkpt lat="50.35376" lon="3.24386">
        <ele>28.5</ele>
        <time>2023-01-22T09:38:14Z</time>
      </trkpt>
      <trkpt lat="50.35376" lon="3.24385">
        <ele>28.5</ele>
        <time>2023-01-22T09:38:15Z</time>
      </trkpt>
      <trkpt lat="50.35376" lon="3.24385">
        <ele>28.5</ele>
        <time>2023-01-22T09:38:16Z</time>
      </trkpt>
      <trkpt lat="50.35376" lon="3.24385">
        <ele>28.5</ele>
        <time>2023-01-22T09:38:17Z</time>
      </trkpt>
      <trkpt lat="50.35376" lon="3.24385">
        <ele>28.5</ele>
        <time>2023-01-22T09:38:18Z</time>
      </trkpt>
      <trkpt lat="50.35376" lon="3.24385">
        <ele>28.5</ele>
        <time>2023-01-22T09:38:19Z</time>
        <extensions>
          <gpxtpx:TrackPointExtension xmlns:gpxtpx="http://www.garmin.com/xmlschemas/TrackPointExtension/v1">
            <gpxtpx:hr>133</gpxtpx:hr>
          </gpxtpx:TrackPointExtension>
        </extensions>
      </trkpt>
      <trkpt lat="50.35376" lon="3.24385">
        <ele>22.609207</ele>
        <time>2023-01-22T09:38:20Z</time>
      </trkpt>
      <trkpt lat="50.35375" lon="3.24385">
        <ele>28.4</ele>
        <time>2023-01-22T09:38:21Z</time>
      </trkpt>
      <trkpt lat="50.35375" lon="3.24385">
        <ele>28.4</ele>
        <time>2023-01-22T09:38:22Z</time>
      </trkpt>
      <trkpt lat="50.35375" lon="3.24385">
        <ele>28.4</ele>
        <time>2023-01-22T09:38:23Z</time>
      </trkpt>
      <trkpt lat="50.35375" lon="3.24385">
        <ele>28.4</ele>
        <time>2023-01-22T09:38:24Z</time>
      </trkpt>
      <trkpt lat="50.35375" lon="3.24385">
        <ele>28.4</ele>
        <time>2023-01-22T09:38:25Z</time>
      </trkpt>
      <trkpt lat="50.35375" lon="3.24385">
        <ele>28.4</ele>
        <time>2023-01-22T09:38:26Z</time>
      </trkpt>
      <trkpt lat="50.35375" lon="3.24385">
        <ele>28.4</ele>
        <time>2023-01-22T09:38:27Z</time>
      </trkpt>
      <trkpt lat="50.35375" lon="3.24386">
        <ele>28.4</ele>
        <time>2023-01-22T09:38:28Z</time>
      </trkpt>
      <trkpt lat="50.35375" lon="3.24386">
        <ele>28.4</ele>
        <time>2023-01-22T09:38:29Z</time>
      </trkpt>
      <trkpt lat="50.35375" lon="3.24386">
        <ele>22.503908</ele>
        <time>2023-01-22T09:38:30Z</time>
      </trkpt>
      <trkpt lat="50.35375" lon="3.24386">
        <ele>28.4</ele>
        <time>2023-01-22T09:38:31Z</time>
      </trkpt>
      <trkpt lat="50.35375" lon="3.24386">
        <ele>28.4</ele>
        <time>2023-01-22T09:38:32Z</time>
      </trkpt>
      <trkpt lat="50.35375" lon="3.24386">
        <ele>28.4</ele>
        <time>2023-01-22T09:38:33Z</time>
      </trkpt>
      <trkpt lat="50.35375" lon="3.24386">
        <ele>28.4</ele>
        <time>2023-01-22T09:38:34Z</time>
      </trkpt>
      <trkpt lat="50.35375" lon="3.24386">
        <ele>28.4</ele>
        <time>2023-01-22T09:38:35Z</time>
      </trkpt>
      <trkpt lat="50.35375" lon="3.24386">
        <ele>28.4</ele>
        <time>2023-01-22T09:38:36Z</time>
      </trkpt>
      <trkpt lat="50.35375" lon="3.24386">
        <ele>28.5</ele>
        <time>2023-01-22T09:38:37Z</time>
      </trkpt>
      <trkpt lat="50.35375" lon="3.24386">
        <ele>28.5</ele>
        <time>2023-01-22T09:38:38Z</time>
      </trkpt>
      <trkpt lat="50.35375" lon="3.24386">
        <ele>28.4</ele>
        <time>2023-01-22T09:38:39Z</time>
        <extensions>
          <gpxtpx:TrackPointExtension xmlns:gpxtpx="http://www.garmin.com/xmlschemas/TrackPointExtension/v1">
            <gpxtpx:hr>123</gpxtpx:hr>
          </gpxtpx:TrackPointExtension>
        </extensions>
      </trkpt>
      <trkpt lat="50.35375" lon="3.24386">
        <ele>22.544699</ele>
        <time>2023-01-22T09:38:40Z</time>
      </trkpt>
      <trkpt lat="50.35375" lon="3.24386">
        <ele>28.4</ele>
        <time>2023-01-22T09:38:41Z</time>
      </trkpt>
      <trkpt lat="50.35375" lon="3.24385">
        <ele>28.4</ele>
        <time>2023-01-22T09:38:42Z</time>
      </trkpt>
      <trkpt lat="50.35375" lon="3.24385">
        <ele>28.4</ele>
        <time>2023-01-22T09:38:43Z</time>
      </trkpt>
      <trkpt lat="50.35374" lon="3.24385">
        <ele>28.4</ele>
        <time>2023-01-22T09:38:44Z</time>
      </trkpt>
      <trkpt lat="50.35374" lon="3.24385">
        <ele>28.4</ele>
        <time>2023-01-22T09:38:45Z</time>
      </trkpt>
      <trkpt lat="50.35374" lon="3.24385">
        <ele>28.4</ele>
        <time>2023-01-22T09:38:46Z</time>
      </trkpt>
      <trkpt lat="50.35374" lon="3.24385">
        <ele>28.4</ele>
        <time>2023-01-22T09:38:47Z</time>
      </trkpt>
      <trkpt lat="50.35374" lon="3.24385">
        <ele>28.4</ele>
        <time>2023-01-22T09:38:48Z</time>
      </trkpt>
      <trkpt lat="50.35374" lon="3.24385">
        <ele>28.4</ele>
        <time>2023-01-22T09:38:49Z</time>
      </trkpt>
      <trkpt lat="50.35374" lon="3.24385">
        <ele>22.389122</ele>
        <time>2023-01-22T09:38:50Z</time>
      </trkpt>
      <trkpt lat="50.35374" lon="3.24385">
        <ele>28.4</ele>
        <time>2023-01-22T09:38:51Z</time>
      </trkpt>
      <trkpt lat="50.35374" lon="3.24385">
        <ele>28.4</ele>
        <time>2023-01-22T09:38:52Z</time>
      </trkpt>
      <trkpt lat="50.35374" lon="3.24385">
        <ele>28.4</ele>
        <time>2023-01-22T09:38:53Z</time>
      </trkpt>
      <trkpt lat="50.35374" lon="3.24385">
        <ele>28.4</ele>
        <time>2023-01-22T09:38:54Z</time>
      </trkpt>
      <trkpt lat="50.35374" lon="3.24386">
        <ele>28.4</ele>
        <time>2023-01-22T09:38:55Z</time>
      </trkpt>
      <trkpt lat="50.35374" lon="3.24386">
        <ele>28.4</ele>
        <time>2023-01-22T09:38:56Z</time>
      </trkpt>
      <trkpt lat="50.35374" lon="3.24386">
        <ele>28.4</ele>
        <time>2023-01-22T09:38:57Z</time>
      </trkpt>
      <trkpt lat="50.35374" lon="3.24386">
        <ele>28.4</ele>
        <time>2023-01-22T09:38:58Z</time>
      </trkpt>
      <trkpt lat="50.35374" lon="3.24386">
        <ele>28.4</ele>
        <time>2023-01-22T09:38:59Z</time>
        <extensions>
          <gpxtpx:TrackPointExtension xmlns:gpxtpx="http://www.garmin.com/xmlschemas/TrackPointExtension/v1">
            <gpxtpx:hr>119</gpxtpx:hr>
          </gpxtpx:TrackPointExtension>
        </extensions>
      </trkpt>
      <trkpt lat="50.35374" lon="3.24386">
        <ele>22.518137</ele>
        <time>2023-01-22T09:39:00Z</time>
      </trkpt>
      <trkpt lat="50.35374" lon="3.24387">
        <ele>28.4</ele>
        <time>2023-01-22T09:39:01Z</time>
      </trkpt>
      <trkpt lat="50.35374" lon="3.24387">
        <ele>28.4</ele>
        <time>2023-01-22T09:39:02Z</time>
      </trkpt>
      <trkpt lat="50.35374" lon="3.24387">
        <ele>28.4</ele>
        <time>2023-01-22T09:39:03Z</time>
      </trkpt>
      <trkpt lat="50.35374" lon="3.24386">
        <ele>28.4</ele>
        <time>2023-01-22T09:39:04Z</time>
      </trkpt>
      <trkpt lat="50.35374" lon="3.24387">
        <ele>28.4</ele>
        <time>2023-01-22T09:39:05Z</time>
      </trkpt>
      <trkpt lat="50.35374" lon="3.24387">
        <ele>28.4</ele>
        <time>2023-01-22T09:39:06Z</time>
      </trkpt>
      <trkpt lat="50.35374" lon="3.24387">
        <ele>28.4</ele>
        <time>2023-01-22T09:39:07Z</time>
      </trkpt>
      <trkpt lat="50.35374" lon="3.24387">
        <ele>28.4</ele>
        <time>2023-01-22T09:39:08Z</time>
      </trkpt>
      <trkpt lat="50.35374" lon="3.24387">
        <ele>28.4</ele>
        <time>2023-01-22T09:39:09Z</time>
      </trkpt>
      <trkpt lat="50.35374" lon="3.24387">
        <ele>22.450785</ele>
        <time>2023-01-22T09:39:10Z</time>
      </trkpt>
      <trkpt lat="50.35374" lon="3.24387">
        <ele>28.4</ele>
        <time>2023-01-22T09:39:11Z</time>
      </trkpt>
      <trkpt lat="50.35374" lon="3.24387">
        <ele>28.4</ele>
        <time>2023-01-22T09:39:12Z</time>
      </trkpt>
      <trkpt lat="50.35374" lon="3.24387">
        <ele>28.4</ele>
        <time>2023-01-22T09:39:13Z</time>
      </trkpt>
      <trkpt lat="50.35374" lon="3.24387">
        <ele>28.4</ele>
        <time>2023-01-22T09:39:14Z</time>
      </trkpt>
      <trkpt lat="50.35374" lon="3.24387">
        <ele>28.4</ele>
        <time>2023-01-22T09:39:15Z</time>
      </trkpt>
      <trkpt lat="50.35374" lon="3.24387">
        <ele>28.4</ele>
        <time>2023-01-22T09:39:16Z</time>
      </trkpt>
      <trkpt lat="50.35373" lon="3.24387">
        <ele>28.4</ele>
        <time>2023-01-22T09:39:17Z</time>
      </trkpt>
      <trkpt lat="50.35373" lon="3.24387">
        <ele>28.4</ele>
        <time>2023-01-22T09:39:18Z</time>
      </trkpt>
      <trkpt lat="50.35373" lon="3.24387">
        <ele>28.4</ele>
        <time>2023-01-22T09:39:19Z</time>
        <extensions>
          <gpxtpx:TrackPointExtension xmlns:gpxtpx="http://www.garmin.com/xmlschemas/TrackPointExtension/v1">
            <gpxtpx:hr>115</gpxtpx:hr>
          </gpxtpx:TrackPointExtension>
        </extensions>
      </trkpt>
      <trkpt lat="50.35373" lon="3.24387">
        <ele>22.44035</ele>
        <time>2023-01-22T09:39:20Z</time>
      </trkpt>
      <trkpt lat="50.35373" lon="3.24387">
        <ele>28.4</ele>
        <time>2023-01-22T09:39:21Z</time>
      </trkpt>
      <trkpt lat="50.35373" lon="3.24387">
        <ele>28.4</ele>
        <time>2023-01-22T09:39:22Z</time>
      </trkpt>
      <trkpt lat="50.35373" lon="3.24386">
        <ele>28.4</ele>
        <time>2023-01-22T09:39:23Z</time>
      </trkpt>
      <trkpt lat="50.35374" lon="3.24386">
        <ele>28.4</ele>
        <time>2023-01-22T09:39:24Z</time>
      </trkpt>
      <trkpt lat="50.35373" lon="3.24386">
        <ele>28.4</ele>
        <time>2023-01-22T09:39:25Z</time>
      </trkpt>
      <trkpt lat="50.35373" lon="3.24386">
        <ele>28.4</ele>
        <time>2023-01-22T09:39:26Z</time>
      </trkpt>
      <trkpt lat="50.35373" lon="3.24386">
        <ele>28.4</ele>
        <time>2023-01-22T09:39:27Z</time>
      </trkpt>
      <trkpt lat="50.35373" lon="3.24386">
        <ele>28.4</ele>
        <time>2023-01-22T09:39:28Z</time>
      </trkpt>
      <trkpt lat="50.35373" lon="3.24386">
        <ele>28.4</ele>
        <time>2023-01-22T09:39:29Z</time>
      </trkpt>
      <trkpt lat="50.35373" lon="3.24386">
        <ele>22.304693</ele>
        <time>2023-01-22T09:39:30Z</time>
      </trkpt>
      <trkpt lat="50.35373" lon="3.24386">
        <ele>28.4</ele>
        <time>2023-01-22T09:39:31Z</time>
      </trkpt>
      <trkpt lat="50.35374" lon="3.24385">
        <ele>28.4</ele>
        <time>2023-01-22T09:39:32Z</time>
      </trkpt>
      <trkpt lat="50.35374" lon="3.24386">
        <ele>28.4</ele>
        <time>2023-01-22T09:39:33Z</time>
      </trkpt>
      <trkpt lat="50.35374" lon="3.24386">
        <ele>28.4</ele>
        <time>2023-01-22T09:39:34Z</time>
      </trkpt>
      <trkpt lat="50.35374" lon="3.24386">
        <ele>28.4</ele>
        <time>2023-01-22T09:39:35Z</time>
      </trkpt>
      <trkpt lat="50.35374" lon="3.24386">
        <ele>28.4</ele>
        <time>2023-01-22T09:39:36Z</time>
      </trkpt>
      <trkpt lat="50.35374" lon="3.24385">
        <ele>28.4</ele>
        <time>2023-01-22T09:39:37Z</time>
      </trkpt>
      <trkpt lat="50.35375" lon="3.24385">
        <ele>28.4</ele>
        <time>2023-01-22T09:39:38Z</time>
      </trkpt>
      <trkpt lat="50.35374" lon="3.24385">
        <ele>28.4</ele>
        <time>2023-01-22T09:39:39Z</time>
        <extensions>
          <gpxtpx:TrackPointExtension xmlns:gpxtpx="http://www.garmin.com/xmlschemas/TrackPointExtension/v1">
            <gpxtpx:hr>122</gpxtpx:hr>
          </gpxtpx:TrackPointExtension>
        </extensions>
      </trkpt>
      <trkpt lat="50.35374" lon="3.24385">
        <ele>22.276234</ele>
        <time>2023-01-22T09:39:40Z</time>
      </trkpt>
      <trkpt lat="50.35374" lon="3.24385">
        <ele>28.4</ele>
        <time>2023-01-22T09:39:41Z</time>
      </trkpt>
      <trkpt lat="50.35374" lon="3.24385">
        <ele>28.4</ele>
        <time>2023-01-22T09:39:42Z</time>
      </trkpt>
      <trkpt lat="50.35374" lon="3.24385">
        <ele>28.4</ele>
        <time>2023-01-22T09:39:43Z</time>
      </trkpt>
      <trkpt lat="50.35375" lon="3.24385">
        <ele>28.4</ele>
        <time>2023-01-22T09:39:44Z</time>
      </trkpt>
      <trkpt lat="50.35375" lon="3.24385">
        <ele>28.4</ele>
        <time>2023-01-22T09:39:45Z</time>
      </trkpt>
      <trkpt lat="50.35375" lon="3.24385">
        <ele>28.4</ele>
        <time>2023-01-22T09:39:46Z</time>
      </trkpt>
      <trkpt lat="50.35375" lon="3.24385">
        <ele>28.4</ele>
        <time>2023-01-22T09:39:47Z</time>
      </trkpt>
      <trkpt lat="50.35376" lon="3.24385">
        <ele>28.5</ele>
        <time>2023-01-22T09:39:48Z</time>
      </trkpt>
      <trkpt lat="50.35376" lon="3.24385">
        <ele>28.5</ele>
        <time>2023-01-22T09:39:49Z</time>
      </trkpt>
      <trkpt lat="50.35376" lon="3.24385">
        <ele>22.512445</ele>
        <time>2023-01-22T09:39:50Z</time>
      </trkpt>
      <trkpt lat="50.35376" lon="3.24385">
        <ele>28.5</ele>
        <time>2023-01-22T09:39:51Z</time>
      </trkpt>
      <trkpt lat="50.35376" lon="3.24386">
        <ele>28.5</ele>
        <time>2023-01-22T09:39:52Z</time>
      </trkpt>
      <trkpt lat="50.35377" lon="3.24386">
        <ele>28.5</ele>
        <time>2023-01-22T09:39:53Z</time>
      </trkpt>
      <trkpt lat="50.35377" lon="3.24387">
        <ele>28.5</ele>
        <time>2023-01-22T09:39:54Z</time>
      </trkpt>
      <trkpt lat="50.35378" lon="3.24389">
        <ele>28.6</ele>
        <time>2023-01-22T09:39:55Z</time>
      </trkpt>
      <trkpt lat="50.35378" lon="3.2439">
        <ele>28.6</ele>
        <time>2023-01-22T09:39:56Z</time>
      </trkpt>
      <trkpt lat="50.35378" lon="3.24391">
        <ele>28.5</ele>
        <time>2023-01-22T09:39:57Z</time>
      </trkpt>
      <trkpt lat="50.35379" lon="3.24392">
        <ele>28.5</ele>
        <time>2023-01-22T09:39:58Z</time>
      </trkpt>
      <trkpt lat="50.35379" lon="3.24394">
        <ele>28.5</ele>
        <time>2023-01-22T09:39:59Z</time>
        <extensions>
          <gpxtpx:TrackPointExtension xmlns:gpxtpx="http://www.garmin.com/xmlschemas/TrackPointExtension/v1">
            <gpxtpx:hr>116</gpxtpx:hr>
          </gpxtpx:TrackPointExtension>
        </extensions>
      </trkpt>
      <trkpt lat="50.3538" lon="3.24396">
        <ele>22.361612</ele>
        <time>2023-01-22T09:40:00Z</time>
      </trkpt>
      <trkpt lat="50.35381" lon="3.24397">
        <ele>28.5</ele>
        <time>2023-01-22T09:40:01Z</time>
      </trkpt>
      <trkpt lat="50.35381" lon="3.24399">
        <ele>28.5</ele>
        <time>2023-01-22T09:40:02Z</time>
      </trkpt>
      <trkpt lat="50.35382" lon="3.24401">
        <ele>28.5</ele>
        <time>2023-01-22T09:40:03Z</time>
      </trkpt>
      <trkpt lat="50.35382" lon="3.24402">
        <ele>28.5</ele>
        <time>2023-01-22T09:40:04Z</time>
      </trkpt>
      <trkpt lat="50.35383" lon="3.24404">
        <ele>28.5</ele>
        <time>2023-01-22T09:40:05Z</time>
      </trkpt>
      <trkpt lat="50.35383" lon="3.24406">
        <ele>28.5</ele>
        <time>2023-01-22T09:40:06Z</time>
      </trkpt>
      <trkpt lat="50.35383" lon="3.24408">
        <ele>28.5</ele>
        <time>2023-01-22T09:40:07Z</time>
      </trkpt>
      <trkpt lat="50.35383" lon="3.24409">
        <ele>28.5</ele>
        <time>2023-01-22T09:40:08Z</time>
      </trkpt>
      <trkpt lat="50.35383" lon="3.24411">
        <ele>28.5</ele>
        <time>2023-01-22T09:40:09Z</time>
      </trkpt>
      <trkpt lat="50.35384" lon="3.24413">
        <ele>22.637667</ele>
        <time>2023-01-22T09:40:10Z</time>
      </trkpt>
      <trkpt lat="50.35385" lon="3.24415">
        <ele>28.6</ele>
        <time>2023-01-22T09:40:11Z</time>
      </trkpt>
      <trkpt lat="50.35385" lon="3.24417">
        <ele>28.6</ele>
        <time>2023-01-22T09:40:12Z</time>
      </trkpt>
      <trkpt lat="50.35385" lon="3.24419">
        <ele>28.6</ele>
        <time>2023-01-22T09:40:13Z</time>
      </trkpt>
      <trkpt lat="50.35386" lon="3.24421">
        <ele>28.6</ele>
        <time>2023-01-22T09:40:14Z</time>
      </trkpt>
      <trkpt lat="50.35385" lon="3.24423">
        <ele>28.6</ele>
        <time>2023-01-22T09:40:15Z</time>
      </trkpt>
      <trkpt lat="50.35386" lon="3.24425">
        <ele>28.6</ele>
        <time>2023-01-22T09:40:16Z</time>
      </trkpt>
      <trkpt lat="50.35386" lon="3.24427">
        <ele>28.6</ele>
        <time>2023-01-22T09:40:17Z</time>
      </trkpt>
      <trkpt lat="50.35386" lon="3.24429">
        <ele>28.6</ele>
        <time>2023-01-22T09:40:18Z</time>
      </trkpt>
      <trkpt lat="50.35386" lon="3.24431">
        <ele>28.6</ele>
        <time>2023-01-22T09:40:19Z</time>
        <extensions>
          <gpxtpx:TrackPointExtension xmlns:gpxtpx="http://www.garmin.com/xmlschemas/TrackPointExtension/v1">
            <gpxtpx:hr>135</gpxtpx:hr>
          </gpxtpx:TrackPointExtension>
        </extensions>
      </trkpt>
      <trkpt lat="50.35386" lon="3.24434">
        <ele>22.73443</ele>
        <time>2023-01-22T09:40:20Z</time>
      </trkpt>
      <trkpt lat="50.35386" lon="3.24436">
        <ele>28.6</ele>
        <time>2023-01-22T09:40:21Z</time>
      </trkpt>
      <trkpt lat="50.35386" lon="3.24438">
        <ele>28.6</ele>
        <time>2023-01-22T09:40:22Z</time>
      </trkpt>
      <trkpt lat="50.35386" lon="3.2444">
        <ele>28.7</ele>
        <time>2023-01-22T09:40:23Z</time>
      </trkpt>
      <trkpt lat="50.35387" lon="3.24442">
        <ele>28.8</ele>
        <time>2023-01-22T09:40:24Z</time>
      </trkpt>
      <trkpt lat="50.35386" lon="3.24444">
        <ele>28.7</ele>
        <time>2023-01-22T09:40:25Z</time>
      </trkpt>
      <trkpt lat="50.35386" lon="3.24446">
        <ele>28.7</ele>
        <time>2023-01-22T09:40:26Z</time>
      </trkpt>
      <trkpt lat="50.35386" lon="3.24447">
        <ele>28.7</ele>
        <time>2023-01-22T09:40:27Z</time>
      </trkpt>
      <trkpt lat="50.35386" lon="3.24449">
        <ele>28.7</ele>
        <time>2023-01-22T09:40:28Z</time>
      </trkpt>
      <trkpt lat="50.35387" lon="3.24451">
        <ele>28.8</ele>
        <time>2023-01-22T09:40:29Z</time>
      </trkpt>
      <trkpt lat="50.35387" lon="3.24452">
        <ele>22.864397</ele>
        <time>2023-01-22T09:40:30Z</time>
      </trkpt>
      <trkpt lat="50.35387" lon="3.24455">
        <ele>28.8</ele>
        <time>2023-01-22T09:40:31Z</time>
      </trkpt>
      <trkpt lat="50.35387" lon="3.24457">
        <ele>28.8</ele>
        <time>2023-01-22T09:40:32Z</time>
      </trkpt>
      <trkpt lat="50.35387" lon="3.24458">
        <ele>28.8</ele>
        <time>2023-01-22T09:40:33Z</time>
      </trkpt>
      <trkpt lat="50.35387" lon="3.2446">
        <ele>28.8</ele>
        <time>2023-01-22T09:40:34Z</time>
      </trkpt>
      <trkpt lat="50.35387" lon="3.24462">
        <ele>28.8</ele>
        <time>2023-01-22T09:40:35Z</time>
      </trkpt>
      <trkpt lat="50.35387" lon="3.24465">
        <ele>28.8</ele>
        <time>2023-01-22T09:40:36Z</time>
      </trkpt>
      <trkpt lat="50.35387" lon="3.24467">
        <ele>28.8</ele>
        <time>2023-01-22T09:40:37Z</time>
      </trkpt>
      <trkpt lat="50.35386" lon="3.24469">
        <ele>28.8</ele>
        <time>2023-01-22T09:40:38Z</time>
      </trkpt>
      <trkpt lat="50.35387" lon="3.24473">
        <ele>28.9</ele>
        <time>2023-01-22T09:40:39Z</time>
        <extensions>
          <gpxtpx:TrackPointExtension xmlns:gpxtpx="http://www.garmin.com/xmlschemas/TrackPointExtension/v1">
            <gpxtpx:hr>137</gpxtpx:hr>
          </gpxtpx:TrackPointExtension>
        </extensions>
      </trkpt>
      <trkpt lat="50.35387" lon="3.24476">
        <ele>23.249556</ele>
        <time>2023-01-22T09:40:40Z</time>
      </trkpt>
      <trkpt lat="50.35387" lon="3.24477">
        <ele>29</ele>
        <time>2023-01-22T09:40:41Z</time>
      </trkpt>
      <trkpt lat="50.35387" lon="3.2448">
        <ele>29.2</ele>
        <time>2023-01-22T09:40:42Z</time>
      </trkpt>
      <trkpt lat="50.35388" lon="3.24482">
        <ele>29.3</ele>
        <time>2023-01-22T09:40:43Z</time>
      </trkpt>
      <trkpt lat="50.35388" lon="3.24484">
        <ele>29.3</ele>
        <time>2023-01-22T09:40:44Z</time>
      </trkpt>
      <trkpt lat="50.35387" lon="3.24486">
        <ele>29.4</ele>
        <time>2023-01-22T09:40:45Z</time>
      </trkpt>
      <trkpt lat="50.35387" lon="3.24489">
        <ele>29.4</ele>
        <time>2023-01-22T09:40:46Z</time>
      </trkpt>
      <trkpt lat="50.35387" lon="3.24491">
        <ele>29.5</ele>
        <time>2023-01-22T09:40:47Z</time>
      </trkpt>
      <trkpt lat="50.35387" lon="3.24493">
        <ele>29.6</ele>
        <time>2023-01-22T09:40:48Z</time>
      </trkpt>
      <trkpt lat="50.35387" lon="3.24496">
        <ele>29.7</ele>
        <time>2023-01-22T09:40:49Z</time>
      </trkpt>
      <trkpt lat="50.35387" lon="3.24498">
        <ele>23.306477</ele>
        <time>2023-01-22T09:40:50Z</time>
      </trkpt>
      <trkpt lat="50.35387" lon="3.245">
        <ele>29.8</ele>
        <time>2023-01-22T09:40:51Z</time>
      </trkpt>
      <trkpt lat="50.35387" lon="3.24502">
        <ele>29.8</ele>
        <time>2023-01-22T09:40:52Z</time>
      </trkpt>
      <trkpt lat="50.35386" lon="3.24503">
        <ele>29.8</ele>
        <time>2023-01-22T09:40:53Z</time>
      </trkpt>
      <trkpt lat="50.35386" lon="3.24505">
        <ele>29.8</ele>
        <time>2023-01-22T09:40:54Z</time>
      </trkpt>
      <trkpt lat="50.35386" lon="3.24506">
        <ele>29.8</ele>
        <time>2023-01-22T09:40:55Z</time>
      </trkpt>
      <trkpt lat="50.35386" lon="3.24509">
        <ele>29.9</ele>
        <time>2023-01-22T09:40:56Z</time>
      </trkpt>
      <trkpt lat="50.35386" lon="3.24511">
        <ele>30</ele>
        <time>2023-01-22T09:40:57Z</time>
      </trkpt>
      <trkpt lat="50.35385" lon="3.24513">
        <ele>30</ele>
        <time>2023-01-22T09:40:58Z</time>
      </trkpt>
      <trkpt lat="50.35385" lon="3.24515">
        <ele>30</ele>
        <time>2023-01-22T09:40:59Z</time>
        <extensions>
          <gpxtpx:TrackPointExtension xmlns:gpxtpx="http://www.garmin.com/xmlschemas/TrackPointExtension/v1">
            <gpxtpx:hr>143</gpxtpx:hr>
          </gpxtpx:TrackPointExtension>
        </extensions>
      </trkpt>
      <trkpt lat="50.35385" lon="3.24516">
        <ele>23.53606</ele>
        <time>2023-01-22T09:41:00Z</time>
      </trkpt>
      <trkpt lat="50.35385" lon="3.24517">
        <ele>30.1</ele>
        <time>2023-01-22T09:41:01Z</time>
      </trkpt>
      <trkpt lat="50.35385" lon="3.24519">
        <ele>30.2</ele>
        <time>2023-01-22T09:41:02Z</time>
      </trkpt>
      <trkpt lat="50.35385" lon="3.24522">
        <ele>30.2</ele>
        <time>2023-01-22T09:41:03Z</time>
      </trkpt>
      <trkpt lat="50.35384" lon="3.24524">
        <ele>30.2</ele>
        <time>2023-01-22T09:41:04Z</time>
      </trkpt>
      <trkpt lat="50.35384" lon="3.24527">
        <ele>30.3</ele>
        <time>2023-01-22T09:41:05Z</time>
      </trkpt>
      <trkpt lat="50.35384" lon="3.24528">
        <ele>30.3</ele>
        <time>2023-01-22T09:41:06Z</time>
      </trkpt>
      <trkpt lat="50.35384" lon="3.2453">
        <ele>30.2</ele>
        <time>2023-01-22T09:41:07Z</time>
      </trkpt>
      <trkpt lat="50.35384" lon="3.24532">
        <ele>30.1</ele>
        <time>2023-01-22T09:41:08Z</time>
      </trkpt>
      <trkpt lat="50.35383" lon="3.24534">
        <ele>29.8</ele>
        <time>2023-01-22T09:41:09Z</time>
      </trkpt>
      <trkpt lat="50.35382" lon="3.24536">
        <ele>23.986692</ele>
        <time>2023-01-22T09:41:10Z</time>
      </trkpt>
      <trkpt lat="50.35381" lon="3.24538">
        <ele>29.5</ele>
        <time>2023-01-22T09:41:11Z</time>
      </trkpt>
      <trkpt lat="50.3538" lon="3.24541">
        <ele>29.2</ele>
        <time>2023-01-22T09:41:12Z</time>
      </trkpt>
      <trkpt lat="50.3538" lon="3.24544">
        <ele>29.1</ele>
        <time>2023-01-22T09:41:13Z</time>
      </trkpt>
      <trkpt lat="50.35379" lon="3.24546">
        <ele>29</ele>
        <time>2023-01-22T09:41:14Z</time>
      </trkpt>
      <trkpt lat="50.35379" lon="3.24547">
        <ele>28.9</ele>
        <time>2023-01-22T09:41:15Z</time>
      </trkpt>
      <trkpt lat="50.35378" lon="3.24549">
        <ele>28.8</ele>
        <time>2023-01-22T09:41:16Z</time>
      </trkpt>
      <trkpt lat="50.35378" lon="3.24551">
        <ele>28.7</ele>
        <time>2023-01-22T09:41:17Z</time>
      </trkpt>
      <trkpt lat="50.35377" lon="3.24553">
        <ele>28.6</ele>
        <time>2023-01-22T09:41:18Z</time>
      </trkpt>
      <trkpt lat="50.35376" lon="3.24555">
        <ele>28.6</ele>
        <time>2023-01-22T09:41:19Z</time>
        <extensions>
          <gpxtpx:TrackPointExtension xmlns:gpxtpx="http://www.garmin.com/xmlschemas/TrackPointExtension/v1">
            <gpxtpx:hr>141</gpxtpx:hr>
          </gpxtpx:TrackPointExtension>
        </extensions>
      </trkpt>
      <trkpt lat="50.35377" lon="3.24556">
        <ele>24.35195</ele>
        <time>2023-01-22T09:41:20Z</time>
      </trkpt>
      <trkpt lat="50.35376" lon="3.24558">
        <ele>28.6</ele>
        <time>2023-01-22T09:41:21Z</time>
      </trkpt>
      <trkpt lat="50.35376" lon="3.24559">
        <ele>28.6</ele>
        <time>2023-01-22T09:41:22Z</time>
      </trkpt>
      <trkpt lat="50.35376" lon="3.2456">
        <ele>28.7</ele>
        <time>2023-01-22T09:41:23Z</time>
      </trkpt>
      <trkpt lat="50.35376" lon="3.24562">
        <ele>28.7</ele>
        <time>2023-01-22T09:41:24Z</time>
      </trkpt>
      <trkpt lat="50.35375" lon="3.24564">
        <ele>28.8</ele>
        <time>2023-01-22T09:41:25Z</time>
      </trkpt>
      <trkpt lat="50.35375" lon="3.24566">
        <ele>28.9</ele>
        <time>2023-01-22T09:41:26Z</time>
      </trkpt>
      <trkpt lat="50.35374" lon="3.24568">
        <ele>29</ele>
        <time>2023-01-22T09:41:27Z</time>
      </trkpt>
      <trkpt lat="50.35373" lon="3.2457">
        <ele>29.1</ele>
        <time>2023-01-22T09:41:28Z</time>
      </trkpt>
      <trkpt lat="50.35373" lon="3.24571">
        <ele>29.1</ele>
        <time>2023-01-22T09:41:29Z</time>
      </trkpt>
      <trkpt lat="50.35373" lon="3.24573">
        <ele>24.817781</ele>
        <time>2023-01-22T09:41:30Z</time>
      </trkpt>
      <trkpt lat="50.35372" lon="3.24575">
        <ele>29.4</ele>
        <time>2023-01-22T09:41:31Z</time>
      </trkpt>
      <trkpt lat="50.35371" lon="3.24577">
        <ele>29.6</ele>
        <time>2023-01-22T09:41:32Z</time>
      </trkpt>
      <trkpt lat="50.3537" lon="3.24579">
        <ele>29.8</ele>
        <time>2023-01-22T09:41:33Z</time>
      </trkpt>
      <trkpt lat="50.3537" lon="3.24581">
        <ele>29.9</ele>
        <time>2023-01-22T09:41:34Z</time>
      </trkpt>
      <trkpt lat="50.3537" lon="3.24583">
        <ele>30.1</ele>
        <time>2023-01-22T09:41:35Z</time>
      </trkpt>
      <trkpt lat="50.35369" lon="3.24584">
        <ele>30.2</ele>
        <time>2023-01-22T09:41:36Z</time>
      </trkpt>
      <trkpt lat="50.35368" lon="3.24587">
        <ele>30.4</ele>
        <time>2023-01-22T09:41:37Z</time>
      </trkpt>
      <trkpt lat="50.35367" lon="3.24589">
        <ele>30.7</ele>
        <time>2023-01-22T09:41:38Z</time>
      </trkpt>
      <trkpt lat="50.35366" lon="3.24592">
        <ele>30.9</ele>
        <time>2023-01-22T09:41:39Z</time>
        <extensions>
          <gpxtpx:TrackPointExtension xmlns:gpxtpx="http://www.garmin.com/xmlschemas/TrackPointExtension/v1">
            <gpxtpx:hr>150</gpxtpx:hr>
          </gpxtpx:TrackPointExtension>
        </extensions>
      </trkpt>
      <trkpt lat="50.35366" lon="3.24594">
        <ele>25.214361</ele>
        <time>2023-01-22T09:41:40Z</time>
      </trkpt>
      <trkpt lat="50.35365" lon="3.24596">
        <ele>31.4</ele>
        <time>2023-01-22T09:41:41Z</time>
      </trkpt>
      <trkpt lat="50.35365" lon="3.24598">
        <ele>31.6</ele>
        <time>2023-01-22T09:41:42Z</time>
      </trkpt>
      <trkpt lat="50.35364" lon="3.246">
        <ele>31.7</ele>
        <time>2023-01-22T09:41:43Z</time>
      </trkpt>
      <trkpt lat="50.35364" lon="3.24601">
        <ele>31.9</ele>
        <time>2023-01-22T09:41:44Z</time>
      </trkpt>
      <trkpt lat="50.35363" lon="3.24603">
        <ele>32.1</ele>
        <time>2023-01-22T09:41:45Z</time>
      </trkpt>
      <trkpt lat="50.35363" lon="3.24605">
        <ele>32.3</ele>
        <time>2023-01-22T09:41:46Z</time>
      </trkpt>
      <trkpt lat="50.35362" lon="3.24607">
        <ele>32.5</ele>
        <time>2023-01-22T09:41:47Z</time>
      </trkpt>
      <trkpt lat="50.35362" lon="3.24608">
        <ele>32.6</ele>
        <time>2023-01-22T09:41:48Z</time>
      </trkpt>
      <trkpt lat="50.35361" lon="3.2461">
        <ele>32.9</ele>
        <time>2023-01-22T09:41:49Z</time>
      </trkpt>
      <trkpt lat="50.35361" lon="3.24612">
        <ele>25.708675</ele>
        <time>2023-01-22T09:41:50Z</time>
      </trkpt>
      <trkpt lat="50.3536" lon="3.24614">
        <ele>32.7</ele>
        <time>2023-01-22T09:41:51Z</time>
      </trkpt>
      <trkpt lat="50.3536" lon="3.24615">
        <ele>32.4</ele>
        <time>2023-01-22T09:41:52Z</time>
      </trkpt>
      <trkpt lat="50.35359" lon="3.24617">
        <ele>32.2</ele>
        <time>2023-01-22T09:41:53Z</time>
      </trkpt>
      <trkpt lat="50.35358" lon="3.24619">
        <ele>31.9</ele>
        <time>2023-01-22T09:41:54Z</time>
      </trkpt>
      <trkpt lat="50.35357" lon="3.2462">
        <ele>31.7</ele>
        <time>2023-01-22T09:41:55Z</time>
      </trkpt>
      <trkpt lat="50.35357" lon="3.24622">
        <ele>31.5</ele>
        <time>2023-01-22T09:41:56Z</time>
      </trkpt>
      <trkpt lat="50.35356" lon="3.24624">
        <ele>31.2</ele>
        <time>2023-01-22T09:41:57Z</time>
      </trkpt>
      <trkpt lat="50.35355" lon="3.24625">
        <ele>31.1</ele>
        <time>2023-01-22T09:41:58Z</time>
      </trkpt>
      <trkpt lat="50.35355" lon="3.24627">
        <ele>30.8</ele>
        <time>2023-01-22T09:41:59Z</time>
      </trkpt>
      <trkpt lat="50.35354" lon="3.24629">
        <ele>25.789324</ele>
        <time>2023-01-22T09:42:00Z</time>
      </trkpt>
      <trkpt lat="50.35354" lon="3.24632">
        <ele>30.5</ele>
        <time>2023-01-22T09:42:01Z</time>
      </trkpt>
      <trkpt lat="50.35354" lon="3.24634">
        <ele>30.4</ele>
        <time>2023-01-22T09:42:02Z</time>
      </trkpt>
      <trkpt lat="50.35354" lon="3.24637">
        <ele>30.3</ele>
        <time>2023-01-22T09:42:03Z</time>
      </trkpt>
      <trkpt lat="50.35353" lon="3.24639">
        <ele>30.1</ele>
        <time>2023-01-22T09:42:04Z</time>
      </trkpt>
      <trkpt lat="50.35352" lon="3.24641">
        <ele>30.3</ele>
        <time>2023-01-22T09:42:05Z</time>
      </trkpt>
      <trkpt lat="50.35352" lon="3.24644">
        <ele>30.4</ele>
        <time>2023-01-22T09:42:06Z</time>
      </trkpt>
      <trkpt lat="50.35352" lon="3.24646">
        <ele>30.6</ele>
        <time>2023-01-22T09:42:07Z</time>
      </trkpt>
      <trkpt lat="50.35352" lon="3.24648">
        <ele>30.7</ele>
        <time>2023-01-22T09:42:08Z</time>
      </trkpt>
      <trkpt lat="50.35352" lon="3.2465">
        <ele>30.9</ele>
        <time>2023-01-22T09:42:09Z</time>
      </trkpt>
      <trkpt lat="50.35352" lon="3.24652">
        <ele>26.562603</ele>
        <time>2023-01-22T09:42:10Z</time>
        <extensions>
          <gpxtpx:TrackPointExtension xmlns:gpxtpx="http://www.garmin.com/xmlschemas/TrackPointExtension/v1">
            <gpxtpx:hr>155</gpxtpx:hr>
          </gpxtpx:TrackPointExtension>
        </extensions>
      </trkpt>
      <trkpt lat="50.35353" lon="3.24654">
        <ele>31.3</ele>
        <time>2023-01-22T09:42:11Z</time>
      </trkpt>
      <trkpt lat="50.35354" lon="3.24656">
        <ele>31.5</ele>
        <time>2023-01-22T09:42:12Z</time>
      </trkpt>
      <trkpt lat="50.35354" lon="3.24657">
        <ele>31.7</ele>
        <time>2023-01-22T09:42:13Z</time>
      </trkpt>
      <trkpt lat="50.35355" lon="3.24659">
        <ele>31.9</ele>
        <time>2023-01-22T09:42:14Z</time>
      </trkpt>
      <trkpt lat="50.35355" lon="3.24661">
        <ele>32.1</ele>
        <time>2023-01-22T09:42:15Z</time>
      </trkpt>
      <trkpt lat="50.35356" lon="3.24662">
        <ele>32.3</ele>
        <time>2023-01-22T09:42:16Z</time>
      </trkpt>
      <trkpt lat="50.35357" lon="3.24663">
        <ele>32.4</ele>
        <time>2023-01-22T09:42:17Z</time>
      </trkpt>
      <trkpt lat="50.35358" lon="3.24664">
        <ele>32.5</ele>
        <time>2023-01-22T09:42:18Z</time>
      </trkpt>
      <trkpt lat="50.35358" lon="3.24665">
        <ele>32.6</ele>
        <time>2023-01-22T09:42:19Z</time>
      </trkpt>
      <trkpt lat="50.35359" lon="3.24665">
        <ele>26.673616</ele>
        <time>2023-01-22T09:42:20Z</time>
      </trkpt>
      <trkpt lat="50.3536" lon="3.24665">
        <ele>32.8</ele>
        <time>2023-01-22T09:42:21Z</time>
      </trkpt>
      <trkpt lat="50.35362" lon="3.24663">
        <ele>32.6</ele>
        <time>2023-01-22T09:42:22Z</time>
      </trkpt>
      <trkpt lat="50.35363" lon="3.24663">
        <ele>32.3</ele>
        <time>2023-01-22T09:42:23Z</time>
        <extensions>
          <gpxtpx:TrackPointExtension xmlns:gpxtpx="http://www.garmin.com/xmlschemas/TrackPointExtension/v1">
            <gpxtpx:hr>155</gpxtpx:hr>
          </gpxtpx:TrackPointExtension>
        </extensions>
      </trkpt>
      <trkpt lat="50.35365" lon="3.24663">
        <ele>32.1</ele>
        <time>2023-01-22T09:42:24Z</time>
      </trkpt>
      <trkpt lat="50.35366" lon="3.24663">
        <ele>31.8</ele>
        <time>2023-01-22T09:42:25Z</time>
      </trkpt>
      <trkpt lat="50.35368" lon="3.24664">
        <ele>31.6</ele>
        <time>2023-01-22T09:42:26Z</time>
      </trkpt>
      <trkpt lat="50.35369" lon="3.24664">
        <ele>31.4</ele>
        <time>2023-01-22T09:42:27Z</time>
      </trkpt>
      <trkpt lat="50.3537" lon="3.24665">
        <ele>31.2</ele>
        <time>2023-01-22T09:42:28Z</time>
      </trkpt>
      <trkpt lat="50.35371" lon="3.24665">
        <ele>31.1</ele>
        <time>2023-01-22T09:42:29Z</time>
      </trkpt>
      <trkpt lat="50.35373" lon="3.24664">
        <ele>27.020893</ele>
        <time>2023-01-22T09:42:30Z</time>
      </trkpt>
      <trkpt lat="50.35374" lon="3.24664">
        <ele>30.6</ele>
        <time>2023-01-22T09:42:31Z</time>
      </trkpt>
      <trkpt lat="50.35376" lon="3.24664">
        <ele>30.3</ele>
        <time>2023-01-22T09:42:32Z</time>
      </trkpt>
      <trkpt lat="50.35377" lon="3.24663">
        <ele>30</ele>
        <time>2023-01-22T09:42:33Z</time>
      </trkpt>
      <trkpt lat="50.35378" lon="3.24663">
        <ele>29.9</ele>
        <time>2023-01-22T09:42:34Z</time>
      </trkpt>
      <trkpt lat="50.35379" lon="3.24663">
        <ele>29.6</ele>
        <time>2023-01-22T09:42:35Z</time>
      </trkpt>
      <trkpt lat="50.35381" lon="3.24663">
        <ele>29.4</ele>
        <time>2023-01-22T09:42:36Z</time>
      </trkpt>
      <trkpt lat="50.35382" lon="3.24663">
        <ele>29.2</ele>
        <time>2023-01-22T09:42:37Z</time>
      </trkpt>
      <trkpt lat="50.35384" lon="3.24663">
        <ele>28.8</ele>
        <time>2023-01-22T09:42:38Z</time>
      </trkpt>
      <trkpt lat="50.35386" lon="3.24663">
        <ele>28.6</ele>
        <time>2023-01-22T09:42:39Z</time>
        <extensions>
          <gpxtpx:TrackPointExtension xmlns:gpxtpx="http://www.garmin.com/xmlschemas/TrackPointExtension/v1">
            <gpxtpx:hr>146</gpxtpx:hr>
          </gpxtpx:TrackPointExtension>
        </extensions>
      </trkpt>
      <trkpt lat="50.35387" lon="3.24662">
        <ele>27.194532</ele>
        <time>2023-01-22T09:42:40Z</time>
      </trkpt>
      <trkpt lat="50.35389" lon="3.24662">
        <ele>28</ele>
        <time>2023-01-22T09:42:41Z</time>
      </trkpt>
      <trkpt lat="50.35391" lon="3.24663">
        <ele>28</ele>
        <time>2023-01-22T09:42:42Z</time>
      </trkpt>
      <trkpt lat="50.35393" lon="3.24662">
        <ele>28</ele>
        <time>2023-01-22T09:42:43Z</time>
      </trkpt>
      <trkpt lat="50.35394" lon="3.24662">
        <ele>28</ele>
        <time>2023-01-22T09:42:44Z</time>
      </trkpt>
      <trkpt lat="50.35395" lon="3.24662">
        <ele>28</ele>
        <time>2023-01-22T09:42:45Z</time>
      </trkpt>
      <trkpt lat="50.35397" lon="3.24662">
        <ele>28</ele>
        <time>2023-01-22T09:42:46Z</time>
      </trkpt>
      <trkpt lat="50.35398" lon="3.24662">
        <ele>28</ele>
        <time>2023-01-22T09:42:47Z</time>
      </trkpt>
      <trkpt lat="50.35399" lon="3.24662">
        <ele>28</ele>
        <time>2023-01-22T09:42:48Z</time>
      </trkpt>
      <trkpt lat="50.35401" lon="3.24662">
        <ele>28</ele>
        <time>2023-01-22T09:42:49Z</time>
      </trkpt>
      <trkpt lat="50.35402" lon="3.24662">
        <ele>27.206867</ele>
        <time>2023-01-22T09:42:50Z</time>
      </trkpt>
      <trkpt lat="50.35403" lon="3.24661">
        <ele>28</ele>
        <time>2023-01-22T09:42:51Z</time>
      </trkpt>
      <trkpt lat="50.35405" lon="3.24661">
        <ele>28</ele>
        <time>2023-01-22T09:42:52Z</time>
      </trkpt>
      <trkpt lat="50.35407" lon="3.2466">
        <ele>28</ele>
        <time>2023-01-22T09:42:53Z</time>
      </trkpt>
      <trkpt lat="50.35408" lon="3.24661">
        <ele>28</ele>
        <time>2023-01-22T09:42:54Z</time>
      </trkpt>
      <trkpt lat="50.35409" lon="3.24661">
        <ele>28</ele>
        <time>2023-01-22T09:42:55Z</time>
      </trkpt>
      <trkpt lat="50.35411" lon="3.2466">
        <ele>28</ele>
        <time>2023-01-22T09:42:56Z</time>
      </trkpt>
      <trkpt lat="50.35412" lon="3.2466">
        <ele>28</ele>
        <time>2023-01-22T09:42:57Z</time>
      </trkpt>
      <trkpt lat="50.35413" lon="3.24661">
        <ele>28</ele>
        <time>2023-01-22T09:42:58Z</time>
      </trkpt>
      <trkpt lat="50.35414" lon="3.24662">
        <ele>28</ele>
        <time>2023-01-22T09:42:59Z</time>
        <extensions>
          <gpxtpx:TrackPointExtension xmlns:gpxtpx="http://www.garmin.com/xmlschemas/TrackPointExtension/v1">
            <gpxtpx:hr>128</gpxtpx:hr>
          </gpxtpx:TrackPointExtension>
        </extensions>
      </trkpt>
      <trkpt lat="50.35415" lon="3.24662">
        <ele>27.234385</ele>
        <time>2023-01-22T09:43:00Z</time>
      </trkpt>
      <trkpt lat="50.35416" lon="3.24661">
        <ele>28</ele>
        <time>2023-01-22T09:43:01Z</time>
      </trkpt>
      <trkpt lat="50.35418" lon="3.24661">
        <ele>28</ele>
        <time>2023-01-22T09:43:02Z</time>
      </trkpt>
      <trkpt lat="50.35419" lon="3.24661">
        <ele>28</ele>
        <time>2023-01-22T09:43:03Z</time>
      </trkpt>
      <trkpt lat="50.3542" lon="3.24661">
        <ele>28</ele>
        <time>2023-01-22T09:43:04Z</time>
      </trkpt>
      <trkpt lat="50.35422" lon="3.24661">
        <ele>28</ele>
        <time>2023-01-22T09:43:05Z</time>
      </trkpt>
      <trkpt lat="50.35423" lon="3.2466">
        <ele>28</ele>
        <time>2023-01-22T09:43:06Z</time>
      </trkpt>
      <trkpt lat="50.35424" lon="3.24661">
        <ele>28</ele>
        <time>2023-01-22T09:43:07Z</time>
      </trkpt>
      <trkpt lat="50.35425" lon="3.2466">
        <ele>28</ele>
        <time>2023-01-22T09:43:08Z</time>
      </trkpt>
      <trkpt lat="50.35426" lon="3.2466">
        <ele>28</ele>
        <time>2023-01-22T09:43:09Z</time>
      </trkpt>
      <trkpt lat="50.35428" lon="3.2466">
        <ele>27.359634</ele>
        <time>2023-01-22T09:43:10Z</time>
      </trkpt>
      <trkpt lat="50.35429" lon="3.2466">
        <ele>28</ele>
        <time>2023-01-22T09:43:11Z</time>
      </trkpt>
      <trkpt lat="50.3543" lon="3.24661">
        <ele>28</ele>
        <time>2023-01-22T09:43:12Z</time>
      </trkpt>
      <trkpt lat="50.35431" lon="3.24661">
        <ele>28</ele>
        <time>2023-01-22T09:43:13Z</time>
      </trkpt>
      <trkpt lat="50.35432" lon="3.24662">
        <ele>28</ele>
        <time>2023-01-22T09:43:14Z</time>
      </trkpt>
      <trkpt lat="50.35433" lon="3.24662">
        <ele>28</ele>
        <time>2023-01-22T09:43:15Z</time>
      </trkpt>
      <trkpt lat="50.35434" lon="3.24662">
        <ele>28</ele>
        <time>2023-01-22T09:43:16Z</time>
      </trkpt>
      <trkpt lat="50.35435" lon="3.2466">
        <ele>28</ele>
        <time>2023-01-22T09:43:17Z</time>
      </trkpt>
      <trkpt lat="50.35437" lon="3.2466">
        <ele>28</ele>
        <time>2023-01-22T09:43:18Z</time>
      </trkpt>
      <trkpt lat="50.35438" lon="3.24659">
        <ele>28</ele>
        <time>2023-01-22T09:43:19Z</time>
        <extensions>
          <gpxtpx:TrackPointExtension xmlns:gpxtpx="http://www.garmin.com/xmlschemas/TrackPointExtension/v1">
            <gpxtpx:hr>128</gpxtpx:hr>
          </gpxtpx:TrackPointExtension>
        </extensions>
      </trkpt>
      <trkpt lat="50.35439" lon="3.24659">
        <ele>27.013302</ele>
        <time>2023-01-22T09:43:20Z</time>
      </trkpt>
      <trkpt lat="50.3544" lon="3.24659">
        <ele>28</ele>
        <time>2023-01-22T09:43:21Z</time>
      </trkpt>
      <trkpt lat="50.35441" lon="3.24659">
        <ele>28</ele>
        <time>2023-01-22T09:43:22Z</time>
      </trkpt>
      <trkpt lat="50.35442" lon="3.24659">
        <ele>28</ele>
        <time>2023-01-22T09:43:23Z</time>
      </trkpt>
      <trkpt lat="50.35444" lon="3.24659">
        <ele>28</ele>
        <time>2023-01-22T09:43:24Z</time>
      </trkpt>
      <trkpt lat="50.35445" lon="3.24659">
        <ele>28</ele>
        <time>2023-01-22T09:43:25Z</time>
      </trkpt>
      <trkpt lat="50.35447" lon="3.24659">
        <ele>28</ele>
        <time>2023-01-22T09:43:26Z</time>
      </trkpt>
      <trkpt lat="50.35449" lon="3.24659">
        <ele>28</ele>
        <time>2023-01-22T09:43:27Z</time>
      </trkpt>
      <trkpt lat="50.3545" lon="3.2466">
        <ele>28</ele>
        <time>2023-01-22T09:43:28Z</time>
      </trkpt>
      <trkpt lat="50.35452" lon="3.2466">
        <ele>28</ele>
        <time>2023-01-22T09:43:29Z</time>
      </trkpt>
      <trkpt lat="50.35453" lon="3.2466">
        <ele>27.357737</ele>
        <time>2023-01-22T09:43:30Z</time>
      </trkpt>
      <trkpt lat="50.35455" lon="3.2466">
        <ele>28</ele>
        <time>2023-01-22T09:43:31Z</time>
      </trkpt>
      <trkpt lat="50.35456" lon="3.2466">
        <ele>28</ele>
        <time>2023-01-22T09:43:32Z</time>
      </trkpt>
      <trkpt lat="50.35457" lon="3.24659">
        <ele>28</ele>
        <time>2023-01-22T09:43:33Z</time>
      </trkpt>
      <trkpt lat="50.35458" lon="3.24659">
        <ele>28</ele>
        <time>2023-01-22T09:43:34Z</time>
      </trkpt>
      <trkpt lat="50.3546" lon="3.24659">
        <ele>28</ele>
        <time>2023-01-22T09:43:35Z</time>
      </trkpt>
      <trkpt lat="50.35462" lon="3.24659">
        <ele>28</ele>
        <time>2023-01-22T09:43:36Z</time>
      </trkpt>
      <trkpt lat="50.35464" lon="3.24659">
        <ele>28</ele>
        <time>2023-01-22T09:43:37Z</time>
      </trkpt>
      <trkpt lat="50.35466" lon="3.24659">
        <ele>28</ele>
        <time>2023-01-22T09:43:38Z</time>
      </trkpt>
      <trkpt lat="50.35468" lon="3.24659">
        <ele>28</ele>
        <time>2023-01-22T09:43:39Z</time>
        <extensions>
          <gpxtpx:TrackPointExtension xmlns:gpxtpx="http://www.garmin.com/xmlschemas/TrackPointExtension/v1">
            <gpxtpx:hr>128</gpxtpx:hr>
          </gpxtpx:TrackPointExtension>
        </extensions>
      </trkpt>
      <trkpt lat="50.35469" lon="3.24659">
        <ele>27.189789</ele>
        <time>2023-01-22T09:43:40Z</time>
      </trkpt>
      <trkpt lat="50.35471" lon="3.2466">
        <ele>28</ele>
        <time>2023-01-22T09:43:41Z</time>
      </trkpt>
      <trkpt lat="50.35472" lon="3.2466">
        <ele>28</ele>
        <time>2023-01-22T09:43:42Z</time>
      </trkpt>
      <trkpt lat="50.35473" lon="3.24659">
        <ele>28.1</ele>
        <time>2023-01-22T09:43:43Z</time>
      </trkpt>
      <trkpt lat="50.35474" lon="3.24659">
        <ele>28.1</ele>
        <time>2023-01-22T09:43:44Z</time>
      </trkpt>
      <trkpt lat="50.35476" lon="3.2466">
        <ele>28.2</ele>
        <time>2023-01-22T09:43:45Z</time>
      </trkpt>
      <trkpt lat="50.35477" lon="3.24661">
        <ele>28.3</ele>
        <time>2023-01-22T09:43:46Z</time>
      </trkpt>
      <trkpt lat="50.35478" lon="3.24662">
        <ele>28.4</ele>
        <time>2023-01-22T09:43:47Z</time>
      </trkpt>
      <trkpt lat="50.3548" lon="3.24662">
        <ele>28.4</ele>
        <time>2023-01-22T09:43:48Z</time>
      </trkpt>
      <trkpt lat="50.35481" lon="3.24661">
        <ele>28.5</ele>
        <time>2023-01-22T09:43:49Z</time>
      </trkpt>
      <trkpt lat="50.35482" lon="3.24661">
        <ele>26.915571</ele>
        <time>2023-01-22T09:43:50Z</time>
      </trkpt>
      <trkpt lat="50.35483" lon="3.24661">
        <ele>28.6</ele>
        <time>2023-01-22T09:43:51Z</time>
      </trkpt>
      <trkpt lat="50.35485" lon="3.2466">
        <ele>28.7</ele>
        <time>2023-01-22T09:43:52Z</time>
      </trkpt>
      <trkpt lat="50.35487" lon="3.2466">
        <ele>28.8</ele>
        <time>2023-01-22T09:43:53Z</time>
      </trkpt>
      <trkpt lat="50.35488" lon="3.24659">
        <ele>28.8</ele>
        <time>2023-01-22T09:43:54Z</time>
      </trkpt>
      <trkpt lat="50.3549" lon="3.24659">
        <ele>28.9</ele>
        <time>2023-01-22T09:43:55Z</time>
      </trkpt>
      <trkpt lat="50.35492" lon="3.2466">
        <ele>29</ele>
        <time>2023-01-22T09:43:56Z</time>
      </trkpt>
      <trkpt lat="50.35494" lon="3.2466">
        <ele>29.1</ele>
        <time>2023-01-22T09:43:57Z</time>
      </trkpt>
      <trkpt lat="50.35496" lon="3.2466">
        <ele>29.3</ele>
        <time>2023-01-22T09:43:58Z</time>
      </trkpt>
      <trkpt lat="50.35497" lon="3.2466">
        <ele>29.4</ele>
        <time>2023-01-22T09:43:59Z</time>
        <extensions>
          <gpxtpx:TrackPointExtension xmlns:gpxtpx="http://www.garmin.com/xmlschemas/TrackPointExtension/v1">
            <gpxtpx:hr>122</gpxtpx:hr>
          </gpxtpx:TrackPointExtension>
        </extensions>
      </trkpt>
      <trkpt lat="50.35498" lon="3.2466">
        <ele>26.734343</ele>
        <time>2023-01-22T09:44:00Z</time>
      </trkpt>
      <trkpt lat="50.35499" lon="3.24661">
        <ele>29.5</ele>
        <time>2023-01-22T09:44:01Z</time>
      </trkpt>
      <trkpt lat="50.355" lon="3.24661">
        <ele>29.6</ele>
        <time>2023-01-22T09:44:02Z</time>
      </trkpt>
      <trkpt lat="50.35502" lon="3.2466">
        <ele>29.7</ele>
        <time>2023-01-22T09:44:03Z</time>
      </trkpt>
      <trkpt lat="50.35503" lon="3.2466">
        <ele>29.9</ele>
        <time>2023-01-22T09:44:04Z</time>
      </trkpt>
      <trkpt lat="50.35505" lon="3.2466">
        <ele>30.1</ele>
        <time>2023-01-22T09:44:05Z</time>
      </trkpt>
      <trkpt lat="50.35506" lon="3.24659">
        <ele>30.1</ele>
        <time>2023-01-22T09:44:06Z</time>
      </trkpt>
      <trkpt lat="50.35507" lon="3.24659">
        <ele>30.2</ele>
        <time>2023-01-22T09:44:07Z</time>
      </trkpt>
      <trkpt lat="50.35509" lon="3.24659">
        <ele>30.4</ele>
        <time>2023-01-22T09:44:08Z</time>
      </trkpt>
      <trkpt lat="50.3551" lon="3.24658">
        <ele>30.5</ele>
        <time>2023-01-22T09:44:09Z</time>
      </trkpt>
      <trkpt lat="50.35511" lon="3.24658">
        <ele>26.925058</ele>
        <time>2023-01-22T09:44:10Z</time>
      </trkpt>
      <trkpt lat="50.35512" lon="3.24658">
        <ele>30.6</ele>
        <time>2023-01-22T09:44:11Z</time>
      </trkpt>
      <trkpt lat="50.35514" lon="3.24658">
        <ele>30.8</ele>
        <time>2023-01-22T09:44:12Z</time>
      </trkpt>
      <trkpt lat="50.35515" lon="3.24658">
        <ele>31</ele>
        <time>2023-01-22T09:44:13Z</time>
      </trkpt>
      <trkpt lat="50.35517" lon="3.24658">
        <ele>31.2</ele>
        <time>2023-01-22T09:44:14Z</time>
      </trkpt>
      <trkpt lat="50.35518" lon="3.24657">
        <ele>31.3</ele>
        <time>2023-01-22T09:44:15Z</time>
      </trkpt>
      <trkpt lat="50.35519" lon="3.24657">
        <ele>31.3</ele>
        <time>2023-01-22T09:44:16Z</time>
      </trkpt>
      <trkpt lat="50.3552" lon="3.24657">
        <ele>31.5</ele>
        <time>2023-01-22T09:44:17Z</time>
      </trkpt>
      <trkpt lat="50.35521" lon="3.24657">
        <ele>31.6</ele>
        <time>2023-01-22T09:44:18Z</time>
      </trkpt>
      <trkpt lat="50.35523" lon="3.24657">
        <ele>31.7</ele>
        <time>2023-01-22T09:44:19Z</time>
        <extensions>
          <gpxtpx:TrackPointExtension xmlns:gpxtpx="http://www.garmin.com/xmlschemas/TrackPointExtension/v1">
            <gpxtpx:hr>122</gpxtpx:hr>
          </gpxtpx:TrackPointExtension>
        </extensions>
      </trkpt>
      <trkpt lat="50.35524" lon="3.24657">
        <ele>26.519907</ele>
        <time>2023-01-22T09:44:20Z</time>
      </trkpt>
      <trkpt lat="50.35525" lon="3.24657">
        <ele>32</ele>
        <time>2023-01-22T09:44:21Z</time>
      </trkpt>
      <trkpt lat="50.35526" lon="3.24658">
        <ele>32.1</ele>
        <time>2023-01-22T09:44:22Z</time>
      </trkpt>
      <trkpt lat="50.35527" lon="3.24659">
        <ele>32.3</ele>
        <time>2023-01-22T09:44:23Z</time>
      </trkpt>
      <trkpt lat="50.35527" lon="3.24661">
        <ele>32.5</ele>
        <time>2023-01-22T09:44:24Z</time>
      </trkpt>
      <trkpt lat="50.35529" lon="3.24662">
        <ele>32.7</ele>
        <time>2023-01-22T09:44:25Z</time>
      </trkpt>
      <trkpt lat="50.3553" lon="3.24664">
        <ele>32.8</ele>
        <time>2023-01-22T09:44:26Z</time>
      </trkpt>
      <trkpt lat="50.35531" lon="3.24666">
        <ele>32.9</ele>
        <time>2023-01-22T09:44:27Z</time>
      </trkpt>
      <trkpt lat="50.35532" lon="3.24667">
        <ele>32.7</ele>
        <time>2023-01-22T09:44:28Z</time>
      </trkpt>
      <trkpt lat="50.35532" lon="3.24668">
        <ele>32.7</ele>
        <time>2023-01-22T09:44:29Z</time>
      </trkpt>
      <trkpt lat="50.35534" lon="3.24668">
        <ele>25.956312</ele>
        <time>2023-01-22T09:44:30Z</time>
      </trkpt>
      <trkpt lat="50.35535" lon="3.24668">
        <ele>32.5</ele>
        <time>2023-01-22T09:44:31Z</time>
      </trkpt>
      <trkpt lat="50.35537" lon="3.24668">
        <ele>32.5</ele>
        <time>2023-01-22T09:44:32Z</time>
      </trkpt>
      <trkpt lat="50.35538" lon="3.24668">
        <ele>32.4</ele>
        <time>2023-01-22T09:44:33Z</time>
      </trkpt>
      <trkpt lat="50.3554" lon="3.24669">
        <ele>32.2</ele>
        <time>2023-01-22T09:44:34Z</time>
      </trkpt>
      <trkpt lat="50.35541" lon="3.24669">
        <ele>32.2</ele>
        <time>2023-01-22T09:44:35Z</time>
      </trkpt>
      <trkpt lat="50.35543" lon="3.24669">
        <ele>32.1</ele>
        <time>2023-01-22T09:44:36Z</time>
      </trkpt>
      <trkpt lat="50.35545" lon="3.24669">
        <ele>32.1</ele>
        <time>2023-01-22T09:44:37Z</time>
      </trkpt>
      <trkpt lat="50.35547" lon="3.24669">
        <ele>32</ele>
        <time>2023-01-22T09:44:38Z</time>
      </trkpt>
      <trkpt lat="50.35548" lon="3.24668">
        <ele>32</ele>
        <time>2023-01-22T09:44:39Z</time>
        <extensions>
          <gpxtpx:TrackPointExtension xmlns:gpxtpx="http://www.garmin.com/xmlschemas/TrackPointExtension/v1">
            <gpxtpx:hr>119</gpxtpx:hr>
          </gpxtpx:TrackPointExtension>
        </extensions>
      </trkpt>
      <trkpt lat="50.3555" lon="3.24668">
        <ele>25.710573</ele>
        <time>2023-01-22T09:44:40Z</time>
      </trkpt>
      <trkpt lat="50.35551" lon="3.24668">
        <ele>32</ele>
        <time>2023-01-22T09:44:41Z</time>
      </trkpt>
      <trkpt lat="50.35552" lon="3.24667">
        <ele>32</ele>
        <time>2023-01-22T09:44:42Z</time>
      </trkpt>
      <trkpt lat="50.35554" lon="3.24667">
        <ele>32</ele>
        <time>2023-01-22T09:44:43Z</time>
      </trkpt>
      <trkpt lat="50.35555" lon="3.24667">
        <ele>32</ele>
        <time>2023-01-22T09:44:44Z</time>
      </trkpt>
      <trkpt lat="50.35556" lon="3.24667">
        <ele>32</ele>
        <time>2023-01-22T09:44:45Z</time>
      </trkpt>
      <trkpt lat="50.35557" lon="3.24667">
        <ele>32</ele>
        <time>2023-01-22T09:44:46Z</time>
      </trkpt>
      <trkpt lat="50.35559" lon="3.24667">
        <ele>31.9</ele>
        <time>2023-01-22T09:44:47Z</time>
      </trkpt>
      <trkpt lat="50.3556" lon="3.24668">
        <ele>31.8</ele>
        <time>2023-01-22T09:44:48Z</time>
      </trkpt>
      <trkpt lat="50.35562" lon="3.24669">
        <ele>31.7</ele>
        <time>2023-01-22T09:44:49Z</time>
      </trkpt>
      <trkpt lat="50.35563" lon="3.24669">
        <ele>25.380398</ele>
        <time>2023-01-22T09:44:50Z</time>
      </trkpt>
      <trkpt lat="50.35564" lon="3.24668">
        <ele>31.8</ele>
        <time>2023-01-22T09:44:51Z</time>
      </trkpt>
      <trkpt lat="50.35566" lon="3.24668">
        <ele>31.8</ele>
        <time>2023-01-22T09:44:52Z</time>
      </trkpt>
      <trkpt lat="50.35567" lon="3.24668">
        <ele>31.8</ele>
        <time>2023-01-22T09:44:53Z</time>
      </trkpt>
      <trkpt lat="50.35568" lon="3.24668">
        <ele>31.8</ele>
        <time>2023-01-22T09:44:54Z</time>
      </trkpt>
      <trkpt lat="50.3557" lon="3.24668">
        <ele>31.8</ele>
        <time>2023-01-22T09:44:55Z</time>
      </trkpt>
      <trkpt lat="50.35572" lon="3.24668">
        <ele>31.8</ele>
        <time>2023-01-22T09:44:56Z</time>
      </trkpt>
      <trkpt lat="50.35574" lon="3.24669">
        <ele>31.7</ele>
        <time>2023-01-22T09:44:57Z</time>
      </trkpt>
      <trkpt lat="50.35575" lon="3.24668">
        <ele>31.8</ele>
        <time>2023-01-22T09:44:58Z</time>
      </trkpt>
      <trkpt lat="50.35576" lon="3.24668">
        <ele>31.8</ele>
        <time>2023-01-22T09:44:59Z</time>
        <extensions>
          <gpxtpx:TrackPointExtension xmlns:gpxtpx="http://www.garmin.com/xmlschemas/TrackPointExtension/v1">
            <gpxtpx:hr>120</gpxtpx:hr>
          </gpxtpx:TrackPointExtension>
        </extensions>
      </trkpt>
      <trkpt lat="50.35577" lon="3.24668">
        <ele>31.8</ele>
        <time>2023-01-22T09:45:00Z</time>
      </trkpt>
      <trkpt lat="50.35578" lon="3.24668">
        <ele>31.8</ele>
        <time>2023-01-22T09:45:01Z</time>
      </trkpt>
      <trkpt lat="50.3558" lon="3.24668">
        <ele>31.8</ele>
        <time>2023-01-22T09:45:02Z</time>
      </trkpt>
      <trkpt lat="50.35581" lon="3.24668">
        <ele>31.8</ele>
        <time>2023-01-22T09:45:03Z</time>
      </trkpt>
      <trkpt lat="50.35583" lon="3.24669">
        <ele>31.7</ele>
        <time>2023-01-22T09:45:04Z</time>
      </trkpt>
      <trkpt lat="50.35584" lon="3.24669">
        <ele>24.90222</ele>
        <time>2023-01-22T09:45:05Z</time>
      </trkpt>
      <trkpt lat="50.35586" lon="3.24669">
        <ele>31.6</ele>
        <time>2023-01-22T09:45:06Z</time>
      </trkpt>
      <trkpt lat="50.35588" lon="3.24669">
        <ele>31.5</ele>
        <time>2023-01-22T09:45:07Z</time>
      </trkpt>
      <trkpt lat="50.3559" lon="3.2467">
        <ele>31.4</ele>
        <time>2023-01-22T09:45:08Z</time>
      </trkpt>
      <trkpt lat="50.35591" lon="3.2467">
        <ele>31.3</ele>
        <time>2023-01-22T09:45:09Z</time>
      </trkpt>
      <trkpt lat="50.35593" lon="3.2467">
        <ele>24.710573</ele>
        <time>2023-01-22T09:45:10Z</time>
      </trkpt>
      <trkpt lat="50.35595" lon="3.2467">
        <ele>31.2</ele>
        <time>2023-01-22T09:45:11Z</time>
      </trkpt>
      <trkpt lat="50.35596" lon="3.24671">
        <ele>31.1</ele>
        <time>2023-01-22T09:45:12Z</time>
      </trkpt>
      <trkpt lat="50.35597" lon="3.2467">
        <ele>31.1</ele>
        <time>2023-01-22T09:45:13Z</time>
      </trkpt>
      <trkpt lat="50.35598" lon="3.2467">
        <ele>31.1</ele>
        <time>2023-01-22T09:45:14Z</time>
      </trkpt>
      <trkpt lat="50.356" lon="3.2467">
        <ele>31</ele>
        <time>2023-01-22T09:45:15Z</time>
      </trkpt>
      <trkpt lat="50.35601" lon="3.24671">
        <ele>31</ele>
        <time>2023-01-22T09:45:16Z</time>
      </trkpt>
      <trkpt lat="50.35602" lon="3.24671">
        <ele>31</ele>
        <time>2023-01-22T09:45:17Z</time>
      </trkpt>
      <trkpt lat="50.35604" lon="3.24671">
        <ele>30.9</ele>
        <time>2023-01-22T09:45:18Z</time>
      </trkpt>
      <trkpt lat="50.35605" lon="3.24671">
        <ele>30.8</ele>
        <time>2023-01-22T09:45:19Z</time>
        <extensions>
          <gpxtpx:TrackPointExtension xmlns:gpxtpx="http://www.garmin.com/xmlschemas/TrackPointExtension/v1">
            <gpxtpx:hr>118</gpxtpx:hr>
          </gpxtpx:TrackPointExtension>
        </extensions>
      </trkpt>
      <trkpt lat="50.35607" lon="3.24671">
        <ele>24.369028</ele>
        <time>2023-01-22T09:45:20Z</time>
      </trkpt>
      <trkpt lat="50.35608" lon="3.24671">
        <ele>30.8</ele>
        <time>2023-01-22T09:45:21Z</time>
      </trkpt>
      <trkpt lat="50.35609" lon="3.2467">
        <ele>30.8</ele>
        <time>2023-01-22T09:45:22Z</time>
      </trkpt>
      <trkpt lat="50.35611" lon="3.24671">
        <ele>30.7</ele>
        <time>2023-01-22T09:45:23Z</time>
      </trkpt>
      <trkpt lat="50.35612" lon="3.24671">
        <ele>30.7</ele>
        <time>2023-01-22T09:45:24Z</time>
      </trkpt>
      <trkpt lat="50.35614" lon="3.24671">
        <ele>30.7</ele>
        <time>2023-01-22T09:45:25Z</time>
      </trkpt>
      <trkpt lat="50.35616" lon="3.24671">
        <ele>30.7</ele>
        <time>2023-01-22T09:45:26Z</time>
      </trkpt>
      <trkpt lat="50.35617" lon="3.24671">
        <ele>30.7</ele>
        <time>2023-01-22T09:45:27Z</time>
      </trkpt>
      <trkpt lat="50.35618" lon="3.24672">
        <ele>30.7</ele>
        <time>2023-01-22T09:45:28Z</time>
      </trkpt>
      <trkpt lat="50.3562" lon="3.24672">
        <ele>30.7</ele>
        <time>2023-01-22T09:45:29Z</time>
      </trkpt>
      <trkpt lat="50.35621" lon="3.24673">
        <ele>24.02559</ele>
        <time>2023-01-22T09:45:30Z</time>
      </trkpt>
      <trkpt lat="50.35622" lon="3.24673">
        <ele>30.7</ele>
        <time>2023-01-22T09:45:31Z</time>
      </trkpt>
      <trkpt lat="50.35623" lon="3.24673">
        <ele>30.6</ele>
        <time>2023-01-22T09:45:32Z</time>
      </trkpt>
      <trkpt lat="50.35625" lon="3.24673">
        <ele>30.6</ele>
        <time>2023-01-22T09:45:33Z</time>
      </trkpt>
      <trkpt lat="50.35626" lon="3.24673">
        <ele>30.7</ele>
        <time>2023-01-22T09:45:34Z</time>
      </trkpt>
      <trkpt lat="50.35627" lon="3.24673">
        <ele>30.7</ele>
        <time>2023-01-22T09:45:35Z</time>
      </trkpt>
      <trkpt lat="50.35629" lon="3.24673">
        <ele>30.7</ele>
        <time>2023-01-22T09:45:36Z</time>
      </trkpt>
      <trkpt lat="50.3563" lon="3.24673">
        <ele>30.7</ele>
        <time>2023-01-22T09:45:37Z</time>
      </trkpt>
      <trkpt lat="50.35631" lon="3.24673">
        <ele>30.7</ele>
        <time>2023-01-22T09:45:38Z</time>
      </trkpt>
      <trkpt lat="50.35632" lon="3.24675">
        <ele>30.7</ele>
        <time>2023-01-22T09:45:39Z</time>
        <extensions>
          <gpxtpx:TrackPointExtension xmlns:gpxtpx="http://www.garmin.com/xmlschemas/TrackPointExtension/v1">
            <gpxtpx:hr>121</gpxtpx:hr>
          </gpxtpx:TrackPointExtension>
        </extensions>
      </trkpt>
      <trkpt lat="50.35632" lon="3.24677">
        <ele>23.62998</ele>
        <time>2023-01-22T09:45:40Z</time>
      </trkpt>
      <trkpt lat="50.35633" lon="3.24678">
        <ele>30.5</ele>
        <time>2023-01-22T09:45:41Z</time>
      </trkpt>
      <trkpt lat="50.35634" lon="3.24679">
        <ele>30.5</ele>
        <time>2023-01-22T09:45:42Z</time>
      </trkpt>
      <trkpt lat="50.35634" lon="3.2468">
        <ele>30.4</ele>
        <time>2023-01-22T09:45:43Z</time>
      </trkpt>
      <trkpt lat="50.35634" lon="3.2468">
        <ele>30.4</ele>
        <time>2023-01-22T09:45:44Z</time>
      </trkpt>
      <trkpt lat="50.35634" lon="3.24681">
        <ele>30.4</ele>
        <time>2023-01-22T09:45:45Z</time>
      </trkpt>
      <trkpt lat="50.35634" lon="3.24682">
        <ele>30.4</ele>
        <time>2023-01-22T09:45:46Z</time>
      </trkpt>
      <trkpt lat="50.35635" lon="3.24683">
        <ele>30.3</ele>
        <time>2023-01-22T09:45:47Z</time>
      </trkpt>
      <trkpt lat="50.35635" lon="3.24685">
        <ele>30.2</ele>
        <time>2023-01-22T09:45:48Z</time>
      </trkpt>
      <trkpt lat="50.35635" lon="3.24686">
        <ele>30.2</ele>
        <time>2023-01-22T09:45:49Z</time>
      </trkpt>
      <trkpt lat="50.35635" lon="3.24688">
        <ele>22.531418</ele>
        <time>2023-01-22T09:45:50Z</time>
      </trkpt>
      <trkpt lat="50.35634" lon="3.24691">
        <ele>30</ele>
        <time>2023-01-22T09:45:51Z</time>
      </trkpt>
      <trkpt lat="50.35634" lon="3.24693">
        <ele>29.9</ele>
        <time>2023-01-22T09:45:52Z</time>
      </trkpt>
      <trkpt lat="50.35635" lon="3.24696">
        <ele>29.8</ele>
        <time>2023-01-22T09:45:53Z</time>
      </trkpt>
      <trkpt lat="50.35635" lon="3.24699">
        <ele>29.7</ele>
        <time>2023-01-22T09:45:54Z</time>
      </trkpt>
      <trkpt lat="50.35635" lon="3.24701">
        <ele>29.6</ele>
        <time>2023-01-22T09:45:55Z</time>
      </trkpt>
      <trkpt lat="50.35635" lon="3.24703">
        <ele>29.5</ele>
        <time>2023-01-22T09:45:56Z</time>
      </trkpt>
      <trkpt lat="50.35635" lon="3.24705">
        <ele>29.5</ele>
        <time>2023-01-22T09:45:57Z</time>
      </trkpt>
      <trkpt lat="50.35635" lon="3.24708">
        <ele>29.4</ele>
        <time>2023-01-22T09:45:58Z</time>
      </trkpt>
      <trkpt lat="50.35635" lon="3.2471">
        <ele>29.3</ele>
        <time>2023-01-22T09:45:59Z</time>
        <extensions>
          <gpxtpx:TrackPointExtension xmlns:gpxtpx="http://www.garmin.com/xmlschemas/TrackPointExtension/v1">
            <gpxtpx:hr>115</gpxtpx:hr>
          </gpxtpx:TrackPointExtension>
        </extensions>
      </trkpt>
      <trkpt lat="50.35635" lon="3.24713">
        <ele>21.501213</ele>
        <time>2023-01-22T09:46:00Z</time>
      </trkpt>
      <trkpt lat="50.35636" lon="3.24715">
        <ele>29.2</ele>
        <time>2023-01-22T09:46:01Z</time>
      </trkpt>
      <trkpt lat="50.35635" lon="3.24717">
        <ele>29.1</ele>
        <time>2023-01-22T09:46:02Z</time>
      </trkpt>
      <trkpt lat="50.35635" lon="3.24718">
        <ele>29</ele>
        <time>2023-01-22T09:46:03Z</time>
      </trkpt>
      <trkpt lat="50.35635" lon="3.24721">
        <ele>28.9</ele>
        <time>2023-01-22T09:46:04Z</time>
      </trkpt>
      <trkpt lat="50.35635" lon="3.24722">
        <ele>28.9</ele>
        <time>2023-01-22T09:46:05Z</time>
      </trkpt>
      <trkpt lat="50.35636" lon="3.24723">
        <ele>28.9</ele>
        <time>2023-01-22T09:46:06Z</time>
      </trkpt>
      <trkpt lat="50.35635" lon="3.24724">
        <ele>28.8</ele>
        <time>2023-01-22T09:46:07Z</time>
      </trkpt>
      <trkpt lat="50.35635" lon="3.24726">
        <ele>28.7</ele>
        <time>2023-01-22T09:46:08Z</time>
      </trkpt>
      <trkpt lat="50.35635" lon="3.24728">
        <ele>28.7</ele>
        <time>2023-01-22T09:46:09Z</time>
      </trkpt>
      <trkpt lat="50.35635" lon="3.2473">
        <ele>21.221378</ele>
        <time>2023-01-22T09:46:10Z</time>
      </trkpt>
      <trkpt lat="50.35635" lon="3.24733">
        <ele>28.5</ele>
        <time>2023-01-22T09:46:11Z</time>
      </trkpt>
      <trkpt lat="50.35636" lon="3.24735">
        <ele>28.5</ele>
        <time>2023-01-22T09:46:12Z</time>
      </trkpt>
      <trkpt lat="50.35636" lon="3.24736">
        <ele>28.5</ele>
        <time>2023-01-22T09:46:13Z</time>
      </trkpt>
      <trkpt lat="50.35636" lon="3.24738">
        <ele>28.4</ele>
        <time>2023-01-22T09:46:14Z</time>
      </trkpt>
      <trkpt lat="50.35635" lon="3.2474">
        <ele>28.3</ele>
        <time>2023-01-22T09:46:15Z</time>
      </trkpt>
      <trkpt lat="50.35636" lon="3.24743">
        <ele>28.2</ele>
        <time>2023-01-22T09:46:16Z</time>
      </trkpt>
      <trkpt lat="50.35637" lon="3.24744">
        <ele>28.2</ele>
        <time>2023-01-22T09:46:17Z</time>
      </trkpt>
      <trkpt lat="50.35637" lon="3.24746">
        <ele>28.1</ele>
        <time>2023-01-22T09:46:18Z</time>
      </trkpt>
      <trkpt lat="50.35637" lon="3.24748">
        <ele>28.1</ele>
        <time>2023-01-22T09:46:19Z</time>
        <extensions>
          <gpxtpx:TrackPointExtension xmlns:gpxtpx="http://www.garmin.com/xmlschemas/TrackPointExtension/v1">
            <gpxtpx:hr>110</gpxtpx:hr>
          </gpxtpx:TrackPointExtension>
        </extensions>
      </trkpt>
      <trkpt lat="50.35637" lon="3.2475">
        <ele>21.138851</ele>
        <time>2023-01-22T09:46:20Z</time>
      </trkpt>
      <trkpt lat="50.35637" lon="3.24753">
        <ele>28</ele>
        <time>2023-01-22T09:46:21Z</time>
      </trkpt>
      <trkpt lat="50.35637" lon="3.24755">
        <ele>28</ele>
        <time>2023-01-22T09:46:22Z</time>
      </trkpt>
      <trkpt lat="50.35637" lon="3.24757">
        <ele>28</ele>
        <time>2023-01-22T09:46:23Z</time>
      </trkpt>
      <trkpt lat="50.35637" lon="3.2476">
        <ele>28</ele>
        <time>2023-01-22T09:46:24Z</time>
      </trkpt>
      <trkpt lat="50.35637" lon="3.24762">
        <ele>28</ele>
        <time>2023-01-22T09:46:25Z</time>
      </trkpt>
      <trkpt lat="50.35637" lon="3.24765">
        <ele>28</ele>
        <time>2023-01-22T09:46:26Z</time>
      </trkpt>
      <trkpt lat="50.35637" lon="3.24766">
        <ele>28</ele>
        <time>2023-01-22T09:46:27Z</time>
      </trkpt>
      <trkpt lat="50.35637" lon="3.24768">
        <ele>28</ele>
        <time>2023-01-22T09:46:28Z</time>
      </trkpt>
      <trkpt lat="50.35638" lon="3.2477">
        <ele>28</ele>
        <time>2023-01-22T09:46:29Z</time>
      </trkpt>
      <trkpt lat="50.35638" lon="3.24772">
        <ele>21.017433</ele>
        <time>2023-01-22T09:46:30Z</time>
      </trkpt>
      <trkpt lat="50.35638" lon="3.24774">
        <ele>28</ele>
        <time>2023-01-22T09:46:31Z</time>
      </trkpt>
      <trkpt lat="50.35639" lon="3.24775">
        <ele>28</ele>
        <time>2023-01-22T09:46:32Z</time>
      </trkpt>
      <trkpt lat="50.35639" lon="3.24778">
        <ele>28</ele>
        <time>2023-01-22T09:46:33Z</time>
      </trkpt>
      <trkpt lat="50.35639" lon="3.24779">
        <ele>28</ele>
        <time>2023-01-22T09:46:34Z</time>
      </trkpt>
      <trkpt lat="50.35639" lon="3.24781">
        <ele>28</ele>
        <time>2023-01-22T09:46:35Z</time>
      </trkpt>
      <trkpt lat="50.35639" lon="3.24782">
        <ele>28</ele>
        <time>2023-01-22T09:46:36Z</time>
      </trkpt>
      <trkpt lat="50.35639" lon="3.24784">
        <ele>28</ele>
        <time>2023-01-22T09:46:37Z</time>
      </trkpt>
      <trkpt lat="50.35638" lon="3.24787">
        <ele>28</ele>
        <time>2023-01-22T09:46:38Z</time>
      </trkpt>
      <trkpt lat="50.35639" lon="3.24789">
        <ele>28</ele>
        <time>2023-01-22T09:46:39Z</time>
        <extensions>
          <gpxtpx:TrackPointExtension xmlns:gpxtpx="http://www.garmin.com/xmlschemas/TrackPointExtension/v1">
            <gpxtpx:hr>115</gpxtpx:hr>
          </gpxtpx:TrackPointExtension>
        </extensions>
      </trkpt>
      <trkpt lat="50.35638" lon="3.24791">
        <ele>28</ele>
        <time>2023-01-22T09:46:40Z</time>
      </trkpt>
      <trkpt lat="50.35639" lon="3.24793">
        <ele>28</ele>
        <time>2023-01-22T09:46:41Z</time>
      </trkpt>
      <trkpt lat="50.35639" lon="3.24795">
        <ele>28</ele>
        <time>2023-01-22T09:46:42Z</time>
      </trkpt>
      <trkpt lat="50.35639" lon="3.24797">
        <ele>28</ele>
        <time>2023-01-22T09:46:43Z</time>
      </trkpt>
      <trkpt lat="50.35639" lon="3.24799">
        <ele>28</ele>
        <time>2023-01-22T09:46:44Z</time>
      </trkpt>
      <trkpt lat="50.35639" lon="3.24799">
        <ele>20.618086</ele>
        <time>2023-01-22T09:46:45Z</time>
      </trkpt>
      <trkpt lat="50.3564" lon="3.24799">
        <ele>28</ele>
        <time>2023-01-22T09:46:46Z</time>
      </trkpt>
      <trkpt lat="50.3564" lon="3.24799">
        <ele>28</ele>
        <time>2023-01-22T09:46:47Z</time>
      </trkpt>
      <trkpt lat="50.3564" lon="3.248">
        <ele>28</ele>
        <time>2023-01-22T09:46:48Z</time>
      </trkpt>
      <trkpt lat="50.3564" lon="3.248">
        <ele>28</ele>
        <time>2023-01-22T09:46:49Z</time>
      </trkpt>
      <trkpt lat="50.3564" lon="3.248">
        <ele>20.53556</ele>
        <time>2023-01-22T09:46:50Z</time>
      </trkpt>
      <trkpt lat="50.3564" lon="3.248">
        <ele>28</ele>
        <time>2023-01-22T09:46:51Z</time>
      </trkpt>
      <trkpt lat="50.3564" lon="3.248">
        <ele>28</ele>
        <time>2023-01-22T09:46:52Z</time>
      </trkpt>
      <trkpt lat="50.3564" lon="3.248">
        <ele>28</ele>
        <time>2023-01-22T09:46:53Z</time>
      </trkpt>
      <trkpt lat="50.3564" lon="3.248">
        <ele>28</ele>
        <time>2023-01-22T09:46:54Z</time>
      </trkpt>
      <trkpt lat="50.3564" lon="3.248">
        <ele>28</ele>
        <time>2023-01-22T09:46:55Z</time>
      </trkpt>
      <trkpt lat="50.3564" lon="3.248">
        <ele>28</ele>
        <time>2023-01-22T09:46:56Z</time>
      </trkpt>
      <trkpt lat="50.3564" lon="3.248">
        <ele>28</ele>
        <time>2023-01-22T09:46:57Z</time>
      </trkpt>
      <trkpt lat="50.3564" lon="3.248">
        <ele>28</ele>
        <time>2023-01-22T09:46:58Z</time>
      </trkpt>
      <trkpt lat="50.3564" lon="3.248">
        <ele>28</ele>
        <time>2023-01-22T09:46:59Z</time>
        <extensions>
          <gpxtpx:TrackPointExtension xmlns:gpxtpx="http://www.garmin.com/xmlschemas/TrackPointExtension/v1">
            <gpxtpx:hr>115</gpxtpx:hr>
          </gpxtpx:TrackPointExtension>
        </extensions>
      </trkpt>
      <trkpt lat="50.35641" lon="3.248">
        <ele>20.625673</ele>
        <time>2023-01-22T09:47:00Z</time>
      </trkpt>
      <trkpt lat="50.35641" lon="3.24799">
        <ele>28</ele>
        <time>2023-01-22T09:47:01Z</time>
      </trkpt>
      <trkpt lat="50.35641" lon="3.24799">
        <ele>28</ele>
        <time>2023-01-22T09:47:02Z</time>
      </trkpt>
      <trkpt lat="50.35641" lon="3.248">
        <ele>28</ele>
        <time>2023-01-22T09:47:03Z</time>
      </trkpt>
      <trkpt lat="50.3564" lon="3.248">
        <ele>28</ele>
        <time>2023-01-22T09:47:04Z</time>
      </trkpt>
      <trkpt lat="50.3564" lon="3.248">
        <ele>28</ele>
        <time>2023-01-22T09:47:05Z</time>
      </trkpt>
      <trkpt lat="50.3564" lon="3.248">
        <ele>28</ele>
        <time>2023-01-22T09:47:06Z</time>
      </trkpt>
      <trkpt lat="50.3564" lon="3.248">
        <ele>28</ele>
        <time>2023-01-22T09:47:07Z</time>
      </trkpt>
      <trkpt lat="50.3564" lon="3.248">
        <ele>28</ele>
        <time>2023-01-22T09:47:08Z</time>
      </trkpt>
      <trkpt lat="50.3564" lon="3.248">
        <ele>28</ele>
        <time>2023-01-22T09:47:09Z</time>
      </trkpt>
      <trkpt lat="50.3564" lon="3.248">
        <ele>20.695868</ele>
        <time>2023-01-22T09:47:10Z</time>
      </trkpt>
      <trkpt lat="50.3564" lon="3.248">
        <ele>28</ele>
        <time>2023-01-22T09:47:11Z</time>
      </trkpt>
      <trkpt lat="50.3564" lon="3.248">
        <ele>28</ele>
        <time>2023-01-22T09:47:12Z</time>
      </trkpt>
      <trkpt lat="50.3564" lon="3.248">
        <ele>28</ele>
        <time>2023-01-22T09:47:13Z</time>
      </trkpt>
      <trkpt lat="50.3564" lon="3.248">
        <ele>28</ele>
        <time>2023-01-22T09:47:14Z</time>
      </trkpt>
      <trkpt lat="50.3564" lon="3.248">
        <ele>28</ele>
        <time>2023-01-22T09:47:15Z</time>
      </trkpt>
      <trkpt lat="50.3564" lon="3.248">
        <ele>28</ele>
        <time>2023-01-22T09:47:16Z</time>
      </trkpt>
      <trkpt lat="50.3564" lon="3.248">
        <ele>28</ele>
        <time>2023-01-22T09:47:17Z</time>
      </trkpt>
      <trkpt lat="50.3564" lon="3.248">
        <ele>28</ele>
        <time>2023-01-22T09:47:18Z</time>
      </trkpt>
      <trkpt lat="50.3564" lon="3.248">
        <ele>28</ele>
        <time>2023-01-22T09:47:19Z</time>
        <extensions>
          <gpxtpx:TrackPointExtension xmlns:gpxtpx="http://www.garmin.com/xmlschemas/TrackPointExtension/v1">
            <gpxtpx:hr>124</gpxtpx:hr>
          </gpxtpx:TrackPointExtension>
        </extensions>
      </trkpt>
      <trkpt lat="50.3564" lon="3.248">
        <ele>20.565914</ele>
        <time>2023-01-22T09:47:20Z</time>
      </trkpt>
      <trkpt lat="50.3564" lon="3.248">
        <ele>28</ele>
        <time>2023-01-22T09:47:21Z</time>
      </trkpt>
      <trkpt lat="50.3564" lon="3.24799">
        <ele>28</ele>
        <time>2023-01-22T09:47:22Z</time>
      </trkpt>
      <trkpt lat="50.3564" lon="3.24799">
        <ele>28</ele>
        <time>2023-01-22T09:47:23Z</time>
      </trkpt>
      <trkpt lat="50.3564" lon="3.24799">
        <ele>28</ele>
        <time>2023-01-22T09:47:24Z</time>
      </trkpt>
      <trkpt lat="50.35641" lon="3.24798">
        <ele>28</ele>
        <time>2023-01-22T09:47:25Z</time>
      </trkpt>
      <trkpt lat="50.35641" lon="3.24796">
        <ele>28</ele>
        <time>2023-01-22T09:47:26Z</time>
      </trkpt>
      <trkpt lat="50.35642" lon="3.24795">
        <ele>28</ele>
        <time>2023-01-22T09:47:27Z</time>
      </trkpt>
      <trkpt lat="50.35642" lon="3.24794">
        <ele>28</ele>
        <time>2023-01-22T09:47:28Z</time>
      </trkpt>
      <trkpt lat="50.35643" lon="3.24793">
        <ele>28</ele>
        <time>2023-01-22T09:47:29Z</time>
      </trkpt>
      <trkpt lat="50.35644" lon="3.24791">
        <ele>20.479595</ele>
        <time>2023-01-22T09:47:30Z</time>
      </trkpt>
      <trkpt lat="50.35645" lon="3.24789">
        <ele>28</ele>
        <time>2023-01-22T09:47:31Z</time>
      </trkpt>
      <trkpt lat="50.35646" lon="3.24787">
        <ele>28</ele>
        <time>2023-01-22T09:47:32Z</time>
      </trkpt>
      <trkpt lat="50.35647" lon="3.24786">
        <ele>28</ele>
        <time>2023-01-22T09:47:33Z</time>
      </trkpt>
      <trkpt lat="50.35648" lon="3.24784">
        <ele>28</ele>
        <time>2023-01-22T09:47:34Z</time>
      </trkpt>
      <trkpt lat="50.35649" lon="3.24782">
        <ele>28</ele>
        <time>2023-01-22T09:47:35Z</time>
      </trkpt>
      <trkpt lat="50.3565" lon="3.24781">
        <ele>28</ele>
        <time>2023-01-22T09:47:36Z</time>
      </trkpt>
      <trkpt lat="50.3565" lon="3.24779">
        <ele>28</ele>
        <time>2023-01-22T09:47:37Z</time>
      </trkpt>
      <trkpt lat="50.35651" lon="3.24778">
        <ele>28</ele>
        <time>2023-01-22T09:47:38Z</time>
      </trkpt>
      <trkpt lat="50.35653" lon="3.24776">
        <ele>28</ele>
        <time>2023-01-22T09:47:39Z</time>
        <extensions>
          <gpxtpx:TrackPointExtension xmlns:gpxtpx="http://www.garmin.com/xmlschemas/TrackPointExtension/v1">
            <gpxtpx:hr>122</gpxtpx:hr>
          </gpxtpx:TrackPointExtension>
        </extensions>
      </trkpt>
      <trkpt lat="50.35654" lon="3.24775">
        <ele>20.498566</ele>
        <time>2023-01-22T09:47:40Z</time>
      </trkpt>
      <trkpt lat="50.35655" lon="3.24773">
        <ele>28</ele>
        <time>2023-01-22T09:47:41Z</time>
      </trkpt>
      <trkpt lat="50.35656" lon="3.24772">
        <ele>28</ele>
        <time>2023-01-22T09:47:42Z</time>
      </trkpt>
      <trkpt lat="50.35656" lon="3.24771">
        <ele>28</ele>
        <time>2023-01-22T09:47:43Z</time>
      </trkpt>
      <trkpt lat="50.35657" lon="3.2477">
        <ele>28</ele>
        <time>2023-01-22T09:47:44Z</time>
      </trkpt>
      <trkpt lat="50.35658" lon="3.24768">
        <ele>28</ele>
        <time>2023-01-22T09:47:45Z</time>
      </trkpt>
      <trkpt lat="50.35659" lon="3.24767">
        <ele>28</ele>
        <time>2023-01-22T09:47:46Z</time>
      </trkpt>
      <trkpt lat="50.35661" lon="3.24766">
        <ele>28</ele>
        <time>2023-01-22T09:47:47Z</time>
      </trkpt>
      <trkpt lat="50.35662" lon="3.24764">
        <ele>28</ele>
        <time>2023-01-22T09:47:48Z</time>
      </trkpt>
      <trkpt lat="50.35663" lon="3.24763">
        <ele>28</ele>
        <time>2023-01-22T09:47:49Z</time>
      </trkpt>
      <trkpt lat="50.35664" lon="3.24762">
        <ele>20.613342</ele>
        <time>2023-01-22T09:47:50Z</time>
      </trkpt>
      <trkpt lat="50.35666" lon="3.24761">
        <ele>28</ele>
        <time>2023-01-22T09:47:51Z</time>
      </trkpt>
      <trkpt lat="50.35666" lon="3.2476">
        <ele>28</ele>
        <time>2023-01-22T09:47:52Z</time>
      </trkpt>
      <trkpt lat="50.35667" lon="3.24759">
        <ele>28</ele>
        <time>2023-01-22T09:47:53Z</time>
      </trkpt>
      <trkpt lat="50.35669" lon="3.24758">
        <ele>28</ele>
        <time>2023-01-22T09:47:54Z</time>
      </trkpt>
      <trkpt lat="50.3567" lon="3.24757">
        <ele>28</ele>
        <time>2023-01-22T09:47:55Z</time>
      </trkpt>
      <trkpt lat="50.35671" lon="3.24755">
        <ele>28</ele>
        <time>2023-01-22T09:47:56Z</time>
      </trkpt>
      <trkpt lat="50.35672" lon="3.24754">
        <ele>28</ele>
        <time>2023-01-22T09:47:57Z</time>
      </trkpt>
      <trkpt lat="50.35673" lon="3.24754">
        <ele>28</ele>
        <time>2023-01-22T09:47:58Z</time>
      </trkpt>
      <trkpt lat="50.35674" lon="3.24754">
        <ele>28</ele>
        <time>2023-01-22T09:47:59Z</time>
        <extensions>
          <gpxtpx:TrackPointExtension xmlns:gpxtpx="http://www.garmin.com/xmlschemas/TrackPointExtension/v1">
            <gpxtpx:hr>118</gpxtpx:hr>
          </gpxtpx:TrackPointExtension>
        </extensions>
      </trkpt>
      <trkpt lat="50.35675" lon="3.24755">
        <ele>20.47675</ele>
        <time>2023-01-22T09:48:00Z</time>
      </trkpt>
      <trkpt lat="50.35675" lon="3.24756">
        <ele>27.9</ele>
        <time>2023-01-22T09:48:01Z</time>
      </trkpt>
      <trkpt lat="50.35677" lon="3.24756">
        <ele>27.9</ele>
        <time>2023-01-22T09:48:02Z</time>
      </trkpt>
      <trkpt lat="50.35678" lon="3.24756">
        <ele>27.9</ele>
        <time>2023-01-22T09:48:03Z</time>
      </trkpt>
      <trkpt lat="50.35679" lon="3.24757">
        <ele>27.9</ele>
        <time>2023-01-22T09:48:04Z</time>
      </trkpt>
      <trkpt lat="50.3568" lon="3.24758">
        <ele>27.9</ele>
        <time>2023-01-22T09:48:05Z</time>
      </trkpt>
      <trkpt lat="50.35681" lon="3.24759">
        <ele>27.8</ele>
        <time>2023-01-22T09:48:06Z</time>
      </trkpt>
      <trkpt lat="50.35682" lon="3.24759">
        <ele>27.8</ele>
        <time>2023-01-22T09:48:07Z</time>
      </trkpt>
      <trkpt lat="50.35683" lon="3.24761">
        <ele>27.8</ele>
        <time>2023-01-22T09:48:08Z</time>
      </trkpt>
      <trkpt lat="50.35684" lon="3.24762">
        <ele>27.7</ele>
        <time>2023-01-22T09:48:09Z</time>
      </trkpt>
      <trkpt lat="50.35685" lon="3.24763">
        <ele>20.394226</ele>
        <time>2023-01-22T09:48:10Z</time>
      </trkpt>
      <trkpt lat="50.35686" lon="3.24764">
        <ele>27.7</ele>
        <time>2023-01-22T09:48:11Z</time>
      </trkpt>
      <trkpt lat="50.35687" lon="3.24766">
        <ele>27.6</ele>
        <time>2023-01-22T09:48:12Z</time>
      </trkpt>
      <trkpt lat="50.35687" lon="3.24768">
        <ele>27.5</ele>
        <time>2023-01-22T09:48:13Z</time>
      </trkpt>
      <trkpt lat="50.35688" lon="3.2477">
        <ele>27.4</ele>
        <time>2023-01-22T09:48:14Z</time>
      </trkpt>
      <trkpt lat="50.3569" lon="3.24772">
        <ele>27.4</ele>
        <time>2023-01-22T09:48:15Z</time>
      </trkpt>
      <trkpt lat="50.35691" lon="3.24774">
        <ele>27.2</ele>
        <time>2023-01-22T09:48:16Z</time>
      </trkpt>
      <trkpt lat="50.35692" lon="3.24776">
        <ele>27.1</ele>
        <time>2023-01-22T09:48:17Z</time>
      </trkpt>
      <trkpt lat="50.35693" lon="3.24778">
        <ele>27.1</ele>
        <time>2023-01-22T09:48:18Z</time>
      </trkpt>
      <trkpt lat="50.35694" lon="3.24779">
        <ele>27</ele>
        <time>2023-01-22T09:48:19Z</time>
        <extensions>
          <gpxtpx:TrackPointExtension xmlns:gpxtpx="http://www.garmin.com/xmlschemas/TrackPointExtension/v1">
            <gpxtpx:hr>115</gpxtpx:hr>
          </gpxtpx:TrackPointExtension>
        </extensions>
      </trkpt>
      <trkpt lat="50.35695" lon="3.2478">
        <ele>27</ele>
        <time>2023-01-22T09:48:20Z</time>
      </trkpt>
      <trkpt lat="50.35695" lon="3.24781">
        <ele>27</ele>
        <time>2023-01-22T09:48:21Z</time>
      </trkpt>
      <trkpt lat="50.35696" lon="3.24782">
        <ele>27</ele>
        <time>2023-01-22T09:48:22Z</time>
      </trkpt>
      <trkpt lat="50.35697" lon="3.24783">
        <ele>27</ele>
        <time>2023-01-22T09:48:23Z</time>
      </trkpt>
      <trkpt lat="50.35697" lon="3.24784">
        <ele>27</ele>
        <time>2023-01-22T09:48:24Z</time>
      </trkpt>
      <trkpt lat="50.35698" lon="3.24786">
        <ele>19.543392</ele>
        <time>2023-01-22T09:48:25Z</time>
      </trkpt>
      <trkpt lat="50.357" lon="3.24787">
        <ele>27</ele>
        <time>2023-01-22T09:48:26Z</time>
      </trkpt>
      <trkpt lat="50.357" lon="3.24788">
        <ele>27</ele>
        <time>2023-01-22T09:48:27Z</time>
      </trkpt>
      <trkpt lat="50.35701" lon="3.24789">
        <ele>27</ele>
        <time>2023-01-22T09:48:28Z</time>
      </trkpt>
      <trkpt lat="50.35702" lon="3.24791">
        <ele>27</ele>
        <time>2023-01-22T09:48:29Z</time>
      </trkpt>
      <trkpt lat="50.35703" lon="3.24793">
        <ele>19.408705</ele>
        <time>2023-01-22T09:48:30Z</time>
      </trkpt>
      <trkpt lat="50.35704" lon="3.24795">
        <ele>27</ele>
        <time>2023-01-22T09:48:31Z</time>
      </trkpt>
      <trkpt lat="50.35706" lon="3.24797">
        <ele>27</ele>
        <time>2023-01-22T09:48:32Z</time>
      </trkpt>
      <trkpt lat="50.35708" lon="3.24799">
        <ele>27</ele>
        <time>2023-01-22T09:48:33Z</time>
      </trkpt>
      <trkpt lat="50.35708" lon="3.248">
        <ele>27</ele>
        <time>2023-01-22T09:48:34Z</time>
      </trkpt>
      <trkpt lat="50.35709" lon="3.24802">
        <ele>27</ele>
        <time>2023-01-22T09:48:35Z</time>
      </trkpt>
      <trkpt lat="50.3571" lon="3.24802">
        <ele>27</ele>
        <time>2023-01-22T09:48:36Z</time>
      </trkpt>
      <trkpt lat="50.35711" lon="3.24803">
        <ele>27</ele>
        <time>2023-01-22T09:48:37Z</time>
      </trkpt>
      <trkpt lat="50.35712" lon="3.24804">
        <ele>27</ele>
        <time>2023-01-22T09:48:38Z</time>
      </trkpt>
      <trkpt lat="50.35713" lon="3.24805">
        <ele>27</ele>
        <time>2023-01-22T09:48:39Z</time>
        <extensions>
          <gpxtpx:TrackPointExtension xmlns:gpxtpx="http://www.garmin.com/xmlschemas/TrackPointExtension/v1">
            <gpxtpx:hr>117</gpxtpx:hr>
          </gpxtpx:TrackPointExtension>
        </extensions>
      </trkpt>
      <trkpt lat="50.35714" lon="3.24807">
        <ele>19.182013</ele>
        <time>2023-01-22T09:48:40Z</time>
      </trkpt>
      <trkpt lat="50.35715" lon="3.24808">
        <ele>27</ele>
        <time>2023-01-22T09:48:41Z</time>
      </trkpt>
      <trkpt lat="50.35716" lon="3.2481">
        <ele>27</ele>
        <time>2023-01-22T09:48:42Z</time>
      </trkpt>
      <trkpt lat="50.35716" lon="3.24812">
        <ele>27</ele>
        <time>2023-01-22T09:48:43Z</time>
      </trkpt>
      <trkpt lat="50.35717" lon="3.24813">
        <ele>27</ele>
        <time>2023-01-22T09:48:44Z</time>
      </trkpt>
      <trkpt lat="50.35718" lon="3.24813">
        <ele>27</ele>
        <time>2023-01-22T09:48:45Z</time>
      </trkpt>
      <trkpt lat="50.35719" lon="3.24815">
        <ele>27</ele>
        <time>2023-01-22T09:48:46Z</time>
      </trkpt>
      <trkpt lat="50.3572" lon="3.24816">
        <ele>27</ele>
        <time>2023-01-22T09:48:47Z</time>
      </trkpt>
      <trkpt lat="50.35721" lon="3.24818">
        <ele>27</ele>
        <time>2023-01-22T09:48:48Z</time>
      </trkpt>
      <trkpt lat="50.35722" lon="3.24819">
        <ele>27</ele>
        <time>2023-01-22T09:48:49Z</time>
      </trkpt>
      <trkpt lat="50.35723" lon="3.2482">
        <ele>18.873755</ele>
        <time>2023-01-22T09:48:50Z</time>
      </trkpt>
      <trkpt lat="50.35724" lon="3.24822">
        <ele>27</ele>
        <time>2023-01-22T09:48:51Z</time>
      </trkpt>
      <trkpt lat="50.35725" lon="3.24822">
        <ele>27</ele>
        <time>2023-01-22T09:48:52Z</time>
      </trkpt>
      <trkpt lat="50.35726" lon="3.24823">
        <ele>27</ele>
        <time>2023-01-22T09:48:53Z</time>
      </trkpt>
      <trkpt lat="50.35727" lon="3.24825">
        <ele>27</ele>
        <time>2023-01-22T09:48:54Z</time>
      </trkpt>
      <trkpt lat="50.35727" lon="3.24827">
        <ele>27</ele>
        <time>2023-01-22T09:48:55Z</time>
      </trkpt>
      <trkpt lat="50.35728" lon="3.24828">
        <ele>27</ele>
        <time>2023-01-22T09:48:56Z</time>
      </trkpt>
      <trkpt lat="50.35729" lon="3.2483">
        <ele>27</ele>
        <time>2023-01-22T09:48:57Z</time>
      </trkpt>
      <trkpt lat="50.3573" lon="3.24831">
        <ele>27</ele>
        <time>2023-01-22T09:48:58Z</time>
      </trkpt>
      <trkpt lat="50.35731" lon="3.24832">
        <ele>27</ele>
        <time>2023-01-22T09:48:59Z</time>
        <extensions>
          <gpxtpx:TrackPointExtension xmlns:gpxtpx="http://www.garmin.com/xmlschemas/TrackPointExtension/v1">
            <gpxtpx:hr>115</gpxtpx:hr>
          </gpxtpx:TrackPointExtension>
        </extensions>
      </trkpt>
      <trkpt lat="50.35732" lon="3.24833">
        <ele>18.764679</ele>
        <time>2023-01-22T09:49:00Z</time>
      </trkpt>
      <trkpt lat="50.35732" lon="3.24834">
        <ele>27</ele>
        <time>2023-01-22T09:49:01Z</time>
      </trkpt>
      <trkpt lat="50.35733" lon="3.24835">
        <ele>27</ele>
        <time>2023-01-22T09:49:02Z</time>
      </trkpt>
      <trkpt lat="50.35734" lon="3.24836">
        <ele>27</ele>
        <time>2023-01-22T09:49:03Z</time>
      </trkpt>
      <trkpt lat="50.35735" lon="3.24837">
        <ele>27</ele>
        <time>2023-01-22T09:49:04Z</time>
      </trkpt>
      <trkpt lat="50.35736" lon="3.24839">
        <ele>27</ele>
        <time>2023-01-22T09:49:05Z</time>
      </trkpt>
      <trkpt lat="50.35737" lon="3.24841">
        <ele>27</ele>
        <time>2023-01-22T09:49:06Z</time>
      </trkpt>
      <trkpt lat="50.35738" lon="3.24842">
        <ele>27</ele>
        <time>2023-01-22T09:49:07Z</time>
      </trkpt>
      <trkpt lat="50.35739" lon="3.24843">
        <ele>27</ele>
        <time>2023-01-22T09:49:08Z</time>
      </trkpt>
      <trkpt lat="50.3574" lon="3.24844">
        <ele>27</ele>
        <time>2023-01-22T09:49:09Z</time>
      </trkpt>
      <trkpt lat="50.35741" lon="3.24845">
        <ele>18.62051</ele>
        <time>2023-01-22T09:49:10Z</time>
      </trkpt>
      <trkpt lat="50.35742" lon="3.24845">
        <ele>27</ele>
        <time>2023-01-22T09:49:11Z</time>
      </trkpt>
      <trkpt lat="50.35743" lon="3.24846">
        <ele>27</ele>
        <time>2023-01-22T09:49:12Z</time>
      </trkpt>
      <trkpt lat="50.35744" lon="3.24848">
        <ele>27</ele>
        <time>2023-01-22T09:49:13Z</time>
      </trkpt>
      <trkpt lat="50.35744" lon="3.24848">
        <ele>27</ele>
        <time>2023-01-22T09:49:14Z</time>
      </trkpt>
      <trkpt lat="50.35745" lon="3.2485">
        <ele>27</ele>
        <time>2023-01-22T09:49:15Z</time>
      </trkpt>
      <trkpt lat="50.35746" lon="3.24851">
        <ele>27</ele>
        <time>2023-01-22T09:49:16Z</time>
      </trkpt>
      <trkpt lat="50.35747" lon="3.24852">
        <ele>27</ele>
        <time>2023-01-22T09:49:17Z</time>
      </trkpt>
      <trkpt lat="50.35748" lon="3.24853">
        <ele>27</ele>
        <time>2023-01-22T09:49:18Z</time>
      </trkpt>
      <trkpt lat="50.35749" lon="3.24855">
        <ele>27</ele>
        <time>2023-01-22T09:49:19Z</time>
        <extensions>
          <gpxtpx:TrackPointExtension xmlns:gpxtpx="http://www.garmin.com/xmlschemas/TrackPointExtension/v1">
            <gpxtpx:hr>113</gpxtpx:hr>
          </gpxtpx:TrackPointExtension>
        </extensions>
      </trkpt>
      <trkpt lat="50.3575" lon="3.24857">
        <ele>18.754246</ele>
        <time>2023-01-22T09:49:20Z</time>
      </trkpt>
      <trkpt lat="50.35751" lon="3.24858">
        <ele>27</ele>
        <time>2023-01-22T09:49:21Z</time>
      </trkpt>
      <trkpt lat="50.35753" lon="3.24859">
        <ele>26.9</ele>
        <time>2023-01-22T09:49:22Z</time>
      </trkpt>
      <trkpt lat="50.35754" lon="3.24861">
        <ele>26.9</ele>
        <time>2023-01-22T09:49:23Z</time>
      </trkpt>
      <trkpt lat="50.35755" lon="3.24862">
        <ele>26.8</ele>
        <time>2023-01-22T09:49:24Z</time>
      </trkpt>
      <trkpt lat="50.35756" lon="3.24864">
        <ele>26.8</ele>
        <time>2023-01-22T09:49:25Z</time>
      </trkpt>
      <trkpt lat="50.35757" lon="3.24865">
        <ele>26.8</ele>
        <time>2023-01-22T09:49:26Z</time>
      </trkpt>
      <trkpt lat="50.35758" lon="3.24866">
        <ele>26.7</ele>
        <time>2023-01-22T09:49:27Z</time>
      </trkpt>
      <trkpt lat="50.35759" lon="3.24868">
        <ele>26.7</ele>
        <time>2023-01-22T09:49:28Z</time>
      </trkpt>
      <trkpt lat="50.35761" lon="3.2487">
        <ele>26.6</ele>
        <time>2023-01-22T09:49:29Z</time>
      </trkpt>
      <trkpt lat="50.35762" lon="3.24871">
        <ele>18.380548</ele>
        <time>2023-01-22T09:49:30Z</time>
      </trkpt>
      <trkpt lat="50.35763" lon="3.24872">
        <ele>26.5</ele>
        <time>2023-01-22T09:49:31Z</time>
      </trkpt>
      <trkpt lat="50.35764" lon="3.24874">
        <ele>26.5</ele>
        <time>2023-01-22T09:49:32Z</time>
      </trkpt>
      <trkpt lat="50.35765" lon="3.24875">
        <ele>26.5</ele>
        <time>2023-01-22T09:49:33Z</time>
      </trkpt>
      <trkpt lat="50.35766" lon="3.24876">
        <ele>26.4</ele>
        <time>2023-01-22T09:49:34Z</time>
      </trkpt>
      <trkpt lat="50.35768" lon="3.24878">
        <ele>26.4</ele>
        <time>2023-01-22T09:49:35Z</time>
      </trkpt>
      <trkpt lat="50.35769" lon="3.24879">
        <ele>26.3</ele>
        <time>2023-01-22T09:49:36Z</time>
      </trkpt>
      <trkpt lat="50.3577" lon="3.24881">
        <ele>26.3</ele>
        <time>2023-01-22T09:49:37Z</time>
      </trkpt>
      <trkpt lat="50.35772" lon="3.24882">
        <ele>26.2</ele>
        <time>2023-01-22T09:49:38Z</time>
      </trkpt>
      <trkpt lat="50.35773" lon="3.24884">
        <ele>26.2</ele>
        <time>2023-01-22T09:49:39Z</time>
        <extensions>
          <gpxtpx:TrackPointExtension xmlns:gpxtpx="http://www.garmin.com/xmlschemas/TrackPointExtension/v1">
            <gpxtpx:hr>120</gpxtpx:hr>
          </gpxtpx:TrackPointExtension>
        </extensions>
      </trkpt>
      <trkpt lat="50.35774" lon="3.24885">
        <ele>18.309414</ele>
        <time>2023-01-22T09:49:40Z</time>
      </trkpt>
      <trkpt lat="50.35775" lon="3.24887">
        <ele>26.1</ele>
        <time>2023-01-22T09:49:41Z</time>
      </trkpt>
      <trkpt lat="50.35776" lon="3.24888">
        <ele>26.1</ele>
        <time>2023-01-22T09:49:42Z</time>
      </trkpt>
      <trkpt lat="50.35777" lon="3.2489">
        <ele>26</ele>
        <time>2023-01-22T09:49:43Z</time>
      </trkpt>
      <trkpt lat="50.35778" lon="3.24891">
        <ele>26</ele>
        <time>2023-01-22T09:49:44Z</time>
      </trkpt>
      <trkpt lat="50.35779" lon="3.24893">
        <ele>26</ele>
        <time>2023-01-22T09:49:45Z</time>
      </trkpt>
      <trkpt lat="50.3578" lon="3.24895">
        <ele>26</ele>
        <time>2023-01-22T09:49:46Z</time>
      </trkpt>
      <trkpt lat="50.35782" lon="3.24897">
        <ele>26</ele>
        <time>2023-01-22T09:49:47Z</time>
      </trkpt>
      <trkpt lat="50.35783" lon="3.24899">
        <ele>26</ele>
        <time>2023-01-22T09:49:48Z</time>
      </trkpt>
      <trkpt lat="50.35784" lon="3.24901">
        <ele>26</ele>
        <time>2023-01-22T09:49:49Z</time>
      </trkpt>
      <trkpt lat="50.35784" lon="3.24902">
        <ele>18.258198</ele>
        <time>2023-01-22T09:49:50Z</time>
      </trkpt>
      <trkpt lat="50.35784" lon="3.24902">
        <ele>26</ele>
        <time>2023-01-22T09:49:51Z</time>
      </trkpt>
      <trkpt lat="50.35785" lon="3.24903">
        <ele>26</ele>
        <time>2023-01-22T09:49:52Z</time>
      </trkpt>
      <trkpt lat="50.35785" lon="3.24903">
        <ele>26</ele>
        <time>2023-01-22T09:49:53Z</time>
      </trkpt>
      <trkpt lat="50.35786" lon="3.24904">
        <ele>26</ele>
        <time>2023-01-22T09:49:54Z</time>
      </trkpt>
      <trkpt lat="50.35786" lon="3.24904">
        <ele>26</ele>
        <time>2023-01-22T09:49:55Z</time>
      </trkpt>
      <trkpt lat="50.35786" lon="3.24905">
        <ele>26</ele>
        <time>2023-01-22T09:49:56Z</time>
      </trkpt>
      <trkpt lat="50.35787" lon="3.24906">
        <ele>26</ele>
        <time>2023-01-22T09:49:57Z</time>
      </trkpt>
      <trkpt lat="50.35788" lon="3.24907">
        <ele>26</ele>
        <time>2023-01-22T09:49:58Z</time>
      </trkpt>
      <trkpt lat="50.35789" lon="3.24908">
        <ele>26</ele>
        <time>2023-01-22T09:49:59Z</time>
        <extensions>
          <gpxtpx:TrackPointExtension xmlns:gpxtpx="http://www.garmin.com/xmlschemas/TrackPointExtension/v1">
            <gpxtpx:hr>126</gpxtpx:hr>
          </gpxtpx:TrackPointExtension>
        </extensions>
      </trkpt>
      <trkpt lat="50.3579" lon="3.24909">
        <ele>26</ele>
        <time>2023-01-22T09:50:00Z</time>
      </trkpt>
      <trkpt lat="50.3579" lon="3.24909">
        <ele>26</ele>
        <time>2023-01-22T09:50:01Z</time>
      </trkpt>
      <trkpt lat="50.3579" lon="3.2491">
        <ele>26</ele>
        <time>2023-01-22T09:50:02Z</time>
      </trkpt>
      <trkpt lat="50.35791" lon="3.24911">
        <ele>26</ele>
        <time>2023-01-22T09:50:03Z</time>
      </trkpt>
      <trkpt lat="50.35792" lon="3.24912">
        <ele>26</ele>
        <time>2023-01-22T09:50:04Z</time>
      </trkpt>
      <trkpt lat="50.35793" lon="3.24912">
        <ele>18.06661</ele>
        <time>2023-01-22T09:50:05Z</time>
      </trkpt>
      <trkpt lat="50.35794" lon="3.24913">
        <ele>26</ele>
        <time>2023-01-22T09:50:06Z</time>
      </trkpt>
      <trkpt lat="50.35794" lon="3.24914">
        <ele>26</ele>
        <time>2023-01-22T09:50:07Z</time>
      </trkpt>
      <trkpt lat="50.35795" lon="3.24914">
        <ele>26</ele>
        <time>2023-01-22T09:50:08Z</time>
      </trkpt>
      <trkpt lat="50.35796" lon="3.24914">
        <ele>26</ele>
        <time>2023-01-22T09:50:09Z</time>
      </trkpt>
      <trkpt lat="50.35796" lon="3.24915">
        <ele>17.913912</ele>
        <time>2023-01-22T09:50:10Z</time>
      </trkpt>
      <trkpt lat="50.35797" lon="3.24916">
        <ele>26</ele>
        <time>2023-01-22T09:50:11Z</time>
      </trkpt>
      <trkpt lat="50.35798" lon="3.24917">
        <ele>26</ele>
        <time>2023-01-22T09:50:12Z</time>
      </trkpt>
      <trkpt lat="50.35799" lon="3.24918">
        <ele>25.9</ele>
        <time>2023-01-22T09:50:13Z</time>
      </trkpt>
      <trkpt lat="50.35799" lon="3.24919">
        <ele>25.9</ele>
        <time>2023-01-22T09:50:14Z</time>
      </trkpt>
      <trkpt lat="50.358" lon="3.2492">
        <ele>25.9</ele>
        <time>2023-01-22T09:50:15Z</time>
      </trkpt>
      <trkpt lat="50.35801" lon="3.24921">
        <ele>25.9</ele>
        <time>2023-01-22T09:50:16Z</time>
      </trkpt>
      <trkpt lat="50.35802" lon="3.24922">
        <ele>25.8</ele>
        <time>2023-01-22T09:50:17Z</time>
      </trkpt>
      <trkpt lat="50.35803" lon="3.24924">
        <ele>25.8</ele>
        <time>2023-01-22T09:50:18Z</time>
      </trkpt>
      <trkpt lat="50.35803" lon="3.24924">
        <ele>25.7</ele>
        <time>2023-01-22T09:50:19Z</time>
        <extensions>
          <gpxtpx:TrackPointExtension xmlns:gpxtpx="http://www.garmin.com/xmlschemas/TrackPointExtension/v1">
            <gpxtpx:hr>119</gpxtpx:hr>
          </gpxtpx:TrackPointExtension>
        </extensions>
      </trkpt>
      <trkpt lat="50.35805" lon="3.24925">
        <ele>17.828552</ele>
        <time>2023-01-22T09:50:20Z</time>
      </trkpt>
      <trkpt lat="50.35806" lon="3.24925">
        <ele>25.7</ele>
        <time>2023-01-22T09:50:21Z</time>
      </trkpt>
      <trkpt lat="50.35808" lon="3.24925">
        <ele>25.6</ele>
        <time>2023-01-22T09:50:22Z</time>
      </trkpt>
      <trkpt lat="50.3581" lon="3.24925">
        <ele>25.6</ele>
        <time>2023-01-22T09:50:23Z</time>
      </trkpt>
      <trkpt lat="50.35811" lon="3.24925">
        <ele>25.6</ele>
        <time>2023-01-22T09:50:24Z</time>
      </trkpt>
      <trkpt lat="50.35812" lon="3.24926">
        <ele>25.5</ele>
        <time>2023-01-22T09:50:25Z</time>
      </trkpt>
      <trkpt lat="50.35814" lon="3.24926">
        <ele>25.5</ele>
        <time>2023-01-22T09:50:26Z</time>
      </trkpt>
      <trkpt lat="50.35815" lon="3.24926">
        <ele>25.5</ele>
        <time>2023-01-22T09:50:27Z</time>
      </trkpt>
      <trkpt lat="50.35816" lon="3.24926">
        <ele>25.4</ele>
        <time>2023-01-22T09:50:28Z</time>
      </trkpt>
      <trkpt lat="50.35818" lon="3.24925">
        <ele>25.4</ele>
        <time>2023-01-22T09:50:29Z</time>
      </trkpt>
      <trkpt lat="50.3582" lon="3.24925">
        <ele>17.722328</ele>
        <time>2023-01-22T09:50:30Z</time>
      </trkpt>
      <trkpt lat="50.3582" lon="3.24926">
        <ele>25.3</ele>
        <time>2023-01-22T09:50:31Z</time>
      </trkpt>
      <trkpt lat="50.3582" lon="3.24926">
        <ele>25.3</ele>
        <time>2023-01-22T09:50:32Z</time>
      </trkpt>
      <trkpt lat="50.3582" lon="3.24927">
        <ele>25.3</ele>
        <time>2023-01-22T09:50:33Z</time>
      </trkpt>
      <trkpt lat="50.35821" lon="3.24927">
        <ele>25.3</ele>
        <time>2023-01-22T09:50:34Z</time>
      </trkpt>
      <trkpt lat="50.35821" lon="3.24927">
        <ele>25.3</ele>
        <time>2023-01-22T09:50:35Z</time>
      </trkpt>
      <trkpt lat="50.35821" lon="3.24927">
        <ele>25.3</ele>
        <time>2023-01-22T09:50:36Z</time>
      </trkpt>
      <trkpt lat="50.35821" lon="3.24927">
        <ele>25.3</ele>
        <time>2023-01-22T09:50:37Z</time>
      </trkpt>
      <trkpt lat="50.35821" lon="3.24927">
        <ele>25.3</ele>
        <time>2023-01-22T09:50:38Z</time>
      </trkpt>
      <trkpt lat="50.35821" lon="3.24927">
        <ele>25.3</ele>
        <time>2023-01-22T09:50:39Z</time>
        <extensions>
          <gpxtpx:TrackPointExtension xmlns:gpxtpx="http://www.garmin.com/xmlschemas/TrackPointExtension/v1">
            <gpxtpx:hr>114</gpxtpx:hr>
          </gpxtpx:TrackPointExtension>
        </extensions>
      </trkpt>
      <trkpt lat="50.35821" lon="3.24927">
        <ele>17.875027</ele>
        <time>2023-01-22T09:50:40Z</time>
      </trkpt>
      <trkpt lat="50.35821" lon="3.24927">
        <ele>25.3</ele>
        <time>2023-01-22T09:50:41Z</time>
      </trkpt>
      <trkpt lat="50.3582" lon="3.24927">
        <ele>25.3</ele>
        <time>2023-01-22T09:50:42Z</time>
      </trkpt>
      <trkpt lat="50.35821" lon="3.24927">
        <ele>25.3</ele>
        <time>2023-01-22T09:50:43Z</time>
      </trkpt>
      <trkpt lat="50.35821" lon="3.24927">
        <ele>25.3</ele>
        <time>2023-01-22T09:50:44Z</time>
      </trkpt>
      <trkpt lat="50.35821" lon="3.24927">
        <ele>25.3</ele>
        <time>2023-01-22T09:50:45Z</time>
      </trkpt>
      <trkpt lat="50.35821" lon="3.24927">
        <ele>25.3</ele>
        <time>2023-01-22T09:50:46Z</time>
      </trkpt>
      <trkpt lat="50.35821" lon="3.24927">
        <ele>25.3</ele>
        <time>2023-01-22T09:50:47Z</time>
      </trkpt>
      <trkpt lat="50.35821" lon="3.24927">
        <ele>25.3</ele>
        <time>2023-01-22T09:50:48Z</time>
      </trkpt>
      <trkpt lat="50.35821" lon="3.24927">
        <ele>25.3</ele>
        <time>2023-01-22T09:50:49Z</time>
      </trkpt>
      <trkpt lat="50.35821" lon="3.24927">
        <ele>17.852262</ele>
        <time>2023-01-22T09:50:50Z</time>
      </trkpt>
      <trkpt lat="50.35821" lon="3.24927">
        <ele>25.3</ele>
        <time>2023-01-22T09:50:51Z</time>
      </trkpt>
      <trkpt lat="50.35821" lon="3.24927">
        <ele>25.3</ele>
        <time>2023-01-22T09:50:52Z</time>
      </trkpt>
      <trkpt lat="50.35821" lon="3.24927">
        <ele>25.3</ele>
        <time>2023-01-22T09:50:53Z</time>
      </trkpt>
      <trkpt lat="50.35821" lon="3.24927">
        <ele>25.3</ele>
        <time>2023-01-22T09:50:54Z</time>
      </trkpt>
      <trkpt lat="50.35821" lon="3.24927">
        <ele>25.3</ele>
        <time>2023-01-22T09:50:55Z</time>
      </trkpt>
      <trkpt lat="50.35821" lon="3.24927">
        <ele>25.3</ele>
        <time>2023-01-22T09:50:56Z</time>
      </trkpt>
      <trkpt lat="50.35821" lon="3.24927">
        <ele>25.3</ele>
        <time>2023-01-22T09:50:57Z</time>
      </trkpt>
      <trkpt lat="50.35821" lon="3.24927">
        <ele>25.3</ele>
        <time>2023-01-22T09:50:58Z</time>
      </trkpt>
      <trkpt lat="50.35821" lon="3.24927">
        <ele>25.3</ele>
        <time>2023-01-22T09:50:59Z</time>
        <extensions>
          <gpxtpx:TrackPointExtension xmlns:gpxtpx="http://www.garmin.com/xmlschemas/TrackPointExtension/v1">
            <gpxtpx:hr>122</gpxtpx:hr>
          </gpxtpx:TrackPointExtension>
        </extensions>
      </trkpt>
      <trkpt lat="50.35821" lon="3.24927">
        <ele>17.875027</ele>
        <time>2023-01-22T09:51:00Z</time>
      </trkpt>
      <trkpt lat="50.35821" lon="3.24927">
        <ele>25.3</ele>
        <time>2023-01-22T09:51:01Z</time>
      </trkpt>
      <trkpt lat="50.35821" lon="3.24927">
        <ele>25.3</ele>
        <time>2023-01-22T09:51:02Z</time>
      </trkpt>
      <trkpt lat="50.35821" lon="3.24927">
        <ele>25.3</ele>
        <time>2023-01-22T09:51:03Z</time>
      </trkpt>
      <trkpt lat="50.35821" lon="3.24927">
        <ele>25.3</ele>
        <time>2023-01-22T09:51:04Z</time>
      </trkpt>
      <trkpt lat="50.35821" lon="3.24927">
        <ele>25.3</ele>
        <time>2023-01-22T09:51:05Z</time>
      </trkpt>
      <trkpt lat="50.35821" lon="3.24927">
        <ele>25.3</ele>
        <time>2023-01-22T09:51:06Z</time>
      </trkpt>
      <trkpt lat="50.35821" lon="3.24927">
        <ele>25.3</ele>
        <time>2023-01-22T09:51:07Z</time>
      </trkpt>
      <trkpt lat="50.35821" lon="3.24927">
        <ele>25.3</ele>
        <time>2023-01-22T09:51:08Z</time>
      </trkpt>
      <trkpt lat="50.35821" lon="3.24927">
        <ele>25.3</ele>
        <time>2023-01-22T09:51:09Z</time>
      </trkpt>
      <trkpt lat="50.35821" lon="3.24928">
        <ele>17.820965</ele>
        <time>2023-01-22T09:51:10Z</time>
      </trkpt>
      <trkpt lat="50.35821" lon="3.24927">
        <ele>25.3</ele>
        <time>2023-01-22T09:51:11Z</time>
      </trkpt>
      <trkpt lat="50.35821" lon="3.24927">
        <ele>25.3</ele>
        <time>2023-01-22T09:51:12Z</time>
      </trkpt>
      <trkpt lat="50.35821" lon="3.24927">
        <ele>25.3</ele>
        <time>2023-01-22T09:51:13Z</time>
      </trkpt>
      <trkpt lat="50.35821" lon="3.24927">
        <ele>25.3</ele>
        <time>2023-01-22T09:51:14Z</time>
      </trkpt>
      <trkpt lat="50.35821" lon="3.24927">
        <ele>25.3</ele>
        <time>2023-01-22T09:51:15Z</time>
      </trkpt>
      <trkpt lat="50.35821" lon="3.24927">
        <ele>25.3</ele>
        <time>2023-01-22T09:51:16Z</time>
      </trkpt>
      <trkpt lat="50.35821" lon="3.24927">
        <ele>25.3</ele>
        <time>2023-01-22T09:51:17Z</time>
      </trkpt>
      <trkpt lat="50.35821" lon="3.24926">
        <ele>25.3</ele>
        <time>2023-01-22T09:51:18Z</time>
      </trkpt>
      <trkpt lat="50.35821" lon="3.24925">
        <ele>25.3</ele>
        <time>2023-01-22T09:51:19Z</time>
        <extensions>
          <gpxtpx:TrackPointExtension xmlns:gpxtpx="http://www.garmin.com/xmlschemas/TrackPointExtension/v1">
            <gpxtpx:hr>124</gpxtpx:hr>
          </gpxtpx:TrackPointExtension>
        </extensions>
      </trkpt>
      <trkpt lat="50.35822" lon="3.24924">
        <ele>17.874077</ele>
        <time>2023-01-22T09:51:20Z</time>
      </trkpt>
      <trkpt lat="50.35822" lon="3.24924">
        <ele>25.3</ele>
        <time>2023-01-22T09:51:21Z</time>
      </trkpt>
      <trkpt lat="50.35823" lon="3.24923">
        <ele>25.3</ele>
        <time>2023-01-22T09:51:22Z</time>
      </trkpt>
      <trkpt lat="50.35823" lon="3.24922">
        <ele>25.3</ele>
        <time>2023-01-22T09:51:23Z</time>
      </trkpt>
      <trkpt lat="50.35824" lon="3.24921">
        <ele>25.3</ele>
        <time>2023-01-22T09:51:24Z</time>
      </trkpt>
      <trkpt lat="50.35825" lon="3.24919">
        <ele>25.3</ele>
        <time>2023-01-22T09:51:25Z</time>
      </trkpt>
      <trkpt lat="50.35827" lon="3.24918">
        <ele>25.2</ele>
        <time>2023-01-22T09:51:26Z</time>
      </trkpt>
      <trkpt lat="50.35828" lon="3.24917">
        <ele>25.2</ele>
        <time>2023-01-22T09:51:27Z</time>
      </trkpt>
      <trkpt lat="50.3583" lon="3.24916">
        <ele>25.1</ele>
        <time>2023-01-22T09:51:28Z</time>
      </trkpt>
      <trkpt lat="50.35831" lon="3.24916">
        <ele>25.1</ele>
        <time>2023-01-22T09:51:29Z</time>
      </trkpt>
      <trkpt lat="50.35832" lon="3.24915">
        <ele>17.8295</ele>
        <time>2023-01-22T09:51:30Z</time>
      </trkpt>
      <trkpt lat="50.35833" lon="3.24914">
        <ele>25</ele>
        <time>2023-01-22T09:51:31Z</time>
      </trkpt>
      <trkpt lat="50.35834" lon="3.24913">
        <ele>25</ele>
        <time>2023-01-22T09:51:32Z</time>
      </trkpt>
      <trkpt lat="50.35835" lon="3.24913">
        <ele>25</ele>
        <time>2023-01-22T09:51:33Z</time>
      </trkpt>
      <trkpt lat="50.35836" lon="3.24912">
        <ele>25</ele>
        <time>2023-01-22T09:51:34Z</time>
      </trkpt>
      <trkpt lat="50.35838" lon="3.24911">
        <ele>25</ele>
        <time>2023-01-22T09:51:35Z</time>
      </trkpt>
      <trkpt lat="50.3584" lon="3.24911">
        <ele>25</ele>
        <time>2023-01-22T09:51:36Z</time>
      </trkpt>
      <trkpt lat="50.35842" lon="3.2491">
        <ele>25</ele>
        <time>2023-01-22T09:51:37Z</time>
      </trkpt>
      <trkpt lat="50.35843" lon="3.24909">
        <ele>25</ele>
        <time>2023-01-22T09:51:38Z</time>
      </trkpt>
      <trkpt lat="50.35844" lon="3.24908">
        <ele>25</ele>
        <time>2023-01-22T09:51:39Z</time>
        <extensions>
          <gpxtpx:TrackPointExtension xmlns:gpxtpx="http://www.garmin.com/xmlschemas/TrackPointExtension/v1">
            <gpxtpx:hr>123</gpxtpx:hr>
          </gpxtpx:TrackPointExtension>
        </extensions>
      </trkpt>
      <trkpt lat="50.35846" lon="3.24908">
        <ele>17.635073</ele>
        <time>2023-01-22T09:51:40Z</time>
      </trkpt>
      <trkpt lat="50.35847" lon="3.24909">
        <ele>25</ele>
        <time>2023-01-22T09:51:41Z</time>
      </trkpt>
      <trkpt lat="50.35848" lon="3.2491">
        <ele>25</ele>
        <time>2023-01-22T09:51:42Z</time>
      </trkpt>
      <trkpt lat="50.35849" lon="3.24911">
        <ele>25</ele>
        <time>2023-01-22T09:51:43Z</time>
      </trkpt>
      <trkpt lat="50.35851" lon="3.24913">
        <ele>25</ele>
        <time>2023-01-22T09:51:44Z</time>
      </trkpt>
      <trkpt lat="50.35851" lon="3.24914">
        <ele>25</ele>
        <time>2023-01-22T09:51:45Z</time>
      </trkpt>
      <trkpt lat="50.35852" lon="3.24916">
        <ele>25</ele>
        <time>2023-01-22T09:51:46Z</time>
      </trkpt>
      <trkpt lat="50.35854" lon="3.24916">
        <ele>25</ele>
        <time>2023-01-22T09:51:47Z</time>
      </trkpt>
      <trkpt lat="50.35854" lon="3.24917">
        <ele>25</ele>
        <time>2023-01-22T09:51:48Z</time>
      </trkpt>
      <trkpt lat="50.35856" lon="3.24918">
        <ele>25</ele>
        <time>2023-01-22T09:51:49Z</time>
      </trkpt>
      <trkpt lat="50.35857" lon="3.24919">
        <ele>17.644556</ele>
        <time>2023-01-22T09:51:50Z</time>
      </trkpt>
      <trkpt lat="50.35858" lon="3.24921">
        <ele>25</ele>
        <time>2023-01-22T09:51:51Z</time>
      </trkpt>
      <trkpt lat="50.35859" lon="3.24921">
        <ele>25</ele>
        <time>2023-01-22T09:51:52Z</time>
      </trkpt>
      <trkpt lat="50.3586" lon="3.24922">
        <ele>25</ele>
        <time>2023-01-22T09:51:53Z</time>
      </trkpt>
      <trkpt lat="50.35861" lon="3.24923">
        <ele>25</ele>
        <time>2023-01-22T09:51:54Z</time>
      </trkpt>
      <trkpt lat="50.35862" lon="3.24923">
        <ele>25</ele>
        <time>2023-01-22T09:51:55Z</time>
      </trkpt>
      <trkpt lat="50.35863" lon="3.24923">
        <ele>25</ele>
        <time>2023-01-22T09:51:56Z</time>
      </trkpt>
      <trkpt lat="50.35864" lon="3.24924">
        <ele>25</ele>
        <time>2023-01-22T09:51:57Z</time>
      </trkpt>
      <trkpt lat="50.35865" lon="3.24924">
        <ele>25</ele>
        <time>2023-01-22T09:51:58Z</time>
      </trkpt>
      <trkpt lat="50.35865" lon="3.24924">
        <ele>25</ele>
        <time>2023-01-22T09:51:59Z</time>
        <extensions>
          <gpxtpx:TrackPointExtension xmlns:gpxtpx="http://www.garmin.com/xmlschemas/TrackPointExtension/v1">
            <gpxtpx:hr>120</gpxtpx:hr>
          </gpxtpx:TrackPointExtension>
        </extensions>
      </trkpt>
      <trkpt lat="50.35866" lon="3.24925">
        <ele>17.671112</ele>
        <time>2023-01-22T09:52:00Z</time>
      </trkpt>
      <trkpt lat="50.35867" lon="3.24926">
        <ele>25</ele>
        <time>2023-01-22T09:52:01Z</time>
      </trkpt>
      <trkpt lat="50.35867" lon="3.24927">
        <ele>25</ele>
        <time>2023-01-22T09:52:02Z</time>
      </trkpt>
      <trkpt lat="50.35868" lon="3.24928">
        <ele>25</ele>
        <time>2023-01-22T09:52:03Z</time>
      </trkpt>
      <trkpt lat="50.35869" lon="3.2493">
        <ele>25</ele>
        <time>2023-01-22T09:52:04Z</time>
      </trkpt>
      <trkpt lat="50.3587" lon="3.24931">
        <ele>25</ele>
        <time>2023-01-22T09:52:05Z</time>
      </trkpt>
      <trkpt lat="50.35872" lon="3.24932">
        <ele>25</ele>
        <time>2023-01-22T09:52:06Z</time>
      </trkpt>
      <trkpt lat="50.35873" lon="3.24933">
        <ele>25</ele>
        <time>2023-01-22T09:52:07Z</time>
      </trkpt>
      <trkpt lat="50.35874" lon="3.24935">
        <ele>25</ele>
        <time>2023-01-22T09:52:08Z</time>
      </trkpt>
      <trkpt lat="50.35875" lon="3.24936">
        <ele>25</ele>
        <time>2023-01-22T09:52:09Z</time>
      </trkpt>
      <trkpt lat="50.35877" lon="3.24937">
        <ele>17.470047</ele>
        <time>2023-01-22T09:52:10Z</time>
      </trkpt>
      <trkpt lat="50.35878" lon="3.24938">
        <ele>25</ele>
        <time>2023-01-22T09:52:11Z</time>
      </trkpt>
      <trkpt lat="50.35878" lon="3.24939">
        <ele>25</ele>
        <time>2023-01-22T09:52:12Z</time>
      </trkpt>
      <trkpt lat="50.35878" lon="3.2494">
        <ele>25</ele>
        <time>2023-01-22T09:52:13Z</time>
      </trkpt>
      <trkpt lat="50.35879" lon="3.24942">
        <ele>25</ele>
        <time>2023-01-22T09:52:14Z</time>
      </trkpt>
      <trkpt lat="50.3588" lon="3.24943">
        <ele>25</ele>
        <time>2023-01-22T09:52:15Z</time>
      </trkpt>
      <trkpt lat="50.3588" lon="3.24944">
        <ele>25</ele>
        <time>2023-01-22T09:52:16Z</time>
      </trkpt>
      <trkpt lat="50.35881" lon="3.24945">
        <ele>25</ele>
        <time>2023-01-22T09:52:17Z</time>
      </trkpt>
      <trkpt lat="50.35883" lon="3.24947">
        <ele>25</ele>
        <time>2023-01-22T09:52:18Z</time>
      </trkpt>
      <trkpt lat="50.35884" lon="3.24948">
        <ele>25</ele>
        <time>2023-01-22T09:52:19Z</time>
        <extensions>
          <gpxtpx:TrackPointExtension xmlns:gpxtpx="http://www.garmin.com/xmlschemas/TrackPointExtension/v1">
            <gpxtpx:hr>116</gpxtpx:hr>
          </gpxtpx:TrackPointExtension>
        </extensions>
      </trkpt>
      <trkpt lat="50.35885" lon="3.2495">
        <ele>17.296488</ele>
        <time>2023-01-22T09:52:20Z</time>
      </trkpt>
      <trkpt lat="50.35886" lon="3.24952">
        <ele>25</ele>
        <time>2023-01-22T09:52:21Z</time>
      </trkpt>
      <trkpt lat="50.35888" lon="3.24953">
        <ele>25</ele>
        <time>2023-01-22T09:52:22Z</time>
      </trkpt>
      <trkpt lat="50.35889" lon="3.24956">
        <ele>25</ele>
        <time>2023-01-22T09:52:23Z</time>
      </trkpt>
      <trkpt lat="50.3589" lon="3.24958">
        <ele>25</ele>
        <time>2023-01-22T09:52:24Z</time>
      </trkpt>
      <trkpt lat="50.35891" lon="3.2496">
        <ele>25</ele>
        <time>2023-01-22T09:52:25Z</time>
      </trkpt>
      <trkpt lat="50.35892" lon="3.24962">
        <ele>25</ele>
        <time>2023-01-22T09:52:26Z</time>
      </trkpt>
      <trkpt lat="50.35893" lon="3.24963">
        <ele>25</ele>
        <time>2023-01-22T09:52:27Z</time>
      </trkpt>
      <trkpt lat="50.35893" lon="3.24964">
        <ele>25</ele>
        <time>2023-01-22T09:52:28Z</time>
      </trkpt>
      <trkpt lat="50.35894" lon="3.24964">
        <ele>25</ele>
        <time>2023-01-22T09:52:29Z</time>
      </trkpt>
      <trkpt lat="50.35895" lon="3.24964">
        <ele>17.011965</ele>
        <time>2023-01-22T09:52:30Z</time>
      </trkpt>
      <trkpt lat="50.35895" lon="3.24965">
        <ele>25</ele>
        <time>2023-01-22T09:52:31Z</time>
      </trkpt>
      <trkpt lat="50.35896" lon="3.24965">
        <ele>25</ele>
        <time>2023-01-22T09:52:32Z</time>
      </trkpt>
      <trkpt lat="50.35896" lon="3.24966">
        <ele>25</ele>
        <time>2023-01-22T09:52:33Z</time>
      </trkpt>
      <trkpt lat="50.35897" lon="3.24966">
        <ele>25</ele>
        <time>2023-01-22T09:52:34Z</time>
      </trkpt>
      <trkpt lat="50.35897" lon="3.24967">
        <ele>25</ele>
        <time>2023-01-22T09:52:35Z</time>
      </trkpt>
      <trkpt lat="50.35898" lon="3.24967">
        <ele>25</ele>
        <time>2023-01-22T09:52:36Z</time>
      </trkpt>
      <trkpt lat="50.35897" lon="3.24969">
        <ele>25</ele>
        <time>2023-01-22T09:52:37Z</time>
      </trkpt>
      <trkpt lat="50.35899" lon="3.24971">
        <ele>25</ele>
        <time>2023-01-22T09:52:38Z</time>
      </trkpt>
      <trkpt lat="50.359" lon="3.24973">
        <ele>25</ele>
        <time>2023-01-22T09:52:39Z</time>
        <extensions>
          <gpxtpx:TrackPointExtension xmlns:gpxtpx="http://www.garmin.com/xmlschemas/TrackPointExtension/v1">
            <gpxtpx:hr>117</gpxtpx:hr>
          </gpxtpx:TrackPointExtension>
        </extensions>
      </trkpt>
      <trkpt lat="50.35901" lon="3.24974">
        <ele>16.824183</ele>
        <time>2023-01-22T09:52:40Z</time>
      </trkpt>
      <trkpt lat="50.35902" lon="3.24975">
        <ele>25</ele>
        <time>2023-01-22T09:52:41Z</time>
      </trkpt>
      <trkpt lat="50.35903" lon="3.24976">
        <ele>25</ele>
        <time>2023-01-22T09:52:42Z</time>
      </trkpt>
      <trkpt lat="50.35904" lon="3.24977">
        <ele>25</ele>
        <time>2023-01-22T09:52:43Z</time>
      </trkpt>
      <trkpt lat="50.35905" lon="3.24978">
        <ele>25</ele>
        <time>2023-01-22T09:52:44Z</time>
      </trkpt>
      <trkpt lat="50.35906" lon="3.24978">
        <ele>25</ele>
        <time>2023-01-22T09:52:45Z</time>
      </trkpt>
      <trkpt lat="50.35907" lon="3.24978">
        <ele>25</ele>
        <time>2023-01-22T09:52:46Z</time>
      </trkpt>
      <trkpt lat="50.35907" lon="3.24979">
        <ele>25</ele>
        <time>2023-01-22T09:52:47Z</time>
      </trkpt>
      <trkpt lat="50.35909" lon="3.24979">
        <ele>25</ele>
        <time>2023-01-22T09:52:48Z</time>
      </trkpt>
      <trkpt lat="50.3591" lon="3.24979">
        <ele>25</ele>
        <time>2023-01-22T09:52:49Z</time>
      </trkpt>
      <trkpt lat="50.35912" lon="3.24979">
        <ele>16.913332</ele>
        <time>2023-01-22T09:52:50Z</time>
      </trkpt>
      <trkpt lat="50.35912" lon="3.24978">
        <ele>25</ele>
        <time>2023-01-22T09:52:51Z</time>
      </trkpt>
      <trkpt lat="50.35914" lon="3.24978">
        <ele>25</ele>
        <time>2023-01-22T09:52:52Z</time>
      </trkpt>
      <trkpt lat="50.35915" lon="3.24977">
        <ele>25</ele>
        <time>2023-01-22T09:52:53Z</time>
      </trkpt>
      <trkpt lat="50.35917" lon="3.24977">
        <ele>25</ele>
        <time>2023-01-22T09:52:54Z</time>
      </trkpt>
      <trkpt lat="50.35919" lon="3.24977">
        <ele>25</ele>
        <time>2023-01-22T09:52:55Z</time>
      </trkpt>
      <trkpt lat="50.35921" lon="3.24977">
        <ele>25</ele>
        <time>2023-01-22T09:52:56Z</time>
      </trkpt>
      <trkpt lat="50.35923" lon="3.24977">
        <ele>25</ele>
        <time>2023-01-22T09:52:57Z</time>
      </trkpt>
      <trkpt lat="50.35925" lon="3.24977">
        <ele>25</ele>
        <time>2023-01-22T09:52:58Z</time>
      </trkpt>
      <trkpt lat="50.35926" lon="3.24975">
        <ele>25</ele>
        <time>2023-01-22T09:52:59Z</time>
        <extensions>
          <gpxtpx:TrackPointExtension xmlns:gpxtpx="http://www.garmin.com/xmlschemas/TrackPointExtension/v1">
            <gpxtpx:hr>118</gpxtpx:hr>
          </gpxtpx:TrackPointExtension>
        </extensions>
      </trkpt>
      <trkpt lat="50.35929" lon="3.24974">
        <ele>16.860222</ele>
        <time>2023-01-22T09:53:00Z</time>
      </trkpt>
      <trkpt lat="50.3593" lon="3.24972">
        <ele>25</ele>
        <time>2023-01-22T09:53:01Z</time>
      </trkpt>
      <trkpt lat="50.35932" lon="3.24971">
        <ele>25</ele>
        <time>2023-01-22T09:53:02Z</time>
      </trkpt>
      <trkpt lat="50.35934" lon="3.2497">
        <ele>25</ele>
        <time>2023-01-22T09:53:03Z</time>
      </trkpt>
      <trkpt lat="50.35935" lon="3.24969">
        <ele>25</ele>
        <time>2023-01-22T09:53:04Z</time>
      </trkpt>
      <trkpt lat="50.35937" lon="3.24968">
        <ele>25</ele>
        <time>2023-01-22T09:53:05Z</time>
      </trkpt>
      <trkpt lat="50.35938" lon="3.24967">
        <ele>25</ele>
        <time>2023-01-22T09:53:06Z</time>
      </trkpt>
      <trkpt lat="50.35939" lon="3.24966">
        <ele>25</ele>
        <time>2023-01-22T09:53:07Z</time>
      </trkpt>
      <trkpt lat="50.3594" lon="3.24965">
        <ele>25</ele>
        <time>2023-01-22T09:53:08Z</time>
      </trkpt>
      <trkpt lat="50.35941" lon="3.24964">
        <ele>25</ele>
        <time>2023-01-22T09:53:09Z</time>
      </trkpt>
      <trkpt lat="50.35943" lon="3.24964">
        <ele>17.36098</ele>
        <time>2023-01-22T09:53:10Z</time>
      </trkpt>
      <trkpt lat="50.35944" lon="3.24963">
        <ele>25</ele>
        <time>2023-01-22T09:53:11Z</time>
      </trkpt>
      <trkpt lat="50.35946" lon="3.24962">
        <ele>25</ele>
        <time>2023-01-22T09:53:12Z</time>
      </trkpt>
      <trkpt lat="50.35947" lon="3.24962">
        <ele>25</ele>
        <time>2023-01-22T09:53:13Z</time>
      </trkpt>
      <trkpt lat="50.35949" lon="3.24961">
        <ele>25</ele>
        <time>2023-01-22T09:53:14Z</time>
      </trkpt>
      <trkpt lat="50.3595" lon="3.24961">
        <ele>25</ele>
        <time>2023-01-22T09:53:15Z</time>
      </trkpt>
      <trkpt lat="50.35952" lon="3.2496">
        <ele>25</ele>
        <time>2023-01-22T09:53:16Z</time>
      </trkpt>
      <trkpt lat="50.35953" lon="3.2496">
        <ele>25</ele>
        <time>2023-01-22T09:53:17Z</time>
      </trkpt>
      <trkpt lat="50.35954" lon="3.24959">
        <ele>25</ele>
        <time>2023-01-22T09:53:18Z</time>
      </trkpt>
      <trkpt lat="50.35957" lon="3.24958">
        <ele>25</ele>
        <time>2023-01-22T09:53:19Z</time>
        <extensions>
          <gpxtpx:TrackPointExtension xmlns:gpxtpx="http://www.garmin.com/xmlschemas/TrackPointExtension/v1">
            <gpxtpx:hr>125</gpxtpx:hr>
          </gpxtpx:TrackPointExtension>
        </extensions>
      </trkpt>
      <trkpt lat="50.35959" lon="3.24957">
        <ele>25</ele>
        <time>2023-01-22T09:53:20Z</time>
      </trkpt>
      <trkpt lat="50.3596" lon="3.24956">
        <ele>25</ele>
        <time>2023-01-22T09:53:21Z</time>
      </trkpt>
      <trkpt lat="50.35962" lon="3.24955">
        <ele>25</ele>
        <time>2023-01-22T09:53:22Z</time>
      </trkpt>
      <trkpt lat="50.35963" lon="3.24954">
        <ele>25</ele>
        <time>2023-01-22T09:53:23Z</time>
      </trkpt>
      <trkpt lat="50.35964" lon="3.24953">
        <ele>25</ele>
        <time>2023-01-22T09:53:24Z</time>
      </trkpt>
      <trkpt lat="50.35965" lon="3.24952">
        <ele>17.33063</ele>
        <time>2023-01-22T09:53:25Z</time>
      </trkpt>
      <trkpt lat="50.35967" lon="3.24951">
        <ele>25</ele>
        <time>2023-01-22T09:53:26Z</time>
      </trkpt>
      <trkpt lat="50.35968" lon="3.24951">
        <ele>25</ele>
        <time>2023-01-22T09:53:27Z</time>
      </trkpt>
      <trkpt lat="50.3597" lon="3.2495">
        <ele>25</ele>
        <time>2023-01-22T09:53:28Z</time>
      </trkpt>
      <trkpt lat="50.35972" lon="3.24949">
        <ele>25</ele>
        <time>2023-01-22T09:53:29Z</time>
      </trkpt>
      <trkpt lat="50.35973" lon="3.24948">
        <ele>17.335371</ele>
        <time>2023-01-22T09:53:30Z</time>
      </trkpt>
      <trkpt lat="50.35975" lon="3.24947">
        <ele>25</ele>
        <time>2023-01-22T09:53:31Z</time>
      </trkpt>
      <trkpt lat="50.35976" lon="3.24946">
        <ele>25</ele>
        <time>2023-01-22T09:53:32Z</time>
      </trkpt>
      <trkpt lat="50.35978" lon="3.24945">
        <ele>25</ele>
        <time>2023-01-22T09:53:33Z</time>
      </trkpt>
      <trkpt lat="50.3598" lon="3.24943">
        <ele>25</ele>
        <time>2023-01-22T09:53:34Z</time>
      </trkpt>
      <trkpt lat="50.35981" lon="3.24942">
        <ele>25</ele>
        <time>2023-01-22T09:53:35Z</time>
      </trkpt>
      <trkpt lat="50.35981" lon="3.24942">
        <ele>25</ele>
        <time>2023-01-22T09:53:36Z</time>
      </trkpt>
      <trkpt lat="50.35983" lon="3.24942">
        <ele>25</ele>
        <time>2023-01-22T09:53:37Z</time>
      </trkpt>
      <trkpt lat="50.35984" lon="3.24941">
        <ele>25.1</ele>
        <time>2023-01-22T09:53:38Z</time>
      </trkpt>
      <trkpt lat="50.35985" lon="3.24941">
        <ele>25.1</ele>
        <time>2023-01-22T09:53:39Z</time>
        <extensions>
          <gpxtpx:TrackPointExtension xmlns:gpxtpx="http://www.garmin.com/xmlschemas/TrackPointExtension/v1">
            <gpxtpx:hr>133</gpxtpx:hr>
          </gpxtpx:TrackPointExtension>
        </extensions>
      </trkpt>
      <trkpt lat="50.35986" lon="3.2494">
        <ele>17.467201</ele>
        <time>2023-01-22T09:53:40Z</time>
      </trkpt>
      <trkpt lat="50.35988" lon="3.2494">
        <ele>25.1</ele>
        <time>2023-01-22T09:53:41Z</time>
      </trkpt>
      <trkpt lat="50.35989" lon="3.24939">
        <ele>25.1</ele>
        <time>2023-01-22T09:53:42Z</time>
      </trkpt>
      <trkpt lat="50.3599" lon="3.24938">
        <ele>25.1</ele>
        <time>2023-01-22T09:53:43Z</time>
      </trkpt>
      <trkpt lat="50.35992" lon="3.24938">
        <ele>25.2</ele>
        <time>2023-01-22T09:53:44Z</time>
      </trkpt>
      <trkpt lat="50.35993" lon="3.24937">
        <ele>25.2</ele>
        <time>2023-01-22T09:53:45Z</time>
      </trkpt>
      <trkpt lat="50.35994" lon="3.24936">
        <ele>25.2</ele>
        <time>2023-01-22T09:53:46Z</time>
      </trkpt>
      <trkpt lat="50.35996" lon="3.24935">
        <ele>25.3</ele>
        <time>2023-01-22T09:53:47Z</time>
      </trkpt>
      <trkpt lat="50.35997" lon="3.24934">
        <ele>25.3</ele>
        <time>2023-01-22T09:53:48Z</time>
      </trkpt>
      <trkpt lat="50.35999" lon="3.24934">
        <ele>25.4</ele>
        <time>2023-01-22T09:53:49Z</time>
      </trkpt>
      <trkpt lat="50.36" lon="3.24934">
        <ele>17.370462</ele>
        <time>2023-01-22T09:53:50Z</time>
      </trkpt>
      <trkpt lat="50.36002" lon="3.24933">
        <ele>25.4</ele>
        <time>2023-01-22T09:53:51Z</time>
      </trkpt>
      <trkpt lat="50.36003" lon="3.24933">
        <ele>25.5</ele>
        <time>2023-01-22T09:53:52Z</time>
      </trkpt>
      <trkpt lat="50.36003" lon="3.24933">
        <ele>25.5</ele>
        <time>2023-01-22T09:53:53Z</time>
      </trkpt>
      <trkpt lat="50.36004" lon="3.24932">
        <ele>25.5</ele>
        <time>2023-01-22T09:53:54Z</time>
      </trkpt>
      <trkpt lat="50.36005" lon="3.24932">
        <ele>25.6</ele>
        <time>2023-01-22T09:53:55Z</time>
      </trkpt>
      <trkpt lat="50.36006" lon="3.24931">
        <ele>25.6</ele>
        <time>2023-01-22T09:53:56Z</time>
      </trkpt>
      <trkpt lat="50.36007" lon="3.2493">
        <ele>25.6</ele>
        <time>2023-01-22T09:53:57Z</time>
      </trkpt>
      <trkpt lat="50.36009" lon="3.24929">
        <ele>25.7</ele>
        <time>2023-01-22T09:53:58Z</time>
      </trkpt>
      <trkpt lat="50.3601" lon="3.24929">
        <ele>25.7</ele>
        <time>2023-01-22T09:53:59Z</time>
        <extensions>
          <gpxtpx:TrackPointExtension xmlns:gpxtpx="http://www.garmin.com/xmlschemas/TrackPointExtension/v1">
            <gpxtpx:hr>139</gpxtpx:hr>
          </gpxtpx:TrackPointExtension>
        </extensions>
      </trkpt>
      <trkpt lat="50.36012" lon="3.24928">
        <ele>17.574373</ele>
        <time>2023-01-22T09:54:00Z</time>
      </trkpt>
      <trkpt lat="50.36013" lon="3.24927">
        <ele>25.8</ele>
        <time>2023-01-22T09:54:01Z</time>
      </trkpt>
      <trkpt lat="50.36015" lon="3.24926">
        <ele>25.8</ele>
        <time>2023-01-22T09:54:02Z</time>
      </trkpt>
      <trkpt lat="50.36016" lon="3.24926">
        <ele>25.9</ele>
        <time>2023-01-22T09:54:03Z</time>
      </trkpt>
      <trkpt lat="50.36017" lon="3.24925">
        <ele>25.9</ele>
        <time>2023-01-22T09:54:04Z</time>
      </trkpt>
      <trkpt lat="50.36019" lon="3.24924">
        <ele>25.9</ele>
        <time>2023-01-22T09:54:05Z</time>
      </trkpt>
      <trkpt lat="50.3602" lon="3.24923">
        <ele>25.9</ele>
        <time>2023-01-22T09:54:06Z</time>
      </trkpt>
      <trkpt lat="50.36021" lon="3.24922">
        <ele>26</ele>
        <time>2023-01-22T09:54:07Z</time>
      </trkpt>
      <trkpt lat="50.36023" lon="3.24921">
        <ele>26</ele>
        <time>2023-01-22T09:54:08Z</time>
      </trkpt>
      <trkpt lat="50.36024" lon="3.24921">
        <ele>26</ele>
        <time>2023-01-22T09:54:09Z</time>
      </trkpt>
      <trkpt lat="50.36025" lon="3.2492">
        <ele>17.351496</ele>
        <time>2023-01-22T09:54:10Z</time>
      </trkpt>
      <trkpt lat="50.36026" lon="3.24919">
        <ele>26</ele>
        <time>2023-01-22T09:54:11Z</time>
      </trkpt>
      <trkpt lat="50.36028" lon="3.24918">
        <ele>26</ele>
        <time>2023-01-22T09:54:12Z</time>
      </trkpt>
      <trkpt lat="50.36029" lon="3.24918">
        <ele>26</ele>
        <time>2023-01-22T09:54:13Z</time>
      </trkpt>
      <trkpt lat="50.3603" lon="3.24917">
        <ele>26</ele>
        <time>2023-01-22T09:54:14Z</time>
      </trkpt>
      <trkpt lat="50.36031" lon="3.24917">
        <ele>26</ele>
        <time>2023-01-22T09:54:15Z</time>
      </trkpt>
      <trkpt lat="50.36033" lon="3.24917">
        <ele>26</ele>
        <time>2023-01-22T09:54:16Z</time>
      </trkpt>
      <trkpt lat="50.36034" lon="3.24917">
        <ele>26</ele>
        <time>2023-01-22T09:54:17Z</time>
      </trkpt>
      <trkpt lat="50.36035" lon="3.24917">
        <ele>26</ele>
        <time>2023-01-22T09:54:18Z</time>
      </trkpt>
      <trkpt lat="50.36036" lon="3.24917">
        <ele>26</ele>
        <time>2023-01-22T09:54:19Z</time>
        <extensions>
          <gpxtpx:TrackPointExtension xmlns:gpxtpx="http://www.garmin.com/xmlschemas/TrackPointExtension/v1">
            <gpxtpx:hr>134</gpxtpx:hr>
          </gpxtpx:TrackPointExtension>
        </extensions>
      </trkpt>
      <trkpt lat="50.36037" lon="3.24917">
        <ele>17.404606</ele>
        <time>2023-01-22T09:54:20Z</time>
      </trkpt>
      <trkpt lat="50.36039" lon="3.24916">
        <ele>26</ele>
        <time>2023-01-22T09:54:21Z</time>
      </trkpt>
      <trkpt lat="50.3604" lon="3.24916">
        <ele>26</ele>
        <time>2023-01-22T09:54:22Z</time>
      </trkpt>
      <trkpt lat="50.36042" lon="3.24915">
        <ele>26</ele>
        <time>2023-01-22T09:54:23Z</time>
      </trkpt>
      <trkpt lat="50.36042" lon="3.24915">
        <ele>26</ele>
        <time>2023-01-22T09:54:24Z</time>
      </trkpt>
      <trkpt lat="50.36044" lon="3.24915">
        <ele>26</ele>
        <time>2023-01-22T09:54:25Z</time>
      </trkpt>
      <trkpt lat="50.36045" lon="3.24915">
        <ele>26</ele>
        <time>2023-01-22T09:54:26Z</time>
      </trkpt>
      <trkpt lat="50.36047" lon="3.24915">
        <ele>26</ele>
        <time>2023-01-22T09:54:27Z</time>
      </trkpt>
      <trkpt lat="50.36048" lon="3.24915">
        <ele>26</ele>
        <time>2023-01-22T09:54:28Z</time>
      </trkpt>
      <trkpt lat="50.36049" lon="3.24915">
        <ele>26</ele>
        <time>2023-01-22T09:54:29Z</time>
      </trkpt>
      <trkpt lat="50.3605" lon="3.24915">
        <ele>17.953747</ele>
        <time>2023-01-22T09:54:30Z</time>
      </trkpt>
      <trkpt lat="50.36051" lon="3.24915">
        <ele>26</ele>
        <time>2023-01-22T09:54:31Z</time>
      </trkpt>
      <trkpt lat="50.36052" lon="3.24915">
        <ele>26</ele>
        <time>2023-01-22T09:54:32Z</time>
      </trkpt>
      <trkpt lat="50.36054" lon="3.24915">
        <ele>26</ele>
        <time>2023-01-22T09:54:33Z</time>
      </trkpt>
      <trkpt lat="50.36055" lon="3.24914">
        <ele>26</ele>
        <time>2023-01-22T09:54:34Z</time>
      </trkpt>
      <trkpt lat="50.36056" lon="3.24914">
        <ele>26</ele>
        <time>2023-01-22T09:54:35Z</time>
      </trkpt>
      <trkpt lat="50.36057" lon="3.24914">
        <ele>26</ele>
        <time>2023-01-22T09:54:36Z</time>
      </trkpt>
      <trkpt lat="50.36057" lon="3.24913">
        <ele>26</ele>
        <time>2023-01-22T09:54:37Z</time>
      </trkpt>
      <trkpt lat="50.36058" lon="3.24913">
        <ele>26</ele>
        <time>2023-01-22T09:54:38Z</time>
        <extensions>
          <gpxtpx:TrackPointExtension xmlns:gpxtpx="http://www.garmin.com/xmlschemas/TrackPointExtension/v1">
            <gpxtpx:hr>133</gpxtpx:hr>
          </gpxtpx:TrackPointExtension>
        </extensions>
      </trkpt>
      <trkpt lat="50.36058" lon="3.24913">
        <ele>26</ele>
        <time>2023-01-22T09:54:39Z</time>
      </trkpt>
      <trkpt lat="50.36059" lon="3.24912">
        <ele>18.151972</ele>
        <time>2023-01-22T09:54:40Z</time>
      </trkpt>
      <trkpt lat="50.3606" lon="3.24912">
        <ele>26</ele>
        <time>2023-01-22T09:54:41Z</time>
      </trkpt>
      <trkpt lat="50.36061" lon="3.24911">
        <ele>26</ele>
        <time>2023-01-22T09:54:42Z</time>
      </trkpt>
      <trkpt lat="50.36062" lon="3.2491">
        <ele>26.1</ele>
        <time>2023-01-22T09:54:43Z</time>
      </trkpt>
      <trkpt lat="50.36064" lon="3.2491">
        <ele>26.1</ele>
        <time>2023-01-22T09:54:44Z</time>
      </trkpt>
      <trkpt lat="50.36065" lon="3.24909">
        <ele>26.1</ele>
        <time>2023-01-22T09:54:45Z</time>
      </trkpt>
      <trkpt lat="50.36066" lon="3.24908">
        <ele>26.1</ele>
        <time>2023-01-22T09:54:46Z</time>
      </trkpt>
      <trkpt lat="50.36068" lon="3.24907">
        <ele>26.2</ele>
        <time>2023-01-22T09:54:47Z</time>
      </trkpt>
      <trkpt lat="50.36069" lon="3.24906">
        <ele>26.2</ele>
        <time>2023-01-22T09:54:48Z</time>
      </trkpt>
      <trkpt lat="50.36071" lon="3.24906">
        <ele>26.2</ele>
        <time>2023-01-22T09:54:49Z</time>
      </trkpt>
      <trkpt lat="50.36072" lon="3.24905">
        <ele>18.198446</ele>
        <time>2023-01-22T09:54:50Z</time>
      </trkpt>
      <trkpt lat="50.36073" lon="3.24905">
        <ele>26.3</ele>
        <time>2023-01-22T09:54:51Z</time>
      </trkpt>
      <trkpt lat="50.36074" lon="3.24904">
        <ele>26.3</ele>
        <time>2023-01-22T09:54:52Z</time>
      </trkpt>
      <trkpt lat="50.36075" lon="3.24903">
        <ele>26.4</ele>
        <time>2023-01-22T09:54:53Z</time>
      </trkpt>
      <trkpt lat="50.36076" lon="3.24903">
        <ele>26.4</ele>
        <time>2023-01-22T09:54:54Z</time>
      </trkpt>
      <trkpt lat="50.36077" lon="3.24902">
        <ele>26.4</ele>
        <time>2023-01-22T09:54:55Z</time>
      </trkpt>
      <trkpt lat="50.36078" lon="3.24902">
        <ele>26.4</ele>
        <time>2023-01-22T09:54:56Z</time>
      </trkpt>
      <trkpt lat="50.36078" lon="3.24902">
        <ele>26.4</ele>
        <time>2023-01-22T09:54:57Z</time>
      </trkpt>
      <trkpt lat="50.36079" lon="3.24902">
        <ele>26.4</ele>
        <time>2023-01-22T09:54:58Z</time>
        <extensions>
          <gpxtpx:TrackPointExtension xmlns:gpxtpx="http://www.garmin.com/xmlschemas/TrackPointExtension/v1">
            <gpxtpx:hr>143</gpxtpx:hr>
          </gpxtpx:TrackPointExtension>
        </extensions>
      </trkpt>
      <trkpt lat="50.36081" lon="3.24902">
        <ele>26.5</ele>
        <time>2023-01-22T09:54:59Z</time>
      </trkpt>
      <trkpt lat="50.36082" lon="3.24902">
        <ele>26.5</ele>
        <time>2023-01-22T09:55:00Z</time>
      </trkpt>
      <trkpt lat="50.36084" lon="3.24901">
        <ele>26.6</ele>
        <time>2023-01-22T09:55:01Z</time>
      </trkpt>
      <trkpt lat="50.36085" lon="3.24901">
        <ele>26.6</ele>
        <time>2023-01-22T09:55:02Z</time>
      </trkpt>
      <trkpt lat="50.36087" lon="3.24901">
        <ele>26.6</ele>
        <time>2023-01-22T09:55:03Z</time>
      </trkpt>
      <trkpt lat="50.36087" lon="3.24901">
        <ele>26.6</ele>
        <time>2023-01-22T09:55:04Z</time>
      </trkpt>
      <trkpt lat="50.36089" lon="3.249">
        <ele>18.390034</ele>
        <time>2023-01-22T09:55:05Z</time>
      </trkpt>
      <trkpt lat="50.3609" lon="3.249">
        <ele>26.7</ele>
        <time>2023-01-22T09:55:06Z</time>
      </trkpt>
      <trkpt lat="50.36091" lon="3.249">
        <ele>26.7</ele>
        <time>2023-01-22T09:55:07Z</time>
      </trkpt>
      <trkpt lat="50.36092" lon="3.249">
        <ele>26.7</ele>
        <time>2023-01-22T09:55:08Z</time>
      </trkpt>
      <trkpt lat="50.36093" lon="3.24899">
        <ele>26.8</ele>
        <time>2023-01-22T09:55:09Z</time>
      </trkpt>
      <trkpt lat="50.36094" lon="3.24899">
        <ele>18.254404</ele>
        <time>2023-01-22T09:55:10Z</time>
      </trkpt>
      <trkpt lat="50.36095" lon="3.24898">
        <ele>26.8</ele>
        <time>2023-01-22T09:55:11Z</time>
      </trkpt>
      <trkpt lat="50.36097" lon="3.24898">
        <ele>26.8</ele>
        <time>2023-01-22T09:55:12Z</time>
      </trkpt>
      <trkpt lat="50.36098" lon="3.24898">
        <ele>26.8</ele>
        <time>2023-01-22T09:55:13Z</time>
      </trkpt>
      <trkpt lat="50.36099" lon="3.24898">
        <ele>26.9</ele>
        <time>2023-01-22T09:55:14Z</time>
      </trkpt>
      <trkpt lat="50.361" lon="3.24898">
        <ele>26.9</ele>
        <time>2023-01-22T09:55:15Z</time>
      </trkpt>
      <trkpt lat="50.36101" lon="3.24897">
        <ele>26.9</ele>
        <time>2023-01-22T09:55:16Z</time>
      </trkpt>
      <trkpt lat="50.36102" lon="3.24897">
        <ele>26.9</ele>
        <time>2023-01-22T09:55:17Z</time>
      </trkpt>
      <trkpt lat="50.36103" lon="3.24897">
        <ele>26.9</ele>
        <time>2023-01-22T09:55:18Z</time>
      </trkpt>
      <trkpt lat="50.36105" lon="3.24897">
        <ele>26.9</ele>
        <time>2023-01-22T09:55:19Z</time>
        <extensions>
          <gpxtpx:TrackPointExtension xmlns:gpxtpx="http://www.garmin.com/xmlschemas/TrackPointExtension/v1">
            <gpxtpx:hr>142</gpxtpx:hr>
          </gpxtpx:TrackPointExtension>
        </extensions>
      </trkpt>
      <trkpt lat="50.36107" lon="3.24896">
        <ele>18.438406</ele>
        <time>2023-01-22T09:55:20Z</time>
      </trkpt>
      <trkpt lat="50.36108" lon="3.24896">
        <ele>27</ele>
        <time>2023-01-22T09:55:21Z</time>
      </trkpt>
      <trkpt lat="50.36109" lon="3.24896">
        <ele>27</ele>
        <time>2023-01-22T09:55:22Z</time>
      </trkpt>
      <trkpt lat="50.3611" lon="3.24896">
        <ele>27</ele>
        <time>2023-01-22T09:55:23Z</time>
      </trkpt>
      <trkpt lat="50.36111" lon="3.24895">
        <ele>27</ele>
        <time>2023-01-22T09:55:24Z</time>
      </trkpt>
      <trkpt lat="50.36112" lon="3.24895">
        <ele>27</ele>
        <time>2023-01-22T09:55:25Z</time>
      </trkpt>
      <trkpt lat="50.36113" lon="3.24894">
        <ele>27</ele>
        <time>2023-01-22T09:55:26Z</time>
      </trkpt>
      <trkpt lat="50.36113" lon="3.24895">
        <ele>27</ele>
        <time>2023-01-22T09:55:27Z</time>
      </trkpt>
      <trkpt lat="50.36114" lon="3.24894">
        <ele>27</ele>
        <time>2023-01-22T09:55:28Z</time>
      </trkpt>
      <trkpt lat="50.36115" lon="3.24894">
        <ele>27</ele>
        <time>2023-01-22T09:55:29Z</time>
      </trkpt>
      <trkpt lat="50.36115" lon="3.24894">
        <ele>18.55791</ele>
        <time>2023-01-22T09:55:30Z</time>
      </trkpt>
      <trkpt lat="50.36116" lon="3.24894">
        <ele>27</ele>
        <time>2023-01-22T09:55:31Z</time>
      </trkpt>
      <trkpt lat="50.36118" lon="3.24893">
        <ele>27</ele>
        <time>2023-01-22T09:55:32Z</time>
      </trkpt>
      <trkpt lat="50.36118" lon="3.24893">
        <ele>27</ele>
        <time>2023-01-22T09:55:33Z</time>
      </trkpt>
      <trkpt lat="50.3612" lon="3.24893">
        <ele>27</ele>
        <time>2023-01-22T09:55:34Z</time>
      </trkpt>
      <trkpt lat="50.36121" lon="3.24893">
        <ele>27</ele>
        <time>2023-01-22T09:55:35Z</time>
      </trkpt>
      <trkpt lat="50.36122" lon="3.24893">
        <ele>27</ele>
        <time>2023-01-22T09:55:36Z</time>
      </trkpt>
      <trkpt lat="50.36124" lon="3.24893">
        <ele>27</ele>
        <time>2023-01-22T09:55:37Z</time>
      </trkpt>
      <trkpt lat="50.36125" lon="3.24893">
        <ele>27</ele>
        <time>2023-01-22T09:55:38Z</time>
      </trkpt>
      <trkpt lat="50.36126" lon="3.24893">
        <ele>27</ele>
        <time>2023-01-22T09:55:39Z</time>
        <extensions>
          <gpxtpx:TrackPointExtension xmlns:gpxtpx="http://www.garmin.com/xmlschemas/TrackPointExtension/v1">
            <gpxtpx:hr>144</gpxtpx:hr>
          </gpxtpx:TrackPointExtension>
        </extensions>
      </trkpt>
      <trkpt lat="50.36127" lon="3.24893">
        <ele>18.411848</ele>
        <time>2023-01-22T09:55:40Z</time>
      </trkpt>
      <trkpt lat="50.36128" lon="3.24892">
        <ele>27</ele>
        <time>2023-01-22T09:55:41Z</time>
      </trkpt>
      <trkpt lat="50.36129" lon="3.24892">
        <ele>27</ele>
        <time>2023-01-22T09:55:42Z</time>
      </trkpt>
      <trkpt lat="50.36131" lon="3.24892">
        <ele>27</ele>
        <time>2023-01-22T09:55:43Z</time>
      </trkpt>
      <trkpt lat="50.36133" lon="3.24892">
        <ele>27</ele>
        <time>2023-01-22T09:55:44Z</time>
      </trkpt>
      <trkpt lat="50.36134" lon="3.24892">
        <ele>27</ele>
        <time>2023-01-22T09:55:45Z</time>
      </trkpt>
      <trkpt lat="50.36136" lon="3.24893">
        <ele>27</ele>
        <time>2023-01-22T09:55:46Z</time>
      </trkpt>
      <trkpt lat="50.36137" lon="3.24892">
        <ele>27</ele>
        <time>2023-01-22T09:55:47Z</time>
      </trkpt>
      <trkpt lat="50.36139" lon="3.24892">
        <ele>27</ele>
        <time>2023-01-22T09:55:48Z</time>
      </trkpt>
      <trkpt lat="50.3614" lon="3.24892">
        <ele>27</ele>
        <time>2023-01-22T09:55:49Z</time>
      </trkpt>
      <trkpt lat="50.36142" lon="3.24892">
        <ele>18.62051</ele>
        <time>2023-01-22T09:55:50Z</time>
      </trkpt>
      <trkpt lat="50.36143" lon="3.24893">
        <ele>27</ele>
        <time>2023-01-22T09:55:51Z</time>
      </trkpt>
      <trkpt lat="50.36144" lon="3.24893">
        <ele>27</ele>
        <time>2023-01-22T09:55:52Z</time>
      </trkpt>
      <trkpt lat="50.36145" lon="3.24893">
        <ele>27</ele>
        <time>2023-01-22T09:55:53Z</time>
      </trkpt>
      <trkpt lat="50.36146" lon="3.24893">
        <ele>27</ele>
        <time>2023-01-22T09:55:54Z</time>
      </trkpt>
      <trkpt lat="50.36148" lon="3.24893">
        <ele>27</ele>
        <time>2023-01-22T09:55:55Z</time>
      </trkpt>
      <trkpt lat="50.36149" lon="3.24893">
        <ele>27</ele>
        <time>2023-01-22T09:55:56Z</time>
      </trkpt>
      <trkpt lat="50.36151" lon="3.24893">
        <ele>27</ele>
        <time>2023-01-22T09:55:57Z</time>
      </trkpt>
      <trkpt lat="50.36152" lon="3.24893">
        <ele>27</ele>
        <time>2023-01-22T09:55:58Z</time>
      </trkpt>
      <trkpt lat="50.36153" lon="3.24893">
        <ele>27</ele>
        <time>2023-01-22T09:55:59Z</time>
        <extensions>
          <gpxtpx:TrackPointExtension xmlns:gpxtpx="http://www.garmin.com/xmlschemas/TrackPointExtension/v1">
            <gpxtpx:hr>146</gpxtpx:hr>
          </gpxtpx:TrackPointExtension>
        </extensions>
      </trkpt>
      <trkpt lat="50.36153" lon="3.24893">
        <ele>18.623356</ele>
        <time>2023-01-22T09:56:00Z</time>
      </trkpt>
      <trkpt lat="50.36155" lon="3.24892">
        <ele>27</ele>
        <time>2023-01-22T09:56:01Z</time>
      </trkpt>
      <trkpt lat="50.36156" lon="3.24892">
        <ele>27</ele>
        <time>2023-01-22T09:56:02Z</time>
      </trkpt>
      <trkpt lat="50.36157" lon="3.24892">
        <ele>27</ele>
        <time>2023-01-22T09:56:03Z</time>
      </trkpt>
      <trkpt lat="50.36158" lon="3.24892">
        <ele>27</ele>
        <time>2023-01-22T09:56:04Z</time>
      </trkpt>
      <trkpt lat="50.3616" lon="3.24892">
        <ele>27</ele>
        <time>2023-01-22T09:56:05Z</time>
      </trkpt>
      <trkpt lat="50.36161" lon="3.24892">
        <ele>27</ele>
        <time>2023-01-22T09:56:06Z</time>
      </trkpt>
      <trkpt lat="50.36162" lon="3.24893">
        <ele>27</ele>
        <time>2023-01-22T09:56:07Z</time>
      </trkpt>
      <trkpt lat="50.36163" lon="3.24893">
        <ele>27</ele>
        <time>2023-01-22T09:56:08Z</time>
      </trkpt>
      <trkpt lat="50.36165" lon="3.24893">
        <ele>27</ele>
        <time>2023-01-22T09:56:09Z</time>
      </trkpt>
      <trkpt lat="50.36165" lon="3.24893">
        <ele>18.724842</ele>
        <time>2023-01-22T09:56:10Z</time>
      </trkpt>
      <trkpt lat="50.36167" lon="3.24894">
        <ele>27</ele>
        <time>2023-01-22T09:56:11Z</time>
      </trkpt>
      <trkpt lat="50.36168" lon="3.24894">
        <ele>27</ele>
        <time>2023-01-22T09:56:12Z</time>
      </trkpt>
      <trkpt lat="50.36168" lon="3.24895">
        <ele>27</ele>
        <time>2023-01-22T09:56:13Z</time>
      </trkpt>
      <trkpt lat="50.3617" lon="3.24895">
        <ele>27</ele>
        <time>2023-01-22T09:56:14Z</time>
      </trkpt>
      <trkpt lat="50.36171" lon="3.24895">
        <ele>27</ele>
        <time>2023-01-22T09:56:15Z</time>
      </trkpt>
      <trkpt lat="50.36173" lon="3.24895">
        <ele>27</ele>
        <time>2023-01-22T09:56:16Z</time>
      </trkpt>
      <trkpt lat="50.36174" lon="3.24895">
        <ele>27</ele>
        <time>2023-01-22T09:56:17Z</time>
      </trkpt>
      <trkpt lat="50.36176" lon="3.24895">
        <ele>27</ele>
        <time>2023-01-22T09:56:18Z</time>
      </trkpt>
      <trkpt lat="50.36177" lon="3.24895">
        <ele>27</ele>
        <time>2023-01-22T09:56:19Z</time>
        <extensions>
          <gpxtpx:TrackPointExtension xmlns:gpxtpx="http://www.garmin.com/xmlschemas/TrackPointExtension/v1">
            <gpxtpx:hr>149</gpxtpx:hr>
          </gpxtpx:TrackPointExtension>
        </extensions>
      </trkpt>
      <trkpt lat="50.36179" lon="3.24894">
        <ele>18.365374</ele>
        <time>2023-01-22T09:56:20Z</time>
      </trkpt>
      <trkpt lat="50.3618" lon="3.24895">
        <ele>27</ele>
        <time>2023-01-22T09:56:21Z</time>
      </trkpt>
      <trkpt lat="50.36181" lon="3.24895">
        <ele>27</ele>
        <time>2023-01-22T09:56:22Z</time>
      </trkpt>
      <trkpt lat="50.36183" lon="3.24895">
        <ele>27</ele>
        <time>2023-01-22T09:56:23Z</time>
      </trkpt>
      <trkpt lat="50.36184" lon="3.24895">
        <ele>27</ele>
        <time>2023-01-22T09:56:24Z</time>
      </trkpt>
      <trkpt lat="50.36185" lon="3.24895">
        <ele>27</ele>
        <time>2023-01-22T09:56:25Z</time>
      </trkpt>
      <trkpt lat="50.36186" lon="3.24895">
        <ele>27</ele>
        <time>2023-01-22T09:56:26Z</time>
      </trkpt>
      <trkpt lat="50.36187" lon="3.24895">
        <ele>27</ele>
        <time>2023-01-22T09:56:27Z</time>
      </trkpt>
      <trkpt lat="50.36189" lon="3.24895">
        <ele>27</ele>
        <time>2023-01-22T09:56:28Z</time>
      </trkpt>
      <trkpt lat="50.3619" lon="3.24895">
        <ele>27</ele>
        <time>2023-01-22T09:56:29Z</time>
      </trkpt>
      <trkpt lat="50.36192" lon="3.24895">
        <ele>18.150074</ele>
        <time>2023-01-22T09:56:30Z</time>
      </trkpt>
      <trkpt lat="50.36193" lon="3.24894">
        <ele>27</ele>
        <time>2023-01-22T09:56:31Z</time>
      </trkpt>
      <trkpt lat="50.36194" lon="3.24894">
        <ele>27</ele>
        <time>2023-01-22T09:56:32Z</time>
      </trkpt>
      <trkpt lat="50.36195" lon="3.24894">
        <ele>27</ele>
        <time>2023-01-22T09:56:33Z</time>
      </trkpt>
      <trkpt lat="50.36197" lon="3.24894">
        <ele>27</ele>
        <time>2023-01-22T09:56:34Z</time>
      </trkpt>
      <trkpt lat="50.36198" lon="3.24894">
        <ele>27</ele>
        <time>2023-01-22T09:56:35Z</time>
      </trkpt>
      <trkpt lat="50.36199" lon="3.24894">
        <ele>27</ele>
        <time>2023-01-22T09:56:36Z</time>
      </trkpt>
      <trkpt lat="50.36201" lon="3.24894">
        <ele>27</ele>
        <time>2023-01-22T09:56:37Z</time>
      </trkpt>
      <trkpt lat="50.36202" lon="3.24894">
        <ele>27</ele>
        <time>2023-01-22T09:56:38Z</time>
      </trkpt>
      <trkpt lat="50.36203" lon="3.24894">
        <ele>27</ele>
        <time>2023-01-22T09:56:39Z</time>
        <extensions>
          <gpxtpx:TrackPointExtension xmlns:gpxtpx="http://www.garmin.com/xmlschemas/TrackPointExtension/v1">
            <gpxtpx:hr>146</gpxtpx:hr>
          </gpxtpx:TrackPointExtension>
        </extensions>
      </trkpt>
      <trkpt lat="50.36204" lon="3.24894">
        <ele>27</ele>
        <time>2023-01-22T09:56:40Z</time>
      </trkpt>
      <trkpt lat="50.36206" lon="3.24894">
        <ele>27</ele>
        <time>2023-01-22T09:56:41Z</time>
      </trkpt>
      <trkpt lat="50.36207" lon="3.24894">
        <ele>27</ele>
        <time>2023-01-22T09:56:42Z</time>
      </trkpt>
      <trkpt lat="50.36208" lon="3.24893">
        <ele>27</ele>
        <time>2023-01-22T09:56:43Z</time>
      </trkpt>
      <trkpt lat="50.36209" lon="3.24893">
        <ele>27</ele>
        <time>2023-01-22T09:56:44Z</time>
      </trkpt>
      <trkpt lat="50.3621" lon="3.24893">
        <ele>18.642326</ele>
        <time>2023-01-22T09:56:45Z</time>
      </trkpt>
      <trkpt lat="50.36211" lon="3.24893">
        <ele>27</ele>
        <time>2023-01-22T09:56:46Z</time>
      </trkpt>
      <trkpt lat="50.36213" lon="3.24893">
        <ele>27</ele>
        <time>2023-01-22T09:56:47Z</time>
      </trkpt>
      <trkpt lat="50.36213" lon="3.24893">
        <ele>27</ele>
        <time>2023-01-22T09:56:48Z</time>
      </trkpt>
      <trkpt lat="50.36214" lon="3.24893">
        <ele>27</ele>
        <time>2023-01-22T09:56:49Z</time>
      </trkpt>
      <trkpt lat="50.36215" lon="3.24893">
        <ele>18.681213</ele>
        <time>2023-01-22T09:56:50Z</time>
      </trkpt>
      <trkpt lat="50.36216" lon="3.24893">
        <ele>27</ele>
        <time>2023-01-22T09:56:51Z</time>
      </trkpt>
      <trkpt lat="50.36217" lon="3.24893">
        <ele>27</ele>
        <time>2023-01-22T09:56:52Z</time>
      </trkpt>
      <trkpt lat="50.36218" lon="3.24893">
        <ele>27</ele>
        <time>2023-01-22T09:56:53Z</time>
      </trkpt>
      <trkpt lat="50.3622" lon="3.24892">
        <ele>27</ele>
        <time>2023-01-22T09:56:54Z</time>
      </trkpt>
      <trkpt lat="50.36221" lon="3.24892">
        <ele>27</ele>
        <time>2023-01-22T09:56:55Z</time>
      </trkpt>
      <trkpt lat="50.36223" lon="3.24892">
        <ele>27</ele>
        <time>2023-01-22T09:56:56Z</time>
      </trkpt>
      <trkpt lat="50.36224" lon="3.24892">
        <ele>27</ele>
        <time>2023-01-22T09:56:57Z</time>
      </trkpt>
      <trkpt lat="50.36225" lon="3.24891">
        <ele>27</ele>
        <time>2023-01-22T09:56:58Z</time>
      </trkpt>
      <trkpt lat="50.36226" lon="3.24891">
        <ele>27</ele>
        <time>2023-01-22T09:56:59Z</time>
        <extensions>
          <gpxtpx:TrackPointExtension xmlns:gpxtpx="http://www.garmin.com/xmlschemas/TrackPointExtension/v1">
            <gpxtpx:hr>139</gpxtpx:hr>
          </gpxtpx:TrackPointExtension>
        </extensions>
      </trkpt>
      <trkpt lat="50.36227" lon="3.24892">
        <ele>18.29898</ele>
        <time>2023-01-22T09:57:00Z</time>
      </trkpt>
      <trkpt lat="50.36228" lon="3.24892">
        <ele>27</ele>
        <time>2023-01-22T09:57:01Z</time>
      </trkpt>
      <trkpt lat="50.36229" lon="3.24892">
        <ele>27</ele>
        <time>2023-01-22T09:57:02Z</time>
      </trkpt>
      <trkpt lat="50.3623" lon="3.24892">
        <ele>27</ele>
        <time>2023-01-22T09:57:03Z</time>
      </trkpt>
      <trkpt lat="50.36231" lon="3.24892">
        <ele>27</ele>
        <time>2023-01-22T09:57:04Z</time>
      </trkpt>
      <trkpt lat="50.36232" lon="3.24892">
        <ele>27</ele>
        <time>2023-01-22T09:57:05Z</time>
      </trkpt>
      <trkpt lat="50.36234" lon="3.24893">
        <ele>27</ele>
        <time>2023-01-22T09:57:06Z</time>
      </trkpt>
      <trkpt lat="50.36235" lon="3.24893">
        <ele>27</ele>
        <time>2023-01-22T09:57:07Z</time>
      </trkpt>
      <trkpt lat="50.36236" lon="3.24892">
        <ele>27</ele>
        <time>2023-01-22T09:57:08Z</time>
      </trkpt>
      <trkpt lat="50.36238" lon="3.24892">
        <ele>27</ele>
        <time>2023-01-22T09:57:09Z</time>
      </trkpt>
      <trkpt lat="50.3624" lon="3.24892">
        <ele>18.607233</ele>
        <time>2023-01-22T09:57:10Z</time>
      </trkpt>
      <trkpt lat="50.36241" lon="3.24892">
        <ele>27</ele>
        <time>2023-01-22T09:57:11Z</time>
      </trkpt>
      <trkpt lat="50.36242" lon="3.24892">
        <ele>27</ele>
        <time>2023-01-22T09:57:12Z</time>
      </trkpt>
      <trkpt lat="50.36243" lon="3.24892">
        <ele>27</ele>
        <time>2023-01-22T09:57:13Z</time>
      </trkpt>
      <trkpt lat="50.36244" lon="3.24892">
        <ele>27</ele>
        <time>2023-01-22T09:57:14Z</time>
      </trkpt>
      <trkpt lat="50.36246" lon="3.24892">
        <ele>27</ele>
        <time>2023-01-22T09:57:15Z</time>
      </trkpt>
      <trkpt lat="50.36247" lon="3.24891">
        <ele>27</ele>
        <time>2023-01-22T09:57:16Z</time>
      </trkpt>
      <trkpt lat="50.36248" lon="3.24892">
        <ele>27</ele>
        <time>2023-01-22T09:57:17Z</time>
      </trkpt>
      <trkpt lat="50.3625" lon="3.24892">
        <ele>27</ele>
        <time>2023-01-22T09:57:18Z</time>
      </trkpt>
      <trkpt lat="50.36251" lon="3.24892">
        <ele>27</ele>
        <time>2023-01-22T09:57:19Z</time>
        <extensions>
          <gpxtpx:TrackPointExtension xmlns:gpxtpx="http://www.garmin.com/xmlschemas/TrackPointExtension/v1">
            <gpxtpx:hr>151</gpxtpx:hr>
          </gpxtpx:TrackPointExtension>
        </extensions>
      </trkpt>
      <trkpt lat="50.36253" lon="3.24892">
        <ele>18.511436</ele>
        <time>2023-01-22T09:57:20Z</time>
      </trkpt>
      <trkpt lat="50.36255" lon="3.24892">
        <ele>27</ele>
        <time>2023-01-22T09:57:21Z</time>
      </trkpt>
      <trkpt lat="50.36256" lon="3.24892">
        <ele>27</ele>
        <time>2023-01-22T09:57:22Z</time>
      </trkpt>
      <trkpt lat="50.36257" lon="3.24893">
        <ele>27</ele>
        <time>2023-01-22T09:57:23Z</time>
      </trkpt>
      <trkpt lat="50.36258" lon="3.24893">
        <ele>27</ele>
        <time>2023-01-22T09:57:24Z</time>
      </trkpt>
      <trkpt lat="50.36259" lon="3.24893">
        <ele>27</ele>
        <time>2023-01-22T09:57:25Z</time>
      </trkpt>
      <trkpt lat="50.3626" lon="3.24894">
        <ele>27</ele>
        <time>2023-01-22T09:57:26Z</time>
      </trkpt>
      <trkpt lat="50.36261" lon="3.24894">
        <ele>27</ele>
        <time>2023-01-22T09:57:27Z</time>
      </trkpt>
      <trkpt lat="50.36261" lon="3.24894">
        <ele>27</ele>
        <time>2023-01-22T09:57:28Z</time>
      </trkpt>
      <trkpt lat="50.36263" lon="3.24895">
        <ele>27</ele>
        <time>2023-01-22T09:57:29Z</time>
      </trkpt>
      <trkpt lat="50.36264" lon="3.24894">
        <ele>18.228796</ele>
        <time>2023-01-22T09:57:30Z</time>
      </trkpt>
      <trkpt lat="50.36265" lon="3.24895">
        <ele>27</ele>
        <time>2023-01-22T09:57:31Z</time>
      </trkpt>
      <trkpt lat="50.36266" lon="3.24894">
        <ele>27</ele>
        <time>2023-01-22T09:57:32Z</time>
      </trkpt>
      <trkpt lat="50.36266" lon="3.24895">
        <ele>27</ele>
        <time>2023-01-22T09:57:33Z</time>
      </trkpt>
      <trkpt lat="50.36267" lon="3.24895">
        <ele>27</ele>
        <time>2023-01-22T09:57:34Z</time>
      </trkpt>
      <trkpt lat="50.36269" lon="3.24895">
        <ele>27</ele>
        <time>2023-01-22T09:57:35Z</time>
      </trkpt>
      <trkpt lat="50.3627" lon="3.24896">
        <ele>27</ele>
        <time>2023-01-22T09:57:36Z</time>
      </trkpt>
      <trkpt lat="50.36271" lon="3.24897">
        <ele>27</ele>
        <time>2023-01-22T09:57:37Z</time>
      </trkpt>
      <trkpt lat="50.36272" lon="3.24897">
        <ele>27</ele>
        <time>2023-01-22T09:57:38Z</time>
      </trkpt>
      <trkpt lat="50.36273" lon="3.24897">
        <ele>27</ele>
        <time>2023-01-22T09:57:39Z</time>
        <extensions>
          <gpxtpx:TrackPointExtension xmlns:gpxtpx="http://www.garmin.com/xmlschemas/TrackPointExtension/v1">
            <gpxtpx:hr>150</gpxtpx:hr>
          </gpxtpx:TrackPointExtension>
        </extensions>
      </trkpt>
      <trkpt lat="50.36274" lon="3.24898">
        <ele>18.422281</ele>
        <time>2023-01-22T09:57:40Z</time>
      </trkpt>
      <trkpt lat="50.36275" lon="3.24898">
        <ele>27</ele>
        <time>2023-01-22T09:57:41Z</time>
      </trkpt>
      <trkpt lat="50.36276" lon="3.24898">
        <ele>27</ele>
        <time>2023-01-22T09:57:42Z</time>
      </trkpt>
      <trkpt lat="50.36277" lon="3.24898">
        <ele>27</ele>
        <time>2023-01-22T09:57:43Z</time>
      </trkpt>
      <trkpt lat="50.36279" lon="3.24899">
        <ele>27</ele>
        <time>2023-01-22T09:57:44Z</time>
      </trkpt>
      <trkpt lat="50.3628" lon="3.24899">
        <ele>27</ele>
        <time>2023-01-22T09:57:45Z</time>
      </trkpt>
      <trkpt lat="50.36281" lon="3.249">
        <ele>27</ele>
        <time>2023-01-22T09:57:46Z</time>
      </trkpt>
      <trkpt lat="50.36282" lon="3.249">
        <ele>27</ele>
        <time>2023-01-22T09:57:47Z</time>
      </trkpt>
      <trkpt lat="50.36284" lon="3.24901">
        <ele>27</ele>
        <time>2023-01-22T09:57:48Z</time>
      </trkpt>
      <trkpt lat="50.36285" lon="3.24901">
        <ele>27</ele>
        <time>2023-01-22T09:57:49Z</time>
      </trkpt>
      <trkpt lat="50.36287" lon="3.24902">
        <ele>18.408054</ele>
        <time>2023-01-22T09:57:50Z</time>
      </trkpt>
      <trkpt lat="50.36287" lon="3.24902">
        <ele>27</ele>
        <time>2023-01-22T09:57:51Z</time>
      </trkpt>
      <trkpt lat="50.36289" lon="3.24902">
        <ele>27</ele>
        <time>2023-01-22T09:57:52Z</time>
      </trkpt>
      <trkpt lat="50.3629" lon="3.24902">
        <ele>27</ele>
        <time>2023-01-22T09:57:53Z</time>
      </trkpt>
      <trkpt lat="50.36292" lon="3.24902">
        <ele>27</ele>
        <time>2023-01-22T09:57:54Z</time>
      </trkpt>
      <trkpt lat="50.36294" lon="3.24902">
        <ele>27</ele>
        <time>2023-01-22T09:57:55Z</time>
      </trkpt>
      <trkpt lat="50.36295" lon="3.24902">
        <ele>27</ele>
        <time>2023-01-22T09:57:56Z</time>
      </trkpt>
      <trkpt lat="50.36297" lon="3.24902">
        <ele>27</ele>
        <time>2023-01-22T09:57:57Z</time>
      </trkpt>
      <trkpt lat="50.36298" lon="3.24902">
        <ele>27</ele>
        <time>2023-01-22T09:57:58Z</time>
      </trkpt>
      <trkpt lat="50.36299" lon="3.24902">
        <ele>27</ele>
        <time>2023-01-22T09:57:59Z</time>
      </trkpt>
      <trkpt lat="50.363" lon="3.24902">
        <ele>18.18327</ele>
        <time>2023-01-22T09:58:00Z</time>
      </trkpt>
      <trkpt lat="50.36301" lon="3.24902">
        <ele>27</ele>
        <time>2023-01-22T09:58:01Z</time>
      </trkpt>
      <trkpt lat="50.36303" lon="3.24903">
        <ele>27</ele>
        <time>2023-01-22T09:58:02Z</time>
      </trkpt>
      <trkpt lat="50.36305" lon="3.24903">
        <ele>27</ele>
        <time>2023-01-22T09:58:03Z</time>
      </trkpt>
      <trkpt lat="50.36306" lon="3.24904">
        <ele>27</ele>
        <time>2023-01-22T09:58:04Z</time>
      </trkpt>
      <trkpt lat="50.36307" lon="3.24905">
        <ele>27</ele>
        <time>2023-01-22T09:58:05Z</time>
      </trkpt>
      <trkpt lat="50.36309" lon="3.24905">
        <ele>26.9</ele>
        <time>2023-01-22T09:58:06Z</time>
      </trkpt>
      <trkpt lat="50.36309" lon="3.24905">
        <ele>26.9</ele>
        <time>2023-01-22T09:58:07Z</time>
      </trkpt>
      <trkpt lat="50.36311" lon="3.24905">
        <ele>26.9</ele>
        <time>2023-01-22T09:58:08Z</time>
      </trkpt>
      <trkpt lat="50.36312" lon="3.24906">
        <ele>26.9</ele>
        <time>2023-01-22T09:58:09Z</time>
      </trkpt>
      <trkpt lat="50.36313" lon="3.24906">
        <ele>17.954695</ele>
        <time>2023-01-22T09:58:10Z</time>
        <extensions>
          <gpxtpx:TrackPointExtension xmlns:gpxtpx="http://www.garmin.com/xmlschemas/TrackPointExtension/v1">
            <gpxtpx:hr>152</gpxtpx:hr>
          </gpxtpx:TrackPointExtension>
        </extensions>
      </trkpt>
      <trkpt lat="50.36313" lon="3.24906">
        <ele>26.8</ele>
        <time>2023-01-22T09:58:11Z</time>
      </trkpt>
      <trkpt lat="50.36314" lon="3.24907">
        <ele>26.8</ele>
        <time>2023-01-22T09:58:12Z</time>
      </trkpt>
      <trkpt lat="50.36315" lon="3.24907">
        <ele>26.8</ele>
        <time>2023-01-22T09:58:13Z</time>
      </trkpt>
      <trkpt lat="50.36316" lon="3.24907">
        <ele>26.8</ele>
        <time>2023-01-22T09:58:14Z</time>
      </trkpt>
      <trkpt lat="50.36317" lon="3.24908">
        <ele>26.7</ele>
        <time>2023-01-22T09:58:15Z</time>
      </trkpt>
      <trkpt lat="50.36318" lon="3.24908">
        <ele>26.7</ele>
        <time>2023-01-22T09:58:16Z</time>
      </trkpt>
      <trkpt lat="50.36319" lon="3.24908">
        <ele>26.7</ele>
        <time>2023-01-22T09:58:17Z</time>
      </trkpt>
      <trkpt lat="50.3632" lon="3.24909">
        <ele>26.6</ele>
        <time>2023-01-22T09:58:18Z</time>
      </trkpt>
      <trkpt lat="50.36322" lon="3.2491">
        <ele>26.6</ele>
        <time>2023-01-22T09:58:19Z</time>
        <extensions>
          <gpxtpx:TrackPointExtension xmlns:gpxtpx="http://www.garmin.com/xmlschemas/TrackPointExtension/v1">
            <gpxtpx:hr>149</gpxtpx:hr>
          </gpxtpx:TrackPointExtension>
        </extensions>
      </trkpt>
      <trkpt lat="50.36324" lon="3.2491">
        <ele>26.5</ele>
        <time>2023-01-22T09:58:20Z</time>
      </trkpt>
      <trkpt lat="50.36325" lon="3.24911">
        <ele>26.4</ele>
        <time>2023-01-22T09:58:21Z</time>
      </trkpt>
      <trkpt lat="50.36326" lon="3.24912">
        <ele>26.4</ele>
        <time>2023-01-22T09:58:22Z</time>
      </trkpt>
      <trkpt lat="50.36327" lon="3.24912">
        <ele>26.4</ele>
        <time>2023-01-22T09:58:23Z</time>
      </trkpt>
      <trkpt lat="50.36327" lon="3.24912">
        <ele>26.3</ele>
        <time>2023-01-22T09:58:24Z</time>
      </trkpt>
      <trkpt lat="50.36328" lon="3.24913">
        <ele>17.297436</ele>
        <time>2023-01-22T09:58:25Z</time>
      </trkpt>
      <trkpt lat="50.36329" lon="3.24914">
        <ele>26.3</ele>
        <time>2023-01-22T09:58:26Z</time>
      </trkpt>
      <trkpt lat="50.36329" lon="3.24914">
        <ele>26.2</ele>
        <time>2023-01-22T09:58:27Z</time>
      </trkpt>
      <trkpt lat="50.3633" lon="3.24914">
        <ele>26.2</ele>
        <time>2023-01-22T09:58:28Z</time>
      </trkpt>
      <trkpt lat="50.36332" lon="3.24915">
        <ele>26.1</ele>
        <time>2023-01-22T09:58:29Z</time>
      </trkpt>
      <trkpt lat="50.36332" lon="3.24914">
        <ele>17.582909</ele>
        <time>2023-01-22T09:58:30Z</time>
      </trkpt>
      <trkpt lat="50.36334" lon="3.24914">
        <ele>26.1</ele>
        <time>2023-01-22T09:58:31Z</time>
      </trkpt>
      <trkpt lat="50.36334" lon="3.24914">
        <ele>26.1</ele>
        <time>2023-01-22T09:58:32Z</time>
      </trkpt>
      <trkpt lat="50.36335" lon="3.24914">
        <ele>26.2</ele>
        <time>2023-01-22T09:58:33Z</time>
      </trkpt>
      <trkpt lat="50.36337" lon="3.24914">
        <ele>26.2</ele>
        <time>2023-01-22T09:58:34Z</time>
      </trkpt>
      <trkpt lat="50.36338" lon="3.24915">
        <ele>26.2</ele>
        <time>2023-01-22T09:58:35Z</time>
      </trkpt>
      <trkpt lat="50.36339" lon="3.24915">
        <ele>26.3</ele>
        <time>2023-01-22T09:58:36Z</time>
      </trkpt>
      <trkpt lat="50.3634" lon="3.24915">
        <ele>26.3</ele>
        <time>2023-01-22T09:58:37Z</time>
      </trkpt>
      <trkpt lat="50.36342" lon="3.24915">
        <ele>26.3</ele>
        <time>2023-01-22T09:58:38Z</time>
      </trkpt>
      <trkpt lat="50.36342" lon="3.24915">
        <ele>26.4</ele>
        <time>2023-01-22T09:58:39Z</time>
        <extensions>
          <gpxtpx:TrackPointExtension xmlns:gpxtpx="http://www.garmin.com/xmlschemas/TrackPointExtension/v1">
            <gpxtpx:hr>143</gpxtpx:hr>
          </gpxtpx:TrackPointExtension>
        </extensions>
      </trkpt>
      <trkpt lat="50.36343" lon="3.24916">
        <ele>18.064714</ele>
        <time>2023-01-22T09:58:40Z</time>
      </trkpt>
      <trkpt lat="50.36344" lon="3.24916">
        <ele>26.4</ele>
        <time>2023-01-22T09:58:41Z</time>
      </trkpt>
      <trkpt lat="50.36346" lon="3.24917">
        <ele>26.4</ele>
        <time>2023-01-22T09:58:42Z</time>
      </trkpt>
      <trkpt lat="50.36347" lon="3.24918">
        <ele>26.5</ele>
        <time>2023-01-22T09:58:43Z</time>
      </trkpt>
      <trkpt lat="50.36348" lon="3.24918">
        <ele>26.5</ele>
        <time>2023-01-22T09:58:44Z</time>
      </trkpt>
      <trkpt lat="50.3635" lon="3.2492">
        <ele>26.6</ele>
        <time>2023-01-22T09:58:45Z</time>
      </trkpt>
      <trkpt lat="50.36351" lon="3.2492">
        <ele>26.6</ele>
        <time>2023-01-22T09:58:46Z</time>
      </trkpt>
      <trkpt lat="50.36353" lon="3.24921">
        <ele>26.7</ele>
        <time>2023-01-22T09:58:47Z</time>
      </trkpt>
      <trkpt lat="50.36354" lon="3.24921">
        <ele>26.8</ele>
        <time>2023-01-22T09:58:48Z</time>
      </trkpt>
      <trkpt lat="50.36356" lon="3.2492">
        <ele>26.8</ele>
        <time>2023-01-22T09:58:49Z</time>
      </trkpt>
      <trkpt lat="50.36358" lon="3.2492">
        <ele>18.494364</ele>
        <time>2023-01-22T09:58:50Z</time>
      </trkpt>
      <trkpt lat="50.36359" lon="3.24921">
        <ele>26.9</ele>
        <time>2023-01-22T09:58:51Z</time>
      </trkpt>
      <trkpt lat="50.36361" lon="3.24921">
        <ele>27</ele>
        <time>2023-01-22T09:58:52Z</time>
      </trkpt>
      <trkpt lat="50.36362" lon="3.24922">
        <ele>27</ele>
        <time>2023-01-22T09:58:53Z</time>
      </trkpt>
      <trkpt lat="50.36363" lon="3.24923">
        <ele>27</ele>
        <time>2023-01-22T09:58:54Z</time>
      </trkpt>
      <trkpt lat="50.36364" lon="3.24924">
        <ele>27</ele>
        <time>2023-01-22T09:58:55Z</time>
      </trkpt>
      <trkpt lat="50.36365" lon="3.24924">
        <ele>27</ele>
        <time>2023-01-22T09:58:56Z</time>
      </trkpt>
      <trkpt lat="50.36367" lon="3.24924">
        <ele>26.9</ele>
        <time>2023-01-22T09:58:57Z</time>
      </trkpt>
      <trkpt lat="50.36368" lon="3.24924">
        <ele>26.9</ele>
        <time>2023-01-22T09:58:58Z</time>
      </trkpt>
      <trkpt lat="50.36369" lon="3.24924">
        <ele>26.9</ele>
        <time>2023-01-22T09:58:59Z</time>
        <extensions>
          <gpxtpx:TrackPointExtension xmlns:gpxtpx="http://www.garmin.com/xmlschemas/TrackPointExtension/v1">
            <gpxtpx:hr>152</gpxtpx:hr>
          </gpxtpx:TrackPointExtension>
        </extensions>
      </trkpt>
      <trkpt lat="50.36371" lon="3.24925">
        <ele>18.346405</ele>
        <time>2023-01-22T09:59:00Z</time>
      </trkpt>
      <trkpt lat="50.36371" lon="3.24924">
        <ele>26.9</ele>
        <time>2023-01-22T09:59:01Z</time>
      </trkpt>
      <trkpt lat="50.36372" lon="3.24924">
        <ele>26.9</ele>
        <time>2023-01-22T09:59:02Z</time>
      </trkpt>
      <trkpt lat="50.36374" lon="3.24924">
        <ele>26.9</ele>
        <time>2023-01-22T09:59:03Z</time>
      </trkpt>
      <trkpt lat="50.36375" lon="3.24924">
        <ele>26.9</ele>
        <time>2023-01-22T09:59:04Z</time>
      </trkpt>
      <trkpt lat="50.36377" lon="3.24925">
        <ele>26.8</ele>
        <time>2023-01-22T09:59:05Z</time>
      </trkpt>
      <trkpt lat="50.36378" lon="3.24926">
        <ele>26.8</ele>
        <time>2023-01-22T09:59:06Z</time>
      </trkpt>
      <trkpt lat="50.36379" lon="3.24927">
        <ele>26.8</ele>
        <time>2023-01-22T09:59:07Z</time>
      </trkpt>
      <trkpt lat="50.3638" lon="3.24926">
        <ele>26.8</ele>
        <time>2023-01-22T09:59:08Z</time>
      </trkpt>
      <trkpt lat="50.36381" lon="3.24927">
        <ele>26.7</ele>
        <time>2023-01-22T09:59:09Z</time>
      </trkpt>
      <trkpt lat="50.36382" lon="3.24927">
        <ele>17.889252</ele>
        <time>2023-01-22T09:59:10Z</time>
      </trkpt>
      <trkpt lat="50.36383" lon="3.24927">
        <ele>26.7</ele>
        <time>2023-01-22T09:59:11Z</time>
      </trkpt>
      <trkpt lat="50.36384" lon="3.24927">
        <ele>26.7</ele>
        <time>2023-01-22T09:59:12Z</time>
      </trkpt>
      <trkpt lat="50.36386" lon="3.24927">
        <ele>26.7</ele>
        <time>2023-01-22T09:59:13Z</time>
      </trkpt>
      <trkpt lat="50.36387" lon="3.24928">
        <ele>26.6</ele>
        <time>2023-01-22T09:59:14Z</time>
      </trkpt>
      <trkpt lat="50.36388" lon="3.24928">
        <ele>26.6</ele>
        <time>2023-01-22T09:59:15Z</time>
      </trkpt>
      <trkpt lat="50.36389" lon="3.24928">
        <ele>26.6</ele>
        <time>2023-01-22T09:59:16Z</time>
      </trkpt>
      <trkpt lat="50.3639" lon="3.24928">
        <ele>26.6</ele>
        <time>2023-01-22T09:59:17Z</time>
      </trkpt>
      <trkpt lat="50.36391" lon="3.24929">
        <ele>26.6</ele>
        <time>2023-01-22T09:59:18Z</time>
      </trkpt>
      <trkpt lat="50.36392" lon="3.24929">
        <ele>26.5</ele>
        <time>2023-01-22T09:59:19Z</time>
        <extensions>
          <gpxtpx:TrackPointExtension xmlns:gpxtpx="http://www.garmin.com/xmlschemas/TrackPointExtension/v1">
            <gpxtpx:hr>154</gpxtpx:hr>
          </gpxtpx:TrackPointExtension>
        </extensions>
      </trkpt>
      <trkpt lat="50.36393" lon="3.2493">
        <ele>17.410297</ele>
        <time>2023-01-22T09:59:20Z</time>
      </trkpt>
      <trkpt lat="50.36395" lon="3.24931">
        <ele>26.5</ele>
        <time>2023-01-22T09:59:21Z</time>
      </trkpt>
      <trkpt lat="50.36396" lon="3.24932">
        <ele>26.4</ele>
        <time>2023-01-22T09:59:22Z</time>
      </trkpt>
      <trkpt lat="50.36398" lon="3.24934">
        <ele>26.4</ele>
        <time>2023-01-22T09:59:23Z</time>
      </trkpt>
      <trkpt lat="50.36399" lon="3.24934">
        <ele>26.4</ele>
        <time>2023-01-22T09:59:24Z</time>
      </trkpt>
      <trkpt lat="50.364" lon="3.24934">
        <ele>26.4</ele>
        <time>2023-01-22T09:59:25Z</time>
      </trkpt>
      <trkpt lat="50.364" lon="3.24935">
        <ele>26.4</ele>
        <time>2023-01-22T09:59:26Z</time>
      </trkpt>
      <trkpt lat="50.36401" lon="3.24936">
        <ele>26.3</ele>
        <time>2023-01-22T09:59:27Z</time>
      </trkpt>
      <trkpt lat="50.36403" lon="3.24937">
        <ele>26.3</ele>
        <time>2023-01-22T09:59:28Z</time>
      </trkpt>
      <trkpt lat="50.36404" lon="3.24938">
        <ele>26.2</ele>
        <time>2023-01-22T09:59:29Z</time>
      </trkpt>
      <trkpt lat="50.36406" lon="3.2494">
        <ele>17.012915</ele>
        <time>2023-01-22T09:59:30Z</time>
      </trkpt>
      <trkpt lat="50.36406" lon="3.2494">
        <ele>26.1</ele>
        <time>2023-01-22T09:59:31Z</time>
      </trkpt>
      <trkpt lat="50.36407" lon="3.24941">
        <ele>26.1</ele>
        <time>2023-01-22T09:59:32Z</time>
      </trkpt>
      <trkpt lat="50.36408" lon="3.24942">
        <ele>26.1</ele>
        <time>2023-01-22T09:59:33Z</time>
      </trkpt>
      <trkpt lat="50.36409" lon="3.24943">
        <ele>26.1</ele>
        <time>2023-01-22T09:59:34Z</time>
      </trkpt>
      <trkpt lat="50.3641" lon="3.24943">
        <ele>26</ele>
        <time>2023-01-22T09:59:35Z</time>
      </trkpt>
      <trkpt lat="50.36411" lon="3.24944">
        <ele>26</ele>
        <time>2023-01-22T09:59:36Z</time>
      </trkpt>
      <trkpt lat="50.36412" lon="3.24944">
        <ele>26</ele>
        <time>2023-01-22T09:59:37Z</time>
      </trkpt>
      <trkpt lat="50.36412" lon="3.24945">
        <ele>26</ele>
        <time>2023-01-22T09:59:38Z</time>
      </trkpt>
      <trkpt lat="50.36413" lon="3.24946">
        <ele>26</ele>
        <time>2023-01-22T09:59:39Z</time>
        <extensions>
          <gpxtpx:TrackPointExtension xmlns:gpxtpx="http://www.garmin.com/xmlschemas/TrackPointExtension/v1">
            <gpxtpx:hr>152</gpxtpx:hr>
          </gpxtpx:TrackPointExtension>
        </extensions>
      </trkpt>
      <trkpt lat="50.36414" lon="3.24947">
        <ele>17.61231</ele>
        <time>2023-01-22T09:59:40Z</time>
      </trkpt>
      <trkpt lat="50.36415" lon="3.24948">
        <ele>26</ele>
        <time>2023-01-22T09:59:41Z</time>
      </trkpt>
      <trkpt lat="50.36416" lon="3.24949">
        <ele>26</ele>
        <time>2023-01-22T09:59:42Z</time>
      </trkpt>
      <trkpt lat="50.36417" lon="3.24949">
        <ele>26</ele>
        <time>2023-01-22T09:59:43Z</time>
      </trkpt>
      <trkpt lat="50.36418" lon="3.2495">
        <ele>26</ele>
        <time>2023-01-22T09:59:44Z</time>
      </trkpt>
      <trkpt lat="50.36419" lon="3.2495">
        <ele>26</ele>
        <time>2023-01-22T09:59:45Z</time>
      </trkpt>
      <trkpt lat="50.3642" lon="3.24951">
        <ele>26</ele>
        <time>2023-01-22T09:59:46Z</time>
      </trkpt>
      <trkpt lat="50.36421" lon="3.24952">
        <ele>26</ele>
        <time>2023-01-22T09:59:47Z</time>
      </trkpt>
      <trkpt lat="50.36422" lon="3.24952">
        <ele>26</ele>
        <time>2023-01-22T09:59:48Z</time>
      </trkpt>
      <trkpt lat="50.36424" lon="3.24953">
        <ele>26</ele>
        <time>2023-01-22T09:59:49Z</time>
      </trkpt>
      <trkpt lat="50.36425" lon="3.24955">
        <ele>17.029037</ele>
        <time>2023-01-22T09:59:50Z</time>
      </trkpt>
      <trkpt lat="50.36426" lon="3.24955">
        <ele>26</ele>
        <time>2023-01-22T09:59:51Z</time>
      </trkpt>
      <trkpt lat="50.36427" lon="3.24956">
        <ele>26</ele>
        <time>2023-01-22T09:59:52Z</time>
      </trkpt>
      <trkpt lat="50.36427" lon="3.24957">
        <ele>26</ele>
        <time>2023-01-22T09:59:53Z</time>
      </trkpt>
      <trkpt lat="50.36429" lon="3.24957">
        <ele>26</ele>
        <time>2023-01-22T09:59:54Z</time>
      </trkpt>
      <trkpt lat="50.3643" lon="3.24958">
        <ele>26</ele>
        <time>2023-01-22T09:59:55Z</time>
      </trkpt>
      <trkpt lat="50.36431" lon="3.24959">
        <ele>26</ele>
        <time>2023-01-22T09:59:56Z</time>
      </trkpt>
      <trkpt lat="50.36432" lon="3.2496">
        <ele>26</ele>
        <time>2023-01-22T09:59:57Z</time>
      </trkpt>
      <trkpt lat="50.36433" lon="3.24961">
        <ele>26</ele>
        <time>2023-01-22T09:59:58Z</time>
      </trkpt>
      <trkpt lat="50.36434" lon="3.24961">
        <ele>26</ele>
        <time>2023-01-22T09:59:59Z</time>
        <extensions>
          <gpxtpx:TrackPointExtension xmlns:gpxtpx="http://www.garmin.com/xmlschemas/TrackPointExtension/v1">
            <gpxtpx:hr>144</gpxtpx:hr>
          </gpxtpx:TrackPointExtension>
        </extensions>
      </trkpt>
      <trkpt lat="50.36435" lon="3.24961">
        <ele>26</ele>
        <time>2023-01-22T10:00:00Z</time>
      </trkpt>
      <trkpt lat="50.36437" lon="3.24962">
        <ele>26</ele>
        <time>2023-01-22T10:00:01Z</time>
      </trkpt>
      <trkpt lat="50.36438" lon="3.24962">
        <ele>26</ele>
        <time>2023-01-22T10:00:02Z</time>
      </trkpt>
      <trkpt lat="50.3644" lon="3.24964">
        <ele>26</ele>
        <time>2023-01-22T10:00:03Z</time>
      </trkpt>
      <trkpt lat="50.3644" lon="3.24965">
        <ele>26</ele>
        <time>2023-01-22T10:00:04Z</time>
      </trkpt>
      <trkpt lat="50.36441" lon="3.24966">
        <ele>17.763111</ele>
        <time>2023-01-22T10:00:05Z</time>
      </trkpt>
      <trkpt lat="50.36442" lon="3.24966">
        <ele>26</ele>
        <time>2023-01-22T10:00:06Z</time>
      </trkpt>
      <trkpt lat="50.36444" lon="3.24968">
        <ele>26</ele>
        <time>2023-01-22T10:00:07Z</time>
      </trkpt>
      <trkpt lat="50.36445" lon="3.24969">
        <ele>26</ele>
        <time>2023-01-22T10:00:08Z</time>
      </trkpt>
      <trkpt lat="50.36446" lon="3.2497">
        <ele>26</ele>
        <time>2023-01-22T10:00:09Z</time>
      </trkpt>
      <trkpt lat="50.36447" lon="3.24971">
        <ele>17.48048</ele>
        <time>2023-01-22T10:00:10Z</time>
      </trkpt>
      <trkpt lat="50.36447" lon="3.24971">
        <ele>26</ele>
        <time>2023-01-22T10:00:11Z</time>
      </trkpt>
      <trkpt lat="50.36448" lon="3.24972">
        <ele>26</ele>
        <time>2023-01-22T10:00:12Z</time>
      </trkpt>
      <trkpt lat="50.36449" lon="3.24973">
        <ele>26</ele>
        <time>2023-01-22T10:00:13Z</time>
      </trkpt>
      <trkpt lat="50.36451" lon="3.24973">
        <ele>26</ele>
        <time>2023-01-22T10:00:14Z</time>
      </trkpt>
      <trkpt lat="50.36452" lon="3.24973">
        <ele>26</ele>
        <time>2023-01-22T10:00:15Z</time>
      </trkpt>
      <trkpt lat="50.36453" lon="3.24974">
        <ele>26</ele>
        <time>2023-01-22T10:00:16Z</time>
      </trkpt>
      <trkpt lat="50.36454" lon="3.24975">
        <ele>26</ele>
        <time>2023-01-22T10:00:17Z</time>
      </trkpt>
      <trkpt lat="50.36455" lon="3.24976">
        <ele>26</ele>
        <time>2023-01-22T10:00:18Z</time>
      </trkpt>
      <trkpt lat="50.36457" lon="3.24978">
        <ele>26</ele>
        <time>2023-01-22T10:00:19Z</time>
        <extensions>
          <gpxtpx:TrackPointExtension xmlns:gpxtpx="http://www.garmin.com/xmlschemas/TrackPointExtension/v1">
            <gpxtpx:hr>155</gpxtpx:hr>
          </gpxtpx:TrackPointExtension>
        </extensions>
      </trkpt>
      <trkpt lat="50.36458" lon="3.24979">
        <ele>17.472893</ele>
        <time>2023-01-22T10:00:20Z</time>
      </trkpt>
      <trkpt lat="50.36459" lon="3.2498">
        <ele>26</ele>
        <time>2023-01-22T10:00:21Z</time>
      </trkpt>
      <trkpt lat="50.36459" lon="3.24981">
        <ele>26</ele>
        <time>2023-01-22T10:00:22Z</time>
      </trkpt>
      <trkpt lat="50.36461" lon="3.24981">
        <ele>26</ele>
        <time>2023-01-22T10:00:23Z</time>
      </trkpt>
      <trkpt lat="50.36462" lon="3.24981">
        <ele>26</ele>
        <time>2023-01-22T10:00:24Z</time>
      </trkpt>
      <trkpt lat="50.36463" lon="3.24982">
        <ele>26</ele>
        <time>2023-01-22T10:00:25Z</time>
      </trkpt>
      <trkpt lat="50.36464" lon="3.24982">
        <ele>26</ele>
        <time>2023-01-22T10:00:26Z</time>
      </trkpt>
      <trkpt lat="50.36465" lon="3.24982">
        <ele>26</ele>
        <time>2023-01-22T10:00:27Z</time>
      </trkpt>
      <trkpt lat="50.36466" lon="3.24983">
        <ele>26</ele>
        <time>2023-01-22T10:00:28Z</time>
      </trkpt>
      <trkpt lat="50.36467" lon="3.24983">
        <ele>26</ele>
        <time>2023-01-22T10:00:29Z</time>
      </trkpt>
      <trkpt lat="50.36469" lon="3.24984">
        <ele>17.271828</ele>
        <time>2023-01-22T10:00:30Z</time>
      </trkpt>
      <trkpt lat="50.3647" lon="3.24985">
        <ele>26</ele>
        <time>2023-01-22T10:00:31Z</time>
      </trkpt>
      <trkpt lat="50.36471" lon="3.24986">
        <ele>26</ele>
        <time>2023-01-22T10:00:32Z</time>
      </trkpt>
      <trkpt lat="50.36472" lon="3.24988">
        <ele>26</ele>
        <time>2023-01-22T10:00:33Z</time>
      </trkpt>
      <trkpt lat="50.36473" lon="3.24989">
        <ele>26</ele>
        <time>2023-01-22T10:00:34Z</time>
      </trkpt>
      <trkpt lat="50.36474" lon="3.24989">
        <ele>26</ele>
        <time>2023-01-22T10:00:35Z</time>
      </trkpt>
      <trkpt lat="50.36475" lon="3.2499">
        <ele>26</ele>
        <time>2023-01-22T10:00:36Z</time>
      </trkpt>
      <trkpt lat="50.36477" lon="3.24991">
        <ele>26</ele>
        <time>2023-01-22T10:00:37Z</time>
      </trkpt>
      <trkpt lat="50.36478" lon="3.24991">
        <ele>26</ele>
        <time>2023-01-22T10:00:38Z</time>
      </trkpt>
      <trkpt lat="50.36478" lon="3.24992">
        <ele>26</ele>
        <time>2023-01-22T10:00:39Z</time>
        <extensions>
          <gpxtpx:TrackPointExtension xmlns:gpxtpx="http://www.garmin.com/xmlschemas/TrackPointExtension/v1">
            <gpxtpx:hr>144</gpxtpx:hr>
          </gpxtpx:TrackPointExtension>
        </extensions>
      </trkpt>
      <trkpt lat="50.36479" lon="3.24993">
        <ele>17.350546</ele>
        <time>2023-01-22T10:00:40Z</time>
      </trkpt>
      <trkpt lat="50.3648" lon="3.24994">
        <ele>26</ele>
        <time>2023-01-22T10:00:41Z</time>
      </trkpt>
      <trkpt lat="50.36481" lon="3.24995">
        <ele>26</ele>
        <time>2023-01-22T10:00:42Z</time>
      </trkpt>
      <trkpt lat="50.36482" lon="3.24996">
        <ele>26</ele>
        <time>2023-01-22T10:00:43Z</time>
      </trkpt>
      <trkpt lat="50.36483" lon="3.24997">
        <ele>26</ele>
        <time>2023-01-22T10:00:44Z</time>
      </trkpt>
      <trkpt lat="50.36484" lon="3.24998">
        <ele>26</ele>
        <time>2023-01-22T10:00:45Z</time>
      </trkpt>
      <trkpt lat="50.36485" lon="3.24999">
        <ele>26</ele>
        <time>2023-01-22T10:00:46Z</time>
      </trkpt>
      <trkpt lat="50.36486" lon="3.25">
        <ele>26</ele>
        <time>2023-01-22T10:00:47Z</time>
      </trkpt>
      <trkpt lat="50.36487" lon="3.25001">
        <ele>26</ele>
        <time>2023-01-22T10:00:48Z</time>
      </trkpt>
      <trkpt lat="50.36489" lon="3.25002">
        <ele>26</ele>
        <time>2023-01-22T10:00:49Z</time>
      </trkpt>
      <trkpt lat="50.36491" lon="3.25004">
        <ele>17.476686</ele>
        <time>2023-01-22T10:00:50Z</time>
      </trkpt>
      <trkpt lat="50.36491" lon="3.25004">
        <ele>26</ele>
        <time>2023-01-22T10:00:51Z</time>
      </trkpt>
      <trkpt lat="50.36492" lon="3.25005">
        <ele>26</ele>
        <time>2023-01-22T10:00:52Z</time>
      </trkpt>
      <trkpt lat="50.36493" lon="3.25006">
        <ele>26</ele>
        <time>2023-01-22T10:00:53Z</time>
      </trkpt>
      <trkpt lat="50.36494" lon="3.25007">
        <ele>26</ele>
        <time>2023-01-22T10:00:54Z</time>
      </trkpt>
      <trkpt lat="50.36495" lon="3.25007">
        <ele>26</ele>
        <time>2023-01-22T10:00:55Z</time>
      </trkpt>
      <trkpt lat="50.36496" lon="3.25008">
        <ele>26</ele>
        <time>2023-01-22T10:00:56Z</time>
      </trkpt>
      <trkpt lat="50.36497" lon="3.2501">
        <ele>26</ele>
        <time>2023-01-22T10:00:57Z</time>
      </trkpt>
      <trkpt lat="50.36498" lon="3.25011">
        <ele>26</ele>
        <time>2023-01-22T10:00:58Z</time>
      </trkpt>
      <trkpt lat="50.36498" lon="3.25012">
        <ele>26</ele>
        <time>2023-01-22T10:00:59Z</time>
        <extensions>
          <gpxtpx:TrackPointExtension xmlns:gpxtpx="http://www.garmin.com/xmlschemas/TrackPointExtension/v1">
            <gpxtpx:hr>154</gpxtpx:hr>
          </gpxtpx:TrackPointExtension>
        </extensions>
      </trkpt>
      <trkpt lat="50.36499" lon="3.25013">
        <ele>17.1694</ele>
        <time>2023-01-22T10:01:00Z</time>
      </trkpt>
      <trkpt lat="50.36499" lon="3.25015">
        <ele>26</ele>
        <time>2023-01-22T10:01:01Z</time>
      </trkpt>
      <trkpt lat="50.36499" lon="3.25016">
        <ele>26</ele>
        <time>2023-01-22T10:01:02Z</time>
      </trkpt>
      <trkpt lat="50.36499" lon="3.25018">
        <ele>26</ele>
        <time>2023-01-22T10:01:03Z</time>
      </trkpt>
      <trkpt lat="50.36499" lon="3.2502">
        <ele>26</ele>
        <time>2023-01-22T10:01:04Z</time>
      </trkpt>
      <trkpt lat="50.36498" lon="3.25022">
        <ele>26</ele>
        <time>2023-01-22T10:01:05Z</time>
      </trkpt>
      <trkpt lat="50.36498" lon="3.25023">
        <ele>26</ele>
        <time>2023-01-22T10:01:06Z</time>
      </trkpt>
      <trkpt lat="50.36498" lon="3.25025">
        <ele>26</ele>
        <time>2023-01-22T10:01:07Z</time>
      </trkpt>
      <trkpt lat="50.36498" lon="3.25027">
        <ele>26</ele>
        <time>2023-01-22T10:01:08Z</time>
      </trkpt>
      <trkpt lat="50.36498" lon="3.25028">
        <ele>26</ele>
        <time>2023-01-22T10:01:09Z</time>
      </trkpt>
      <trkpt lat="50.36497" lon="3.2503">
        <ele>16.9323</ele>
        <time>2023-01-22T10:01:10Z</time>
      </trkpt>
      <trkpt lat="50.36496" lon="3.25031">
        <ele>25.9</ele>
        <time>2023-01-22T10:01:11Z</time>
      </trkpt>
      <trkpt lat="50.36495" lon="3.25033">
        <ele>25.9</ele>
        <time>2023-01-22T10:01:12Z</time>
      </trkpt>
      <trkpt lat="50.36494" lon="3.25034">
        <ele>25.8</ele>
        <time>2023-01-22T10:01:13Z</time>
      </trkpt>
      <trkpt lat="50.36494" lon="3.25036">
        <ele>25.8</ele>
        <time>2023-01-22T10:01:14Z</time>
      </trkpt>
      <trkpt lat="50.36493" lon="3.25038">
        <ele>25.7</ele>
        <time>2023-01-22T10:01:15Z</time>
      </trkpt>
      <trkpt lat="50.36493" lon="3.2504">
        <ele>25.7</ele>
        <time>2023-01-22T10:01:16Z</time>
      </trkpt>
      <trkpt lat="50.36492" lon="3.25042">
        <ele>25.6</ele>
        <time>2023-01-22T10:01:17Z</time>
      </trkpt>
      <trkpt lat="50.36491" lon="3.25044">
        <ele>25.6</ele>
        <time>2023-01-22T10:01:18Z</time>
      </trkpt>
      <trkpt lat="50.36491" lon="3.25045">
        <ele>25.6</ele>
        <time>2023-01-22T10:01:19Z</time>
      </trkpt>
      <trkpt lat="50.3649" lon="3.25047">
        <ele>16.936094</ele>
        <time>2023-01-22T10:01:20Z</time>
      </trkpt>
      <trkpt lat="50.3649" lon="3.25048">
        <ele>25.6</ele>
        <time>2023-01-22T10:01:21Z</time>
      </trkpt>
      <trkpt lat="50.3649" lon="3.25049">
        <ele>25.5</ele>
        <time>2023-01-22T10:01:22Z</time>
        <extensions>
          <gpxtpx:TrackPointExtension xmlns:gpxtpx="http://www.garmin.com/xmlschemas/TrackPointExtension/v1">
            <gpxtpx:hr>153</gpxtpx:hr>
          </gpxtpx:TrackPointExtension>
        </extensions>
      </trkpt>
      <trkpt lat="50.36489" lon="3.25051">
        <ele>25.5</ele>
        <time>2023-01-22T10:01:23Z</time>
      </trkpt>
      <trkpt lat="50.36488" lon="3.25053">
        <ele>25.5</ele>
        <time>2023-01-22T10:01:24Z</time>
      </trkpt>
      <trkpt lat="50.36488" lon="3.25055">
        <ele>25.5</ele>
        <time>2023-01-22T10:01:25Z</time>
      </trkpt>
      <trkpt lat="50.36487" lon="3.25056">
        <ele>25.5</ele>
        <time>2023-01-22T10:01:26Z</time>
      </trkpt>
      <trkpt lat="50.36486" lon="3.25058">
        <ele>25.5</ele>
        <time>2023-01-22T10:01:27Z</time>
      </trkpt>
      <trkpt lat="50.36485" lon="3.25059">
        <ele>25.5</ele>
        <time>2023-01-22T10:01:28Z</time>
      </trkpt>
      <trkpt lat="50.36485" lon="3.25061">
        <ele>25.4</ele>
        <time>2023-01-22T10:01:29Z</time>
      </trkpt>
      <trkpt lat="50.36484" lon="3.25063">
        <ele>16.840305</ele>
        <time>2023-01-22T10:01:30Z</time>
      </trkpt>
      <trkpt lat="50.36483" lon="3.25064">
        <ele>25.4</ele>
        <time>2023-01-22T10:01:31Z</time>
      </trkpt>
      <trkpt lat="50.36483" lon="3.25065">
        <ele>25.4</ele>
        <time>2023-01-22T10:01:32Z</time>
      </trkpt>
      <trkpt lat="50.36482" lon="3.25067">
        <ele>25.4</ele>
        <time>2023-01-22T10:01:33Z</time>
      </trkpt>
      <trkpt lat="50.36482" lon="3.25069">
        <ele>25.3</ele>
        <time>2023-01-22T10:01:34Z</time>
      </trkpt>
      <trkpt lat="50.36481" lon="3.2507">
        <ele>25.3</ele>
        <time>2023-01-22T10:01:35Z</time>
      </trkpt>
      <trkpt lat="50.36481" lon="3.25072">
        <ele>25.3</ele>
        <time>2023-01-22T10:01:36Z</time>
      </trkpt>
      <trkpt lat="50.3648" lon="3.25073">
        <ele>25.3</ele>
        <time>2023-01-22T10:01:37Z</time>
      </trkpt>
      <trkpt lat="50.3648" lon="3.25075">
        <ele>25.2</ele>
        <time>2023-01-22T10:01:38Z</time>
      </trkpt>
      <trkpt lat="50.36479" lon="3.25077">
        <ele>25.2</ele>
        <time>2023-01-22T10:01:39Z</time>
        <extensions>
          <gpxtpx:TrackPointExtension xmlns:gpxtpx="http://www.garmin.com/xmlschemas/TrackPointExtension/v1">
            <gpxtpx:hr>144</gpxtpx:hr>
          </gpxtpx:TrackPointExtension>
        </extensions>
      </trkpt>
      <trkpt lat="50.36478" lon="3.25079">
        <ele>25.1</ele>
        <time>2023-01-22T10:01:40Z</time>
      </trkpt>
      <trkpt lat="50.36478" lon="3.2508">
        <ele>25.1</ele>
        <time>2023-01-22T10:01:41Z</time>
      </trkpt>
      <trkpt lat="50.36477" lon="3.25082">
        <ele>25.1</ele>
        <time>2023-01-22T10:01:42Z</time>
      </trkpt>
      <trkpt lat="50.36477" lon="3.25083">
        <ele>25</ele>
        <time>2023-01-22T10:01:43Z</time>
      </trkpt>
      <trkpt lat="50.36476" lon="3.25085">
        <ele>25</ele>
        <time>2023-01-22T10:01:44Z</time>
      </trkpt>
      <trkpt lat="50.36475" lon="3.25087">
        <ele>16.60321</ele>
        <time>2023-01-22T10:01:45Z</time>
      </trkpt>
      <trkpt lat="50.36475" lon="3.25088">
        <ele>25</ele>
        <time>2023-01-22T10:01:46Z</time>
      </trkpt>
      <trkpt lat="50.36474" lon="3.2509">
        <ele>25</ele>
        <time>2023-01-22T10:01:47Z</time>
      </trkpt>
      <trkpt lat="50.36474" lon="3.25092">
        <ele>25</ele>
        <time>2023-01-22T10:01:48Z</time>
      </trkpt>
      <trkpt lat="50.36473" lon="3.25093">
        <ele>25</ele>
        <time>2023-01-22T10:01:49Z</time>
      </trkpt>
      <trkpt lat="50.36472" lon="3.25095">
        <ele>16.607952</ele>
        <time>2023-01-22T10:01:50Z</time>
      </trkpt>
      <trkpt lat="50.36472" lon="3.25097">
        <ele>25</ele>
        <time>2023-01-22T10:01:51Z</time>
      </trkpt>
      <trkpt lat="50.36471" lon="3.25099">
        <ele>25</ele>
        <time>2023-01-22T10:01:52Z</time>
      </trkpt>
      <trkpt lat="50.36471" lon="3.251">
        <ele>25.1</ele>
        <time>2023-01-22T10:01:53Z</time>
      </trkpt>
      <trkpt lat="50.3647" lon="3.25102">
        <ele>25.1</ele>
        <time>2023-01-22T10:01:54Z</time>
      </trkpt>
      <trkpt lat="50.3647" lon="3.25104">
        <ele>25.1</ele>
        <time>2023-01-22T10:01:55Z</time>
      </trkpt>
      <trkpt lat="50.36469" lon="3.25106">
        <ele>25.1</ele>
        <time>2023-01-22T10:01:56Z</time>
      </trkpt>
      <trkpt lat="50.36469" lon="3.25108">
        <ele>25.1</ele>
        <time>2023-01-22T10:01:57Z</time>
      </trkpt>
      <trkpt lat="50.36468" lon="3.25109">
        <ele>25.2</ele>
        <time>2023-01-22T10:01:58Z</time>
      </trkpt>
      <trkpt lat="50.36468" lon="3.2511">
        <ele>25.2</ele>
        <time>2023-01-22T10:01:59Z</time>
      </trkpt>
      <trkpt lat="50.36467" lon="3.25112">
        <ele>16.536823</ele>
        <time>2023-01-22T10:02:00Z</time>
      </trkpt>
      <trkpt lat="50.36466" lon="3.25113">
        <ele>25.2</ele>
        <time>2023-01-22T10:02:01Z</time>
      </trkpt>
      <trkpt lat="50.36466" lon="3.25115">
        <ele>25.2</ele>
        <time>2023-01-22T10:02:02Z</time>
      </trkpt>
      <trkpt lat="50.36465" lon="3.25117">
        <ele>25.2</ele>
        <time>2023-01-22T10:02:03Z</time>
      </trkpt>
      <trkpt lat="50.36464" lon="3.25119">
        <ele>25.2</ele>
        <time>2023-01-22T10:02:04Z</time>
      </trkpt>
      <trkpt lat="50.36463" lon="3.25122">
        <ele>25.2</ele>
        <time>2023-01-22T10:02:05Z</time>
      </trkpt>
      <trkpt lat="50.36462" lon="3.25123">
        <ele>25.2</ele>
        <time>2023-01-22T10:02:06Z</time>
      </trkpt>
      <trkpt lat="50.36462" lon="3.25126">
        <ele>25.2</ele>
        <time>2023-01-22T10:02:07Z</time>
      </trkpt>
      <trkpt lat="50.36462" lon="3.25127">
        <ele>25.2</ele>
        <time>2023-01-22T10:02:08Z</time>
      </trkpt>
      <trkpt lat="50.36461" lon="3.25129">
        <ele>25.1</ele>
        <time>2023-01-22T10:02:09Z</time>
      </trkpt>
      <trkpt lat="50.3646" lon="3.2513">
        <ele>16.508371</ele>
        <time>2023-01-22T10:02:10Z</time>
      </trkpt>
      <trkpt lat="50.3646" lon="3.25132">
        <ele>25.1</ele>
        <time>2023-01-22T10:02:11Z</time>
      </trkpt>
      <trkpt lat="50.36459" lon="3.25135">
        <ele>25.1</ele>
        <time>2023-01-22T10:02:12Z</time>
      </trkpt>
      <trkpt lat="50.36458" lon="3.25137">
        <ele>25</ele>
        <time>2023-01-22T10:02:13Z</time>
      </trkpt>
      <trkpt lat="50.36458" lon="3.25138">
        <ele>25</ele>
        <time>2023-01-22T10:02:14Z</time>
      </trkpt>
      <trkpt lat="50.36458" lon="3.2514">
        <ele>25</ele>
        <time>2023-01-22T10:02:15Z</time>
      </trkpt>
      <trkpt lat="50.36458" lon="3.25141">
        <ele>25</ele>
        <time>2023-01-22T10:02:16Z</time>
      </trkpt>
      <trkpt lat="50.36457" lon="3.25143">
        <ele>25</ele>
        <time>2023-01-22T10:02:17Z</time>
      </trkpt>
      <trkpt lat="50.36456" lon="3.25145">
        <ele>25</ele>
        <time>2023-01-22T10:02:18Z</time>
      </trkpt>
      <trkpt lat="50.36456" lon="3.25147">
        <ele>25</ele>
        <time>2023-01-22T10:02:19Z</time>
      </trkpt>
      <trkpt lat="50.36455" lon="3.25149">
        <ele>16.578552</ele>
        <time>2023-01-22T10:02:20Z</time>
      </trkpt>
      <trkpt lat="50.36454" lon="3.25151">
        <ele>25</ele>
        <time>2023-01-22T10:02:21Z</time>
      </trkpt>
      <trkpt lat="50.36454" lon="3.25153">
        <ele>25</ele>
        <time>2023-01-22T10:02:22Z</time>
      </trkpt>
      <trkpt lat="50.36454" lon="3.25155">
        <ele>25</ele>
        <time>2023-01-22T10:02:23Z</time>
      </trkpt>
      <trkpt lat="50.36453" lon="3.25156">
        <ele>25</ele>
        <time>2023-01-22T10:02:24Z</time>
      </trkpt>
      <trkpt lat="50.36452" lon="3.25158">
        <ele>25</ele>
        <time>2023-01-22T10:02:25Z</time>
      </trkpt>
      <trkpt lat="50.36451" lon="3.2516">
        <ele>25</ele>
        <time>2023-01-22T10:02:26Z</time>
      </trkpt>
      <trkpt lat="50.36451" lon="3.25162">
        <ele>25</ele>
        <time>2023-01-22T10:02:27Z</time>
      </trkpt>
      <trkpt lat="50.3645" lon="3.25163">
        <ele>25</ele>
        <time>2023-01-22T10:02:28Z</time>
      </trkpt>
      <trkpt lat="50.36449" lon="3.25165">
        <ele>25</ele>
        <time>2023-01-22T10:02:29Z</time>
      </trkpt>
      <trkpt lat="50.36449" lon="3.25167">
        <ele>16.447676</ele>
        <time>2023-01-22T10:02:30Z</time>
      </trkpt>
      <trkpt lat="50.36449" lon="3.25169">
        <ele>25</ele>
        <time>2023-01-22T10:02:31Z</time>
      </trkpt>
      <trkpt lat="50.3645" lon="3.25172">
        <ele>25</ele>
        <time>2023-01-22T10:02:32Z</time>
      </trkpt>
      <trkpt lat="50.36449" lon="3.25174">
        <ele>25</ele>
        <time>2023-01-22T10:02:33Z</time>
      </trkpt>
      <trkpt lat="50.36449" lon="3.25176">
        <ele>25</ele>
        <time>2023-01-22T10:02:34Z</time>
      </trkpt>
      <trkpt lat="50.36448" lon="3.25177">
        <ele>25</ele>
        <time>2023-01-22T10:02:35Z</time>
      </trkpt>
      <trkpt lat="50.36447" lon="3.25179">
        <ele>25</ele>
        <time>2023-01-22T10:02:36Z</time>
      </trkpt>
      <trkpt lat="50.36447" lon="3.25181">
        <ele>25</ele>
        <time>2023-01-22T10:02:37Z</time>
      </trkpt>
      <trkpt lat="50.36446" lon="3.25183">
        <ele>25</ele>
        <time>2023-01-22T10:02:38Z</time>
      </trkpt>
      <trkpt lat="50.36446" lon="3.25184">
        <ele>25</ele>
        <time>2023-01-22T10:02:39Z</time>
      </trkpt>
      <trkpt lat="50.36446" lon="3.25185">
        <ele>16.449574</ele>
        <time>2023-01-22T10:02:40Z</time>
      </trkpt>
      <trkpt lat="50.36445" lon="3.25187">
        <ele>25</ele>
        <time>2023-01-22T10:02:41Z</time>
      </trkpt>
      <trkpt lat="50.36445" lon="3.25189">
        <ele>25</ele>
        <time>2023-01-22T10:02:42Z</time>
      </trkpt>
      <trkpt lat="50.36445" lon="3.2519">
        <ele>25</ele>
        <time>2023-01-22T10:02:43Z</time>
      </trkpt>
      <trkpt lat="50.36444" lon="3.25192">
        <ele>25</ele>
        <time>2023-01-22T10:02:44Z</time>
      </trkpt>
      <trkpt lat="50.36444" lon="3.25194">
        <ele>25</ele>
        <time>2023-01-22T10:02:45Z</time>
      </trkpt>
      <trkpt lat="50.36443" lon="3.25195">
        <ele>25</ele>
        <time>2023-01-22T10:02:46Z</time>
      </trkpt>
      <trkpt lat="50.36443" lon="3.25197">
        <ele>25</ele>
        <time>2023-01-22T10:02:47Z</time>
      </trkpt>
      <trkpt lat="50.36442" lon="3.25199">
        <ele>25</ele>
        <time>2023-01-22T10:02:48Z</time>
      </trkpt>
      <trkpt lat="50.36442" lon="3.25201">
        <ele>25</ele>
        <time>2023-01-22T10:02:49Z</time>
      </trkpt>
      <trkpt lat="50.36441" lon="3.25202">
        <ele>16.385084</ele>
        <time>2023-01-22T10:02:50Z</time>
      </trkpt>
      <trkpt lat="50.36441" lon="3.25204">
        <ele>25</ele>
        <time>2023-01-22T10:02:51Z</time>
      </trkpt>
      <trkpt lat="50.36441" lon="3.25206">
        <ele>25</ele>
        <time>2023-01-22T10:02:52Z</time>
      </trkpt>
      <trkpt lat="50.3644" lon="3.25209">
        <ele>25</ele>
        <time>2023-01-22T10:02:53Z</time>
      </trkpt>
      <trkpt lat="50.3644" lon="3.25211">
        <ele>25</ele>
        <time>2023-01-22T10:02:54Z</time>
      </trkpt>
      <trkpt lat="50.3644" lon="3.25212">
        <ele>25</ele>
        <time>2023-01-22T10:02:55Z</time>
      </trkpt>
      <trkpt lat="50.36439" lon="3.25215">
        <ele>25</ele>
        <time>2023-01-22T10:02:56Z</time>
      </trkpt>
      <trkpt lat="50.36438" lon="3.25217">
        <ele>25</ele>
        <time>2023-01-22T10:02:57Z</time>
      </trkpt>
      <trkpt lat="50.36437" lon="3.25219">
        <ele>25</ele>
        <time>2023-01-22T10:02:58Z</time>
      </trkpt>
      <trkpt lat="50.36437" lon="3.25222">
        <ele>25</ele>
        <time>2023-01-22T10:02:59Z</time>
      </trkpt>
      <trkpt lat="50.36436" lon="3.25223">
        <ele>16.304472</ele>
        <time>2023-01-22T10:03:00Z</time>
      </trkpt>
      <trkpt lat="50.36435" lon="3.25225">
        <ele>25</ele>
        <time>2023-01-22T10:03:01Z</time>
      </trkpt>
      <trkpt lat="50.36435" lon="3.25226">
        <ele>25</ele>
        <time>2023-01-22T10:03:02Z</time>
      </trkpt>
      <trkpt lat="50.36434" lon="3.25227">
        <ele>25</ele>
        <time>2023-01-22T10:03:03Z</time>
      </trkpt>
      <trkpt lat="50.36434" lon="3.25229">
        <ele>25</ele>
        <time>2023-01-22T10:03:04Z</time>
      </trkpt>
      <trkpt lat="50.36433" lon="3.25231">
        <ele>25</ele>
        <time>2023-01-22T10:03:05Z</time>
      </trkpt>
      <trkpt lat="50.36433" lon="3.25234">
        <ele>25</ele>
        <time>2023-01-22T10:03:06Z</time>
      </trkpt>
      <trkpt lat="50.36433" lon="3.25235">
        <ele>25</ele>
        <time>2023-01-22T10:03:07Z</time>
      </trkpt>
      <trkpt lat="50.36432" lon="3.25237">
        <ele>25</ele>
        <time>2023-01-22T10:03:08Z</time>
      </trkpt>
      <trkpt lat="50.36432" lon="3.25239">
        <ele>25</ele>
        <time>2023-01-22T10:03:09Z</time>
      </trkpt>
      <trkpt lat="50.3643" lon="3.25241">
        <ele>16.40405</ele>
        <time>2023-01-22T10:03:10Z</time>
      </trkpt>
      <trkpt lat="50.3643" lon="3.25243">
        <ele>25</ele>
        <time>2023-01-22T10:03:11Z</time>
      </trkpt>
      <trkpt lat="50.36429" lon="3.25245">
        <ele>25</ele>
        <time>2023-01-22T10:03:12Z</time>
      </trkpt>
      <trkpt lat="50.36429" lon="3.25248">
        <ele>25</ele>
        <time>2023-01-22T10:03:13Z</time>
      </trkpt>
      <trkpt lat="50.36428" lon="3.25251">
        <ele>25</ele>
        <time>2023-01-22T10:03:14Z</time>
      </trkpt>
      <trkpt lat="50.36427" lon="3.25253">
        <ele>25</ele>
        <time>2023-01-22T10:03:15Z</time>
      </trkpt>
      <trkpt lat="50.36427" lon="3.25254">
        <ele>25</ele>
        <time>2023-01-22T10:03:16Z</time>
      </trkpt>
      <trkpt lat="50.36427" lon="3.25255">
        <ele>25</ele>
        <time>2023-01-22T10:03:17Z</time>
      </trkpt>
      <trkpt lat="50.36427" lon="3.25257">
        <ele>25</ele>
        <time>2023-01-22T10:03:18Z</time>
      </trkpt>
      <trkpt lat="50.36427" lon="3.25259">
        <ele>25</ele>
        <time>2023-01-22T10:03:19Z</time>
      </trkpt>
      <trkpt lat="50.36426" lon="3.2526">
        <ele>25</ele>
        <time>2023-01-22T10:03:20Z</time>
      </trkpt>
      <trkpt lat="50.36426" lon="3.25262">
        <ele>25</ele>
        <time>2023-01-22T10:03:21Z</time>
      </trkpt>
      <trkpt lat="50.36426" lon="3.25264">
        <ele>25</ele>
        <time>2023-01-22T10:03:22Z</time>
      </trkpt>
      <trkpt lat="50.36425" lon="3.25266">
        <ele>25</ele>
        <time>2023-01-22T10:03:23Z</time>
      </trkpt>
      <trkpt lat="50.36424" lon="3.25267">
        <ele>25</ele>
        <time>2023-01-22T10:03:24Z</time>
      </trkpt>
      <trkpt lat="50.36424" lon="3.25268">
        <ele>16.06833</ele>
        <time>2023-01-22T10:03:25Z</time>
      </trkpt>
      <trkpt lat="50.36423" lon="3.2527">
        <ele>25</ele>
        <time>2023-01-22T10:03:26Z</time>
      </trkpt>
      <trkpt lat="50.36423" lon="3.25272">
        <ele>25</ele>
        <time>2023-01-22T10:03:27Z</time>
      </trkpt>
      <trkpt lat="50.36423" lon="3.25274">
        <ele>25</ele>
        <time>2023-01-22T10:03:28Z</time>
      </trkpt>
      <trkpt lat="50.36422" lon="3.25276">
        <ele>25</ele>
        <time>2023-01-22T10:03:29Z</time>
      </trkpt>
      <trkpt lat="50.36421" lon="3.25279">
        <ele>16.029448</ele>
        <time>2023-01-22T10:03:30Z</time>
      </trkpt>
      <trkpt lat="50.36421" lon="3.25281">
        <ele>25</ele>
        <time>2023-01-22T10:03:31Z</time>
      </trkpt>
      <trkpt lat="50.3642" lon="3.25282">
        <ele>25</ele>
        <time>2023-01-22T10:03:32Z</time>
      </trkpt>
      <trkpt lat="50.3642" lon="3.25284">
        <ele>25</ele>
        <time>2023-01-22T10:03:33Z</time>
      </trkpt>
      <trkpt lat="50.3642" lon="3.25286">
        <ele>25</ele>
        <time>2023-01-22T10:03:34Z</time>
      </trkpt>
      <trkpt lat="50.3642" lon="3.25288">
        <ele>25</ele>
        <time>2023-01-22T10:03:35Z</time>
      </trkpt>
      <trkpt lat="50.3642" lon="3.25291">
        <ele>24.9</ele>
        <time>2023-01-22T10:03:36Z</time>
      </trkpt>
      <trkpt lat="50.36419" lon="3.25294">
        <ele>24.9</ele>
        <time>2023-01-22T10:03:37Z</time>
      </trkpt>
      <trkpt lat="50.36419" lon="3.25296">
        <ele>24.9</ele>
        <time>2023-01-22T10:03:38Z</time>
      </trkpt>
      <trkpt lat="50.36418" lon="3.25297">
        <ele>25</ele>
        <time>2023-01-22T10:03:39Z</time>
      </trkpt>
      <trkpt lat="50.36418" lon="3.25299">
        <ele>15.877711</ele>
        <time>2023-01-22T10:03:40Z</time>
      </trkpt>
      <trkpt lat="50.36418" lon="3.25301">
        <ele>25</ele>
        <time>2023-01-22T10:03:41Z</time>
      </trkpt>
      <trkpt lat="50.36417" lon="3.25302">
        <ele>25</ele>
        <time>2023-01-22T10:03:42Z</time>
      </trkpt>
      <trkpt lat="50.36418" lon="3.25304">
        <ele>25</ele>
        <time>2023-01-22T10:03:43Z</time>
      </trkpt>
      <trkpt lat="50.36418" lon="3.25306">
        <ele>25</ele>
        <time>2023-01-22T10:03:44Z</time>
      </trkpt>
      <trkpt lat="50.36418" lon="3.25307">
        <ele>24.9</ele>
        <time>2023-01-22T10:03:45Z</time>
      </trkpt>
      <trkpt lat="50.36418" lon="3.25308">
        <ele>24.9</ele>
        <time>2023-01-22T10:03:46Z</time>
      </trkpt>
      <trkpt lat="50.36418" lon="3.25309">
        <ele>24.9</ele>
        <time>2023-01-22T10:03:47Z</time>
      </trkpt>
      <trkpt lat="50.36418" lon="3.25309">
        <ele>24.8</ele>
        <time>2023-01-22T10:03:48Z</time>
      </trkpt>
      <trkpt lat="50.36418" lon="3.25309">
        <ele>24.8</ele>
        <time>2023-01-22T10:03:49Z</time>
      </trkpt>
      <trkpt lat="50.36418" lon="3.25309">
        <ele>15.93556</ele>
        <time>2023-01-22T10:03:50Z</time>
      </trkpt>
      <trkpt lat="50.36418" lon="3.25309">
        <ele>24.8</ele>
        <time>2023-01-22T10:03:51Z</time>
        <extensions>
          <gpxtpx:TrackPointExtension xmlns:gpxtpx="http://www.garmin.com/xmlschemas/TrackPointExtension/v1">
            <gpxtpx:hr>153</gpxtpx:hr>
          </gpxtpx:TrackPointExtension>
        </extensions>
      </trkpt>
      <trkpt lat="50.36419" lon="3.2531">
        <ele>24.8</ele>
        <time>2023-01-22T10:03:52Z</time>
      </trkpt>
      <trkpt lat="50.36419" lon="3.25311">
        <ele>24.7</ele>
        <time>2023-01-22T10:03:53Z</time>
      </trkpt>
      <trkpt lat="50.36419" lon="3.25313">
        <ele>24.7</ele>
        <time>2023-01-22T10:03:54Z</time>
      </trkpt>
      <trkpt lat="50.36419" lon="3.25313">
        <ele>24.7</ele>
        <time>2023-01-22T10:03:55Z</time>
      </trkpt>
      <trkpt lat="50.36419" lon="3.25314">
        <ele>24.6</ele>
        <time>2023-01-22T10:03:56Z</time>
      </trkpt>
      <trkpt lat="50.36419" lon="3.25314">
        <ele>24.6</ele>
        <time>2023-01-22T10:03:57Z</time>
      </trkpt>
      <trkpt lat="50.36419" lon="3.25316">
        <ele>24.6</ele>
        <time>2023-01-22T10:03:58Z</time>
      </trkpt>
      <trkpt lat="50.36419" lon="3.25318">
        <ele>24.5</ele>
        <time>2023-01-22T10:03:59Z</time>
      </trkpt>
      <trkpt lat="50.36419" lon="3.2532">
        <ele>15.90711</ele>
        <time>2023-01-22T10:04:00Z</time>
      </trkpt>
      <trkpt lat="50.36419" lon="3.25322">
        <ele>24.4</ele>
        <time>2023-01-22T10:04:01Z</time>
      </trkpt>
      <trkpt lat="50.36418" lon="3.25323">
        <ele>24.3</ele>
        <time>2023-01-22T10:04:02Z</time>
      </trkpt>
      <trkpt lat="50.36418" lon="3.25326">
        <ele>24.3</ele>
        <time>2023-01-22T10:04:03Z</time>
      </trkpt>
      <trkpt lat="50.36417" lon="3.25327">
        <ele>24.2</ele>
        <time>2023-01-22T10:04:04Z</time>
      </trkpt>
      <trkpt lat="50.36417" lon="3.25329">
        <ele>24.2</ele>
        <time>2023-01-22T10:04:05Z</time>
      </trkpt>
      <trkpt lat="50.36417" lon="3.25331">
        <ele>24.1</ele>
        <time>2023-01-22T10:04:06Z</time>
      </trkpt>
      <trkpt lat="50.36416" lon="3.25333">
        <ele>24</ele>
        <time>2023-01-22T10:04:07Z</time>
      </trkpt>
      <trkpt lat="50.36416" lon="3.25336">
        <ele>24</ele>
        <time>2023-01-22T10:04:08Z</time>
      </trkpt>
      <trkpt lat="50.36416" lon="3.25338">
        <ele>24</ele>
        <time>2023-01-22T10:04:09Z</time>
      </trkpt>
      <trkpt lat="50.36416" lon="3.25339">
        <ele>15.654851</ele>
        <time>2023-01-22T10:04:10Z</time>
      </trkpt>
      <trkpt lat="50.36416" lon="3.2534">
        <ele>24</ele>
        <time>2023-01-22T10:04:11Z</time>
      </trkpt>
      <trkpt lat="50.36416" lon="3.25342">
        <ele>24</ele>
        <time>2023-01-22T10:04:12Z</time>
      </trkpt>
      <trkpt lat="50.36416" lon="3.25345">
        <ele>24</ele>
        <time>2023-01-22T10:04:13Z</time>
      </trkpt>
      <trkpt lat="50.36416" lon="3.25348">
        <ele>24</ele>
        <time>2023-01-22T10:04:14Z</time>
      </trkpt>
      <trkpt lat="50.36416" lon="3.25351">
        <ele>24</ele>
        <time>2023-01-22T10:04:15Z</time>
      </trkpt>
      <trkpt lat="50.36417" lon="3.25353">
        <ele>24</ele>
        <time>2023-01-22T10:04:16Z</time>
      </trkpt>
      <trkpt lat="50.36417" lon="3.25355">
        <ele>24</ele>
        <time>2023-01-22T10:04:17Z</time>
      </trkpt>
      <trkpt lat="50.36416" lon="3.25357">
        <ele>24</ele>
        <time>2023-01-22T10:04:18Z</time>
      </trkpt>
      <trkpt lat="50.36416" lon="3.25359">
        <ele>24</ele>
        <time>2023-01-22T10:04:19Z</time>
      </trkpt>
      <trkpt lat="50.36416" lon="3.25361">
        <ele>15.435786</ele>
        <time>2023-01-22T10:04:20Z</time>
      </trkpt>
      <trkpt lat="50.36416" lon="3.25363">
        <ele>24</ele>
        <time>2023-01-22T10:04:21Z</time>
      </trkpt>
      <trkpt lat="50.36416" lon="3.25365">
        <ele>24</ele>
        <time>2023-01-22T10:04:22Z</time>
      </trkpt>
      <trkpt lat="50.36415" lon="3.25368">
        <ele>24</ele>
        <time>2023-01-22T10:04:23Z</time>
      </trkpt>
      <trkpt lat="50.36415" lon="3.2537">
        <ele>24</ele>
        <time>2023-01-22T10:04:24Z</time>
      </trkpt>
      <trkpt lat="50.36415" lon="3.25372">
        <ele>24</ele>
        <time>2023-01-22T10:04:25Z</time>
      </trkpt>
      <trkpt lat="50.36415" lon="3.25374">
        <ele>24</ele>
        <time>2023-01-22T10:04:26Z</time>
      </trkpt>
      <trkpt lat="50.36415" lon="3.25376">
        <ele>24</ele>
        <time>2023-01-22T10:04:27Z</time>
      </trkpt>
      <trkpt lat="50.36415" lon="3.25379">
        <ele>24</ele>
        <time>2023-01-22T10:04:28Z</time>
      </trkpt>
      <trkpt lat="50.36415" lon="3.25381">
        <ele>24</ele>
        <time>2023-01-22T10:04:29Z</time>
      </trkpt>
      <trkpt lat="50.36414" lon="3.25383">
        <ele>15.39975</ele>
        <time>2023-01-22T10:04:30Z</time>
      </trkpt>
      <trkpt lat="50.36414" lon="3.25385">
        <ele>24</ele>
        <time>2023-01-22T10:04:31Z</time>
      </trkpt>
      <trkpt lat="50.36414" lon="3.25387">
        <ele>24</ele>
        <time>2023-01-22T10:04:32Z</time>
      </trkpt>
      <trkpt lat="50.36414" lon="3.2539">
        <ele>24</ele>
        <time>2023-01-22T10:04:33Z</time>
      </trkpt>
      <trkpt lat="50.36414" lon="3.25392">
        <ele>24</ele>
        <time>2023-01-22T10:04:34Z</time>
      </trkpt>
      <trkpt lat="50.36413" lon="3.25393">
        <ele>24</ele>
        <time>2023-01-22T10:04:35Z</time>
      </trkpt>
      <trkpt lat="50.36413" lon="3.25395">
        <ele>24</ele>
        <time>2023-01-22T10:04:36Z</time>
      </trkpt>
      <trkpt lat="50.36412" lon="3.25397">
        <ele>24</ele>
        <time>2023-01-22T10:04:37Z</time>
      </trkpt>
      <trkpt lat="50.36412" lon="3.25399">
        <ele>24</ele>
        <time>2023-01-22T10:04:38Z</time>
      </trkpt>
      <trkpt lat="50.36412" lon="3.25401">
        <ele>24</ele>
        <time>2023-01-22T10:04:39Z</time>
      </trkpt>
      <trkpt lat="50.36412" lon="3.25403">
        <ele>15.26983</ele>
        <time>2023-01-22T10:04:40Z</time>
      </trkpt>
      <trkpt lat="50.36411" lon="3.25404">
        <ele>24</ele>
        <time>2023-01-22T10:04:41Z</time>
      </trkpt>
      <trkpt lat="50.36411" lon="3.25406">
        <ele>24</ele>
        <time>2023-01-22T10:04:42Z</time>
      </trkpt>
      <trkpt lat="50.36411" lon="3.25408">
        <ele>24</ele>
        <time>2023-01-22T10:04:43Z</time>
      </trkpt>
      <trkpt lat="50.36411" lon="3.25409">
        <ele>24</ele>
        <time>2023-01-22T10:04:44Z</time>
      </trkpt>
      <trkpt lat="50.36411" lon="3.25411">
        <ele>24</ele>
        <time>2023-01-22T10:04:45Z</time>
      </trkpt>
      <trkpt lat="50.36411" lon="3.25413">
        <ele>24</ele>
        <time>2023-01-22T10:04:46Z</time>
      </trkpt>
      <trkpt lat="50.36411" lon="3.25415">
        <ele>24</ele>
        <time>2023-01-22T10:04:47Z</time>
      </trkpt>
      <trkpt lat="50.36412" lon="3.25417">
        <ele>24</ele>
        <time>2023-01-22T10:04:48Z</time>
      </trkpt>
      <trkpt lat="50.36412" lon="3.2542">
        <ele>24</ele>
        <time>2023-01-22T10:04:49Z</time>
      </trkpt>
      <trkpt lat="50.36412" lon="3.25422">
        <ele>15.152238</ele>
        <time>2023-01-22T10:04:50Z</time>
      </trkpt>
      <trkpt lat="50.36411" lon="3.25424">
        <ele>24</ele>
        <time>2023-01-22T10:04:51Z</time>
      </trkpt>
      <trkpt lat="50.36411" lon="3.25426">
        <ele>24</ele>
        <time>2023-01-22T10:04:52Z</time>
      </trkpt>
      <trkpt lat="50.36411" lon="3.25428">
        <ele>24</ele>
        <time>2023-01-22T10:04:53Z</time>
      </trkpt>
      <trkpt lat="50.3641" lon="3.25429">
        <ele>24</ele>
        <time>2023-01-22T10:04:54Z</time>
      </trkpt>
      <trkpt lat="50.36409" lon="3.25431">
        <ele>24</ele>
        <time>2023-01-22T10:04:55Z</time>
      </trkpt>
      <trkpt lat="50.36409" lon="3.25433">
        <ele>24</ele>
        <time>2023-01-22T10:04:56Z</time>
      </trkpt>
      <trkpt lat="50.3641" lon="3.25435">
        <ele>24</ele>
        <time>2023-01-22T10:04:57Z</time>
      </trkpt>
      <trkpt lat="50.3641" lon="3.25437">
        <ele>24</ele>
        <time>2023-01-22T10:04:58Z</time>
      </trkpt>
      <trkpt lat="50.36409" lon="3.25439">
        <ele>24</ele>
        <time>2023-01-22T10:04:59Z</time>
      </trkpt>
      <trkpt lat="50.3641" lon="3.25441">
        <ele>24</ele>
        <time>2023-01-22T10:05:00Z</time>
      </trkpt>
      <trkpt lat="50.36409" lon="3.25442">
        <ele>24</ele>
        <time>2023-01-22T10:05:01Z</time>
      </trkpt>
      <trkpt lat="50.3641" lon="3.25444">
        <ele>24</ele>
        <time>2023-01-22T10:05:02Z</time>
      </trkpt>
      <trkpt lat="50.3641" lon="3.25446">
        <ele>24</ele>
        <time>2023-01-22T10:05:03Z</time>
      </trkpt>
      <trkpt lat="50.3641" lon="3.25449">
        <ele>24</ele>
        <time>2023-01-22T10:05:04Z</time>
      </trkpt>
      <trkpt lat="50.36409" lon="3.25451">
        <ele>15.202498</ele>
        <time>2023-01-22T10:05:05Z</time>
      </trkpt>
      <trkpt lat="50.36409" lon="3.25453">
        <ele>24</ele>
        <time>2023-01-22T10:05:06Z</time>
      </trkpt>
      <trkpt lat="50.36409" lon="3.25454">
        <ele>24</ele>
        <time>2023-01-22T10:05:07Z</time>
      </trkpt>
      <trkpt lat="50.36409" lon="3.25456">
        <ele>24</ele>
        <time>2023-01-22T10:05:08Z</time>
      </trkpt>
      <trkpt lat="50.3641" lon="3.25457">
        <ele>24</ele>
        <time>2023-01-22T10:05:09Z</time>
      </trkpt>
      <trkpt lat="50.3641" lon="3.25459">
        <ele>15.11715</ele>
        <time>2023-01-22T10:05:10Z</time>
      </trkpt>
      <trkpt lat="50.3641" lon="3.25461">
        <ele>24</ele>
        <time>2023-01-22T10:05:11Z</time>
      </trkpt>
      <trkpt lat="50.3641" lon="3.25462">
        <ele>24</ele>
        <time>2023-01-22T10:05:12Z</time>
      </trkpt>
      <trkpt lat="50.36409" lon="3.25463">
        <ele>24</ele>
        <time>2023-01-22T10:05:13Z</time>
      </trkpt>
      <trkpt lat="50.36409" lon="3.25465">
        <ele>24</ele>
        <time>2023-01-22T10:05:14Z</time>
      </trkpt>
      <trkpt lat="50.36409" lon="3.25467">
        <ele>24</ele>
        <time>2023-01-22T10:05:15Z</time>
      </trkpt>
      <trkpt lat="50.3641" lon="3.2547">
        <ele>24</ele>
        <time>2023-01-22T10:05:16Z</time>
      </trkpt>
      <trkpt lat="50.36411" lon="3.25472">
        <ele>24</ele>
        <time>2023-01-22T10:05:17Z</time>
      </trkpt>
      <trkpt lat="50.36411" lon="3.25474">
        <ele>24</ele>
        <time>2023-01-22T10:05:18Z</time>
      </trkpt>
      <trkpt lat="50.36411" lon="3.25477">
        <ele>24</ele>
        <time>2023-01-22T10:05:19Z</time>
      </trkpt>
      <trkpt lat="50.36411" lon="3.25479">
        <ele>15.1285305</ele>
        <time>2023-01-22T10:05:20Z</time>
      </trkpt>
      <trkpt lat="50.36411" lon="3.25481">
        <ele>24</ele>
        <time>2023-01-22T10:05:21Z</time>
      </trkpt>
      <trkpt lat="50.36411" lon="3.25484">
        <ele>24</ele>
        <time>2023-01-22T10:05:22Z</time>
      </trkpt>
      <trkpt lat="50.36412" lon="3.25486">
        <ele>24</ele>
        <time>2023-01-22T10:05:23Z</time>
      </trkpt>
      <trkpt lat="50.36412" lon="3.25488">
        <ele>24</ele>
        <time>2023-01-22T10:05:24Z</time>
      </trkpt>
      <trkpt lat="50.36412" lon="3.2549">
        <ele>24</ele>
        <time>2023-01-22T10:05:25Z</time>
      </trkpt>
      <trkpt lat="50.36412" lon="3.25491">
        <ele>24</ele>
        <time>2023-01-22T10:05:26Z</time>
      </trkpt>
      <trkpt lat="50.36412" lon="3.25494">
        <ele>24</ele>
        <time>2023-01-22T10:05:27Z</time>
      </trkpt>
      <trkpt lat="50.36411" lon="3.25495">
        <ele>24</ele>
        <time>2023-01-22T10:05:28Z</time>
      </trkpt>
      <trkpt lat="50.36411" lon="3.25497">
        <ele>24</ele>
        <time>2023-01-22T10:05:29Z</time>
      </trkpt>
      <trkpt lat="50.36411" lon="3.255">
        <ele>15.090597</ele>
        <time>2023-01-22T10:05:30Z</time>
      </trkpt>
      <trkpt lat="50.36411" lon="3.25502">
        <ele>23.9</ele>
        <time>2023-01-22T10:05:31Z</time>
      </trkpt>
      <trkpt lat="50.36411" lon="3.25504">
        <ele>23.9</ele>
        <time>2023-01-22T10:05:32Z</time>
      </trkpt>
      <trkpt lat="50.36411" lon="3.25506">
        <ele>23.8</ele>
        <time>2023-01-22T10:05:33Z</time>
      </trkpt>
      <trkpt lat="50.36411" lon="3.25506">
        <ele>23.8</ele>
        <time>2023-01-22T10:05:34Z</time>
      </trkpt>
      <trkpt lat="50.3641" lon="3.25507">
        <ele>23.8</ele>
        <time>2023-01-22T10:05:35Z</time>
      </trkpt>
      <trkpt lat="50.36409" lon="3.25506">
        <ele>23.8</ele>
        <time>2023-01-22T10:05:36Z</time>
      </trkpt>
      <trkpt lat="50.36409" lon="3.25507">
        <ele>23.8</ele>
        <time>2023-01-22T10:05:37Z</time>
      </trkpt>
      <trkpt lat="50.3641" lon="3.25508">
        <ele>23.8</ele>
        <time>2023-01-22T10:05:38Z</time>
      </trkpt>
      <trkpt lat="50.3641" lon="3.25509">
        <ele>23.7</ele>
        <time>2023-01-22T10:05:39Z</time>
      </trkpt>
      <trkpt lat="50.3641" lon="3.25511">
        <ele>15.144651</ele>
        <time>2023-01-22T10:05:40Z</time>
      </trkpt>
      <trkpt lat="50.36411" lon="3.25513">
        <ele>23.6</ele>
        <time>2023-01-22T10:05:41Z</time>
      </trkpt>
      <trkpt lat="50.36411" lon="3.25515">
        <ele>23.6</ele>
        <time>2023-01-22T10:05:42Z</time>
      </trkpt>
      <trkpt lat="50.36411" lon="3.25517">
        <ele>23.5</ele>
        <time>2023-01-22T10:05:43Z</time>
      </trkpt>
      <trkpt lat="50.36411" lon="3.2552">
        <ele>23.4</ele>
        <time>2023-01-22T10:05:44Z</time>
      </trkpt>
      <trkpt lat="50.36411" lon="3.25521">
        <ele>23.4</ele>
        <time>2023-01-22T10:05:45Z</time>
      </trkpt>
      <trkpt lat="50.3641" lon="3.25523">
        <ele>23.4</ele>
        <time>2023-01-22T10:05:46Z</time>
      </trkpt>
      <trkpt lat="50.3641" lon="3.25525">
        <ele>23.3</ele>
        <time>2023-01-22T10:05:47Z</time>
      </trkpt>
      <trkpt lat="50.36409" lon="3.25527">
        <ele>23.3</ele>
        <time>2023-01-22T10:05:48Z</time>
      </trkpt>
      <trkpt lat="50.36409" lon="3.2553">
        <ele>23.3</ele>
        <time>2023-01-22T10:05:49Z</time>
      </trkpt>
      <trkpt lat="50.36409" lon="3.25532">
        <ele>14.783346</ele>
        <time>2023-01-22T10:05:50Z</time>
      </trkpt>
      <trkpt lat="50.36409" lon="3.25534">
        <ele>23.3</ele>
        <time>2023-01-22T10:05:51Z</time>
      </trkpt>
      <trkpt lat="50.36409" lon="3.25537">
        <ele>23.3</ele>
        <time>2023-01-22T10:05:52Z</time>
      </trkpt>
      <trkpt lat="50.36409" lon="3.25539">
        <ele>23.3</ele>
        <time>2023-01-22T10:05:53Z</time>
      </trkpt>
      <trkpt lat="50.36409" lon="3.25542">
        <ele>23.3</ele>
        <time>2023-01-22T10:05:54Z</time>
      </trkpt>
      <trkpt lat="50.36409" lon="3.25544">
        <ele>23.3</ele>
        <time>2023-01-22T10:05:55Z</time>
      </trkpt>
      <trkpt lat="50.36408" lon="3.25546">
        <ele>23.3</ele>
        <time>2023-01-22T10:05:56Z</time>
      </trkpt>
      <trkpt lat="50.36408" lon="3.25548">
        <ele>23.3</ele>
        <time>2023-01-22T10:05:57Z</time>
      </trkpt>
      <trkpt lat="50.36408" lon="3.25551">
        <ele>23.3</ele>
        <time>2023-01-22T10:05:58Z</time>
      </trkpt>
      <trkpt lat="50.36408" lon="3.25553">
        <ele>23.3</ele>
        <time>2023-01-22T10:05:59Z</time>
      </trkpt>
      <trkpt lat="50.36408" lon="3.25554">
        <ele>14.551963</ele>
        <time>2023-01-22T10:06:00Z</time>
      </trkpt>
      <trkpt lat="50.36409" lon="3.25556">
        <ele>23.3</ele>
        <time>2023-01-22T10:06:01Z</time>
      </trkpt>
      <trkpt lat="50.36409" lon="3.25558">
        <ele>23.3</ele>
        <time>2023-01-22T10:06:02Z</time>
      </trkpt>
      <trkpt lat="50.36409" lon="3.2556">
        <ele>23.3</ele>
        <time>2023-01-22T10:06:03Z</time>
      </trkpt>
      <trkpt lat="50.36409" lon="3.25562">
        <ele>23.3</ele>
        <time>2023-01-22T10:06:04Z</time>
      </trkpt>
      <trkpt lat="50.36409" lon="3.25564">
        <ele>14.460928</ele>
        <time>2023-01-22T10:06:05Z</time>
      </trkpt>
      <trkpt lat="50.36409" lon="3.25566">
        <ele>23.3</ele>
        <time>2023-01-22T10:06:06Z</time>
      </trkpt>
      <trkpt lat="50.36409" lon="3.25568">
        <ele>23.3</ele>
        <time>2023-01-22T10:06:07Z</time>
      </trkpt>
      <trkpt lat="50.36409" lon="3.2557">
        <ele>23.3</ele>
        <time>2023-01-22T10:06:08Z</time>
      </trkpt>
      <trkpt lat="50.36409" lon="3.25571">
        <ele>23.3</ele>
        <time>2023-01-22T10:06:09Z</time>
      </trkpt>
      <trkpt lat="50.36409" lon="3.25572">
        <ele>14.496015</ele>
        <time>2023-01-22T10:06:10Z</time>
      </trkpt>
      <trkpt lat="50.36409" lon="3.25575">
        <ele>23.3</ele>
        <time>2023-01-22T10:06:11Z</time>
      </trkpt>
      <trkpt lat="50.36409" lon="3.25577">
        <ele>23.3</ele>
        <time>2023-01-22T10:06:12Z</time>
      </trkpt>
      <trkpt lat="50.36409" lon="3.25579">
        <ele>23.3</ele>
        <time>2023-01-22T10:06:13Z</time>
      </trkpt>
      <trkpt lat="50.36409" lon="3.2558">
        <ele>23.3</ele>
        <time>2023-01-22T10:06:14Z</time>
      </trkpt>
      <trkpt lat="50.36408" lon="3.25582">
        <ele>23.3</ele>
        <time>2023-01-22T10:06:15Z</time>
      </trkpt>
      <trkpt lat="50.36407" lon="3.25583">
        <ele>23.3</ele>
        <time>2023-01-22T10:06:16Z</time>
      </trkpt>
      <trkpt lat="50.36407" lon="3.25585">
        <ele>23.3</ele>
        <time>2023-01-22T10:06:17Z</time>
      </trkpt>
      <trkpt lat="50.36407" lon="3.25587">
        <ele>23.3</ele>
        <time>2023-01-22T10:06:18Z</time>
      </trkpt>
      <trkpt lat="50.36407" lon="3.25589">
        <ele>23.3</ele>
        <time>2023-01-22T10:06:19Z</time>
      </trkpt>
      <trkpt lat="50.36406" lon="3.25591">
        <ele>14.773864</ele>
        <time>2023-01-22T10:06:20Z</time>
      </trkpt>
      <trkpt lat="50.36406" lon="3.25593">
        <ele>23.3</ele>
        <time>2023-01-22T10:06:21Z</time>
      </trkpt>
      <trkpt lat="50.36406" lon="3.25595">
        <ele>23.2</ele>
        <time>2023-01-22T10:06:22Z</time>
      </trkpt>
      <trkpt lat="50.36406" lon="3.25597">
        <ele>23.2</ele>
        <time>2023-01-22T10:06:23Z</time>
      </trkpt>
      <trkpt lat="50.36406" lon="3.25598">
        <ele>23.2</ele>
        <time>2023-01-22T10:06:24Z</time>
      </trkpt>
      <trkpt lat="50.36406" lon="3.25601">
        <ele>23.1</ele>
        <time>2023-01-22T10:06:25Z</time>
      </trkpt>
      <trkpt lat="50.36406" lon="3.25604">
        <ele>23.1</ele>
        <time>2023-01-22T10:06:26Z</time>
      </trkpt>
      <trkpt lat="50.36406" lon="3.25606">
        <ele>23.1</ele>
        <time>2023-01-22T10:06:27Z</time>
      </trkpt>
      <trkpt lat="50.36406" lon="3.25608">
        <ele>23</ele>
        <time>2023-01-22T10:06:28Z</time>
      </trkpt>
      <trkpt lat="50.36406" lon="3.2561">
        <ele>23</ele>
        <time>2023-01-22T10:06:29Z</time>
      </trkpt>
      <trkpt lat="50.36406" lon="3.25612">
        <ele>14.918005</ele>
        <time>2023-01-22T10:06:30Z</time>
      </trkpt>
      <trkpt lat="50.36406" lon="3.25614">
        <ele>23</ele>
        <time>2023-01-22T10:06:31Z</time>
      </trkpt>
      <trkpt lat="50.36406" lon="3.25615">
        <ele>23</ele>
        <time>2023-01-22T10:06:32Z</time>
      </trkpt>
      <trkpt lat="50.36405" lon="3.25618">
        <ele>23</ele>
        <time>2023-01-22T10:06:33Z</time>
      </trkpt>
      <trkpt lat="50.36404" lon="3.2562">
        <ele>23</ele>
        <time>2023-01-22T10:06:34Z</time>
      </trkpt>
      <trkpt lat="50.36404" lon="3.25622">
        <ele>23</ele>
        <time>2023-01-22T10:06:35Z</time>
        <extensions>
          <gpxtpx:TrackPointExtension xmlns:gpxtpx="http://www.garmin.com/xmlschemas/TrackPointExtension/v1">
            <gpxtpx:hr>154</gpxtpx:hr>
          </gpxtpx:TrackPointExtension>
        </extensions>
      </trkpt>
      <trkpt lat="50.36404" lon="3.25624">
        <ele>23</ele>
        <time>2023-01-22T10:06:36Z</time>
      </trkpt>
      <trkpt lat="50.36404" lon="3.25626">
        <ele>23</ele>
        <time>2023-01-22T10:06:37Z</time>
      </trkpt>
      <trkpt lat="50.36404" lon="3.25628">
        <ele>23</ele>
        <time>2023-01-22T10:06:38Z</time>
      </trkpt>
      <trkpt lat="50.36404" lon="3.25631">
        <ele>23</ele>
        <time>2023-01-22T10:06:39Z</time>
        <extensions>
          <gpxtpx:TrackPointExtension xmlns:gpxtpx="http://www.garmin.com/xmlschemas/TrackPointExtension/v1">
            <gpxtpx:hr>154</gpxtpx:hr>
          </gpxtpx:TrackPointExtension>
        </extensions>
      </trkpt>
      <trkpt lat="50.36404" lon="3.25633">
        <ele>23</ele>
        <time>2023-01-22T10:06:40Z</time>
      </trkpt>
      <trkpt lat="50.36404" lon="3.25635">
        <ele>23</ele>
        <time>2023-01-22T10:06:41Z</time>
      </trkpt>
      <trkpt lat="50.36404" lon="3.25637">
        <ele>23</ele>
        <time>2023-01-22T10:06:42Z</time>
      </trkpt>
      <trkpt lat="50.36404" lon="3.25639">
        <ele>23</ele>
        <time>2023-01-22T10:06:43Z</time>
      </trkpt>
      <trkpt lat="50.36404" lon="3.25641">
        <ele>23.1</ele>
        <time>2023-01-22T10:06:44Z</time>
      </trkpt>
      <trkpt lat="50.36404" lon="3.25643">
        <ele>15.340954</ele>
        <time>2023-01-22T10:06:45Z</time>
      </trkpt>
      <trkpt lat="50.36405" lon="3.25646">
        <ele>23.3</ele>
        <time>2023-01-22T10:06:46Z</time>
      </trkpt>
      <trkpt lat="50.36404" lon="3.25649">
        <ele>23.3</ele>
        <time>2023-01-22T10:06:47Z</time>
      </trkpt>
      <trkpt lat="50.36404" lon="3.25651">
        <ele>23.4</ele>
        <time>2023-01-22T10:06:48Z</time>
      </trkpt>
      <trkpt lat="50.36404" lon="3.25654">
        <ele>23.5</ele>
        <time>2023-01-22T10:06:49Z</time>
      </trkpt>
      <trkpt lat="50.36404" lon="3.25656">
        <ele>15.438631</ele>
        <time>2023-01-22T10:06:50Z</time>
      </trkpt>
      <trkpt lat="50.36404" lon="3.25659">
        <ele>23.7</ele>
        <time>2023-01-22T10:06:51Z</time>
      </trkpt>
      <trkpt lat="50.36404" lon="3.25662">
        <ele>23.8</ele>
        <time>2023-01-22T10:06:52Z</time>
      </trkpt>
      <trkpt lat="50.36404" lon="3.25664">
        <ele>23.9</ele>
        <time>2023-01-22T10:06:53Z</time>
      </trkpt>
      <trkpt lat="50.36404" lon="3.25665">
        <ele>23.9</ele>
        <time>2023-01-22T10:06:54Z</time>
      </trkpt>
      <trkpt lat="50.36404" lon="3.25666">
        <ele>24</ele>
        <time>2023-01-22T10:06:55Z</time>
      </trkpt>
      <trkpt lat="50.36403" lon="3.25667">
        <ele>24</ele>
        <time>2023-01-22T10:06:56Z</time>
      </trkpt>
      <trkpt lat="50.36403" lon="3.25669">
        <ele>24</ele>
        <time>2023-01-22T10:06:57Z</time>
      </trkpt>
      <trkpt lat="50.36403" lon="3.2567">
        <ele>24</ele>
        <time>2023-01-22T10:06:58Z</time>
      </trkpt>
      <trkpt lat="50.36403" lon="3.25673">
        <ele>24</ele>
        <time>2023-01-22T10:06:59Z</time>
      </trkpt>
      <trkpt lat="50.36403" lon="3.25675">
        <ele>15.479409</ele>
        <time>2023-01-22T10:07:00Z</time>
      </trkpt>
      <trkpt lat="50.36404" lon="3.25677">
        <ele>24</ele>
        <time>2023-01-22T10:07:01Z</time>
      </trkpt>
      <trkpt lat="50.36404" lon="3.25679">
        <ele>24</ele>
        <time>2023-01-22T10:07:02Z</time>
      </trkpt>
      <trkpt lat="50.36404" lon="3.25682">
        <ele>24</ele>
        <time>2023-01-22T10:07:03Z</time>
      </trkpt>
      <trkpt lat="50.36404" lon="3.25684">
        <ele>24</ele>
        <time>2023-01-22T10:07:04Z</time>
      </trkpt>
      <trkpt lat="50.36403" lon="3.25686">
        <ele>24</ele>
        <time>2023-01-22T10:07:05Z</time>
      </trkpt>
      <trkpt lat="50.36403" lon="3.25689">
        <ele>24</ele>
        <time>2023-01-22T10:07:06Z</time>
      </trkpt>
      <trkpt lat="50.36404" lon="3.25691">
        <ele>24</ele>
        <time>2023-01-22T10:07:07Z</time>
      </trkpt>
      <trkpt lat="50.36403" lon="3.25694">
        <ele>24</ele>
        <time>2023-01-22T10:07:08Z</time>
      </trkpt>
      <trkpt lat="50.36404" lon="3.25696">
        <ele>24</ele>
        <time>2023-01-22T10:07:09Z</time>
      </trkpt>
      <trkpt lat="50.36404" lon="3.25699">
        <ele>15.650109</ele>
        <time>2023-01-22T10:07:10Z</time>
      </trkpt>
      <trkpt lat="50.36404" lon="3.25701">
        <ele>24</ele>
        <time>2023-01-22T10:07:11Z</time>
      </trkpt>
      <trkpt lat="50.36404" lon="3.25702">
        <ele>24</ele>
        <time>2023-01-22T10:07:12Z</time>
      </trkpt>
      <trkpt lat="50.36404" lon="3.25705">
        <ele>24</ele>
        <time>2023-01-22T10:07:13Z</time>
      </trkpt>
      <trkpt lat="50.36403" lon="3.25707">
        <ele>24</ele>
        <time>2023-01-22T10:07:14Z</time>
      </trkpt>
      <trkpt lat="50.36403" lon="3.25708">
        <ele>24</ele>
        <time>2023-01-22T10:07:15Z</time>
      </trkpt>
      <trkpt lat="50.36403" lon="3.2571">
        <ele>24</ele>
        <time>2023-01-22T10:07:16Z</time>
      </trkpt>
      <trkpt lat="50.36404" lon="3.25712">
        <ele>24</ele>
        <time>2023-01-22T10:07:17Z</time>
      </trkpt>
      <trkpt lat="50.36404" lon="3.25714">
        <ele>24</ele>
        <time>2023-01-22T10:07:18Z</time>
      </trkpt>
      <trkpt lat="50.36404" lon="3.25716">
        <ele>24</ele>
        <time>2023-01-22T10:07:19Z</time>
      </trkpt>
      <trkpt lat="50.36403" lon="3.25718">
        <ele>15.966856</ele>
        <time>2023-01-22T10:07:20Z</time>
      </trkpt>
      <trkpt lat="50.36403" lon="3.25721">
        <ele>24</ele>
        <time>2023-01-22T10:07:21Z</time>
      </trkpt>
      <trkpt lat="50.36403" lon="3.25723">
        <ele>24</ele>
        <time>2023-01-22T10:07:22Z</time>
      </trkpt>
      <trkpt lat="50.36403" lon="3.25725">
        <ele>24</ele>
        <time>2023-01-22T10:07:23Z</time>
      </trkpt>
      <trkpt lat="50.36403" lon="3.25726">
        <ele>24</ele>
        <time>2023-01-22T10:07:24Z</time>
      </trkpt>
      <trkpt lat="50.36402" lon="3.25728">
        <ele>24</ele>
        <time>2023-01-22T10:07:25Z</time>
      </trkpt>
      <trkpt lat="50.36402" lon="3.2573">
        <ele>24</ele>
        <time>2023-01-22T10:07:26Z</time>
      </trkpt>
      <trkpt lat="50.36402" lon="3.25733">
        <ele>24</ele>
        <time>2023-01-22T10:07:27Z</time>
      </trkpt>
      <trkpt lat="50.36401" lon="3.25735">
        <ele>24</ele>
        <time>2023-01-22T10:07:28Z</time>
      </trkpt>
      <trkpt lat="50.36401" lon="3.25738">
        <ele>24</ele>
        <time>2023-01-22T10:07:29Z</time>
      </trkpt>
      <trkpt lat="50.36401" lon="3.2574">
        <ele>16.43914</ele>
        <time>2023-01-22T10:07:30Z</time>
      </trkpt>
      <trkpt lat="50.36402" lon="3.25742">
        <ele>24</ele>
        <time>2023-01-22T10:07:31Z</time>
      </trkpt>
      <trkpt lat="50.36402" lon="3.25743">
        <ele>24</ele>
        <time>2023-01-22T10:07:32Z</time>
      </trkpt>
      <trkpt lat="50.36402" lon="3.25746">
        <ele>24</ele>
        <time>2023-01-22T10:07:33Z</time>
      </trkpt>
      <trkpt lat="50.36402" lon="3.25748">
        <ele>24</ele>
        <time>2023-01-22T10:07:34Z</time>
      </trkpt>
      <trkpt lat="50.36402" lon="3.25751">
        <ele>24</ele>
        <time>2023-01-22T10:07:35Z</time>
      </trkpt>
      <trkpt lat="50.36402" lon="3.25753">
        <ele>24</ele>
        <time>2023-01-22T10:07:36Z</time>
      </trkpt>
      <trkpt lat="50.36402" lon="3.25754">
        <ele>24.1</ele>
        <time>2023-01-22T10:07:37Z</time>
      </trkpt>
      <trkpt lat="50.36402" lon="3.25757">
        <ele>24.1</ele>
        <time>2023-01-22T10:07:38Z</time>
      </trkpt>
      <trkpt lat="50.36402" lon="3.25758">
        <ele>24.1</ele>
        <time>2023-01-22T10:07:39Z</time>
      </trkpt>
      <trkpt lat="50.36402" lon="3.2576">
        <ele>16.609848</ele>
        <time>2023-01-22T10:07:40Z</time>
      </trkpt>
      <trkpt lat="50.36402" lon="3.25761">
        <ele>24.2</ele>
        <time>2023-01-22T10:07:41Z</time>
      </trkpt>
      <trkpt lat="50.36401" lon="3.25763">
        <ele>24.2</ele>
        <time>2023-01-22T10:07:42Z</time>
      </trkpt>
      <trkpt lat="50.36401" lon="3.25765">
        <ele>24.2</ele>
        <time>2023-01-22T10:07:43Z</time>
      </trkpt>
      <trkpt lat="50.36401" lon="3.25767">
        <ele>24.3</ele>
        <time>2023-01-22T10:07:44Z</time>
      </trkpt>
      <trkpt lat="50.36401" lon="3.25769">
        <ele>24.3</ele>
        <time>2023-01-22T10:07:45Z</time>
      </trkpt>
      <trkpt lat="50.36401" lon="3.2577">
        <ele>24.3</ele>
        <time>2023-01-22T10:07:46Z</time>
      </trkpt>
      <trkpt lat="50.36401" lon="3.25771">
        <ele>24.3</ele>
        <time>2023-01-22T10:07:47Z</time>
      </trkpt>
      <trkpt lat="50.36401" lon="3.25773">
        <ele>24.4</ele>
        <time>2023-01-22T10:07:48Z</time>
      </trkpt>
      <trkpt lat="50.364" lon="3.25775">
        <ele>24.4</ele>
        <time>2023-01-22T10:07:49Z</time>
      </trkpt>
      <trkpt lat="50.364" lon="3.25777">
        <ele>16.70279</ele>
        <time>2023-01-22T10:07:50Z</time>
      </trkpt>
      <trkpt lat="50.364" lon="3.2578">
        <ele>24.4</ele>
        <time>2023-01-22T10:07:51Z</time>
      </trkpt>
      <trkpt lat="50.364" lon="3.25782">
        <ele>24.5</ele>
        <time>2023-01-22T10:07:52Z</time>
      </trkpt>
      <trkpt lat="50.364" lon="3.25783">
        <ele>24.5</ele>
        <time>2023-01-22T10:07:53Z</time>
      </trkpt>
      <trkpt lat="50.364" lon="3.25785">
        <ele>24.5</ele>
        <time>2023-01-22T10:07:54Z</time>
      </trkpt>
      <trkpt lat="50.364" lon="3.25786">
        <ele>24.6</ele>
        <time>2023-01-22T10:07:55Z</time>
      </trkpt>
      <trkpt lat="50.364" lon="3.25788">
        <ele>24.6</ele>
        <time>2023-01-22T10:07:56Z</time>
      </trkpt>
      <trkpt lat="50.364" lon="3.25789">
        <ele>24.6</ele>
        <time>2023-01-22T10:07:57Z</time>
        <extensions>
          <gpxtpx:TrackPointExtension xmlns:gpxtpx="http://www.garmin.com/xmlschemas/TrackPointExtension/v1">
            <gpxtpx:hr>155</gpxtpx:hr>
          </gpxtpx:TrackPointExtension>
        </extensions>
      </trkpt>
      <trkpt lat="50.36399" lon="3.2579">
        <ele>24.6</ele>
        <time>2023-01-22T10:07:58Z</time>
      </trkpt>
      <trkpt lat="50.36398" lon="3.25792">
        <ele>24.7</ele>
        <time>2023-01-22T10:07:59Z</time>
        <extensions>
          <gpxtpx:TrackPointExtension xmlns:gpxtpx="http://www.garmin.com/xmlschemas/TrackPointExtension/v1">
            <gpxtpx:hr>155</gpxtpx:hr>
          </gpxtpx:TrackPointExtension>
        </extensions>
      </trkpt>
      <trkpt lat="50.36397" lon="3.25793">
        <ele>16.84884</ele>
        <time>2023-01-22T10:08:00Z</time>
      </trkpt>
      <trkpt lat="50.36396" lon="3.25795">
        <ele>24.7</ele>
        <time>2023-01-22T10:08:01Z</time>
      </trkpt>
      <trkpt lat="50.36395" lon="3.25796">
        <ele>24.7</ele>
        <time>2023-01-22T10:08:02Z</time>
      </trkpt>
      <trkpt lat="50.36393" lon="3.25797">
        <ele>24.7</ele>
        <time>2023-01-22T10:08:03Z</time>
      </trkpt>
      <trkpt lat="50.36392" lon="3.25798">
        <ele>24.7</ele>
        <time>2023-01-22T10:08:04Z</time>
      </trkpt>
      <trkpt lat="50.36391" lon="3.25798">
        <ele>24.8</ele>
        <time>2023-01-22T10:08:05Z</time>
      </trkpt>
      <trkpt lat="50.36389" lon="3.25799">
        <ele>24.8</ele>
        <time>2023-01-22T10:08:06Z</time>
        <extensions>
          <gpxtpx:TrackPointExtension xmlns:gpxtpx="http://www.garmin.com/xmlschemas/TrackPointExtension/v1">
            <gpxtpx:hr>155</gpxtpx:hr>
          </gpxtpx:TrackPointExtension>
        </extensions>
      </trkpt>
      <trkpt lat="50.36388" lon="3.25799">
        <ele>24.8</ele>
        <time>2023-01-22T10:08:07Z</time>
      </trkpt>
      <trkpt lat="50.36386" lon="3.25799">
        <ele>24.8</ele>
        <time>2023-01-22T10:08:08Z</time>
      </trkpt>
      <trkpt lat="50.36385" lon="3.258">
        <ele>24.8</ele>
        <time>2023-01-22T10:08:09Z</time>
      </trkpt>
      <trkpt lat="50.36384" lon="3.25801">
        <ele>17.041367</ele>
        <time>2023-01-22T10:08:10Z</time>
      </trkpt>
      <trkpt lat="50.36383" lon="3.25802">
        <ele>24.9</ele>
        <time>2023-01-22T10:08:11Z</time>
      </trkpt>
      <trkpt lat="50.36381" lon="3.25803">
        <ele>24.9</ele>
        <time>2023-01-22T10:08:12Z</time>
      </trkpt>
      <trkpt lat="50.3638" lon="3.25804">
        <ele>24.9</ele>
        <time>2023-01-22T10:08:13Z</time>
      </trkpt>
      <trkpt lat="50.36379" lon="3.25804">
        <ele>25</ele>
        <time>2023-01-22T10:08:14Z</time>
      </trkpt>
      <trkpt lat="50.36378" lon="3.25804">
        <ele>25</ele>
        <time>2023-01-22T10:08:15Z</time>
      </trkpt>
      <trkpt lat="50.36377" lon="3.25805">
        <ele>25</ele>
        <time>2023-01-22T10:08:16Z</time>
      </trkpt>
      <trkpt lat="50.36375" lon="3.25806">
        <ele>25</ele>
        <time>2023-01-22T10:08:17Z</time>
      </trkpt>
      <trkpt lat="50.36374" lon="3.25807">
        <ele>25</ele>
        <time>2023-01-22T10:08:18Z</time>
      </trkpt>
      <trkpt lat="50.36373" lon="3.25807">
        <ele>25</ele>
        <time>2023-01-22T10:08:19Z</time>
      </trkpt>
      <trkpt lat="50.36372" lon="3.25808">
        <ele>25</ele>
        <time>2023-01-22T10:08:20Z</time>
      </trkpt>
      <trkpt lat="50.3637" lon="3.25809">
        <ele>25</ele>
        <time>2023-01-22T10:08:21Z</time>
      </trkpt>
      <trkpt lat="50.36369" lon="3.25809">
        <ele>25</ele>
        <time>2023-01-22T10:08:22Z</time>
      </trkpt>
      <trkpt lat="50.36368" lon="3.2581">
        <ele>25</ele>
        <time>2023-01-22T10:08:23Z</time>
      </trkpt>
      <trkpt lat="50.36366" lon="3.25811">
        <ele>25</ele>
        <time>2023-01-22T10:08:24Z</time>
      </trkpt>
      <trkpt lat="50.36365" lon="3.25812">
        <ele>17.05654</ele>
        <time>2023-01-22T10:08:25Z</time>
      </trkpt>
      <trkpt lat="50.36364" lon="3.25813">
        <ele>25</ele>
        <time>2023-01-22T10:08:26Z</time>
      </trkpt>
      <trkpt lat="50.36363" lon="3.25814">
        <ele>25</ele>
        <time>2023-01-22T10:08:27Z</time>
      </trkpt>
      <trkpt lat="50.36362" lon="3.25815">
        <ele>25</ele>
        <time>2023-01-22T10:08:28Z</time>
      </trkpt>
      <trkpt lat="50.3636" lon="3.25816">
        <ele>25</ele>
        <time>2023-01-22T10:08:29Z</time>
      </trkpt>
      <trkpt lat="50.36359" lon="3.25817">
        <ele>17.040417</ele>
        <time>2023-01-22T10:08:30Z</time>
      </trkpt>
      <trkpt lat="50.36358" lon="3.25817">
        <ele>25</ele>
        <time>2023-01-22T10:08:31Z</time>
      </trkpt>
      <trkpt lat="50.36357" lon="3.25818">
        <ele>25</ele>
        <time>2023-01-22T10:08:32Z</time>
      </trkpt>
      <trkpt lat="50.36356" lon="3.25819">
        <ele>25</ele>
        <time>2023-01-22T10:08:33Z</time>
      </trkpt>
      <trkpt lat="50.36354" lon="3.2582">
        <ele>25</ele>
        <time>2023-01-22T10:08:34Z</time>
      </trkpt>
      <trkpt lat="50.36353" lon="3.25821">
        <ele>25</ele>
        <time>2023-01-22T10:08:35Z</time>
      </trkpt>
      <trkpt lat="50.36352" lon="3.25822">
        <ele>25</ele>
        <time>2023-01-22T10:08:36Z</time>
      </trkpt>
      <trkpt lat="50.36351" lon="3.25823">
        <ele>25</ele>
        <time>2023-01-22T10:08:37Z</time>
        <extensions>
          <gpxtpx:TrackPointExtension xmlns:gpxtpx="http://www.garmin.com/xmlschemas/TrackPointExtension/v1">
            <gpxtpx:hr>154</gpxtpx:hr>
          </gpxtpx:TrackPointExtension>
        </extensions>
      </trkpt>
      <trkpt lat="50.3635" lon="3.25824">
        <ele>25</ele>
        <time>2023-01-22T10:08:38Z</time>
      </trkpt>
      <trkpt lat="50.36349" lon="3.25825">
        <ele>25</ele>
        <time>2023-01-22T10:08:39Z</time>
      </trkpt>
      <trkpt lat="50.36348" lon="3.25825">
        <ele>17.058437</ele>
        <time>2023-01-22T10:08:40Z</time>
        <extensions>
          <gpxtpx:TrackPointExtension xmlns:gpxtpx="http://www.garmin.com/xmlschemas/TrackPointExtension/v1">
            <gpxtpx:hr>154</gpxtpx:hr>
          </gpxtpx:TrackPointExtension>
        </extensions>
      </trkpt>
      <trkpt lat="50.36347" lon="3.25826">
        <ele>25</ele>
        <time>2023-01-22T10:08:41Z</time>
      </trkpt>
      <trkpt lat="50.36345" lon="3.25827">
        <ele>25</ele>
        <time>2023-01-22T10:08:42Z</time>
      </trkpt>
      <trkpt lat="50.36344" lon="3.25827">
        <ele>25</ele>
        <time>2023-01-22T10:08:43Z</time>
      </trkpt>
      <trkpt lat="50.36343" lon="3.25828">
        <ele>25</ele>
        <time>2023-01-22T10:08:44Z</time>
      </trkpt>
      <trkpt lat="50.36342" lon="3.25829">
        <ele>25</ele>
        <time>2023-01-22T10:08:45Z</time>
      </trkpt>
      <trkpt lat="50.36341" lon="3.25829">
        <ele>25</ele>
        <time>2023-01-22T10:08:46Z</time>
      </trkpt>
      <trkpt lat="50.3634" lon="3.2583">
        <ele>25</ele>
        <time>2023-01-22T10:08:47Z</time>
      </trkpt>
      <trkpt lat="50.36338" lon="3.25831">
        <ele>25</ele>
        <time>2023-01-22T10:08:48Z</time>
      </trkpt>
      <trkpt lat="50.36337" lon="3.25832">
        <ele>25</ele>
        <time>2023-01-22T10:08:49Z</time>
      </trkpt>
      <trkpt lat="50.36336" lon="3.25833">
        <ele>17.084991</ele>
        <time>2023-01-22T10:08:50Z</time>
      </trkpt>
      <trkpt lat="50.36335" lon="3.25833">
        <ele>25</ele>
        <time>2023-01-22T10:08:51Z</time>
      </trkpt>
      <trkpt lat="50.36334" lon="3.25835">
        <ele>25</ele>
        <time>2023-01-22T10:08:52Z</time>
      </trkpt>
      <trkpt lat="50.36333" lon="3.25835">
        <ele>25.1</ele>
        <time>2023-01-22T10:08:53Z</time>
      </trkpt>
      <trkpt lat="50.36331" lon="3.25837">
        <ele>25.1</ele>
        <time>2023-01-22T10:08:54Z</time>
      </trkpt>
      <trkpt lat="50.3633" lon="3.25838">
        <ele>25.2</ele>
        <time>2023-01-22T10:08:55Z</time>
      </trkpt>
      <trkpt lat="50.36329" lon="3.25839">
        <ele>25.2</ele>
        <time>2023-01-22T10:08:56Z</time>
      </trkpt>
      <trkpt lat="50.36328" lon="3.2584">
        <ele>25.2</ele>
        <time>2023-01-22T10:08:57Z</time>
      </trkpt>
      <trkpt lat="50.36327" lon="3.2584">
        <ele>25.2</ele>
        <time>2023-01-22T10:08:58Z</time>
      </trkpt>
      <trkpt lat="50.36325" lon="3.25841">
        <ele>25.3</ele>
        <time>2023-01-22T10:08:59Z</time>
      </trkpt>
      <trkpt lat="50.36324" lon="3.25842">
        <ele>17.26519</ele>
        <time>2023-01-22T10:09:00Z</time>
      </trkpt>
      <trkpt lat="50.36323" lon="3.25843">
        <ele>25.3</ele>
        <time>2023-01-22T10:09:01Z</time>
      </trkpt>
      <trkpt lat="50.36322" lon="3.25845">
        <ele>25.4</ele>
        <time>2023-01-22T10:09:02Z</time>
      </trkpt>
      <trkpt lat="50.3632" lon="3.25846">
        <ele>25.5</ele>
        <time>2023-01-22T10:09:03Z</time>
      </trkpt>
      <trkpt lat="50.36319" lon="3.25847">
        <ele>25.5</ele>
        <time>2023-01-22T10:09:04Z</time>
      </trkpt>
      <trkpt lat="50.36317" lon="3.25848">
        <ele>25.5</ele>
        <time>2023-01-22T10:09:05Z</time>
      </trkpt>
      <trkpt lat="50.36316" lon="3.25849">
        <ele>25.6</ele>
        <time>2023-01-22T10:09:06Z</time>
      </trkpt>
      <trkpt lat="50.36315" lon="3.2585">
        <ele>25.6</ele>
        <time>2023-01-22T10:09:07Z</time>
      </trkpt>
      <trkpt lat="50.36313" lon="3.25851">
        <ele>25.6</ele>
        <time>2023-01-22T10:09:08Z</time>
      </trkpt>
      <trkpt lat="50.36312" lon="3.25852">
        <ele>25.7</ele>
        <time>2023-01-22T10:09:09Z</time>
      </trkpt>
      <trkpt lat="50.36311" lon="3.25853">
        <ele>17.434008</ele>
        <time>2023-01-22T10:09:10Z</time>
      </trkpt>
      <trkpt lat="50.3631" lon="3.25853">
        <ele>25.7</ele>
        <time>2023-01-22T10:09:11Z</time>
      </trkpt>
      <trkpt lat="50.36309" lon="3.25854">
        <ele>25.7</ele>
        <time>2023-01-22T10:09:12Z</time>
      </trkpt>
      <trkpt lat="50.36309" lon="3.25855">
        <ele>25.8</ele>
        <time>2023-01-22T10:09:13Z</time>
      </trkpt>
      <trkpt lat="50.36308" lon="3.25856">
        <ele>25.8</ele>
        <time>2023-01-22T10:09:14Z</time>
      </trkpt>
      <trkpt lat="50.36306" lon="3.25857">
        <ele>25.9</ele>
        <time>2023-01-22T10:09:15Z</time>
      </trkpt>
      <trkpt lat="50.36306" lon="3.25859">
        <ele>25.9</ele>
        <time>2023-01-22T10:09:16Z</time>
      </trkpt>
      <trkpt lat="50.36305" lon="3.2586">
        <ele>25.9</ele>
        <time>2023-01-22T10:09:17Z</time>
      </trkpt>
      <trkpt lat="50.36303" lon="3.25862">
        <ele>25.9</ele>
        <time>2023-01-22T10:09:18Z</time>
      </trkpt>
      <trkpt lat="50.36302" lon="3.25862">
        <ele>25.9</ele>
        <time>2023-01-22T10:09:19Z</time>
      </trkpt>
      <trkpt lat="50.36301" lon="3.25864">
        <ele>17.544024</ele>
        <time>2023-01-22T10:09:20Z</time>
      </trkpt>
      <trkpt lat="50.36301" lon="3.25865">
        <ele>25.8</ele>
        <time>2023-01-22T10:09:21Z</time>
      </trkpt>
      <trkpt lat="50.363" lon="3.25866">
        <ele>25.8</ele>
        <time>2023-01-22T10:09:22Z</time>
        <extensions>
          <gpxtpx:TrackPointExtension xmlns:gpxtpx="http://www.garmin.com/xmlschemas/TrackPointExtension/v1">
            <gpxtpx:hr>153</gpxtpx:hr>
          </gpxtpx:TrackPointExtension>
        </extensions>
      </trkpt>
      <trkpt lat="50.363" lon="3.25867">
        <ele>25.8</ele>
        <time>2023-01-22T10:09:23Z</time>
      </trkpt>
      <trkpt lat="50.36299" lon="3.25868">
        <ele>25.8</ele>
        <time>2023-01-22T10:09:24Z</time>
      </trkpt>
      <trkpt lat="50.36298" lon="3.2587">
        <ele>25.8</ele>
        <time>2023-01-22T10:09:25Z</time>
      </trkpt>
      <trkpt lat="50.36298" lon="3.25871">
        <ele>25.8</ele>
        <time>2023-01-22T10:09:26Z</time>
      </trkpt>
      <trkpt lat="50.36297" lon="3.25872">
        <ele>25.8</ele>
        <time>2023-01-22T10:09:27Z</time>
      </trkpt>
      <trkpt lat="50.36295" lon="3.25874">
        <ele>25.8</ele>
        <time>2023-01-22T10:09:28Z</time>
      </trkpt>
      <trkpt lat="50.36294" lon="3.25875">
        <ele>25.8</ele>
        <time>2023-01-22T10:09:29Z</time>
      </trkpt>
      <trkpt lat="50.36293" lon="3.25877">
        <ele>17.820965</ele>
        <time>2023-01-22T10:09:30Z</time>
      </trkpt>
      <trkpt lat="50.36292" lon="3.25878">
        <ele>25.8</ele>
        <time>2023-01-22T10:09:31Z</time>
      </trkpt>
      <trkpt lat="50.36291" lon="3.2588">
        <ele>25.8</ele>
        <time>2023-01-22T10:09:32Z</time>
      </trkpt>
      <trkpt lat="50.3629" lon="3.25881">
        <ele>25.8</ele>
        <time>2023-01-22T10:09:33Z</time>
      </trkpt>
      <trkpt lat="50.36289" lon="3.25883">
        <ele>25.9</ele>
        <time>2023-01-22T10:09:34Z</time>
      </trkpt>
      <trkpt lat="50.36288" lon="3.25885">
        <ele>25.9</ele>
        <time>2023-01-22T10:09:35Z</time>
      </trkpt>
      <trkpt lat="50.36287" lon="3.25886">
        <ele>25.9</ele>
        <time>2023-01-22T10:09:36Z</time>
      </trkpt>
      <trkpt lat="50.36285" lon="3.25888">
        <ele>26</ele>
        <time>2023-01-22T10:09:37Z</time>
      </trkpt>
      <trkpt lat="50.36285" lon="3.25889">
        <ele>26</ele>
        <time>2023-01-22T10:09:38Z</time>
      </trkpt>
      <trkpt lat="50.36284" lon="3.25891">
        <ele>26</ele>
        <time>2023-01-22T10:09:39Z</time>
      </trkpt>
      <trkpt lat="50.36283" lon="3.25892">
        <ele>18.034365</ele>
        <time>2023-01-22T10:09:40Z</time>
        <extensions>
          <gpxtpx:TrackPointExtension xmlns:gpxtpx="http://www.garmin.com/xmlschemas/TrackPointExtension/v1">
            <gpxtpx:hr>153</gpxtpx:hr>
          </gpxtpx:TrackPointExtension>
        </extensions>
      </trkpt>
      <trkpt lat="50.36282" lon="3.25893">
        <ele>26</ele>
        <time>2023-01-22T10:09:41Z</time>
      </trkpt>
      <trkpt lat="50.36281" lon="3.25894">
        <ele>26</ele>
        <time>2023-01-22T10:09:42Z</time>
      </trkpt>
      <trkpt lat="50.3628" lon="3.25895">
        <ele>26</ele>
        <time>2023-01-22T10:09:43Z</time>
      </trkpt>
      <trkpt lat="50.36279" lon="3.25897">
        <ele>26</ele>
        <time>2023-01-22T10:09:44Z</time>
      </trkpt>
      <trkpt lat="50.36278" lon="3.25898">
        <ele>26</ele>
        <time>2023-01-22T10:09:45Z</time>
      </trkpt>
      <trkpt lat="50.36277" lon="3.25899">
        <ele>26</ele>
        <time>2023-01-22T10:09:46Z</time>
      </trkpt>
      <trkpt lat="50.36276" lon="3.25899">
        <ele>26</ele>
        <time>2023-01-22T10:09:47Z</time>
      </trkpt>
      <trkpt lat="50.36276" lon="3.259">
        <ele>26</ele>
        <time>2023-01-22T10:09:48Z</time>
      </trkpt>
      <trkpt lat="50.36276" lon="3.25901">
        <ele>26</ele>
        <time>2023-01-22T10:09:49Z</time>
      </trkpt>
      <trkpt lat="50.36276" lon="3.25903">
        <ele>18.248713</ele>
        <time>2023-01-22T10:09:50Z</time>
      </trkpt>
      <trkpt lat="50.36274" lon="3.25905">
        <ele>26</ele>
        <time>2023-01-22T10:09:51Z</time>
      </trkpt>
      <trkpt lat="50.36273" lon="3.25906">
        <ele>26</ele>
        <time>2023-01-22T10:09:52Z</time>
      </trkpt>
      <trkpt lat="50.36272" lon="3.25908">
        <ele>26</ele>
        <time>2023-01-22T10:09:53Z</time>
      </trkpt>
      <trkpt lat="50.36271" lon="3.25909">
        <ele>26</ele>
        <time>2023-01-22T10:09:54Z</time>
      </trkpt>
      <trkpt lat="50.36269" lon="3.2591">
        <ele>26</ele>
        <time>2023-01-22T10:09:55Z</time>
      </trkpt>
      <trkpt lat="50.36268" lon="3.25911">
        <ele>26</ele>
        <time>2023-01-22T10:09:56Z</time>
      </trkpt>
      <trkpt lat="50.36268" lon="3.25912">
        <ele>26</ele>
        <time>2023-01-22T10:09:57Z</time>
      </trkpt>
      <trkpt lat="50.36267" lon="3.25914">
        <ele>26</ele>
        <time>2023-01-22T10:09:58Z</time>
      </trkpt>
      <trkpt lat="50.36266" lon="3.25915">
        <ele>26</ele>
        <time>2023-01-22T10:09:59Z</time>
      </trkpt>
      <trkpt lat="50.36265" lon="3.25916">
        <ele>26</ele>
        <time>2023-01-22T10:10:00Z</time>
      </trkpt>
      <trkpt lat="50.36264" lon="3.25917">
        <ele>26</ele>
        <time>2023-01-22T10:10:01Z</time>
      </trkpt>
      <trkpt lat="50.36263" lon="3.25918">
        <ele>26</ele>
        <time>2023-01-22T10:10:02Z</time>
      </trkpt>
      <trkpt lat="50.36262" lon="3.25919">
        <ele>26</ele>
        <time>2023-01-22T10:10:03Z</time>
      </trkpt>
      <trkpt lat="50.36261" lon="3.2592">
        <ele>26</ele>
        <time>2023-01-22T10:10:04Z</time>
      </trkpt>
      <trkpt lat="50.3626" lon="3.25921">
        <ele>18.35494</ele>
        <time>2023-01-22T10:10:05Z</time>
      </trkpt>
      <trkpt lat="50.36259" lon="3.25922">
        <ele>26</ele>
        <time>2023-01-22T10:10:06Z</time>
      </trkpt>
      <trkpt lat="50.36258" lon="3.25923">
        <ele>26</ele>
        <time>2023-01-22T10:10:07Z</time>
      </trkpt>
      <trkpt lat="50.36256" lon="3.25924">
        <ele>26</ele>
        <time>2023-01-22T10:10:08Z</time>
      </trkpt>
      <trkpt lat="50.36255" lon="3.25925">
        <ele>26</ele>
        <time>2023-01-22T10:10:09Z</time>
      </trkpt>
      <trkpt lat="50.36254" lon="3.25927">
        <ele>18.432714</ele>
        <time>2023-01-22T10:10:10Z</time>
      </trkpt>
      <trkpt lat="50.36253" lon="3.25928">
        <ele>26</ele>
        <time>2023-01-22T10:10:11Z</time>
      </trkpt>
      <trkpt lat="50.36252" lon="3.25929">
        <ele>26</ele>
        <time>2023-01-22T10:10:12Z</time>
      </trkpt>
      <trkpt lat="50.36251" lon="3.25931">
        <ele>26</ele>
        <time>2023-01-22T10:10:13Z</time>
      </trkpt>
      <trkpt lat="50.3625" lon="3.25932">
        <ele>26</ele>
        <time>2023-01-22T10:10:14Z</time>
      </trkpt>
      <trkpt lat="50.36248" lon="3.25933">
        <ele>26</ele>
        <time>2023-01-22T10:10:15Z</time>
      </trkpt>
      <trkpt lat="50.36247" lon="3.25935">
        <ele>26</ele>
        <time>2023-01-22T10:10:16Z</time>
      </trkpt>
      <trkpt lat="50.36245" lon="3.25936">
        <ele>26</ele>
        <time>2023-01-22T10:10:17Z</time>
      </trkpt>
      <trkpt lat="50.36244" lon="3.25937">
        <ele>26</ele>
        <time>2023-01-22T10:10:18Z</time>
      </trkpt>
      <trkpt lat="50.36243" lon="3.25938">
        <ele>26</ele>
        <time>2023-01-22T10:10:19Z</time>
      </trkpt>
      <trkpt lat="50.36242" lon="3.25938">
        <ele>18.23923</ele>
        <time>2023-01-22T10:10:20Z</time>
      </trkpt>
      <trkpt lat="50.36241" lon="3.25939">
        <ele>26</ele>
        <time>2023-01-22T10:10:21Z</time>
      </trkpt>
      <trkpt lat="50.36241" lon="3.25939">
        <ele>26</ele>
        <time>2023-01-22T10:10:22Z</time>
      </trkpt>
      <trkpt lat="50.36241" lon="3.2594">
        <ele>26</ele>
        <time>2023-01-22T10:10:23Z</time>
      </trkpt>
      <trkpt lat="50.3624" lon="3.2594">
        <ele>26</ele>
        <time>2023-01-22T10:10:24Z</time>
      </trkpt>
      <trkpt lat="50.36239" lon="3.2594">
        <ele>26</ele>
        <time>2023-01-22T10:10:25Z</time>
      </trkpt>
      <trkpt lat="50.36238" lon="3.25941">
        <ele>26</ele>
        <time>2023-01-22T10:10:26Z</time>
      </trkpt>
      <trkpt lat="50.36237" lon="3.25942">
        <ele>26</ele>
        <time>2023-01-22T10:10:27Z</time>
      </trkpt>
      <trkpt lat="50.36236" lon="3.25943">
        <ele>26</ele>
        <time>2023-01-22T10:10:28Z</time>
      </trkpt>
      <trkpt lat="50.36235" lon="3.25943">
        <ele>26</ele>
        <time>2023-01-22T10:10:29Z</time>
      </trkpt>
      <trkpt lat="50.36235" lon="3.25945">
        <ele>18.172836</ele>
        <time>2023-01-22T10:10:30Z</time>
      </trkpt>
      <trkpt lat="50.36234" lon="3.25946">
        <ele>26</ele>
        <time>2023-01-22T10:10:31Z</time>
      </trkpt>
      <trkpt lat="50.36234" lon="3.25947">
        <ele>26</ele>
        <time>2023-01-22T10:10:32Z</time>
      </trkpt>
      <trkpt lat="50.36232" lon="3.25948">
        <ele>26</ele>
        <time>2023-01-22T10:10:33Z</time>
      </trkpt>
      <trkpt lat="50.36231" lon="3.25948">
        <ele>26</ele>
        <time>2023-01-22T10:10:34Z</time>
      </trkpt>
      <trkpt lat="50.36231" lon="3.25949">
        <ele>26</ele>
        <time>2023-01-22T10:10:35Z</time>
      </trkpt>
      <trkpt lat="50.36229" lon="3.2595">
        <ele>26</ele>
        <time>2023-01-22T10:10:36Z</time>
      </trkpt>
      <trkpt lat="50.36227" lon="3.25951">
        <ele>26</ele>
        <time>2023-01-22T10:10:37Z</time>
      </trkpt>
      <trkpt lat="50.36226" lon="3.25953">
        <ele>26</ele>
        <time>2023-01-22T10:10:38Z</time>
      </trkpt>
      <trkpt lat="50.36226" lon="3.25954">
        <ele>26</ele>
        <time>2023-01-22T10:10:39Z</time>
      </trkpt>
      <trkpt lat="50.36224" lon="3.25956">
        <ele>18.36822</ele>
        <time>2023-01-22T10:10:40Z</time>
        <extensions>
          <gpxtpx:TrackPointExtension xmlns:gpxtpx="http://www.garmin.com/xmlschemas/TrackPointExtension/v1">
            <gpxtpx:hr>151</gpxtpx:hr>
          </gpxtpx:TrackPointExtension>
        </extensions>
      </trkpt>
      <trkpt lat="50.36223" lon="3.25957">
        <ele>26</ele>
        <time>2023-01-22T10:10:41Z</time>
      </trkpt>
      <trkpt lat="50.36221" lon="3.25958">
        <ele>26</ele>
        <time>2023-01-22T10:10:42Z</time>
      </trkpt>
      <trkpt lat="50.3622" lon="3.25959">
        <ele>26</ele>
        <time>2023-01-22T10:10:43Z</time>
      </trkpt>
      <trkpt lat="50.36219" lon="3.2596">
        <ele>26</ele>
        <time>2023-01-22T10:10:44Z</time>
      </trkpt>
      <trkpt lat="50.36219" lon="3.2596">
        <ele>26</ele>
        <time>2023-01-22T10:10:45Z</time>
      </trkpt>
      <trkpt lat="50.36218" lon="3.25961">
        <ele>26</ele>
        <time>2023-01-22T10:10:46Z</time>
      </trkpt>
      <trkpt lat="50.36216" lon="3.25962">
        <ele>26</ele>
        <time>2023-01-22T10:10:47Z</time>
      </trkpt>
      <trkpt lat="50.36216" lon="3.25963">
        <ele>26</ele>
        <time>2023-01-22T10:10:48Z</time>
      </trkpt>
      <trkpt lat="50.36215" lon="3.25964">
        <ele>26</ele>
        <time>2023-01-22T10:10:49Z</time>
      </trkpt>
      <trkpt lat="50.36215" lon="3.25965">
        <ele>18.42418</ele>
        <time>2023-01-22T10:10:50Z</time>
      </trkpt>
      <trkpt lat="50.36214" lon="3.25965">
        <ele>26</ele>
        <time>2023-01-22T10:10:51Z</time>
      </trkpt>
      <trkpt lat="50.36214" lon="3.25966">
        <ele>26</ele>
        <time>2023-01-22T10:10:52Z</time>
      </trkpt>
      <trkpt lat="50.36213" lon="3.25967">
        <ele>26</ele>
        <time>2023-01-22T10:10:53Z</time>
      </trkpt>
      <trkpt lat="50.36212" lon="3.25969">
        <ele>26</ele>
        <time>2023-01-22T10:10:54Z</time>
      </trkpt>
      <trkpt lat="50.36211" lon="3.2597">
        <ele>26</ele>
        <time>2023-01-22T10:10:55Z</time>
      </trkpt>
      <trkpt lat="50.3621" lon="3.25971">
        <ele>26</ele>
        <time>2023-01-22T10:10:56Z</time>
      </trkpt>
      <trkpt lat="50.36209" lon="3.25972">
        <ele>26</ele>
        <time>2023-01-22T10:10:57Z</time>
      </trkpt>
      <trkpt lat="50.36208" lon="3.25973">
        <ele>26</ele>
        <time>2023-01-22T10:10:58Z</time>
      </trkpt>
      <trkpt lat="50.36206" lon="3.25974">
        <ele>26</ele>
        <time>2023-01-22T10:10:59Z</time>
      </trkpt>
      <trkpt lat="50.36205" lon="3.25975">
        <ele>18.282858</ele>
        <time>2023-01-22T10:11:00Z</time>
      </trkpt>
      <trkpt lat="50.36203" lon="3.25976">
        <ele>26</ele>
        <time>2023-01-22T10:11:01Z</time>
      </trkpt>
      <trkpt lat="50.36202" lon="3.25977">
        <ele>26</ele>
        <time>2023-01-22T10:11:02Z</time>
      </trkpt>
      <trkpt lat="50.36201" lon="3.25978">
        <ele>26</ele>
        <time>2023-01-22T10:11:03Z</time>
      </trkpt>
      <trkpt lat="50.362" lon="3.25979">
        <ele>26</ele>
        <time>2023-01-22T10:11:04Z</time>
      </trkpt>
      <trkpt lat="50.362" lon="3.25981">
        <ele>26</ele>
        <time>2023-01-22T10:11:05Z</time>
      </trkpt>
      <trkpt lat="50.36199" lon="3.25982">
        <ele>26</ele>
        <time>2023-01-22T10:11:06Z</time>
      </trkpt>
      <trkpt lat="50.36198" lon="3.25983">
        <ele>26</ele>
        <time>2023-01-22T10:11:07Z</time>
      </trkpt>
      <trkpt lat="50.36197" lon="3.25984">
        <ele>26</ele>
        <time>2023-01-22T10:11:08Z</time>
      </trkpt>
      <trkpt lat="50.36196" lon="3.25985">
        <ele>26</ele>
        <time>2023-01-22T10:11:09Z</time>
      </trkpt>
      <trkpt lat="50.36195" lon="3.25987">
        <ele>18.002117</ele>
        <time>2023-01-22T10:11:10Z</time>
      </trkpt>
      <trkpt lat="50.36194" lon="3.25988">
        <ele>26</ele>
        <time>2023-01-22T10:11:11Z</time>
      </trkpt>
      <trkpt lat="50.36193" lon="3.25989">
        <ele>26</ele>
        <time>2023-01-22T10:11:12Z</time>
      </trkpt>
      <trkpt lat="50.36192" lon="3.25989">
        <ele>26</ele>
        <time>2023-01-22T10:11:14Z</time>
      </trkpt>
      <trkpt lat="50.36191" lon="3.2599">
        <ele>26</ele>
        <time>2023-01-22T10:11:15Z</time>
      </trkpt>
      <trkpt lat="50.3619" lon="3.25991">
        <ele>26</ele>
        <time>2023-01-22T10:11:16Z</time>
      </trkpt>
      <trkpt lat="50.36189" lon="3.25992">
        <ele>26</ele>
        <time>2023-01-22T10:11:17Z</time>
      </trkpt>
      <trkpt lat="50.36188" lon="3.25993">
        <ele>26</ele>
        <time>2023-01-22T10:11:18Z</time>
      </trkpt>
      <trkpt lat="50.36187" lon="3.25994">
        <ele>26</ele>
        <time>2023-01-22T10:11:19Z</time>
      </trkpt>
      <trkpt lat="50.36185" lon="3.25994">
        <ele>17.988838</ele>
        <time>2023-01-22T10:11:20Z</time>
      </trkpt>
      <trkpt lat="50.36184" lon="3.25995">
        <ele>26</ele>
        <time>2023-01-22T10:11:21Z</time>
      </trkpt>
      <trkpt lat="50.36183" lon="3.25996">
        <ele>26</ele>
        <time>2023-01-22T10:11:22Z</time>
      </trkpt>
      <trkpt lat="50.36182" lon="3.25996">
        <ele>26</ele>
        <time>2023-01-22T10:11:23Z</time>
      </trkpt>
      <trkpt lat="50.36181" lon="3.25997">
        <ele>26</ele>
        <time>2023-01-22T10:11:24Z</time>
      </trkpt>
      <trkpt lat="50.36179" lon="3.25998">
        <ele>26</ele>
        <time>2023-01-22T10:11:25Z</time>
      </trkpt>
      <trkpt lat="50.36178" lon="3.25999">
        <ele>26</ele>
        <time>2023-01-22T10:11:26Z</time>
      </trkpt>
      <trkpt lat="50.36177" lon="3.26">
        <ele>26</ele>
        <time>2023-01-22T10:11:27Z</time>
      </trkpt>
      <trkpt lat="50.36175" lon="3.26">
        <ele>26</ele>
        <time>2023-01-22T10:11:28Z</time>
      </trkpt>
      <trkpt lat="50.36173" lon="3.26">
        <ele>26</ele>
        <time>2023-01-22T10:11:29Z</time>
      </trkpt>
      <trkpt lat="50.36172" lon="3.26001">
        <ele>17.67965</ele>
        <time>2023-01-22T10:11:30Z</time>
      </trkpt>
      <trkpt lat="50.36171" lon="3.26001">
        <ele>26</ele>
        <time>2023-01-22T10:11:31Z</time>
      </trkpt>
      <trkpt lat="50.3617" lon="3.26002">
        <ele>25.9</ele>
        <time>2023-01-22T10:11:32Z</time>
      </trkpt>
      <trkpt lat="50.36169" lon="3.26002">
        <ele>25.9</ele>
        <time>2023-01-22T10:11:33Z</time>
      </trkpt>
      <trkpt lat="50.36167" lon="3.26003">
        <ele>25.9</ele>
        <time>2023-01-22T10:11:34Z</time>
      </trkpt>
      <trkpt lat="50.36166" lon="3.26003">
        <ele>25.9</ele>
        <time>2023-01-22T10:11:35Z</time>
      </trkpt>
      <trkpt lat="50.36165" lon="3.26003">
        <ele>25.9</ele>
        <time>2023-01-22T10:11:36Z</time>
      </trkpt>
      <trkpt lat="50.36165" lon="3.26003">
        <ele>25.9</ele>
        <time>2023-01-22T10:11:37Z</time>
      </trkpt>
      <trkpt lat="50.36163" lon="3.26004">
        <ele>25.9</ele>
        <time>2023-01-22T10:11:38Z</time>
      </trkpt>
      <trkpt lat="50.36161" lon="3.26005">
        <ele>25.8</ele>
        <time>2023-01-22T10:11:39Z</time>
      </trkpt>
      <trkpt lat="50.3616" lon="3.26005">
        <ele>25.8</ele>
        <time>2023-01-22T10:11:40Z</time>
      </trkpt>
      <trkpt lat="50.36158" lon="3.26006">
        <ele>25.8</ele>
        <time>2023-01-22T10:11:41Z</time>
      </trkpt>
      <trkpt lat="50.36157" lon="3.26006">
        <ele>25.8</ele>
        <time>2023-01-22T10:11:42Z</time>
      </trkpt>
      <trkpt lat="50.36156" lon="3.26007">
        <ele>25.7</ele>
        <time>2023-01-22T10:11:43Z</time>
      </trkpt>
      <trkpt lat="50.36154" lon="3.26007">
        <ele>25.7</ele>
        <time>2023-01-22T10:11:44Z</time>
      </trkpt>
      <trkpt lat="50.36153" lon="3.26008">
        <ele>17.436852</ele>
        <time>2023-01-22T10:11:45Z</time>
      </trkpt>
      <trkpt lat="50.36152" lon="3.26008">
        <ele>25.7</ele>
        <time>2023-01-22T10:11:46Z</time>
      </trkpt>
      <trkpt lat="50.36151" lon="3.26008">
        <ele>25.7</ele>
        <time>2023-01-22T10:11:47Z</time>
      </trkpt>
      <trkpt lat="50.36149" lon="3.26009">
        <ele>25.7</ele>
        <time>2023-01-22T10:11:48Z</time>
      </trkpt>
      <trkpt lat="50.36149" lon="3.26009">
        <ele>25.7</ele>
        <time>2023-01-22T10:11:49Z</time>
      </trkpt>
      <trkpt lat="50.36148" lon="3.26009">
        <ele>17.3183</ele>
        <time>2023-01-22T10:11:50Z</time>
      </trkpt>
      <trkpt lat="50.36147" lon="3.26008">
        <ele>25.7</ele>
        <time>2023-01-22T10:11:51Z</time>
      </trkpt>
      <trkpt lat="50.36146" lon="3.26008">
        <ele>25.7</ele>
        <time>2023-01-22T10:11:52Z</time>
      </trkpt>
      <trkpt lat="50.36144" lon="3.26009">
        <ele>25.7</ele>
        <time>2023-01-22T10:11:53Z</time>
      </trkpt>
      <trkpt lat="50.36143" lon="3.26009">
        <ele>25.7</ele>
        <time>2023-01-22T10:11:54Z</time>
      </trkpt>
      <trkpt lat="50.36142" lon="3.26009">
        <ele>25.7</ele>
        <time>2023-01-22T10:11:55Z</time>
      </trkpt>
      <trkpt lat="50.36141" lon="3.26009">
        <ele>25.7</ele>
        <time>2023-01-22T10:11:56Z</time>
      </trkpt>
      <trkpt lat="50.3614" lon="3.26009">
        <ele>25.7</ele>
        <time>2023-01-22T10:11:57Z</time>
      </trkpt>
      <trkpt lat="50.36139" lon="3.26009">
        <ele>25.7</ele>
        <time>2023-01-22T10:11:58Z</time>
      </trkpt>
      <trkpt lat="50.36138" lon="3.26008">
        <ele>25.7</ele>
        <time>2023-01-22T10:11:59Z</time>
      </trkpt>
      <trkpt lat="50.36137" lon="3.26008">
        <ele>17.325888</ele>
        <time>2023-01-22T10:12:00Z</time>
      </trkpt>
      <trkpt lat="50.36136" lon="3.26007">
        <ele>25.7</ele>
        <time>2023-01-22T10:12:01Z</time>
      </trkpt>
      <trkpt lat="50.36135" lon="3.26007">
        <ele>25.6</ele>
        <time>2023-01-22T10:12:02Z</time>
      </trkpt>
      <trkpt lat="50.36134" lon="3.26008">
        <ele>25.6</ele>
        <time>2023-01-22T10:12:03Z</time>
      </trkpt>
      <trkpt lat="50.36133" lon="3.26008">
        <ele>25.6</ele>
        <time>2023-01-22T10:12:04Z</time>
      </trkpt>
      <trkpt lat="50.36132" lon="3.26008">
        <ele>25.5</ele>
        <time>2023-01-22T10:12:05Z</time>
      </trkpt>
      <trkpt lat="50.3613" lon="3.26007">
        <ele>25.5</ele>
        <time>2023-01-22T10:12:06Z</time>
      </trkpt>
      <trkpt lat="50.36129" lon="3.26007">
        <ele>25.5</ele>
        <time>2023-01-22T10:12:07Z</time>
      </trkpt>
      <trkpt lat="50.36127" lon="3.26007">
        <ele>25.4</ele>
        <time>2023-01-22T10:12:08Z</time>
      </trkpt>
      <trkpt lat="50.36126" lon="3.26007">
        <ele>25.4</ele>
        <time>2023-01-22T10:12:09Z</time>
      </trkpt>
      <trkpt lat="50.36124" lon="3.26008">
        <ele>17.215872</ele>
        <time>2023-01-22T10:12:10Z</time>
      </trkpt>
      <trkpt lat="50.36123" lon="3.26008">
        <ele>25.3</ele>
        <time>2023-01-22T10:12:11Z</time>
      </trkpt>
      <trkpt lat="50.36122" lon="3.26008">
        <ele>25.3</ele>
        <time>2023-01-22T10:12:12Z</time>
      </trkpt>
      <trkpt lat="50.36121" lon="3.26009">
        <ele>25.3</ele>
        <time>2023-01-22T10:12:13Z</time>
      </trkpt>
      <trkpt lat="50.3612" lon="3.26009">
        <ele>25.2</ele>
        <time>2023-01-22T10:12:14Z</time>
      </trkpt>
      <trkpt lat="50.36119" lon="3.26009">
        <ele>25.2</ele>
        <time>2023-01-22T10:12:15Z</time>
      </trkpt>
      <trkpt lat="50.36117" lon="3.26008">
        <ele>25.1</ele>
        <time>2023-01-22T10:12:16Z</time>
      </trkpt>
      <trkpt lat="50.36116" lon="3.26009">
        <ele>25.1</ele>
        <time>2023-01-22T10:12:17Z</time>
      </trkpt>
      <trkpt lat="50.36115" lon="3.26009">
        <ele>25.1</ele>
        <time>2023-01-22T10:12:18Z</time>
      </trkpt>
      <trkpt lat="50.36113" lon="3.2601">
        <ele>25</ele>
        <time>2023-01-22T10:12:19Z</time>
      </trkpt>
      <trkpt lat="50.36112" lon="3.2601">
        <ele>17.05654</ele>
        <time>2023-01-22T10:12:20Z</time>
      </trkpt>
      <trkpt lat="50.3611" lon="3.2601">
        <ele>25</ele>
        <time>2023-01-22T10:12:21Z</time>
      </trkpt>
      <trkpt lat="50.36109" lon="3.2601">
        <ele>25</ele>
        <time>2023-01-22T10:12:22Z</time>
      </trkpt>
      <trkpt lat="50.36108" lon="3.26011">
        <ele>25</ele>
        <time>2023-01-22T10:12:23Z</time>
      </trkpt>
      <trkpt lat="50.36107" lon="3.26011">
        <ele>25</ele>
        <time>2023-01-22T10:12:24Z</time>
      </trkpt>
      <trkpt lat="50.36106" lon="3.26011">
        <ele>25</ele>
        <time>2023-01-22T10:12:25Z</time>
      </trkpt>
      <trkpt lat="50.36104" lon="3.26011">
        <ele>25</ele>
        <time>2023-01-22T10:12:26Z</time>
      </trkpt>
      <trkpt lat="50.36102" lon="3.26011">
        <ele>25</ele>
        <time>2023-01-22T10:12:27Z</time>
      </trkpt>
      <trkpt lat="50.36101" lon="3.2601">
        <ele>25</ele>
        <time>2023-01-22T10:12:28Z</time>
      </trkpt>
      <trkpt lat="50.361" lon="3.2601">
        <ele>25</ele>
        <time>2023-01-22T10:12:29Z</time>
      </trkpt>
      <trkpt lat="50.36099" lon="3.26009">
        <ele>17.10396</ele>
        <time>2023-01-22T10:12:30Z</time>
      </trkpt>
      <trkpt lat="50.36097" lon="3.26009">
        <ele>25</ele>
        <time>2023-01-22T10:12:31Z</time>
      </trkpt>
      <trkpt lat="50.36095" lon="3.26009">
        <ele>25</ele>
        <time>2023-01-22T10:12:32Z</time>
      </trkpt>
      <trkpt lat="50.36094" lon="3.26008">
        <ele>25</ele>
        <time>2023-01-22T10:12:33Z</time>
      </trkpt>
      <trkpt lat="50.36092" lon="3.26008">
        <ele>25</ele>
        <time>2023-01-22T10:12:34Z</time>
      </trkpt>
      <trkpt lat="50.36091" lon="3.26008">
        <ele>25</ele>
        <time>2023-01-22T10:12:35Z</time>
      </trkpt>
      <trkpt lat="50.36089" lon="3.26007">
        <ele>25</ele>
        <time>2023-01-22T10:12:36Z</time>
      </trkpt>
      <trkpt lat="50.36089" lon="3.26008">
        <ele>25</ele>
        <time>2023-01-22T10:12:37Z</time>
      </trkpt>
      <trkpt lat="50.36088" lon="3.26007">
        <ele>25</ele>
        <time>2023-01-22T10:12:38Z</time>
      </trkpt>
      <trkpt lat="50.36087" lon="3.26007">
        <ele>25</ele>
        <time>2023-01-22T10:12:39Z</time>
      </trkpt>
      <trkpt lat="50.36086" lon="3.26007">
        <ele>17.026192</ele>
        <time>2023-01-22T10:12:40Z</time>
      </trkpt>
      <trkpt lat="50.36085" lon="3.26006">
        <ele>25</ele>
        <time>2023-01-22T10:12:41Z</time>
      </trkpt>
      <trkpt lat="50.36083" lon="3.26005">
        <ele>25</ele>
        <time>2023-01-22T10:12:42Z</time>
      </trkpt>
      <trkpt lat="50.36082" lon="3.26005">
        <ele>25</ele>
        <time>2023-01-22T10:12:43Z</time>
      </trkpt>
      <trkpt lat="50.36082" lon="3.26005">
        <ele>25</ele>
        <time>2023-01-22T10:12:44Z</time>
      </trkpt>
      <trkpt lat="50.36081" lon="3.26005">
        <ele>25</ele>
        <time>2023-01-22T10:12:45Z</time>
      </trkpt>
      <trkpt lat="50.36079" lon="3.26005">
        <ele>25</ele>
        <time>2023-01-22T10:12:46Z</time>
      </trkpt>
      <trkpt lat="50.36078" lon="3.26005">
        <ele>25</ele>
        <time>2023-01-22T10:12:47Z</time>
      </trkpt>
      <trkpt lat="50.36078" lon="3.26006">
        <ele>25</ele>
        <time>2023-01-22T10:12:48Z</time>
      </trkpt>
      <trkpt lat="50.36077" lon="3.26007">
        <ele>25</ele>
        <time>2023-01-22T10:12:49Z</time>
      </trkpt>
      <trkpt lat="50.36076" lon="3.26008">
        <ele>16.769176</ele>
        <time>2023-01-22T10:12:50Z</time>
      </trkpt>
      <trkpt lat="50.36075" lon="3.26008">
        <ele>25</ele>
        <time>2023-01-22T10:12:51Z</time>
      </trkpt>
      <trkpt lat="50.36073" lon="3.26008">
        <ele>25</ele>
        <time>2023-01-22T10:12:52Z</time>
      </trkpt>
      <trkpt lat="50.36072" lon="3.26008">
        <ele>25</ele>
        <time>2023-01-22T10:12:53Z</time>
      </trkpt>
      <trkpt lat="50.3607" lon="3.26008">
        <ele>25</ele>
        <time>2023-01-22T10:12:54Z</time>
      </trkpt>
      <trkpt lat="50.36068" lon="3.26008">
        <ele>25</ele>
        <time>2023-01-22T10:12:55Z</time>
      </trkpt>
      <trkpt lat="50.36066" lon="3.26009">
        <ele>25</ele>
        <time>2023-01-22T10:12:56Z</time>
      </trkpt>
      <trkpt lat="50.36064" lon="3.26009">
        <ele>25</ele>
        <time>2023-01-22T10:12:57Z</time>
      </trkpt>
      <trkpt lat="50.36063" lon="3.2601">
        <ele>25</ele>
        <time>2023-01-22T10:12:58Z</time>
      </trkpt>
      <trkpt lat="50.36063" lon="3.26011">
        <ele>25</ele>
        <time>2023-01-22T10:12:59Z</time>
      </trkpt>
      <trkpt lat="50.36062" lon="3.26012">
        <ele>16.841255</ele>
        <time>2023-01-22T10:13:00Z</time>
      </trkpt>
      <trkpt lat="50.36062" lon="3.26013">
        <ele>25</ele>
        <time>2023-01-22T10:13:01Z</time>
      </trkpt>
      <trkpt lat="50.3606" lon="3.26014">
        <ele>25</ele>
        <time>2023-01-22T10:13:02Z</time>
      </trkpt>
      <trkpt lat="50.36059" lon="3.26015">
        <ele>25</ele>
        <time>2023-01-22T10:13:03Z</time>
      </trkpt>
      <trkpt lat="50.36058" lon="3.26016">
        <ele>25</ele>
        <time>2023-01-22T10:13:04Z</time>
      </trkpt>
      <trkpt lat="50.36056" lon="3.26016">
        <ele>25</ele>
        <time>2023-01-22T10:13:05Z</time>
      </trkpt>
      <trkpt lat="50.36055" lon="3.26017">
        <ele>25</ele>
        <time>2023-01-22T10:13:06Z</time>
      </trkpt>
      <trkpt lat="50.36054" lon="3.26018">
        <ele>25</ele>
        <time>2023-01-22T10:13:07Z</time>
      </trkpt>
      <trkpt lat="50.36053" lon="3.26018">
        <ele>25</ele>
        <time>2023-01-22T10:13:08Z</time>
      </trkpt>
      <trkpt lat="50.36052" lon="3.26018">
        <ele>25</ele>
        <time>2023-01-22T10:13:09Z</time>
      </trkpt>
      <trkpt lat="50.36051" lon="3.26019">
        <ele>16.76728</ele>
        <time>2023-01-22T10:13:10Z</time>
      </trkpt>
      <trkpt lat="50.3605" lon="3.26018">
        <ele>25</ele>
        <time>2023-01-22T10:13:11Z</time>
      </trkpt>
      <trkpt lat="50.36049" lon="3.26018">
        <ele>25</ele>
        <time>2023-01-22T10:13:12Z</time>
      </trkpt>
      <trkpt lat="50.36047" lon="3.26018">
        <ele>25</ele>
        <time>2023-01-22T10:13:13Z</time>
      </trkpt>
      <trkpt lat="50.36046" lon="3.26019">
        <ele>25</ele>
        <time>2023-01-22T10:13:14Z</time>
      </trkpt>
      <trkpt lat="50.36044" lon="3.26019">
        <ele>25</ele>
        <time>2023-01-22T10:13:15Z</time>
      </trkpt>
      <trkpt lat="50.36042" lon="3.26019">
        <ele>25</ele>
        <time>2023-01-22T10:13:16Z</time>
      </trkpt>
      <trkpt lat="50.36041" lon="3.26019">
        <ele>25</ele>
        <time>2023-01-22T10:13:17Z</time>
      </trkpt>
      <trkpt lat="50.3604" lon="3.26019">
        <ele>25</ele>
        <time>2023-01-22T10:13:18Z</time>
      </trkpt>
      <trkpt lat="50.36039" lon="3.26019">
        <ele>25</ele>
        <time>2023-01-22T10:13:19Z</time>
      </trkpt>
      <trkpt lat="50.36039" lon="3.26021">
        <ele>16.757795</ele>
        <time>2023-01-22T10:13:20Z</time>
      </trkpt>
      <trkpt lat="50.36037" lon="3.26021">
        <ele>25</ele>
        <time>2023-01-22T10:13:21Z</time>
      </trkpt>
      <trkpt lat="50.36036" lon="3.26022">
        <ele>25</ele>
        <time>2023-01-22T10:13:22Z</time>
      </trkpt>
      <trkpt lat="50.36035" lon="3.26021">
        <ele>25</ele>
        <time>2023-01-22T10:13:23Z</time>
      </trkpt>
      <trkpt lat="50.36034" lon="3.26022">
        <ele>25</ele>
        <time>2023-01-22T10:13:24Z</time>
      </trkpt>
      <trkpt lat="50.36033" lon="3.26022">
        <ele>25</ele>
        <time>2023-01-22T10:13:25Z</time>
      </trkpt>
      <trkpt lat="50.36033" lon="3.26022">
        <ele>25</ele>
        <time>2023-01-22T10:13:26Z</time>
      </trkpt>
      <trkpt lat="50.36031" lon="3.26024">
        <ele>25</ele>
        <time>2023-01-22T10:13:27Z</time>
      </trkpt>
      <trkpt lat="50.36029" lon="3.26023">
        <ele>25</ele>
        <time>2023-01-22T10:13:28Z</time>
      </trkpt>
      <trkpt lat="50.36028" lon="3.26023">
        <ele>25</ele>
        <time>2023-01-22T10:13:29Z</time>
      </trkpt>
      <trkpt lat="50.36026" lon="3.26023">
        <ele>16.722706</ele>
        <time>2023-01-22T10:13:30Z</time>
      </trkpt>
      <trkpt lat="50.36025" lon="3.26024">
        <ele>25</ele>
        <time>2023-01-22T10:13:31Z</time>
      </trkpt>
      <trkpt lat="50.36023" lon="3.26024">
        <ele>25</ele>
        <time>2023-01-22T10:13:32Z</time>
      </trkpt>
      <trkpt lat="50.36023" lon="3.26024">
        <ele>25</ele>
        <time>2023-01-22T10:13:33Z</time>
      </trkpt>
      <trkpt lat="50.36023" lon="3.26024">
        <ele>25</ele>
        <time>2023-01-22T10:13:34Z</time>
      </trkpt>
      <trkpt lat="50.36022" lon="3.26025">
        <ele>25</ele>
        <time>2023-01-22T10:13:35Z</time>
      </trkpt>
      <trkpt lat="50.36021" lon="3.26025">
        <ele>25</ele>
        <time>2023-01-22T10:13:36Z</time>
      </trkpt>
      <trkpt lat="50.36019" lon="3.26025">
        <ele>25</ele>
        <time>2023-01-22T10:13:37Z</time>
      </trkpt>
      <trkpt lat="50.36018" lon="3.26025">
        <ele>25</ele>
        <time>2023-01-22T10:13:38Z</time>
      </trkpt>
      <trkpt lat="50.36017" lon="3.26026">
        <ele>25</ele>
        <time>2023-01-22T10:13:39Z</time>
      </trkpt>
      <trkpt lat="50.36015" lon="3.26026">
        <ele>16.729345</ele>
        <time>2023-01-22T10:13:40Z</time>
      </trkpt>
      <trkpt lat="50.36014" lon="3.26026">
        <ele>25</ele>
        <time>2023-01-22T10:13:41Z</time>
      </trkpt>
      <trkpt lat="50.36013" lon="3.26025">
        <ele>25</ele>
        <time>2023-01-22T10:13:42Z</time>
      </trkpt>
      <trkpt lat="50.36011" lon="3.26025">
        <ele>25</ele>
        <time>2023-01-22T10:13:43Z</time>
      </trkpt>
      <trkpt lat="50.36009" lon="3.26026">
        <ele>25</ele>
        <time>2023-01-22T10:13:44Z</time>
      </trkpt>
      <trkpt lat="50.36008" lon="3.26026">
        <ele>25</ele>
        <time>2023-01-22T10:13:45Z</time>
      </trkpt>
      <trkpt lat="50.36006" lon="3.26026">
        <ele>25</ele>
        <time>2023-01-22T10:13:46Z</time>
      </trkpt>
      <trkpt lat="50.36005" lon="3.26026">
        <ele>25</ele>
        <time>2023-01-22T10:13:47Z</time>
      </trkpt>
      <trkpt lat="50.36004" lon="3.26027">
        <ele>25</ele>
        <time>2023-01-22T10:13:48Z</time>
      </trkpt>
      <trkpt lat="50.36004" lon="3.26027">
        <ele>25</ele>
        <time>2023-01-22T10:13:49Z</time>
      </trkpt>
      <trkpt lat="50.36002" lon="3.26027">
        <ele>16.64399</ele>
        <time>2023-01-22T10:13:50Z</time>
      </trkpt>
      <trkpt lat="50.36001" lon="3.26028">
        <ele>25</ele>
        <time>2023-01-22T10:13:51Z</time>
      </trkpt>
      <trkpt lat="50.35999" lon="3.26028">
        <ele>25</ele>
        <time>2023-01-22T10:13:52Z</time>
      </trkpt>
      <trkpt lat="50.35999" lon="3.26029">
        <ele>25</ele>
        <time>2023-01-22T10:13:53Z</time>
      </trkpt>
      <trkpt lat="50.35997" lon="3.26029">
        <ele>25</ele>
        <time>2023-01-22T10:13:54Z</time>
      </trkpt>
      <trkpt lat="50.35996" lon="3.26029">
        <ele>25</ele>
        <time>2023-01-22T10:13:55Z</time>
      </trkpt>
      <trkpt lat="50.35995" lon="3.26029">
        <ele>25</ele>
        <time>2023-01-22T10:13:56Z</time>
      </trkpt>
      <trkpt lat="50.35993" lon="3.26029">
        <ele>25</ele>
        <time>2023-01-22T10:13:57Z</time>
      </trkpt>
      <trkpt lat="50.35992" lon="3.2603">
        <ele>25</ele>
        <time>2023-01-22T10:13:58Z</time>
      </trkpt>
      <trkpt lat="50.35991" lon="3.2603">
        <ele>25</ele>
        <time>2023-01-22T10:13:59Z</time>
      </trkpt>
      <trkpt lat="50.35989" lon="3.2603">
        <ele>16.938938</ele>
        <time>2023-01-22T10:14:00Z</time>
      </trkpt>
      <trkpt lat="50.35988" lon="3.2603">
        <ele>25</ele>
        <time>2023-01-22T10:14:01Z</time>
      </trkpt>
      <trkpt lat="50.35987" lon="3.26031">
        <ele>25</ele>
        <time>2023-01-22T10:14:02Z</time>
      </trkpt>
      <trkpt lat="50.35985" lon="3.26031">
        <ele>25</ele>
        <time>2023-01-22T10:14:03Z</time>
      </trkpt>
      <trkpt lat="50.35984" lon="3.26031">
        <ele>25</ele>
        <time>2023-01-22T10:14:04Z</time>
      </trkpt>
      <trkpt lat="50.35983" lon="3.26031">
        <ele>25</ele>
        <time>2023-01-22T10:14:05Z</time>
      </trkpt>
      <trkpt lat="50.35983" lon="3.26031">
        <ele>25</ele>
        <time>2023-01-22T10:14:06Z</time>
      </trkpt>
      <trkpt lat="50.35982" lon="3.26031">
        <ele>25</ele>
        <time>2023-01-22T10:14:07Z</time>
      </trkpt>
      <trkpt lat="50.35981" lon="3.26031">
        <ele>25</ele>
        <time>2023-01-22T10:14:08Z</time>
      </trkpt>
      <trkpt lat="50.3598" lon="3.26032">
        <ele>25</ele>
        <time>2023-01-22T10:14:09Z</time>
      </trkpt>
      <trkpt lat="50.35978" lon="3.26032">
        <ele>16.97403</ele>
        <time>2023-01-22T10:14:10Z</time>
      </trkpt>
      <trkpt lat="50.35977" lon="3.26032">
        <ele>25</ele>
        <time>2023-01-22T10:14:11Z</time>
      </trkpt>
      <trkpt lat="50.35976" lon="3.26033">
        <ele>25</ele>
        <time>2023-01-22T10:14:12Z</time>
      </trkpt>
      <trkpt lat="50.35975" lon="3.26032">
        <ele>25</ele>
        <time>2023-01-22T10:14:13Z</time>
      </trkpt>
      <trkpt lat="50.35973" lon="3.26032">
        <ele>25</ele>
        <time>2023-01-22T10:14:14Z</time>
      </trkpt>
      <trkpt lat="50.35972" lon="3.26032">
        <ele>25</ele>
        <time>2023-01-22T10:14:15Z</time>
      </trkpt>
      <trkpt lat="50.35971" lon="3.26033">
        <ele>25</ele>
        <time>2023-01-22T10:14:16Z</time>
      </trkpt>
      <trkpt lat="50.3597" lon="3.26033">
        <ele>25</ele>
        <time>2023-01-22T10:14:17Z</time>
      </trkpt>
      <trkpt lat="50.35969" lon="3.26033">
        <ele>25</ele>
        <time>2023-01-22T10:14:18Z</time>
      </trkpt>
      <trkpt lat="50.35968" lon="3.26033">
        <ele>25</ele>
        <time>2023-01-22T10:14:19Z</time>
      </trkpt>
      <trkpt lat="50.35967" lon="3.26033">
        <ele>17.090683</ele>
        <time>2023-01-22T10:14:20Z</time>
      </trkpt>
      <trkpt lat="50.35967" lon="3.26033">
        <ele>25</ele>
        <time>2023-01-22T10:14:21Z</time>
      </trkpt>
      <trkpt lat="50.35965" lon="3.26033">
        <ele>25</ele>
        <time>2023-01-22T10:14:22Z</time>
      </trkpt>
      <trkpt lat="50.35965" lon="3.26033">
        <ele>25</ele>
        <time>2023-01-22T10:14:23Z</time>
      </trkpt>
      <trkpt lat="50.35963" lon="3.26033">
        <ele>25</ele>
        <time>2023-01-22T10:14:24Z</time>
      </trkpt>
      <trkpt lat="50.35963" lon="3.26033">
        <ele>25</ele>
        <time>2023-01-22T10:14:25Z</time>
      </trkpt>
      <trkpt lat="50.35962" lon="3.26034">
        <ele>25</ele>
        <time>2023-01-22T10:14:26Z</time>
      </trkpt>
      <trkpt lat="50.35961" lon="3.26034">
        <ele>25</ele>
        <time>2023-01-22T10:14:27Z</time>
      </trkpt>
      <trkpt lat="50.3596" lon="3.26033">
        <ele>25</ele>
        <time>2023-01-22T10:14:28Z</time>
      </trkpt>
      <trkpt lat="50.35959" lon="3.26033">
        <ele>25</ele>
        <time>2023-01-22T10:14:29Z</time>
      </trkpt>
      <trkpt lat="50.35957" lon="3.26033">
        <ele>17.243376</ele>
        <time>2023-01-22T10:14:30Z</time>
      </trkpt>
      <trkpt lat="50.35956" lon="3.26034">
        <ele>25</ele>
        <time>2023-01-22T10:14:31Z</time>
      </trkpt>
      <trkpt lat="50.35955" lon="3.26034">
        <ele>25</ele>
        <time>2023-01-22T10:14:32Z</time>
      </trkpt>
      <trkpt lat="50.35954" lon="3.26034">
        <ele>25</ele>
        <time>2023-01-22T10:14:33Z</time>
      </trkpt>
      <trkpt lat="50.35953" lon="3.26035">
        <ele>25</ele>
        <time>2023-01-22T10:14:34Z</time>
      </trkpt>
      <trkpt lat="50.35952" lon="3.26035">
        <ele>25</ele>
        <time>2023-01-22T10:14:35Z</time>
      </trkpt>
      <trkpt lat="50.3595" lon="3.26035">
        <ele>25</ele>
        <time>2023-01-22T10:14:36Z</time>
      </trkpt>
      <trkpt lat="50.35949" lon="3.26034">
        <ele>25</ele>
        <time>2023-01-22T10:14:37Z</time>
      </trkpt>
      <trkpt lat="50.35947" lon="3.26034">
        <ele>25</ele>
        <time>2023-01-22T10:14:38Z</time>
      </trkpt>
      <trkpt lat="50.35946" lon="3.26035">
        <ele>25</ele>
        <time>2023-01-22T10:14:39Z</time>
      </trkpt>
      <trkpt lat="50.35945" lon="3.26034">
        <ele>17.325888</ele>
        <time>2023-01-22T10:14:40Z</time>
      </trkpt>
      <trkpt lat="50.35944" lon="3.26034">
        <ele>25</ele>
        <time>2023-01-22T10:14:41Z</time>
      </trkpt>
      <trkpt lat="50.35943" lon="3.26034">
        <ele>25</ele>
        <time>2023-01-22T10:14:42Z</time>
      </trkpt>
      <trkpt lat="50.35942" lon="3.26034">
        <ele>25.1</ele>
        <time>2023-01-22T10:14:43Z</time>
      </trkpt>
      <trkpt lat="50.3594" lon="3.26034">
        <ele>25.1</ele>
        <time>2023-01-22T10:14:44Z</time>
      </trkpt>
      <trkpt lat="50.35939" lon="3.26034">
        <ele>25.1</ele>
        <time>2023-01-22T10:14:45Z</time>
      </trkpt>
      <trkpt lat="50.35938" lon="3.26034">
        <ele>25.2</ele>
        <time>2023-01-22T10:14:46Z</time>
      </trkpt>
      <trkpt lat="50.35937" lon="3.26034">
        <ele>25.2</ele>
        <time>2023-01-22T10:14:47Z</time>
      </trkpt>
      <trkpt lat="50.35936" lon="3.26034">
        <ele>25.2</ele>
        <time>2023-01-22T10:14:48Z</time>
      </trkpt>
      <trkpt lat="50.35935" lon="3.26034">
        <ele>25.3</ele>
        <time>2023-01-22T10:14:49Z</time>
      </trkpt>
      <trkpt lat="50.35935" lon="3.26033">
        <ele>17.398916</ele>
        <time>2023-01-22T10:14:50Z</time>
      </trkpt>
      <trkpt lat="50.35934" lon="3.26033">
        <ele>25.3</ele>
        <time>2023-01-22T10:14:51Z</time>
      </trkpt>
      <trkpt lat="50.35932" lon="3.26032">
        <ele>25.4</ele>
        <time>2023-01-22T10:14:52Z</time>
      </trkpt>
      <trkpt lat="50.3593" lon="3.26033">
        <ele>25.4</ele>
        <time>2023-01-22T10:14:53Z</time>
      </trkpt>
      <trkpt lat="50.35929" lon="3.26033">
        <ele>25.5</ele>
        <time>2023-01-22T10:14:54Z</time>
      </trkpt>
      <trkpt lat="50.35928" lon="3.26033">
        <ele>25.5</ele>
        <time>2023-01-22T10:14:55Z</time>
      </trkpt>
      <trkpt lat="50.35926" lon="3.26033">
        <ele>25.5</ele>
        <time>2023-01-22T10:14:56Z</time>
      </trkpt>
      <trkpt lat="50.35925" lon="3.26034">
        <ele>25.6</ele>
        <time>2023-01-22T10:14:57Z</time>
      </trkpt>
      <trkpt lat="50.35923" lon="3.26034">
        <ele>25.6</ele>
        <time>2023-01-22T10:14:58Z</time>
      </trkpt>
      <trkpt lat="50.35921" lon="3.26035">
        <ele>25.6</ele>
        <time>2023-01-22T10:14:59Z</time>
      </trkpt>
      <trkpt lat="50.35919" lon="3.26035">
        <ele>17.553509</ele>
        <time>2023-01-22T10:15:00Z</time>
      </trkpt>
      <trkpt lat="50.35918" lon="3.26035">
        <ele>25.7</ele>
        <time>2023-01-22T10:15:01Z</time>
      </trkpt>
      <trkpt lat="50.35917" lon="3.26035">
        <ele>25.7</ele>
        <time>2023-01-22T10:15:02Z</time>
      </trkpt>
      <trkpt lat="50.35916" lon="3.26035">
        <ele>25.7</ele>
        <time>2023-01-22T10:15:03Z</time>
      </trkpt>
      <trkpt lat="50.35914" lon="3.26035">
        <ele>25.7</ele>
        <time>2023-01-22T10:15:04Z</time>
      </trkpt>
      <trkpt lat="50.35913" lon="3.26036">
        <ele>25.6</ele>
        <time>2023-01-22T10:15:05Z</time>
      </trkpt>
      <trkpt lat="50.35912" lon="3.26036">
        <ele>25.6</ele>
        <time>2023-01-22T10:15:06Z</time>
      </trkpt>
      <trkpt lat="50.35911" lon="3.26036">
        <ele>25.6</ele>
        <time>2023-01-22T10:15:07Z</time>
      </trkpt>
      <trkpt lat="50.3591" lon="3.26035">
        <ele>25.6</ele>
        <time>2023-01-22T10:15:08Z</time>
      </trkpt>
      <trkpt lat="50.35909" lon="3.26035">
        <ele>25.5</ele>
        <time>2023-01-22T10:15:09Z</time>
      </trkpt>
      <trkpt lat="50.35907" lon="3.26034">
        <ele>17.794409</ele>
        <time>2023-01-22T10:15:10Z</time>
      </trkpt>
      <trkpt lat="50.35906" lon="3.26034">
        <ele>25.5</ele>
        <time>2023-01-22T10:15:11Z</time>
      </trkpt>
      <trkpt lat="50.35905" lon="3.26034">
        <ele>25.4</ele>
        <time>2023-01-22T10:15:12Z</time>
      </trkpt>
      <trkpt lat="50.35903" lon="3.26034">
        <ele>25.4</ele>
        <time>2023-01-22T10:15:13Z</time>
        <extensions>
          <gpxtpx:TrackPointExtension xmlns:gpxtpx="http://www.garmin.com/xmlschemas/TrackPointExtension/v1">
            <gpxtpx:hr>148</gpxtpx:hr>
          </gpxtpx:TrackPointExtension>
        </extensions>
      </trkpt>
      <trkpt lat="50.35902" lon="3.26035">
        <ele>25.4</ele>
        <time>2023-01-22T10:15:14Z</time>
      </trkpt>
      <trkpt lat="50.35901" lon="3.26035">
        <ele>25.3</ele>
        <time>2023-01-22T10:15:15Z</time>
      </trkpt>
      <trkpt lat="50.35899" lon="3.26036">
        <ele>25.3</ele>
        <time>2023-01-22T10:15:16Z</time>
      </trkpt>
      <trkpt lat="50.35897" lon="3.26036">
        <ele>25.2</ele>
        <time>2023-01-22T10:15:17Z</time>
      </trkpt>
      <trkpt lat="50.35896" lon="3.26037">
        <ele>25.2</ele>
        <time>2023-01-22T10:15:18Z</time>
      </trkpt>
      <trkpt lat="50.35894" lon="3.26037">
        <ele>25.1</ele>
        <time>2023-01-22T10:15:19Z</time>
      </trkpt>
      <trkpt lat="50.35893" lon="3.26038">
        <ele>17.769749</ele>
        <time>2023-01-22T10:15:20Z</time>
      </trkpt>
      <trkpt lat="50.35892" lon="3.26038">
        <ele>25.1</ele>
        <time>2023-01-22T10:15:21Z</time>
      </trkpt>
      <trkpt lat="50.35891" lon="3.26038">
        <ele>25</ele>
        <time>2023-01-22T10:15:22Z</time>
      </trkpt>
      <trkpt lat="50.3589" lon="3.26039">
        <ele>25</ele>
        <time>2023-01-22T10:15:23Z</time>
      </trkpt>
      <trkpt lat="50.35889" lon="3.26039">
        <ele>25</ele>
        <time>2023-01-22T10:15:24Z</time>
      </trkpt>
      <trkpt lat="50.35887" lon="3.2604">
        <ele>25</ele>
        <time>2023-01-22T10:15:25Z</time>
      </trkpt>
      <trkpt lat="50.35886" lon="3.2604">
        <ele>25.1</ele>
        <time>2023-01-22T10:15:26Z</time>
      </trkpt>
      <trkpt lat="50.35884" lon="3.26041">
        <ele>25.1</ele>
        <time>2023-01-22T10:15:27Z</time>
      </trkpt>
      <trkpt lat="50.35883" lon="3.26041">
        <ele>25.1</ele>
        <time>2023-01-22T10:15:28Z</time>
      </trkpt>
      <trkpt lat="50.35881" lon="3.2604">
        <ele>25.1</ele>
        <time>2023-01-22T10:15:29Z</time>
      </trkpt>
      <trkpt lat="50.3588" lon="3.26041">
        <ele>18.098858</ele>
        <time>2023-01-22T10:15:30Z</time>
      </trkpt>
      <trkpt lat="50.35878" lon="3.26042">
        <ele>25.2</ele>
        <time>2023-01-22T10:15:31Z</time>
      </trkpt>
      <trkpt lat="50.35877" lon="3.26042">
        <ele>25.2</ele>
        <time>2023-01-22T10:15:32Z</time>
      </trkpt>
      <trkpt lat="50.35876" lon="3.26043">
        <ele>25.3</ele>
        <time>2023-01-22T10:15:33Z</time>
      </trkpt>
      <trkpt lat="50.35875" lon="3.26043">
        <ele>25.3</ele>
        <time>2023-01-22T10:15:34Z</time>
      </trkpt>
      <trkpt lat="50.35874" lon="3.26044">
        <ele>25.3</ele>
        <time>2023-01-22T10:15:35Z</time>
      </trkpt>
      <trkpt lat="50.35873" lon="3.26044">
        <ele>25.3</ele>
        <time>2023-01-22T10:15:36Z</time>
      </trkpt>
      <trkpt lat="50.35872" lon="3.26044">
        <ele>25.4</ele>
        <time>2023-01-22T10:15:37Z</time>
      </trkpt>
      <trkpt lat="50.3587" lon="3.26045">
        <ele>25.4</ele>
        <time>2023-01-22T10:15:38Z</time>
      </trkpt>
      <trkpt lat="50.35869" lon="3.26044">
        <ele>25.4</ele>
        <time>2023-01-22T10:15:39Z</time>
      </trkpt>
      <trkpt lat="50.35868" lon="3.26044">
        <ele>17.998323</ele>
        <time>2023-01-22T10:15:40Z</time>
      </trkpt>
      <trkpt lat="50.35867" lon="3.26044">
        <ele>25.5</ele>
        <time>2023-01-22T10:15:41Z</time>
      </trkpt>
      <trkpt lat="50.35866" lon="3.26045">
        <ele>25.5</ele>
        <time>2023-01-22T10:15:42Z</time>
      </trkpt>
      <trkpt lat="50.35865" lon="3.26045">
        <ele>25.5</ele>
        <time>2023-01-22T10:15:43Z</time>
      </trkpt>
      <trkpt lat="50.35864" lon="3.26045">
        <ele>25.6</ele>
        <time>2023-01-22T10:15:44Z</time>
      </trkpt>
      <trkpt lat="50.35862" lon="3.26046">
        <ele>25.6</ele>
        <time>2023-01-22T10:15:45Z</time>
      </trkpt>
      <trkpt lat="50.35861" lon="3.26046">
        <ele>25.7</ele>
        <time>2023-01-22T10:15:46Z</time>
      </trkpt>
      <trkpt lat="50.35859" lon="3.26047">
        <ele>25.7</ele>
        <time>2023-01-22T10:15:47Z</time>
      </trkpt>
      <trkpt lat="50.35858" lon="3.26048">
        <ele>25.7</ele>
        <time>2023-01-22T10:15:48Z</time>
      </trkpt>
      <trkpt lat="50.35856" lon="3.26048">
        <ele>25.7</ele>
        <time>2023-01-22T10:15:49Z</time>
      </trkpt>
      <trkpt lat="50.35856" lon="3.26048">
        <ele>17.949953</ele>
        <time>2023-01-22T10:15:50Z</time>
      </trkpt>
      <trkpt lat="50.35854" lon="3.26048">
        <ele>25.7</ele>
        <time>2023-01-22T10:15:51Z</time>
      </trkpt>
      <trkpt lat="50.35854" lon="3.26048">
        <ele>25.7</ele>
        <time>2023-01-22T10:15:52Z</time>
      </trkpt>
      <trkpt lat="50.35852" lon="3.26049">
        <ele>25.8</ele>
        <time>2023-01-22T10:15:53Z</time>
      </trkpt>
      <trkpt lat="50.35852" lon="3.26049">
        <ele>25.8</ele>
        <time>2023-01-22T10:15:54Z</time>
      </trkpt>
      <trkpt lat="50.35851" lon="3.2605">
        <ele>25.8</ele>
        <time>2023-01-22T10:15:55Z</time>
      </trkpt>
      <trkpt lat="50.35849" lon="3.2605">
        <ele>25.8</ele>
        <time>2023-01-22T10:15:56Z</time>
      </trkpt>
      <trkpt lat="50.35848" lon="3.2605">
        <ele>25.8</ele>
        <time>2023-01-22T10:15:57Z</time>
      </trkpt>
      <trkpt lat="50.35847" lon="3.26049">
        <ele>25.8</ele>
        <time>2023-01-22T10:15:58Z</time>
      </trkpt>
      <trkpt lat="50.35846" lon="3.26049">
        <ele>25.8</ele>
        <time>2023-01-22T10:15:59Z</time>
      </trkpt>
      <trkpt lat="50.35844" lon="3.26049">
        <ele>17.772594</ele>
        <time>2023-01-22T10:16:00Z</time>
      </trkpt>
      <trkpt lat="50.35842" lon="3.2605">
        <ele>25.8</ele>
        <time>2023-01-22T10:16:01Z</time>
      </trkpt>
      <trkpt lat="50.35841" lon="3.2605">
        <ele>25.8</ele>
        <time>2023-01-22T10:16:02Z</time>
      </trkpt>
      <trkpt lat="50.35839" lon="3.2605">
        <ele>25.8</ele>
        <time>2023-01-22T10:16:03Z</time>
      </trkpt>
      <trkpt lat="50.35838" lon="3.2605">
        <ele>25.8</ele>
        <time>2023-01-22T10:16:04Z</time>
      </trkpt>
      <trkpt lat="50.35837" lon="3.26051">
        <ele>25.8</ele>
        <time>2023-01-22T10:16:05Z</time>
      </trkpt>
      <trkpt lat="50.35835" lon="3.26051">
        <ele>25.8</ele>
        <time>2023-01-22T10:16:06Z</time>
      </trkpt>
      <trkpt lat="50.35834" lon="3.26051">
        <ele>25.8</ele>
        <time>2023-01-22T10:16:07Z</time>
      </trkpt>
      <trkpt lat="50.35833" lon="3.26051">
        <ele>25.8</ele>
        <time>2023-01-22T10:16:08Z</time>
      </trkpt>
      <trkpt lat="50.35832" lon="3.26051">
        <ele>25.8</ele>
        <time>2023-01-22T10:16:09Z</time>
      </trkpt>
      <trkpt lat="50.35831" lon="3.26052">
        <ele>17.786821</ele>
        <time>2023-01-22T10:16:10Z</time>
      </trkpt>
      <trkpt lat="50.3583" lon="3.26052">
        <ele>25.9</ele>
        <time>2023-01-22T10:16:11Z</time>
      </trkpt>
      <trkpt lat="50.3583" lon="3.26052">
        <ele>25.9</ele>
        <time>2023-01-22T10:16:12Z</time>
      </trkpt>
      <trkpt lat="50.35828" lon="3.26052">
        <ele>25.9</ele>
        <time>2023-01-22T10:16:13Z</time>
      </trkpt>
      <trkpt lat="50.35827" lon="3.26053">
        <ele>25.9</ele>
        <time>2023-01-22T10:16:14Z</time>
      </trkpt>
      <trkpt lat="50.35825" lon="3.26053">
        <ele>25.9</ele>
        <time>2023-01-22T10:16:15Z</time>
      </trkpt>
      <trkpt lat="50.35824" lon="3.26054">
        <ele>26</ele>
        <time>2023-01-22T10:16:16Z</time>
      </trkpt>
      <trkpt lat="50.35823" lon="3.26055">
        <ele>26</ele>
        <time>2023-01-22T10:16:17Z</time>
        <extensions>
          <gpxtpx:TrackPointExtension xmlns:gpxtpx="http://www.garmin.com/xmlschemas/TrackPointExtension/v1">
            <gpxtpx:hr>152</gpxtpx:hr>
          </gpxtpx:TrackPointExtension>
        </extensions>
      </trkpt>
      <trkpt lat="50.35822" lon="3.26055">
        <ele>26</ele>
        <time>2023-01-22T10:16:18Z</time>
      </trkpt>
      <trkpt lat="50.3582" lon="3.26056">
        <ele>26</ele>
        <time>2023-01-22T10:16:19Z</time>
        <extensions>
          <gpxtpx:TrackPointExtension xmlns:gpxtpx="http://www.garmin.com/xmlschemas/TrackPointExtension/v1">
            <gpxtpx:hr>152</gpxtpx:hr>
          </gpxtpx:TrackPointExtension>
        </extensions>
      </trkpt>
      <trkpt lat="50.35819" lon="3.26057">
        <ele>17.950901</ele>
        <time>2023-01-22T10:16:20Z</time>
      </trkpt>
      <trkpt lat="50.35818" lon="3.26057">
        <ele>26</ele>
        <time>2023-01-22T10:16:21Z</time>
      </trkpt>
      <trkpt lat="50.35817" lon="3.26058">
        <ele>26</ele>
        <time>2023-01-22T10:16:22Z</time>
      </trkpt>
      <trkpt lat="50.35816" lon="3.26058">
        <ele>25.9</ele>
        <time>2023-01-22T10:16:23Z</time>
      </trkpt>
      <trkpt lat="50.35815" lon="3.26058">
        <ele>25.9</ele>
        <time>2023-01-22T10:16:24Z</time>
      </trkpt>
      <trkpt lat="50.35814" lon="3.26058">
        <ele>25.9</ele>
        <time>2023-01-22T10:16:25Z</time>
      </trkpt>
      <trkpt lat="50.35812" lon="3.26058">
        <ele>25.9</ele>
        <time>2023-01-22T10:16:26Z</time>
      </trkpt>
      <trkpt lat="50.35811" lon="3.26058">
        <ele>25.9</ele>
        <time>2023-01-22T10:16:27Z</time>
      </trkpt>
      <trkpt lat="50.35809" lon="3.26059">
        <ele>25.9</ele>
        <time>2023-01-22T10:16:28Z</time>
      </trkpt>
      <trkpt lat="50.35807" lon="3.26059">
        <ele>25.9</ele>
        <time>2023-01-22T10:16:29Z</time>
      </trkpt>
      <trkpt lat="50.35806" lon="3.2606">
        <ele>17.723276</ele>
        <time>2023-01-22T10:16:30Z</time>
      </trkpt>
      <trkpt lat="50.35804" lon="3.2606">
        <ele>25.9</ele>
        <time>2023-01-22T10:16:31Z</time>
      </trkpt>
      <trkpt lat="50.35803" lon="3.2606">
        <ele>25.8</ele>
        <time>2023-01-22T10:16:32Z</time>
      </trkpt>
      <trkpt lat="50.35803" lon="3.26061">
        <ele>25.8</ele>
        <time>2023-01-22T10:16:33Z</time>
      </trkpt>
      <trkpt lat="50.35801" lon="3.26062">
        <ele>25.8</ele>
        <time>2023-01-22T10:16:34Z</time>
      </trkpt>
      <trkpt lat="50.35801" lon="3.26064">
        <ele>25.7</ele>
        <time>2023-01-22T10:16:35Z</time>
      </trkpt>
      <trkpt lat="50.358" lon="3.26065">
        <ele>25.7</ele>
        <time>2023-01-22T10:16:36Z</time>
      </trkpt>
      <trkpt lat="50.35799" lon="3.26067">
        <ele>25.7</ele>
        <time>2023-01-22T10:16:37Z</time>
      </trkpt>
      <trkpt lat="50.35799" lon="3.26069">
        <ele>25.6</ele>
        <time>2023-01-22T10:16:38Z</time>
      </trkpt>
      <trkpt lat="50.35799" lon="3.26071">
        <ele>25.6</ele>
        <time>2023-01-22T10:16:39Z</time>
        <extensions>
          <gpxtpx:TrackPointExtension xmlns:gpxtpx="http://www.garmin.com/xmlschemas/TrackPointExtension/v1">
            <gpxtpx:hr>145</gpxtpx:hr>
          </gpxtpx:TrackPointExtension>
        </extensions>
      </trkpt>
      <trkpt lat="50.35799" lon="3.26072">
        <ele>17.308817</ele>
        <time>2023-01-22T10:16:40Z</time>
      </trkpt>
      <trkpt lat="50.35799" lon="3.26073">
        <ele>25.5</ele>
        <time>2023-01-22T10:16:41Z</time>
      </trkpt>
      <trkpt lat="50.35799" lon="3.26075">
        <ele>25.5</ele>
        <time>2023-01-22T10:16:42Z</time>
      </trkpt>
      <trkpt lat="50.35799" lon="3.26078">
        <ele>25.4</ele>
        <time>2023-01-22T10:16:43Z</time>
      </trkpt>
      <trkpt lat="50.35799" lon="3.26081">
        <ele>25.3</ele>
        <time>2023-01-22T10:16:44Z</time>
      </trkpt>
      <trkpt lat="50.35799" lon="3.26083">
        <ele>25.3</ele>
        <time>2023-01-22T10:16:45Z</time>
      </trkpt>
      <trkpt lat="50.35799" lon="3.26084">
        <ele>25.2</ele>
        <time>2023-01-22T10:16:46Z</time>
      </trkpt>
      <trkpt lat="50.35799" lon="3.26085">
        <ele>25.2</ele>
        <time>2023-01-22T10:16:47Z</time>
      </trkpt>
      <trkpt lat="50.35799" lon="3.26087">
        <ele>25.2</ele>
        <time>2023-01-22T10:16:48Z</time>
      </trkpt>
      <trkpt lat="50.35799" lon="3.26088">
        <ele>25.2</ele>
        <time>2023-01-22T10:16:49Z</time>
      </trkpt>
      <trkpt lat="50.35799" lon="3.2609">
        <ele>17.285107</ele>
        <time>2023-01-22T10:16:50Z</time>
      </trkpt>
      <trkpt lat="50.358" lon="3.2609">
        <ele>25.2</ele>
        <time>2023-01-22T10:16:51Z</time>
      </trkpt>
      <trkpt lat="50.35801" lon="3.26093">
        <ele>25.2</ele>
        <time>2023-01-22T10:16:52Z</time>
      </trkpt>
      <trkpt lat="50.35801" lon="3.26094">
        <ele>25.2</ele>
        <time>2023-01-22T10:16:53Z</time>
      </trkpt>
      <trkpt lat="50.35802" lon="3.26096">
        <ele>25.1</ele>
        <time>2023-01-22T10:16:54Z</time>
      </trkpt>
      <trkpt lat="50.35803" lon="3.26099">
        <ele>25.1</ele>
        <time>2023-01-22T10:16:55Z</time>
      </trkpt>
      <trkpt lat="50.35803" lon="3.26101">
        <ele>25.1</ele>
        <time>2023-01-22T10:16:56Z</time>
      </trkpt>
      <trkpt lat="50.35805" lon="3.26103">
        <ele>25</ele>
        <time>2023-01-22T10:16:57Z</time>
      </trkpt>
      <trkpt lat="50.35806" lon="3.26105">
        <ele>25</ele>
        <time>2023-01-22T10:16:58Z</time>
      </trkpt>
      <trkpt lat="50.35807" lon="3.26107">
        <ele>25.1</ele>
        <time>2023-01-22T10:16:59Z</time>
        <extensions>
          <gpxtpx:TrackPointExtension xmlns:gpxtpx="http://www.garmin.com/xmlschemas/TrackPointExtension/v1">
            <gpxtpx:hr>143</gpxtpx:hr>
          </gpxtpx:TrackPointExtension>
        </extensions>
      </trkpt>
      <trkpt lat="50.35809" lon="3.26109">
        <ele>17.21777</ele>
        <time>2023-01-22T10:17:00Z</time>
      </trkpt>
      <trkpt lat="50.3581" lon="3.26111">
        <ele>25.2</ele>
        <time>2023-01-22T10:17:01Z</time>
      </trkpt>
      <trkpt lat="50.35811" lon="3.26113">
        <ele>25.2</ele>
        <time>2023-01-22T10:17:02Z</time>
      </trkpt>
      <trkpt lat="50.35812" lon="3.26115">
        <ele>25.2</ele>
        <time>2023-01-22T10:17:03Z</time>
      </trkpt>
      <trkpt lat="50.35813" lon="3.26117">
        <ele>25.2</ele>
        <time>2023-01-22T10:17:04Z</time>
      </trkpt>
      <trkpt lat="50.35814" lon="3.26118">
        <ele>25.2</ele>
        <time>2023-01-22T10:17:05Z</time>
      </trkpt>
      <trkpt lat="50.35815" lon="3.2612">
        <ele>25.2</ele>
        <time>2023-01-22T10:17:06Z</time>
      </trkpt>
      <trkpt lat="50.35816" lon="3.26122">
        <ele>25.2</ele>
        <time>2023-01-22T10:17:07Z</time>
      </trkpt>
      <trkpt lat="50.35819" lon="3.26123">
        <ele>25.3</ele>
        <time>2023-01-22T10:17:08Z</time>
      </trkpt>
      <trkpt lat="50.35821" lon="3.26125">
        <ele>25.3</ele>
        <time>2023-01-22T10:17:09Z</time>
      </trkpt>
      <trkpt lat="50.35823" lon="3.26126">
        <ele>17.21113</ele>
        <time>2023-01-22T10:17:10Z</time>
      </trkpt>
      <trkpt lat="50.35824" lon="3.26128">
        <ele>25.3</ele>
        <time>2023-01-22T10:17:11Z</time>
      </trkpt>
      <trkpt lat="50.35825" lon="3.26129">
        <ele>25.3</ele>
        <time>2023-01-22T10:17:12Z</time>
      </trkpt>
      <trkpt lat="50.35825" lon="3.2613">
        <ele>25.2</ele>
        <time>2023-01-22T10:17:13Z</time>
      </trkpt>
      <trkpt lat="50.35826" lon="3.26131">
        <ele>25.2</ele>
        <time>2023-01-22T10:17:14Z</time>
      </trkpt>
      <trkpt lat="50.35827" lon="3.26133">
        <ele>25.2</ele>
        <time>2023-01-22T10:17:15Z</time>
      </trkpt>
      <trkpt lat="50.35828" lon="3.26135">
        <ele>25.1</ele>
        <time>2023-01-22T10:17:16Z</time>
      </trkpt>
      <trkpt lat="50.35828" lon="3.26137">
        <ele>25.1</ele>
        <time>2023-01-22T10:17:17Z</time>
      </trkpt>
      <trkpt lat="50.35828" lon="3.26139">
        <ele>25</ele>
        <time>2023-01-22T10:17:18Z</time>
      </trkpt>
      <trkpt lat="50.3583" lon="3.2614">
        <ele>25</ele>
        <time>2023-01-22T10:17:19Z</time>
      </trkpt>
      <trkpt lat="50.3583" lon="3.26142">
        <ele>17.317352</ele>
        <time>2023-01-22T10:17:20Z</time>
      </trkpt>
      <trkpt lat="50.35831" lon="3.26144">
        <ele>25</ele>
        <time>2023-01-22T10:17:21Z</time>
      </trkpt>
      <trkpt lat="50.35831" lon="3.26146">
        <ele>25</ele>
        <time>2023-01-22T10:17:22Z</time>
      </trkpt>
      <trkpt lat="50.35832" lon="3.26148">
        <ele>25</ele>
        <time>2023-01-22T10:17:23Z</time>
      </trkpt>
      <trkpt lat="50.35832" lon="3.26149">
        <ele>25</ele>
        <time>2023-01-22T10:17:24Z</time>
        <extensions>
          <gpxtpx:TrackPointExtension xmlns:gpxtpx="http://www.garmin.com/xmlschemas/TrackPointExtension/v1">
            <gpxtpx:hr>148</gpxtpx:hr>
          </gpxtpx:TrackPointExtension>
        </extensions>
      </trkpt>
      <trkpt lat="50.35833" lon="3.2615">
        <ele>25</ele>
        <time>2023-01-22T10:17:25Z</time>
      </trkpt>
      <trkpt lat="50.35833" lon="3.2615">
        <ele>25</ele>
        <time>2023-01-22T10:17:26Z</time>
      </trkpt>
      <trkpt lat="50.35834" lon="3.26151">
        <ele>25</ele>
        <time>2023-01-22T10:17:27Z</time>
      </trkpt>
      <trkpt lat="50.35835" lon="3.26153">
        <ele>25.1</ele>
        <time>2023-01-22T10:17:28Z</time>
      </trkpt>
      <trkpt lat="50.35836" lon="3.26155">
        <ele>25.1</ele>
        <time>2023-01-22T10:17:29Z</time>
      </trkpt>
      <trkpt lat="50.35836" lon="3.26157">
        <ele>17.124825</ele>
        <time>2023-01-22T10:17:30Z</time>
      </trkpt>
      <trkpt lat="50.35836" lon="3.26159">
        <ele>25.1</ele>
        <time>2023-01-22T10:17:31Z</time>
      </trkpt>
      <trkpt lat="50.35837" lon="3.26161">
        <ele>25.1</ele>
        <time>2023-01-22T10:17:32Z</time>
      </trkpt>
      <trkpt lat="50.35838" lon="3.26163">
        <ele>25.2</ele>
        <time>2023-01-22T10:17:33Z</time>
      </trkpt>
      <trkpt lat="50.35839" lon="3.26165">
        <ele>25.2</ele>
        <time>2023-01-22T10:17:34Z</time>
      </trkpt>
      <trkpt lat="50.35839" lon="3.26167">
        <ele>25.2</ele>
        <time>2023-01-22T10:17:35Z</time>
      </trkpt>
      <trkpt lat="50.3584" lon="3.26169">
        <ele>25.3</ele>
        <time>2023-01-22T10:17:36Z</time>
      </trkpt>
      <trkpt lat="50.3584" lon="3.26169">
        <ele>25.3</ele>
        <time>2023-01-22T10:17:37Z</time>
      </trkpt>
      <trkpt lat="50.35841" lon="3.26171">
        <ele>25.4</ele>
        <time>2023-01-22T10:17:38Z</time>
      </trkpt>
      <trkpt lat="50.35841" lon="3.26173">
        <ele>25.4</ele>
        <time>2023-01-22T10:17:39Z</time>
      </trkpt>
      <trkpt lat="50.35842" lon="3.26174">
        <ele>16.901003</ele>
        <time>2023-01-22T10:17:40Z</time>
      </trkpt>
      <trkpt lat="50.35842" lon="3.26175">
        <ele>25.5</ele>
        <time>2023-01-22T10:17:41Z</time>
      </trkpt>
      <trkpt lat="50.35843" lon="3.26176">
        <ele>25.6</ele>
        <time>2023-01-22T10:17:42Z</time>
      </trkpt>
      <trkpt lat="50.35843" lon="3.26178">
        <ele>25.6</ele>
        <time>2023-01-22T10:17:43Z</time>
      </trkpt>
      <trkpt lat="50.35843" lon="3.2618">
        <ele>25.7</ele>
        <time>2023-01-22T10:17:44Z</time>
      </trkpt>
      <trkpt lat="50.35844" lon="3.26181">
        <ele>25.7</ele>
        <time>2023-01-22T10:17:45Z</time>
      </trkpt>
      <trkpt lat="50.35844" lon="3.26183">
        <ele>25.7</ele>
        <time>2023-01-22T10:17:46Z</time>
      </trkpt>
      <trkpt lat="50.35844" lon="3.26185">
        <ele>25.8</ele>
        <time>2023-01-22T10:17:47Z</time>
      </trkpt>
      <trkpt lat="50.35844" lon="3.26187">
        <ele>25.8</ele>
        <time>2023-01-22T10:17:48Z</time>
      </trkpt>
      <trkpt lat="50.35845" lon="3.2619">
        <ele>25.9</ele>
        <time>2023-01-22T10:17:49Z</time>
      </trkpt>
      <trkpt lat="50.35845" lon="3.26192">
        <ele>16.574759</ele>
        <time>2023-01-22T10:17:50Z</time>
      </trkpt>
      <trkpt lat="50.35845" lon="3.26194">
        <ele>26</ele>
        <time>2023-01-22T10:17:51Z</time>
      </trkpt>
      <trkpt lat="50.35845" lon="3.26196">
        <ele>26.2</ele>
        <time>2023-01-22T10:17:52Z</time>
      </trkpt>
      <trkpt lat="50.35846" lon="3.26198">
        <ele>26.4</ele>
        <time>2023-01-22T10:17:53Z</time>
      </trkpt>
      <trkpt lat="50.35846" lon="3.262">
        <ele>26.7</ele>
        <time>2023-01-22T10:17:54Z</time>
      </trkpt>
      <trkpt lat="50.35846" lon="3.26202">
        <ele>27</ele>
        <time>2023-01-22T10:17:55Z</time>
      </trkpt>
      <trkpt lat="50.35846" lon="3.26204">
        <ele>27.2</ele>
        <time>2023-01-22T10:17:56Z</time>
      </trkpt>
      <trkpt lat="50.35846" lon="3.26206">
        <ele>27.4</ele>
        <time>2023-01-22T10:17:57Z</time>
      </trkpt>
      <trkpt lat="50.35847" lon="3.26206">
        <ele>27.5</ele>
        <time>2023-01-22T10:17:58Z</time>
      </trkpt>
      <trkpt lat="50.35847" lon="3.26208">
        <ele>27.6</ele>
        <time>2023-01-22T10:17:59Z</time>
      </trkpt>
      <trkpt lat="50.35847" lon="3.26209">
        <ele>16.898157</ele>
        <time>2023-01-22T10:18:00Z</time>
      </trkpt>
      <trkpt lat="50.35847" lon="3.26211">
        <ele>28</ele>
        <time>2023-01-22T10:18:01Z</time>
      </trkpt>
      <trkpt lat="50.35847" lon="3.26212">
        <ele>28.2</ele>
        <time>2023-01-22T10:18:02Z</time>
      </trkpt>
      <trkpt lat="50.35847" lon="3.26214">
        <ele>28.5</ele>
        <time>2023-01-22T10:18:03Z</time>
      </trkpt>
      <trkpt lat="50.35848" lon="3.26217">
        <ele>28.8</ele>
        <time>2023-01-22T10:18:04Z</time>
      </trkpt>
      <trkpt lat="50.35848" lon="3.26219">
        <ele>29.1</ele>
        <time>2023-01-22T10:18:05Z</time>
      </trkpt>
      <trkpt lat="50.35848" lon="3.2622">
        <ele>29.3</ele>
        <time>2023-01-22T10:18:06Z</time>
      </trkpt>
      <trkpt lat="50.35848" lon="3.26222">
        <ele>29.5</ele>
        <time>2023-01-22T10:18:07Z</time>
      </trkpt>
      <trkpt lat="50.35848" lon="3.26223">
        <ele>29.5</ele>
        <time>2023-01-22T10:18:08Z</time>
      </trkpt>
      <trkpt lat="50.35849" lon="3.26232">
        <ele>29.4</ele>
        <time>2023-01-22T10:18:16Z</time>
      </trkpt>
      <trkpt lat="50.3585" lon="3.26235">
        <ele>29.3</ele>
        <time>2023-01-22T10:18:17Z</time>
      </trkpt>
      <trkpt lat="50.3585" lon="3.26236">
        <ele>29.3</ele>
        <time>2023-01-22T10:18:18Z</time>
      </trkpt>
      <trkpt lat="50.3585" lon="3.26236">
        <ele>29.3</ele>
        <time>2023-01-22T10:18:19Z</time>
      </trkpt>
      <trkpt lat="50.3585" lon="3.26236">
        <ele>29.3</ele>
        <time>2023-01-22T10:18:20Z</time>
      </trkpt>
      <trkpt lat="50.35848" lon="3.26237">
        <ele>29.3</ele>
        <time>2023-01-22T10:18:21Z</time>
      </trkpt>
      <trkpt lat="50.35847" lon="3.26237">
        <ele>29.2</ele>
        <time>2023-01-22T10:18:22Z</time>
      </trkpt>
      <trkpt lat="50.35847" lon="3.26238">
        <ele>29.2</ele>
        <time>2023-01-22T10:18:23Z</time>
      </trkpt>
      <trkpt lat="50.35847" lon="3.26239">
        <ele>29.2</ele>
        <time>2023-01-22T10:18:24Z</time>
      </trkpt>
      <trkpt lat="50.35847" lon="3.26241">
        <ele>16.837461</ele>
        <time>2023-01-22T10:18:25Z</time>
      </trkpt>
      <trkpt lat="50.35847" lon="3.26242">
        <ele>29.1</ele>
        <time>2023-01-22T10:18:26Z</time>
      </trkpt>
      <trkpt lat="50.35847" lon="3.26246">
        <ele>29.1</ele>
        <time>2023-01-22T10:18:27Z</time>
      </trkpt>
      <trkpt lat="50.35847" lon="3.26248">
        <ele>29</ele>
        <time>2023-01-22T10:18:28Z</time>
      </trkpt>
      <trkpt lat="50.35846" lon="3.2625">
        <ele>29</ele>
        <time>2023-01-22T10:18:29Z</time>
      </trkpt>
      <trkpt lat="50.35847" lon="3.26253">
        <ele>16.818493</ele>
        <time>2023-01-22T10:18:30Z</time>
      </trkpt>
      <trkpt lat="50.35847" lon="3.26257">
        <ele>28.2</ele>
        <time>2023-01-22T10:18:31Z</time>
      </trkpt>
      <trkpt lat="50.35848" lon="3.2626">
        <ele>27.7</ele>
        <time>2023-01-22T10:18:32Z</time>
      </trkpt>
      <trkpt lat="50.35848" lon="3.26265">
        <ele>27.1</ele>
        <time>2023-01-22T10:18:33Z</time>
      </trkpt>
      <trkpt lat="50.35849" lon="3.26268">
        <ele>26.7</ele>
        <time>2023-01-22T10:18:34Z</time>
      </trkpt>
      <trkpt lat="50.3585" lon="3.26272">
        <ele>26.2</ele>
        <time>2023-01-22T10:18:35Z</time>
      </trkpt>
      <trkpt lat="50.3585" lon="3.26274">
        <ele>25.9</ele>
        <time>2023-01-22T10:18:36Z</time>
      </trkpt>
      <trkpt lat="50.35851" lon="3.26277">
        <ele>25.5</ele>
        <time>2023-01-22T10:18:37Z</time>
      </trkpt>
      <trkpt lat="50.35851" lon="3.2628">
        <ele>25.4</ele>
        <time>2023-01-22T10:18:38Z</time>
      </trkpt>
      <trkpt lat="50.35851" lon="3.26283">
        <ele>25.4</ele>
        <time>2023-01-22T10:18:39Z</time>
      </trkpt>
      <trkpt lat="50.35851" lon="3.26285">
        <ele>16.70279</ele>
        <time>2023-01-22T10:18:40Z</time>
      </trkpt>
      <trkpt lat="50.35852" lon="3.26287">
        <ele>25.3</ele>
        <time>2023-01-22T10:18:41Z</time>
      </trkpt>
      <trkpt lat="50.35851" lon="3.26289">
        <ele>25.4</ele>
        <time>2023-01-22T10:18:42Z</time>
      </trkpt>
      <trkpt lat="50.35851" lon="3.26292">
        <ele>25.4</ele>
        <time>2023-01-22T10:18:43Z</time>
      </trkpt>
      <trkpt lat="50.35851" lon="3.26294">
        <ele>25.4</ele>
        <time>2023-01-22T10:18:44Z</time>
      </trkpt>
      <trkpt lat="50.35851" lon="3.26296">
        <ele>25.4</ele>
        <time>2023-01-22T10:18:45Z</time>
      </trkpt>
      <trkpt lat="50.35851" lon="3.26298">
        <ele>25.4</ele>
        <time>2023-01-22T10:18:46Z</time>
      </trkpt>
      <trkpt lat="50.35851" lon="3.26299">
        <ele>25.4</ele>
        <time>2023-01-22T10:18:47Z</time>
      </trkpt>
      <trkpt lat="50.3585" lon="3.26299">
        <ele>25.4</ele>
        <time>2023-01-22T10:18:48Z</time>
      </trkpt>
      <trkpt lat="50.3585" lon="3.263">
        <ele>25.4</ele>
        <time>2023-01-22T10:18:49Z</time>
      </trkpt>
      <trkpt lat="50.35849" lon="3.26301">
        <ele>16.86117</ele>
        <time>2023-01-22T10:18:50Z</time>
      </trkpt>
      <trkpt lat="50.35849" lon="3.26302">
        <ele>25.5</ele>
        <time>2023-01-22T10:18:51Z</time>
      </trkpt>
      <trkpt lat="50.35848" lon="3.26304">
        <ele>25.5</ele>
        <time>2023-01-22T10:18:52Z</time>
      </trkpt>
      <trkpt lat="50.35847" lon="3.26306">
        <ele>25.5</ele>
        <time>2023-01-22T10:18:53Z</time>
      </trkpt>
      <trkpt lat="50.35846" lon="3.26307">
        <ele>25.6</ele>
        <time>2023-01-22T10:18:54Z</time>
      </trkpt>
      <trkpt lat="50.35845" lon="3.26308">
        <ele>25.6</ele>
        <time>2023-01-22T10:18:55Z</time>
      </trkpt>
      <trkpt lat="50.35844" lon="3.26309">
        <ele>25.6</ele>
        <time>2023-01-22T10:18:56Z</time>
      </trkpt>
      <trkpt lat="50.35843" lon="3.26311">
        <ele>25.7</ele>
        <time>2023-01-22T10:18:57Z</time>
      </trkpt>
      <trkpt lat="50.35842" lon="3.26313">
        <ele>25.7</ele>
        <time>2023-01-22T10:18:58Z</time>
      </trkpt>
      <trkpt lat="50.35841" lon="3.26314">
        <ele>25.7</ele>
        <time>2023-01-22T10:18:59Z</time>
      </trkpt>
      <trkpt lat="50.3584" lon="3.26315">
        <ele>16.851686</ele>
        <time>2023-01-22T10:19:00Z</time>
      </trkpt>
      <trkpt lat="50.3584" lon="3.26317">
        <ele>25.8</ele>
        <time>2023-01-22T10:19:01Z</time>
      </trkpt>
      <trkpt lat="50.3584" lon="3.26318">
        <ele>25.8</ele>
        <time>2023-01-22T10:19:02Z</time>
      </trkpt>
      <trkpt lat="50.35839" lon="3.2632">
        <ele>25.8</ele>
        <time>2023-01-22T10:19:03Z</time>
      </trkpt>
      <trkpt lat="50.35838" lon="3.26321">
        <ele>25.8</ele>
        <time>2023-01-22T10:19:04Z</time>
      </trkpt>
      <trkpt lat="50.35837" lon="3.26322">
        <ele>25.9</ele>
        <time>2023-01-22T10:19:05Z</time>
      </trkpt>
      <trkpt lat="50.35836" lon="3.26323">
        <ele>25.9</ele>
        <time>2023-01-22T10:19:06Z</time>
      </trkpt>
      <trkpt lat="50.35835" lon="3.26324">
        <ele>26</ele>
        <time>2023-01-22T10:19:07Z</time>
        <extensions>
          <gpxtpx:TrackPointExtension xmlns:gpxtpx="http://www.garmin.com/xmlschemas/TrackPointExtension/v1">
            <gpxtpx:hr>148</gpxtpx:hr>
          </gpxtpx:TrackPointExtension>
        </extensions>
      </trkpt>
      <trkpt lat="50.35833" lon="3.26325">
        <ele>26</ele>
        <time>2023-01-22T10:19:08Z</time>
      </trkpt>
      <trkpt lat="50.35832" lon="3.26326">
        <ele>26</ele>
        <time>2023-01-22T10:19:09Z</time>
      </trkpt>
      <trkpt lat="50.35831" lon="3.26328">
        <ele>17.536436</ele>
        <time>2023-01-22T10:19:10Z</time>
      </trkpt>
      <trkpt lat="50.3583" lon="3.26329">
        <ele>26</ele>
        <time>2023-01-22T10:19:11Z</time>
      </trkpt>
      <trkpt lat="50.35828" lon="3.2633">
        <ele>26</ele>
        <time>2023-01-22T10:19:12Z</time>
      </trkpt>
      <trkpt lat="50.35827" lon="3.26331">
        <ele>26</ele>
        <time>2023-01-22T10:19:13Z</time>
      </trkpt>
      <trkpt lat="50.35826" lon="3.26333">
        <ele>26</ele>
        <time>2023-01-22T10:19:14Z</time>
      </trkpt>
      <trkpt lat="50.35825" lon="3.26334">
        <ele>26</ele>
        <time>2023-01-22T10:19:15Z</time>
      </trkpt>
      <trkpt lat="50.35823" lon="3.26336">
        <ele>26</ele>
        <time>2023-01-22T10:19:16Z</time>
      </trkpt>
      <trkpt lat="50.35822" lon="3.26336">
        <ele>26</ele>
        <time>2023-01-22T10:19:17Z</time>
      </trkpt>
      <trkpt lat="50.35822" lon="3.26337">
        <ele>26.1</ele>
        <time>2023-01-22T10:19:18Z</time>
      </trkpt>
      <trkpt lat="50.3582" lon="3.26338">
        <ele>26.1</ele>
        <time>2023-01-22T10:19:19Z</time>
        <extensions>
          <gpxtpx:TrackPointExtension xmlns:gpxtpx="http://www.garmin.com/xmlschemas/TrackPointExtension/v1">
            <gpxtpx:hr>147</gpxtpx:hr>
          </gpxtpx:TrackPointExtension>
        </extensions>
      </trkpt>
      <trkpt lat="50.35819" lon="3.2634">
        <ele>17.889252</ele>
        <time>2023-01-22T10:19:20Z</time>
      </trkpt>
      <trkpt lat="50.35818" lon="3.26341">
        <ele>26.2</ele>
        <time>2023-01-22T10:19:21Z</time>
      </trkpt>
      <trkpt lat="50.35817" lon="3.26342">
        <ele>26.2</ele>
        <time>2023-01-22T10:19:22Z</time>
      </trkpt>
      <trkpt lat="50.35816" lon="3.26343">
        <ele>26.2</ele>
        <time>2023-01-22T10:19:23Z</time>
      </trkpt>
      <trkpt lat="50.35815" lon="3.26344">
        <ele>26.3</ele>
        <time>2023-01-22T10:19:24Z</time>
      </trkpt>
      <trkpt lat="50.35814" lon="3.26345">
        <ele>26.3</ele>
        <time>2023-01-22T10:19:25Z</time>
      </trkpt>
      <trkpt lat="50.35813" lon="3.26345">
        <ele>26.3</ele>
        <time>2023-01-22T10:19:26Z</time>
      </trkpt>
      <trkpt lat="50.35812" lon="3.26346">
        <ele>26.4</ele>
        <time>2023-01-22T10:19:27Z</time>
      </trkpt>
      <trkpt lat="50.35811" lon="3.26347">
        <ele>26.4</ele>
        <time>2023-01-22T10:19:28Z</time>
      </trkpt>
      <trkpt lat="50.35809" lon="3.26347">
        <ele>26.4</ele>
        <time>2023-01-22T10:19:29Z</time>
      </trkpt>
      <trkpt lat="50.35809" lon="3.26347">
        <ele>18.059023</ele>
        <time>2023-01-22T10:19:30Z</time>
      </trkpt>
      <trkpt lat="50.35808" lon="3.26348">
        <ele>26.5</ele>
        <time>2023-01-22T10:19:31Z</time>
      </trkpt>
      <trkpt lat="50.35807" lon="3.26349">
        <ele>26.5</ele>
        <time>2023-01-22T10:19:32Z</time>
      </trkpt>
      <trkpt lat="50.35806" lon="3.26349">
        <ele>26.6</ele>
        <time>2023-01-22T10:19:33Z</time>
      </trkpt>
      <trkpt lat="50.35805" lon="3.2635">
        <ele>26.6</ele>
        <time>2023-01-22T10:19:34Z</time>
      </trkpt>
      <trkpt lat="50.35804" lon="3.26351">
        <ele>26.6</ele>
        <time>2023-01-22T10:19:35Z</time>
      </trkpt>
      <trkpt lat="50.35803" lon="3.26352">
        <ele>26.7</ele>
        <time>2023-01-22T10:19:36Z</time>
      </trkpt>
      <trkpt lat="50.35802" lon="3.26354">
        <ele>26.7</ele>
        <time>2023-01-22T10:19:37Z</time>
      </trkpt>
      <trkpt lat="50.35801" lon="3.26355">
        <ele>26.8</ele>
        <time>2023-01-22T10:19:38Z</time>
      </trkpt>
      <trkpt lat="50.35799" lon="3.26356">
        <ele>26.8</ele>
        <time>2023-01-22T10:19:39Z</time>
        <extensions>
          <gpxtpx:TrackPointExtension xmlns:gpxtpx="http://www.garmin.com/xmlschemas/TrackPointExtension/v1">
            <gpxtpx:hr>146</gpxtpx:hr>
          </gpxtpx:TrackPointExtension>
        </extensions>
      </trkpt>
      <trkpt lat="50.35798" lon="3.26358">
        <ele>18.167147</ele>
        <time>2023-01-22T10:19:40Z</time>
      </trkpt>
      <trkpt lat="50.35798" lon="3.26359">
        <ele>26.9</ele>
        <time>2023-01-22T10:19:41Z</time>
      </trkpt>
      <trkpt lat="50.35797" lon="3.26359">
        <ele>26.9</ele>
        <time>2023-01-22T10:19:42Z</time>
      </trkpt>
      <trkpt lat="50.35796" lon="3.26359">
        <ele>26.9</ele>
        <time>2023-01-22T10:19:43Z</time>
      </trkpt>
      <trkpt lat="50.35794" lon="3.2636">
        <ele>26.9</ele>
        <time>2023-01-22T10:19:44Z</time>
      </trkpt>
      <trkpt lat="50.35793" lon="3.2636">
        <ele>27</ele>
        <time>2023-01-22T10:19:45Z</time>
      </trkpt>
      <trkpt lat="50.35793" lon="3.26361">
        <ele>27</ele>
        <time>2023-01-22T10:19:46Z</time>
      </trkpt>
      <trkpt lat="50.35791" lon="3.26361">
        <ele>27</ele>
        <time>2023-01-22T10:19:47Z</time>
      </trkpt>
      <trkpt lat="50.35791" lon="3.26362">
        <ele>27</ele>
        <time>2023-01-22T10:19:48Z</time>
      </trkpt>
      <trkpt lat="50.3579" lon="3.26363">
        <ele>27</ele>
        <time>2023-01-22T10:19:49Z</time>
      </trkpt>
      <trkpt lat="50.35789" lon="3.26364">
        <ele>18.605335</ele>
        <time>2023-01-22T10:19:50Z</time>
      </trkpt>
      <trkpt lat="50.35788" lon="3.26365">
        <ele>27.1</ele>
        <time>2023-01-22T10:19:51Z</time>
      </trkpt>
      <trkpt lat="50.35787" lon="3.26366">
        <ele>27.1</ele>
        <time>2023-01-22T10:19:52Z</time>
      </trkpt>
      <trkpt lat="50.35786" lon="3.26366">
        <ele>27.1</ele>
        <time>2023-01-22T10:19:53Z</time>
      </trkpt>
      <trkpt lat="50.35786" lon="3.26366">
        <ele>27.1</ele>
        <time>2023-01-22T10:19:54Z</time>
      </trkpt>
      <trkpt lat="50.35786" lon="3.26366">
        <ele>27.1</ele>
        <time>2023-01-22T10:19:55Z</time>
      </trkpt>
      <trkpt lat="50.35786" lon="3.26367">
        <ele>27.2</ele>
        <time>2023-01-22T10:19:56Z</time>
      </trkpt>
      <trkpt lat="50.35786" lon="3.26367">
        <ele>27.2</ele>
        <time>2023-01-22T10:19:57Z</time>
      </trkpt>
      <trkpt lat="50.35786" lon="3.26368">
        <ele>27.2</ele>
        <time>2023-01-22T10:19:58Z</time>
      </trkpt>
      <trkpt lat="50.35786" lon="3.26367">
        <ele>27.2</ele>
        <time>2023-01-22T10:19:59Z</time>
        <extensions>
          <gpxtpx:TrackPointExtension xmlns:gpxtpx="http://www.garmin.com/xmlschemas/TrackPointExtension/v1">
            <gpxtpx:hr>140</gpxtpx:hr>
          </gpxtpx:TrackPointExtension>
        </extensions>
      </trkpt>
      <trkpt lat="50.35786" lon="3.26367">
        <ele>18.998955</ele>
        <time>2023-01-22T10:20:00Z</time>
      </trkpt>
      <trkpt lat="50.35786" lon="3.26367">
        <ele>27.1</ele>
        <time>2023-01-22T10:20:01Z</time>
      </trkpt>
      <trkpt lat="50.35786" lon="3.26367">
        <ele>27.1</ele>
        <time>2023-01-22T10:20:02Z</time>
      </trkpt>
      <trkpt lat="50.35786" lon="3.26367">
        <ele>27.1</ele>
        <time>2023-01-22T10:20:03Z</time>
      </trkpt>
      <trkpt lat="50.35786" lon="3.26367">
        <ele>27.1</ele>
        <time>2023-01-22T10:20:04Z</time>
      </trkpt>
      <trkpt lat="50.35786" lon="3.26367">
        <ele>27.1</ele>
        <time>2023-01-22T10:20:05Z</time>
      </trkpt>
      <trkpt lat="50.35786" lon="3.26367">
        <ele>27.1</ele>
        <time>2023-01-22T10:20:06Z</time>
      </trkpt>
      <trkpt lat="50.35786" lon="3.26366">
        <ele>27.1</ele>
        <time>2023-01-22T10:20:07Z</time>
      </trkpt>
      <trkpt lat="50.35786" lon="3.26366">
        <ele>27.1</ele>
        <time>2023-01-22T10:20:08Z</time>
      </trkpt>
      <trkpt lat="50.35786" lon="3.26366">
        <ele>27.1</ele>
        <time>2023-01-22T10:20:09Z</time>
      </trkpt>
      <trkpt lat="50.35786" lon="3.26366">
        <ele>18.930662</ele>
        <time>2023-01-22T10:20:10Z</time>
      </trkpt>
      <trkpt lat="50.35786" lon="3.26366">
        <ele>27.1</ele>
        <time>2023-01-22T10:20:11Z</time>
      </trkpt>
      <trkpt lat="50.35786" lon="3.26366">
        <ele>27.1</ele>
        <time>2023-01-22T10:20:12Z</time>
      </trkpt>
      <trkpt lat="50.35786" lon="3.26366">
        <ele>27.1</ele>
        <time>2023-01-22T10:20:13Z</time>
      </trkpt>
      <trkpt lat="50.35786" lon="3.26366">
        <ele>27.1</ele>
        <time>2023-01-22T10:20:14Z</time>
      </trkpt>
      <trkpt lat="50.35786" lon="3.26366">
        <ele>27.1</ele>
        <time>2023-01-22T10:20:15Z</time>
      </trkpt>
      <trkpt lat="50.35786" lon="3.26366">
        <ele>27.1</ele>
        <time>2023-01-22T10:20:16Z</time>
      </trkpt>
      <trkpt lat="50.35786" lon="3.26366">
        <ele>27.1</ele>
        <time>2023-01-22T10:20:17Z</time>
      </trkpt>
      <trkpt lat="50.35787" lon="3.26366">
        <ele>27.1</ele>
        <time>2023-01-22T10:20:18Z</time>
      </trkpt>
      <trkpt lat="50.35787" lon="3.26366">
        <ele>27.1</ele>
        <time>2023-01-22T10:20:19Z</time>
        <extensions>
          <gpxtpx:TrackPointExtension xmlns:gpxtpx="http://www.garmin.com/xmlschemas/TrackPointExtension/v1">
            <gpxtpx:hr>133</gpxtpx:hr>
          </gpxtpx:TrackPointExtension>
        </extensions>
      </trkpt>
      <trkpt lat="50.35787" lon="3.26366">
        <ele>18.899363</ele>
        <time>2023-01-22T10:20:20Z</time>
      </trkpt>
      <trkpt lat="50.35787" lon="3.26366">
        <ele>27.1</ele>
        <time>2023-01-22T10:20:21Z</time>
      </trkpt>
      <trkpt lat="50.35787" lon="3.26366">
        <ele>27.1</ele>
        <time>2023-01-22T10:20:22Z</time>
      </trkpt>
      <trkpt lat="50.35786" lon="3.26366">
        <ele>27.1</ele>
        <time>2023-01-22T10:20:23Z</time>
      </trkpt>
      <trkpt lat="50.35786" lon="3.26366">
        <ele>27.1</ele>
        <time>2023-01-22T10:20:24Z</time>
      </trkpt>
      <trkpt lat="50.35786" lon="3.26366">
        <ele>27.1</ele>
        <time>2023-01-22T10:20:25Z</time>
      </trkpt>
      <trkpt lat="50.35786" lon="3.26366">
        <ele>27.1</ele>
        <time>2023-01-22T10:20:26Z</time>
      </trkpt>
      <trkpt lat="50.35786" lon="3.26366">
        <ele>27.1</ele>
        <time>2023-01-22T10:20:27Z</time>
      </trkpt>
      <trkpt lat="50.35786" lon="3.26366">
        <ele>27.1</ele>
        <time>2023-01-22T10:20:28Z</time>
      </trkpt>
      <trkpt lat="50.35786" lon="3.26366">
        <ele>27.1</ele>
        <time>2023-01-22T10:20:29Z</time>
      </trkpt>
      <trkpt lat="50.35786" lon="3.26366">
        <ele>18.99516</ele>
        <time>2023-01-22T10:20:30Z</time>
      </trkpt>
      <trkpt lat="50.35786" lon="3.26366">
        <ele>27.1</ele>
        <time>2023-01-22T10:20:31Z</time>
      </trkpt>
      <trkpt lat="50.35786" lon="3.26366">
        <ele>27.1</ele>
        <time>2023-01-22T10:20:32Z</time>
      </trkpt>
      <trkpt lat="50.35786" lon="3.26366">
        <ele>27.1</ele>
        <time>2023-01-22T10:20:33Z</time>
      </trkpt>
      <trkpt lat="50.35786" lon="3.26366">
        <ele>27.1</ele>
        <time>2023-01-22T10:20:34Z</time>
      </trkpt>
      <trkpt lat="50.35786" lon="3.26365">
        <ele>27.1</ele>
        <time>2023-01-22T10:20:35Z</time>
      </trkpt>
      <trkpt lat="50.35787" lon="3.26365">
        <ele>27.1</ele>
        <time>2023-01-22T10:20:36Z</time>
      </trkpt>
      <trkpt lat="50.35786" lon="3.26365">
        <ele>27.1</ele>
        <time>2023-01-22T10:20:37Z</time>
      </trkpt>
      <trkpt lat="50.35786" lon="3.26366">
        <ele>27.1</ele>
        <time>2023-01-22T10:20:38Z</time>
      </trkpt>
      <trkpt lat="50.35786" lon="3.26365">
        <ele>27.1</ele>
        <time>2023-01-22T10:20:39Z</time>
        <extensions>
          <gpxtpx:TrackPointExtension xmlns:gpxtpx="http://www.garmin.com/xmlschemas/TrackPointExtension/v1">
            <gpxtpx:hr>130</gpxtpx:hr>
          </gpxtpx:TrackPointExtension>
        </extensions>
      </trkpt>
      <trkpt lat="50.35787" lon="3.26366">
        <ele>18.861423</ele>
        <time>2023-01-22T10:20:40Z</time>
      </trkpt>
      <trkpt lat="50.35787" lon="3.26366">
        <ele>27.1</ele>
        <time>2023-01-22T10:20:41Z</time>
      </trkpt>
      <trkpt lat="50.35787" lon="3.26366">
        <ele>27.1</ele>
        <time>2023-01-22T10:20:42Z</time>
      </trkpt>
      <trkpt lat="50.35787" lon="3.26366">
        <ele>27.1</ele>
        <time>2023-01-22T10:20:43Z</time>
      </trkpt>
      <trkpt lat="50.35787" lon="3.26366">
        <ele>27.1</ele>
        <time>2023-01-22T10:20:44Z</time>
      </trkpt>
      <trkpt lat="50.35787" lon="3.26366">
        <ele>27.1</ele>
        <time>2023-01-22T10:20:45Z</time>
      </trkpt>
      <trkpt lat="50.35787" lon="3.26366">
        <ele>27.1</ele>
        <time>2023-01-22T10:20:46Z</time>
      </trkpt>
      <trkpt lat="50.35787" lon="3.26366">
        <ele>27.1</ele>
        <time>2023-01-22T10:20:47Z</time>
      </trkpt>
      <trkpt lat="50.35787" lon="3.26367">
        <ele>27.1</ele>
        <time>2023-01-22T10:20:48Z</time>
      </trkpt>
      <trkpt lat="50.35787" lon="3.26367">
        <ele>27.1</ele>
        <time>2023-01-22T10:20:49Z</time>
      </trkpt>
      <trkpt lat="50.35787" lon="3.26367">
        <ele>18.886084</ele>
        <time>2023-01-22T10:20:50Z</time>
      </trkpt>
      <trkpt lat="50.35787" lon="3.26367">
        <ele>27.1</ele>
        <time>2023-01-22T10:20:51Z</time>
      </trkpt>
      <trkpt lat="50.35787" lon="3.26367">
        <ele>27.1</ele>
        <time>2023-01-22T10:20:52Z</time>
      </trkpt>
      <trkpt lat="50.35787" lon="3.26367">
        <ele>27.1</ele>
        <time>2023-01-22T10:20:53Z</time>
      </trkpt>
      <trkpt lat="50.35787" lon="3.26367">
        <ele>27.1</ele>
        <time>2023-01-22T10:20:54Z</time>
      </trkpt>
      <trkpt lat="50.35787" lon="3.26367">
        <ele>27.1</ele>
        <time>2023-01-22T10:20:55Z</time>
      </trkpt>
      <trkpt lat="50.35787" lon="3.26366">
        <ele>27.1</ele>
        <time>2023-01-22T10:20:56Z</time>
      </trkpt>
      <trkpt lat="50.35787" lon="3.26366">
        <ele>27.1</ele>
        <time>2023-01-22T10:20:57Z</time>
      </trkpt>
      <trkpt lat="50.35787" lon="3.26366">
        <ele>27.1</ele>
        <time>2023-01-22T10:20:58Z</time>
      </trkpt>
      <trkpt lat="50.35787" lon="3.26366">
        <ele>27.1</ele>
        <time>2023-01-22T10:20:59Z</time>
        <extensions>
          <gpxtpx:TrackPointExtension xmlns:gpxtpx="http://www.garmin.com/xmlschemas/TrackPointExtension/v1">
            <gpxtpx:hr>120</gpxtpx:hr>
          </gpxtpx:TrackPointExtension>
        </extensions>
      </trkpt>
      <trkpt lat="50.35786" lon="3.26366">
        <ele>18.719152</ele>
        <time>2023-01-22T10:21:00Z</time>
      </trkpt>
      <trkpt lat="50.35786" lon="3.26366">
        <ele>27.1</ele>
        <time>2023-01-22T10:21:01Z</time>
      </trkpt>
      <trkpt lat="50.35786" lon="3.26367">
        <ele>27.1</ele>
        <time>2023-01-22T10:21:02Z</time>
      </trkpt>
      <trkpt lat="50.35786" lon="3.26367">
        <ele>27.1</ele>
        <time>2023-01-22T10:21:03Z</time>
      </trkpt>
      <trkpt lat="50.35786" lon="3.26367">
        <ele>27.1</ele>
        <time>2023-01-22T10:21:04Z</time>
      </trkpt>
      <trkpt lat="50.35785" lon="3.26367">
        <ele>27.2</ele>
        <time>2023-01-22T10:21:05Z</time>
      </trkpt>
      <trkpt lat="50.35785" lon="3.26367">
        <ele>27.2</ele>
        <time>2023-01-22T10:21:06Z</time>
      </trkpt>
      <trkpt lat="50.35785" lon="3.26367">
        <ele>27.2</ele>
        <time>2023-01-22T10:21:07Z</time>
      </trkpt>
      <trkpt lat="50.35785" lon="3.26367">
        <ele>27.2</ele>
        <time>2023-01-22T10:21:08Z</time>
      </trkpt>
      <trkpt lat="50.35785" lon="3.26367">
        <ele>27.2</ele>
        <time>2023-01-22T10:21:09Z</time>
      </trkpt>
      <trkpt lat="50.35785" lon="3.26367">
        <ele>18.927818</ele>
        <time>2023-01-22T10:21:10Z</time>
      </trkpt>
      <trkpt lat="50.35785" lon="3.26368">
        <ele>27.2</ele>
        <time>2023-01-22T10:21:11Z</time>
      </trkpt>
      <trkpt lat="50.35785" lon="3.26368">
        <ele>27.2</ele>
        <time>2023-01-22T10:21:12Z</time>
      </trkpt>
      <trkpt lat="50.35785" lon="3.26368">
        <ele>27.2</ele>
        <time>2023-01-22T10:21:13Z</time>
      </trkpt>
      <trkpt lat="50.35785" lon="3.26368">
        <ele>27.2</ele>
        <time>2023-01-22T10:21:14Z</time>
      </trkpt>
      <trkpt lat="50.35784" lon="3.26368">
        <ele>27.2</ele>
        <time>2023-01-22T10:21:15Z</time>
      </trkpt>
      <trkpt lat="50.35784" lon="3.26369">
        <ele>27.2</ele>
        <time>2023-01-22T10:21:16Z</time>
      </trkpt>
      <trkpt lat="50.35782" lon="3.2637">
        <ele>27.3</ele>
        <time>2023-01-22T10:21:17Z</time>
      </trkpt>
      <trkpt lat="50.3578" lon="3.26371">
        <ele>27.3</ele>
        <time>2023-01-22T10:21:18Z</time>
      </trkpt>
      <trkpt lat="50.35778" lon="3.26372">
        <ele>27.4</ele>
        <time>2023-01-22T10:21:19Z</time>
        <extensions>
          <gpxtpx:TrackPointExtension xmlns:gpxtpx="http://www.garmin.com/xmlschemas/TrackPointExtension/v1">
            <gpxtpx:hr>115</gpxtpx:hr>
          </gpxtpx:TrackPointExtension>
        </extensions>
      </trkpt>
      <trkpt lat="50.35777" lon="3.26373">
        <ele>19.148815</ele>
        <time>2023-01-22T10:21:20Z</time>
      </trkpt>
      <trkpt lat="50.35776" lon="3.26375">
        <ele>27.5</ele>
        <time>2023-01-22T10:21:21Z</time>
      </trkpt>
      <trkpt lat="50.35775" lon="3.26376">
        <ele>27.5</ele>
        <time>2023-01-22T10:21:22Z</time>
      </trkpt>
      <trkpt lat="50.35774" lon="3.26377">
        <ele>27.6</ele>
        <time>2023-01-22T10:21:23Z</time>
      </trkpt>
      <trkpt lat="50.35773" lon="3.26378">
        <ele>27.6</ele>
        <time>2023-01-22T10:21:24Z</time>
      </trkpt>
      <trkpt lat="50.35772" lon="3.26379">
        <ele>27.7</ele>
        <time>2023-01-22T10:21:25Z</time>
      </trkpt>
      <trkpt lat="50.3577" lon="3.26381">
        <ele>27.8</ele>
        <time>2023-01-22T10:21:26Z</time>
      </trkpt>
      <trkpt lat="50.35769" lon="3.26382">
        <ele>27.9</ele>
        <time>2023-01-22T10:21:27Z</time>
      </trkpt>
      <trkpt lat="50.35767" lon="3.26383">
        <ele>28</ele>
        <time>2023-01-22T10:21:28Z</time>
      </trkpt>
      <trkpt lat="50.35766" lon="3.26384">
        <ele>28.1</ele>
        <time>2023-01-22T10:21:29Z</time>
      </trkpt>
      <trkpt lat="50.35765" lon="3.26385">
        <ele>19.542444</ele>
        <time>2023-01-22T10:21:30Z</time>
      </trkpt>
      <trkpt lat="50.35764" lon="3.26386">
        <ele>28.3</ele>
        <time>2023-01-22T10:21:31Z</time>
      </trkpt>
      <trkpt lat="50.35762" lon="3.26386">
        <ele>28.3</ele>
        <time>2023-01-22T10:21:32Z</time>
      </trkpt>
      <trkpt lat="50.35761" lon="3.26388">
        <ele>28.5</ele>
        <time>2023-01-22T10:21:33Z</time>
      </trkpt>
      <trkpt lat="50.3576" lon="3.26388">
        <ele>28.6</ele>
        <time>2023-01-22T10:21:34Z</time>
      </trkpt>
      <trkpt lat="50.35759" lon="3.26389">
        <ele>28.7</ele>
        <time>2023-01-22T10:21:35Z</time>
      </trkpt>
      <trkpt lat="50.35758" lon="3.2639">
        <ele>28.7</ele>
        <time>2023-01-22T10:21:36Z</time>
      </trkpt>
      <trkpt lat="50.35757" lon="3.26391">
        <ele>28.7</ele>
        <time>2023-01-22T10:21:37Z</time>
      </trkpt>
      <trkpt lat="50.35755" lon="3.26392">
        <ele>28.8</ele>
        <time>2023-01-22T10:21:38Z</time>
      </trkpt>
      <trkpt lat="50.35753" lon="3.26392">
        <ele>28.9</ele>
        <time>2023-01-22T10:21:39Z</time>
        <extensions>
          <gpxtpx:TrackPointExtension xmlns:gpxtpx="http://www.garmin.com/xmlschemas/TrackPointExtension/v1">
            <gpxtpx:hr>115</gpxtpx:hr>
          </gpxtpx:TrackPointExtension>
        </extensions>
      </trkpt>
      <trkpt lat="50.35753" lon="3.26393">
        <ele>20.003426</ele>
        <time>2023-01-22T10:21:40Z</time>
      </trkpt>
      <trkpt lat="50.35751" lon="3.26394">
        <ele>29</ele>
        <time>2023-01-22T10:21:41Z</time>
      </trkpt>
      <trkpt lat="50.3575" lon="3.26394">
        <ele>29</ele>
        <time>2023-01-22T10:21:42Z</time>
      </trkpt>
      <trkpt lat="50.35748" lon="3.26395">
        <ele>29</ele>
        <time>2023-01-22T10:21:43Z</time>
      </trkpt>
      <trkpt lat="50.35747" lon="3.26395">
        <ele>29</ele>
        <time>2023-01-22T10:21:44Z</time>
      </trkpt>
      <trkpt lat="50.35746" lon="3.26395">
        <ele>29</ele>
        <time>2023-01-22T10:21:45Z</time>
      </trkpt>
      <trkpt lat="50.35745" lon="3.26395">
        <ele>29</ele>
        <time>2023-01-22T10:21:46Z</time>
      </trkpt>
      <trkpt lat="50.35743" lon="3.26395">
        <ele>28.9</ele>
        <time>2023-01-22T10:21:47Z</time>
      </trkpt>
      <trkpt lat="50.35742" lon="3.26395">
        <ele>28.9</ele>
        <time>2023-01-22T10:21:48Z</time>
      </trkpt>
      <trkpt lat="50.3574" lon="3.26396">
        <ele>28.9</ele>
        <time>2023-01-22T10:21:49Z</time>
      </trkpt>
      <trkpt lat="50.35739" lon="3.26397">
        <ele>20.289885</ele>
        <time>2023-01-22T10:21:50Z</time>
      </trkpt>
      <trkpt lat="50.35738" lon="3.26398">
        <ele>28.9</ele>
        <time>2023-01-22T10:21:51Z</time>
      </trkpt>
      <trkpt lat="50.35736" lon="3.26398">
        <ele>28.8</ele>
        <time>2023-01-22T10:21:52Z</time>
      </trkpt>
      <trkpt lat="50.35735" lon="3.26398">
        <ele>28.8</ele>
        <time>2023-01-22T10:21:53Z</time>
      </trkpt>
      <trkpt lat="50.35733" lon="3.26399">
        <ele>28.8</ele>
        <time>2023-01-22T10:21:54Z</time>
      </trkpt>
      <trkpt lat="50.35732" lon="3.26399">
        <ele>28.8</ele>
        <time>2023-01-22T10:21:55Z</time>
      </trkpt>
      <trkpt lat="50.35731" lon="3.26399">
        <ele>28.7</ele>
        <time>2023-01-22T10:21:56Z</time>
      </trkpt>
      <trkpt lat="50.3573" lon="3.26399">
        <ele>28.7</ele>
        <time>2023-01-22T10:21:57Z</time>
      </trkpt>
      <trkpt lat="50.35729" lon="3.26399">
        <ele>28.7</ele>
        <time>2023-01-22T10:21:58Z</time>
      </trkpt>
      <trkpt lat="50.35727" lon="3.26399">
        <ele>28.7</ele>
        <time>2023-01-22T10:21:59Z</time>
        <extensions>
          <gpxtpx:TrackPointExtension xmlns:gpxtpx="http://www.garmin.com/xmlschemas/TrackPointExtension/v1">
            <gpxtpx:hr>124</gpxtpx:hr>
          </gpxtpx:TrackPointExtension>
        </extensions>
      </trkpt>
      <trkpt lat="50.35726" lon="3.264">
        <ele>20.9055</ele>
        <time>2023-01-22T10:22:00Z</time>
      </trkpt>
      <trkpt lat="50.35725" lon="3.264">
        <ele>28.6</ele>
        <time>2023-01-22T10:22:01Z</time>
      </trkpt>
      <trkpt lat="50.35725" lon="3.264">
        <ele>28.6</ele>
        <time>2023-01-22T10:22:02Z</time>
      </trkpt>
      <trkpt lat="50.35724" lon="3.264">
        <ele>28.6</ele>
        <time>2023-01-22T10:22:03Z</time>
      </trkpt>
      <trkpt lat="50.35722" lon="3.264">
        <ele>28.6</ele>
        <time>2023-01-22T10:22:04Z</time>
      </trkpt>
      <trkpt lat="50.35721" lon="3.26399">
        <ele>28.7</ele>
        <time>2023-01-22T10:22:05Z</time>
      </trkpt>
      <trkpt lat="50.3572" lon="3.26399">
        <ele>28.7</ele>
        <time>2023-01-22T10:22:06Z</time>
      </trkpt>
      <trkpt lat="50.35719" lon="3.26398">
        <ele>28.8</ele>
        <time>2023-01-22T10:22:07Z</time>
      </trkpt>
      <trkpt lat="50.35718" lon="3.26398">
        <ele>28.8</ele>
        <time>2023-01-22T10:22:08Z</time>
      </trkpt>
      <trkpt lat="50.35717" lon="3.26397">
        <ele>28.9</ele>
        <time>2023-01-22T10:22:09Z</time>
      </trkpt>
      <trkpt lat="50.35717" lon="3.26397">
        <ele>21.267859</ele>
        <time>2023-01-22T10:22:10Z</time>
      </trkpt>
      <trkpt lat="50.35716" lon="3.26396">
        <ele>28.9</ele>
        <time>2023-01-22T10:22:11Z</time>
      </trkpt>
      <trkpt lat="50.35716" lon="3.26397">
        <ele>29</ele>
        <time>2023-01-22T10:22:12Z</time>
      </trkpt>
      <trkpt lat="50.35714" lon="3.26396">
        <ele>29</ele>
        <time>2023-01-22T10:22:13Z</time>
      </trkpt>
      <trkpt lat="50.35714" lon="3.26396">
        <ele>29.1</ele>
        <time>2023-01-22T10:22:14Z</time>
      </trkpt>
      <trkpt lat="50.35712" lon="3.26396">
        <ele>29.1</ele>
        <time>2023-01-22T10:22:15Z</time>
      </trkpt>
      <trkpt lat="50.3571" lon="3.26395">
        <ele>29.2</ele>
        <time>2023-01-22T10:22:16Z</time>
      </trkpt>
      <trkpt lat="50.35708" lon="3.26395">
        <ele>29.3</ele>
        <time>2023-01-22T10:22:17Z</time>
      </trkpt>
      <trkpt lat="50.35707" lon="3.26395">
        <ele>29.3</ele>
        <time>2023-01-22T10:22:18Z</time>
      </trkpt>
      <trkpt lat="50.35706" lon="3.26394">
        <ele>29.4</ele>
        <time>2023-01-22T10:22:19Z</time>
        <extensions>
          <gpxtpx:TrackPointExtension xmlns:gpxtpx="http://www.garmin.com/xmlschemas/TrackPointExtension/v1">
            <gpxtpx:hr>129</gpxtpx:hr>
          </gpxtpx:TrackPointExtension>
        </extensions>
      </trkpt>
      <trkpt lat="50.35704" lon="3.26393">
        <ele>21.980263</ele>
        <time>2023-01-22T10:22:20Z</time>
      </trkpt>
      <trkpt lat="50.35703" lon="3.26393">
        <ele>29.6</ele>
        <time>2023-01-22T10:22:21Z</time>
      </trkpt>
      <trkpt lat="50.35701" lon="3.26393">
        <ele>29.6</ele>
        <time>2023-01-22T10:22:22Z</time>
      </trkpt>
      <trkpt lat="50.357" lon="3.26393">
        <ele>29.7</ele>
        <time>2023-01-22T10:22:23Z</time>
      </trkpt>
      <trkpt lat="50.35698" lon="3.26393">
        <ele>29.7</ele>
        <time>2023-01-22T10:22:24Z</time>
      </trkpt>
      <trkpt lat="50.35696" lon="3.26392">
        <ele>29.8</ele>
        <time>2023-01-22T10:22:25Z</time>
      </trkpt>
      <trkpt lat="50.35695" lon="3.26392">
        <ele>29.9</ele>
        <time>2023-01-22T10:22:26Z</time>
      </trkpt>
      <trkpt lat="50.35694" lon="3.26392">
        <ele>29.9</ele>
        <time>2023-01-22T10:22:27Z</time>
      </trkpt>
      <trkpt lat="50.35692" lon="3.26393">
        <ele>29.9</ele>
        <time>2023-01-22T10:22:28Z</time>
      </trkpt>
      <trkpt lat="50.35691" lon="3.26393">
        <ele>30</ele>
        <time>2023-01-22T10:22:29Z</time>
      </trkpt>
      <trkpt lat="50.3569" lon="3.26393">
        <ele>22.308487</ele>
        <time>2023-01-22T10:22:30Z</time>
      </trkpt>
      <trkpt lat="50.35688" lon="3.26393">
        <ele>30</ele>
        <time>2023-01-22T10:22:31Z</time>
      </trkpt>
      <trkpt lat="50.35687" lon="3.26393">
        <ele>30.1</ele>
        <time>2023-01-22T10:22:32Z</time>
      </trkpt>
      <trkpt lat="50.35685" lon="3.26392">
        <ele>30.1</ele>
        <time>2023-01-22T10:22:33Z</time>
      </trkpt>
      <trkpt lat="50.35683" lon="3.26392">
        <ele>30.2</ele>
        <time>2023-01-22T10:22:34Z</time>
      </trkpt>
      <trkpt lat="50.35682" lon="3.26392">
        <ele>30.3</ele>
        <time>2023-01-22T10:22:35Z</time>
      </trkpt>
      <trkpt lat="50.35681" lon="3.26391">
        <ele>30.3</ele>
        <time>2023-01-22T10:22:36Z</time>
      </trkpt>
      <trkpt lat="50.35679" lon="3.26391">
        <ele>30.4</ele>
        <time>2023-01-22T10:22:37Z</time>
      </trkpt>
      <trkpt lat="50.35678" lon="3.26391">
        <ele>30.4</ele>
        <time>2023-01-22T10:22:38Z</time>
      </trkpt>
      <trkpt lat="50.35676" lon="3.26391">
        <ele>30.5</ele>
        <time>2023-01-22T10:22:39Z</time>
        <extensions>
          <gpxtpx:TrackPointExtension xmlns:gpxtpx="http://www.garmin.com/xmlschemas/TrackPointExtension/v1">
            <gpxtpx:hr>130</gpxtpx:hr>
          </gpxtpx:TrackPointExtension>
        </extensions>
      </trkpt>
      <trkpt lat="50.35675" lon="3.26391">
        <ele>22.759094</ele>
        <time>2023-01-22T10:22:40Z</time>
      </trkpt>
      <trkpt lat="50.35674" lon="3.26391">
        <ele>30.5</ele>
        <time>2023-01-22T10:22:41Z</time>
      </trkpt>
      <trkpt lat="50.35673" lon="3.26391">
        <ele>30.6</ele>
        <time>2023-01-22T10:22:42Z</time>
      </trkpt>
      <trkpt lat="50.35671" lon="3.26391">
        <ele>30.7</ele>
        <time>2023-01-22T10:22:43Z</time>
      </trkpt>
      <trkpt lat="50.3567" lon="3.26391">
        <ele>30.7</ele>
        <time>2023-01-22T10:22:44Z</time>
      </trkpt>
      <trkpt lat="50.35669" lon="3.2639">
        <ele>30.8</ele>
        <time>2023-01-22T10:22:45Z</time>
      </trkpt>
      <trkpt lat="50.35667" lon="3.2639">
        <ele>30.8</ele>
        <time>2023-01-22T10:22:46Z</time>
      </trkpt>
      <trkpt lat="50.35667" lon="3.26389">
        <ele>31</ele>
        <time>2023-01-22T10:22:47Z</time>
      </trkpt>
      <trkpt lat="50.35665" lon="3.26389">
        <ele>31</ele>
        <time>2023-01-22T10:22:48Z</time>
      </trkpt>
      <trkpt lat="50.35663" lon="3.26389">
        <ele>31.1</ele>
        <time>2023-01-22T10:22:49Z</time>
      </trkpt>
      <trkpt lat="50.35662" lon="3.26389">
        <ele>23.39755</ele>
        <time>2023-01-22T10:22:50Z</time>
      </trkpt>
      <trkpt lat="50.35661" lon="3.26389">
        <ele>31.2</ele>
        <time>2023-01-22T10:22:51Z</time>
      </trkpt>
      <trkpt lat="50.3566" lon="3.26388">
        <ele>31.2</ele>
        <time>2023-01-22T10:22:52Z</time>
      </trkpt>
      <trkpt lat="50.35658" lon="3.26388">
        <ele>31.2</ele>
        <time>2023-01-22T10:22:53Z</time>
      </trkpt>
      <trkpt lat="50.35657" lon="3.26388">
        <ele>31.3</ele>
        <time>2023-01-22T10:22:54Z</time>
      </trkpt>
      <trkpt lat="50.35656" lon="3.26389">
        <ele>31.3</ele>
        <time>2023-01-22T10:22:55Z</time>
      </trkpt>
      <trkpt lat="50.35655" lon="3.26388">
        <ele>31.3</ele>
        <time>2023-01-22T10:22:56Z</time>
      </trkpt>
      <trkpt lat="50.35654" lon="3.26388">
        <ele>31.3</ele>
        <time>2023-01-22T10:22:57Z</time>
      </trkpt>
      <trkpt lat="50.35653" lon="3.26388">
        <ele>31.4</ele>
        <time>2023-01-22T10:22:58Z</time>
      </trkpt>
      <trkpt lat="50.35651" lon="3.26387">
        <ele>31.4</ele>
        <time>2023-01-22T10:22:59Z</time>
        <extensions>
          <gpxtpx:TrackPointExtension xmlns:gpxtpx="http://www.garmin.com/xmlschemas/TrackPointExtension/v1">
            <gpxtpx:hr>142</gpxtpx:hr>
          </gpxtpx:TrackPointExtension>
        </extensions>
      </trkpt>
      <trkpt lat="50.3565" lon="3.26387">
        <ele>23.763746</ele>
        <time>2023-01-22T10:23:00Z</time>
      </trkpt>
      <trkpt lat="50.35648" lon="3.26387">
        <ele>31.4</ele>
        <time>2023-01-22T10:23:01Z</time>
      </trkpt>
      <trkpt lat="50.35647" lon="3.26386">
        <ele>31.4</ele>
        <time>2023-01-22T10:23:02Z</time>
      </trkpt>
      <trkpt lat="50.35645" lon="3.26386">
        <ele>31.4</ele>
        <time>2023-01-22T10:23:03Z</time>
      </trkpt>
      <trkpt lat="50.35644" lon="3.26387">
        <ele>31.5</ele>
        <time>2023-01-22T10:23:04Z</time>
      </trkpt>
      <trkpt lat="50.35643" lon="3.26387">
        <ele>31.5</ele>
        <time>2023-01-22T10:23:05Z</time>
      </trkpt>
      <trkpt lat="50.35642" lon="3.26387">
        <ele>31.6</ele>
        <time>2023-01-22T10:23:06Z</time>
      </trkpt>
      <trkpt lat="50.3564" lon="3.26386">
        <ele>31.6</ele>
        <time>2023-01-22T10:23:07Z</time>
      </trkpt>
      <trkpt lat="50.35638" lon="3.26386">
        <ele>31.6</ele>
        <time>2023-01-22T10:23:08Z</time>
      </trkpt>
      <trkpt lat="50.35637" lon="3.26386">
        <ele>31.6</ele>
        <time>2023-01-22T10:23:09Z</time>
      </trkpt>
      <trkpt lat="50.35636" lon="3.26386">
        <ele>24.18877</ele>
        <time>2023-01-22T10:23:10Z</time>
      </trkpt>
      <trkpt lat="50.35635" lon="3.26386">
        <ele>31.8</ele>
        <time>2023-01-22T10:23:11Z</time>
      </trkpt>
      <trkpt lat="50.35633" lon="3.26386">
        <ele>31.8</ele>
        <time>2023-01-22T10:23:12Z</time>
      </trkpt>
      <trkpt lat="50.35631" lon="3.26385">
        <ele>31.8</ele>
        <time>2023-01-22T10:23:13Z</time>
      </trkpt>
      <trkpt lat="50.3563" lon="3.26385">
        <ele>31.8</ele>
        <time>2023-01-22T10:23:14Z</time>
      </trkpt>
      <trkpt lat="50.35629" lon="3.26385">
        <ele>31.8</ele>
        <time>2023-01-22T10:23:15Z</time>
      </trkpt>
      <trkpt lat="50.35627" lon="3.26385">
        <ele>31.9</ele>
        <time>2023-01-22T10:23:16Z</time>
      </trkpt>
      <trkpt lat="50.35626" lon="3.26386">
        <ele>32</ele>
        <time>2023-01-22T10:23:17Z</time>
      </trkpt>
      <trkpt lat="50.35624" lon="3.26386">
        <ele>32.1</ele>
        <time>2023-01-22T10:23:18Z</time>
      </trkpt>
      <trkpt lat="50.35623" lon="3.26386">
        <ele>32.1</ele>
        <time>2023-01-22T10:23:19Z</time>
        <extensions>
          <gpxtpx:TrackPointExtension xmlns:gpxtpx="http://www.garmin.com/xmlschemas/TrackPointExtension/v1">
            <gpxtpx:hr>145</gpxtpx:hr>
          </gpxtpx:TrackPointExtension>
        </extensions>
      </trkpt>
      <trkpt lat="50.35622" lon="3.26385">
        <ele>24.684008</ele>
        <time>2023-01-22T10:23:20Z</time>
      </trkpt>
      <trkpt lat="50.35621" lon="3.26385">
        <ele>32.1</ele>
        <time>2023-01-22T10:23:21Z</time>
      </trkpt>
      <trkpt lat="50.3562" lon="3.26385">
        <ele>32.1</ele>
        <time>2023-01-22T10:23:22Z</time>
      </trkpt>
      <trkpt lat="50.35619" lon="3.26384">
        <ele>32.1</ele>
        <time>2023-01-22T10:23:23Z</time>
      </trkpt>
      <trkpt lat="50.35617" lon="3.26384">
        <ele>32.1</ele>
        <time>2023-01-22T10:23:24Z</time>
      </trkpt>
      <trkpt lat="50.35616" lon="3.26384">
        <ele>32.1</ele>
        <time>2023-01-22T10:23:25Z</time>
      </trkpt>
      <trkpt lat="50.35615" lon="3.26384">
        <ele>32.2</ele>
        <time>2023-01-22T10:23:26Z</time>
      </trkpt>
      <trkpt lat="50.35613" lon="3.26384">
        <ele>32.2</ele>
        <time>2023-01-22T10:23:27Z</time>
      </trkpt>
      <trkpt lat="50.35613" lon="3.26385">
        <ele>32.4</ele>
        <time>2023-01-22T10:23:28Z</time>
      </trkpt>
      <trkpt lat="50.35611" lon="3.26385">
        <ele>32.4</ele>
        <time>2023-01-22T10:23:29Z</time>
      </trkpt>
      <trkpt lat="50.3561" lon="3.26385">
        <ele>25.24662</ele>
        <time>2023-01-22T10:23:30Z</time>
      </trkpt>
      <trkpt lat="50.35609" lon="3.26385">
        <ele>32.4</ele>
        <time>2023-01-22T10:23:31Z</time>
      </trkpt>
      <trkpt lat="50.35608" lon="3.26384">
        <ele>32.3</ele>
        <time>2023-01-22T10:23:32Z</time>
      </trkpt>
      <trkpt lat="50.35606" lon="3.26383">
        <ele>32.1</ele>
        <time>2023-01-22T10:23:33Z</time>
      </trkpt>
      <trkpt lat="50.35605" lon="3.26383">
        <ele>32.1</ele>
        <time>2023-01-22T10:23:34Z</time>
      </trkpt>
      <trkpt lat="50.35604" lon="3.26384">
        <ele>32.1</ele>
        <time>2023-01-22T10:23:35Z</time>
      </trkpt>
      <trkpt lat="50.35602" lon="3.26384">
        <ele>32.1</ele>
        <time>2023-01-22T10:23:36Z</time>
      </trkpt>
      <trkpt lat="50.356" lon="3.26385">
        <ele>32.1</ele>
        <time>2023-01-22T10:23:37Z</time>
      </trkpt>
      <trkpt lat="50.356" lon="3.26385">
        <ele>32.2</ele>
        <time>2023-01-22T10:23:38Z</time>
      </trkpt>
      <trkpt lat="50.35599" lon="3.26385">
        <ele>32.2</ele>
        <time>2023-01-22T10:23:39Z</time>
        <extensions>
          <gpxtpx:TrackPointExtension xmlns:gpxtpx="http://www.garmin.com/xmlschemas/TrackPointExtension/v1">
            <gpxtpx:hr>147</gpxtpx:hr>
          </gpxtpx:TrackPointExtension>
        </extensions>
      </trkpt>
      <trkpt lat="50.35597" lon="3.26386">
        <ele>25.799759</ele>
        <time>2023-01-22T10:23:40Z</time>
      </trkpt>
      <trkpt lat="50.35596" lon="3.26386">
        <ele>32.1</ele>
        <time>2023-01-22T10:23:41Z</time>
      </trkpt>
      <trkpt lat="50.35595" lon="3.26386">
        <ele>32.1</ele>
        <time>2023-01-22T10:23:42Z</time>
      </trkpt>
      <trkpt lat="50.35594" lon="3.26386">
        <ele>32.1</ele>
        <time>2023-01-22T10:23:43Z</time>
      </trkpt>
      <trkpt lat="50.35593" lon="3.26386">
        <ele>32</ele>
        <time>2023-01-22T10:23:44Z</time>
      </trkpt>
      <trkpt lat="50.35592" lon="3.26385">
        <ele>31.9</ele>
        <time>2023-01-22T10:23:45Z</time>
      </trkpt>
      <trkpt lat="50.35591" lon="3.26385">
        <ele>31.9</ele>
        <time>2023-01-22T10:23:46Z</time>
      </trkpt>
      <trkpt lat="50.3559" lon="3.26385">
        <ele>31.9</ele>
        <time>2023-01-22T10:23:47Z</time>
      </trkpt>
      <trkpt lat="50.35588" lon="3.26385">
        <ele>31.8</ele>
        <time>2023-01-22T10:23:48Z</time>
      </trkpt>
      <trkpt lat="50.35587" lon="3.26384">
        <ele>31.7</ele>
        <time>2023-01-22T10:23:49Z</time>
      </trkpt>
      <trkpt lat="50.35585" lon="3.26384">
        <ele>26.285547</ele>
        <time>2023-01-22T10:23:50Z</time>
      </trkpt>
      <trkpt lat="50.35584" lon="3.26383">
        <ele>31.6</ele>
        <time>2023-01-22T10:23:51Z</time>
      </trkpt>
      <trkpt lat="50.35582" lon="3.26383">
        <ele>31.7</ele>
        <time>2023-01-22T10:23:52Z</time>
      </trkpt>
      <trkpt lat="50.3558" lon="3.26382">
        <ele>31.8</ele>
        <time>2023-01-22T10:23:53Z</time>
      </trkpt>
      <trkpt lat="50.35579" lon="3.26382">
        <ele>32</ele>
        <time>2023-01-22T10:23:54Z</time>
      </trkpt>
      <trkpt lat="50.35578" lon="3.26382">
        <ele>32</ele>
        <time>2023-01-22T10:23:55Z</time>
      </trkpt>
      <trkpt lat="50.35576" lon="3.26382">
        <ele>32.2</ele>
        <time>2023-01-22T10:23:56Z</time>
      </trkpt>
      <trkpt lat="50.35575" lon="3.26381">
        <ele>32.3</ele>
        <time>2023-01-22T10:23:57Z</time>
      </trkpt>
      <trkpt lat="50.35574" lon="3.26381">
        <ele>32.3</ele>
        <time>2023-01-22T10:23:58Z</time>
      </trkpt>
      <trkpt lat="50.35572" lon="3.2638">
        <ele>32.4</ele>
        <time>2023-01-22T10:23:59Z</time>
        <extensions>
          <gpxtpx:TrackPointExtension xmlns:gpxtpx="http://www.garmin.com/xmlschemas/TrackPointExtension/v1">
            <gpxtpx:hr>154</gpxtpx:hr>
          </gpxtpx:TrackPointExtension>
        </extensions>
      </trkpt>
      <trkpt lat="50.35571" lon="3.2638">
        <ele>26.88331</ele>
        <time>2023-01-22T10:24:00Z</time>
      </trkpt>
      <trkpt lat="50.3557" lon="3.2638">
        <ele>32.7</ele>
        <time>2023-01-22T10:24:01Z</time>
      </trkpt>
      <trkpt lat="50.35569" lon="3.2638">
        <ele>32.8</ele>
        <time>2023-01-22T10:24:02Z</time>
      </trkpt>
      <trkpt lat="50.35568" lon="3.2638">
        <ele>32.8</ele>
        <time>2023-01-22T10:24:03Z</time>
      </trkpt>
      <trkpt lat="50.35566" lon="3.26379">
        <ele>32.9</ele>
        <time>2023-01-22T10:24:04Z</time>
      </trkpt>
      <trkpt lat="50.35564" lon="3.26379">
        <ele>33.1</ele>
        <time>2023-01-22T10:24:05Z</time>
      </trkpt>
      <trkpt lat="50.35563" lon="3.26379">
        <ele>33.2</ele>
        <time>2023-01-22T10:24:06Z</time>
      </trkpt>
      <trkpt lat="50.35561" lon="3.26379">
        <ele>33.3</ele>
        <time>2023-01-22T10:24:07Z</time>
      </trkpt>
      <trkpt lat="50.3556" lon="3.26378">
        <ele>33.4</ele>
        <time>2023-01-22T10:24:08Z</time>
      </trkpt>
      <trkpt lat="50.35558" lon="3.26378">
        <ele>33.6</ele>
        <time>2023-01-22T10:24:09Z</time>
      </trkpt>
      <trkpt lat="50.35557" lon="3.26378">
        <ele>27.016148</ele>
        <time>2023-01-22T10:24:10Z</time>
      </trkpt>
      <trkpt lat="50.35556" lon="3.26378">
        <ele>33.8</ele>
        <time>2023-01-22T10:24:11Z</time>
      </trkpt>
      <trkpt lat="50.35554" lon="3.26377">
        <ele>33.5</ele>
        <time>2023-01-22T10:24:12Z</time>
      </trkpt>
      <trkpt lat="50.35553" lon="3.26377">
        <ele>33.3</ele>
        <time>2023-01-22T10:24:13Z</time>
      </trkpt>
      <trkpt lat="50.35551" lon="3.26377">
        <ele>33</ele>
        <time>2023-01-22T10:24:14Z</time>
      </trkpt>
      <trkpt lat="50.3555" lon="3.26378">
        <ele>32.9</ele>
        <time>2023-01-22T10:24:15Z</time>
      </trkpt>
      <trkpt lat="50.35548" lon="3.26378">
        <ele>32.7</ele>
        <time>2023-01-22T10:24:16Z</time>
      </trkpt>
      <trkpt lat="50.35547" lon="3.26378">
        <ele>32.6</ele>
        <time>2023-01-22T10:24:17Z</time>
      </trkpt>
      <trkpt lat="50.35546" lon="3.26378">
        <ele>32.3</ele>
        <time>2023-01-22T10:24:18Z</time>
      </trkpt>
      <trkpt lat="50.35544" lon="3.26378">
        <ele>32.1</ele>
        <time>2023-01-22T10:24:19Z</time>
        <extensions>
          <gpxtpx:TrackPointExtension xmlns:gpxtpx="http://www.garmin.com/xmlschemas/TrackPointExtension/v1">
            <gpxtpx:hr>150</gpxtpx:hr>
          </gpxtpx:TrackPointExtension>
        </extensions>
      </trkpt>
      <trkpt lat="50.35543" lon="3.26378">
        <ele>27.48014</ele>
        <time>2023-01-22T10:24:20Z</time>
      </trkpt>
      <trkpt lat="50.35542" lon="3.26378">
        <ele>31.7</ele>
        <time>2023-01-22T10:24:21Z</time>
      </trkpt>
      <trkpt lat="50.3554" lon="3.26378">
        <ele>31.5</ele>
        <time>2023-01-22T10:24:22Z</time>
      </trkpt>
      <trkpt lat="50.35539" lon="3.26378">
        <ele>31.3</ele>
        <time>2023-01-22T10:24:23Z</time>
      </trkpt>
      <trkpt lat="50.35537" lon="3.26379">
        <ele>31.1</ele>
        <time>2023-01-22T10:24:24Z</time>
      </trkpt>
      <trkpt lat="50.35537" lon="3.26379">
        <ele>31</ele>
        <time>2023-01-22T10:24:25Z</time>
      </trkpt>
      <trkpt lat="50.35535" lon="3.26378">
        <ele>30.8</ele>
        <time>2023-01-22T10:24:26Z</time>
      </trkpt>
      <trkpt lat="50.35534" lon="3.26378">
        <ele>30.6</ele>
        <time>2023-01-22T10:24:27Z</time>
      </trkpt>
      <trkpt lat="50.35533" lon="3.26378">
        <ele>30.4</ele>
        <time>2023-01-22T10:24:28Z</time>
      </trkpt>
      <trkpt lat="50.35531" lon="3.26378">
        <ele>30.1</ele>
        <time>2023-01-22T10:24:29Z</time>
      </trkpt>
      <trkpt lat="50.35529" lon="3.26378">
        <ele>27.47919</ele>
        <time>2023-01-22T10:24:30Z</time>
      </trkpt>
      <trkpt lat="50.35527" lon="3.26378">
        <ele>29.6</ele>
        <time>2023-01-22T10:24:31Z</time>
      </trkpt>
      <trkpt lat="50.35527" lon="3.26378">
        <ele>29.6</ele>
        <time>2023-01-22T10:24:32Z</time>
      </trkpt>
      <trkpt lat="50.35526" lon="3.26378">
        <ele>29.6</ele>
        <time>2023-01-22T10:24:33Z</time>
      </trkpt>
      <trkpt lat="50.35524" lon="3.26378">
        <ele>29.6</ele>
        <time>2023-01-22T10:24:34Z</time>
      </trkpt>
      <trkpt lat="50.35523" lon="3.26378">
        <ele>29.6</ele>
        <time>2023-01-22T10:24:35Z</time>
      </trkpt>
      <trkpt lat="50.35521" lon="3.26378">
        <ele>29.6</ele>
        <time>2023-01-22T10:24:36Z</time>
      </trkpt>
      <trkpt lat="50.3552" lon="3.26378">
        <ele>29.6</ele>
        <time>2023-01-22T10:24:37Z</time>
      </trkpt>
      <trkpt lat="50.35518" lon="3.26378">
        <ele>29.6</ele>
        <time>2023-01-22T10:24:38Z</time>
      </trkpt>
      <trkpt lat="50.35517" lon="3.26378">
        <ele>29.6</ele>
        <time>2023-01-22T10:24:39Z</time>
      </trkpt>
      <trkpt lat="50.35516" lon="3.26378">
        <ele>27.462112</ele>
        <time>2023-01-22T10:24:40Z</time>
      </trkpt>
      <trkpt lat="50.35514" lon="3.26378">
        <ele>29.6</ele>
        <time>2023-01-22T10:24:41Z</time>
      </trkpt>
      <trkpt lat="50.35513" lon="3.26378">
        <ele>29.6</ele>
        <time>2023-01-22T10:24:42Z</time>
      </trkpt>
      <trkpt lat="50.35512" lon="3.26377">
        <ele>29.6</ele>
        <time>2023-01-22T10:24:43Z</time>
      </trkpt>
      <trkpt lat="50.3551" lon="3.26377">
        <ele>29.6</ele>
        <time>2023-01-22T10:24:44Z</time>
      </trkpt>
      <trkpt lat="50.35509" lon="3.26376">
        <ele>29.5</ele>
        <time>2023-01-22T10:24:45Z</time>
      </trkpt>
      <trkpt lat="50.35508" lon="3.26376">
        <ele>29.5</ele>
        <time>2023-01-22T10:24:46Z</time>
      </trkpt>
      <trkpt lat="50.35507" lon="3.26376">
        <ele>29.5</ele>
        <time>2023-01-22T10:24:47Z</time>
      </trkpt>
      <trkpt lat="50.35505" lon="3.26376">
        <ele>29.5</ele>
        <time>2023-01-22T10:24:48Z</time>
      </trkpt>
      <trkpt lat="50.35504" lon="3.26376">
        <ele>29.6</ele>
        <time>2023-01-22T10:24:49Z</time>
      </trkpt>
      <trkpt lat="50.35503" lon="3.26376">
        <ele>27.581669</ele>
        <time>2023-01-22T10:24:50Z</time>
      </trkpt>
      <trkpt lat="50.35502" lon="3.26375">
        <ele>29.5</ele>
        <time>2023-01-22T10:24:51Z</time>
      </trkpt>
      <trkpt lat="50.355" lon="3.26375">
        <ele>29.5</ele>
        <time>2023-01-22T10:24:52Z</time>
      </trkpt>
      <trkpt lat="50.35499" lon="3.26375">
        <ele>29.5</ele>
        <time>2023-01-22T10:24:53Z</time>
      </trkpt>
      <trkpt lat="50.35498" lon="3.26375">
        <ele>29.5</ele>
        <time>2023-01-22T10:24:54Z</time>
      </trkpt>
      <trkpt lat="50.35497" lon="3.26374">
        <ele>29.5</ele>
        <time>2023-01-22T10:24:55Z</time>
      </trkpt>
      <trkpt lat="50.35495" lon="3.26374">
        <ele>29.5</ele>
        <time>2023-01-22T10:24:56Z</time>
      </trkpt>
      <trkpt lat="50.35495" lon="3.26374">
        <ele>29.6</ele>
        <time>2023-01-22T10:24:57Z</time>
      </trkpt>
      <trkpt lat="50.35494" lon="3.26373">
        <ele>29.6</ele>
        <time>2023-01-22T10:24:58Z</time>
      </trkpt>
      <trkpt lat="50.35492" lon="3.26374">
        <ele>29.6</ele>
        <time>2023-01-22T10:24:59Z</time>
      </trkpt>
      <trkpt lat="50.35491" lon="3.26374">
        <ele>27.501015</ele>
        <time>2023-01-22T10:25:00Z</time>
      </trkpt>
      <trkpt lat="50.3549" lon="3.26374">
        <ele>29.7</ele>
        <time>2023-01-22T10:25:01Z</time>
      </trkpt>
      <trkpt lat="50.35489" lon="3.26373">
        <ele>29.7</ele>
        <time>2023-01-22T10:25:02Z</time>
      </trkpt>
      <trkpt lat="50.35488" lon="3.26373">
        <ele>29.7</ele>
        <time>2023-01-22T10:25:03Z</time>
      </trkpt>
      <trkpt lat="50.35486" lon="3.26373">
        <ele>29.7</ele>
        <time>2023-01-22T10:25:04Z</time>
      </trkpt>
      <trkpt lat="50.35485" lon="3.26372">
        <ele>29.7</ele>
        <time>2023-01-22T10:25:05Z</time>
      </trkpt>
      <trkpt lat="50.35484" lon="3.26373">
        <ele>29.8</ele>
        <time>2023-01-22T10:25:06Z</time>
      </trkpt>
      <trkpt lat="50.35483" lon="3.26373">
        <ele>29.8</ele>
        <time>2023-01-22T10:25:07Z</time>
      </trkpt>
      <trkpt lat="50.35482" lon="3.26372">
        <ele>29.8</ele>
        <time>2023-01-22T10:25:08Z</time>
      </trkpt>
      <trkpt lat="50.35481" lon="3.26372">
        <ele>29.8</ele>
        <time>2023-01-22T10:25:09Z</time>
      </trkpt>
      <trkpt lat="50.35479" lon="3.26371">
        <ele>27.579771</ele>
        <time>2023-01-22T10:25:10Z</time>
      </trkpt>
      <trkpt lat="50.35477" lon="3.26371">
        <ele>29.9</ele>
        <time>2023-01-22T10:25:11Z</time>
      </trkpt>
      <trkpt lat="50.35475" lon="3.2637">
        <ele>29.9</ele>
        <time>2023-01-22T10:25:12Z</time>
      </trkpt>
      <trkpt lat="50.35473" lon="3.2637">
        <ele>30</ele>
        <time>2023-01-22T10:25:13Z</time>
      </trkpt>
      <trkpt lat="50.35472" lon="3.26369">
        <ele>30</ele>
        <time>2023-01-22T10:25:14Z</time>
      </trkpt>
      <trkpt lat="50.3547" lon="3.2637">
        <ele>30</ele>
        <time>2023-01-22T10:25:15Z</time>
      </trkpt>
      <trkpt lat="50.35469" lon="3.2637">
        <ele>30</ele>
        <time>2023-01-22T10:25:16Z</time>
      </trkpt>
      <trkpt lat="50.35468" lon="3.2637">
        <ele>30</ele>
        <time>2023-01-22T10:25:17Z</time>
      </trkpt>
      <trkpt lat="50.35466" lon="3.26371">
        <ele>30</ele>
        <time>2023-01-22T10:25:18Z</time>
      </trkpt>
      <trkpt lat="50.35465" lon="3.26371">
        <ele>30</ele>
        <time>2023-01-22T10:25:19Z</time>
      </trkpt>
      <trkpt lat="50.35463" lon="3.2637">
        <ele>27.52094</ele>
        <time>2023-01-22T10:25:20Z</time>
      </trkpt>
      <trkpt lat="50.35462" lon="3.26371">
        <ele>30</ele>
        <time>2023-01-22T10:25:21Z</time>
      </trkpt>
      <trkpt lat="50.35461" lon="3.26371">
        <ele>30</ele>
        <time>2023-01-22T10:25:22Z</time>
      </trkpt>
      <trkpt lat="50.3546" lon="3.26371">
        <ele>30</ele>
        <time>2023-01-22T10:25:23Z</time>
      </trkpt>
      <trkpt lat="50.35459" lon="3.26371">
        <ele>30</ele>
        <time>2023-01-22T10:25:24Z</time>
      </trkpt>
      <trkpt lat="50.35458" lon="3.26371">
        <ele>30</ele>
        <time>2023-01-22T10:25:25Z</time>
      </trkpt>
      <trkpt lat="50.35457" lon="3.26371">
        <ele>30</ele>
        <time>2023-01-22T10:25:26Z</time>
      </trkpt>
      <trkpt lat="50.35456" lon="3.26371">
        <ele>30</ele>
        <time>2023-01-22T10:25:27Z</time>
      </trkpt>
      <trkpt lat="50.35455" lon="3.2637">
        <ele>30</ele>
        <time>2023-01-22T10:25:28Z</time>
      </trkpt>
      <trkpt lat="50.35453" lon="3.2637">
        <ele>30</ele>
        <time>2023-01-22T10:25:29Z</time>
      </trkpt>
      <trkpt lat="50.35452" lon="3.2637">
        <ele>27.632908</ele>
        <time>2023-01-22T10:25:30Z</time>
      </trkpt>
      <trkpt lat="50.35451" lon="3.26369">
        <ele>30</ele>
        <time>2023-01-22T10:25:31Z</time>
      </trkpt>
      <trkpt lat="50.3545" lon="3.26369">
        <ele>30</ele>
        <time>2023-01-22T10:25:32Z</time>
      </trkpt>
      <trkpt lat="50.35449" lon="3.26369">
        <ele>30</ele>
        <time>2023-01-22T10:25:33Z</time>
      </trkpt>
      <trkpt lat="50.35447" lon="3.26369">
        <ele>30</ele>
        <time>2023-01-22T10:25:34Z</time>
      </trkpt>
      <trkpt lat="50.35446" lon="3.26368">
        <ele>30</ele>
        <time>2023-01-22T10:25:35Z</time>
      </trkpt>
      <trkpt lat="50.35445" lon="3.26368">
        <ele>30</ele>
        <time>2023-01-22T10:25:36Z</time>
      </trkpt>
      <trkpt lat="50.35443" lon="3.26368">
        <ele>30</ele>
        <time>2023-01-22T10:25:37Z</time>
      </trkpt>
      <trkpt lat="50.35441" lon="3.26368">
        <ele>30.1</ele>
        <time>2023-01-22T10:25:38Z</time>
      </trkpt>
      <trkpt lat="50.3544" lon="3.26368">
        <ele>30.1</ele>
        <time>2023-01-22T10:25:39Z</time>
      </trkpt>
      <trkpt lat="50.35438" lon="3.26368">
        <ele>27.631012</ele>
        <time>2023-01-22T10:25:40Z</time>
      </trkpt>
      <trkpt lat="50.35437" lon="3.26367">
        <ele>30.2</ele>
        <time>2023-01-22T10:25:41Z</time>
      </trkpt>
      <trkpt lat="50.35436" lon="3.26366">
        <ele>30.2</ele>
        <time>2023-01-22T10:25:42Z</time>
      </trkpt>
      <trkpt lat="50.35434" lon="3.26366">
        <ele>30.3</ele>
        <time>2023-01-22T10:25:43Z</time>
      </trkpt>
      <trkpt lat="50.35433" lon="3.26366">
        <ele>30.3</ele>
        <time>2023-01-22T10:25:44Z</time>
      </trkpt>
      <trkpt lat="50.35432" lon="3.26366">
        <ele>30.4</ele>
        <time>2023-01-22T10:25:45Z</time>
      </trkpt>
      <trkpt lat="50.35431" lon="3.26367">
        <ele>30.4</ele>
        <time>2023-01-22T10:25:46Z</time>
      </trkpt>
      <trkpt lat="50.35431" lon="3.26367">
        <ele>30.4</ele>
        <time>2023-01-22T10:25:47Z</time>
      </trkpt>
      <trkpt lat="50.35429" lon="3.26367">
        <ele>30.4</ele>
        <time>2023-01-22T10:25:48Z</time>
      </trkpt>
      <trkpt lat="50.35429" lon="3.26367">
        <ele>30.5</ele>
        <time>2023-01-22T10:25:49Z</time>
      </trkpt>
      <trkpt lat="50.35427" lon="3.26366">
        <ele>27.754366</ele>
        <time>2023-01-22T10:25:50Z</time>
      </trkpt>
      <trkpt lat="50.35426" lon="3.26366">
        <ele>30.5</ele>
        <time>2023-01-22T10:25:51Z</time>
      </trkpt>
      <trkpt lat="50.35424" lon="3.26366">
        <ele>30.6</ele>
        <time>2023-01-22T10:25:52Z</time>
      </trkpt>
      <trkpt lat="50.35422" lon="3.26367">
        <ele>30.6</ele>
        <time>2023-01-22T10:25:53Z</time>
      </trkpt>
      <trkpt lat="50.3542" lon="3.26367">
        <ele>30.7</ele>
        <time>2023-01-22T10:25:54Z</time>
      </trkpt>
      <trkpt lat="50.35419" lon="3.26367">
        <ele>30.7</ele>
        <time>2023-01-22T10:25:55Z</time>
      </trkpt>
      <trkpt lat="50.35417" lon="3.26366">
        <ele>30.8</ele>
        <time>2023-01-22T10:25:56Z</time>
      </trkpt>
      <trkpt lat="50.35415" lon="3.26366">
        <ele>30.9</ele>
        <time>2023-01-22T10:25:57Z</time>
      </trkpt>
      <trkpt lat="50.35414" lon="3.26366">
        <ele>30.9</ele>
        <time>2023-01-22T10:25:58Z</time>
      </trkpt>
      <trkpt lat="50.35413" lon="3.26365">
        <ele>31</ele>
        <time>2023-01-22T10:25:59Z</time>
      </trkpt>
      <trkpt lat="50.35412" lon="3.26366">
        <ele>27.848305</ele>
        <time>2023-01-22T10:26:00Z</time>
      </trkpt>
      <trkpt lat="50.3541" lon="3.26366">
        <ele>31.1</ele>
        <time>2023-01-22T10:26:01Z</time>
      </trkpt>
      <trkpt lat="50.35409" lon="3.26366">
        <ele>31.1</ele>
        <time>2023-01-22T10:26:02Z</time>
      </trkpt>
      <trkpt lat="50.35407" lon="3.26366">
        <ele>31.2</ele>
        <time>2023-01-22T10:26:03Z</time>
      </trkpt>
      <trkpt lat="50.35406" lon="3.26366">
        <ele>31.2</ele>
        <time>2023-01-22T10:26:04Z</time>
      </trkpt>
      <trkpt lat="50.35405" lon="3.26365">
        <ele>31.3</ele>
        <time>2023-01-22T10:26:05Z</time>
      </trkpt>
      <trkpt lat="50.35404" lon="3.26365">
        <ele>31.3</ele>
        <time>2023-01-22T10:26:06Z</time>
      </trkpt>
      <trkpt lat="50.35403" lon="3.26365">
        <ele>31.4</ele>
        <time>2023-01-22T10:26:07Z</time>
      </trkpt>
      <trkpt lat="50.35401" lon="3.26364">
        <ele>31.4</ele>
        <time>2023-01-22T10:26:08Z</time>
      </trkpt>
      <trkpt lat="50.354" lon="3.26364">
        <ele>31.5</ele>
        <time>2023-01-22T10:26:09Z</time>
      </trkpt>
      <trkpt lat="50.35399" lon="3.26363">
        <ele>27.499117</ele>
        <time>2023-01-22T10:26:10Z</time>
      </trkpt>
      <trkpt lat="50.35397" lon="3.26362">
        <ele>31.7</ele>
        <time>2023-01-22T10:26:11Z</time>
      </trkpt>
      <trkpt lat="50.35396" lon="3.26362">
        <ele>31.7</ele>
        <time>2023-01-22T10:26:12Z</time>
      </trkpt>
      <trkpt lat="50.35395" lon="3.26361">
        <ele>31.8</ele>
        <time>2023-01-22T10:26:13Z</time>
      </trkpt>
      <trkpt lat="50.35394" lon="3.26361">
        <ele>31.8</ele>
        <time>2023-01-22T10:26:14Z</time>
      </trkpt>
      <trkpt lat="50.35392" lon="3.26361">
        <ele>31.9</ele>
        <time>2023-01-22T10:26:15Z</time>
      </trkpt>
      <trkpt lat="50.35391" lon="3.26359">
        <ele>32</ele>
        <time>2023-01-22T10:26:16Z</time>
      </trkpt>
      <trkpt lat="50.3539" lon="3.26358">
        <ele>32.1</ele>
        <time>2023-01-22T10:26:17Z</time>
      </trkpt>
      <trkpt lat="50.35389" lon="3.26357">
        <ele>32.2</ele>
        <time>2023-01-22T10:26:18Z</time>
      </trkpt>
      <trkpt lat="50.35388" lon="3.26355">
        <ele>32.2</ele>
        <time>2023-01-22T10:26:19Z</time>
      </trkpt>
      <trkpt lat="50.35387" lon="3.26353">
        <ele>27.094902</ele>
        <time>2023-01-22T10:26:20Z</time>
      </trkpt>
      <trkpt lat="50.35386" lon="3.26352">
        <ele>32.3</ele>
        <time>2023-01-22T10:26:21Z</time>
      </trkpt>
      <trkpt lat="50.35385" lon="3.26351">
        <ele>32.4</ele>
        <time>2023-01-22T10:26:22Z</time>
      </trkpt>
      <trkpt lat="50.35386" lon="3.2635">
        <ele>32.5</ele>
        <time>2023-01-22T10:26:23Z</time>
      </trkpt>
      <trkpt lat="50.35385" lon="3.26349">
        <ele>32.5</ele>
        <time>2023-01-22T10:26:24Z</time>
      </trkpt>
      <trkpt lat="50.35384" lon="3.26348">
        <ele>32.6</ele>
        <time>2023-01-22T10:26:25Z</time>
      </trkpt>
      <trkpt lat="50.35384" lon="3.26347">
        <ele>32.6</ele>
        <time>2023-01-22T10:26:26Z</time>
      </trkpt>
      <trkpt lat="50.35383" lon="3.26346">
        <ele>32.7</ele>
        <time>2023-01-22T10:26:27Z</time>
      </trkpt>
      <trkpt lat="50.35382" lon="3.26344">
        <ele>32.8</ele>
        <time>2023-01-22T10:26:28Z</time>
      </trkpt>
      <trkpt lat="50.3538" lon="3.26343">
        <ele>32.9</ele>
        <time>2023-01-22T10:26:29Z</time>
      </trkpt>
      <trkpt lat="50.35379" lon="3.26341">
        <ele>26.741934</ele>
        <time>2023-01-22T10:26:30Z</time>
      </trkpt>
      <trkpt lat="50.35379" lon="3.26339">
        <ele>33.1</ele>
        <time>2023-01-22T10:26:31Z</time>
      </trkpt>
      <trkpt lat="50.35378" lon="3.26336">
        <ele>33.2</ele>
        <time>2023-01-22T10:26:32Z</time>
      </trkpt>
      <trkpt lat="50.35378" lon="3.26335">
        <ele>33.3</ele>
        <time>2023-01-22T10:26:33Z</time>
      </trkpt>
      <trkpt lat="50.35376" lon="3.26333">
        <ele>33.5</ele>
        <time>2023-01-22T10:26:34Z</time>
        <extensions>
          <gpxtpx:TrackPointExtension xmlns:gpxtpx="http://www.garmin.com/xmlschemas/TrackPointExtension/v1">
            <gpxtpx:hr>151</gpxtpx:hr>
          </gpxtpx:TrackPointExtension>
        </extensions>
      </trkpt>
      <trkpt lat="50.35376" lon="3.26332">
        <ele>33.7</ele>
        <time>2023-01-22T10:26:35Z</time>
      </trkpt>
      <trkpt lat="50.35375" lon="3.2633">
        <ele>33.8</ele>
        <time>2023-01-22T10:26:36Z</time>
      </trkpt>
      <trkpt lat="50.35375" lon="3.26328">
        <ele>34.1</ele>
        <time>2023-01-22T10:26:37Z</time>
      </trkpt>
      <trkpt lat="50.35373" lon="3.26327">
        <ele>34.3</ele>
        <time>2023-01-22T10:26:38Z</time>
      </trkpt>
      <trkpt lat="50.35373" lon="3.26326">
        <ele>34.4</ele>
        <time>2023-01-22T10:26:39Z</time>
      </trkpt>
      <trkpt lat="50.35371" lon="3.26324">
        <ele>26.25139</ele>
        <time>2023-01-22T10:26:40Z</time>
      </trkpt>
      <trkpt lat="50.3537" lon="3.26324">
        <ele>34.7</ele>
        <time>2023-01-22T10:26:41Z</time>
      </trkpt>
      <trkpt lat="50.35369" lon="3.26322">
        <ele>35</ele>
        <time>2023-01-22T10:26:42Z</time>
      </trkpt>
      <trkpt lat="50.35369" lon="3.2632">
        <ele>35.2</ele>
        <time>2023-01-22T10:26:43Z</time>
      </trkpt>
      <trkpt lat="50.35368" lon="3.26319">
        <ele>35.3</ele>
        <time>2023-01-22T10:26:44Z</time>
      </trkpt>
      <trkpt lat="50.35368" lon="3.26317">
        <ele>35.5</ele>
        <time>2023-01-22T10:26:45Z</time>
      </trkpt>
      <trkpt lat="50.35366" lon="3.26316">
        <ele>35.8</ele>
        <time>2023-01-22T10:26:46Z</time>
      </trkpt>
      <trkpt lat="50.35365" lon="3.26315">
        <ele>35.9</ele>
        <time>2023-01-22T10:26:47Z</time>
      </trkpt>
      <trkpt lat="50.35364" lon="3.26314">
        <ele>36</ele>
        <time>2023-01-22T10:26:48Z</time>
      </trkpt>
      <trkpt lat="50.35363" lon="3.26315">
        <ele>36</ele>
        <time>2023-01-22T10:26:49Z</time>
      </trkpt>
      <trkpt lat="50.35362" lon="3.26315">
        <ele>25.895588</ele>
        <time>2023-01-22T10:26:50Z</time>
      </trkpt>
      <trkpt lat="50.3536" lon="3.26315">
        <ele>36</ele>
        <time>2023-01-22T10:26:51Z</time>
      </trkpt>
      <trkpt lat="50.35359" lon="3.26314">
        <ele>36</ele>
        <time>2023-01-22T10:26:52Z</time>
      </trkpt>
      <trkpt lat="50.35358" lon="3.26314">
        <ele>36</ele>
        <time>2023-01-22T10:26:53Z</time>
      </trkpt>
      <trkpt lat="50.35357" lon="3.26315">
        <ele>35.9</ele>
        <time>2023-01-22T10:26:54Z</time>
      </trkpt>
      <trkpt lat="50.35357" lon="3.26314">
        <ele>36</ele>
        <time>2023-01-22T10:26:55Z</time>
      </trkpt>
      <trkpt lat="50.35355" lon="3.26314">
        <ele>35.9</ele>
        <time>2023-01-22T10:26:56Z</time>
      </trkpt>
      <trkpt lat="50.35354" lon="3.26315">
        <ele>35.8</ele>
        <time>2023-01-22T10:26:57Z</time>
      </trkpt>
      <trkpt lat="50.35353" lon="3.26316">
        <ele>35.7</ele>
        <time>2023-01-22T10:26:58Z</time>
      </trkpt>
      <trkpt lat="50.35352" lon="3.26317">
        <ele>35.5</ele>
        <time>2023-01-22T10:26:59Z</time>
      </trkpt>
      <trkpt lat="50.3535" lon="3.26318">
        <ele>25.00943</ele>
        <time>2023-01-22T10:27:00Z</time>
      </trkpt>
      <trkpt lat="50.35349" lon="3.26318">
        <ele>35.2</ele>
        <time>2023-01-22T10:27:01Z</time>
      </trkpt>
      <trkpt lat="50.35347" lon="3.2632">
        <ele>35</ele>
        <time>2023-01-22T10:27:02Z</time>
      </trkpt>
      <trkpt lat="50.35346" lon="3.26321">
        <ele>34.7</ele>
        <time>2023-01-22T10:27:03Z</time>
      </trkpt>
      <trkpt lat="50.35345" lon="3.26324">
        <ele>34.3</ele>
        <time>2023-01-22T10:27:04Z</time>
        <extensions>
          <gpxtpx:TrackPointExtension xmlns:gpxtpx="http://www.garmin.com/xmlschemas/TrackPointExtension/v1">
            <gpxtpx:hr>154</gpxtpx:hr>
          </gpxtpx:TrackPointExtension>
        </extensions>
      </trkpt>
      <trkpt lat="50.35344" lon="3.26325">
        <ele>34</ele>
        <time>2023-01-22T10:27:05Z</time>
      </trkpt>
      <trkpt lat="50.35343" lon="3.26327">
        <ele>33.7</ele>
        <time>2023-01-22T10:27:06Z</time>
      </trkpt>
      <trkpt lat="50.35342" lon="3.26329">
        <ele>33.4</ele>
        <time>2023-01-22T10:27:07Z</time>
      </trkpt>
      <trkpt lat="50.35342" lon="3.2633">
        <ele>33.1</ele>
        <time>2023-01-22T10:27:08Z</time>
      </trkpt>
      <trkpt lat="50.35343" lon="3.26332">
        <ele>32.9</ele>
        <time>2023-01-22T10:27:09Z</time>
      </trkpt>
      <trkpt lat="50.35343" lon="3.26335">
        <ele>23.979103</ele>
        <time>2023-01-22T10:27:10Z</time>
      </trkpt>
      <trkpt lat="50.35343" lon="3.26338">
        <ele>32.5</ele>
        <time>2023-01-22T10:27:11Z</time>
      </trkpt>
      <trkpt lat="50.35342" lon="3.26344">
        <ele>32.2</ele>
        <time>2023-01-22T10:27:12Z</time>
      </trkpt>
      <trkpt lat="50.35342" lon="3.26348">
        <ele>32</ele>
        <time>2023-01-22T10:27:13Z</time>
      </trkpt>
      <trkpt lat="50.35343" lon="3.2635">
        <ele>31.9</ele>
        <time>2023-01-22T10:27:14Z</time>
      </trkpt>
      <trkpt lat="50.35344" lon="3.26353">
        <ele>31.8</ele>
        <time>2023-01-22T10:27:15Z</time>
      </trkpt>
      <trkpt lat="50.35344" lon="3.26356">
        <ele>31.6</ele>
        <time>2023-01-22T10:27:16Z</time>
      </trkpt>
      <trkpt lat="50.35344" lon="3.26358">
        <ele>31.6</ele>
        <time>2023-01-22T10:27:17Z</time>
      </trkpt>
      <trkpt lat="50.35344" lon="3.26359">
        <ele>31.5</ele>
        <time>2023-01-22T10:27:18Z</time>
      </trkpt>
      <trkpt lat="50.35345" lon="3.26361">
        <ele>31.4</ele>
        <time>2023-01-22T10:27:19Z</time>
      </trkpt>
      <trkpt lat="50.35345" lon="3.26363">
        <ele>23.888027</ele>
        <time>2023-01-22T10:27:20Z</time>
      </trkpt>
      <trkpt lat="50.35346" lon="3.26365">
        <ele>31.5</ele>
        <time>2023-01-22T10:27:21Z</time>
        <extensions>
          <gpxtpx:TrackPointExtension xmlns:gpxtpx="http://www.garmin.com/xmlschemas/TrackPointExtension/v1">
            <gpxtpx:hr>153</gpxtpx:hr>
          </gpxtpx:TrackPointExtension>
        </extensions>
      </trkpt>
      <trkpt lat="50.35347" lon="3.26367">
        <ele>31.5</ele>
        <time>2023-01-22T10:27:22Z</time>
      </trkpt>
      <trkpt lat="50.35348" lon="3.26369">
        <ele>31.5</ele>
        <time>2023-01-22T10:27:23Z</time>
      </trkpt>
      <trkpt lat="50.35349" lon="3.2637">
        <ele>31.5</ele>
        <time>2023-01-22T10:27:24Z</time>
      </trkpt>
      <trkpt lat="50.35349" lon="3.26372">
        <ele>31.6</ele>
        <time>2023-01-22T10:27:25Z</time>
      </trkpt>
      <trkpt lat="50.3535" lon="3.26374">
        <ele>31.6</ele>
        <time>2023-01-22T10:27:26Z</time>
      </trkpt>
      <trkpt lat="50.3535" lon="3.26376">
        <ele>31.6</ele>
        <time>2023-01-22T10:27:27Z</time>
      </trkpt>
      <trkpt lat="50.3535" lon="3.26378">
        <ele>31.6</ele>
        <time>2023-01-22T10:27:28Z</time>
      </trkpt>
      <trkpt lat="50.35351" lon="3.2638">
        <ele>31.6</ele>
        <time>2023-01-22T10:27:29Z</time>
      </trkpt>
      <trkpt lat="50.35352" lon="3.26381">
        <ele>23.832054</ele>
        <time>2023-01-22T10:27:30Z</time>
      </trkpt>
      <trkpt lat="50.35353" lon="3.26383">
        <ele>31.7</ele>
        <time>2023-01-22T10:27:31Z</time>
      </trkpt>
      <trkpt lat="50.35353" lon="3.26386">
        <ele>31.7</ele>
        <time>2023-01-22T10:27:32Z</time>
      </trkpt>
      <trkpt lat="50.35354" lon="3.26388">
        <ele>31.7</ele>
        <time>2023-01-22T10:27:33Z</time>
      </trkpt>
      <trkpt lat="50.35355" lon="3.2639">
        <ele>31.7</ele>
        <time>2023-01-22T10:27:34Z</time>
      </trkpt>
      <trkpt lat="50.35355" lon="3.26391">
        <ele>31.7</ele>
        <time>2023-01-22T10:27:35Z</time>
      </trkpt>
      <trkpt lat="50.35355" lon="3.26392">
        <ele>31.7</ele>
        <time>2023-01-22T10:27:36Z</time>
      </trkpt>
      <trkpt lat="50.35355" lon="3.26394">
        <ele>31.7</ele>
        <time>2023-01-22T10:27:37Z</time>
      </trkpt>
      <trkpt lat="50.35356" lon="3.26395">
        <ele>31.6</ele>
        <time>2023-01-22T10:27:38Z</time>
      </trkpt>
      <trkpt lat="50.35357" lon="3.26397">
        <ele>31.6</ele>
        <time>2023-01-22T10:27:39Z</time>
      </trkpt>
      <trkpt lat="50.35357" lon="3.26399">
        <ele>23.392807</ele>
        <time>2023-01-22T10:27:40Z</time>
      </trkpt>
      <trkpt lat="50.35358" lon="3.264">
        <ele>31.5</ele>
        <time>2023-01-22T10:27:41Z</time>
      </trkpt>
      <trkpt lat="50.35359" lon="3.26402">
        <ele>31.5</ele>
        <time>2023-01-22T10:27:42Z</time>
      </trkpt>
      <trkpt lat="50.3536" lon="3.26403">
        <ele>31.5</ele>
        <time>2023-01-22T10:27:43Z</time>
      </trkpt>
      <trkpt lat="50.3536" lon="3.26405">
        <ele>31.4</ele>
        <time>2023-01-22T10:27:44Z</time>
        <extensions>
          <gpxtpx:TrackPointExtension xmlns:gpxtpx="http://www.garmin.com/xmlschemas/TrackPointExtension/v1">
            <gpxtpx:hr>154</gpxtpx:hr>
          </gpxtpx:TrackPointExtension>
        </extensions>
      </trkpt>
      <trkpt lat="50.35361" lon="3.26406">
        <ele>31.4</ele>
        <time>2023-01-22T10:27:45Z</time>
      </trkpt>
      <trkpt lat="50.35362" lon="3.26408">
        <ele>31.3</ele>
        <time>2023-01-22T10:27:46Z</time>
      </trkpt>
      <trkpt lat="50.35363" lon="3.26411">
        <ele>31.2</ele>
        <time>2023-01-22T10:27:47Z</time>
      </trkpt>
      <trkpt lat="50.35363" lon="3.26412">
        <ele>31.2</ele>
        <time>2023-01-22T10:27:48Z</time>
      </trkpt>
      <trkpt lat="50.35364" lon="3.26415">
        <ele>31.1</ele>
        <time>2023-01-22T10:27:49Z</time>
      </trkpt>
      <trkpt lat="50.35365" lon="3.26416">
        <ele>22.787556</ele>
        <time>2023-01-22T10:27:50Z</time>
      </trkpt>
      <trkpt lat="50.35365" lon="3.26419">
        <ele>31</ele>
        <time>2023-01-22T10:27:51Z</time>
      </trkpt>
      <trkpt lat="50.35366" lon="3.26421">
        <ele>31</ele>
        <time>2023-01-22T10:27:52Z</time>
      </trkpt>
      <trkpt lat="50.35366" lon="3.26422">
        <ele>31</ele>
        <time>2023-01-22T10:27:53Z</time>
      </trkpt>
      <trkpt lat="50.35367" lon="3.26424">
        <ele>31</ele>
        <time>2023-01-22T10:27:54Z</time>
      </trkpt>
      <trkpt lat="50.35368" lon="3.26426">
        <ele>31</ele>
        <time>2023-01-22T10:27:55Z</time>
      </trkpt>
      <trkpt lat="50.35369" lon="3.26428">
        <ele>31</ele>
        <time>2023-01-22T10:27:56Z</time>
      </trkpt>
      <trkpt lat="50.35369" lon="3.2643">
        <ele>31</ele>
        <time>2023-01-22T10:27:57Z</time>
      </trkpt>
      <trkpt lat="50.3537" lon="3.26432">
        <ele>31</ele>
        <time>2023-01-22T10:27:58Z</time>
      </trkpt>
      <trkpt lat="50.3537" lon="3.26433">
        <ele>31</ele>
        <time>2023-01-22T10:27:59Z</time>
      </trkpt>
      <trkpt lat="50.3537" lon="3.26435">
        <ele>22.949776</ele>
        <time>2023-01-22T10:28:00Z</time>
      </trkpt>
      <trkpt lat="50.35371" lon="3.26436">
        <ele>31</ele>
        <time>2023-01-22T10:28:01Z</time>
      </trkpt>
      <trkpt lat="50.35371" lon="3.26438">
        <ele>31</ele>
        <time>2023-01-22T10:28:02Z</time>
      </trkpt>
      <trkpt lat="50.35372" lon="3.26439">
        <ele>31</ele>
        <time>2023-01-22T10:28:03Z</time>
      </trkpt>
      <trkpt lat="50.35373" lon="3.2644">
        <ele>31</ele>
        <time>2023-01-22T10:28:04Z</time>
      </trkpt>
      <trkpt lat="50.35374" lon="3.26442">
        <ele>31</ele>
        <time>2023-01-22T10:28:05Z</time>
      </trkpt>
      <trkpt lat="50.35375" lon="3.26443">
        <ele>31</ele>
        <time>2023-01-22T10:28:06Z</time>
      </trkpt>
      <trkpt lat="50.35376" lon="3.26445">
        <ele>31</ele>
        <time>2023-01-22T10:28:07Z</time>
      </trkpt>
      <trkpt lat="50.35376" lon="3.26446">
        <ele>31</ele>
        <time>2023-01-22T10:28:08Z</time>
      </trkpt>
      <trkpt lat="50.35377" lon="3.26448">
        <ele>31</ele>
        <time>2023-01-22T10:28:09Z</time>
      </trkpt>
      <trkpt lat="50.35378" lon="3.2645">
        <ele>22.92606</ele>
        <time>2023-01-22T10:28:10Z</time>
      </trkpt>
      <trkpt lat="50.35378" lon="3.26451">
        <ele>31</ele>
        <time>2023-01-22T10:28:11Z</time>
      </trkpt>
      <trkpt lat="50.35379" lon="3.26454">
        <ele>31</ele>
        <time>2023-01-22T10:28:12Z</time>
      </trkpt>
      <trkpt lat="50.3538" lon="3.26455">
        <ele>31</ele>
        <time>2023-01-22T10:28:13Z</time>
      </trkpt>
      <trkpt lat="50.35381" lon="3.26457">
        <ele>31</ele>
        <time>2023-01-22T10:28:14Z</time>
        <extensions>
          <gpxtpx:TrackPointExtension xmlns:gpxtpx="http://www.garmin.com/xmlschemas/TrackPointExtension/v1">
            <gpxtpx:hr>149</gpxtpx:hr>
          </gpxtpx:TrackPointExtension>
        </extensions>
      </trkpt>
      <trkpt lat="50.35381" lon="3.26459">
        <ele>31</ele>
        <time>2023-01-22T10:28:15Z</time>
      </trkpt>
      <trkpt lat="50.35381" lon="3.2646">
        <ele>31</ele>
        <time>2023-01-22T10:28:16Z</time>
      </trkpt>
      <trkpt lat="50.35382" lon="3.26461">
        <ele>31</ele>
        <time>2023-01-22T10:28:17Z</time>
      </trkpt>
      <trkpt lat="50.35383" lon="3.26463">
        <ele>31</ele>
        <time>2023-01-22T10:28:18Z</time>
      </trkpt>
      <trkpt lat="50.35383" lon="3.26465">
        <ele>31</ele>
        <time>2023-01-22T10:28:19Z</time>
        <extensions>
          <gpxtpx:TrackPointExtension xmlns:gpxtpx="http://www.garmin.com/xmlschemas/TrackPointExtension/v1">
            <gpxtpx:hr>149</gpxtpx:hr>
          </gpxtpx:TrackPointExtension>
        </extensions>
      </trkpt>
      <trkpt lat="50.35383" lon="3.26467">
        <ele>22.838783</ele>
        <time>2023-01-22T10:28:20Z</time>
      </trkpt>
      <trkpt lat="50.35384" lon="3.2647">
        <ele>31</ele>
        <time>2023-01-22T10:28:21Z</time>
      </trkpt>
      <trkpt lat="50.35384" lon="3.26472">
        <ele>31</ele>
        <time>2023-01-22T10:28:22Z</time>
      </trkpt>
      <trkpt lat="50.35384" lon="3.26474">
        <ele>31</ele>
        <time>2023-01-22T10:28:23Z</time>
      </trkpt>
      <trkpt lat="50.35385" lon="3.26476">
        <ele>31.1</ele>
        <time>2023-01-22T10:28:24Z</time>
      </trkpt>
      <trkpt lat="50.35385" lon="3.26477">
        <ele>31.1</ele>
        <time>2023-01-22T10:28:25Z</time>
      </trkpt>
      <trkpt lat="50.35386" lon="3.26478">
        <ele>31.2</ele>
        <time>2023-01-22T10:28:26Z</time>
      </trkpt>
      <trkpt lat="50.35386" lon="3.2648">
        <ele>31.2</ele>
        <time>2023-01-22T10:28:27Z</time>
      </trkpt>
      <trkpt lat="50.35387" lon="3.26481">
        <ele>31.3</ele>
        <time>2023-01-22T10:28:28Z</time>
      </trkpt>
      <trkpt lat="50.35387" lon="3.26482">
        <ele>31.3</ele>
        <time>2023-01-22T10:28:29Z</time>
      </trkpt>
      <trkpt lat="50.35388" lon="3.26484">
        <ele>22.877678</ele>
        <time>2023-01-22T10:28:30Z</time>
      </trkpt>
      <trkpt lat="50.35388" lon="3.26486">
        <ele>31.5</ele>
        <time>2023-01-22T10:28:31Z</time>
      </trkpt>
      <trkpt lat="50.35388" lon="3.26488">
        <ele>31.6</ele>
        <time>2023-01-22T10:28:32Z</time>
      </trkpt>
      <trkpt lat="50.35388" lon="3.26491">
        <ele>31.6</ele>
        <time>2023-01-22T10:28:33Z</time>
      </trkpt>
      <trkpt lat="50.35389" lon="3.26493">
        <ele>31.7</ele>
        <time>2023-01-22T10:28:34Z</time>
      </trkpt>
      <trkpt lat="50.35389" lon="3.26495">
        <ele>31.8</ele>
        <time>2023-01-22T10:28:35Z</time>
      </trkpt>
      <trkpt lat="50.35389" lon="3.26496">
        <ele>31.8</ele>
        <time>2023-01-22T10:28:36Z</time>
      </trkpt>
      <trkpt lat="50.35389" lon="3.26498">
        <ele>31.9</ele>
        <time>2023-01-22T10:28:37Z</time>
      </trkpt>
      <trkpt lat="50.35389" lon="3.265">
        <ele>32</ele>
        <time>2023-01-22T10:28:38Z</time>
      </trkpt>
      <trkpt lat="50.35389" lon="3.26502">
        <ele>32</ele>
        <time>2023-01-22T10:28:39Z</time>
        <extensions>
          <gpxtpx:TrackPointExtension xmlns:gpxtpx="http://www.garmin.com/xmlschemas/TrackPointExtension/v1">
            <gpxtpx:hr>153</gpxtpx:hr>
          </gpxtpx:TrackPointExtension>
        </extensions>
      </trkpt>
      <trkpt lat="50.35389" lon="3.26504">
        <ele>23.300785</ele>
        <time>2023-01-22T10:28:40Z</time>
      </trkpt>
      <trkpt lat="50.35388" lon="3.26506">
        <ele>32</ele>
        <time>2023-01-22T10:28:41Z</time>
      </trkpt>
      <trkpt lat="50.35389" lon="3.26508">
        <ele>32</ele>
        <time>2023-01-22T10:28:42Z</time>
      </trkpt>
      <trkpt lat="50.35389" lon="3.26509">
        <ele>32</ele>
        <time>2023-01-22T10:28:43Z</time>
      </trkpt>
      <trkpt lat="50.35388" lon="3.26512">
        <ele>32</ele>
        <time>2023-01-22T10:28:44Z</time>
      </trkpt>
      <trkpt lat="50.35387" lon="3.26514">
        <ele>31.9</ele>
        <time>2023-01-22T10:28:45Z</time>
      </trkpt>
      <trkpt lat="50.35387" lon="3.26516">
        <ele>31.9</ele>
        <time>2023-01-22T10:28:46Z</time>
      </trkpt>
      <trkpt lat="50.35387" lon="3.26518">
        <ele>31.9</ele>
        <time>2023-01-22T10:28:47Z</time>
      </trkpt>
      <trkpt lat="50.35387" lon="3.26519">
        <ele>31.9</ele>
        <time>2023-01-22T10:28:48Z</time>
      </trkpt>
      <trkpt lat="50.35386" lon="3.2652">
        <ele>31.9</ele>
        <time>2023-01-22T10:28:49Z</time>
      </trkpt>
      <trkpt lat="50.35386" lon="3.26522">
        <ele>23.189789</ele>
        <time>2023-01-22T10:28:50Z</time>
      </trkpt>
      <trkpt lat="50.35385" lon="3.26524">
        <ele>31.9</ele>
        <time>2023-01-22T10:28:51Z</time>
      </trkpt>
      <trkpt lat="50.35384" lon="3.26526">
        <ele>31.8</ele>
        <time>2023-01-22T10:28:52Z</time>
      </trkpt>
      <trkpt lat="50.35383" lon="3.26527">
        <ele>31.8</ele>
        <time>2023-01-22T10:28:53Z</time>
      </trkpt>
      <trkpt lat="50.35383" lon="3.26529">
        <ele>31.8</ele>
        <time>2023-01-22T10:28:54Z</time>
      </trkpt>
      <trkpt lat="50.35382" lon="3.26531">
        <ele>31.8</ele>
        <time>2023-01-22T10:28:55Z</time>
      </trkpt>
      <trkpt lat="50.35381" lon="3.26532">
        <ele>31.8</ele>
        <time>2023-01-22T10:28:56Z</time>
      </trkpt>
      <trkpt lat="50.35381" lon="3.26534">
        <ele>31.8</ele>
        <time>2023-01-22T10:28:57Z</time>
      </trkpt>
      <trkpt lat="50.35381" lon="3.26536">
        <ele>31.8</ele>
        <time>2023-01-22T10:28:58Z</time>
      </trkpt>
      <trkpt lat="50.3538" lon="3.26538">
        <ele>31.8</ele>
        <time>2023-01-22T10:28:59Z</time>
      </trkpt>
      <trkpt lat="50.3538" lon="3.26539">
        <ele>23.33304</ele>
        <time>2023-01-22T10:29:00Z</time>
        <extensions>
          <gpxtpx:TrackPointExtension xmlns:gpxtpx="http://www.garmin.com/xmlschemas/TrackPointExtension/v1">
            <gpxtpx:hr>153</gpxtpx:hr>
          </gpxtpx:TrackPointExtension>
        </extensions>
      </trkpt>
      <trkpt lat="50.35379" lon="3.2654">
        <ele>31.8</ele>
        <time>2023-01-22T10:29:01Z</time>
      </trkpt>
      <trkpt lat="50.35378" lon="3.26542">
        <ele>31.8</ele>
        <time>2023-01-22T10:29:02Z</time>
      </trkpt>
      <trkpt lat="50.35378" lon="3.26544">
        <ele>31.8</ele>
        <time>2023-01-22T10:29:03Z</time>
      </trkpt>
      <trkpt lat="50.35377" lon="3.26545">
        <ele>31.8</ele>
        <time>2023-01-22T10:29:04Z</time>
      </trkpt>
      <trkpt lat="50.35376" lon="3.26547">
        <ele>31.9</ele>
        <time>2023-01-22T10:29:05Z</time>
      </trkpt>
      <trkpt lat="50.35376" lon="3.26549">
        <ele>31.9</ele>
        <time>2023-01-22T10:29:06Z</time>
      </trkpt>
      <trkpt lat="50.35375" lon="3.2655">
        <ele>31.9</ele>
        <time>2023-01-22T10:29:07Z</time>
      </trkpt>
      <trkpt lat="50.35374" lon="3.26552">
        <ele>31.9</ele>
        <time>2023-01-22T10:29:08Z</time>
      </trkpt>
      <trkpt lat="50.35373" lon="3.26554">
        <ele>32</ele>
        <time>2023-01-22T10:29:09Z</time>
      </trkpt>
      <trkpt lat="50.35373" lon="3.26556">
        <ele>23.571161</ele>
        <time>2023-01-22T10:29:10Z</time>
      </trkpt>
      <trkpt lat="50.35372" lon="3.26558">
        <ele>32</ele>
        <time>2023-01-22T10:29:11Z</time>
      </trkpt>
      <trkpt lat="50.35372" lon="3.2656">
        <ele>32</ele>
        <time>2023-01-22T10:29:12Z</time>
      </trkpt>
      <trkpt lat="50.35371" lon="3.26561">
        <ele>32</ele>
        <time>2023-01-22T10:29:13Z</time>
      </trkpt>
      <trkpt lat="50.3537" lon="3.26562">
        <ele>32</ele>
        <time>2023-01-22T10:29:14Z</time>
      </trkpt>
      <trkpt lat="50.35369" lon="3.26564">
        <ele>32</ele>
        <time>2023-01-22T10:29:15Z</time>
      </trkpt>
      <trkpt lat="50.35368" lon="3.26566">
        <ele>32</ele>
        <time>2023-01-22T10:29:16Z</time>
      </trkpt>
      <trkpt lat="50.35368" lon="3.26568">
        <ele>32</ele>
        <time>2023-01-22T10:29:17Z</time>
      </trkpt>
      <trkpt lat="50.35368" lon="3.2657">
        <ele>32</ele>
        <time>2023-01-22T10:29:18Z</time>
      </trkpt>
      <trkpt lat="50.35367" lon="3.26572">
        <ele>32</ele>
        <time>2023-01-22T10:29:19Z</time>
      </trkpt>
      <trkpt lat="50.35366" lon="3.26573">
        <ele>23.66603</ele>
        <time>2023-01-22T10:29:20Z</time>
      </trkpt>
      <trkpt lat="50.35366" lon="3.26576">
        <ele>32</ele>
        <time>2023-01-22T10:29:21Z</time>
      </trkpt>
      <trkpt lat="50.35365" lon="3.26578">
        <ele>32</ele>
        <time>2023-01-22T10:29:22Z</time>
      </trkpt>
      <trkpt lat="50.35364" lon="3.2658">
        <ele>32</ele>
        <time>2023-01-22T10:29:23Z</time>
      </trkpt>
      <trkpt lat="50.35364" lon="3.26581">
        <ele>32</ele>
        <time>2023-01-22T10:29:24Z</time>
      </trkpt>
      <trkpt lat="50.35363" lon="3.26583">
        <ele>32</ele>
        <time>2023-01-22T10:29:25Z</time>
      </trkpt>
      <trkpt lat="50.35362" lon="3.26585">
        <ele>32</ele>
        <time>2023-01-22T10:29:26Z</time>
      </trkpt>
      <trkpt lat="50.35361" lon="3.26586">
        <ele>32</ele>
        <time>2023-01-22T10:29:27Z</time>
      </trkpt>
      <trkpt lat="50.3536" lon="3.26588">
        <ele>32</ele>
        <time>2023-01-22T10:29:28Z</time>
      </trkpt>
      <trkpt lat="50.3536" lon="3.2659">
        <ele>32</ele>
        <time>2023-01-22T10:29:29Z</time>
      </trkpt>
      <trkpt lat="50.35359" lon="3.26591">
        <ele>23.52088</ele>
        <time>2023-01-22T10:29:30Z</time>
      </trkpt>
      <trkpt lat="50.35358" lon="3.26593">
        <ele>32</ele>
        <time>2023-01-22T10:29:31Z</time>
      </trkpt>
      <trkpt lat="50.35358" lon="3.26595">
        <ele>32</ele>
        <time>2023-01-22T10:29:32Z</time>
      </trkpt>
      <trkpt lat="50.35357" lon="3.26596">
        <ele>32</ele>
        <time>2023-01-22T10:29:33Z</time>
      </trkpt>
      <trkpt lat="50.35357" lon="3.26598">
        <ele>32</ele>
        <time>2023-01-22T10:29:34Z</time>
      </trkpt>
      <trkpt lat="50.35356" lon="3.26599">
        <ele>32</ele>
        <time>2023-01-22T10:29:35Z</time>
      </trkpt>
      <trkpt lat="50.35356" lon="3.26601">
        <ele>32</ele>
        <time>2023-01-22T10:29:36Z</time>
      </trkpt>
      <trkpt lat="50.35355" lon="3.26603">
        <ele>32</ele>
        <time>2023-01-22T10:29:37Z</time>
      </trkpt>
      <trkpt lat="50.35355" lon="3.26604">
        <ele>32</ele>
        <time>2023-01-22T10:29:38Z</time>
      </trkpt>
      <trkpt lat="50.35354" lon="3.26606">
        <ele>32</ele>
        <time>2023-01-22T10:29:39Z</time>
      </trkpt>
      <trkpt lat="50.35354" lon="3.26607">
        <ele>23.677416</ele>
        <time>2023-01-22T10:29:40Z</time>
      </trkpt>
      <trkpt lat="50.35353" lon="3.26609">
        <ele>32</ele>
        <time>2023-01-22T10:29:41Z</time>
      </trkpt>
      <trkpt lat="50.35353" lon="3.2661">
        <ele>32</ele>
        <time>2023-01-22T10:29:42Z</time>
      </trkpt>
      <trkpt lat="50.35352" lon="3.26612">
        <ele>32</ele>
        <time>2023-01-22T10:29:43Z</time>
      </trkpt>
      <trkpt lat="50.35352" lon="3.26613">
        <ele>32</ele>
        <time>2023-01-22T10:29:44Z</time>
      </trkpt>
      <trkpt lat="50.3535" lon="3.26614">
        <ele>31.9</ele>
        <time>2023-01-22T10:29:45Z</time>
      </trkpt>
      <trkpt lat="50.3535" lon="3.26616">
        <ele>31.9</ele>
        <time>2023-01-22T10:29:46Z</time>
      </trkpt>
      <trkpt lat="50.35349" lon="3.26617">
        <ele>31.9</ele>
        <time>2023-01-22T10:29:47Z</time>
      </trkpt>
      <trkpt lat="50.35348" lon="3.26619">
        <ele>31.9</ele>
        <time>2023-01-22T10:29:48Z</time>
      </trkpt>
      <trkpt lat="50.35348" lon="3.2662">
        <ele>31.8</ele>
        <time>2023-01-22T10:29:49Z</time>
      </trkpt>
      <trkpt lat="50.35346" lon="3.26621">
        <ele>24.036974</ele>
        <time>2023-01-22T10:29:50Z</time>
      </trkpt>
      <trkpt lat="50.35346" lon="3.26622">
        <ele>31.8</ele>
        <time>2023-01-22T10:29:51Z</time>
      </trkpt>
      <trkpt lat="50.35345" lon="3.26624">
        <ele>31.8</ele>
        <time>2023-01-22T10:29:52Z</time>
      </trkpt>
      <trkpt lat="50.35343" lon="3.26625">
        <ele>31.8</ele>
        <time>2023-01-22T10:29:53Z</time>
      </trkpt>
      <trkpt lat="50.35342" lon="3.26627">
        <ele>31.8</ele>
        <time>2023-01-22T10:29:54Z</time>
      </trkpt>
      <trkpt lat="50.35341" lon="3.26629">
        <ele>31.8</ele>
        <time>2023-01-22T10:29:55Z</time>
      </trkpt>
      <trkpt lat="50.3534" lon="3.2663">
        <ele>31.8</ele>
        <time>2023-01-22T10:29:56Z</time>
      </trkpt>
      <trkpt lat="50.35339" lon="3.26632">
        <ele>31.9</ele>
        <time>2023-01-22T10:29:57Z</time>
      </trkpt>
      <trkpt lat="50.35338" lon="3.26634">
        <ele>31.9</ele>
        <time>2023-01-22T10:29:58Z</time>
      </trkpt>
      <trkpt lat="50.35337" lon="3.26636">
        <ele>31.9</ele>
        <time>2023-01-22T10:29:59Z</time>
      </trkpt>
      <trkpt lat="50.35336" lon="3.26638">
        <ele>24.042667</ele>
        <time>2023-01-22T10:30:00Z</time>
      </trkpt>
      <trkpt lat="50.35336" lon="3.2664">
        <ele>31.9</ele>
        <time>2023-01-22T10:30:01Z</time>
      </trkpt>
      <trkpt lat="50.35336" lon="3.26641">
        <ele>31.8</ele>
        <time>2023-01-22T10:30:02Z</time>
      </trkpt>
      <trkpt lat="50.35336" lon="3.26642">
        <ele>31.8</ele>
        <time>2023-01-22T10:30:03Z</time>
      </trkpt>
      <trkpt lat="50.35336" lon="3.26643">
        <ele>31.8</ele>
        <time>2023-01-22T10:30:04Z</time>
      </trkpt>
      <trkpt lat="50.35335" lon="3.26645">
        <ele>31.7</ele>
        <time>2023-01-22T10:30:05Z</time>
      </trkpt>
      <trkpt lat="50.35334" lon="3.26647">
        <ele>31.7</ele>
        <time>2023-01-22T10:30:06Z</time>
      </trkpt>
      <trkpt lat="50.35333" lon="3.26648">
        <ele>31.7</ele>
        <time>2023-01-22T10:30:07Z</time>
      </trkpt>
      <trkpt lat="50.35332" lon="3.26649">
        <ele>31.6</ele>
        <time>2023-01-22T10:30:08Z</time>
      </trkpt>
      <trkpt lat="50.35331" lon="3.26651">
        <ele>31.6</ele>
        <time>2023-01-22T10:30:09Z</time>
      </trkpt>
      <trkpt lat="50.35331" lon="3.26652">
        <ele>23.809284</ele>
        <time>2023-01-22T10:30:10Z</time>
      </trkpt>
      <trkpt lat="50.3533" lon="3.26654">
        <ele>31.5</ele>
        <time>2023-01-22T10:30:11Z</time>
      </trkpt>
      <trkpt lat="50.3533" lon="3.26655">
        <ele>31.5</ele>
        <time>2023-01-22T10:30:12Z</time>
      </trkpt>
      <trkpt lat="50.35329" lon="3.26657">
        <ele>31.5</ele>
        <time>2023-01-22T10:30:13Z</time>
      </trkpt>
      <trkpt lat="50.35329" lon="3.26657">
        <ele>31.5</ele>
        <time>2023-01-22T10:30:14Z</time>
      </trkpt>
      <trkpt lat="50.35328" lon="3.26659">
        <ele>31.4</ele>
        <time>2023-01-22T10:30:15Z</time>
      </trkpt>
      <trkpt lat="50.35327" lon="3.2666">
        <ele>31.4</ele>
        <time>2023-01-22T10:30:16Z</time>
      </trkpt>
      <trkpt lat="50.35326" lon="3.26661">
        <ele>31.4</ele>
        <time>2023-01-22T10:30:17Z</time>
      </trkpt>
      <trkpt lat="50.35325" lon="3.26662">
        <ele>31.4</ele>
        <time>2023-01-22T10:30:18Z</time>
      </trkpt>
      <trkpt lat="50.35324" lon="3.26663">
        <ele>31.4</ele>
        <time>2023-01-22T10:30:19Z</time>
      </trkpt>
      <trkpt lat="50.35323" lon="3.26664">
        <ele>23.685953</ele>
        <time>2023-01-22T10:30:20Z</time>
      </trkpt>
      <trkpt lat="50.35323" lon="3.26665">
        <ele>31.4</ele>
        <time>2023-01-22T10:30:21Z</time>
        <extensions>
          <gpxtpx:TrackPointExtension xmlns:gpxtpx="http://www.garmin.com/xmlschemas/TrackPointExtension/v1">
            <gpxtpx:hr>152</gpxtpx:hr>
          </gpxtpx:TrackPointExtension>
        </extensions>
      </trkpt>
      <trkpt lat="50.35321" lon="3.26666">
        <ele>31.4</ele>
        <time>2023-01-22T10:30:22Z</time>
      </trkpt>
      <trkpt lat="50.35321" lon="3.26667">
        <ele>31.5</ele>
        <time>2023-01-22T10:30:23Z</time>
      </trkpt>
      <trkpt lat="50.3532" lon="3.26667">
        <ele>31.5</ele>
        <time>2023-01-22T10:30:24Z</time>
      </trkpt>
      <trkpt lat="50.35319" lon="3.26668">
        <ele>31.5</ele>
        <time>2023-01-22T10:30:25Z</time>
      </trkpt>
      <trkpt lat="50.35318" lon="3.26668">
        <ele>31.5</ele>
        <time>2023-01-22T10:30:26Z</time>
      </trkpt>
      <trkpt lat="50.35317" lon="3.26668">
        <ele>31.6</ele>
        <time>2023-01-22T10:30:27Z</time>
      </trkpt>
      <trkpt lat="50.35316" lon="3.26668">
        <ele>31.6</ele>
        <time>2023-01-22T10:30:28Z</time>
      </trkpt>
      <trkpt lat="50.35315" lon="3.26669">
        <ele>31.6</ele>
        <time>2023-01-22T10:30:29Z</time>
      </trkpt>
      <trkpt lat="50.35314" lon="3.2667">
        <ele>23.88613</ele>
        <time>2023-01-22T10:30:30Z</time>
      </trkpt>
      <trkpt lat="50.35313" lon="3.26671">
        <ele>31.6</ele>
        <time>2023-01-22T10:30:31Z</time>
      </trkpt>
      <trkpt lat="50.35312" lon="3.26671">
        <ele>31.6</ele>
        <time>2023-01-22T10:30:32Z</time>
      </trkpt>
      <trkpt lat="50.3531" lon="3.26672">
        <ele>31.7</ele>
        <time>2023-01-22T10:30:33Z</time>
      </trkpt>
      <trkpt lat="50.35309" lon="3.26673">
        <ele>31.7</ele>
        <time>2023-01-22T10:30:34Z</time>
      </trkpt>
      <trkpt lat="50.35308" lon="3.26674">
        <ele>31.7</ele>
        <time>2023-01-22T10:30:35Z</time>
      </trkpt>
      <trkpt lat="50.35307" lon="3.26675">
        <ele>31.7</ele>
        <time>2023-01-22T10:30:36Z</time>
      </trkpt>
      <trkpt lat="50.35305" lon="3.26676">
        <ele>31.7</ele>
        <time>2023-01-22T10:30:37Z</time>
      </trkpt>
      <trkpt lat="50.35304" lon="3.26677">
        <ele>31.7</ele>
        <time>2023-01-22T10:30:38Z</time>
      </trkpt>
      <trkpt lat="50.35303" lon="3.26678">
        <ele>31.7</ele>
        <time>2023-01-22T10:30:39Z</time>
        <extensions>
          <gpxtpx:TrackPointExtension xmlns:gpxtpx="http://www.garmin.com/xmlschemas/TrackPointExtension/v1">
            <gpxtpx:hr>149</gpxtpx:hr>
          </gpxtpx:TrackPointExtension>
        </extensions>
      </trkpt>
      <trkpt lat="50.35302" lon="3.26678">
        <ele>23.93641</ele>
        <time>2023-01-22T10:30:40Z</time>
      </trkpt>
      <trkpt lat="50.35301" lon="3.26678">
        <ele>31.7</ele>
        <time>2023-01-22T10:30:41Z</time>
      </trkpt>
      <trkpt lat="50.353" lon="3.26678">
        <ele>31.8</ele>
        <time>2023-01-22T10:30:42Z</time>
      </trkpt>
      <trkpt lat="50.35299" lon="3.26679">
        <ele>31.8</ele>
        <time>2023-01-22T10:30:43Z</time>
      </trkpt>
      <trkpt lat="50.35298" lon="3.2668">
        <ele>31.8</ele>
        <time>2023-01-22T10:30:44Z</time>
      </trkpt>
      <trkpt lat="50.35297" lon="3.26681">
        <ele>31.8</ele>
        <time>2023-01-22T10:30:45Z</time>
      </trkpt>
      <trkpt lat="50.35295" lon="3.26682">
        <ele>31.9</ele>
        <time>2023-01-22T10:30:46Z</time>
      </trkpt>
      <trkpt lat="50.35294" lon="3.26684">
        <ele>31.9</ele>
        <time>2023-01-22T10:30:47Z</time>
      </trkpt>
      <trkpt lat="50.35293" lon="3.26684">
        <ele>31.9</ele>
        <time>2023-01-22T10:30:48Z</time>
      </trkpt>
      <trkpt lat="50.35291" lon="3.26685">
        <ele>32</ele>
        <time>2023-01-22T10:30:49Z</time>
      </trkpt>
      <trkpt lat="50.35291" lon="3.26686">
        <ele>23.954437</ele>
        <time>2023-01-22T10:30:50Z</time>
      </trkpt>
      <trkpt lat="50.35289" lon="3.26688">
        <ele>32.1</ele>
        <time>2023-01-22T10:30:51Z</time>
      </trkpt>
      <trkpt lat="50.35288" lon="3.26689">
        <ele>32.2</ele>
        <time>2023-01-22T10:30:52Z</time>
      </trkpt>
      <trkpt lat="50.35288" lon="3.2669">
        <ele>32.3</ele>
        <time>2023-01-22T10:30:53Z</time>
      </trkpt>
      <trkpt lat="50.35287" lon="3.26691">
        <ele>32.3</ele>
        <time>2023-01-22T10:30:54Z</time>
      </trkpt>
      <trkpt lat="50.35285" lon="3.26693">
        <ele>32.5</ele>
        <time>2023-01-22T10:30:55Z</time>
      </trkpt>
      <trkpt lat="50.35284" lon="3.26694">
        <ele>32.6</ele>
        <time>2023-01-22T10:30:56Z</time>
      </trkpt>
      <trkpt lat="50.35282" lon="3.26695">
        <ele>32.7</ele>
        <time>2023-01-22T10:30:57Z</time>
      </trkpt>
      <trkpt lat="50.35281" lon="3.26695">
        <ele>32.8</ele>
        <time>2023-01-22T10:30:58Z</time>
      </trkpt>
      <trkpt lat="50.3528" lon="3.26695">
        <ele>32.8</ele>
        <time>2023-01-22T10:30:59Z</time>
      </trkpt>
      <trkpt lat="50.35278" lon="3.26696">
        <ele>24.228617</ele>
        <time>2023-01-22T10:31:00Z</time>
      </trkpt>
      <trkpt lat="50.35277" lon="3.26697">
        <ele>32.8</ele>
        <time>2023-01-22T10:31:01Z</time>
      </trkpt>
      <trkpt lat="50.35276" lon="3.26698">
        <ele>32.7</ele>
        <time>2023-01-22T10:31:02Z</time>
      </trkpt>
      <trkpt lat="50.35276" lon="3.267">
        <ele>32.6</ele>
        <time>2023-01-22T10:31:03Z</time>
      </trkpt>
      <trkpt lat="50.35275" lon="3.26701">
        <ele>32.6</ele>
        <time>2023-01-22T10:31:04Z</time>
      </trkpt>
      <trkpt lat="50.35273" lon="3.26703">
        <ele>32.5</ele>
        <time>2023-01-22T10:31:05Z</time>
      </trkpt>
      <trkpt lat="50.35272" lon="3.26703">
        <ele>32.5</ele>
        <time>2023-01-22T10:31:06Z</time>
      </trkpt>
      <trkpt lat="50.35272" lon="3.26704">
        <ele>32.5</ele>
        <time>2023-01-22T10:31:07Z</time>
      </trkpt>
      <trkpt lat="50.3527" lon="3.26705">
        <ele>32.4</ele>
        <time>2023-01-22T10:31:08Z</time>
      </trkpt>
      <trkpt lat="50.35269" lon="3.26706">
        <ele>32.4</ele>
        <time>2023-01-22T10:31:09Z</time>
      </trkpt>
      <trkpt lat="50.35268" lon="3.26707">
        <ele>24.297873</ele>
        <time>2023-01-22T10:31:10Z</time>
      </trkpt>
      <trkpt lat="50.35267" lon="3.26708">
        <ele>32.4</ele>
        <time>2023-01-22T10:31:11Z</time>
      </trkpt>
      <trkpt lat="50.35266" lon="3.26709">
        <ele>32.4</ele>
        <time>2023-01-22T10:31:12Z</time>
      </trkpt>
      <trkpt lat="50.35265" lon="3.2671">
        <ele>32.4</ele>
        <time>2023-01-22T10:31:13Z</time>
      </trkpt>
      <trkpt lat="50.35265" lon="3.26711">
        <ele>32.4</ele>
        <time>2023-01-22T10:31:14Z</time>
      </trkpt>
      <trkpt lat="50.35263" lon="3.26712">
        <ele>32.4</ele>
        <time>2023-01-22T10:31:15Z</time>
      </trkpt>
      <trkpt lat="50.35263" lon="3.26713">
        <ele>32.4</ele>
        <time>2023-01-22T10:31:16Z</time>
      </trkpt>
      <trkpt lat="50.35262" lon="3.26713">
        <ele>32.4</ele>
        <time>2023-01-22T10:31:17Z</time>
      </trkpt>
      <trkpt lat="50.35261" lon="3.26715">
        <ele>32.4</ele>
        <time>2023-01-22T10:31:18Z</time>
      </trkpt>
      <trkpt lat="50.3526" lon="3.26716">
        <ele>32.5</ele>
        <time>2023-01-22T10:31:19Z</time>
      </trkpt>
      <trkpt lat="50.35258" lon="3.26717">
        <ele>24.049309</ele>
        <time>2023-01-22T10:31:20Z</time>
      </trkpt>
      <trkpt lat="50.35257" lon="3.26718">
        <ele>32.6</ele>
        <time>2023-01-22T10:31:21Z</time>
      </trkpt>
      <trkpt lat="50.35256" lon="3.2672">
        <ele>32.6</ele>
        <time>2023-01-22T10:31:22Z</time>
      </trkpt>
      <trkpt lat="50.35255" lon="3.26721">
        <ele>32.7</ele>
        <time>2023-01-22T10:31:23Z</time>
      </trkpt>
      <trkpt lat="50.35254" lon="3.26723">
        <ele>32.7</ele>
        <time>2023-01-22T10:31:24Z</time>
      </trkpt>
      <trkpt lat="50.35252" lon="3.26724">
        <ele>32.7</ele>
        <time>2023-01-22T10:31:25Z</time>
      </trkpt>
      <trkpt lat="50.35251" lon="3.26725">
        <ele>32.7</ele>
        <time>2023-01-22T10:31:26Z</time>
      </trkpt>
      <trkpt lat="50.3525" lon="3.26727">
        <ele>32.7</ele>
        <time>2023-01-22T10:31:27Z</time>
      </trkpt>
      <trkpt lat="50.35248" lon="3.26728">
        <ele>32.6</ele>
        <time>2023-01-22T10:31:28Z</time>
      </trkpt>
      <trkpt lat="50.35247" lon="3.2673">
        <ele>32.5</ele>
        <time>2023-01-22T10:31:29Z</time>
      </trkpt>
      <trkpt lat="50.35246" lon="3.26731">
        <ele>24.644161</ele>
        <time>2023-01-22T10:31:30Z</time>
      </trkpt>
      <trkpt lat="50.35245" lon="3.26732">
        <ele>32.4</ele>
        <time>2023-01-22T10:31:31Z</time>
      </trkpt>
      <trkpt lat="50.35244" lon="3.26733">
        <ele>32.4</ele>
        <time>2023-01-22T10:31:32Z</time>
      </trkpt>
      <trkpt lat="50.35243" lon="3.26734">
        <ele>32.4</ele>
        <time>2023-01-22T10:31:33Z</time>
        <extensions>
          <gpxtpx:TrackPointExtension xmlns:gpxtpx="http://www.garmin.com/xmlschemas/TrackPointExtension/v1">
            <gpxtpx:hr>149</gpxtpx:hr>
          </gpxtpx:TrackPointExtension>
        </extensions>
      </trkpt>
      <trkpt lat="50.35241" lon="3.26734">
        <ele>32.4</ele>
        <time>2023-01-22T10:31:34Z</time>
      </trkpt>
      <trkpt lat="50.3524" lon="3.26735">
        <ele>32.4</ele>
        <time>2023-01-22T10:31:35Z</time>
      </trkpt>
      <trkpt lat="50.35239" lon="3.26737">
        <ele>32.4</ele>
        <time>2023-01-22T10:31:36Z</time>
      </trkpt>
      <trkpt lat="50.35237" lon="3.26737">
        <ele>32.4</ele>
        <time>2023-01-22T10:31:37Z</time>
      </trkpt>
      <trkpt lat="50.35236" lon="3.26738">
        <ele>32.4</ele>
        <time>2023-01-22T10:31:38Z</time>
      </trkpt>
      <trkpt lat="50.35234" lon="3.2674">
        <ele>32.5</ele>
        <time>2023-01-22T10:31:39Z</time>
      </trkpt>
      <trkpt lat="50.35233" lon="3.26741">
        <ele>24.41172</ele>
        <time>2023-01-22T10:31:40Z</time>
        <extensions>
          <gpxtpx:TrackPointExtension xmlns:gpxtpx="http://www.garmin.com/xmlschemas/TrackPointExtension/v1">
            <gpxtpx:hr>151</gpxtpx:hr>
          </gpxtpx:TrackPointExtension>
        </extensions>
      </trkpt>
      <trkpt lat="50.35233" lon="3.26743">
        <ele>32.5</ele>
        <time>2023-01-22T10:31:41Z</time>
      </trkpt>
      <trkpt lat="50.35232" lon="3.26744">
        <ele>32.5</ele>
        <time>2023-01-22T10:31:42Z</time>
      </trkpt>
      <trkpt lat="50.35231" lon="3.26745">
        <ele>32.5</ele>
        <time>2023-01-22T10:31:43Z</time>
      </trkpt>
      <trkpt lat="50.35231" lon="3.26746">
        <ele>32.5</ele>
        <time>2023-01-22T10:31:44Z</time>
      </trkpt>
      <trkpt lat="50.3523" lon="3.26748">
        <ele>32.5</ele>
        <time>2023-01-22T10:31:45Z</time>
      </trkpt>
      <trkpt lat="50.35228" lon="3.26749">
        <ele>32.6</ele>
        <time>2023-01-22T10:31:46Z</time>
      </trkpt>
      <trkpt lat="50.35227" lon="3.26751">
        <ele>32.6</ele>
        <time>2023-01-22T10:31:47Z</time>
      </trkpt>
      <trkpt lat="50.35225" lon="3.26752">
        <ele>32.7</ele>
        <time>2023-01-22T10:31:48Z</time>
      </trkpt>
      <trkpt lat="50.35224" lon="3.26754">
        <ele>32.7</ele>
        <time>2023-01-22T10:31:49Z</time>
      </trkpt>
      <trkpt lat="50.35223" lon="3.26756">
        <ele>24.445875</ele>
        <time>2023-01-22T10:31:50Z</time>
      </trkpt>
      <trkpt lat="50.35223" lon="3.26757">
        <ele>32.7</ele>
        <time>2023-01-22T10:31:51Z</time>
      </trkpt>
      <trkpt lat="50.35222" lon="3.26758">
        <ele>32.7</ele>
        <time>2023-01-22T10:31:52Z</time>
      </trkpt>
      <trkpt lat="50.35222" lon="3.2676">
        <ele>32.6</ele>
        <time>2023-01-22T10:31:53Z</time>
      </trkpt>
      <trkpt lat="50.3522" lon="3.26761">
        <ele>32.6</ele>
        <time>2023-01-22T10:31:54Z</time>
      </trkpt>
      <trkpt lat="50.35219" lon="3.26763">
        <ele>32.6</ele>
        <time>2023-01-22T10:31:55Z</time>
      </trkpt>
      <trkpt lat="50.35218" lon="3.26764">
        <ele>32.6</ele>
        <time>2023-01-22T10:31:56Z</time>
      </trkpt>
      <trkpt lat="50.35217" lon="3.26767">
        <ele>32.5</ele>
        <time>2023-01-22T10:31:57Z</time>
      </trkpt>
      <trkpt lat="50.35217" lon="3.26768">
        <ele>32.5</ele>
        <time>2023-01-22T10:31:58Z</time>
      </trkpt>
      <trkpt lat="50.35215" lon="3.26769">
        <ele>32.5</ele>
        <time>2023-01-22T10:31:59Z</time>
        <extensions>
          <gpxtpx:TrackPointExtension xmlns:gpxtpx="http://www.garmin.com/xmlschemas/TrackPointExtension/v1">
            <gpxtpx:hr>142</gpxtpx:hr>
          </gpxtpx:TrackPointExtension>
        </extensions>
      </trkpt>
      <trkpt lat="50.35215" lon="3.26771">
        <ele>24.656494</ele>
        <time>2023-01-22T10:32:00Z</time>
      </trkpt>
      <trkpt lat="50.35214" lon="3.26773">
        <ele>32.4</ele>
        <time>2023-01-22T10:32:01Z</time>
      </trkpt>
      <trkpt lat="50.35212" lon="3.26774">
        <ele>32.4</ele>
        <time>2023-01-22T10:32:02Z</time>
      </trkpt>
      <trkpt lat="50.35212" lon="3.26776">
        <ele>32.4</ele>
        <time>2023-01-22T10:32:03Z</time>
      </trkpt>
      <trkpt lat="50.35211" lon="3.26778">
        <ele>32.4</ele>
        <time>2023-01-22T10:32:04Z</time>
      </trkpt>
      <trkpt lat="50.3521" lon="3.2678">
        <ele>32.4</ele>
        <time>2023-01-22T10:32:05Z</time>
      </trkpt>
      <trkpt lat="50.3521" lon="3.26782">
        <ele>32.4</ele>
        <time>2023-01-22T10:32:06Z</time>
      </trkpt>
      <trkpt lat="50.35209" lon="3.26783">
        <ele>32.4</ele>
        <time>2023-01-22T10:32:07Z</time>
      </trkpt>
      <trkpt lat="50.35209" lon="3.26784">
        <ele>32.4</ele>
        <time>2023-01-22T10:32:08Z</time>
      </trkpt>
      <trkpt lat="50.35209" lon="3.26785">
        <ele>32.4</ele>
        <time>2023-01-22T10:32:09Z</time>
      </trkpt>
      <trkpt lat="50.35208" lon="3.26786">
        <ele>24.821575</ele>
        <time>2023-01-22T10:32:10Z</time>
      </trkpt>
      <trkpt lat="50.35207" lon="3.26788">
        <ele>32.4</ele>
        <time>2023-01-22T10:32:11Z</time>
      </trkpt>
      <trkpt lat="50.35207" lon="3.2679">
        <ele>32.4</ele>
        <time>2023-01-22T10:32:12Z</time>
      </trkpt>
      <trkpt lat="50.35206" lon="3.26792">
        <ele>32.4</ele>
        <time>2023-01-22T10:32:13Z</time>
      </trkpt>
      <trkpt lat="50.35206" lon="3.26795">
        <ele>32.4</ele>
        <time>2023-01-22T10:32:14Z</time>
      </trkpt>
      <trkpt lat="50.35205" lon="3.26797">
        <ele>32.4</ele>
        <time>2023-01-22T10:32:15Z</time>
      </trkpt>
      <trkpt lat="50.35204" lon="3.26801">
        <ele>32.4</ele>
        <time>2023-01-22T10:32:16Z</time>
      </trkpt>
      <trkpt lat="50.35204" lon="3.26803">
        <ele>32.4</ele>
        <time>2023-01-22T10:32:17Z</time>
      </trkpt>
      <trkpt lat="50.35203" lon="3.26806">
        <ele>32.4</ele>
        <time>2023-01-22T10:32:18Z</time>
      </trkpt>
      <trkpt lat="50.35203" lon="3.26808">
        <ele>32.4</ele>
        <time>2023-01-22T10:32:19Z</time>
        <extensions>
          <gpxtpx:TrackPointExtension xmlns:gpxtpx="http://www.garmin.com/xmlschemas/TrackPointExtension/v1">
            <gpxtpx:hr>146</gpxtpx:hr>
          </gpxtpx:TrackPointExtension>
        </extensions>
      </trkpt>
      <trkpt lat="50.35202" lon="3.26811">
        <ele>24.844347</ele>
        <time>2023-01-22T10:32:20Z</time>
      </trkpt>
      <trkpt lat="50.35201" lon="3.26813">
        <ele>32.7</ele>
        <time>2023-01-22T10:32:21Z</time>
      </trkpt>
      <trkpt lat="50.35201" lon="3.26814">
        <ele>32.8</ele>
        <time>2023-01-22T10:32:22Z</time>
      </trkpt>
      <trkpt lat="50.352" lon="3.26816">
        <ele>32.9</ele>
        <time>2023-01-22T10:32:23Z</time>
      </trkpt>
      <trkpt lat="50.35199" lon="3.26818">
        <ele>33</ele>
        <time>2023-01-22T10:32:24Z</time>
      </trkpt>
      <trkpt lat="50.35197" lon="3.26819">
        <ele>33.2</ele>
        <time>2023-01-22T10:32:25Z</time>
      </trkpt>
      <trkpt lat="50.35197" lon="3.2682">
        <ele>33.3</ele>
        <time>2023-01-22T10:32:26Z</time>
      </trkpt>
      <trkpt lat="50.35197" lon="3.26822">
        <ele>33.4</ele>
        <time>2023-01-22T10:32:27Z</time>
      </trkpt>
      <trkpt lat="50.35196" lon="3.26824">
        <ele>33.6</ele>
        <time>2023-01-22T10:32:28Z</time>
      </trkpt>
      <trkpt lat="50.35195" lon="3.26826">
        <ele>33.7</ele>
        <time>2023-01-22T10:32:29Z</time>
      </trkpt>
      <trkpt lat="50.35194" lon="3.26827">
        <ele>24.927835</ele>
        <time>2023-01-22T10:32:30Z</time>
      </trkpt>
      <trkpt lat="50.35194" lon="3.26829">
        <ele>33.8</ele>
        <time>2023-01-22T10:32:31Z</time>
      </trkpt>
      <trkpt lat="50.35193" lon="3.2683">
        <ele>33.9</ele>
        <time>2023-01-22T10:32:32Z</time>
      </trkpt>
      <trkpt lat="50.35191" lon="3.26831">
        <ele>33.9</ele>
        <time>2023-01-22T10:32:33Z</time>
      </trkpt>
      <trkpt lat="50.35191" lon="3.26834">
        <ele>34</ele>
        <time>2023-01-22T10:32:34Z</time>
      </trkpt>
      <trkpt lat="50.3519" lon="3.26836">
        <ele>33.8</ele>
        <time>2023-01-22T10:32:35Z</time>
      </trkpt>
      <trkpt lat="50.35189" lon="3.26838">
        <ele>33.6</ele>
        <time>2023-01-22T10:32:36Z</time>
      </trkpt>
      <trkpt lat="50.35189" lon="3.2684">
        <ele>33.4</ele>
        <time>2023-01-22T10:32:37Z</time>
      </trkpt>
      <trkpt lat="50.35188" lon="3.26842">
        <ele>33.3</ele>
        <time>2023-01-22T10:32:38Z</time>
      </trkpt>
      <trkpt lat="50.35187" lon="3.26843">
        <ele>33.2</ele>
        <time>2023-01-22T10:32:39Z</time>
        <extensions>
          <gpxtpx:TrackPointExtension xmlns:gpxtpx="http://www.garmin.com/xmlschemas/TrackPointExtension/v1">
            <gpxtpx:hr>136</gpxtpx:hr>
          </gpxtpx:TrackPointExtension>
        </extensions>
      </trkpt>
      <trkpt lat="50.35186" lon="3.26845">
        <ele>24.92594</ele>
        <time>2023-01-22T10:32:40Z</time>
      </trkpt>
      <trkpt lat="50.35186" lon="3.26847">
        <ele>33</ele>
        <time>2023-01-22T10:32:41Z</time>
      </trkpt>
      <trkpt lat="50.35186" lon="3.26849">
        <ele>32.8</ele>
        <time>2023-01-22T10:32:42Z</time>
      </trkpt>
      <trkpt lat="50.35186" lon="3.2685">
        <ele>32.7</ele>
        <time>2023-01-22T10:32:43Z</time>
      </trkpt>
      <trkpt lat="50.35185" lon="3.26853">
        <ele>32.6</ele>
        <time>2023-01-22T10:32:44Z</time>
      </trkpt>
      <trkpt lat="50.35185" lon="3.26854">
        <ele>32.5</ele>
        <time>2023-01-22T10:32:45Z</time>
      </trkpt>
      <trkpt lat="50.35184" lon="3.26856">
        <ele>32.5</ele>
        <time>2023-01-22T10:32:46Z</time>
      </trkpt>
      <trkpt lat="50.35184" lon="3.26858">
        <ele>32.4</ele>
        <time>2023-01-22T10:32:47Z</time>
      </trkpt>
      <trkpt lat="50.35183" lon="3.26859">
        <ele>32.3</ele>
        <time>2023-01-22T10:32:48Z</time>
      </trkpt>
      <trkpt lat="50.35183" lon="3.26861">
        <ele>32.3</ele>
        <time>2023-01-22T10:32:49Z</time>
      </trkpt>
      <trkpt lat="50.35182" lon="3.26862">
        <ele>24.935427</ele>
        <time>2023-01-22T10:32:50Z</time>
      </trkpt>
      <trkpt lat="50.35181" lon="3.26863">
        <ele>32.4</ele>
        <time>2023-01-22T10:32:51Z</time>
      </trkpt>
      <trkpt lat="50.35181" lon="3.26865">
        <ele>32.5</ele>
        <time>2023-01-22T10:32:52Z</time>
      </trkpt>
      <trkpt lat="50.3518" lon="3.26867">
        <ele>32.5</ele>
        <time>2023-01-22T10:32:53Z</time>
      </trkpt>
      <trkpt lat="50.3518" lon="3.26869">
        <ele>32.6</ele>
        <time>2023-01-22T10:32:54Z</time>
      </trkpt>
      <trkpt lat="50.35179" lon="3.2687">
        <ele>32.7</ele>
        <time>2023-01-22T10:32:55Z</time>
      </trkpt>
      <trkpt lat="50.35178" lon="3.26872">
        <ele>32.7</ele>
        <time>2023-01-22T10:32:56Z</time>
      </trkpt>
      <trkpt lat="50.35178" lon="3.26874">
        <ele>32.8</ele>
        <time>2023-01-22T10:32:57Z</time>
      </trkpt>
      <trkpt lat="50.35177" lon="3.26876">
        <ele>32.9</ele>
        <time>2023-01-22T10:32:58Z</time>
      </trkpt>
      <trkpt lat="50.35176" lon="3.26878">
        <ele>33</ele>
        <time>2023-01-22T10:32:59Z</time>
        <extensions>
          <gpxtpx:TrackPointExtension xmlns:gpxtpx="http://www.garmin.com/xmlschemas/TrackPointExtension/v1">
            <gpxtpx:hr>132</gpxtpx:hr>
          </gpxtpx:TrackPointExtension>
        </extensions>
      </trkpt>
      <trkpt lat="50.35175" lon="3.2688">
        <ele>25.0322</ele>
        <time>2023-01-22T10:33:00Z</time>
      </trkpt>
      <trkpt lat="50.35175" lon="3.26882">
        <ele>33.1</ele>
        <time>2023-01-22T10:33:01Z</time>
      </trkpt>
      <trkpt lat="50.35174" lon="3.26884">
        <ele>33.2</ele>
        <time>2023-01-22T10:33:02Z</time>
      </trkpt>
      <trkpt lat="50.35173" lon="3.26887">
        <ele>33.3</ele>
        <time>2023-01-22T10:33:03Z</time>
      </trkpt>
      <trkpt lat="50.35173" lon="3.26889">
        <ele>33.3</ele>
        <time>2023-01-22T10:33:04Z</time>
      </trkpt>
      <trkpt lat="50.35173" lon="3.26891">
        <ele>33.3</ele>
        <time>2023-01-22T10:33:05Z</time>
      </trkpt>
      <trkpt lat="50.35172" lon="3.26894">
        <ele>33.5</ele>
        <time>2023-01-22T10:33:06Z</time>
      </trkpt>
      <trkpt lat="50.35171" lon="3.26896">
        <ele>33.6</ele>
        <time>2023-01-22T10:33:07Z</time>
      </trkpt>
      <trkpt lat="50.3517" lon="3.26898">
        <ele>33.6</ele>
        <time>2023-01-22T10:33:08Z</time>
      </trkpt>
      <trkpt lat="50.3517" lon="3.26899">
        <ele>33.7</ele>
        <time>2023-01-22T10:33:09Z</time>
      </trkpt>
      <trkpt lat="50.35169" lon="3.26901">
        <ele>25.11569</ele>
        <time>2023-01-22T10:33:10Z</time>
      </trkpt>
      <trkpt lat="50.35169" lon="3.26903">
        <ele>33.7</ele>
        <time>2023-01-22T10:33:11Z</time>
      </trkpt>
      <trkpt lat="50.35168" lon="3.26905">
        <ele>33.9</ele>
        <time>2023-01-22T10:33:12Z</time>
      </trkpt>
      <trkpt lat="50.35167" lon="3.26907">
        <ele>34</ele>
        <time>2023-01-22T10:33:13Z</time>
      </trkpt>
      <trkpt lat="50.35167" lon="3.26909">
        <ele>34</ele>
        <time>2023-01-22T10:33:14Z</time>
      </trkpt>
      <trkpt lat="50.35165" lon="3.2691">
        <ele>34</ele>
        <time>2023-01-22T10:33:15Z</time>
      </trkpt>
      <trkpt lat="50.35165" lon="3.26912">
        <ele>34</ele>
        <time>2023-01-22T10:33:16Z</time>
      </trkpt>
      <trkpt lat="50.35164" lon="3.26914">
        <ele>34</ele>
        <time>2023-01-22T10:33:17Z</time>
      </trkpt>
      <trkpt lat="50.35164" lon="3.26915">
        <ele>34</ele>
        <time>2023-01-22T10:33:18Z</time>
      </trkpt>
      <trkpt lat="50.35162" lon="3.26917">
        <ele>34</ele>
        <time>2023-01-22T10:33:19Z</time>
        <extensions>
          <gpxtpx:TrackPointExtension xmlns:gpxtpx="http://www.garmin.com/xmlschemas/TrackPointExtension/v1">
            <gpxtpx:hr>135</gpxtpx:hr>
          </gpxtpx:TrackPointExtension>
        </extensions>
      </trkpt>
      <trkpt lat="50.35162" lon="3.26919">
        <ele>25.11664</ele>
        <time>2023-01-22T10:33:20Z</time>
      </trkpt>
      <trkpt lat="50.35161" lon="3.2692">
        <ele>33.8</ele>
        <time>2023-01-22T10:33:21Z</time>
      </trkpt>
      <trkpt lat="50.3516" lon="3.26921">
        <ele>33.7</ele>
        <time>2023-01-22T10:33:22Z</time>
      </trkpt>
      <trkpt lat="50.3516" lon="3.26924">
        <ele>33.6</ele>
        <time>2023-01-22T10:33:23Z</time>
      </trkpt>
      <trkpt lat="50.35159" lon="3.26925">
        <ele>33.5</ele>
        <time>2023-01-22T10:33:24Z</time>
      </trkpt>
      <trkpt lat="50.35159" lon="3.26927">
        <ele>33.5</ele>
        <time>2023-01-22T10:33:25Z</time>
      </trkpt>
      <trkpt lat="50.35158" lon="3.2693">
        <ele>33.4</ele>
        <time>2023-01-22T10:33:26Z</time>
      </trkpt>
      <trkpt lat="50.35158" lon="3.26931">
        <ele>33.3</ele>
        <time>2023-01-22T10:33:27Z</time>
      </trkpt>
      <trkpt lat="50.35158" lon="3.26933">
        <ele>33.2</ele>
        <time>2023-01-22T10:33:28Z</time>
      </trkpt>
      <trkpt lat="50.35157" lon="3.26935">
        <ele>33.1</ele>
        <time>2023-01-22T10:33:29Z</time>
      </trkpt>
      <trkpt lat="50.35157" lon="3.26937">
        <ele>25.359524</ele>
        <time>2023-01-22T10:33:30Z</time>
      </trkpt>
      <trkpt lat="50.35156" lon="3.26939">
        <ele>33</ele>
        <time>2023-01-22T10:33:31Z</time>
      </trkpt>
      <trkpt lat="50.35156" lon="3.26941">
        <ele>32.9</ele>
        <time>2023-01-22T10:33:32Z</time>
      </trkpt>
      <trkpt lat="50.35156" lon="3.26943">
        <ele>32.9</ele>
        <time>2023-01-22T10:33:33Z</time>
      </trkpt>
      <trkpt lat="50.35155" lon="3.26945">
        <ele>32.8</ele>
        <time>2023-01-22T10:33:34Z</time>
      </trkpt>
      <trkpt lat="50.35155" lon="3.26947">
        <ele>32.8</ele>
        <time>2023-01-22T10:33:35Z</time>
      </trkpt>
      <trkpt lat="50.35154" lon="3.2695">
        <ele>32.8</ele>
        <time>2023-01-22T10:33:36Z</time>
      </trkpt>
      <trkpt lat="50.35153" lon="3.26952">
        <ele>32.8</ele>
        <time>2023-01-22T10:33:37Z</time>
      </trkpt>
      <trkpt lat="50.35153" lon="3.26953">
        <ele>32.8</ele>
        <time>2023-01-22T10:33:38Z</time>
      </trkpt>
      <trkpt lat="50.35152" lon="3.26955">
        <ele>32.8</ele>
        <time>2023-01-22T10:33:39Z</time>
        <extensions>
          <gpxtpx:TrackPointExtension xmlns:gpxtpx="http://www.garmin.com/xmlschemas/TrackPointExtension/v1">
            <gpxtpx:hr>133</gpxtpx:hr>
          </gpxtpx:TrackPointExtension>
        </extensions>
      </trkpt>
      <trkpt lat="50.35152" lon="3.26957">
        <ele>25.541689</ele>
        <time>2023-01-22T10:33:40Z</time>
      </trkpt>
      <trkpt lat="50.35151" lon="3.26958">
        <ele>32.9</ele>
        <time>2023-01-22T10:33:41Z</time>
      </trkpt>
      <trkpt lat="50.35151" lon="3.2696">
        <ele>32.9</ele>
        <time>2023-01-22T10:33:42Z</time>
      </trkpt>
      <trkpt lat="50.3515" lon="3.26961">
        <ele>33</ele>
        <time>2023-01-22T10:33:43Z</time>
      </trkpt>
      <trkpt lat="50.35149" lon="3.26963">
        <ele>33</ele>
        <time>2023-01-22T10:33:44Z</time>
      </trkpt>
      <trkpt lat="50.35149" lon="3.26965">
        <ele>33</ele>
        <time>2023-01-22T10:33:45Z</time>
      </trkpt>
      <trkpt lat="50.35148" lon="3.26968">
        <ele>33.1</ele>
        <time>2023-01-22T10:33:46Z</time>
      </trkpt>
      <trkpt lat="50.35148" lon="3.2697">
        <ele>33</ele>
        <time>2023-01-22T10:33:47Z</time>
      </trkpt>
      <trkpt lat="50.35147" lon="3.26972">
        <ele>33.1</ele>
        <time>2023-01-22T10:33:48Z</time>
      </trkpt>
      <trkpt lat="50.35147" lon="3.26973">
        <ele>33.2</ele>
        <time>2023-01-22T10:33:49Z</time>
      </trkpt>
      <trkpt lat="50.35146" lon="3.26975">
        <ele>25.376602</ele>
        <time>2023-01-22T10:33:50Z</time>
      </trkpt>
      <trkpt lat="50.35146" lon="3.26978">
        <ele>33.2</ele>
        <time>2023-01-22T10:33:51Z</time>
      </trkpt>
      <trkpt lat="50.35145" lon="3.2698">
        <ele>33.3</ele>
        <time>2023-01-22T10:33:52Z</time>
      </trkpt>
      <trkpt lat="50.35144" lon="3.26983">
        <ele>33.4</ele>
        <time>2023-01-22T10:33:53Z</time>
      </trkpt>
      <trkpt lat="50.35143" lon="3.26985">
        <ele>33.5</ele>
        <time>2023-01-22T10:33:54Z</time>
      </trkpt>
      <trkpt lat="50.35143" lon="3.26987">
        <ele>33.6</ele>
        <time>2023-01-22T10:33:55Z</time>
      </trkpt>
      <trkpt lat="50.35142" lon="3.26989">
        <ele>33.7</ele>
        <time>2023-01-22T10:33:56Z</time>
      </trkpt>
      <trkpt lat="50.35142" lon="3.2699">
        <ele>33.7</ele>
        <time>2023-01-22T10:33:57Z</time>
      </trkpt>
      <trkpt lat="50.35141" lon="3.26992">
        <ele>33.7</ele>
        <time>2023-01-22T10:33:58Z</time>
      </trkpt>
      <trkpt lat="50.35141" lon="3.26994">
        <ele>33.8</ele>
        <time>2023-01-22T10:33:59Z</time>
        <extensions>
          <gpxtpx:TrackPointExtension xmlns:gpxtpx="http://www.garmin.com/xmlschemas/TrackPointExtension/v1">
            <gpxtpx:hr>132</gpxtpx:hr>
          </gpxtpx:TrackPointExtension>
        </extensions>
      </trkpt>
      <trkpt lat="50.3514" lon="3.26996">
        <ele>25.593872</ele>
        <time>2023-01-22T10:34:00Z</time>
      </trkpt>
      <trkpt lat="50.3514" lon="3.26997">
        <ele>33.9</ele>
        <time>2023-01-22T10:34:01Z</time>
      </trkpt>
      <trkpt lat="50.35139" lon="3.27">
        <ele>34</ele>
        <time>2023-01-22T10:34:02Z</time>
      </trkpt>
      <trkpt lat="50.35138" lon="3.27002">
        <ele>33.9</ele>
        <time>2023-01-22T10:34:03Z</time>
      </trkpt>
      <trkpt lat="50.35137" lon="3.27004">
        <ele>33.9</ele>
        <time>2023-01-22T10:34:04Z</time>
      </trkpt>
      <trkpt lat="50.35136" lon="3.27006">
        <ele>33.8</ele>
        <time>2023-01-22T10:34:05Z</time>
      </trkpt>
      <trkpt lat="50.35135" lon="3.27008">
        <ele>33.8</ele>
        <time>2023-01-22T10:34:06Z</time>
      </trkpt>
      <trkpt lat="50.35135" lon="3.27009">
        <ele>33.7</ele>
        <time>2023-01-22T10:34:07Z</time>
      </trkpt>
      <trkpt lat="50.35134" lon="3.27011">
        <ele>33.7</ele>
        <time>2023-01-22T10:34:08Z</time>
      </trkpt>
      <trkpt lat="50.35133" lon="3.27013">
        <ele>33.6</ele>
        <time>2023-01-22T10:34:09Z</time>
      </trkpt>
      <trkpt lat="50.35132" lon="3.27015">
        <ele>25.703932</ele>
        <time>2023-01-22T10:34:10Z</time>
      </trkpt>
      <trkpt lat="50.35132" lon="3.27017">
        <ele>33.5</ele>
        <time>2023-01-22T10:34:11Z</time>
      </trkpt>
      <trkpt lat="50.35132" lon="3.27019">
        <ele>33.5</ele>
        <time>2023-01-22T10:34:12Z</time>
      </trkpt>
      <trkpt lat="50.35132" lon="3.2702">
        <ele>33.5</ele>
        <time>2023-01-22T10:34:13Z</time>
      </trkpt>
      <trkpt lat="50.35132" lon="3.27022">
        <ele>33.4</ele>
        <time>2023-01-22T10:34:14Z</time>
      </trkpt>
      <trkpt lat="50.35131" lon="3.27024">
        <ele>33.4</ele>
        <time>2023-01-22T10:34:15Z</time>
      </trkpt>
      <trkpt lat="50.35131" lon="3.27026">
        <ele>33.3</ele>
        <time>2023-01-22T10:34:16Z</time>
      </trkpt>
      <trkpt lat="50.35131" lon="3.27028">
        <ele>33.3</ele>
        <time>2023-01-22T10:34:17Z</time>
      </trkpt>
      <trkpt lat="50.3513" lon="3.2703">
        <ele>33.3</ele>
        <time>2023-01-22T10:34:18Z</time>
      </trkpt>
      <trkpt lat="50.3513" lon="3.27032">
        <ele>33.2</ele>
        <time>2023-01-22T10:34:19Z</time>
        <extensions>
          <gpxtpx:TrackPointExtension xmlns:gpxtpx="http://www.garmin.com/xmlschemas/TrackPointExtension/v1">
            <gpxtpx:hr>128</gpxtpx:hr>
          </gpxtpx:TrackPointExtension>
        </extensions>
      </trkpt>
      <trkpt lat="50.3513" lon="3.27033">
        <ele>25.531252</ele>
        <time>2023-01-22T10:34:20Z</time>
      </trkpt>
      <trkpt lat="50.35129" lon="3.27034">
        <ele>33.2</ele>
        <time>2023-01-22T10:34:21Z</time>
      </trkpt>
      <trkpt lat="50.35128" lon="3.27035">
        <ele>33.2</ele>
        <time>2023-01-22T10:34:22Z</time>
      </trkpt>
      <trkpt lat="50.35127" lon="3.27037">
        <ele>33.2</ele>
        <time>2023-01-22T10:34:23Z</time>
      </trkpt>
      <trkpt lat="50.35127" lon="3.27039">
        <ele>33.2</ele>
        <time>2023-01-22T10:34:24Z</time>
      </trkpt>
      <trkpt lat="50.35126" lon="3.27041">
        <ele>33.2</ele>
        <time>2023-01-22T10:34:25Z</time>
      </trkpt>
      <trkpt lat="50.35125" lon="3.27042">
        <ele>33.2</ele>
        <time>2023-01-22T10:34:26Z</time>
      </trkpt>
      <trkpt lat="50.35125" lon="3.27044">
        <ele>33.2</ele>
        <time>2023-01-22T10:34:27Z</time>
      </trkpt>
      <trkpt lat="50.35125" lon="3.27044">
        <ele>33.2</ele>
        <time>2023-01-22T10:34:28Z</time>
      </trkpt>
      <trkpt lat="50.35125" lon="3.27044">
        <ele>33.2</ele>
        <time>2023-01-22T10:34:29Z</time>
      </trkpt>
      <trkpt lat="50.35125" lon="3.27044">
        <ele>25.482864</ele>
        <time>2023-01-22T10:34:30Z</time>
      </trkpt>
      <trkpt lat="50.35125" lon="3.27044">
        <ele>33.2</ele>
        <time>2023-01-22T10:34:31Z</time>
      </trkpt>
      <trkpt lat="50.35125" lon="3.27044">
        <ele>33.2</ele>
        <time>2023-01-22T10:34:32Z</time>
      </trkpt>
      <trkpt lat="50.35125" lon="3.27044">
        <ele>33.2</ele>
        <time>2023-01-22T10:34:33Z</time>
      </trkpt>
      <trkpt lat="50.35125" lon="3.27043">
        <ele>33.2</ele>
        <time>2023-01-22T10:34:34Z</time>
      </trkpt>
      <trkpt lat="50.35125" lon="3.27043">
        <ele>33.2</ele>
        <time>2023-01-22T10:34:35Z</time>
      </trkpt>
      <trkpt lat="50.35125" lon="3.27043">
        <ele>33.2</ele>
        <time>2023-01-22T10:34:36Z</time>
      </trkpt>
      <trkpt lat="50.35125" lon="3.27043">
        <ele>33.2</ele>
        <time>2023-01-22T10:34:37Z</time>
      </trkpt>
      <trkpt lat="50.35125" lon="3.27043">
        <ele>33.2</ele>
        <time>2023-01-22T10:34:38Z</time>
      </trkpt>
      <trkpt lat="50.35126" lon="3.27044">
        <ele>33.2</ele>
        <time>2023-01-22T10:34:39Z</time>
        <extensions>
          <gpxtpx:TrackPointExtension xmlns:gpxtpx="http://www.garmin.com/xmlschemas/TrackPointExtension/v1">
            <gpxtpx:hr>127</gpxtpx:hr>
          </gpxtpx:TrackPointExtension>
        </extensions>
      </trkpt>
      <trkpt lat="50.35126" lon="3.27046">
        <ele>25.494251</ele>
        <time>2023-01-22T10:34:40Z</time>
      </trkpt>
      <trkpt lat="50.35125" lon="3.27048">
        <ele>33.1</ele>
        <time>2023-01-22T10:34:41Z</time>
      </trkpt>
      <trkpt lat="50.35125" lon="3.2705">
        <ele>33.1</ele>
        <time>2023-01-22T10:34:42Z</time>
      </trkpt>
      <trkpt lat="50.35124" lon="3.27051">
        <ele>33.1</ele>
        <time>2023-01-22T10:34:43Z</time>
      </trkpt>
      <trkpt lat="50.35124" lon="3.27053">
        <ele>33.1</ele>
        <time>2023-01-22T10:34:44Z</time>
      </trkpt>
      <trkpt lat="50.35123" lon="3.27055">
        <ele>33.1</ele>
        <time>2023-01-22T10:34:45Z</time>
      </trkpt>
      <trkpt lat="50.35122" lon="3.27057">
        <ele>33.2</ele>
        <time>2023-01-22T10:34:46Z</time>
      </trkpt>
      <trkpt lat="50.35122" lon="3.27058">
        <ele>33.2</ele>
        <time>2023-01-22T10:34:47Z</time>
      </trkpt>
      <trkpt lat="50.35122" lon="3.2706">
        <ele>33.2</ele>
        <time>2023-01-22T10:34:48Z</time>
      </trkpt>
      <trkpt lat="50.35121" lon="3.27061">
        <ele>33.2</ele>
        <time>2023-01-22T10:34:49Z</time>
      </trkpt>
      <trkpt lat="50.3512" lon="3.27063">
        <ele>25.11664</ele>
        <time>2023-01-22T10:34:50Z</time>
      </trkpt>
      <trkpt lat="50.3512" lon="3.27065">
        <ele>33.3</ele>
        <time>2023-01-22T10:34:51Z</time>
      </trkpt>
      <trkpt lat="50.35119" lon="3.27066">
        <ele>33.3</ele>
        <time>2023-01-22T10:34:52Z</time>
      </trkpt>
      <trkpt lat="50.35119" lon="3.27068">
        <ele>33.3</ele>
        <time>2023-01-22T10:34:53Z</time>
      </trkpt>
      <trkpt lat="50.35118" lon="3.2707">
        <ele>33.4</ele>
        <time>2023-01-22T10:34:54Z</time>
      </trkpt>
      <trkpt lat="50.35117" lon="3.27073">
        <ele>33.4</ele>
        <time>2023-01-22T10:34:55Z</time>
      </trkpt>
      <trkpt lat="50.35117" lon="3.27074">
        <ele>33.5</ele>
        <time>2023-01-22T10:34:56Z</time>
      </trkpt>
      <trkpt lat="50.35116" lon="3.27075">
        <ele>33.5</ele>
        <time>2023-01-22T10:34:57Z</time>
      </trkpt>
      <trkpt lat="50.35115" lon="3.27076">
        <ele>33.6</ele>
        <time>2023-01-22T10:34:58Z</time>
      </trkpt>
      <trkpt lat="50.35115" lon="3.27077">
        <ele>33.6</ele>
        <time>2023-01-22T10:34:59Z</time>
        <extensions>
          <gpxtpx:TrackPointExtension xmlns:gpxtpx="http://www.garmin.com/xmlschemas/TrackPointExtension/v1">
            <gpxtpx:hr>134</gpxtpx:hr>
          </gpxtpx:TrackPointExtension>
        </extensions>
      </trkpt>
      <trkpt lat="50.35114" lon="3.27079">
        <ele>25.34719</ele>
        <time>2023-01-22T10:35:00Z</time>
      </trkpt>
      <trkpt lat="50.35113" lon="3.27081">
        <ele>33.8</ele>
        <time>2023-01-22T10:35:01Z</time>
      </trkpt>
      <trkpt lat="50.35113" lon="3.27083">
        <ele>33.8</ele>
        <time>2023-01-22T10:35:02Z</time>
      </trkpt>
      <trkpt lat="50.35112" lon="3.27085">
        <ele>33.9</ele>
        <time>2023-01-22T10:35:03Z</time>
      </trkpt>
      <trkpt lat="50.35112" lon="3.27086">
        <ele>33.9</ele>
        <time>2023-01-22T10:35:04Z</time>
      </trkpt>
      <trkpt lat="50.35112" lon="3.27087">
        <ele>33.9</ele>
        <time>2023-01-22T10:35:05Z</time>
      </trkpt>
      <trkpt lat="50.35111" lon="3.27089">
        <ele>34</ele>
        <time>2023-01-22T10:35:06Z</time>
      </trkpt>
      <trkpt lat="50.3511" lon="3.27091">
        <ele>34</ele>
        <time>2023-01-22T10:35:07Z</time>
      </trkpt>
      <trkpt lat="50.3511" lon="3.27093">
        <ele>34</ele>
        <time>2023-01-22T10:35:08Z</time>
      </trkpt>
      <trkpt lat="50.35109" lon="3.27094">
        <ele>34</ele>
        <time>2023-01-22T10:35:09Z</time>
      </trkpt>
      <trkpt lat="50.35109" lon="3.27096">
        <ele>25.437325</ele>
        <time>2023-01-22T10:35:10Z</time>
      </trkpt>
      <trkpt lat="50.35108" lon="3.27097">
        <ele>34</ele>
        <time>2023-01-22T10:35:11Z</time>
      </trkpt>
      <trkpt lat="50.35107" lon="3.271">
        <ele>34</ele>
        <time>2023-01-22T10:35:12Z</time>
      </trkpt>
      <trkpt lat="50.35106" lon="3.27102">
        <ele>34</ele>
        <time>2023-01-22T10:35:13Z</time>
      </trkpt>
      <trkpt lat="50.35106" lon="3.27104">
        <ele>34</ele>
        <time>2023-01-22T10:35:14Z</time>
      </trkpt>
      <trkpt lat="50.35104" lon="3.27107">
        <ele>34</ele>
        <time>2023-01-22T10:35:15Z</time>
      </trkpt>
      <trkpt lat="50.35104" lon="3.27109">
        <ele>34</ele>
        <time>2023-01-22T10:35:16Z</time>
      </trkpt>
      <trkpt lat="50.35103" lon="3.27112">
        <ele>34</ele>
        <time>2023-01-22T10:35:17Z</time>
      </trkpt>
      <trkpt lat="50.35103" lon="3.27113">
        <ele>33.9</ele>
        <time>2023-01-22T10:35:18Z</time>
      </trkpt>
      <trkpt lat="50.35103" lon="3.27115">
        <ele>33.8</ele>
        <time>2023-01-22T10:35:19Z</time>
        <extensions>
          <gpxtpx:TrackPointExtension xmlns:gpxtpx="http://www.garmin.com/xmlschemas/TrackPointExtension/v1">
            <gpxtpx:hr>130</gpxtpx:hr>
          </gpxtpx:TrackPointExtension>
        </extensions>
      </trkpt>
      <trkpt lat="50.35102" lon="3.27116">
        <ele>25.248518</ele>
        <time>2023-01-22T10:35:20Z</time>
      </trkpt>
      <trkpt lat="50.35102" lon="3.27118">
        <ele>33.7</ele>
        <time>2023-01-22T10:35:21Z</time>
      </trkpt>
      <trkpt lat="50.35101" lon="3.27119">
        <ele>33.6</ele>
        <time>2023-01-22T10:35:22Z</time>
      </trkpt>
      <trkpt lat="50.35101" lon="3.27121">
        <ele>33.6</ele>
        <time>2023-01-22T10:35:23Z</time>
      </trkpt>
      <trkpt lat="50.351" lon="3.27123">
        <ele>33.5</ele>
        <time>2023-01-22T10:35:24Z</time>
      </trkpt>
      <trkpt lat="50.351" lon="3.27125">
        <ele>33.4</ele>
        <time>2023-01-22T10:35:25Z</time>
      </trkpt>
      <trkpt lat="50.35098" lon="3.27127">
        <ele>33.4</ele>
        <time>2023-01-22T10:35:26Z</time>
      </trkpt>
      <trkpt lat="50.35098" lon="3.27129">
        <ele>33.4</ele>
        <time>2023-01-22T10:35:27Z</time>
      </trkpt>
      <trkpt lat="50.35097" lon="3.2713">
        <ele>33.3</ele>
        <time>2023-01-22T10:35:28Z</time>
      </trkpt>
      <trkpt lat="50.35097" lon="3.27132">
        <ele>33.3</ele>
        <time>2023-01-22T10:35:29Z</time>
      </trkpt>
      <trkpt lat="50.35096" lon="3.27135">
        <ele>25.17641</ele>
        <time>2023-01-22T10:35:30Z</time>
      </trkpt>
      <trkpt lat="50.35096" lon="3.27137">
        <ele>33.2</ele>
        <time>2023-01-22T10:35:31Z</time>
      </trkpt>
      <trkpt lat="50.35096" lon="3.27139">
        <ele>33.1</ele>
        <time>2023-01-22T10:35:32Z</time>
      </trkpt>
      <trkpt lat="50.35095" lon="3.27141">
        <ele>33.1</ele>
        <time>2023-01-22T10:35:33Z</time>
      </trkpt>
      <trkpt lat="50.35095" lon="3.27143">
        <ele>33.2</ele>
        <time>2023-01-22T10:35:34Z</time>
      </trkpt>
      <trkpt lat="50.35094" lon="3.27144">
        <ele>33.2</ele>
        <time>2023-01-22T10:35:35Z</time>
      </trkpt>
      <trkpt lat="50.35093" lon="3.27146">
        <ele>33.3</ele>
        <time>2023-01-22T10:35:36Z</time>
      </trkpt>
      <trkpt lat="50.35093" lon="3.27147">
        <ele>33.3</ele>
        <time>2023-01-22T10:35:37Z</time>
      </trkpt>
      <trkpt lat="50.35092" lon="3.27148">
        <ele>33.4</ele>
        <time>2023-01-22T10:35:38Z</time>
      </trkpt>
      <trkpt lat="50.35091" lon="3.27151">
        <ele>33.4</ele>
        <time>2023-01-22T10:35:39Z</time>
        <extensions>
          <gpxtpx:TrackPointExtension xmlns:gpxtpx="http://www.garmin.com/xmlschemas/TrackPointExtension/v1">
            <gpxtpx:hr>127</gpxtpx:hr>
          </gpxtpx:TrackPointExtension>
        </extensions>
      </trkpt>
      <trkpt lat="50.35091" lon="3.27153">
        <ele>25.206772</ele>
        <time>2023-01-22T10:35:40Z</time>
      </trkpt>
      <trkpt lat="50.35091" lon="3.27155">
        <ele>33.5</ele>
        <time>2023-01-22T10:35:41Z</time>
      </trkpt>
      <trkpt lat="50.3509" lon="3.27157">
        <ele>33.5</ele>
        <time>2023-01-22T10:35:42Z</time>
      </trkpt>
      <trkpt lat="50.35089" lon="3.27159">
        <ele>33.6</ele>
        <time>2023-01-22T10:35:43Z</time>
      </trkpt>
      <trkpt lat="50.35089" lon="3.27161">
        <ele>33.6</ele>
        <time>2023-01-22T10:35:44Z</time>
      </trkpt>
      <trkpt lat="50.35088" lon="3.27164">
        <ele>33.6</ele>
        <time>2023-01-22T10:35:45Z</time>
      </trkpt>
      <trkpt lat="50.35088" lon="3.27166">
        <ele>33.7</ele>
        <time>2023-01-22T10:35:46Z</time>
      </trkpt>
      <trkpt lat="50.35088" lon="3.27168">
        <ele>33.6</ele>
        <time>2023-01-22T10:35:47Z</time>
      </trkpt>
      <trkpt lat="50.35088" lon="3.2717">
        <ele>33.6</ele>
        <time>2023-01-22T10:35:48Z</time>
      </trkpt>
      <trkpt lat="50.35088" lon="3.27173">
        <ele>33.5</ele>
        <time>2023-01-22T10:35:49Z</time>
      </trkpt>
      <trkpt lat="50.35088" lon="3.27175">
        <ele>25.096716</ele>
        <time>2023-01-22T10:35:50Z</time>
      </trkpt>
      <trkpt lat="50.35087" lon="3.27176">
        <ele>33.4</ele>
        <time>2023-01-22T10:35:51Z</time>
      </trkpt>
      <trkpt lat="50.35086" lon="3.27178">
        <ele>33.4</ele>
        <time>2023-01-22T10:35:52Z</time>
      </trkpt>
      <trkpt lat="50.35086" lon="3.2718">
        <ele>33.4</ele>
        <time>2023-01-22T10:35:53Z</time>
      </trkpt>
      <trkpt lat="50.35085" lon="3.27182">
        <ele>33.4</ele>
        <time>2023-01-22T10:35:54Z</time>
      </trkpt>
      <trkpt lat="50.35084" lon="3.27184">
        <ele>33.3</ele>
        <time>2023-01-22T10:35:55Z</time>
      </trkpt>
      <trkpt lat="50.35083" lon="3.27187">
        <ele>33.3</ele>
        <time>2023-01-22T10:35:56Z</time>
      </trkpt>
      <trkpt lat="50.35083" lon="3.27189">
        <ele>33.2</ele>
        <time>2023-01-22T10:35:57Z</time>
      </trkpt>
      <trkpt lat="50.35082" lon="3.2719">
        <ele>33.2</ele>
        <time>2023-01-22T10:35:58Z</time>
      </trkpt>
      <trkpt lat="50.35082" lon="3.27191">
        <ele>33.2</ele>
        <time>2023-01-22T10:35:59Z</time>
        <extensions>
          <gpxtpx:TrackPointExtension xmlns:gpxtpx="http://www.garmin.com/xmlschemas/TrackPointExtension/v1">
            <gpxtpx:hr>123</gpxtpx:hr>
          </gpxtpx:TrackPointExtension>
        </extensions>
      </trkpt>
      <trkpt lat="50.35081" lon="3.27193">
        <ele>25.080585</ele>
        <time>2023-01-22T10:36:00Z</time>
      </trkpt>
      <trkpt lat="50.3508" lon="3.27195">
        <ele>33.1</ele>
        <time>2023-01-22T10:36:01Z</time>
      </trkpt>
      <trkpt lat="50.3508" lon="3.27197">
        <ele>33</ele>
        <time>2023-01-22T10:36:02Z</time>
      </trkpt>
      <trkpt lat="50.3508" lon="3.27199">
        <ele>33</ele>
        <time>2023-01-22T10:36:03Z</time>
      </trkpt>
      <trkpt lat="50.35079" lon="3.272">
        <ele>33</ele>
        <time>2023-01-22T10:36:04Z</time>
      </trkpt>
      <trkpt lat="50.35079" lon="3.27202">
        <ele>32.9</ele>
        <time>2023-01-22T10:36:05Z</time>
      </trkpt>
      <trkpt lat="50.35078" lon="3.27203">
        <ele>32.9</ele>
        <time>2023-01-22T10:36:06Z</time>
      </trkpt>
      <trkpt lat="50.35077" lon="3.27204">
        <ele>32.9</ele>
        <time>2023-01-22T10:36:07Z</time>
      </trkpt>
      <trkpt lat="50.35077" lon="3.27206">
        <ele>32.9</ele>
        <time>2023-01-22T10:36:08Z</time>
      </trkpt>
      <trkpt lat="50.35076" lon="3.27208">
        <ele>32.9</ele>
        <time>2023-01-22T10:36:09Z</time>
      </trkpt>
      <trkpt lat="50.35075" lon="3.27209">
        <ele>25.083433</ele>
        <time>2023-01-22T10:36:10Z</time>
      </trkpt>
      <trkpt lat="50.35075" lon="3.2721">
        <ele>32.9</ele>
        <time>2023-01-22T10:36:11Z</time>
      </trkpt>
      <trkpt lat="50.35075" lon="3.27213">
        <ele>32.9</ele>
        <time>2023-01-22T10:36:12Z</time>
      </trkpt>
      <trkpt lat="50.35074" lon="3.27215">
        <ele>32.8</ele>
        <time>2023-01-22T10:36:13Z</time>
      </trkpt>
      <trkpt lat="50.35074" lon="3.27217">
        <ele>32.8</ele>
        <time>2023-01-22T10:36:14Z</time>
      </trkpt>
      <trkpt lat="50.35073" lon="3.27219">
        <ele>32.8</ele>
        <time>2023-01-22T10:36:15Z</time>
      </trkpt>
      <trkpt lat="50.35072" lon="3.27221">
        <ele>32.8</ele>
        <time>2023-01-22T10:36:16Z</time>
      </trkpt>
      <trkpt lat="50.35072" lon="3.27222">
        <ele>32.8</ele>
        <time>2023-01-22T10:36:17Z</time>
      </trkpt>
      <trkpt lat="50.35072" lon="3.27224">
        <ele>32.8</ele>
        <time>2023-01-22T10:36:18Z</time>
      </trkpt>
      <trkpt lat="50.35072" lon="3.27225">
        <ele>32.8</ele>
        <time>2023-01-22T10:36:19Z</time>
        <extensions>
          <gpxtpx:TrackPointExtension xmlns:gpxtpx="http://www.garmin.com/xmlschemas/TrackPointExtension/v1">
            <gpxtpx:hr>124</gpxtpx:hr>
          </gpxtpx:TrackPointExtension>
        </extensions>
      </trkpt>
      <trkpt lat="50.35072" lon="3.27227">
        <ele>25.028404</ele>
        <time>2023-01-22T10:36:20Z</time>
      </trkpt>
      <trkpt lat="50.35071" lon="3.27229">
        <ele>32.9</ele>
        <time>2023-01-22T10:36:21Z</time>
      </trkpt>
      <trkpt lat="50.3507" lon="3.27231">
        <ele>32.9</ele>
        <time>2023-01-22T10:36:22Z</time>
      </trkpt>
      <trkpt lat="50.3507" lon="3.27232">
        <ele>33</ele>
        <time>2023-01-22T10:36:23Z</time>
      </trkpt>
      <trkpt lat="50.35069" lon="3.27234">
        <ele>33</ele>
        <time>2023-01-22T10:36:24Z</time>
      </trkpt>
      <trkpt lat="50.35069" lon="3.27236">
        <ele>33</ele>
        <time>2023-01-22T10:36:25Z</time>
      </trkpt>
      <trkpt lat="50.35068" lon="3.27238">
        <ele>33.1</ele>
        <time>2023-01-22T10:36:26Z</time>
      </trkpt>
      <trkpt lat="50.35068" lon="3.2724">
        <ele>33.1</ele>
        <time>2023-01-22T10:36:27Z</time>
      </trkpt>
      <trkpt lat="50.35067" lon="3.27242">
        <ele>33.1</ele>
        <time>2023-01-22T10:36:28Z</time>
      </trkpt>
      <trkpt lat="50.35067" lon="3.27243">
        <ele>33.2</ele>
        <time>2023-01-22T10:36:29Z</time>
      </trkpt>
      <trkpt lat="50.35067" lon="3.27244">
        <ele>25.123281</ele>
        <time>2023-01-22T10:36:30Z</time>
      </trkpt>
      <trkpt lat="50.35066" lon="3.27246">
        <ele>33.2</ele>
        <time>2023-01-22T10:36:31Z</time>
      </trkpt>
      <trkpt lat="50.35066" lon="3.27248">
        <ele>33.3</ele>
        <time>2023-01-22T10:36:32Z</time>
      </trkpt>
      <trkpt lat="50.35065" lon="3.2725">
        <ele>33.3</ele>
        <time>2023-01-22T10:36:33Z</time>
      </trkpt>
      <trkpt lat="50.35063" lon="3.27252">
        <ele>33.4</ele>
        <time>2023-01-22T10:36:34Z</time>
      </trkpt>
      <trkpt lat="50.35062" lon="3.27254">
        <ele>33.4</ele>
        <time>2023-01-22T10:36:35Z</time>
      </trkpt>
      <trkpt lat="50.35061" lon="3.27255">
        <ele>33.5</ele>
        <time>2023-01-22T10:36:36Z</time>
      </trkpt>
      <trkpt lat="50.35061" lon="3.27255">
        <ele>33.5</ele>
        <time>2023-01-22T10:36:37Z</time>
      </trkpt>
      <trkpt lat="50.3506" lon="3.27257">
        <ele>33.5</ele>
        <time>2023-01-22T10:36:38Z</time>
      </trkpt>
      <trkpt lat="50.35059" lon="3.27258">
        <ele>33.5</ele>
        <time>2023-01-22T10:36:39Z</time>
        <extensions>
          <gpxtpx:TrackPointExtension xmlns:gpxtpx="http://www.garmin.com/xmlschemas/TrackPointExtension/v1">
            <gpxtpx:hr>127</gpxtpx:hr>
          </gpxtpx:TrackPointExtension>
        </extensions>
      </trkpt>
      <trkpt lat="50.35059" lon="3.2726">
        <ele>25.306393</ele>
        <time>2023-01-22T10:36:40Z</time>
      </trkpt>
      <trkpt lat="50.35059" lon="3.27262">
        <ele>33.4</ele>
        <time>2023-01-22T10:36:41Z</time>
      </trkpt>
      <trkpt lat="50.35058" lon="3.27264">
        <ele>33.4</ele>
        <time>2023-01-22T10:36:42Z</time>
      </trkpt>
      <trkpt lat="50.35057" lon="3.27264">
        <ele>33.4</ele>
        <time>2023-01-22T10:36:43Z</time>
      </trkpt>
      <trkpt lat="50.35056" lon="3.27265">
        <ele>33.4</ele>
        <time>2023-01-22T10:36:44Z</time>
      </trkpt>
      <trkpt lat="50.35055" lon="3.27266">
        <ele>33.4</ele>
        <time>2023-01-22T10:36:45Z</time>
      </trkpt>
      <trkpt lat="50.35054" lon="3.27268">
        <ele>33.4</ele>
        <time>2023-01-22T10:36:46Z</time>
      </trkpt>
      <trkpt lat="50.35053" lon="3.27269">
        <ele>33.4</ele>
        <time>2023-01-22T10:36:47Z</time>
      </trkpt>
      <trkpt lat="50.35051" lon="3.2727">
        <ele>33.4</ele>
        <time>2023-01-22T10:36:48Z</time>
      </trkpt>
      <trkpt lat="50.3505" lon="3.27272">
        <ele>33.4</ele>
        <time>2023-01-22T10:36:49Z</time>
      </trkpt>
      <trkpt lat="50.35049" lon="3.27272">
        <ele>25.253262</ele>
        <time>2023-01-22T10:36:50Z</time>
      </trkpt>
      <trkpt lat="50.35048" lon="3.27273">
        <ele>33.4</ele>
        <time>2023-01-22T10:36:51Z</time>
      </trkpt>
      <trkpt lat="50.35047" lon="3.27274">
        <ele>33.4</ele>
        <time>2023-01-22T10:36:52Z</time>
      </trkpt>
      <trkpt lat="50.35046" lon="3.27275">
        <ele>33.4</ele>
        <time>2023-01-22T10:36:53Z</time>
      </trkpt>
      <trkpt lat="50.35045" lon="3.27275">
        <ele>33.4</ele>
        <time>2023-01-22T10:36:54Z</time>
      </trkpt>
      <trkpt lat="50.35043" lon="3.27275">
        <ele>33.5</ele>
        <time>2023-01-22T10:36:55Z</time>
      </trkpt>
      <trkpt lat="50.35042" lon="3.27276">
        <ele>33.5</ele>
        <time>2023-01-22T10:36:56Z</time>
      </trkpt>
      <trkpt lat="50.3504" lon="3.27276">
        <ele>33.6</ele>
        <time>2023-01-22T10:36:57Z</time>
      </trkpt>
      <trkpt lat="50.35039" lon="3.27276">
        <ele>33.6</ele>
        <time>2023-01-22T10:36:58Z</time>
      </trkpt>
      <trkpt lat="50.35037" lon="3.27277">
        <ele>33.7</ele>
        <time>2023-01-22T10:36:59Z</time>
        <extensions>
          <gpxtpx:TrackPointExtension xmlns:gpxtpx="http://www.garmin.com/xmlschemas/TrackPointExtension/v1">
            <gpxtpx:hr>129</gpxtpx:hr>
          </gpxtpx:TrackPointExtension>
        </extensions>
      </trkpt>
      <trkpt lat="50.35036" lon="3.27277">
        <ele>25.34719</ele>
        <time>2023-01-22T10:37:00Z</time>
      </trkpt>
      <trkpt lat="50.35034" lon="3.27277">
        <ele>33.8</ele>
        <time>2023-01-22T10:37:01Z</time>
      </trkpt>
      <trkpt lat="50.35033" lon="3.27277">
        <ele>33.8</ele>
        <time>2023-01-22T10:37:02Z</time>
      </trkpt>
      <trkpt lat="50.35031" lon="3.27277">
        <ele>33.9</ele>
        <time>2023-01-22T10:37:03Z</time>
      </trkpt>
      <trkpt lat="50.3503" lon="3.27277">
        <ele>33.9</ele>
        <time>2023-01-22T10:37:04Z</time>
      </trkpt>
      <trkpt lat="50.35029" lon="3.27277">
        <ele>34</ele>
        <time>2023-01-22T10:37:05Z</time>
      </trkpt>
      <trkpt lat="50.35028" lon="3.27278">
        <ele>34</ele>
        <time>2023-01-22T10:37:06Z</time>
      </trkpt>
      <trkpt lat="50.35026" lon="3.27277">
        <ele>34</ele>
        <time>2023-01-22T10:37:07Z</time>
      </trkpt>
      <trkpt lat="50.35025" lon="3.27278">
        <ele>34</ele>
        <time>2023-01-22T10:37:08Z</time>
      </trkpt>
      <trkpt lat="50.35024" lon="3.27278">
        <ele>34</ele>
        <time>2023-01-22T10:37:09Z</time>
      </trkpt>
      <trkpt lat="50.35023" lon="3.27279">
        <ele>25.46294</ele>
        <time>2023-01-22T10:37:10Z</time>
      </trkpt>
      <trkpt lat="50.35022" lon="3.2728">
        <ele>33.9</ele>
        <time>2023-01-22T10:37:11Z</time>
      </trkpt>
      <trkpt lat="50.3502" lon="3.2728">
        <ele>33.9</ele>
        <time>2023-01-22T10:37:12Z</time>
      </trkpt>
      <trkpt lat="50.35019" lon="3.27281">
        <ele>33.9</ele>
        <time>2023-01-22T10:37:13Z</time>
      </trkpt>
      <trkpt lat="50.35018" lon="3.27282">
        <ele>33.9</ele>
        <time>2023-01-22T10:37:14Z</time>
      </trkpt>
      <trkpt lat="50.35016" lon="3.27283">
        <ele>33.8</ele>
        <time>2023-01-22T10:37:15Z</time>
      </trkpt>
      <trkpt lat="50.35015" lon="3.27283">
        <ele>33.8</ele>
        <time>2023-01-22T10:37:16Z</time>
      </trkpt>
      <trkpt lat="50.35014" lon="3.27284">
        <ele>33.8</ele>
        <time>2023-01-22T10:37:17Z</time>
      </trkpt>
      <trkpt lat="50.35013" lon="3.27285">
        <ele>33.8</ele>
        <time>2023-01-22T10:37:18Z</time>
      </trkpt>
      <trkpt lat="50.35011" lon="3.27285">
        <ele>33.7</ele>
        <time>2023-01-22T10:37:19Z</time>
        <extensions>
          <gpxtpx:TrackPointExtension xmlns:gpxtpx="http://www.garmin.com/xmlschemas/TrackPointExtension/v1">
            <gpxtpx:hr>127</gpxtpx:hr>
          </gpxtpx:TrackPointExtension>
        </extensions>
      </trkpt>
      <trkpt lat="50.3501" lon="3.27285">
        <ele>25.420246</ele>
        <time>2023-01-22T10:37:20Z</time>
      </trkpt>
      <trkpt lat="50.35008" lon="3.27287">
        <ele>33.7</ele>
        <time>2023-01-22T10:37:21Z</time>
      </trkpt>
      <trkpt lat="50.35007" lon="3.27287">
        <ele>33.7</ele>
        <time>2023-01-22T10:37:22Z</time>
      </trkpt>
      <trkpt lat="50.35006" lon="3.27287">
        <ele>33.7</ele>
        <time>2023-01-22T10:37:23Z</time>
      </trkpt>
      <trkpt lat="50.35005" lon="3.27287">
        <ele>33.7</ele>
        <time>2023-01-22T10:37:24Z</time>
      </trkpt>
      <trkpt lat="50.35004" lon="3.27288">
        <ele>33.6</ele>
        <time>2023-01-22T10:37:25Z</time>
      </trkpt>
      <trkpt lat="50.35003" lon="3.27288">
        <ele>33.6</ele>
        <time>2023-01-22T10:37:26Z</time>
      </trkpt>
      <trkpt lat="50.35001" lon="3.27288">
        <ele>33.6</ele>
        <time>2023-01-22T10:37:27Z</time>
      </trkpt>
      <trkpt lat="50.35" lon="3.27289">
        <ele>33.6</ele>
        <time>2023-01-22T10:37:28Z</time>
      </trkpt>
      <trkpt lat="50.34999" lon="3.27289">
        <ele>33.6</ele>
        <time>2023-01-22T10:37:29Z</time>
      </trkpt>
      <trkpt lat="50.34997" lon="3.2729">
        <ele>25.591974</ele>
        <time>2023-01-22T10:37:30Z</time>
      </trkpt>
      <trkpt lat="50.34996" lon="3.2729">
        <ele>33.6</ele>
        <time>2023-01-22T10:37:31Z</time>
      </trkpt>
      <trkpt lat="50.34994" lon="3.2729">
        <ele>33.6</ele>
        <time>2023-01-22T10:37:32Z</time>
      </trkpt>
      <trkpt lat="50.34993" lon="3.2729">
        <ele>33.7</ele>
        <time>2023-01-22T10:37:33Z</time>
      </trkpt>
      <trkpt lat="50.34991" lon="3.27291">
        <ele>33.7</ele>
        <time>2023-01-22T10:37:34Z</time>
      </trkpt>
      <trkpt lat="50.3499" lon="3.27292">
        <ele>33.7</ele>
        <time>2023-01-22T10:37:35Z</time>
      </trkpt>
      <trkpt lat="50.34989" lon="3.27292">
        <ele>33.7</ele>
        <time>2023-01-22T10:37:36Z</time>
      </trkpt>
      <trkpt lat="50.34987" lon="3.27293">
        <ele>33.7</ele>
        <time>2023-01-22T10:37:37Z</time>
      </trkpt>
      <trkpt lat="50.34985" lon="3.27293">
        <ele>33.7</ele>
        <time>2023-01-22T10:37:38Z</time>
      </trkpt>
      <trkpt lat="50.34984" lon="3.27293">
        <ele>33.8</ele>
        <time>2023-01-22T10:37:39Z</time>
        <extensions>
          <gpxtpx:TrackPointExtension xmlns:gpxtpx="http://www.garmin.com/xmlschemas/TrackPointExtension/v1">
            <gpxtpx:hr>126</gpxtpx:hr>
          </gpxtpx:TrackPointExtension>
        </extensions>
      </trkpt>
      <trkpt lat="50.34984" lon="3.27294">
        <ele>25.436375</ele>
        <time>2023-01-22T10:37:40Z</time>
      </trkpt>
      <trkpt lat="50.34983" lon="3.27295">
        <ele>33.8</ele>
        <time>2023-01-22T10:37:41Z</time>
      </trkpt>
      <trkpt lat="50.34983" lon="3.27295">
        <ele>33.8</ele>
        <time>2023-01-22T10:37:42Z</time>
      </trkpt>
      <trkpt lat="50.34982" lon="3.27295">
        <ele>33.8</ele>
        <time>2023-01-22T10:37:43Z</time>
      </trkpt>
      <trkpt lat="50.34981" lon="3.27296">
        <ele>33.8</ele>
        <time>2023-01-22T10:37:44Z</time>
      </trkpt>
      <trkpt lat="50.34979" lon="3.27297">
        <ele>33.8</ele>
        <time>2023-01-22T10:37:45Z</time>
      </trkpt>
      <trkpt lat="50.34978" lon="3.27297">
        <ele>33.9</ele>
        <time>2023-01-22T10:37:46Z</time>
      </trkpt>
      <trkpt lat="50.34976" lon="3.27298">
        <ele>33.9</ele>
        <time>2023-01-22T10:37:47Z</time>
      </trkpt>
      <trkpt lat="50.34975" lon="3.27299">
        <ele>33.9</ele>
        <time>2023-01-22T10:37:48Z</time>
      </trkpt>
      <trkpt lat="50.34974" lon="3.27299">
        <ele>34</ele>
        <time>2023-01-22T10:37:49Z</time>
      </trkpt>
      <trkpt lat="50.34972" lon="3.273">
        <ele>25.593872</ele>
        <time>2023-01-22T10:37:50Z</time>
      </trkpt>
      <trkpt lat="50.3497" lon="3.27301">
        <ele>34</ele>
        <time>2023-01-22T10:37:51Z</time>
      </trkpt>
      <trkpt lat="50.34969" lon="3.27301">
        <ele>34</ele>
        <time>2023-01-22T10:37:52Z</time>
      </trkpt>
      <trkpt lat="50.34968" lon="3.27302">
        <ele>34</ele>
        <time>2023-01-22T10:37:53Z</time>
      </trkpt>
      <trkpt lat="50.34967" lon="3.27303">
        <ele>34</ele>
        <time>2023-01-22T10:37:54Z</time>
      </trkpt>
      <trkpt lat="50.34965" lon="3.27304">
        <ele>34</ele>
        <time>2023-01-22T10:37:55Z</time>
      </trkpt>
      <trkpt lat="50.34964" lon="3.27305">
        <ele>34</ele>
        <time>2023-01-22T10:37:56Z</time>
      </trkpt>
      <trkpt lat="50.34963" lon="3.27305">
        <ele>34</ele>
        <time>2023-01-22T10:37:57Z</time>
      </trkpt>
      <trkpt lat="50.34962" lon="3.27307">
        <ele>34</ele>
        <time>2023-01-22T10:37:58Z</time>
      </trkpt>
      <trkpt lat="50.3496" lon="3.27308">
        <ele>34</ele>
        <time>2023-01-22T10:37:59Z</time>
        <extensions>
          <gpxtpx:TrackPointExtension xmlns:gpxtpx="http://www.garmin.com/xmlschemas/TrackPointExtension/v1">
            <gpxtpx:hr>128</gpxtpx:hr>
          </gpxtpx:TrackPointExtension>
        </extensions>
      </trkpt>
      <trkpt lat="50.34959" lon="3.27309">
        <ele>25.521765</ele>
        <time>2023-01-22T10:38:00Z</time>
      </trkpt>
      <trkpt lat="50.34958" lon="3.2731">
        <ele>33.9</ele>
        <time>2023-01-22T10:38:01Z</time>
      </trkpt>
      <trkpt lat="50.34957" lon="3.27311">
        <ele>33.9</ele>
        <time>2023-01-22T10:38:02Z</time>
      </trkpt>
      <trkpt lat="50.34956" lon="3.27312">
        <ele>33.9</ele>
        <time>2023-01-22T10:38:03Z</time>
      </trkpt>
      <trkpt lat="50.34955" lon="3.27313">
        <ele>33.9</ele>
        <time>2023-01-22T10:38:04Z</time>
      </trkpt>
      <trkpt lat="50.34953" lon="3.27313">
        <ele>33.9</ele>
        <time>2023-01-22T10:38:05Z</time>
      </trkpt>
      <trkpt lat="50.34953" lon="3.27314">
        <ele>33.9</ele>
        <time>2023-01-22T10:38:06Z</time>
      </trkpt>
      <trkpt lat="50.34951" lon="3.27314">
        <ele>33.9</ele>
        <time>2023-01-22T10:38:07Z</time>
      </trkpt>
      <trkpt lat="50.3495" lon="3.27315">
        <ele>33.9</ele>
        <time>2023-01-22T10:38:08Z</time>
      </trkpt>
      <trkpt lat="50.3495" lon="3.27316">
        <ele>33.9</ele>
        <time>2023-01-22T10:38:09Z</time>
      </trkpt>
      <trkpt lat="50.34949" lon="3.27316">
        <ele>25.592924</ele>
        <time>2023-01-22T10:38:10Z</time>
      </trkpt>
      <trkpt lat="50.34948" lon="3.27316">
        <ele>34</ele>
        <time>2023-01-22T10:38:11Z</time>
      </trkpt>
      <trkpt lat="50.34946" lon="3.27316">
        <ele>34</ele>
        <time>2023-01-22T10:38:12Z</time>
      </trkpt>
      <trkpt lat="50.34945" lon="3.27316">
        <ele>34</ele>
        <time>2023-01-22T10:38:13Z</time>
      </trkpt>
      <trkpt lat="50.34944" lon="3.27317">
        <ele>34</ele>
        <time>2023-01-22T10:38:14Z</time>
      </trkpt>
      <trkpt lat="50.34943" lon="3.27317">
        <ele>34</ele>
        <time>2023-01-22T10:38:15Z</time>
      </trkpt>
      <trkpt lat="50.34942" lon="3.27317">
        <ele>34</ele>
        <time>2023-01-22T10:38:16Z</time>
      </trkpt>
      <trkpt lat="50.34941" lon="3.27318">
        <ele>34</ele>
        <time>2023-01-22T10:38:17Z</time>
      </trkpt>
      <trkpt lat="50.3494" lon="3.27319">
        <ele>34</ele>
        <time>2023-01-22T10:38:18Z</time>
      </trkpt>
      <trkpt lat="50.34938" lon="3.27319">
        <ele>34</ele>
        <time>2023-01-22T10:38:19Z</time>
        <extensions>
          <gpxtpx:TrackPointExtension xmlns:gpxtpx="http://www.garmin.com/xmlschemas/TrackPointExtension/v1">
            <gpxtpx:hr>130</gpxtpx:hr>
          </gpxtpx:TrackPointExtension>
        </extensions>
      </trkpt>
      <trkpt lat="50.34937" lon="3.27319">
        <ele>25.58723</ele>
        <time>2023-01-22T10:38:20Z</time>
      </trkpt>
      <trkpt lat="50.34935" lon="3.27321">
        <ele>34</ele>
        <time>2023-01-22T10:38:21Z</time>
      </trkpt>
      <trkpt lat="50.34935" lon="3.27321">
        <ele>34</ele>
        <time>2023-01-22T10:38:22Z</time>
      </trkpt>
      <trkpt lat="50.34933" lon="3.27321">
        <ele>34</ele>
        <time>2023-01-22T10:38:23Z</time>
      </trkpt>
      <trkpt lat="50.34932" lon="3.27323">
        <ele>34</ele>
        <time>2023-01-22T10:38:24Z</time>
      </trkpt>
      <trkpt lat="50.3493" lon="3.27323">
        <ele>34</ele>
        <time>2023-01-22T10:38:25Z</time>
      </trkpt>
      <trkpt lat="50.34929" lon="3.27324">
        <ele>34</ele>
        <time>2023-01-22T10:38:26Z</time>
      </trkpt>
      <trkpt lat="50.34927" lon="3.27324">
        <ele>34</ele>
        <time>2023-01-22T10:38:27Z</time>
      </trkpt>
      <trkpt lat="50.34926" lon="3.27324">
        <ele>34</ele>
        <time>2023-01-22T10:38:28Z</time>
      </trkpt>
      <trkpt lat="50.34925" lon="3.27324">
        <ele>34</ele>
        <time>2023-01-22T10:38:29Z</time>
      </trkpt>
      <trkpt lat="50.34924" lon="3.27325">
        <ele>25.651749</ele>
        <time>2023-01-22T10:38:30Z</time>
      </trkpt>
      <trkpt lat="50.34922" lon="3.27325">
        <ele>34</ele>
        <time>2023-01-22T10:38:31Z</time>
      </trkpt>
      <trkpt lat="50.34921" lon="3.27326">
        <ele>34</ele>
        <time>2023-01-22T10:38:32Z</time>
      </trkpt>
      <trkpt lat="50.34919" lon="3.27327">
        <ele>34</ele>
        <time>2023-01-22T10:38:33Z</time>
      </trkpt>
      <trkpt lat="50.34917" lon="3.27329">
        <ele>34</ele>
        <time>2023-01-22T10:38:34Z</time>
      </trkpt>
      <trkpt lat="50.34916" lon="3.27329">
        <ele>34</ele>
        <time>2023-01-22T10:38:35Z</time>
      </trkpt>
      <trkpt lat="50.34914" lon="3.2733">
        <ele>34</ele>
        <time>2023-01-22T10:38:36Z</time>
      </trkpt>
      <trkpt lat="50.34913" lon="3.2733">
        <ele>34</ele>
        <time>2023-01-22T10:38:37Z</time>
      </trkpt>
      <trkpt lat="50.34912" lon="3.2733">
        <ele>34</ele>
        <time>2023-01-22T10:38:38Z</time>
      </trkpt>
      <trkpt lat="50.34911" lon="3.2733">
        <ele>34</ele>
        <time>2023-01-22T10:38:39Z</time>
        <extensions>
          <gpxtpx:TrackPointExtension xmlns:gpxtpx="http://www.garmin.com/xmlschemas/TrackPointExtension/v1">
            <gpxtpx:hr>127</gpxtpx:hr>
          </gpxtpx:TrackPointExtension>
        </extensions>
      </trkpt>
      <trkpt lat="50.34909" lon="3.2733">
        <ele>25.544537</ele>
        <time>2023-01-22T10:38:40Z</time>
      </trkpt>
      <trkpt lat="50.34908" lon="3.27331">
        <ele>34</ele>
        <time>2023-01-22T10:38:41Z</time>
      </trkpt>
      <trkpt lat="50.34907" lon="3.27331">
        <ele>34</ele>
        <time>2023-01-22T10:38:42Z</time>
      </trkpt>
      <trkpt lat="50.34906" lon="3.27332">
        <ele>34</ele>
        <time>2023-01-22T10:38:43Z</time>
      </trkpt>
      <trkpt lat="50.34905" lon="3.27332">
        <ele>34</ele>
        <time>2023-01-22T10:38:44Z</time>
      </trkpt>
      <trkpt lat="50.34904" lon="3.27333">
        <ele>34</ele>
        <time>2023-01-22T10:38:45Z</time>
      </trkpt>
      <trkpt lat="50.34904" lon="3.27335">
        <ele>34</ele>
        <time>2023-01-22T10:38:46Z</time>
      </trkpt>
      <trkpt lat="50.34903" lon="3.27337">
        <ele>34</ele>
        <time>2023-01-22T10:38:47Z</time>
      </trkpt>
      <trkpt lat="50.34903" lon="3.27339">
        <ele>34</ele>
        <time>2023-01-22T10:38:48Z</time>
      </trkpt>
      <trkpt lat="50.34904" lon="3.27341">
        <ele>34</ele>
        <time>2023-01-22T10:38:49Z</time>
      </trkpt>
      <trkpt lat="50.34904" lon="3.27343">
        <ele>25.266544</ele>
        <time>2023-01-22T10:38:50Z</time>
      </trkpt>
      <trkpt lat="50.34905" lon="3.27346">
        <ele>34</ele>
        <time>2023-01-22T10:38:51Z</time>
      </trkpt>
      <trkpt lat="50.34906" lon="3.27348">
        <ele>34</ele>
        <time>2023-01-22T10:38:52Z</time>
      </trkpt>
      <trkpt lat="50.34908" lon="3.27349">
        <ele>34</ele>
        <time>2023-01-22T10:38:53Z</time>
      </trkpt>
      <trkpt lat="50.34909" lon="3.2735">
        <ele>34</ele>
        <time>2023-01-22T10:38:54Z</time>
      </trkpt>
      <trkpt lat="50.34909" lon="3.27352">
        <ele>34</ele>
        <time>2023-01-22T10:38:55Z</time>
      </trkpt>
      <trkpt lat="50.3491" lon="3.27353">
        <ele>34</ele>
        <time>2023-01-22T10:38:56Z</time>
      </trkpt>
      <trkpt lat="50.34911" lon="3.27354">
        <ele>34</ele>
        <time>2023-01-22T10:38:57Z</time>
      </trkpt>
      <trkpt lat="50.34912" lon="3.27355">
        <ele>34</ele>
        <time>2023-01-22T10:38:58Z</time>
      </trkpt>
      <trkpt lat="50.34913" lon="3.27356">
        <ele>34</ele>
        <time>2023-01-22T10:38:59Z</time>
        <extensions>
          <gpxtpx:TrackPointExtension xmlns:gpxtpx="http://www.garmin.com/xmlschemas/TrackPointExtension/v1">
            <gpxtpx:hr>131</gpxtpx:hr>
          </gpxtpx:TrackPointExtension>
        </extensions>
      </trkpt>
      <trkpt lat="50.34913" lon="3.27357">
        <ele>25.204874</ele>
        <time>2023-01-22T10:39:00Z</time>
      </trkpt>
      <trkpt lat="50.34914" lon="3.27359">
        <ele>34</ele>
        <time>2023-01-22T10:39:01Z</time>
      </trkpt>
      <trkpt lat="50.34915" lon="3.2736">
        <ele>34</ele>
        <time>2023-01-22T10:39:02Z</time>
      </trkpt>
      <trkpt lat="50.34916" lon="3.27362">
        <ele>34</ele>
        <time>2023-01-22T10:39:03Z</time>
      </trkpt>
      <trkpt lat="50.34917" lon="3.27364">
        <ele>34</ele>
        <time>2023-01-22T10:39:04Z</time>
      </trkpt>
      <trkpt lat="50.34917" lon="3.27367">
        <ele>34</ele>
        <time>2023-01-22T10:39:05Z</time>
      </trkpt>
      <trkpt lat="50.34919" lon="3.27369">
        <ele>33.9</ele>
        <time>2023-01-22T10:39:06Z</time>
      </trkpt>
      <trkpt lat="50.34919" lon="3.27371">
        <ele>33.9</ele>
        <time>2023-01-22T10:39:07Z</time>
      </trkpt>
      <trkpt lat="50.3492" lon="3.27372">
        <ele>33.9</ele>
        <time>2023-01-22T10:39:08Z</time>
      </trkpt>
      <trkpt lat="50.34921" lon="3.27374">
        <ele>33.8</ele>
        <time>2023-01-22T10:39:09Z</time>
      </trkpt>
      <trkpt lat="50.34922" lon="3.27375">
        <ele>25.128973</ele>
        <time>2023-01-22T10:39:10Z</time>
      </trkpt>
      <trkpt lat="50.34922" lon="3.27376">
        <ele>33.8</ele>
        <time>2023-01-22T10:39:11Z</time>
      </trkpt>
      <trkpt lat="50.34922" lon="3.27378">
        <ele>33.8</ele>
        <time>2023-01-22T10:39:12Z</time>
      </trkpt>
      <trkpt lat="50.34923" lon="3.27381">
        <ele>33.8</ele>
        <time>2023-01-22T10:39:13Z</time>
      </trkpt>
      <trkpt lat="50.34924" lon="3.27383">
        <ele>33.7</ele>
        <time>2023-01-22T10:39:14Z</time>
      </trkpt>
      <trkpt lat="50.34925" lon="3.27384">
        <ele>33.7</ele>
        <time>2023-01-22T10:39:15Z</time>
      </trkpt>
      <trkpt lat="50.34926" lon="3.27385">
        <ele>33.7</ele>
        <time>2023-01-22T10:39:16Z</time>
      </trkpt>
      <trkpt lat="50.34926" lon="3.27387">
        <ele>33.7</ele>
        <time>2023-01-22T10:39:17Z</time>
      </trkpt>
      <trkpt lat="50.34927" lon="3.27388">
        <ele>33.6</ele>
        <time>2023-01-22T10:39:18Z</time>
      </trkpt>
      <trkpt lat="50.34927" lon="3.2739">
        <ele>33.6</ele>
        <time>2023-01-22T10:39:19Z</time>
        <extensions>
          <gpxtpx:TrackPointExtension xmlns:gpxtpx="http://www.garmin.com/xmlschemas/TrackPointExtension/v1">
            <gpxtpx:hr>126</gpxtpx:hr>
          </gpxtpx:TrackPointExtension>
        </extensions>
      </trkpt>
      <trkpt lat="50.34928" lon="3.27391">
        <ele>25.081535</ele>
        <time>2023-01-22T10:39:20Z</time>
      </trkpt>
      <trkpt lat="50.34929" lon="3.27392">
        <ele>33.5</ele>
        <time>2023-01-22T10:39:21Z</time>
      </trkpt>
      <trkpt lat="50.3493" lon="3.27393">
        <ele>33.5</ele>
        <time>2023-01-22T10:39:22Z</time>
      </trkpt>
      <trkpt lat="50.34931" lon="3.27394">
        <ele>33.5</ele>
        <time>2023-01-22T10:39:23Z</time>
      </trkpt>
      <trkpt lat="50.34932" lon="3.27396">
        <ele>33.5</ele>
        <time>2023-01-22T10:39:24Z</time>
      </trkpt>
      <trkpt lat="50.34933" lon="3.27396">
        <ele>33.5</ele>
        <time>2023-01-22T10:39:25Z</time>
      </trkpt>
      <trkpt lat="50.34935" lon="3.27397">
        <ele>33.4</ele>
        <time>2023-01-22T10:39:26Z</time>
      </trkpt>
      <trkpt lat="50.34936" lon="3.27398">
        <ele>33.4</ele>
        <time>2023-01-22T10:39:27Z</time>
      </trkpt>
      <trkpt lat="50.34937" lon="3.27399">
        <ele>33.4</ele>
        <time>2023-01-22T10:39:28Z</time>
      </trkpt>
      <trkpt lat="50.34938" lon="3.274">
        <ele>33.4</ele>
        <time>2023-01-22T10:39:29Z</time>
      </trkpt>
      <trkpt lat="50.34939" lon="3.274">
        <ele>24.843397</ele>
        <time>2023-01-22T10:39:30Z</time>
      </trkpt>
      <trkpt lat="50.3494" lon="3.27401">
        <ele>33.5</ele>
        <time>2023-01-22T10:39:31Z</time>
      </trkpt>
      <trkpt lat="50.34942" lon="3.27402">
        <ele>33.5</ele>
        <time>2023-01-22T10:39:32Z</time>
      </trkpt>
      <trkpt lat="50.34943" lon="3.27403">
        <ele>33.5</ele>
        <time>2023-01-22T10:39:33Z</time>
      </trkpt>
      <trkpt lat="50.34944" lon="3.27405">
        <ele>33.6</ele>
        <time>2023-01-22T10:39:34Z</time>
      </trkpt>
      <trkpt lat="50.34945" lon="3.27407">
        <ele>33.6</ele>
        <time>2023-01-22T10:39:35Z</time>
      </trkpt>
      <trkpt lat="50.34946" lon="3.27407">
        <ele>33.6</ele>
        <time>2023-01-22T10:39:36Z</time>
      </trkpt>
      <trkpt lat="50.34947" lon="3.27408">
        <ele>33.6</ele>
        <time>2023-01-22T10:39:37Z</time>
      </trkpt>
      <trkpt lat="50.34948" lon="3.27409">
        <ele>33.6</ele>
        <time>2023-01-22T10:39:38Z</time>
      </trkpt>
      <trkpt lat="50.34949" lon="3.2741">
        <ele>33.6</ele>
        <time>2023-01-22T10:39:39Z</time>
        <extensions>
          <gpxtpx:TrackPointExtension xmlns:gpxtpx="http://www.garmin.com/xmlschemas/TrackPointExtension/v1">
            <gpxtpx:hr>127</gpxtpx:hr>
          </gpxtpx:TrackPointExtension>
        </extensions>
      </trkpt>
      <trkpt lat="50.3495" lon="3.27411">
        <ele>25.059713</ele>
        <time>2023-01-22T10:39:40Z</time>
      </trkpt>
      <trkpt lat="50.34952" lon="3.27411">
        <ele>33.6</ele>
        <time>2023-01-22T10:39:41Z</time>
      </trkpt>
      <trkpt lat="50.34953" lon="3.27412">
        <ele>33.6</ele>
        <time>2023-01-22T10:39:42Z</time>
      </trkpt>
      <trkpt lat="50.34954" lon="3.27413">
        <ele>33.6</ele>
        <time>2023-01-22T10:39:43Z</time>
      </trkpt>
      <trkpt lat="50.34955" lon="3.27415">
        <ele>33.6</ele>
        <time>2023-01-22T10:39:44Z</time>
      </trkpt>
      <trkpt lat="50.34957" lon="3.27417">
        <ele>33.6</ele>
        <time>2023-01-22T10:39:45Z</time>
      </trkpt>
      <trkpt lat="50.34958" lon="3.27418">
        <ele>33.5</ele>
        <time>2023-01-22T10:39:46Z</time>
      </trkpt>
      <trkpt lat="50.34959" lon="3.27419">
        <ele>33.5</ele>
        <time>2023-01-22T10:39:47Z</time>
      </trkpt>
      <trkpt lat="50.3496" lon="3.27419">
        <ele>33.5</ele>
        <time>2023-01-22T10:39:48Z</time>
      </trkpt>
      <trkpt lat="50.34961" lon="3.27421">
        <ele>33.5</ele>
        <time>2023-01-22T10:39:49Z</time>
      </trkpt>
      <trkpt lat="50.34962" lon="3.27422">
        <ele>24.593878</ele>
        <time>2023-01-22T10:39:50Z</time>
      </trkpt>
      <trkpt lat="50.34963" lon="3.27423">
        <ele>33.5</ele>
        <time>2023-01-22T10:39:51Z</time>
      </trkpt>
      <trkpt lat="50.34964" lon="3.27423">
        <ele>33.5</ele>
        <time>2023-01-22T10:39:52Z</time>
      </trkpt>
      <trkpt lat="50.34965" lon="3.27424">
        <ele>33.5</ele>
        <time>2023-01-22T10:39:53Z</time>
      </trkpt>
      <trkpt lat="50.34966" lon="3.27426">
        <ele>33.5</ele>
        <time>2023-01-22T10:39:54Z</time>
      </trkpt>
      <trkpt lat="50.34967" lon="3.27426">
        <ele>33.5</ele>
        <time>2023-01-22T10:39:55Z</time>
      </trkpt>
      <trkpt lat="50.34968" lon="3.27426">
        <ele>33.4</ele>
        <time>2023-01-22T10:39:56Z</time>
      </trkpt>
      <trkpt lat="50.34969" lon="3.27427">
        <ele>33.5</ele>
        <time>2023-01-22T10:39:57Z</time>
      </trkpt>
      <trkpt lat="50.3497" lon="3.27428">
        <ele>33.5</ele>
        <time>2023-01-22T10:39:58Z</time>
      </trkpt>
      <trkpt lat="50.34971" lon="3.2743">
        <ele>33.5</ele>
        <time>2023-01-22T10:39:59Z</time>
        <extensions>
          <gpxtpx:TrackPointExtension xmlns:gpxtpx="http://www.garmin.com/xmlschemas/TrackPointExtension/v1">
            <gpxtpx:hr>125</gpxtpx:hr>
          </gpxtpx:TrackPointExtension>
        </extensions>
      </trkpt>
      <trkpt lat="50.34973" lon="3.27431">
        <ele>24.823473</ele>
        <time>2023-01-22T10:40:00Z</time>
      </trkpt>
      <trkpt lat="50.34974" lon="3.27431">
        <ele>33.5</ele>
        <time>2023-01-22T10:40:01Z</time>
      </trkpt>
      <trkpt lat="50.34975" lon="3.27432">
        <ele>33.5</ele>
        <time>2023-01-22T10:40:02Z</time>
      </trkpt>
      <trkpt lat="50.34977" lon="3.27433">
        <ele>33.5</ele>
        <time>2023-01-22T10:40:03Z</time>
      </trkpt>
      <trkpt lat="50.34978" lon="3.27434">
        <ele>33.5</ele>
        <time>2023-01-22T10:40:04Z</time>
      </trkpt>
      <trkpt lat="50.34979" lon="3.27435">
        <ele>33.5</ele>
        <time>2023-01-22T10:40:05Z</time>
      </trkpt>
      <trkpt lat="50.3498" lon="3.27436">
        <ele>33.5</ele>
        <time>2023-01-22T10:40:06Z</time>
      </trkpt>
      <trkpt lat="50.34982" lon="3.27436">
        <ele>33.4</ele>
        <time>2023-01-22T10:40:07Z</time>
      </trkpt>
      <trkpt lat="50.34983" lon="3.27436">
        <ele>33.4</ele>
        <time>2023-01-22T10:40:08Z</time>
      </trkpt>
      <trkpt lat="50.34985" lon="3.27436">
        <ele>33.4</ele>
        <time>2023-01-22T10:40:09Z</time>
      </trkpt>
      <trkpt lat="50.34986" lon="3.27435">
        <ele>24.837706</ele>
        <time>2023-01-22T10:40:10Z</time>
      </trkpt>
      <trkpt lat="50.34987" lon="3.27434">
        <ele>33.3</ele>
        <time>2023-01-22T10:40:11Z</time>
      </trkpt>
      <trkpt lat="50.34988" lon="3.27434">
        <ele>33.3</ele>
        <time>2023-01-22T10:40:12Z</time>
      </trkpt>
      <trkpt lat="50.3499" lon="3.27433">
        <ele>33.2</ele>
        <time>2023-01-22T10:40:13Z</time>
      </trkpt>
      <trkpt lat="50.3499" lon="3.27432">
        <ele>33.2</ele>
        <time>2023-01-22T10:40:14Z</time>
      </trkpt>
      <trkpt lat="50.34991" lon="3.2743">
        <ele>33.2</ele>
        <time>2023-01-22T10:40:15Z</time>
      </trkpt>
      <trkpt lat="50.34991" lon="3.27428">
        <ele>33.1</ele>
        <time>2023-01-22T10:40:16Z</time>
      </trkpt>
      <trkpt lat="50.34992" lon="3.27426">
        <ele>33.1</ele>
        <time>2023-01-22T10:40:17Z</time>
      </trkpt>
      <trkpt lat="50.34992" lon="3.27425">
        <ele>33.1</ele>
        <time>2023-01-22T10:40:18Z</time>
      </trkpt>
      <trkpt lat="50.34992" lon="3.27424">
        <ele>33.1</ele>
        <time>2023-01-22T10:40:19Z</time>
        <extensions>
          <gpxtpx:TrackPointExtension xmlns:gpxtpx="http://www.garmin.com/xmlschemas/TrackPointExtension/v1">
            <gpxtpx:hr>127</gpxtpx:hr>
          </gpxtpx:TrackPointExtension>
        </extensions>
      </trkpt>
      <trkpt lat="50.34992" lon="3.27423">
        <ele>24.771292</ele>
        <time>2023-01-22T10:40:20Z</time>
      </trkpt>
      <trkpt lat="50.34993" lon="3.27421">
        <ele>33</ele>
        <time>2023-01-22T10:40:21Z</time>
      </trkpt>
      <trkpt lat="50.34993" lon="3.27419">
        <ele>33</ele>
        <time>2023-01-22T10:40:22Z</time>
      </trkpt>
      <trkpt lat="50.34994" lon="3.27418">
        <ele>33</ele>
        <time>2023-01-22T10:40:23Z</time>
      </trkpt>
      <trkpt lat="50.34995" lon="3.27417">
        <ele>33</ele>
        <time>2023-01-22T10:40:24Z</time>
      </trkpt>
      <trkpt lat="50.34995" lon="3.27417">
        <ele>33</ele>
        <time>2023-01-22T10:40:25Z</time>
      </trkpt>
      <trkpt lat="50.34996" lon="3.27416">
        <ele>33</ele>
        <time>2023-01-22T10:40:26Z</time>
      </trkpt>
      <trkpt lat="50.34996" lon="3.27415">
        <ele>33</ele>
        <time>2023-01-22T10:40:27Z</time>
      </trkpt>
      <trkpt lat="50.34997" lon="3.27413">
        <ele>33</ele>
        <time>2023-01-22T10:40:28Z</time>
      </trkpt>
      <trkpt lat="50.34998" lon="3.27412">
        <ele>33</ele>
        <time>2023-01-22T10:40:29Z</time>
      </trkpt>
      <trkpt lat="50.34998" lon="3.27411">
        <ele>24.807344</ele>
        <time>2023-01-22T10:40:30Z</time>
      </trkpt>
      <trkpt lat="50.34998" lon="3.2741">
        <ele>33</ele>
        <time>2023-01-22T10:40:31Z</time>
      </trkpt>
      <trkpt lat="50.34999" lon="3.27409">
        <ele>33</ele>
        <time>2023-01-22T10:40:32Z</time>
      </trkpt>
      <trkpt lat="50.34999" lon="3.27407">
        <ele>33</ele>
        <time>2023-01-22T10:40:33Z</time>
      </trkpt>
      <trkpt lat="50.35" lon="3.27407">
        <ele>33</ele>
        <time>2023-01-22T10:40:34Z</time>
      </trkpt>
      <trkpt lat="50.35" lon="3.27406">
        <ele>33</ele>
        <time>2023-01-22T10:40:35Z</time>
      </trkpt>
      <trkpt lat="50.35" lon="3.27405">
        <ele>33</ele>
        <time>2023-01-22T10:40:36Z</time>
      </trkpt>
      <trkpt lat="50.35" lon="3.27405">
        <ele>33</ele>
        <time>2023-01-22T10:40:37Z</time>
      </trkpt>
      <trkpt lat="50.35001" lon="3.27404">
        <ele>33</ele>
        <time>2023-01-22T10:40:38Z</time>
      </trkpt>
      <trkpt lat="50.35002" lon="3.27402">
        <ele>33</ele>
        <time>2023-01-22T10:40:39Z</time>
        <extensions>
          <gpxtpx:TrackPointExtension xmlns:gpxtpx="http://www.garmin.com/xmlschemas/TrackPointExtension/v1">
            <gpxtpx:hr>131</gpxtpx:hr>
          </gpxtpx:TrackPointExtension>
        </extensions>
      </trkpt>
      <trkpt lat="50.35002" lon="3.27401">
        <ele>24.781729</ele>
        <time>2023-01-22T10:40:40Z</time>
      </trkpt>
      <trkpt lat="50.35003" lon="3.27401">
        <ele>33</ele>
        <time>2023-01-22T10:40:41Z</time>
      </trkpt>
      <trkpt lat="50.35003" lon="3.274">
        <ele>33</ele>
        <time>2023-01-22T10:40:42Z</time>
      </trkpt>
      <trkpt lat="50.35003" lon="3.274">
        <ele>33</ele>
        <time>2023-01-22T10:40:43Z</time>
      </trkpt>
      <trkpt lat="50.35003" lon="3.274">
        <ele>33</ele>
        <time>2023-01-22T10:40:44Z</time>
      </trkpt>
    </trkseg>
  </trk>
</gpx>